<?xml version='1.0' encoding='UTF-8'?><gpx version="1.1" creator="JPX - https://github.com/jenetics/jpx" xmlns="http://www.topografix.com/GPX/1/1"><trk><trkseg><trkpt lat="42.1932267" lon="14.2200392"><ele>552.0</ele><time>2026-04-26T10:59:22.741Z</time></trkpt><trkpt lat="42.1930663" lon="14.2200428"><ele>554.0</ele><time>2026-04-26T10:59:24.557Z</time></trkpt><trkpt lat="42.1930935" lon="14.2201703"><ele>556.0</ele><time>2026-04-26T10:59:25.558Z</time></trkpt><trkpt lat="42.1930932" lon="14.2202582"><ele>558.0</ele><time>2026-04-26T10:59:28.56Z</time></trkpt><trkpt lat="42.1930488" lon="14.2203048"><ele>560.0</ele><time>2026-04-26T11:03:34.757Z</time></trkpt><trkpt lat="42.1929547" lon="14.2202403"><ele>560.0</ele><time>2026-04-26T11:03:37.754Z</time></trkpt><trkpt lat="42.1928677" lon="14.2201715"><ele>560.0</ele><time>2026-04-26T11:03:39.756Z</time></trkpt><trkpt lat="42.1927675" lon="14.2200923"><ele>560.0</ele><time>2026-04-26T11:03:41.754Z</time></trkpt><trkpt lat="42.1926752" lon="14.2200272"><ele>560.0</ele><time>2026-04-26T11:03:43.755Z</time></trkpt><trkpt lat="42.1925807" lon="14.2199778"><ele>560.0</ele><time>2026-04-26T11:03:45.756Z</time></trkpt><trkpt lat="42.1925153" lon="14.2199282"><ele>560.0</ele><time>2026-04-26T11:03:47.756Z</time></trkpt><trkpt lat="42.192429" lon="14.2198923"><ele>560.0</ele><time>2026-04-26T11:04:07.759Z</time></trkpt><trkpt lat="42.1923217" lon="14.219867"><ele>560.0</ele><time>2026-04-26T11:04:09.758Z</time></trkpt><trkpt lat="42.1922525" lon="14.219859"><ele>560.0</ele><time>2026-04-26T11:04:10.758Z</time></trkpt><trkpt lat="42.1921782" lon="14.2198617"><ele>560.0</ele><time>2026-04-26T11:04:11.756Z</time></trkpt><trkpt lat="42.192095" lon="14.2198542"><ele>560.0</ele><time>2026-04-26T11:04:12.758Z</time></trkpt><trkpt lat="42.1920062" lon="14.2198438"><ele>561.0</ele><time>2026-04-26T11:04:13.759Z</time></trkpt><trkpt lat="42.1919155" lon="14.2198348"><ele>562.0</ele><time>2026-04-26T11:04:14.755Z</time></trkpt><trkpt lat="42.1918245" lon="14.2198237"><ele>563.0</ele><time>2026-04-26T11:04:15.756Z</time></trkpt><trkpt lat="42.1917337" lon="14.2198105"><ele>564.0</ele><time>2026-04-26T11:04:16.757Z</time></trkpt><trkpt lat="42.1916532" lon="14.2198008"><ele>565.0</ele><time>2026-04-26T11:04:17.756Z</time></trkpt><trkpt lat="42.191587" lon="14.2197955"><ele>566.0</ele><time>2026-04-26T11:04:18.758Z</time></trkpt><trkpt lat="42.1914907" lon="14.2197885"><ele>563.8333333333333</ele><time>2026-04-26T11:04:20.757Z</time></trkpt><trkpt lat="42.191397" lon="14.219774"><ele>561.6666666666666</ele><time>2026-04-26T11:04:22.756Z</time></trkpt><trkpt lat="42.1913" lon="14.2197593"><ele>559.5</ele><time>2026-04-26T11:04:24.756Z</time></trkpt><trkpt lat="42.1912308" lon="14.2197398"><ele>557.3333333333334</ele><time>2026-04-26T11:04:26.752Z</time></trkpt><trkpt lat="42.1911642" lon="14.2197202"><ele>555.1666666666667</ele><time>2026-04-26T11:04:56.756Z</time></trkpt><trkpt lat="42.1910883" lon="14.219677"><ele>553.0</ele><time>2026-04-26T11:04:59.755Z</time></trkpt><trkpt lat="42.191025" lon="14.2196145"><ele>553.0</ele><time>2026-04-26T11:05:02.754Z</time></trkpt><trkpt lat="42.1910098" lon="14.2195307"><ele>553.0</ele><time>2026-04-26T11:05:05.757Z</time></trkpt><trkpt lat="42.1910307" lon="14.219449"><ele>553.0</ele><time>2026-04-26T11:05:10.755Z</time></trkpt><trkpt lat="42.1910883" lon="14.2194027"><ele>553.0</ele><time>2026-04-26T11:05:13.756Z</time></trkpt><trkpt lat="42.1911802" lon="14.2193942"><ele>553.0</ele><time>2026-04-26T11:05:15.754Z</time></trkpt><trkpt lat="42.1912585" lon="14.2194087"><ele>553.0</ele><time>2026-04-26T11:05:17.752Z</time></trkpt><trkpt lat="42.1913345" lon="14.2194113"><ele>553.0</ele><time>2026-04-26T11:05:19.756Z</time></trkpt><trkpt lat="42.1914057" lon="14.2194122"><ele>553.0</ele><time>2026-04-26T11:05:21.755Z</time></trkpt><trkpt lat="42.1914915" lon="14.2194383"><ele>553.0</ele><time>2026-04-26T11:05:24.756Z</time></trkpt><trkpt lat="42.1915753" lon="14.2194847"><ele>553.0</ele><time>2026-04-26T11:05:27.754Z</time></trkpt><trkpt lat="42.1916458" lon="14.2195302"><ele>553.0</ele><time>2026-04-26T11:05:29.771Z</time></trkpt><trkpt lat="42.1917402" lon="14.2195902"><ele>553.0</ele><time>2026-04-26T11:05:31.754Z</time></trkpt><trkpt lat="42.1918302" lon="14.2196162"><ele>552.3333333333334</ele><time>2026-04-26T11:05:33.755Z</time></trkpt><trkpt lat="42.191898" lon="14.219581"><ele>551.6666666666667</ele><time>2026-04-26T11:05:36.757Z</time></trkpt><trkpt lat="42.1919748" lon="14.219569"><ele>551.0</ele><time>2026-04-26T11:05:41.753Z</time></trkpt><trkpt lat="42.1919118" lon="14.2195355"><ele>550.3333333333334</ele><time>2026-04-26T11:05:48.755Z</time></trkpt><trkpt lat="42.1919465" lon="14.2196103"><ele>549.6666666666666</ele><time>2026-04-26T11:06:12.755Z</time></trkpt><trkpt lat="42.1920403" lon="14.2196042"><ele>549.0</ele><time>2026-04-26T11:06:14.755Z</time></trkpt><trkpt lat="42.1921465" lon="14.2195717"><ele>549.0</ele><time>2026-04-26T11:06:16.755Z</time></trkpt><trkpt lat="42.1922348" lon="14.2195502"><ele>549.0</ele><time>2026-04-26T11:06:18.754Z</time></trkpt><trkpt lat="42.1923295" lon="14.2195395"><ele>549.0</ele><time>2026-04-26T11:06:20.754Z</time></trkpt><trkpt lat="42.192443" lon="14.219557"><ele>549.0</ele><time>2026-04-26T11:06:22.756Z</time></trkpt><trkpt lat="42.19254" lon="14.2195843"><ele>549.0</ele><time>2026-04-26T11:06:24.755Z</time></trkpt><trkpt lat="42.1926167" lon="14.2196255"><ele>547.1666666666666</ele><time>2026-04-26T11:06:26.755Z</time></trkpt><trkpt lat="42.192692" lon="14.2196723"><ele>545.3333333333334</ele><time>2026-04-26T11:06:28.751Z</time></trkpt><trkpt lat="42.1927665" lon="14.2196873"><ele>543.5</ele><time>2026-04-26T11:06:30.753Z</time></trkpt><trkpt lat="42.1928303" lon="14.2197052"><ele>541.6666666666667</ele><time>2026-04-26T11:06:32.755Z</time></trkpt><trkpt lat="42.1928902" lon="14.219778"><ele>539.8333333333334</ele><time>2026-04-26T11:18:33.758Z</time></trkpt><trkpt lat="42.1929635" lon="14.2198837"><ele>538.0</ele><time>2026-04-26T11:18:36.757Z</time></trkpt><trkpt lat="42.1930368" lon="14.2199427"><ele>540.0</ele><time>2026-04-26T11:18:38.756Z</time></trkpt><trkpt lat="42.1931202" lon="14.2199857"><ele>542.0</ele><time>2026-04-26T11:18:40.756Z</time></trkpt><trkpt lat="42.1932102" lon="14.2199897"><ele>544.0</ele><time>2026-04-26T11:18:42.755Z</time></trkpt><trkpt lat="42.1932797" lon="14.2199698"><ele>546.0</ele><time>2026-04-26T11:18:44.754Z</time></trkpt><trkpt lat="42.1933488" lon="14.2199883"><ele>548.0</ele><time>2026-04-26T11:18:46.755Z</time></trkpt><trkpt lat="42.1934052" lon="14.2200285"><ele>550.0</ele><time>2026-04-26T11:18:48.757Z</time></trkpt><trkpt lat="42.1934902" lon="14.2200745"><ele>550.0</ele><time>2026-04-26T11:18:51.758Z</time></trkpt><trkpt lat="42.1935553" lon="14.2201095"><ele>550.0</ele><time>2026-04-26T11:18:53.756Z</time></trkpt><trkpt lat="42.1936335" lon="14.2201502"><ele>550.0</ele><time>2026-04-26T11:18:55.759Z</time></trkpt><trkpt lat="42.1936995" lon="14.2201802"><ele>550.0</ele><time>2026-04-26T11:18:57.757Z</time></trkpt><trkpt lat="42.1937807" lon="14.220205"><ele>550.0</ele><time>2026-04-26T11:19:00.756Z</time></trkpt><trkpt lat="42.1938545" lon="14.2202418"><ele>550.0</ele><time>2026-04-26T11:19:02.758Z</time></trkpt><trkpt lat="42.1939117" lon="14.220336"><ele>550.0</ele><time>2026-04-26T11:19:04.759Z</time></trkpt><trkpt lat="42.193958" lon="14.2204795"><ele>550.0</ele><time>2026-04-26T11:19:06.756Z</time></trkpt><trkpt lat="42.1939853" lon="14.2205672"><ele>550.0</ele><time>2026-04-26T11:19:07.756Z</time></trkpt><trkpt lat="42.1940077" lon="14.2206583"><ele>550.0</ele><time>2026-04-26T11:19:08.756Z</time></trkpt><trkpt lat="42.1940222" lon="14.2207575"><ele>550.0</ele><time>2026-04-26T11:19:09.756Z</time></trkpt><trkpt lat="42.1940267" lon="14.2208663"><ele>550.0</ele><time>2026-04-26T11:19:10.754Z</time></trkpt><trkpt lat="42.1940253" lon="14.2209932"><ele>546.8</ele><time>2026-04-26T11:19:11.757Z</time></trkpt><trkpt lat="42.1940217" lon="14.2211352"><ele>543.6</ele><time>2026-04-26T11:19:12.758Z</time></trkpt><trkpt lat="42.1940182" lon="14.2212765"><ele>540.4</ele><time>2026-04-26T11:19:13.759Z</time></trkpt><trkpt lat="42.1940148" lon="14.2214168"><ele>537.2</ele><time>2026-04-26T11:19:14.756Z</time></trkpt><trkpt lat="42.1940113" lon="14.2215655"><ele>534.0</ele><time>2026-04-26T11:19:15.757Z</time></trkpt><trkpt lat="42.194006" lon="14.221727"><ele>536.2</ele><time>2026-04-26T11:19:16.758Z</time></trkpt><trkpt lat="42.1940018" lon="14.2218848"><ele>538.4</ele><time>2026-04-26T11:19:17.757Z</time></trkpt><trkpt lat="42.1939987" lon="14.2220352"><ele>540.6</ele><time>2026-04-26T11:19:18.759Z</time></trkpt><trkpt lat="42.1939945" lon="14.2221782"><ele>542.8</ele><time>2026-04-26T11:19:19.757Z</time></trkpt><trkpt lat="42.193991" lon="14.2223145"><ele>545.0</ele><time>2026-04-26T11:19:20.757Z</time></trkpt><trkpt lat="42.1939935" lon="14.222444"><ele>545.0</ele><time>2026-04-26T11:19:21.757Z</time></trkpt><trkpt lat="42.1939997" lon="14.2225665"><ele>545.0</ele><time>2026-04-26T11:19:22.759Z</time></trkpt><trkpt lat="42.194009" lon="14.2226838"><ele>545.0</ele><time>2026-04-26T11:19:23.758Z</time></trkpt><trkpt lat="42.1940195" lon="14.2228023"><ele>545.0</ele><time>2026-04-26T11:19:24.757Z</time></trkpt><trkpt lat="42.1940298" lon="14.2229153"><ele>545.0</ele><time>2026-04-26T11:19:25.758Z</time></trkpt><trkpt lat="42.1940432" lon="14.2230343"><ele>545.0</ele><time>2026-04-26T11:19:26.759Z</time></trkpt><trkpt lat="42.1940552" lon="14.223155"><ele>540.1666666666666</ele><time>2026-04-26T11:19:27.756Z</time></trkpt><trkpt lat="42.1940665" lon="14.2232717"><ele>535.3333333333333</ele><time>2026-04-26T11:19:28.757Z</time></trkpt><trkpt lat="42.1940773" lon="14.2233835"><ele>530.5</ele><time>2026-04-26T11:19:29.756Z</time></trkpt><trkpt lat="42.1940872" lon="14.2234913"><ele>525.6666666666666</ele><time>2026-04-26T11:19:30.758Z</time></trkpt><trkpt lat="42.1940978" lon="14.2235963"><ele>520.8333333333334</ele><time>2026-04-26T11:19:31.754Z</time></trkpt><trkpt lat="42.1941095" lon="14.223696"><ele>516.0</ele><time>2026-04-26T11:19:32.753Z</time></trkpt><trkpt lat="42.1941222" lon="14.22378"><ele>516.0</ele><time>2026-04-26T11:19:33.754Z</time></trkpt><trkpt lat="42.1941643" lon="14.2238773"><ele>516.0</ele><time>2026-04-26T11:19:35.755Z</time></trkpt><trkpt lat="42.1942377" lon="14.2238983"><ele>516.0</ele><time>2026-04-26T11:19:38.757Z</time></trkpt><trkpt lat="42.1942965" lon="14.2238632"><ele>516.0</ele><time>2026-04-26T11:19:42.758Z</time></trkpt><trkpt lat="42.1943628" lon="14.2237923"><ele>516.0</ele><time>2026-04-26T11:19:46.756Z</time></trkpt><trkpt lat="42.1944207" lon="14.2237405"><ele>516.0</ele><time>2026-04-26T11:19:49.753Z</time></trkpt><trkpt lat="42.194495" lon="14.2236795"><ele>516.0</ele><time>2026-04-26T11:19:52.754Z</time></trkpt><trkpt lat="42.1945598" lon="14.2236235"><ele>516.0</ele><time>2026-04-26T11:19:54.756Z</time></trkpt><trkpt lat="42.1946262" lon="14.2235618"><ele>516.0</ele><time>2026-04-26T11:19:56.753Z</time></trkpt><trkpt lat="42.1947" lon="14.2235092"><ele>516.0</ele><time>2026-04-26T11:19:58.753Z</time></trkpt><trkpt lat="42.1947727" lon="14.223448"><ele>516.0</ele><time>2026-04-26T11:20:00.756Z</time></trkpt><trkpt lat="42.1948438" lon="14.2233863"><ele>516.0</ele><time>2026-04-26T11:20:02.756Z</time></trkpt><trkpt lat="42.194911" lon="14.22332"><ele>515.0</ele><time>2026-04-26T11:20:04.754Z</time></trkpt><trkpt lat="42.194982" lon="14.2232567"><ele>514.0</ele><time>2026-04-26T11:20:06.755Z</time></trkpt><trkpt lat="42.1950577" lon="14.2232077"><ele>513.0</ele><time>2026-04-26T11:20:08.758Z</time></trkpt><trkpt lat="42.1951227" lon="14.22314"><ele>512.0</ele><time>2026-04-26T11:20:10.757Z</time></trkpt><trkpt lat="42.1951765" lon="14.2230825"><ele>511.0</ele><time>2026-04-26T11:20:12.755Z</time></trkpt><trkpt lat="42.1952418" lon="14.2230037"><ele>510.0</ele><time>2026-04-26T11:20:16.758Z</time></trkpt><trkpt lat="42.195305" lon="14.2229137"><ele>510.0</ele><time>2026-04-26T11:20:18.756Z</time></trkpt><trkpt lat="42.1953867" lon="14.2227822"><ele>510.0</ele><time>2026-04-26T11:20:20.753Z</time></trkpt><trkpt lat="42.195464" lon="14.2226627"><ele>510.0</ele><time>2026-04-26T11:20:22.753Z</time></trkpt><trkpt lat="42.1955258" lon="14.2225597"><ele>510.0</ele><time>2026-04-26T11:20:24.754Z</time></trkpt><trkpt lat="42.1955803" lon="14.2224503"><ele>510.0</ele><time>2026-04-26T11:20:26.757Z</time></trkpt><trkpt lat="42.1956362" lon="14.2223245"><ele>508.8333333333333</ele><time>2026-04-26T11:20:28.756Z</time></trkpt><trkpt lat="42.1956752" lon="14.2221768"><ele>507.66666666666663</ele><time>2026-04-26T11:20:30.758Z</time></trkpt><trkpt lat="42.1956932" lon="14.2220918"><ele>506.5</ele><time>2026-04-26T11:20:31.757Z</time></trkpt><trkpt lat="42.1957123" lon="14.2220025"><ele>505.3333333333333</ele><time>2026-04-26T11:20:32.755Z</time></trkpt><trkpt lat="42.1957323" lon="14.221907"><ele>504.16666666666663</ele><time>2026-04-26T11:20:33.758Z</time></trkpt><trkpt lat="42.195753" lon="14.2217982"><ele>503.0</ele><time>2026-04-26T11:20:34.756Z</time></trkpt><trkpt lat="42.1957708" lon="14.2216767"><ele>503.0</ele><time>2026-04-26T11:20:35.756Z</time></trkpt><trkpt lat="42.1957815" lon="14.2215465"><ele>502.99999999999994</ele><time>2026-04-26T11:20:36.759Z</time></trkpt><trkpt lat="42.195783" lon="14.2214132"><ele>502.99999999999994</ele><time>2026-04-26T11:20:37.756Z</time></trkpt><trkpt lat="42.1957817" lon="14.2212788"><ele>503.0</ele><time>2026-04-26T11:20:38.757Z</time></trkpt><trkpt lat="42.195778" lon="14.221142"><ele>503.0</ele><time>2026-04-26T11:20:39.757Z</time></trkpt><trkpt lat="42.1957728" lon="14.221014"><ele>503.3333333333333</ele><time>2026-04-26T11:20:40.758Z</time></trkpt><trkpt lat="42.1957685" lon="14.2208942"><ele>503.66666666666663</ele><time>2026-04-26T11:20:41.757Z</time></trkpt><trkpt lat="42.1957662" lon="14.2207822"><ele>504.0</ele><time>2026-04-26T11:20:42.756Z</time></trkpt><trkpt lat="42.1957687" lon="14.2206693"><ele>504.33333333333337</ele><time>2026-04-26T11:20:43.769Z</time></trkpt><trkpt lat="42.1957747" lon="14.2205667"><ele>504.6666666666667</ele><time>2026-04-26T11:20:44.755Z</time></trkpt><trkpt lat="42.1957873" lon="14.2204772"><ele>505.0</ele><time>2026-04-26T11:20:45.769Z</time></trkpt><trkpt lat="42.1958005" lon="14.2203937"><ele>505.2857142857143</ele><time>2026-04-26T11:20:46.753Z</time></trkpt><trkpt lat="42.195818" lon="14.22031"><ele>505.57142857142856</ele><time>2026-04-26T11:20:47.753Z</time></trkpt><trkpt lat="42.1958467" lon="14.2202182"><ele>505.85714285714283</ele><time>2026-04-26T11:20:48.753Z</time></trkpt><trkpt lat="42.1958798" lon="14.2201263"><ele>506.1428571428571</ele><time>2026-04-26T11:20:49.756Z</time></trkpt><trkpt lat="42.1959127" lon="14.2200352"><ele>506.42857142857144</ele><time>2026-04-26T11:20:50.753Z</time></trkpt><trkpt lat="42.1959455" lon="14.2199418"><ele>506.71428571428567</ele><time>2026-04-26T11:20:51.754Z</time></trkpt><trkpt lat="42.195985" lon="14.2198478"><ele>507.0</ele><time>2026-04-26T11:20:52.757Z</time></trkpt><trkpt lat="42.196036" lon="14.2197613"><ele>507.20000000000005</ele><time>2026-04-26T11:20:53.757Z</time></trkpt><trkpt lat="42.1960892" lon="14.219692"><ele>507.40000000000003</ele><time>2026-04-26T11:20:54.759Z</time></trkpt><trkpt lat="42.1961392" lon="14.2196338"><ele>507.59999999999997</ele><time>2026-04-26T11:20:55.758Z</time></trkpt><trkpt lat="42.1962742" lon="14.2195062"><ele>507.79999999999995</ele><time>2026-04-26T11:20:58.756Z</time></trkpt><trkpt lat="42.1963465" lon="14.2194238"><ele>508.0</ele><time>2026-04-26T11:21:00.757Z</time></trkpt><trkpt lat="42.1964015" lon="14.2193772"><ele>508.0</ele><time>2026-04-26T11:21:01.756Z</time></trkpt><trkpt lat="42.1964932" lon="14.2192995"><ele>507.99999999999994</ele><time>2026-04-26T11:21:03.756Z</time></trkpt><trkpt lat="42.196553" lon="14.2192623"><ele>507.99999999999994</ele><time>2026-04-26T11:21:05.756Z</time></trkpt><trkpt lat="42.1966472" lon="14.2192437"><ele>508.0</ele><time>2026-04-26T11:21:08.756Z</time></trkpt><trkpt lat="42.1967567" lon="14.2192478"><ele>508.0</ele><time>2026-04-26T11:21:10.755Z</time></trkpt><trkpt lat="42.1968418" lon="14.2191852"><ele>506.79999999999995</ele><time>2026-04-26T11:21:12.754Z</time></trkpt><trkpt lat="42.1969218" lon="14.2191112"><ele>505.59999999999997</ele><time>2026-04-26T11:21:14.756Z</time></trkpt><trkpt lat="42.1970223" lon="14.2190935"><ele>504.40000000000003</ele><time>2026-04-26T11:21:16.755Z</time></trkpt><trkpt lat="42.1971498" lon="14.219091"><ele>503.20000000000005</ele><time>2026-04-26T11:21:18.754Z</time></trkpt><trkpt lat="42.1972238" lon="14.2190867"><ele>502.0</ele><time>2026-04-26T11:21:19.756Z</time></trkpt><trkpt lat="42.1973017" lon="14.2190703"><ele>501.50000000000006</ele><time>2026-04-26T11:21:20.756Z</time></trkpt><trkpt lat="42.1973842" lon="14.2190568"><ele>501.0</ele><time>2026-04-26T11:21:21.754Z</time></trkpt><trkpt lat="42.19747" lon="14.2190413"><ele>500.5</ele><time>2026-04-26T11:21:22.754Z</time></trkpt><trkpt lat="42.1975592" lon="14.219027"><ele>500.0</ele><time>2026-04-26T11:21:23.756Z</time></trkpt><trkpt lat="42.1976417" lon="14.2190108"><ele>499.50000000000006</ele><time>2026-04-26T11:21:24.757Z</time></trkpt><trkpt lat="42.197722" lon="14.218995"><ele>499.0</ele><time>2026-04-26T11:21:25.755Z</time></trkpt><trkpt lat="42.1977948" lon="14.2189765"><ele>498.33333333333337</ele><time>2026-04-26T11:21:26.756Z</time></trkpt><trkpt lat="42.1978663" lon="14.2189623"><ele>497.6666666666667</ele><time>2026-04-26T11:21:27.756Z</time></trkpt><trkpt lat="42.1979415" lon="14.2189433"><ele>497.0</ele><time>2026-04-26T11:21:28.754Z</time></trkpt><trkpt lat="42.1980142" lon="14.2189167"><ele>496.33333333333337</ele><time>2026-04-26T11:21:29.753Z</time></trkpt><trkpt lat="42.1980998" lon="14.2188952"><ele>495.6666666666667</ele><time>2026-04-26T11:21:30.755Z</time></trkpt><trkpt lat="42.1981977" lon="14.2188642"><ele>495.0</ele><time>2026-04-26T11:21:31.754Z</time></trkpt><trkpt lat="42.1983035" lon="14.2188238"><ele>494.25</ele><time>2026-04-26T11:21:32.755Z</time></trkpt><trkpt lat="42.198411" lon="14.2187828"><ele>493.5</ele><time>2026-04-26T11:21:33.755Z</time></trkpt><trkpt lat="42.1985225" lon="14.218738"><ele>492.75</ele><time>2026-04-26T11:21:34.754Z</time></trkpt><trkpt lat="42.1986315" lon="14.2186908"><ele>492.0</ele><time>2026-04-26T11:21:35.755Z</time></trkpt><trkpt lat="42.1987413" lon="14.2186458"><ele>492.0</ele><time>2026-04-26T11:21:36.753Z</time></trkpt><trkpt lat="42.1988527" lon="14.2185933"><ele>492.0</ele><time>2026-04-26T11:21:37.755Z</time></trkpt><trkpt lat="42.1989703" lon="14.2185393"><ele>492.0</ele><time>2026-04-26T11:21:38.757Z</time></trkpt><trkpt lat="42.1990897" lon="14.2184887"><ele>492.0</ele><time>2026-04-26T11:21:39.758Z</time></trkpt><trkpt lat="42.1992112" lon="14.2184382"><ele>490.75</ele><time>2026-04-26T11:21:40.758Z</time></trkpt><trkpt lat="42.1993338" lon="14.2183863"><ele>489.5</ele><time>2026-04-26T11:21:41.756Z</time></trkpt><trkpt lat="42.199455" lon="14.2183375"><ele>488.25</ele><time>2026-04-26T11:21:42.757Z</time></trkpt><trkpt lat="42.1995707" lon="14.2182923"><ele>487.0</ele><time>2026-04-26T11:21:43.758Z</time></trkpt><trkpt lat="42.1996817" lon="14.218256"><ele>487.0</ele><time>2026-04-26T11:21:44.756Z</time></trkpt><trkpt lat="42.1997912" lon="14.2182278"><ele>487.00000000000006</ele><time>2026-04-26T11:21:45.757Z</time></trkpt><trkpt lat="42.1998987" lon="14.2182042"><ele>487.00000000000006</ele><time>2026-04-26T11:21:46.756Z</time></trkpt><trkpt lat="42.2000013" lon="14.2181893"><ele>487.0</ele><time>2026-04-26T11:21:47.756Z</time></trkpt><trkpt lat="42.2001013" lon="14.2181793"><ele>487.0</ele><time>2026-04-26T11:21:48.758Z</time></trkpt><trkpt lat="42.2001977" lon="14.2181747"><ele>486.1666666666667</ele><time>2026-04-26T11:21:49.757Z</time></trkpt><trkpt lat="42.2002823" lon="14.218169"><ele>485.33333333333337</ele><time>2026-04-26T11:21:50.756Z</time></trkpt><trkpt lat="42.2003517" lon="14.2181638"><ele>484.5</ele><time>2026-04-26T11:21:51.757Z</time></trkpt><trkpt lat="42.2004163" lon="14.2181647"><ele>483.66666666666663</ele><time>2026-04-26T11:21:52.754Z</time></trkpt><trkpt lat="42.2004927" lon="14.2181745"><ele>482.8333333333333</ele><time>2026-04-26T11:21:53.757Z</time></trkpt><trkpt lat="42.2005795" lon="14.218184"><ele>482.0</ele><time>2026-04-26T11:21:54.756Z</time></trkpt><trkpt lat="42.200673" lon="14.2181903"><ele>481.20000000000005</ele><time>2026-04-26T11:21:55.755Z</time></trkpt><trkpt lat="42.2007738" lon="14.2182037"><ele>480.40000000000003</ele><time>2026-04-26T11:21:56.755Z</time></trkpt><trkpt lat="42.2008802" lon="14.2182223"><ele>479.59999999999997</ele><time>2026-04-26T11:21:57.756Z</time></trkpt><trkpt lat="42.200989" lon="14.2182528"><ele>478.79999999999995</ele><time>2026-04-26T11:21:58.755Z</time></trkpt><trkpt lat="42.2011" lon="14.2182992"><ele>478.0</ele><time>2026-04-26T11:21:59.754Z</time></trkpt><trkpt lat="42.2012087" lon="14.2183525"><ele>478.0</ele><time>2026-04-26T11:22:00.754Z</time></trkpt><trkpt lat="42.2013175" lon="14.2184083"><ele>477.99999999999994</ele><time>2026-04-26T11:22:01.756Z</time></trkpt><trkpt lat="42.2014247" lon="14.2184658"><ele>477.99999999999994</ele><time>2026-04-26T11:22:02.755Z</time></trkpt><trkpt lat="42.2015198" lon="14.2185212"><ele>478.0</ele><time>2026-04-26T11:22:03.755Z</time></trkpt><trkpt lat="42.2016018" lon="14.2185692"><ele>478.0</ele><time>2026-04-26T11:22:04.756Z</time></trkpt><trkpt lat="42.2016697" lon="14.218612"><ele>475.79999999999995</ele><time>2026-04-26T11:22:05.757Z</time></trkpt><trkpt lat="42.2017582" lon="14.2186728"><ele>473.59999999999997</ele><time>2026-04-26T11:22:07.757Z</time></trkpt><trkpt lat="42.2018287" lon="14.2186587"><ele>471.40000000000003</ele><time>2026-04-26T11:22:10.761Z</time></trkpt><trkpt lat="42.2017317" lon="14.2186035"><ele>469.20000000000005</ele><time>2026-04-26T11:22:13.761Z</time></trkpt><trkpt lat="42.2016592" lon="14.218572"><ele>467.0</ele><time>2026-04-26T11:22:14.757Z</time></trkpt><trkpt lat="42.2015667" lon="14.2185203"><ele>469.75</ele><time>2026-04-26T11:22:15.763Z</time></trkpt><trkpt lat="42.2014558" lon="14.2184617"><ele>472.5</ele><time>2026-04-26T11:22:16.758Z</time></trkpt><trkpt lat="42.2013302" lon="14.2183983"><ele>475.25</ele><time>2026-04-26T11:22:17.757Z</time></trkpt><trkpt lat="42.2011937" lon="14.2183343"><ele>478.0</ele><time>2026-04-26T11:22:18.758Z</time></trkpt><trkpt lat="42.20105" lon="14.2182768"><ele>478.0</ele><time>2026-04-26T11:22:19.759Z</time></trkpt><trkpt lat="42.2009188" lon="14.218236"><ele>477.99999999999994</ele><time>2026-04-26T11:22:20.759Z</time></trkpt><trkpt lat="42.2008015" lon="14.2182102"><ele>477.99999999999994</ele><time>2026-04-26T11:22:21.757Z</time></trkpt><trkpt lat="42.2006988" lon="14.2181947"><ele>478.0</ele><time>2026-04-26T11:22:22.757Z</time></trkpt><trkpt lat="42.200625" lon="14.2181793"><ele>478.0</ele><time>2026-04-26T11:22:23.756Z</time></trkpt><trkpt lat="42.200574" lon="14.2181158"><ele>478.0</ele><time>2026-04-26T11:22:25.754Z</time></trkpt><trkpt lat="42.2006325" lon="14.2180692"><ele>477.99999999999994</ele><time>2026-04-26T11:22:27.757Z</time></trkpt><trkpt lat="42.2006973" lon="14.21806"><ele>477.99999999999994</ele><time>2026-04-26T11:22:28.757Z</time></trkpt><trkpt lat="42.2007932" lon="14.218052"><ele>478.0</ele><time>2026-04-26T11:22:29.755Z</time></trkpt><trkpt lat="42.200913" lon="14.2180322"><ele>478.0</ele><time>2026-04-26T11:22:30.757Z</time></trkpt><trkpt lat="42.2010518" lon="14.2180037"><ele>477.0</ele><time>2026-04-26T11:22:31.756Z</time></trkpt><trkpt lat="42.2012042" lon="14.217973"><ele>476.0</ele><time>2026-04-26T11:22:32.771Z</time></trkpt><trkpt lat="42.201365" lon="14.217944"><ele>475.0</ele><time>2026-04-26T11:22:33.763Z</time></trkpt><trkpt lat="42.201533" lon="14.2179352"><ele>474.0</ele><time>2026-04-26T11:22:34.756Z</time></trkpt><trkpt lat="42.2017" lon="14.2179405"><ele>473.0</ele><time>2026-04-26T11:22:35.756Z</time></trkpt><trkpt lat="42.2018583" lon="14.2179642"><ele>472.0</ele><time>2026-04-26T11:22:36.757Z</time></trkpt><trkpt lat="42.2020075" lon="14.2179987"><ele>472.0</ele><time>2026-04-26T11:22:37.755Z</time></trkpt><trkpt lat="42.2021488" lon="14.2180298"><ele>472.0</ele><time>2026-04-26T11:22:38.756Z</time></trkpt><trkpt lat="42.2022798" lon="14.218046"><ele>472.0</ele><time>2026-04-26T11:22:39.757Z</time></trkpt><trkpt lat="42.2024135" lon="14.2180478"><ele>472.0</ele><time>2026-04-26T11:22:40.756Z</time></trkpt><trkpt lat="42.2025482" lon="14.2180395"><ele>471.25</ele><time>2026-04-26T11:22:41.756Z</time></trkpt><trkpt lat="42.2026838" lon="14.2180205"><ele>470.5</ele><time>2026-04-26T11:22:42.757Z</time></trkpt><trkpt lat="42.2028118" lon="14.2179992"><ele>469.75</ele><time>2026-04-26T11:22:43.756Z</time></trkpt><trkpt lat="42.2029288" lon="14.217977"><ele>469.0</ele><time>2026-04-26T11:22:44.756Z</time></trkpt><trkpt lat="42.2030353" lon="14.2179465"><ele>469.0</ele><time>2026-04-26T11:22:45.757Z</time></trkpt><trkpt lat="42.2031307" lon="14.217896"><ele>469.0</ele><time>2026-04-26T11:22:46.758Z</time></trkpt><trkpt lat="42.2032247" lon="14.21782"><ele>469.0</ele><time>2026-04-26T11:22:47.755Z</time></trkpt><trkpt lat="42.2033293" lon="14.2177328"><ele>469.0</ele><time>2026-04-26T11:22:48.756Z</time></trkpt><trkpt lat="42.203443" lon="14.2176372"><ele>466.75</ele><time>2026-04-26T11:22:49.755Z</time></trkpt><trkpt lat="42.2035595" lon="14.217538"><ele>464.5</ele><time>2026-04-26T11:22:50.755Z</time></trkpt><trkpt lat="42.2036678" lon="14.2174455"><ele>462.25</ele><time>2026-04-26T11:22:51.756Z</time></trkpt><trkpt lat="42.2037717" lon="14.2173645"><ele>460.0</ele><time>2026-04-26T11:22:52.758Z</time></trkpt><trkpt lat="42.2038763" lon="14.2173053"><ele>460.6</ele><time>2026-04-26T11:22:53.758Z</time></trkpt><trkpt lat="42.2039833" lon="14.217279"><ele>461.2</ele><time>2026-04-26T11:22:54.758Z</time></trkpt><trkpt lat="42.2040875" lon="14.2172845"><ele>461.79999999999995</ele><time>2026-04-26T11:22:55.757Z</time></trkpt><trkpt lat="42.2041903" lon="14.2172937"><ele>462.4</ele><time>2026-04-26T11:22:56.756Z</time></trkpt><trkpt lat="42.204289" lon="14.2172863"><ele>463.0</ele><time>2026-04-26T11:22:57.758Z</time></trkpt><trkpt lat="42.204389" lon="14.2172652"><ele>463.0</ele><time>2026-04-26T11:22:58.757Z</time></trkpt><trkpt lat="42.2044907" lon="14.2172343"><ele>462.99999999999994</ele><time>2026-04-26T11:22:59.758Z</time></trkpt><trkpt lat="42.204595" lon="14.2171982"><ele>462.99999999999994</ele><time>2026-04-26T11:23:00.758Z</time></trkpt><trkpt lat="42.2046975" lon="14.2171583"><ele>463.0</ele><time>2026-04-26T11:23:01.758Z</time></trkpt><trkpt lat="42.2048015" lon="14.217117"><ele>463.0</ele><time>2026-04-26T11:23:02.757Z</time></trkpt><trkpt lat="42.2049108" lon="14.2170725"><ele>462.2</ele><time>2026-04-26T11:23:03.757Z</time></trkpt><trkpt lat="42.205021" lon="14.2170228"><ele>461.4</ele><time>2026-04-26T11:23:04.756Z</time></trkpt><trkpt lat="42.2051273" lon="14.216981"><ele>460.59999999999997</ele><time>2026-04-26T11:23:05.756Z</time></trkpt><trkpt lat="42.2052312" lon="14.2169445"><ele>459.79999999999995</ele><time>2026-04-26T11:23:06.756Z</time></trkpt><trkpt lat="42.2053273" lon="14.216916"><ele>459.0</ele><time>2026-04-26T11:23:07.758Z</time></trkpt><trkpt lat="42.205397" lon="14.2169003"><ele>459.0</ele><time>2026-04-26T11:23:08.757Z</time></trkpt><trkpt lat="42.2054882" lon="14.2169143"><ele>459.0</ele><time>2026-04-26T11:23:10.757Z</time></trkpt><trkpt lat="42.2055522" lon="14.2170298"><ele>459.0</ele><time>2026-04-26T11:23:12.754Z</time></trkpt><trkpt lat="42.2056182" lon="14.2171715"><ele>459.0</ele><time>2026-04-26T11:23:14.754Z</time></trkpt><trkpt lat="42.2056537" lon="14.2172512"><ele>459.0</ele><time>2026-04-26T11:23:15.753Z</time></trkpt><trkpt lat="42.2056933" lon="14.2173335"><ele>456.5</ele><time>2026-04-26T11:23:16.758Z</time></trkpt><trkpt lat="42.2057348" lon="14.2174233"><ele>454.0</ele><time>2026-04-26T11:23:17.757Z</time></trkpt><trkpt lat="42.205779" lon="14.2175158"><ele>451.5</ele><time>2026-04-26T11:23:18.758Z</time></trkpt><trkpt lat="42.2058273" lon="14.2176097"><ele>449.0</ele><time>2026-04-26T11:23:19.759Z</time></trkpt><trkpt lat="42.205876" lon="14.217711"><ele>446.5</ele><time>2026-04-26T11:23:20.757Z</time></trkpt><trkpt lat="42.205928" lon="14.2178155"><ele>444.0</ele><time>2026-04-26T11:23:21.757Z</time></trkpt><trkpt lat="42.2059817" lon="14.2179217"><ele>444.0</ele><time>2026-04-26T11:23:22.76Z</time></trkpt><trkpt lat="42.206036" lon="14.2180288"><ele>444.0</ele><time>2026-04-26T11:23:23.762Z</time></trkpt><trkpt lat="42.2060957" lon="14.2181263"><ele>444.0</ele><time>2026-04-26T11:23:24.759Z</time></trkpt><trkpt lat="42.2061612" lon="14.218207"><ele>444.0</ele><time>2026-04-26T11:23:25.758Z</time></trkpt><trkpt lat="42.2062275" lon="14.2182758"><ele>444.0</ele><time>2026-04-26T11:23:26.756Z</time></trkpt><trkpt lat="42.2062988" lon="14.218339"><ele>444.0</ele><time>2026-04-26T11:23:27.758Z</time></trkpt><trkpt lat="42.2063762" lon="14.218398"><ele>442.79999999999995</ele><time>2026-04-26T11:23:28.756Z</time></trkpt><trkpt lat="42.2064558" lon="14.2184537"><ele>441.59999999999997</ele><time>2026-04-26T11:23:29.756Z</time></trkpt><trkpt lat="42.2065323" lon="14.2185095"><ele>440.4</ele><time>2026-04-26T11:23:30.758Z</time></trkpt><trkpt lat="42.2066057" lon="14.2185705"><ele>439.2</ele><time>2026-04-26T11:23:31.758Z</time></trkpt><trkpt lat="42.2066723" lon="14.218647"><ele>438.0</ele><time>2026-04-26T11:23:32.757Z</time></trkpt><trkpt lat="42.206735" lon="14.2187518"><ele>436.25</ele><time>2026-04-26T11:23:33.76Z</time></trkpt><trkpt lat="42.2068002" lon="14.2188773"><ele>434.5</ele><time>2026-04-26T11:23:34.758Z</time></trkpt><trkpt lat="42.2068667" lon="14.2190097"><ele>432.75</ele><time>2026-04-26T11:23:35.757Z</time></trkpt><trkpt lat="42.2069285" lon="14.2191398"><ele>431.0</ele><time>2026-04-26T11:23:36.755Z</time></trkpt><trkpt lat="42.2069827" lon="14.2192678"><ele>430.4</ele><time>2026-04-26T11:23:37.756Z</time></trkpt><trkpt lat="42.2070333" lon="14.2193898"><ele>429.8</ele><time>2026-04-26T11:23:38.755Z</time></trkpt><trkpt lat="42.207084" lon="14.2195087"><ele>429.19999999999993</ele><time>2026-04-26T11:23:39.756Z</time></trkpt><trkpt lat="42.2071325" lon="14.2196242"><ele>428.59999999999997</ele><time>2026-04-26T11:23:40.758Z</time></trkpt><trkpt lat="42.2071813" lon="14.2197352"><ele>428.0</ele><time>2026-04-26T11:23:41.759Z</time></trkpt><trkpt lat="42.2072343" lon="14.2198322"><ele>427.3333333333333</ele><time>2026-04-26T11:23:42.761Z</time></trkpt><trkpt lat="42.207296" lon="14.2199127"><ele>426.66666666666663</ele><time>2026-04-26T11:23:43.758Z</time></trkpt><trkpt lat="42.2073667" lon="14.2199648"><ele>426.0</ele><time>2026-04-26T11:23:44.757Z</time></trkpt><trkpt lat="42.207445" lon="14.2199887"><ele>425.33333333333337</ele><time>2026-04-26T11:23:45.758Z</time></trkpt><trkpt lat="42.2075285" lon="14.2199913"><ele>424.6666666666667</ele><time>2026-04-26T11:23:46.755Z</time></trkpt><trkpt lat="42.2076072" lon="14.2199815"><ele>424.0</ele><time>2026-04-26T11:23:47.758Z</time></trkpt><trkpt lat="42.2076743" lon="14.2199777"><ele>422.79999999999995</ele><time>2026-04-26T11:23:48.759Z</time></trkpt><trkpt lat="42.2077637" lon="14.2200245"><ele>421.59999999999997</ele><time>2026-04-26T11:23:50.759Z</time></trkpt><trkpt lat="42.207799" lon="14.2201323"><ele>420.4</ele><time>2026-04-26T11:23:52.759Z</time></trkpt><trkpt lat="42.207841" lon="14.2202457"><ele>419.2</ele><time>2026-04-26T11:23:54.757Z</time></trkpt><trkpt lat="42.207893" lon="14.2203823"><ele>418.0</ele><time>2026-04-26T11:23:56.757Z</time></trkpt><trkpt lat="42.207916" lon="14.2205483"><ele>418.0</ele><time>2026-04-26T11:23:58.758Z</time></trkpt><trkpt lat="42.2079238" lon="14.2206397"><ele>418.0</ele><time>2026-04-26T11:23:59.757Z</time></trkpt><trkpt lat="42.2079302" lon="14.2207272"><ele>418.0</ele><time>2026-04-26T11:24:00.756Z</time></trkpt><trkpt lat="42.2079363" lon="14.2208133"><ele>418.0</ele><time>2026-04-26T11:24:01.753Z</time></trkpt><trkpt lat="42.2079438" lon="14.2208983"><ele>418.0</ele><time>2026-04-26T11:24:02.756Z</time></trkpt><trkpt lat="42.2079533" lon="14.2209835"><ele>418.0</ele><time>2026-04-26T11:24:03.753Z</time></trkpt><trkpt lat="42.2079627" lon="14.2210702"><ele>418.0</ele><time>2026-04-26T11:24:04.753Z</time></trkpt><trkpt lat="42.207969" lon="14.2211553"><ele>417.33333333333337</ele><time>2026-04-26T11:24:05.758Z</time></trkpt><trkpt lat="42.2079838" lon="14.221282"><ele>416.6666666666667</ele><time>2026-04-26T11:24:07.756Z</time></trkpt><trkpt lat="42.2079698" lon="14.2211403"><ele>416.0</ele><time>2026-04-26T11:24:15.757Z</time></trkpt><trkpt lat="42.207965" lon="14.2210538"><ele>415.33333333333337</ele><time>2026-04-26T11:24:16.757Z</time></trkpt><trkpt lat="42.207952" lon="14.2209628"><ele>414.6666666666667</ele><time>2026-04-26T11:24:17.757Z</time></trkpt><trkpt lat="42.20794" lon="14.2208637"><ele>414.0</ele><time>2026-04-26T11:24:18.755Z</time></trkpt><trkpt lat="42.2079317" lon="14.2207555"><ele>414.6666666666667</ele><time>2026-04-26T11:24:19.756Z</time></trkpt><trkpt lat="42.2079238" lon="14.2206488"><ele>415.33333333333337</ele><time>2026-04-26T11:24:20.757Z</time></trkpt><trkpt lat="42.2079138" lon="14.2205448"><ele>416.0</ele><time>2026-04-26T11:24:21.756Z</time></trkpt><trkpt lat="42.2079043" lon="14.2204522"><ele>416.6666666666667</ele><time>2026-04-26T11:24:22.754Z</time></trkpt><trkpt lat="42.2078725" lon="14.2203265"><ele>417.33333333333337</ele><time>2026-04-26T11:24:24.757Z</time></trkpt><trkpt lat="42.2078438" lon="14.2202233"><ele>418.0</ele><time>2026-04-26T11:24:26.754Z</time></trkpt><trkpt lat="42.2079182" lon="14.2201752"><ele>418.00000000000006</ele><time>2026-04-26T11:24:30.757Z</time></trkpt><trkpt lat="42.2079882" lon="14.2201683"><ele>418.0</ele><time>2026-04-26T11:24:32.755Z</time></trkpt><trkpt lat="42.2080655" lon="14.2202323"><ele>418.0</ele><time>2026-04-26T11:24:34.756Z</time></trkpt><trkpt lat="42.2081245" lon="14.2203435"><ele>418.0</ele><time>2026-04-26T11:24:36.757Z</time></trkpt><trkpt lat="42.2081888" lon="14.2203725"><ele>418.00000000000006</ele><time>2026-04-26T11:24:38.757Z</time></trkpt><trkpt lat="42.2082715" lon="14.2203337"><ele>418.0</ele><time>2026-04-26T11:24:40.757Z</time></trkpt><trkpt lat="42.2083943" lon="14.2202632"><ele>416.33333333333337</ele><time>2026-04-26T11:24:42.758Z</time></trkpt><trkpt lat="42.208456" lon="14.2202103"><ele>414.6666666666667</ele><time>2026-04-26T11:24:43.759Z</time></trkpt><trkpt lat="42.2085215" lon="14.2201508"><ele>413.0</ele><time>2026-04-26T11:24:44.755Z</time></trkpt><trkpt lat="42.2085873" lon="14.2200867"><ele>411.33333333333337</ele><time>2026-04-26T11:24:45.757Z</time></trkpt><trkpt lat="42.2086557" lon="14.2200227"><ele>409.6666666666667</ele><time>2026-04-26T11:24:46.755Z</time></trkpt><trkpt lat="42.2087227" lon="14.21996"><ele>408.0</ele><time>2026-04-26T11:24:47.756Z</time></trkpt><trkpt lat="42.208783" lon="14.219913"><ele>408.0</ele><time>2026-04-26T11:24:48.756Z</time></trkpt><trkpt lat="42.2088968" lon="14.21989"><ele>408.0</ele><time>2026-04-26T11:24:50.772Z</time></trkpt><trkpt lat="42.2089588" lon="14.2199102"><ele>408.0</ele><time>2026-04-26T11:24:51.754Z</time></trkpt><trkpt lat="42.2090327" lon="14.2199368"><ele>408.0</ele><time>2026-04-26T11:24:52.754Z</time></trkpt><trkpt lat="42.2091135" lon="14.2199732"><ele>408.0</ele><time>2026-04-26T11:24:53.757Z</time></trkpt><trkpt lat="42.2092022" lon="14.2200072"><ele>408.0</ele><time>2026-04-26T11:24:54.756Z</time></trkpt><trkpt lat="42.209293" lon="14.2200228"><ele>406.1666666666667</ele><time>2026-04-26T11:24:55.757Z</time></trkpt><trkpt lat="42.2093722" lon="14.2200343"><ele>404.33333333333337</ele><time>2026-04-26T11:24:56.755Z</time></trkpt><trkpt lat="42.2094382" lon="14.2200368"><ele>402.5</ele><time>2026-04-26T11:24:57.757Z</time></trkpt><trkpt lat="42.2095408" lon="14.2199823"><ele>400.6666666666667</ele><time>2026-04-26T11:24:59.756Z</time></trkpt><trkpt lat="42.2095872" lon="14.2199163"><ele>398.83333333333337</ele><time>2026-04-26T11:25:00.757Z</time></trkpt><trkpt lat="42.209638" lon="14.2198292"><ele>397.0</ele><time>2026-04-26T11:25:01.758Z</time></trkpt><trkpt lat="42.2096798" lon="14.2197325"><ele>397.0</ele><time>2026-04-26T11:25:02.757Z</time></trkpt><trkpt lat="42.2097107" lon="14.2196335"><ele>397.0</ele><time>2026-04-26T11:25:03.757Z</time></trkpt><trkpt lat="42.2097293" lon="14.219533"><ele>397.0</ele><time>2026-04-26T11:25:04.758Z</time></trkpt><trkpt lat="42.2097335" lon="14.2194447"><ele>397.0</ele><time>2026-04-26T11:25:05.757Z</time></trkpt><trkpt lat="42.209759" lon="14.219353"><ele>397.0</ele><time>2026-04-26T11:25:07.758Z</time></trkpt><trkpt lat="42.2098072" lon="14.2194187"><ele>397.0</ele><time>2026-04-26T11:25:11.758Z</time></trkpt><trkpt lat="42.2098302" lon="14.2195057"><ele>397.0</ele><time>2026-04-26T11:25:35.758Z</time></trkpt><trkpt lat="42.2098378" lon="14.2196535"><ele>397.0</ele><time>2026-04-26T11:25:37.758Z</time></trkpt><trkpt lat="42.2098422" lon="14.2197698"><ele>397.0</ele><time>2026-04-26T11:25:38.757Z</time></trkpt><trkpt lat="42.209839" lon="14.2199113"><ele>397.0</ele><time>2026-04-26T11:25:39.756Z</time></trkpt><trkpt lat="42.2098262" lon="14.2200695"><ele>397.0</ele><time>2026-04-26T11:25:40.757Z</time></trkpt><trkpt lat="42.2098175" lon="14.220242"><ele>397.0</ele><time>2026-04-26T11:25:41.756Z</time></trkpt><trkpt lat="42.2098203" lon="14.2204052"><ele>395.83333333333337</ele><time>2026-04-26T11:25:42.758Z</time></trkpt><trkpt lat="42.2098292" lon="14.2205382"><ele>394.6666666666667</ele><time>2026-04-26T11:25:43.757Z</time></trkpt><trkpt lat="42.209841" lon="14.2206355"><ele>393.5</ele><time>2026-04-26T11:25:44.758Z</time></trkpt><trkpt lat="42.2098887" lon="14.2207103"><ele>392.33333333333337</ele><time>2026-04-26T11:25:46.757Z</time></trkpt><trkpt lat="42.2099613" lon="14.2206668"><ele>391.1666666666667</ele><time>2026-04-26T11:25:48.756Z</time></trkpt><trkpt lat="42.2100195" lon="14.220627"><ele>390.0</ele><time>2026-04-26T11:25:49.761Z</time></trkpt><trkpt lat="42.2100862" lon="14.220584"><ele>389.1666666666667</ele><time>2026-04-26T11:25:50.758Z</time></trkpt><trkpt lat="42.2101535" lon="14.2205463"><ele>388.33333333333337</ele><time>2026-04-26T11:25:51.759Z</time></trkpt><trkpt lat="42.2102213" lon="14.2205175"><ele>387.5</ele><time>2026-04-26T11:25:52.756Z</time></trkpt><trkpt lat="42.2103103" lon="14.2204992"><ele>386.6666666666667</ele><time>2026-04-26T11:25:54.757Z</time></trkpt><trkpt lat="42.2103977" lon="14.2205027"><ele>385.83333333333337</ele><time>2026-04-26T11:25:57.758Z</time></trkpt><trkpt lat="42.2104795" lon="14.2205298"><ele>385.0</ele><time>2026-04-26T11:26:00.757Z</time></trkpt><trkpt lat="42.2105067" lon="14.2206262"><ele>384.83333333333337</ele><time>2026-04-26T11:26:03.758Z</time></trkpt><trkpt lat="42.2105035" lon="14.2207313"><ele>384.6666666666667</ele><time>2026-04-26T11:26:05.754Z</time></trkpt><trkpt lat="42.2105105" lon="14.2208483"><ele>384.5</ele><time>2026-04-26T11:26:07.758Z</time></trkpt><trkpt lat="42.2105767" lon="14.2208523"><ele>384.33333333333337</ele><time>2026-04-26T11:26:10.757Z</time></trkpt><trkpt lat="42.2106923" lon="14.2208165"><ele>384.1666666666667</ele><time>2026-04-26T11:26:12.757Z</time></trkpt><trkpt lat="42.2107575" lon="14.2207983"><ele>384.0</ele><time>2026-04-26T11:26:13.759Z</time></trkpt><trkpt lat="42.2108275" lon="14.2207815"><ele>384.0</ele><time>2026-04-26T11:26:14.757Z</time></trkpt><trkpt lat="42.21091" lon="14.2207668"><ele>384.0</ele><time>2026-04-26T11:26:15.759Z</time></trkpt><trkpt lat="42.2110027" lon="14.2207523"><ele>384.0</ele><time>2026-04-26T11:26:16.757Z</time></trkpt><trkpt lat="42.2110982" lon="14.220733"><ele>384.0</ele><time>2026-04-26T11:26:17.759Z</time></trkpt><trkpt lat="42.2111887" lon="14.2207147"><ele>384.0</ele><time>2026-04-26T11:26:18.757Z</time></trkpt><trkpt lat="42.2112745" lon="14.2206988"><ele>383.99999999999994</ele><time>2026-04-26T11:26:19.758Z</time></trkpt><trkpt lat="42.2113463" lon="14.2206788"><ele>384.0</ele><time>2026-04-26T11:26:20.757Z</time></trkpt><trkpt lat="42.2114095" lon="14.2206528"><ele>384.0</ele><time>2026-04-26T11:26:21.758Z</time></trkpt><trkpt lat="42.211476" lon="14.220625"><ele>384.0</ele><time>2026-04-26T11:26:22.759Z</time></trkpt><trkpt lat="42.211544" lon="14.220601"><ele>384.0</ele><time>2026-04-26T11:26:23.758Z</time></trkpt><trkpt lat="42.2116155" lon="14.2205842"><ele>383.99999999999994</ele><time>2026-04-26T11:26:24.756Z</time></trkpt><trkpt lat="42.2116912" lon="14.220575"><ele>384.0</ele><time>2026-04-26T11:26:25.757Z</time></trkpt><trkpt lat="42.2117668" lon="14.2205573"><ele>381.6666666666667</ele><time>2026-04-26T11:26:26.758Z</time></trkpt><trkpt lat="42.2118285" lon="14.220529"><ele>379.3333333333333</ele><time>2026-04-26T11:26:27.756Z</time></trkpt><trkpt lat="42.2118993" lon="14.220489"><ele>377.0</ele><time>2026-04-26T11:26:29.754Z</time></trkpt><trkpt lat="42.2119765" lon="14.2203743"><ele>374.66666666666663</ele><time>2026-04-26T11:26:32.757Z</time></trkpt><trkpt lat="42.2120393" lon="14.2202617"><ele>372.3333333333333</ele><time>2026-04-26T11:26:34.758Z</time></trkpt><trkpt lat="42.212117" lon="14.2202282"><ele>370.0</ele><time>2026-04-26T11:26:37.757Z</time></trkpt><trkpt lat="42.2121932" lon="14.2202132"><ele>370.0</ele><time>2026-04-26T11:26:39.756Z</time></trkpt><trkpt lat="42.2122558" lon="14.2202962"><ele>370.0</ele><time>2026-04-26T11:26:43.757Z</time></trkpt><trkpt lat="42.2122762" lon="14.2204305"><ele>370.0</ele><time>2026-04-26T11:26:45.76Z</time></trkpt><trkpt lat="42.2122878" lon="14.2205207"><ele>370.0</ele><time>2026-04-26T11:26:46.758Z</time></trkpt><trkpt lat="42.2123033" lon="14.220617"><ele>370.0</ele><time>2026-04-26T11:26:47.757Z</time></trkpt><trkpt lat="42.2123232" lon="14.2207085"><ele>370.0</ele><time>2026-04-26T11:26:48.758Z</time></trkpt><trkpt lat="42.2123712" lon="14.2207975"><ele>370.4</ele><time>2026-04-26T11:26:50.757Z</time></trkpt><trkpt lat="42.2124335" lon="14.2207793"><ele>370.8</ele><time>2026-04-26T11:26:52.756Z</time></trkpt><trkpt lat="42.2125242" lon="14.2207302"><ele>371.20000000000005</ele><time>2026-04-26T11:26:54.756Z</time></trkpt><trkpt lat="42.2126437" lon="14.2206617"><ele>371.6</ele><time>2026-04-26T11:26:56.756Z</time></trkpt><trkpt lat="42.2127422" lon="14.2205967"><ele>372.0</ele><time>2026-04-26T11:26:58.756Z</time></trkpt><trkpt lat="42.2128063" lon="14.220571"><ele>372.0</ele><time>2026-04-26T11:27:01.756Z</time></trkpt><trkpt lat="42.2128657" lon="14.220535"><ele>372.0</ele><time>2026-04-26T11:27:03.757Z</time></trkpt><trkpt lat="42.2129527" lon="14.2204552"><ele>372.0</ele><time>2026-04-26T11:27:05.758Z</time></trkpt><trkpt lat="42.2130142" lon="14.2204072"><ele>372.0</ele><time>2026-04-26T11:27:07.758Z</time></trkpt><trkpt lat="42.21309" lon="14.2203522"><ele>372.0</ele><time>2026-04-26T11:27:10.756Z</time></trkpt><trkpt lat="42.2131517" lon="14.2202868"><ele>372.0</ele><time>2026-04-26T11:27:12.757Z</time></trkpt><trkpt lat="42.2132327" lon="14.220222"><ele>372.8</ele><time>2026-04-26T11:27:14.756Z</time></trkpt><trkpt lat="42.2133203" lon="14.2201592"><ele>373.6</ele><time>2026-04-26T11:27:16.756Z</time></trkpt><trkpt lat="42.2134102" lon="14.2200753"><ele>374.40000000000003</ele><time>2026-04-26T11:27:18.756Z</time></trkpt><trkpt lat="42.2134898" lon="14.2199872"><ele>375.20000000000005</ele><time>2026-04-26T11:27:20.756Z</time></trkpt><trkpt lat="42.2135563" lon="14.2199178"><ele>376.0</ele><time>2026-04-26T11:27:22.758Z</time></trkpt><trkpt lat="42.2136197" lon="14.2198575"><ele>373.8333333333333</ele><time>2026-04-26T11:27:24.757Z</time></trkpt><trkpt lat="42.2136753" lon="14.2197973"><ele>371.66666666666663</ele><time>2026-04-26T11:27:26.758Z</time></trkpt><trkpt lat="42.2137537" lon="14.2197145"><ele>369.5</ele><time>2026-04-26T11:27:29.757Z</time></trkpt><trkpt lat="42.2138128" lon="14.2196515"><ele>367.3333333333333</ele><time>2026-04-26T11:27:31.756Z</time></trkpt><trkpt lat="42.2138708" lon="14.2195942"><ele>365.1666666666667</ele><time>2026-04-26T11:27:33.757Z</time></trkpt><trkpt lat="42.2139288" lon="14.219536"><ele>363.0</ele><time>2026-04-26T11:27:35.757Z</time></trkpt><trkpt lat="42.2139883" lon="14.2194722"><ele>363.79999999999995</ele><time>2026-04-26T11:27:38.758Z</time></trkpt><trkpt lat="42.214049" lon="14.2193628"><ele>364.6</ele><time>2026-04-26T11:27:50.755Z</time></trkpt><trkpt lat="42.2141243" lon="14.2192313"><ele>365.4</ele><time>2026-04-26T11:27:52.757Z</time></trkpt><trkpt lat="42.2141892" lon="14.2190798"><ele>366.20000000000005</ele><time>2026-04-26T11:27:54.756Z</time></trkpt><trkpt lat="42.2142245" lon="14.2190047"><ele>367.0</ele><time>2026-04-26T11:27:55.755Z</time></trkpt><trkpt lat="42.2143038" lon="14.2188785"><ele>364.0</ele><time>2026-04-26T11:27:57.756Z</time></trkpt><trkpt lat="42.2143892" lon="14.2187995"><ele>361.0</ele><time>2026-04-26T11:27:59.756Z</time></trkpt><trkpt lat="42.2145012" lon="14.2186982"><ele>358.0</ele><time>2026-04-26T11:28:01.757Z</time></trkpt><trkpt lat="42.2145672" lon="14.2186312"><ele>355.0</ele><time>2026-04-26T11:28:02.756Z</time></trkpt><trkpt lat="42.214632" lon="14.218557"><ele>352.0</ele><time>2026-04-26T11:28:03.755Z</time></trkpt><trkpt lat="42.2146905" lon="14.2184853"><ele>352.0</ele><time>2026-04-26T11:28:04.755Z</time></trkpt><trkpt lat="42.214741" lon="14.2184165"><ele>352.0</ele><time>2026-04-26T11:28:05.754Z</time></trkpt><trkpt lat="42.2147923" lon="14.2183537"><ele>352.0</ele><time>2026-04-26T11:28:06.754Z</time></trkpt><trkpt lat="42.2148497" lon="14.2182815"><ele>352.0</ele><time>2026-04-26T11:28:07.753Z</time></trkpt><trkpt lat="42.2149043" lon="14.2182132"><ele>352.0</ele><time>2026-04-26T11:28:08.753Z</time></trkpt><trkpt lat="42.2149613" lon="14.2181478"><ele>352.0</ele><time>2026-04-26T11:28:09.753Z</time></trkpt><trkpt lat="42.2150282" lon="14.2180782"><ele>351.3333333333333</ele><time>2026-04-26T11:28:10.755Z</time></trkpt><trkpt lat="42.2151022" lon="14.2180098"><ele>350.66666666666663</ele><time>2026-04-26T11:28:11.755Z</time></trkpt><trkpt lat="42.2151783" lon="14.217955"><ele>350.0</ele><time>2026-04-26T11:28:12.756Z</time></trkpt><trkpt lat="42.2152562" lon="14.2179007"><ele>349.3333333333333</ele><time>2026-04-26T11:28:13.755Z</time></trkpt><trkpt lat="42.2153358" lon="14.2178508"><ele>348.6666666666667</ele><time>2026-04-26T11:28:14.756Z</time></trkpt><trkpt lat="42.2154122" lon="14.2177965"><ele>348.0</ele><time>2026-04-26T11:28:15.755Z</time></trkpt><trkpt lat="42.2154795" lon="14.2177405"><ele>348.0</ele><time>2026-04-26T11:28:16.758Z</time></trkpt><trkpt lat="42.21554" lon="14.2176932"><ele>348.0</ele><time>2026-04-26T11:28:17.756Z</time></trkpt><trkpt lat="42.2156237" lon="14.2176225"><ele>348.0</ele><time>2026-04-26T11:28:19.756Z</time></trkpt><trkpt lat="42.2156847" lon="14.2175698"><ele>348.0</ele><time>2026-04-26T11:28:23.756Z</time></trkpt><trkpt lat="42.2157672" lon="14.2174922"><ele>348.0</ele><time>2026-04-26T11:28:43.755Z</time></trkpt><trkpt lat="42.2158215" lon="14.2174338"><ele>348.0</ele><time>2026-04-26T11:28:44.757Z</time></trkpt><trkpt lat="42.2158952" lon="14.2173587"><ele>346.8333333333333</ele><time>2026-04-26T11:28:45.757Z</time></trkpt><trkpt lat="42.2159753" lon="14.2172828"><ele>345.6666666666667</ele><time>2026-04-26T11:28:46.756Z</time></trkpt><trkpt lat="42.2160513" lon="14.2172123"><ele>344.5</ele><time>2026-04-26T11:28:47.756Z</time></trkpt><trkpt lat="42.2161172" lon="14.2171512"><ele>343.33333333333337</ele><time>2026-04-26T11:28:48.757Z</time></trkpt><trkpt lat="42.2161992" lon="14.2170575"><ele>342.1666666666667</ele><time>2026-04-26T11:28:50.754Z</time></trkpt><trkpt lat="42.2162538" lon="14.2170058"><ele>341.0</ele><time>2026-04-26T11:28:53.755Z</time></trkpt><trkpt lat="42.2163117" lon="14.2169603"><ele>341.0</ele><time>2026-04-26T11:28:55.754Z</time></trkpt><trkpt lat="42.2163688" lon="14.2169175"><ele>341.0</ele><time>2026-04-26T11:28:56.753Z</time></trkpt><trkpt lat="42.2164355" lon="14.2168708"><ele>341.0</ele><time>2026-04-26T11:28:57.753Z</time></trkpt><trkpt lat="42.2164995" lon="14.216827"><ele>341.0</ele><time>2026-04-26T11:28:58.754Z</time></trkpt><trkpt lat="42.2166157" lon="14.2167737"><ele>341.0</ele><time>2026-04-26T11:29:00.756Z</time></trkpt><trkpt lat="42.216681" lon="14.2167367"><ele>341.0</ele><time>2026-04-26T11:29:01.755Z</time></trkpt><trkpt lat="42.216754" lon="14.2166903"><ele>341.1666666666667</ele><time>2026-04-26T11:29:02.754Z</time></trkpt><trkpt lat="42.2168268" lon="14.2166365"><ele>341.33333333333337</ele><time>2026-04-26T11:29:03.755Z</time></trkpt><trkpt lat="42.2168942" lon="14.2165822"><ele>341.5</ele><time>2026-04-26T11:29:04.755Z</time></trkpt><trkpt lat="42.21696" lon="14.216529"><ele>341.6666666666667</ele><time>2026-04-26T11:29:05.755Z</time></trkpt><trkpt lat="42.2170315" lon="14.21648"><ele>341.8333333333333</ele><time>2026-04-26T11:29:06.756Z</time></trkpt><trkpt lat="42.2171075" lon="14.2164332"><ele>342.0</ele><time>2026-04-26T11:29:07.755Z</time></trkpt><trkpt lat="42.2171853" lon="14.2163827"><ele>341.20000000000005</ele><time>2026-04-26T11:29:08.756Z</time></trkpt><trkpt lat="42.2172623" lon="14.2163315"><ele>340.4</ele><time>2026-04-26T11:29:09.755Z</time></trkpt><trkpt lat="42.2173395" lon="14.2162825"><ele>339.6</ele><time>2026-04-26T11:29:10.756Z</time></trkpt><trkpt lat="42.2174123" lon="14.2162482"><ele>338.79999999999995</ele><time>2026-04-26T11:29:11.755Z</time></trkpt><trkpt lat="42.2175215" lon="14.2162687"><ele>338.0</ele><time>2026-04-26T11:29:13.756Z</time></trkpt><trkpt lat="42.217605" lon="14.2163908"><ele>337.83333333333337</ele><time>2026-04-26T11:29:15.756Z</time></trkpt><trkpt lat="42.2176385" lon="14.2164757"><ele>337.6666666666667</ele><time>2026-04-26T11:29:16.756Z</time></trkpt><trkpt lat="42.2176787" lon="14.2165593"><ele>337.5</ele><time>2026-04-26T11:29:17.754Z</time></trkpt><trkpt lat="42.2176588" lon="14.2166587"><ele>337.3333333333333</ele><time>2026-04-26T11:29:19.754Z</time></trkpt><trkpt lat="42.217558" lon="14.216723"><ele>337.16666666666663</ele><time>2026-04-26T11:29:21.753Z</time></trkpt><trkpt lat="42.2174887" lon="14.2167665"><ele>337.0</ele><time>2026-04-26T11:29:22.753Z</time></trkpt><trkpt lat="42.217485" lon="14.2168697"><ele>338.16666666666663</ele><time>2026-04-26T11:29:25.757Z</time></trkpt><trkpt lat="42.2175715" lon="14.2168823"><ele>339.3333333333333</ele><time>2026-04-26T11:29:27.756Z</time></trkpt><trkpt lat="42.217643" lon="14.2168802"><ele>340.5</ele><time>2026-04-26T11:29:28.755Z</time></trkpt><trkpt lat="42.2177247" lon="14.2168682"><ele>341.6666666666667</ele><time>2026-04-26T11:29:29.754Z</time></trkpt><trkpt lat="42.2178173" lon="14.2168487"><ele>342.83333333333337</ele><time>2026-04-26T11:29:30.756Z</time></trkpt><trkpt lat="42.2179063" lon="14.2168395"><ele>344.0</ele><time>2026-04-26T11:29:31.756Z</time></trkpt><trkpt lat="42.2179707" lon="14.2168528"><ele>344.00000000000006</ele><time>2026-04-26T11:29:32.755Z</time></trkpt><trkpt lat="42.218029" lon="14.2169012"><ele>344.0</ele><time>2026-04-26T11:29:33.755Z</time></trkpt><trkpt lat="42.2180887" lon="14.2169662"><ele>344.0</ele><time>2026-04-26T11:29:34.754Z</time></trkpt><trkpt lat="42.2181578" lon="14.2170378"><ele>344.0</ele><time>2026-04-26T11:29:35.756Z</time></trkpt><trkpt lat="42.2182133" lon="14.2170905"><ele>344.0</ele><time>2026-04-26T11:29:36.756Z</time></trkpt><trkpt lat="42.2182847" lon="14.2171172"><ele>344.00000000000006</ele><time>2026-04-26T11:29:39.756Z</time></trkpt><trkpt lat="42.218345" lon="14.217086"><ele>344.0</ele><time>2026-04-26T11:29:53.765Z</time></trkpt><trkpt lat="42.2184317" lon="14.2169253"><ele>344.75</ele><time>2026-04-26T11:29:55.765Z</time></trkpt><trkpt lat="42.2185098" lon="14.2168257"><ele>345.5</ele><time>2026-04-26T11:29:56.758Z</time></trkpt><trkpt lat="42.2186058" lon="14.2167217"><ele>346.25</ele><time>2026-04-26T11:29:57.76Z</time></trkpt><trkpt lat="42.218716" lon="14.2166167"><ele>347.0</ele><time>2026-04-26T11:29:58.761Z</time></trkpt><trkpt lat="42.2188328" lon="14.2165057"><ele>345.5</ele><time>2026-04-26T11:29:59.757Z</time></trkpt><trkpt lat="42.21895" lon="14.2163803"><ele>344.0</ele><time>2026-04-26T11:30:00.756Z</time></trkpt><trkpt lat="42.2190592" lon="14.2162472"><ele>342.5</ele><time>2026-04-26T11:30:01.757Z</time></trkpt><trkpt lat="42.2191585" lon="14.2161097"><ele>341.0</ele><time>2026-04-26T11:30:02.757Z</time></trkpt><trkpt lat="42.2192447" lon="14.215964"><ele>341.0</ele><time>2026-04-26T11:30:03.757Z</time></trkpt><trkpt lat="42.2193238" lon="14.2157953"><ele>341.0</ele><time>2026-04-26T11:30:04.757Z</time></trkpt><trkpt lat="42.2194013" lon="14.2155983"><ele>341.0</ele><time>2026-04-26T11:30:05.757Z</time></trkpt><trkpt lat="42.2194835" lon="14.2153783"><ele>337.6666666666667</ele><time>2026-04-26T11:30:06.76Z</time></trkpt><trkpt lat="42.2195768" lon="14.215156"><ele>334.3333333333333</ele><time>2026-04-26T11:30:07.757Z</time></trkpt><trkpt lat="42.2196787" lon="14.2149417"><ele>331.0</ele><time>2026-04-26T11:30:08.755Z</time></trkpt><trkpt lat="42.2197783" lon="14.214738"><ele>330.0</ele><time>2026-04-26T11:30:09.755Z</time></trkpt><trkpt lat="42.2198665" lon="14.214548"><ele>329.0</ele><time>2026-04-26T11:30:10.755Z</time></trkpt><trkpt lat="42.2199362" lon="14.2143832"><ele>328.0</ele><time>2026-04-26T11:30:11.754Z</time></trkpt><trkpt lat="42.2199865" lon="14.2142465"><ele>327.0</ele><time>2026-04-26T11:30:12.753Z</time></trkpt><trkpt lat="42.2200243" lon="14.2141303"><ele>327.0</ele><time>2026-04-26T11:30:13.756Z</time></trkpt><trkpt lat="42.2200635" lon="14.214015"><ele>327.0</ele><time>2026-04-26T11:30:14.756Z</time></trkpt><trkpt lat="42.2201017" lon="14.2139067"><ele>327.0</ele><time>2026-04-26T11:30:15.757Z</time></trkpt><trkpt lat="42.2201322" lon="14.2138268"><ele>327.0</ele><time>2026-04-26T11:30:16.757Z</time></trkpt><trkpt lat="42.2201968" lon="14.2137335"><ele>327.0</ele><time>2026-04-26T11:30:18.757Z</time></trkpt><trkpt lat="42.2202545" lon="14.2136663"><ele>327.0</ele><time>2026-04-26T11:30:20.758Z</time></trkpt><trkpt lat="42.220158" lon="14.2137242"><ele>326.0</ele><time>2026-04-26T11:30:37.757Z</time></trkpt><trkpt lat="42.220066" lon="14.2136748"><ele>325.0</ele><time>2026-04-26T11:30:39.759Z</time></trkpt><trkpt lat="42.220009" lon="14.2136343"><ele>324.0</ele><time>2026-04-26T11:30:40.757Z</time></trkpt><trkpt lat="42.2199082" lon="14.2135693"><ele>323.0</ele><time>2026-04-26T11:30:42.756Z</time></trkpt><trkpt lat="42.2198822" lon="14.2134473"><ele>322.0</ele><time>2026-04-26T11:30:44.754Z</time></trkpt><trkpt lat="42.2199117" lon="14.2133702"><ele>321.0</ele><time>2026-04-26T11:30:45.755Z</time></trkpt><trkpt lat="42.219956" lon="14.2132808"><ele>321.0</ele><time>2026-04-26T11:30:46.756Z</time></trkpt><trkpt lat="42.2200098" lon="14.2131747"><ele>321.0</ele><time>2026-04-26T11:30:47.757Z</time></trkpt><trkpt lat="42.2200762" lon="14.2130658"><ele>321.0</ele><time>2026-04-26T11:30:48.756Z</time></trkpt><trkpt lat="42.220153" lon="14.2129547"><ele>321.0</ele><time>2026-04-26T11:30:49.755Z</time></trkpt><trkpt lat="42.2202385" lon="14.212839"><ele>321.0</ele><time>2026-04-26T11:30:50.755Z</time></trkpt><trkpt lat="42.2203302" lon="14.2127223"><ele>321.25</ele><time>2026-04-26T11:30:51.756Z</time></trkpt><trkpt lat="42.2204243" lon="14.2126053"><ele>321.5</ele><time>2026-04-26T11:30:52.755Z</time></trkpt><trkpt lat="42.220523" lon="14.2124885"><ele>321.75</ele><time>2026-04-26T11:30:53.754Z</time></trkpt><trkpt lat="42.2206188" lon="14.2123657"><ele>322.0</ele><time>2026-04-26T11:30:54.755Z</time></trkpt><trkpt lat="42.2207167" lon="14.2122405"><ele>321.5</ele><time>2026-04-26T11:30:55.756Z</time></trkpt><trkpt lat="42.2208128" lon="14.2121133"><ele>321.0</ele><time>2026-04-26T11:30:56.755Z</time></trkpt><trkpt lat="42.2209108" lon="14.2119865"><ele>320.5</ele><time>2026-04-26T11:30:57.756Z</time></trkpt><trkpt lat="42.2210195" lon="14.2118737"><ele>320.0</ele><time>2026-04-26T11:30:58.753Z</time></trkpt><trkpt lat="42.2211372" lon="14.2117718"><ele>320.0</ele><time>2026-04-26T11:30:59.752Z</time></trkpt><trkpt lat="42.2212658" lon="14.2116762"><ele>320.0</ele><time>2026-04-26T11:31:00.753Z</time></trkpt><trkpt lat="42.2214" lon="14.2115937"><ele>320.0</ele><time>2026-04-26T11:31:01.754Z</time></trkpt><trkpt lat="42.2215413" lon="14.211512"><ele>320.0</ele><time>2026-04-26T11:31:02.755Z</time></trkpt><trkpt lat="42.2216797" lon="14.2114293"><ele>318.5</ele><time>2026-04-26T11:31:03.756Z</time></trkpt><trkpt lat="42.22181" lon="14.2113395"><ele>317.0</ele><time>2026-04-26T11:31:04.756Z</time></trkpt><trkpt lat="42.2219375" lon="14.2112628"><ele>315.5</ele><time>2026-04-26T11:31:05.756Z</time></trkpt><trkpt lat="42.2220735" lon="14.2112053"><ele>314.0</ele><time>2026-04-26T11:31:06.757Z</time></trkpt><trkpt lat="42.2222142" lon="14.211156"><ele>313.0</ele><time>2026-04-26T11:31:07.757Z</time></trkpt><trkpt lat="42.2223563" lon="14.2111018"><ele>312.0</ele><time>2026-04-26T11:31:08.756Z</time></trkpt><trkpt lat="42.2224977" lon="14.2110383"><ele>311.0</ele><time>2026-04-26T11:31:09.761Z</time></trkpt><trkpt lat="42.2226365" lon="14.2109533"><ele>310.0</ele><time>2026-04-26T11:31:10.757Z</time></trkpt><trkpt lat="42.2227688" lon="14.2108547"><ele>310.0</ele><time>2026-04-26T11:31:11.755Z</time></trkpt><trkpt lat="42.2228867" lon="14.2107547"><ele>310.0</ele><time>2026-04-26T11:31:12.757Z</time></trkpt><trkpt lat="42.2229933" lon="14.2106575"><ele>310.0</ele><time>2026-04-26T11:31:13.754Z</time></trkpt><trkpt lat="42.2230953" lon="14.2105542"><ele>310.0</ele><time>2026-04-26T11:31:14.754Z</time></trkpt><trkpt lat="42.2231975" lon="14.2104457"><ele>309.75</ele><time>2026-04-26T11:31:15.755Z</time></trkpt><trkpt lat="42.223303" lon="14.2103235"><ele>309.5</ele><time>2026-04-26T11:31:16.755Z</time></trkpt><trkpt lat="42.2234088" lon="14.2101885"><ele>309.25</ele><time>2026-04-26T11:31:17.755Z</time></trkpt><trkpt lat="42.2235198" lon="14.210057"><ele>309.0</ele><time>2026-04-26T11:31:18.754Z</time></trkpt><trkpt lat="42.2236308" lon="14.2099463"><ele>309.0</ele><time>2026-04-26T11:31:19.755Z</time></trkpt><trkpt lat="42.2237442" lon="14.209867"><ele>309.0</ele><time>2026-04-26T11:31:20.754Z</time></trkpt><trkpt lat="42.2238547" lon="14.2098398"><ele>309.0</ele><time>2026-04-26T11:31:21.755Z</time></trkpt><trkpt lat="42.2239623" lon="14.2098473"><ele>309.0</ele><time>2026-04-26T11:31:22.753Z</time></trkpt><trkpt lat="42.2240762" lon="14.2098695"><ele>309.0</ele><time>2026-04-26T11:31:23.753Z</time></trkpt><trkpt lat="42.2241828" lon="14.2098683"><ele>309.0</ele><time>2026-04-26T11:31:24.755Z</time></trkpt><trkpt lat="42.2242773" lon="14.2098307"><ele>309.0</ele><time>2026-04-26T11:31:25.754Z</time></trkpt><trkpt lat="42.2243627" lon="14.2097577"><ele>309.0</ele><time>2026-04-26T11:31:26.757Z</time></trkpt><trkpt lat="42.2244533" lon="14.2096482"><ele>309.0</ele><time>2026-04-26T11:31:27.777Z</time></trkpt><trkpt lat="42.2245577" lon="14.2095098"><ele>309.5</ele><time>2026-04-26T11:31:28.759Z</time></trkpt><trkpt lat="42.2246672" lon="14.2093568"><ele>310.0</ele><time>2026-04-26T11:31:29.754Z</time></trkpt><trkpt lat="42.224788" lon="14.2092425"><ele>310.5</ele><time>2026-04-26T11:31:30.755Z</time></trkpt><trkpt lat="42.2249197" lon="14.2091705"><ele>311.0</ele><time>2026-04-26T11:31:31.755Z</time></trkpt><trkpt lat="42.2250682" lon="14.2091257"><ele>309.6666666666667</ele><time>2026-04-26T11:31:32.755Z</time></trkpt><trkpt lat="42.2252212" lon="14.2090765"><ele>308.3333333333333</ele><time>2026-04-26T11:31:33.758Z</time></trkpt><trkpt lat="42.2253807" lon="14.2089937"><ele>307.0</ele><time>2026-04-26T11:31:34.756Z</time></trkpt><trkpt lat="42.2255545" lon="14.2088935"><ele>305.66666666666663</ele><time>2026-04-26T11:31:35.755Z</time></trkpt><trkpt lat="42.2257382" lon="14.2088057"><ele>304.3333333333333</ele><time>2026-04-26T11:31:36.756Z</time></trkpt><trkpt lat="42.2258957" lon="14.2087488"><ele>303.0</ele><time>2026-04-26T11:31:37.755Z</time></trkpt><trkpt lat="42.2260192" lon="14.2087063"><ele>303.0</ele><time>2026-04-26T11:31:38.756Z</time></trkpt><trkpt lat="42.226102" lon="14.2086502"><ele>303.0</ele><time>2026-04-26T11:31:39.755Z</time></trkpt><trkpt lat="42.2261657" lon="14.2085642"><ele>303.0</ele><time>2026-04-26T11:31:40.754Z</time></trkpt><trkpt lat="42.226223" lon="14.2084368"><ele>303.0</ele><time>2026-04-26T11:31:41.755Z</time></trkpt><trkpt lat="42.2262835" lon="14.2082805"><ele>303.0</ele><time>2026-04-26T11:31:42.754Z</time></trkpt><trkpt lat="42.226347" lon="14.208104"><ele>302.5</ele><time>2026-04-26T11:31:43.755Z</time></trkpt><trkpt lat="42.2264127" lon="14.2079133"><ele>302.0</ele><time>2026-04-26T11:31:44.755Z</time></trkpt><trkpt lat="42.2264863" lon="14.2077362"><ele>301.5</ele><time>2026-04-26T11:31:45.756Z</time></trkpt><trkpt lat="42.2265717" lon="14.2075888"><ele>301.0</ele><time>2026-04-26T11:31:46.754Z</time></trkpt><trkpt lat="42.2266757" lon="14.2074613"><ele>300.3333333333333</ele><time>2026-04-26T11:31:47.753Z</time></trkpt><trkpt lat="42.2268033" lon="14.2073558"><ele>299.6666666666667</ele><time>2026-04-26T11:31:48.756Z</time></trkpt><trkpt lat="42.2269457" lon="14.207263"><ele>299.0</ele><time>2026-04-26T11:31:49.753Z</time></trkpt><trkpt lat="42.227094" lon="14.2071688"><ele>298.75</ele><time>2026-04-26T11:31:50.756Z</time></trkpt><trkpt lat="42.2272318" lon="14.2070807"><ele>298.5</ele><time>2026-04-26T11:31:51.756Z</time></trkpt><trkpt lat="42.2273547" lon="14.2069957"><ele>298.25</ele><time>2026-04-26T11:31:52.754Z</time></trkpt><trkpt lat="42.227451" lon="14.2069197"><ele>298.0</ele><time>2026-04-26T11:31:53.755Z</time></trkpt><trkpt lat="42.2275218" lon="14.2068258"><ele>297.0</ele><time>2026-04-26T11:31:54.756Z</time></trkpt><trkpt lat="42.227576" lon="14.2067077"><ele>296.0</ele><time>2026-04-26T11:31:55.757Z</time></trkpt><trkpt lat="42.2276205" lon="14.2065643"><ele>295.0</ele><time>2026-04-26T11:31:56.757Z</time></trkpt><trkpt lat="42.2276618" lon="14.2063968"><ele>294.0</ele><time>2026-04-26T11:31:57.757Z</time></trkpt><trkpt lat="42.2277142" lon="14.2062275"><ele>293.4</ele><time>2026-04-26T11:31:58.756Z</time></trkpt><trkpt lat="42.2277693" lon="14.2060782"><ele>292.79999999999995</ele><time>2026-04-26T11:31:59.755Z</time></trkpt><trkpt lat="42.2278048" lon="14.2059553"><ele>292.20000000000005</ele><time>2026-04-26T11:32:00.756Z</time></trkpt><trkpt lat="42.227804" lon="14.2058533"><ele>291.6</ele><time>2026-04-26T11:32:01.756Z</time></trkpt><trkpt lat="42.2277695" lon="14.205753"><ele>291.0</ele><time>2026-04-26T11:32:02.755Z</time></trkpt><trkpt lat="42.2277183" lon="14.2056412"><ele>290.8</ele><time>2026-04-26T11:32:03.757Z</time></trkpt><trkpt lat="42.2276823" lon="14.2055122"><ele>290.6</ele><time>2026-04-26T11:32:04.757Z</time></trkpt><trkpt lat="42.2276697" lon="14.2053753"><ele>290.4</ele><time>2026-04-26T11:32:05.756Z</time></trkpt><trkpt lat="42.2276925" lon="14.2052492"><ele>290.2</ele><time>2026-04-26T11:32:06.759Z</time></trkpt><trkpt lat="42.2277375" lon="14.2051327"><ele>290.0</ele><time>2026-04-26T11:32:07.758Z</time></trkpt><trkpt lat="42.2278007" lon="14.2050385"><ele>290.0</ele><time>2026-04-26T11:32:08.758Z</time></trkpt><trkpt lat="42.2278835" lon="14.2049678"><ele>290.0</ele><time>2026-04-26T11:32:09.755Z</time></trkpt><trkpt lat="42.2279848" lon="14.2049113"><ele>290.0</ele><time>2026-04-26T11:32:10.756Z</time></trkpt><trkpt lat="42.2280973" lon="14.204846"><ele>290.0</ele><time>2026-04-26T11:32:11.753Z</time></trkpt><trkpt lat="42.2282023" lon="14.2047533"><ele>290.0</ele><time>2026-04-26T11:32:12.755Z</time></trkpt><trkpt lat="42.228293" lon="14.204636"><ele>290.0</ele><time>2026-04-26T11:32:13.754Z</time></trkpt><trkpt lat="42.2283653" lon="14.2044943"><ele>290.0</ele><time>2026-04-26T11:32:14.754Z</time></trkpt><trkpt lat="42.2284292" lon="14.204337"><ele>290.0</ele><time>2026-04-26T11:32:15.757Z</time></trkpt><trkpt lat="42.2284983" lon="14.2041942"><ele>290.0</ele><time>2026-04-26T11:32:16.759Z</time></trkpt><trkpt lat="42.228577" lon="14.2040813"><ele>290.0</ele><time>2026-04-26T11:32:17.76Z</time></trkpt><trkpt lat="42.2286767" lon="14.2039918"><ele>290.0</ele><time>2026-04-26T11:32:18.758Z</time></trkpt><trkpt lat="42.2287892" lon="14.2039263"><ele>290.0</ele><time>2026-04-26T11:32:19.757Z</time></trkpt><trkpt lat="42.2289083" lon="14.203865"><ele>289.5</ele><time>2026-04-26T11:32:20.758Z</time></trkpt><trkpt lat="42.2290307" lon="14.2037955"><ele>289.0</ele><time>2026-04-26T11:32:21.758Z</time></trkpt><trkpt lat="42.2291522" lon="14.203711"><ele>288.5</ele><time>2026-04-26T11:32:22.757Z</time></trkpt><trkpt lat="42.2292732" lon="14.2036152"><ele>288.0</ele><time>2026-04-26T11:32:23.758Z</time></trkpt><trkpt lat="42.229386" lon="14.2035063"><ele>288.0</ele><time>2026-04-26T11:32:24.759Z</time></trkpt><trkpt lat="42.2294787" lon="14.20338"><ele>288.0</ele><time>2026-04-26T11:32:25.759Z</time></trkpt><trkpt lat="42.229543" lon="14.2032392"><ele>288.0</ele><time>2026-04-26T11:32:26.759Z</time></trkpt><trkpt lat="42.229575" lon="14.2030925"><ele>288.0</ele><time>2026-04-26T11:32:27.757Z</time></trkpt><trkpt lat="42.2295862" lon="14.2029273"><ele>287.0</ele><time>2026-04-26T11:32:28.76Z</time></trkpt><trkpt lat="42.2295938" lon="14.20275"><ele>286.0</ele><time>2026-04-26T11:32:29.759Z</time></trkpt><trkpt lat="42.2296155" lon="14.2025767"><ele>285.0</ele><time>2026-04-26T11:32:30.759Z</time></trkpt><trkpt lat="42.2296613" lon="14.2024185"><ele>284.0</ele><time>2026-04-26T11:32:31.758Z</time></trkpt><trkpt lat="42.22973" lon="14.2022712"><ele>283.75</ele><time>2026-04-26T11:32:32.758Z</time></trkpt><trkpt lat="42.229813" lon="14.2021305"><ele>283.5</ele><time>2026-04-26T11:32:33.757Z</time></trkpt><trkpt lat="42.2299018" lon="14.2020012"><ele>283.25</ele><time>2026-04-26T11:32:34.759Z</time></trkpt><trkpt lat="42.2300007" lon="14.201885"><ele>283.0</ele><time>2026-04-26T11:32:35.758Z</time></trkpt><trkpt lat="42.2301118" lon="14.2017852"><ele>283.0</ele><time>2026-04-26T11:32:36.756Z</time></trkpt><trkpt lat="42.2302317" lon="14.2016992"><ele>283.0</ele><time>2026-04-26T11:32:37.757Z</time></trkpt><trkpt lat="42.2303555" lon="14.201616"><ele>283.0</ele><time>2026-04-26T11:32:38.758Z</time></trkpt><trkpt lat="42.2304713" lon="14.2015195"><ele>283.0</ele><time>2026-04-26T11:32:39.757Z</time></trkpt><trkpt lat="42.2305818" lon="14.2013965"><ele>282.75</ele><time>2026-04-26T11:32:40.759Z</time></trkpt><trkpt lat="42.2306832" lon="14.2012508"><ele>282.5</ele><time>2026-04-26T11:32:41.76Z</time></trkpt><trkpt lat="42.2307757" lon="14.2010892"><ele>282.25</ele><time>2026-04-26T11:32:42.759Z</time></trkpt><trkpt lat="42.2308503" lon="14.2009263"><ele>282.0</ele><time>2026-04-26T11:32:43.757Z</time></trkpt><trkpt lat="42.2309248" lon="14.20077"><ele>280.3333333333333</ele><time>2026-04-26T11:32:44.759Z</time></trkpt><trkpt lat="42.2310198" lon="14.2006227"><ele>278.66666666666663</ele><time>2026-04-26T11:32:45.76Z</time></trkpt><trkpt lat="42.2311355" lon="14.2004858"><ele>277.0</ele><time>2026-04-26T11:32:46.759Z</time></trkpt><trkpt lat="42.2312597" lon="14.2003438"><ele>277.0</ele><time>2026-04-26T11:32:47.761Z</time></trkpt><trkpt lat="42.2313842" lon="14.2001903"><ele>277.0</ele><time>2026-04-26T11:32:48.759Z</time></trkpt><trkpt lat="42.2315007" lon="14.2000365"><ele>277.0</ele><time>2026-04-26T11:32:49.758Z</time></trkpt><trkpt lat="42.2316087" lon="14.1998912"><ele>276.75</ele><time>2026-04-26T11:32:50.758Z</time></trkpt><trkpt lat="42.231708" lon="14.1997615"><ele>276.5</ele><time>2026-04-26T11:32:51.76Z</time></trkpt><trkpt lat="42.2317968" lon="14.1996543"><ele>276.25</ele><time>2026-04-26T11:32:52.759Z</time></trkpt><trkpt lat="42.2318667" lon="14.1995653"><ele>276.0</ele><time>2026-04-26T11:32:53.757Z</time></trkpt><trkpt lat="42.2319285" lon="14.1994615"><ele>276.0</ele><time>2026-04-26T11:32:54.763Z</time></trkpt><trkpt lat="42.2319933" lon="14.1993345"><ele>276.0</ele><time>2026-04-26T11:32:55.759Z</time></trkpt><trkpt lat="42.2320697" lon="14.1991962"><ele>276.0</ele><time>2026-04-26T11:32:56.757Z</time></trkpt><trkpt lat="42.232162" lon="14.1990492"><ele>276.0</ele><time>2026-04-26T11:32:57.757Z</time></trkpt><trkpt lat="42.2322633" lon="14.1988933"><ele>274.6666666666667</ele><time>2026-04-26T11:32:58.757Z</time></trkpt><trkpt lat="42.232367" lon="14.1987318"><ele>273.33333333333337</ele><time>2026-04-26T11:32:59.755Z</time></trkpt><trkpt lat="42.2324697" lon="14.198572"><ele>272.0</ele><time>2026-04-26T11:33:00.755Z</time></trkpt><trkpt lat="42.2325738" lon="14.1984172"><ele>272.0</ele><time>2026-04-26T11:33:01.754Z</time></trkpt><trkpt lat="42.2326743" lon="14.1982733"><ele>272.0</ele><time>2026-04-26T11:33:02.755Z</time></trkpt><trkpt lat="42.23276" lon="14.198137"><ele>272.0</ele><time>2026-04-26T11:33:03.755Z</time></trkpt><trkpt lat="42.2328182" lon="14.1980173"><ele>272.0</ele><time>2026-04-26T11:33:04.756Z</time></trkpt><trkpt lat="42.232853" lon="14.1979318"><ele>271.1666666666667</ele><time>2026-04-26T11:33:05.755Z</time></trkpt><trkpt lat="42.2328935" lon="14.197835"><ele>270.33333333333337</ele><time>2026-04-26T11:33:07.756Z</time></trkpt><trkpt lat="42.2329607" lon="14.1977677"><ele>269.5</ele><time>2026-04-26T11:33:26.754Z</time></trkpt><trkpt lat="42.2330562" lon="14.1977587"><ele>268.6666666666667</ele><time>2026-04-26T11:33:28.755Z</time></trkpt><trkpt lat="42.2331175" lon="14.1977357"><ele>267.8333333333333</ele><time>2026-04-26T11:33:29.757Z</time></trkpt><trkpt lat="42.2331827" lon="14.197694"><ele>267.0</ele><time>2026-04-26T11:33:30.756Z</time></trkpt><trkpt lat="42.2332512" lon="14.1976488"><ele>267.0</ele><time>2026-04-26T11:33:31.755Z</time></trkpt><trkpt lat="42.2333207" lon="14.1975873"><ele>267.0</ele><time>2026-04-26T11:33:32.758Z</time></trkpt><trkpt lat="42.233401" lon="14.197523"><ele>267.0</ele><time>2026-04-26T11:33:33.755Z</time></trkpt><trkpt lat="42.2334863" lon="14.1974613"><ele>267.0</ele><time>2026-04-26T11:33:34.757Z</time></trkpt><trkpt lat="42.233564" lon="14.1973912"><ele>267.0</ele><time>2026-04-26T11:33:35.755Z</time></trkpt><trkpt lat="42.2336267" lon="14.1973055"><ele>267.0</ele><time>2026-04-26T11:33:36.757Z</time></trkpt><trkpt lat="42.2336782" lon="14.1971965"><ele>267.0</ele><time>2026-04-26T11:33:37.758Z</time></trkpt><trkpt lat="42.233726" lon="14.1970667"><ele>267.0</ele><time>2026-04-26T11:33:38.757Z</time></trkpt><trkpt lat="42.2337832" lon="14.1969325"><ele>267.0</ele><time>2026-04-26T11:33:39.757Z</time></trkpt><trkpt lat="42.233852" lon="14.196795"><ele>267.0</ele><time>2026-04-26T11:33:40.758Z</time></trkpt><trkpt lat="42.233915" lon="14.1966413"><ele>266.75</ele><time>2026-04-26T11:33:41.754Z</time></trkpt><trkpt lat="42.233966" lon="14.19648"><ele>266.5</ele><time>2026-04-26T11:33:42.756Z</time></trkpt><trkpt lat="42.23402" lon="14.1963307"><ele>266.25</ele><time>2026-04-26T11:33:43.756Z</time></trkpt><trkpt lat="42.2340872" lon="14.196171"><ele>266.0</ele><time>2026-04-26T11:33:44.756Z</time></trkpt><trkpt lat="42.234165" lon="14.196011"><ele>266.0</ele><time>2026-04-26T11:33:45.757Z</time></trkpt><trkpt lat="42.2342458" lon="14.195853"><ele>266.0</ele><time>2026-04-26T11:33:46.756Z</time></trkpt><trkpt lat="42.2343353" lon="14.1957035"><ele>266.0</ele><time>2026-04-26T11:33:47.756Z</time></trkpt><trkpt lat="42.23444" lon="14.195568"><ele>266.0</ele><time>2026-04-26T11:33:48.755Z</time></trkpt><trkpt lat="42.2345593" lon="14.1954317"><ele>266.0</ele><time>2026-04-26T11:33:49.753Z</time></trkpt><trkpt lat="42.2346693" lon="14.1952853"><ele>266.0</ele><time>2026-04-26T11:33:50.754Z</time></trkpt><trkpt lat="42.2347847" lon="14.1951605"><ele>266.0</ele><time>2026-04-26T11:33:51.753Z</time></trkpt><trkpt lat="42.234903" lon="14.195036"><ele>266.0</ele><time>2026-04-26T11:33:52.753Z</time></trkpt><trkpt lat="42.2350245" lon="14.1949003"><ele>266.0</ele><time>2026-04-26T11:33:53.755Z</time></trkpt><trkpt lat="42.2351497" lon="14.1947593"><ele>266.0</ele><time>2026-04-26T11:33:54.756Z</time></trkpt><trkpt lat="42.235273" lon="14.1946295"><ele>265.75</ele><time>2026-04-26T11:33:55.778Z</time></trkpt><trkpt lat="42.2353907" lon="14.1945122"><ele>265.5</ele><time>2026-04-26T11:33:56.755Z</time></trkpt><trkpt lat="42.2354997" lon="14.1944205"><ele>265.25</ele><time>2026-04-26T11:33:57.756Z</time></trkpt><trkpt lat="42.235609" lon="14.1943528"><ele>265.0</ele><time>2026-04-26T11:33:58.756Z</time></trkpt><trkpt lat="42.235726" lon="14.1942842"><ele>265.0</ele><time>2026-04-26T11:33:59.756Z</time></trkpt><trkpt lat="42.2358505" lon="14.1942067"><ele>265.0</ele><time>2026-04-26T11:34:00.756Z</time></trkpt><trkpt lat="42.235947" lon="14.1940975"><ele>265.0</ele><time>2026-04-26T11:34:01.756Z</time></trkpt><trkpt lat="42.2360315" lon="14.1939638"><ele>265.0</ele><time>2026-04-26T11:34:02.753Z</time></trkpt><trkpt lat="42.2361018" lon="14.1938097"><ele>264.25</ele><time>2026-04-26T11:34:03.755Z</time></trkpt><trkpt lat="42.2361583" lon="14.193633"><ele>263.5</ele><time>2026-04-26T11:34:04.757Z</time></trkpt><trkpt lat="42.236214" lon="14.1934447"><ele>262.75</ele><time>2026-04-26T11:34:05.756Z</time></trkpt><trkpt lat="42.2362652" lon="14.1932528"><ele>262.0</ele><time>2026-04-26T11:34:06.757Z</time></trkpt><trkpt lat="42.2363098" lon="14.1930602"><ele>261.0</ele><time>2026-04-26T11:34:07.757Z</time></trkpt><trkpt lat="42.2363497" lon="14.1928637"><ele>260.0</ele><time>2026-04-26T11:34:08.756Z</time></trkpt><trkpt lat="42.2363958" lon="14.1926743"><ele>259.0</ele><time>2026-04-26T11:34:09.756Z</time></trkpt><trkpt lat="42.2364518" lon="14.1924938"><ele>258.0</ele><time>2026-04-26T11:34:10.754Z</time></trkpt><trkpt lat="42.2365135" lon="14.1923117"><ele>257.75</ele><time>2026-04-26T11:34:11.758Z</time></trkpt><trkpt lat="42.2365765" lon="14.1921278"><ele>257.5</ele><time>2026-04-26T11:34:12.758Z</time></trkpt><trkpt lat="42.2366407" lon="14.191947"><ele>257.25</ele><time>2026-04-26T11:34:13.756Z</time></trkpt><trkpt lat="42.2367128" lon="14.1917728"><ele>257.0</ele><time>2026-04-26T11:34:14.755Z</time></trkpt><trkpt lat="42.236796" lon="14.1916077"><ele>255.75</ele><time>2026-04-26T11:34:15.755Z</time></trkpt><trkpt lat="42.23689" lon="14.1914552"><ele>254.5</ele><time>2026-04-26T11:34:16.753Z</time></trkpt><trkpt lat="42.2369855" lon="14.1913198"><ele>253.25</ele><time>2026-04-26T11:34:17.758Z</time></trkpt><trkpt lat="42.237064" lon="14.191188"><ele>252.0</ele><time>2026-04-26T11:34:18.757Z</time></trkpt><trkpt lat="42.2371193" lon="14.1910425"><ele>252.0</ele><time>2026-04-26T11:34:19.758Z</time></trkpt><trkpt lat="42.2371703" lon="14.1908797"><ele>252.0</ele><time>2026-04-26T11:34:20.758Z</time></trkpt><trkpt lat="42.237228" lon="14.1907062"><ele>252.0</ele><time>2026-04-26T11:34:21.759Z</time></trkpt><trkpt lat="42.2372952" lon="14.1905403"><ele>252.0</ele><time>2026-04-26T11:34:22.757Z</time></trkpt><trkpt lat="42.2373768" lon="14.1903987"><ele>252.25</ele><time>2026-04-26T11:34:23.759Z</time></trkpt><trkpt lat="42.2374802" lon="14.1902747"><ele>252.5</ele><time>2026-04-26T11:34:24.757Z</time></trkpt><trkpt lat="42.2375893" lon="14.1901593"><ele>252.75</ele><time>2026-04-26T11:34:25.758Z</time></trkpt><trkpt lat="42.2376865" lon="14.1900313"><ele>253.0</ele><time>2026-04-26T11:34:26.756Z</time></trkpt><trkpt lat="42.2377715" lon="14.18988"><ele>251.75</ele><time>2026-04-26T11:34:27.756Z</time></trkpt><trkpt lat="42.2378385" lon="14.1897222"><ele>250.5</ele><time>2026-04-26T11:34:28.757Z</time></trkpt><trkpt lat="42.2378803" lon="14.1895557"><ele>249.25</ele><time>2026-04-26T11:34:29.755Z</time></trkpt><trkpt lat="42.237912" lon="14.1893733"><ele>248.0</ele><time>2026-04-26T11:34:30.757Z</time></trkpt><trkpt lat="42.2379305" lon="14.1891855"><ele>247.25</ele><time>2026-04-26T11:34:31.755Z</time></trkpt><trkpt lat="42.2379342" lon="14.1890045"><ele>246.5</ele><time>2026-04-26T11:34:32.755Z</time></trkpt><trkpt lat="42.2379318" lon="14.1888347"><ele>245.75</ele><time>2026-04-26T11:34:33.757Z</time></trkpt><trkpt lat="42.2379363" lon="14.188679"><ele>245.0</ele><time>2026-04-26T11:34:34.756Z</time></trkpt><trkpt lat="42.2379677" lon="14.1885317"><ele>245.0</ele><time>2026-04-26T11:34:35.758Z</time></trkpt><trkpt lat="42.238026" lon="14.1883878"><ele>245.0</ele><time>2026-04-26T11:34:36.758Z</time></trkpt><trkpt lat="42.2381058" lon="14.188258"><ele>245.0</ele><time>2026-04-26T11:34:37.76Z</time></trkpt><trkpt lat="42.2381948" lon="14.1881442"><ele>245.0</ele><time>2026-04-26T11:34:38.753Z</time></trkpt><trkpt lat="42.2382687" lon="14.1880467"><ele>244.66666666666669</ele><time>2026-04-26T11:34:39.754Z</time></trkpt><trkpt lat="42.2383195" lon="14.1879623"><ele>244.33333333333334</ele><time>2026-04-26T11:34:40.756Z</time></trkpt><trkpt lat="42.2383462" lon="14.1878692"><ele>244.0</ele><time>2026-04-26T11:34:41.758Z</time></trkpt><trkpt lat="42.2383552" lon="14.1877507"><ele>243.66666666666669</ele><time>2026-04-26T11:34:42.755Z</time></trkpt><trkpt lat="42.2383608" lon="14.187617"><ele>243.33333333333334</ele><time>2026-04-26T11:34:43.756Z</time></trkpt><trkpt lat="42.238374" lon="14.1875068"><ele>243.0</ele><time>2026-04-26T11:34:44.756Z</time></trkpt><trkpt lat="42.238406" lon="14.1874267"><ele>243.0</ele><time>2026-04-26T11:34:45.756Z</time></trkpt><trkpt lat="42.2384613" lon="14.187367"><ele>243.0</ele><time>2026-04-26T11:34:46.756Z</time></trkpt><trkpt lat="42.2385375" lon="14.1873193"><ele>243.0</ele><time>2026-04-26T11:34:47.758Z</time></trkpt><trkpt lat="42.2386348" lon="14.1872808"><ele>243.0</ele><time>2026-04-26T11:34:48.757Z</time></trkpt><trkpt lat="42.2387435" lon="14.1872502"><ele>243.0</ele><time>2026-04-26T11:34:49.756Z</time></trkpt><trkpt lat="42.2388422" lon="14.1872152"><ele>243.8</ele><time>2026-04-26T11:34:50.756Z</time></trkpt><trkpt lat="42.238925" lon="14.1871535"><ele>244.60000000000002</ele><time>2026-04-26T11:34:51.756Z</time></trkpt><trkpt lat="42.2389967" lon="14.1870567"><ele>245.39999999999998</ele><time>2026-04-26T11:34:52.758Z</time></trkpt><trkpt lat="42.239061" lon="14.1869285"><ele>246.2</ele><time>2026-04-26T11:34:53.756Z</time></trkpt><trkpt lat="42.239124" lon="14.1867777"><ele>247.0</ele><time>2026-04-26T11:34:54.757Z</time></trkpt><trkpt lat="42.2391937" lon="14.1866283"><ele>248.6</ele><time>2026-04-26T11:34:55.756Z</time></trkpt><trkpt lat="42.2392497" lon="14.1864882"><ele>250.2</ele><time>2026-04-26T11:34:56.757Z</time></trkpt><trkpt lat="42.2393007" lon="14.186367"><ele>251.8</ele><time>2026-04-26T11:34:57.758Z</time></trkpt><trkpt lat="42.2393577" lon="14.1862772"><ele>253.4</ele><time>2026-04-26T11:34:58.756Z</time></trkpt><trkpt lat="42.239426" lon="14.1861912"><ele>255.0</ele><time>2026-04-26T11:34:59.754Z</time></trkpt><trkpt lat="42.239504" lon="14.1861013"><ele>255.0</ele><time>2026-04-26T11:35:00.756Z</time></trkpt><trkpt lat="42.2395868" lon="14.1860095"><ele>255.0</ele><time>2026-04-26T11:35:01.757Z</time></trkpt><trkpt lat="42.239669" lon="14.1859057"><ele>255.0</ele><time>2026-04-26T11:35:02.755Z</time></trkpt><trkpt lat="42.239746" lon="14.1857892"><ele>255.0</ele><time>2026-04-26T11:35:03.755Z</time></trkpt><trkpt lat="42.2398143" lon="14.1856632"><ele>254.6</ele><time>2026-04-26T11:35:04.755Z</time></trkpt><trkpt lat="42.2398697" lon="14.1855335"><ele>254.2</ele><time>2026-04-26T11:35:05.754Z</time></trkpt><trkpt lat="42.2399233" lon="14.1854037"><ele>253.8</ele><time>2026-04-26T11:35:06.758Z</time></trkpt><trkpt lat="42.2399893" lon="14.1852855"><ele>253.4</ele><time>2026-04-26T11:35:07.759Z</time></trkpt><trkpt lat="42.2400712" lon="14.1851788"><ele>253.0</ele><time>2026-04-26T11:35:08.759Z</time></trkpt><trkpt lat="42.24016" lon="14.1850727"><ele>253.0</ele><time>2026-04-26T11:35:09.756Z</time></trkpt><trkpt lat="42.2402472" lon="14.1849727"><ele>253.0</ele><time>2026-04-26T11:35:10.758Z</time></trkpt><trkpt lat="42.2403213" lon="14.184885"><ele>253.0</ele><time>2026-04-26T11:35:11.758Z</time></trkpt><trkpt lat="42.2403843" lon="14.1848083"><ele>253.0</ele><time>2026-04-26T11:35:12.761Z</time></trkpt><trkpt lat="42.2404388" lon="14.1847445"><ele>253.0</ele><time>2026-04-26T11:35:13.76Z</time></trkpt><trkpt lat="42.2405322" lon="14.1846762"><ele>253.0</ele><time>2026-04-26T11:35:15.759Z</time></trkpt><trkpt lat="42.2406462" lon="14.1847022"><ele>253.0</ele><time>2026-04-26T11:35:17.762Z</time></trkpt><trkpt lat="42.240718" lon="14.1847468"><ele>253.0</ele><time>2026-04-26T11:35:18.757Z</time></trkpt><trkpt lat="42.240805" lon="14.184802"><ele>253.0</ele><time>2026-04-26T11:35:19.76Z</time></trkpt><trkpt lat="42.2409037" lon="14.1848665"><ele>253.0</ele><time>2026-04-26T11:35:20.76Z</time></trkpt><trkpt lat="42.241014" lon="14.184936"><ele>252.2</ele><time>2026-04-26T11:35:21.759Z</time></trkpt><trkpt lat="42.2411258" lon="14.1850058"><ele>251.4</ele><time>2026-04-26T11:35:22.758Z</time></trkpt><trkpt lat="42.2412315" lon="14.1850715"><ele>250.59999999999997</ele><time>2026-04-26T11:35:23.759Z</time></trkpt><trkpt lat="42.2413353" lon="14.18512"><ele>249.79999999999998</ele><time>2026-04-26T11:35:24.758Z</time></trkpt><trkpt lat="42.241432" lon="14.185136"><ele>249.0</ele><time>2026-04-26T11:35:25.775Z</time></trkpt><trkpt lat="42.2415217" lon="14.185112"><ele>248.39999999999998</ele><time>2026-04-26T11:35:26.758Z</time></trkpt><trkpt lat="42.2416067" lon="14.1850497"><ele>247.79999999999998</ele><time>2026-04-26T11:35:27.757Z</time></trkpt><trkpt lat="42.2416845" lon="14.1849662"><ele>247.20000000000002</ele><time>2026-04-26T11:35:28.756Z</time></trkpt><trkpt lat="42.2417602" lon="14.1848672"><ele>246.60000000000002</ele><time>2026-04-26T11:35:29.755Z</time></trkpt><trkpt lat="42.2418418" lon="14.1847682"><ele>246.0</ele><time>2026-04-26T11:35:30.756Z</time></trkpt><trkpt lat="42.2419112" lon="14.1846618"><ele>246.0</ele><time>2026-04-26T11:35:31.758Z</time></trkpt><trkpt lat="42.241962" lon="14.1845395"><ele>246.00000000000003</ele><time>2026-04-26T11:35:32.757Z</time></trkpt><trkpt lat="42.2419948" lon="14.1843958"><ele>246.00000000000003</ele><time>2026-04-26T11:35:33.758Z</time></trkpt><trkpt lat="42.242012" lon="14.1842443"><ele>246.0</ele><time>2026-04-26T11:35:34.758Z</time></trkpt><trkpt lat="42.2420203" lon="14.1841033"><ele>246.0</ele><time>2026-04-26T11:35:35.758Z</time></trkpt><trkpt lat="42.24204" lon="14.1839782"><ele>246.0</ele><time>2026-04-26T11:35:36.755Z</time></trkpt><trkpt lat="42.2420803" lon="14.1838562"><ele>246.00000000000003</ele><time>2026-04-26T11:35:37.757Z</time></trkpt><trkpt lat="42.2421382" lon="14.1837307"><ele>246.00000000000003</ele><time>2026-04-26T11:35:38.761Z</time></trkpt><trkpt lat="42.2422048" lon="14.1836008"><ele>246.0</ele><time>2026-04-26T11:35:39.759Z</time></trkpt><trkpt lat="42.2422775" lon="14.1834763"><ele>246.0</ele><time>2026-04-26T11:35:40.758Z</time></trkpt><trkpt lat="42.2423588" lon="14.1833895"><ele>246.25</ele><time>2026-04-26T11:35:41.756Z</time></trkpt><trkpt lat="42.242458" lon="14.1833333"><ele>246.5</ele><time>2026-04-26T11:35:42.756Z</time></trkpt><trkpt lat="42.24257" lon="14.1833083"><ele>246.75</ele><time>2026-04-26T11:35:43.756Z</time></trkpt><trkpt lat="42.2426888" lon="14.1833143"><ele>247.0</ele><time>2026-04-26T11:35:44.756Z</time></trkpt><trkpt lat="42.242811" lon="14.1833422"><ele>247.0</ele><time>2026-04-26T11:35:45.754Z</time></trkpt><trkpt lat="42.242929" lon="14.1833693"><ele>247.0</ele><time>2026-04-26T11:35:46.755Z</time></trkpt><trkpt lat="42.2430287" lon="14.1833885"><ele>247.0</ele><time>2026-04-26T11:35:47.756Z</time></trkpt><trkpt lat="42.2431087" lon="14.1834068"><ele>247.0</ele><time>2026-04-26T11:35:48.757Z</time></trkpt><trkpt lat="42.243172" lon="14.1834152"><ele>247.0</ele><time>2026-04-26T11:35:49.757Z</time></trkpt><trkpt lat="42.2432655" lon="14.1833647"><ele>246.99999999999997</ele><time>2026-04-26T11:35:51.758Z</time></trkpt><trkpt lat="42.243319" lon="14.1832907"><ele>247.0</ele><time>2026-04-26T11:35:53.755Z</time></trkpt><trkpt lat="42.2433517" lon="14.1832"><ele>247.0</ele><time>2026-04-26T11:36:10.759Z</time></trkpt><trkpt lat="42.2432718" lon="14.1831357"><ele>247.0</ele><time>2026-04-26T11:36:12.757Z</time></trkpt><trkpt lat="42.243205" lon="14.1830872"><ele>246.99999999999997</ele><time>2026-04-26T11:36:13.756Z</time></trkpt><trkpt lat="42.2431203" lon="14.1830372"><ele>247.0</ele><time>2026-04-26T11:36:14.756Z</time></trkpt><trkpt lat="42.2430213" lon="14.1829898"><ele>247.66666666666666</ele><time>2026-04-26T11:36:15.757Z</time></trkpt><trkpt lat="42.2428013" lon="14.1828763"><ele>248.33333333333331</ele><time>2026-04-26T11:36:17.755Z</time></trkpt><trkpt lat="42.2426948" lon="14.182811"><ele>249.0</ele><time>2026-04-26T11:36:18.758Z</time></trkpt><trkpt lat="42.2425988" lon="14.1827342"><ele>249.0</ele><time>2026-04-26T11:36:19.756Z</time></trkpt><trkpt lat="42.2424327" lon="14.1825542"><ele>249.0</ele><time>2026-04-26T11:36:21.76Z</time></trkpt><trkpt lat="42.2423665" lon="14.1824737"><ele>249.0</ele><time>2026-04-26T11:36:22.756Z</time></trkpt><trkpt lat="42.2423232" lon="14.1823745"><ele>249.0</ele><time>2026-04-26T11:36:24.757Z</time></trkpt><trkpt lat="42.2423757" lon="14.1823027"><ele>249.39999999999998</ele><time>2026-04-26T11:36:26.757Z</time></trkpt><trkpt lat="42.2424925" lon="14.1822478"><ele>249.79999999999998</ele><time>2026-04-26T11:36:28.759Z</time></trkpt><trkpt lat="42.2425633" lon="14.1822288"><ele>250.20000000000002</ele><time>2026-04-26T11:36:29.757Z</time></trkpt><trkpt lat="42.2426268" lon="14.1822053"><ele>250.60000000000002</ele><time>2026-04-26T11:36:30.76Z</time></trkpt><trkpt lat="42.2427912" lon="14.1821037"><ele>251.0</ele><time>2026-04-26T11:36:33.758Z</time></trkpt><trkpt lat="42.2428585" lon="14.1820577"><ele>251.0</ele><time>2026-04-26T11:36:34.757Z</time></trkpt><trkpt lat="42.2429368" lon="14.1820072"><ele>251.00000000000003</ele><time>2026-04-26T11:36:35.763Z</time></trkpt><trkpt lat="42.2430233" lon="14.1819622"><ele>251.00000000000003</ele><time>2026-04-26T11:36:36.758Z</time></trkpt><trkpt lat="42.2431148" lon="14.181921"><ele>251.0</ele><time>2026-04-26T11:36:37.76Z</time></trkpt><trkpt lat="42.243213" lon="14.1818728"><ele>251.0</ele><time>2026-04-26T11:36:38.758Z</time></trkpt><trkpt lat="42.243321" lon="14.181812"><ele>249.75</ele><time>2026-04-26T11:36:39.758Z</time></trkpt><trkpt lat="42.243437" lon="14.181742"><ele>248.5</ele><time>2026-04-26T11:36:40.756Z</time></trkpt><trkpt lat="42.243561" lon="14.1816715"><ele>247.25</ele><time>2026-04-26T11:36:41.756Z</time></trkpt><trkpt lat="42.2436958" lon="14.1816012"><ele>246.0</ele><time>2026-04-26T11:36:42.758Z</time></trkpt><trkpt lat="42.2438303" lon="14.1815315"><ele>246.5</ele><time>2026-04-26T11:36:43.757Z</time></trkpt><trkpt lat="42.2439562" lon="14.1814625"><ele>247.0</ele><time>2026-04-26T11:36:44.761Z</time></trkpt><trkpt lat="42.2440815" lon="14.1813938"><ele>247.5</ele><time>2026-04-26T11:36:45.761Z</time></trkpt><trkpt lat="42.2442057" lon="14.181321"><ele>248.0</ele><time>2026-04-26T11:36:46.759Z</time></trkpt><trkpt lat="42.2443203" lon="14.1812507"><ele>246.60000000000002</ele><time>2026-04-26T11:36:47.759Z</time></trkpt><trkpt lat="42.2444248" lon="14.1811847"><ele>245.20000000000002</ele><time>2026-04-26T11:36:48.759Z</time></trkpt><trkpt lat="42.2445193" lon="14.1811235"><ele>243.8</ele><time>2026-04-26T11:36:49.761Z</time></trkpt><trkpt lat="42.2446068" lon="14.1810718"><ele>242.4</ele><time>2026-04-26T11:36:50.758Z</time></trkpt><trkpt lat="42.2446912" lon="14.1810333"><ele>241.0</ele><time>2026-04-26T11:36:51.758Z</time></trkpt><trkpt lat="42.2447727" lon="14.1810147"><ele>240.49999999999997</ele><time>2026-04-26T11:36:52.759Z</time></trkpt><trkpt lat="42.2448538" lon="14.1810195"><ele>240.0</ele><time>2026-04-26T11:36:53.757Z</time></trkpt><trkpt lat="42.244934" lon="14.181052"><ele>239.5</ele><time>2026-04-26T11:36:54.758Z</time></trkpt><trkpt lat="42.2450167" lon="14.1811015"><ele>239.0</ele><time>2026-04-26T11:36:55.757Z</time></trkpt><trkpt lat="42.245097" lon="14.1811638"><ele>238.49999999999997</ele><time>2026-04-26T11:36:56.759Z</time></trkpt><trkpt lat="42.2451818" lon="14.1812382"><ele>238.0</ele><time>2026-04-26T11:36:57.758Z</time></trkpt><trkpt lat="42.2452777" lon="14.1813182"><ele>238.0</ele><time>2026-04-26T11:36:58.757Z</time></trkpt><trkpt lat="42.245385" lon="14.181393"><ele>238.0</ele><time>2026-04-26T11:36:59.757Z</time></trkpt><trkpt lat="42.2455022" lon="14.1814538"><ele>238.0</ele><time>2026-04-26T11:37:00.762Z</time></trkpt><trkpt lat="42.2456155" lon="14.1815025"><ele>238.0</ele><time>2026-04-26T11:37:01.763Z</time></trkpt><trkpt lat="42.2457188" lon="14.1815573"><ele>237.8</ele><time>2026-04-26T11:37:02.76Z</time></trkpt><trkpt lat="42.2458162" lon="14.1816288"><ele>237.60000000000002</ele><time>2026-04-26T11:37:03.76Z</time></trkpt><trkpt lat="42.2459093" lon="14.1817097"><ele>237.39999999999998</ele><time>2026-04-26T11:37:04.759Z</time></trkpt><trkpt lat="42.2459975" lon="14.1817795"><ele>237.2</ele><time>2026-04-26T11:37:05.755Z</time></trkpt><trkpt lat="42.2460943" lon="14.1818355"><ele>237.0</ele><time>2026-04-26T11:37:06.76Z</time></trkpt><trkpt lat="42.2462048" lon="14.181871"><ele>237.0</ele><time>2026-04-26T11:37:07.756Z</time></trkpt><trkpt lat="42.2463223" lon="14.1818847"><ele>237.0</ele><time>2026-04-26T11:37:08.756Z</time></trkpt><trkpt lat="42.2464395" lon="14.1818843"><ele>237.0</ele><time>2026-04-26T11:37:09.758Z</time></trkpt><trkpt lat="42.246553" lon="14.1818837"><ele>237.0</ele><time>2026-04-26T11:37:10.757Z</time></trkpt><trkpt lat="42.2466673" lon="14.1818905"><ele>235.75</ele><time>2026-04-26T11:37:11.757Z</time></trkpt><trkpt lat="42.2467862" lon="14.1819142"><ele>234.5</ele><time>2026-04-26T11:37:12.759Z</time></trkpt><trkpt lat="42.2469063" lon="14.1819623"><ele>233.25</ele><time>2026-04-26T11:37:13.759Z</time></trkpt><trkpt lat="42.2470167" lon="14.182025"><ele>232.0</ele><time>2026-04-26T11:37:14.758Z</time></trkpt><trkpt lat="42.2471112" lon="14.1820943"><ele>231.99999999999997</ele><time>2026-04-26T11:37:15.756Z</time></trkpt><trkpt lat="42.2471887" lon="14.1821678"><ele>232.0</ele><time>2026-04-26T11:37:16.756Z</time></trkpt><trkpt lat="42.2472492" lon="14.1822452"><ele>232.0</ele><time>2026-04-26T11:37:17.757Z</time></trkpt><trkpt lat="42.2473023" lon="14.1823345"><ele>232.0</ele><time>2026-04-26T11:37:18.758Z</time></trkpt><trkpt lat="42.2473503" lon="14.1824362"><ele>231.99999999999997</ele><time>2026-04-26T11:37:19.758Z</time></trkpt><trkpt lat="42.2473852" lon="14.1825397"><ele>232.0</ele><time>2026-04-26T11:37:20.756Z</time></trkpt><trkpt lat="42.2474063" lon="14.1826292"><ele>231.99999999999997</ele><time>2026-04-26T11:37:21.76Z</time></trkpt><trkpt lat="42.2474777" lon="14.1827682"><ele>232.0</ele><time>2026-04-26T11:37:23.758Z</time></trkpt><trkpt lat="42.2475348" lon="14.182832"><ele>232.0</ele><time>2026-04-26T11:37:24.759Z</time></trkpt><trkpt lat="42.2475997" lon="14.1828943"><ele>232.0</ele><time>2026-04-26T11:37:25.758Z</time></trkpt><trkpt lat="42.2476708" lon="14.1829495"><ele>231.99999999999997</ele><time>2026-04-26T11:37:26.758Z</time></trkpt><trkpt lat="42.2477462" lon="14.1830005"><ele>232.0</ele><time>2026-04-26T11:37:27.756Z</time></trkpt><trkpt lat="42.247819" lon="14.1830557"><ele>231.99999999999997</ele><time>2026-04-26T11:37:28.759Z</time></trkpt><trkpt lat="42.2478803" lon="14.1831272"><ele>232.0</ele><time>2026-04-26T11:37:29.755Z</time></trkpt><trkpt lat="42.2479308" lon="14.1832188"><ele>232.0</ele><time>2026-04-26T11:37:30.756Z</time></trkpt><trkpt lat="42.2479782" lon="14.183313"><ele>232.0</ele><time>2026-04-26T11:37:31.756Z</time></trkpt><trkpt lat="42.2480152" lon="14.1834098"><ele>231.99999999999997</ele><time>2026-04-26T11:37:32.755Z</time></trkpt><trkpt lat="42.2480398" lon="14.18351"><ele>232.0</ele><time>2026-04-26T11:37:33.758Z</time></trkpt><trkpt lat="42.2480525" lon="14.1836102"><ele>232.39999999999998</ele><time>2026-04-26T11:37:34.761Z</time></trkpt><trkpt lat="42.2480533" lon="14.183702"><ele>232.79999999999998</ele><time>2026-04-26T11:37:35.758Z</time></trkpt><trkpt lat="42.2480367" lon="14.1838503"><ele>233.2</ele><time>2026-04-26T11:37:37.761Z</time></trkpt><trkpt lat="42.2481097" lon="14.1839298"><ele>233.6</ele><time>2026-04-26T11:38:46.757Z</time></trkpt><trkpt lat="42.2481682" lon="14.1838222"><ele>234.0</ele><time>2026-04-26T11:38:48.762Z</time></trkpt><trkpt lat="42.2482502" lon="14.1836223"><ele>232.39999999999998</ele><time>2026-04-26T11:38:50.76Z</time></trkpt><trkpt lat="42.2483085" lon="14.1835032"><ele>230.79999999999998</ele><time>2026-04-26T11:38:51.762Z</time></trkpt><trkpt lat="42.2483762" lon="14.1833957"><ele>229.20000000000002</ele><time>2026-04-26T11:38:52.76Z</time></trkpt><trkpt lat="42.2484627" lon="14.183303"><ele>227.60000000000002</ele><time>2026-04-26T11:38:53.76Z</time></trkpt><trkpt lat="42.248568" lon="14.1832372"><ele>226.0</ele><time>2026-04-26T11:38:54.759Z</time></trkpt><trkpt lat="42.2486868" lon="14.1832007"><ele>226.0</ele><time>2026-04-26T11:38:55.768Z</time></trkpt><trkpt lat="42.2488027" lon="14.1831963"><ele>226.00000000000003</ele><time>2026-04-26T11:38:56.759Z</time></trkpt><trkpt lat="42.2489077" lon="14.1832308"><ele>226.00000000000003</ele><time>2026-04-26T11:38:57.76Z</time></trkpt><trkpt lat="42.2489932" lon="14.1832977"><ele>226.0</ele><time>2026-04-26T11:38:58.761Z</time></trkpt><trkpt lat="42.2490593" lon="14.1833773"><ele>226.0</ele><time>2026-04-26T11:38:59.761Z</time></trkpt><trkpt lat="42.2491137" lon="14.1834407"><ele>224.60000000000002</ele><time>2026-04-26T11:39:00.763Z</time></trkpt><trkpt lat="42.2492167" lon="14.1834708"><ele>223.20000000000002</ele><time>2026-04-26T11:39:02.763Z</time></trkpt><trkpt lat="42.2492775" lon="14.1834363"><ele>221.79999999999998</ele><time>2026-04-26T11:39:03.76Z</time></trkpt><trkpt lat="42.2493437" lon="14.1833743"><ele>220.39999999999998</ele><time>2026-04-26T11:39:04.762Z</time></trkpt><trkpt lat="42.2494198" lon="14.1832948"><ele>219.0</ele><time>2026-04-26T11:39:05.759Z</time></trkpt><trkpt lat="42.249507" lon="14.1831997"><ele>218.75</ele><time>2026-04-26T11:39:06.763Z</time></trkpt><trkpt lat="42.249597" lon="14.1830833"><ele>218.5</ele><time>2026-04-26T11:39:07.76Z</time></trkpt><trkpt lat="42.2496825" lon="14.1829477"><ele>218.25</ele><time>2026-04-26T11:39:08.759Z</time></trkpt><trkpt lat="42.2497662" lon="14.1828027"><ele>218.0</ele><time>2026-04-26T11:39:09.765Z</time></trkpt><trkpt lat="42.2498492" lon="14.1826513"><ele>218.0</ele><time>2026-04-26T11:39:10.758Z</time></trkpt><trkpt lat="42.2499315" lon="14.1824957"><ele>218.0</ele><time>2026-04-26T11:39:11.759Z</time></trkpt><trkpt lat="42.2500172" lon="14.1823362"><ele>218.0</ele><time>2026-04-26T11:39:12.759Z</time></trkpt><trkpt lat="42.250105" lon="14.1821745"><ele>218.0</ele><time>2026-04-26T11:39:13.761Z</time></trkpt><trkpt lat="42.2501972" lon="14.1820192"><ele>217.60000000000002</ele><time>2026-04-26T11:39:14.757Z</time></trkpt><trkpt lat="42.250284" lon="14.1818917"><ele>217.20000000000002</ele><time>2026-04-26T11:39:15.757Z</time></trkpt><trkpt lat="42.2503642" lon="14.1818007"><ele>216.8</ele><time>2026-04-26T11:39:16.758Z</time></trkpt><trkpt lat="42.2504448" lon="14.181733"><ele>216.4</ele><time>2026-04-26T11:39:17.758Z</time></trkpt><trkpt lat="42.2505363" lon="14.1816837"><ele>216.0</ele><time>2026-04-26T11:39:18.76Z</time></trkpt><trkpt lat="42.2506343" lon="14.1816373"><ele>216.0</ele><time>2026-04-26T11:39:19.76Z</time></trkpt><trkpt lat="42.25074" lon="14.181589"><ele>216.0</ele><time>2026-04-26T11:39:20.759Z</time></trkpt><trkpt lat="42.2508517" lon="14.1815352"><ele>216.0</ele><time>2026-04-26T11:39:21.76Z</time></trkpt><trkpt lat="42.250965" lon="14.1814787"><ele>216.0</ele><time>2026-04-26T11:39:22.758Z</time></trkpt><trkpt lat="42.2510785" lon="14.1814228"><ele>217.20000000000002</ele><time>2026-04-26T11:39:23.761Z</time></trkpt><trkpt lat="42.2511867" lon="14.1813687"><ele>218.40000000000003</ele><time>2026-04-26T11:39:24.76Z</time></trkpt><trkpt lat="42.2512918" lon="14.1813175"><ele>219.6</ele><time>2026-04-26T11:39:25.759Z</time></trkpt><trkpt lat="42.2513887" lon="14.1812722"><ele>220.8</ele><time>2026-04-26T11:39:26.758Z</time></trkpt><trkpt lat="42.2514718" lon="14.181246"><ele>222.0</ele><time>2026-04-26T11:39:27.759Z</time></trkpt><trkpt lat="42.2515487" lon="14.1812488"><ele>222.5</ele><time>2026-04-26T11:39:28.759Z</time></trkpt><trkpt lat="42.2516373" lon="14.1812898"><ele>223.0</ele><time>2026-04-26T11:39:29.76Z</time></trkpt><trkpt lat="42.2517368" lon="14.1813548"><ele>223.5</ele><time>2026-04-26T11:39:30.76Z</time></trkpt><trkpt lat="42.251845" lon="14.1814478"><ele>224.0</ele><time>2026-04-26T11:39:31.758Z</time></trkpt><trkpt lat="42.2519492" lon="14.1815632"><ele>221.5</ele><time>2026-04-26T11:39:32.756Z</time></trkpt><trkpt lat="42.2520518" lon="14.1816722"><ele>219.0</ele><time>2026-04-26T11:39:33.758Z</time></trkpt><trkpt lat="42.2521553" lon="14.1817618"><ele>216.5</ele><time>2026-04-26T11:39:34.757Z</time></trkpt><trkpt lat="42.252265" lon="14.1818328"><ele>214.0</ele><time>2026-04-26T11:39:35.758Z</time></trkpt><trkpt lat="42.2523898" lon="14.181874"><ele>213.66666666666666</ele><time>2026-04-26T11:39:36.76Z</time></trkpt><trkpt lat="42.2525335" lon="14.1818808"><ele>213.33333333333331</ele><time>2026-04-26T11:39:37.76Z</time></trkpt><trkpt lat="42.2526942" lon="14.1818587"><ele>213.0</ele><time>2026-04-26T11:39:38.758Z</time></trkpt><trkpt lat="42.25287" lon="14.1818223"><ele>213.0</ele><time>2026-04-26T11:39:39.762Z</time></trkpt><trkpt lat="42.2530553" lon="14.1817853"><ele>213.0</ele><time>2026-04-26T11:39:40.757Z</time></trkpt><trkpt lat="42.2532348" lon="14.181761"><ele>213.0</ele><time>2026-04-26T11:39:41.758Z</time></trkpt><trkpt lat="42.2533943" lon="14.1817568"><ele>215.0</ele><time>2026-04-26T11:39:42.758Z</time></trkpt><trkpt lat="42.2535387" lon="14.1817938"><ele>217.0</ele><time>2026-04-26T11:39:43.759Z</time></trkpt><trkpt lat="42.2536718" lon="14.1818752"><ele>219.0</ele><time>2026-04-26T11:39:44.759Z</time></trkpt><trkpt lat="42.253808" lon="14.1819837"><ele>219.0</ele><time>2026-04-26T11:39:45.763Z</time></trkpt><trkpt lat="42.2539517" lon="14.1820983"><ele>219.0</ele><time>2026-04-26T11:39:46.759Z</time></trkpt><trkpt lat="42.2541012" lon="14.1822168"><ele>219.0</ele><time>2026-04-26T11:39:47.761Z</time></trkpt><trkpt lat="42.2542528" lon="14.1823375"><ele>219.33333333333331</ele><time>2026-04-26T11:39:48.761Z</time></trkpt><trkpt lat="42.2544028" lon="14.182458"><ele>219.66666666666666</ele><time>2026-04-26T11:39:49.761Z</time></trkpt><trkpt lat="42.2545458" lon="14.1825802"><ele>220.0</ele><time>2026-04-26T11:39:50.761Z</time></trkpt><trkpt lat="42.2546705" lon="14.182702"><ele>220.0</ele><time>2026-04-26T11:39:51.759Z</time></trkpt><trkpt lat="42.2547792" lon="14.182836"><ele>220.0</ele><time>2026-04-26T11:39:52.758Z</time></trkpt><trkpt lat="42.2548852" lon="14.182985"><ele>220.0</ele><time>2026-04-26T11:39:53.76Z</time></trkpt><trkpt lat="42.2549977" lon="14.1831432"><ele>220.33333333333331</ele><time>2026-04-26T11:39:54.76Z</time></trkpt><trkpt lat="42.2551168" lon="14.183313"><ele>220.66666666666669</ele><time>2026-04-26T11:39:55.76Z</time></trkpt><trkpt lat="42.2552435" lon="14.1834863"><ele>221.0</ele><time>2026-04-26T11:39:56.758Z</time></trkpt><trkpt lat="42.2553768" lon="14.1836605"><ele>221.0</ele><time>2026-04-26T11:39:57.757Z</time></trkpt><trkpt lat="42.2555103" lon="14.1838417"><ele>221.0</ele><time>2026-04-26T11:39:58.757Z</time></trkpt><trkpt lat="42.2556333" lon="14.1840335"><ele>221.0</ele><time>2026-04-26T11:39:59.757Z</time></trkpt><trkpt lat="42.2557423" lon="14.1842127"><ele>221.0</ele><time>2026-04-26T11:40:00.759Z</time></trkpt><trkpt lat="42.2558358" lon="14.1843565"><ele>221.0</ele><time>2026-04-26T11:40:01.759Z</time></trkpt><trkpt lat="42.2559298" lon="14.18447"><ele>221.0</ele><time>2026-04-26T11:40:02.759Z</time></trkpt><trkpt lat="42.2560385" lon="14.1845685"><ele>221.0</ele><time>2026-04-26T11:40:03.759Z</time></trkpt><trkpt lat="42.2561678" lon="14.1846637"><ele>221.0</ele><time>2026-04-26T11:40:04.758Z</time></trkpt><trkpt lat="42.256307" lon="14.1847707"><ele>221.0</ele><time>2026-04-26T11:40:05.775Z</time></trkpt><trkpt lat="42.2564368" lon="14.1848782"><ele>221.0</ele><time>2026-04-26T11:40:06.76Z</time></trkpt><trkpt lat="42.2565347" lon="14.1849708"><ele>221.0</ele><time>2026-04-26T11:40:07.761Z</time></trkpt><trkpt lat="42.2566087" lon="14.1850323"><ele>221.0</ele><time>2026-04-26T11:40:08.76Z</time></trkpt><trkpt lat="42.2567075" lon="14.1850268"><ele>221.00000000000003</ele><time>2026-04-26T11:40:10.758Z</time></trkpt><trkpt lat="42.2567757" lon="14.1849097"><ele>221.00000000000003</ele><time>2026-04-26T11:40:12.759Z</time></trkpt><trkpt lat="42.256826" lon="14.1848173"><ele>221.0</ele><time>2026-04-26T11:40:13.76Z</time></trkpt><trkpt lat="42.2568975" lon="14.1847172"><ele>221.0</ele><time>2026-04-26T11:40:14.758Z</time></trkpt><trkpt lat="42.2569915" lon="14.184621"><ele>222.5</ele><time>2026-04-26T11:40:15.758Z</time></trkpt><trkpt lat="42.2571037" lon="14.1845283"><ele>224.0</ele><time>2026-04-26T11:40:16.76Z</time></trkpt><trkpt lat="42.257223" lon="14.184428"><ele>225.5</ele><time>2026-04-26T11:40:17.758Z</time></trkpt><trkpt lat="42.2573427" lon="14.184316"><ele>227.0</ele><time>2026-04-26T11:40:18.759Z</time></trkpt><trkpt lat="42.2574438" lon="14.1842027"><ele>227.39999999999998</ele><time>2026-04-26T11:40:19.758Z</time></trkpt><trkpt lat="42.2575142" lon="14.1841005"><ele>227.79999999999998</ele><time>2026-04-26T11:40:20.756Z</time></trkpt><trkpt lat="42.257548" lon="14.1839977"><ele>228.2</ele><time>2026-04-26T11:40:21.755Z</time></trkpt><trkpt lat="42.2575698" lon="14.1838728"><ele>228.6</ele><time>2026-04-26T11:40:22.756Z</time></trkpt><trkpt lat="42.2575767" lon="14.1837315"><ele>229.0</ele><time>2026-04-26T11:40:23.757Z</time></trkpt><trkpt lat="42.2575613" lon="14.1835767"><ele>230.5</ele><time>2026-04-26T11:40:24.753Z</time></trkpt><trkpt lat="42.257534" lon="14.1834203"><ele>232.0</ele><time>2026-04-26T11:40:25.757Z</time></trkpt><trkpt lat="42.2574985" lon="14.1832648"><ele>233.5</ele><time>2026-04-26T11:40:26.758Z</time></trkpt><trkpt lat="42.2574713" lon="14.1831147"><ele>235.0</ele><time>2026-04-26T11:40:27.76Z</time></trkpt><trkpt lat="42.2574462" lon="14.182987"><ele>236.83333333333331</ele><time>2026-04-26T11:40:28.758Z</time></trkpt><trkpt lat="42.2574068" lon="14.1828863"><ele>238.66666666666666</ele><time>2026-04-26T11:40:29.759Z</time></trkpt><trkpt lat="42.2573428" lon="14.1828185"><ele>240.5</ele><time>2026-04-26T11:40:30.76Z</time></trkpt><trkpt lat="42.2572693" lon="14.1827753"><ele>242.33333333333331</ele><time>2026-04-26T11:40:31.76Z</time></trkpt><trkpt lat="42.2571813" lon="14.1827413"><ele>244.16666666666666</ele><time>2026-04-26T11:40:32.76Z</time></trkpt><trkpt lat="42.2571012" lon="14.1827022"><ele>246.0</ele><time>2026-04-26T11:40:33.764Z</time></trkpt><trkpt lat="42.2570338" lon="14.1826013"><ele>246.4</ele><time>2026-04-26T11:40:35.76Z</time></trkpt><trkpt lat="42.2570595" lon="14.1824427"><ele>246.8</ele><time>2026-04-26T11:40:37.759Z</time></trkpt><trkpt lat="42.2570562" lon="14.1823337"><ele>247.20000000000002</ele><time>2026-04-26T11:40:38.758Z</time></trkpt><trkpt lat="42.2570698" lon="14.1822385"><ele>247.60000000000002</ele><time>2026-04-26T11:40:39.759Z</time></trkpt><trkpt lat="42.2571653" lon="14.1821187"><ele>248.0</ele><time>2026-04-26T11:40:41.758Z</time></trkpt><trkpt lat="42.2572242" lon="14.1820417"><ele>249.4</ele><time>2026-04-26T11:40:42.758Z</time></trkpt><trkpt lat="42.257289" lon="14.1819402"><ele>250.8</ele><time>2026-04-26T11:40:43.759Z</time></trkpt><trkpt lat="42.2573338" lon="14.1818325"><ele>252.2</ele><time>2026-04-26T11:40:44.759Z</time></trkpt><trkpt lat="42.2573678" lon="14.1817145"><ele>253.6</ele><time>2026-04-26T11:40:45.757Z</time></trkpt><trkpt lat="42.2574027" lon="14.1815848"><ele>255.0</ele><time>2026-04-26T11:40:46.757Z</time></trkpt><trkpt lat="42.2574335" lon="14.18145"><ele>256.5</ele><time>2026-04-26T11:40:47.755Z</time></trkpt><trkpt lat="42.2574653" lon="14.1813258"><ele>258.0</ele><time>2026-04-26T11:40:48.755Z</time></trkpt><trkpt lat="42.2575055" lon="14.1812323"><ele>259.5</ele><time>2026-04-26T11:40:49.757Z</time></trkpt><trkpt lat="42.2575557" lon="14.1811502"><ele>261.0</ele><time>2026-04-26T11:40:50.757Z</time></trkpt><trkpt lat="42.2576077" lon="14.1810548"><ele>262.5</ele><time>2026-04-26T11:40:51.759Z</time></trkpt><trkpt lat="42.2576638" lon="14.1809458"><ele>264.0</ele><time>2026-04-26T11:40:52.758Z</time></trkpt><trkpt lat="42.2577238" lon="14.1808435"><ele>264.0</ele><time>2026-04-26T11:40:53.757Z</time></trkpt><trkpt lat="42.257774" lon="14.1807427"><ele>264.0</ele><time>2026-04-26T11:40:54.757Z</time></trkpt><trkpt lat="42.2578138" lon="14.1806205"><ele>264.0</ele><time>2026-04-26T11:40:55.758Z</time></trkpt><trkpt lat="42.2578467" lon="14.1804802"><ele>264.0</ele><time>2026-04-26T11:40:56.757Z</time></trkpt><trkpt lat="42.2578658" lon="14.1803307"><ele>264.0</ele><time>2026-04-26T11:40:57.758Z</time></trkpt><trkpt lat="42.2578788" lon="14.1801793"><ele>267.25</ele><time>2026-04-26T11:40:58.758Z</time></trkpt><trkpt lat="42.2578912" lon="14.1800287"><ele>270.5</ele><time>2026-04-26T11:40:59.758Z</time></trkpt><trkpt lat="42.2579062" lon="14.1798705"><ele>273.75</ele><time>2026-04-26T11:41:00.758Z</time></trkpt><trkpt lat="42.2579087" lon="14.1797127"><ele>277.0</ele><time>2026-04-26T11:41:01.757Z</time></trkpt><trkpt lat="42.2579058" lon="14.1795673"><ele>279.2</ele><time>2026-04-26T11:41:02.757Z</time></trkpt><trkpt lat="42.2579048" lon="14.179437"><ele>281.4</ele><time>2026-04-26T11:41:03.76Z</time></trkpt><trkpt lat="42.2579168" lon="14.179308"><ele>283.6</ele><time>2026-04-26T11:41:04.758Z</time></trkpt><trkpt lat="42.2579417" lon="14.1791727"><ele>285.8</ele><time>2026-04-26T11:41:05.76Z</time></trkpt><trkpt lat="42.2579563" lon="14.1790348"><ele>288.0</ele><time>2026-04-26T11:41:06.757Z</time></trkpt><trkpt lat="42.2579847" lon="14.1789017"><ele>290.0</ele><time>2026-04-26T11:41:07.756Z</time></trkpt><trkpt lat="42.2580208" lon="14.1787725"><ele>292.0</ele><time>2026-04-26T11:41:08.757Z</time></trkpt><trkpt lat="42.2580402" lon="14.1786402"><ele>294.0</ele><time>2026-04-26T11:41:09.758Z</time></trkpt><trkpt lat="42.2580567" lon="14.178503"><ele>296.0</ele><time>2026-04-26T11:41:10.756Z</time></trkpt><trkpt lat="42.2580697" lon="14.1783873"><ele>298.0</ele><time>2026-04-26T11:41:11.758Z</time></trkpt><trkpt lat="42.2580872" lon="14.1783023"><ele>299.4</ele><time>2026-04-26T11:41:12.756Z</time></trkpt><trkpt lat="42.2580947" lon="14.178178"><ele>300.8</ele><time>2026-04-26T11:41:14.757Z</time></trkpt><trkpt lat="42.2580925" lon="14.178054"><ele>302.2</ele><time>2026-04-26T11:41:16.759Z</time></trkpt><trkpt lat="42.258078" lon="14.1779468"><ele>303.6</ele><time>2026-04-26T11:41:18.758Z</time></trkpt><trkpt lat="42.257997" lon="14.1778687"><ele>305.0</ele><time>2026-04-26T11:41:21.759Z</time></trkpt><trkpt lat="42.257894" lon="14.1777897"><ele>305.0</ele><time>2026-04-26T11:41:23.758Z</time></trkpt><trkpt lat="42.2577942" lon="14.1777405"><ele>305.0</ele><time>2026-04-26T11:41:25.761Z</time></trkpt><trkpt lat="42.2577318" lon="14.1777533"><ele>305.0</ele><time>2026-04-26T11:41:26.761Z</time></trkpt><trkpt lat="42.2576648" lon="14.1777643"><ele>305.0</ele><time>2026-04-26T11:41:27.762Z</time></trkpt><trkpt lat="42.2576002" lon="14.1777515"><ele>305.0</ele><time>2026-04-26T11:41:28.759Z</time></trkpt><trkpt lat="42.2575268" lon="14.1777233"><ele>305.0</ele><time>2026-04-26T11:41:29.759Z</time></trkpt><trkpt lat="42.2574493" lon="14.1777233"><ele>305.0</ele><time>2026-04-26T11:41:30.759Z</time></trkpt><trkpt lat="42.2573668" lon="14.177752"><ele>305.0</ele><time>2026-04-26T11:41:31.76Z</time></trkpt><trkpt lat="42.257286" lon="14.1777858"><ele>305.0</ele><time>2026-04-26T11:41:32.76Z</time></trkpt><trkpt lat="42.2572188" lon="14.1778373"><ele>305.0</ele><time>2026-04-26T11:41:33.759Z</time></trkpt><trkpt lat="42.257169" lon="14.1779067"><ele>305.0</ele><time>2026-04-26T11:41:34.758Z</time></trkpt><trkpt lat="42.2570802" lon="14.177955"><ele>305.0</ele><time>2026-04-26T11:41:36.756Z</time></trkpt><trkpt lat="42.257047" lon="14.1778633"><ele>307.2</ele><time>2026-04-26T11:41:38.758Z</time></trkpt><trkpt lat="42.2570593" lon="14.1777795"><ele>309.4</ele><time>2026-04-26T11:41:39.76Z</time></trkpt><trkpt lat="42.2570783" lon="14.1776692"><ele>311.6</ele><time>2026-04-26T11:41:40.758Z</time></trkpt><trkpt lat="42.257105" lon="14.1775475"><ele>313.8</ele><time>2026-04-26T11:41:41.757Z</time></trkpt><trkpt lat="42.257149" lon="14.177418"><ele>316.0</ele><time>2026-04-26T11:41:42.761Z</time></trkpt><trkpt lat="42.2572083" lon="14.1772893"><ele>315.8</ele><time>2026-04-26T11:41:43.758Z</time></trkpt><trkpt lat="42.2572783" lon="14.1771625"><ele>315.6</ele><time>2026-04-26T11:41:44.761Z</time></trkpt><trkpt lat="42.2573378" lon="14.1770422"><ele>315.4</ele><time>2026-04-26T11:41:45.76Z</time></trkpt><trkpt lat="42.2573797" lon="14.1769238"><ele>315.2</ele><time>2026-04-26T11:41:46.76Z</time></trkpt><trkpt lat="42.2574167" lon="14.1767958"><ele>315.0</ele><time>2026-04-26T11:41:47.76Z</time></trkpt><trkpt lat="42.257455" lon="14.1766595"><ele>315.0</ele><time>2026-04-26T11:41:48.758Z</time></trkpt><trkpt lat="42.2574997" lon="14.1765242"><ele>315.0</ele><time>2026-04-26T11:41:49.759Z</time></trkpt><trkpt lat="42.257542" lon="14.176398"><ele>315.0</ele><time>2026-04-26T11:41:50.758Z</time></trkpt><trkpt lat="42.257567" lon="14.1762988"><ele>315.0</ele><time>2026-04-26T11:41:51.759Z</time></trkpt><trkpt lat="42.2575442" lon="14.1761635"><ele>315.0</ele><time>2026-04-26T11:41:53.757Z</time></trkpt><trkpt lat="42.2574942" lon="14.1761102"><ele>316.5</ele><time>2026-04-26T11:41:54.759Z</time></trkpt><trkpt lat="42.2574253" lon="14.1760605"><ele>318.0</ele><time>2026-04-26T11:41:55.759Z</time></trkpt><trkpt lat="42.2573547" lon="14.175998"><ele>319.5</ele><time>2026-04-26T11:41:56.759Z</time></trkpt><trkpt lat="42.257294" lon="14.175913"><ele>321.0</ele><time>2026-04-26T11:41:57.76Z</time></trkpt><trkpt lat="42.2572607" lon="14.1758253"><ele>322.5</ele><time>2026-04-26T11:41:58.758Z</time></trkpt><trkpt lat="42.2572445" lon="14.1757377"><ele>324.0</ele><time>2026-04-26T11:41:59.755Z</time></trkpt><trkpt lat="42.2572175" lon="14.1756528"><ele>325.25</ele><time>2026-04-26T11:42:00.755Z</time></trkpt><trkpt lat="42.2571773" lon="14.1755283"><ele>326.5</ele><time>2026-04-26T11:42:02.758Z</time></trkpt><trkpt lat="42.2571627" lon="14.1753517"><ele>327.75</ele><time>2026-04-26T11:42:04.76Z</time></trkpt><trkpt lat="42.2571905" lon="14.1752228"><ele>329.0</ele><time>2026-04-26T11:42:05.761Z</time></trkpt><trkpt lat="42.2572415" lon="14.1750717"><ele>329.0</ele><time>2026-04-26T11:42:06.759Z</time></trkpt><trkpt lat="42.2573072" lon="14.1748985"><ele>329.0</ele><time>2026-04-26T11:42:07.76Z</time></trkpt><trkpt lat="42.257385" lon="14.1747037"><ele>329.0</ele><time>2026-04-26T11:42:08.76Z</time></trkpt><trkpt lat="42.257479" lon="14.1744797"><ele>332.33333333333337</ele><time>2026-04-26T11:42:09.759Z</time></trkpt><trkpt lat="42.2575835" lon="14.1742368"><ele>335.6666666666667</ele><time>2026-04-26T11:42:10.76Z</time></trkpt><trkpt lat="42.2576857" lon="14.1740083"><ele>339.0</ele><time>2026-04-26T11:42:11.76Z</time></trkpt><trkpt lat="42.2577875" lon="14.1738097"><ele>340.6666666666667</ele><time>2026-04-26T11:42:12.759Z</time></trkpt><trkpt lat="42.2578978" lon="14.1736325"><ele>342.33333333333337</ele><time>2026-04-26T11:42:13.759Z</time></trkpt><trkpt lat="42.258012" lon="14.1734745"><ele>344.0</ele><time>2026-04-26T11:42:14.758Z</time></trkpt><trkpt lat="42.258122" lon="14.1733435"><ele>344.0</ele><time>2026-04-26T11:42:15.758Z</time></trkpt><trkpt lat="42.258217" lon="14.1732375"><ele>344.0</ele><time>2026-04-26T11:42:16.759Z</time></trkpt><trkpt lat="42.2582952" lon="14.1731557"><ele>344.0</ele><time>2026-04-26T11:42:17.758Z</time></trkpt><trkpt lat="42.2583565" lon="14.1730717"><ele>344.0</ele><time>2026-04-26T11:42:18.76Z</time></trkpt><trkpt lat="42.258413" lon="14.1729662"><ele>344.0</ele><time>2026-04-26T11:42:19.758Z</time></trkpt><trkpt lat="42.258478" lon="14.172845"><ele>347.25</ele><time>2026-04-26T11:42:20.757Z</time></trkpt><trkpt lat="42.2585622" lon="14.1727183"><ele>350.5</ele><time>2026-04-26T11:42:21.758Z</time></trkpt><trkpt lat="42.2586595" lon="14.1725832"><ele>353.75</ele><time>2026-04-26T11:42:22.758Z</time></trkpt><trkpt lat="42.2587632" lon="14.1724438"><ele>357.0</ele><time>2026-04-26T11:42:23.757Z</time></trkpt><trkpt lat="42.25887" lon="14.1723113"><ele>361.0</ele><time>2026-04-26T11:42:24.757Z</time></trkpt><trkpt lat="42.2589797" lon="14.1721898"><ele>365.0</ele><time>2026-04-26T11:42:25.76Z</time></trkpt><trkpt lat="42.2590897" lon="14.1720727"><ele>369.0</ele><time>2026-04-26T11:42:26.76Z</time></trkpt><trkpt lat="42.2591983" lon="14.1719565"><ele>373.0</ele><time>2026-04-26T11:42:27.758Z</time></trkpt><trkpt lat="42.2592997" lon="14.171843"><ele>373.0</ele><time>2026-04-26T11:42:28.758Z</time></trkpt><trkpt lat="42.2593868" lon="14.171726"><ele>373.0</ele><time>2026-04-26T11:42:29.756Z</time></trkpt><trkpt lat="42.2594605" lon="14.1715968"><ele>373.0</ele><time>2026-04-26T11:42:30.758Z</time></trkpt><trkpt lat="42.2595252" lon="14.1714635"><ele>373.0</ele><time>2026-04-26T11:42:31.756Z</time></trkpt><trkpt lat="42.2595747" lon="14.1713605"><ele>372.5</ele><time>2026-04-26T11:42:32.758Z</time></trkpt><trkpt lat="42.2596157" lon="14.1712767"><ele>372.0</ele><time>2026-04-26T11:42:33.761Z</time></trkpt><trkpt lat="42.259659" lon="14.1712"><ele>371.5</ele><time>2026-04-26T11:42:34.76Z</time></trkpt><trkpt lat="42.2597123" lon="14.1711298"><ele>371.0</ele><time>2026-04-26T11:42:35.762Z</time></trkpt><trkpt lat="42.2597755" lon="14.171063"><ele>370.5</ele><time>2026-04-26T11:42:36.759Z</time></trkpt><trkpt lat="42.2598522" lon="14.170986"><ele>370.0</ele><time>2026-04-26T11:42:37.759Z</time></trkpt><trkpt lat="42.2599447" lon="14.1708953"><ele>370.0</ele><time>2026-04-26T11:42:38.758Z</time></trkpt><trkpt lat="42.2600422" lon="14.1707985"><ele>370.0</ele><time>2026-04-26T11:42:39.76Z</time></trkpt><trkpt lat="42.2601467" lon="14.1706955"><ele>370.0</ele><time>2026-04-26T11:42:40.759Z</time></trkpt><trkpt lat="42.2602627" lon="14.1705818"><ele>370.0</ele><time>2026-04-26T11:42:41.758Z</time></trkpt><trkpt lat="42.2603852" lon="14.1704613"><ele>369.0</ele><time>2026-04-26T11:42:42.759Z</time></trkpt><trkpt lat="42.2605113" lon="14.1703345"><ele>368.0</ele><time>2026-04-26T11:42:43.759Z</time></trkpt><trkpt lat="42.2606307" lon="14.170201"><ele>367.0</ele><time>2026-04-26T11:42:44.758Z</time></trkpt><trkpt lat="42.2607392" lon="14.170067"><ele>364.6</ele><time>2026-04-26T11:42:45.759Z</time></trkpt><trkpt lat="42.2608277" lon="14.1699502"><ele>362.20000000000005</ele><time>2026-04-26T11:42:46.758Z</time></trkpt><trkpt lat="42.260897" lon="14.1698485"><ele>359.8</ele><time>2026-04-26T11:42:47.76Z</time></trkpt><trkpt lat="42.2609513" lon="14.1697447"><ele>357.4</ele><time>2026-04-26T11:42:48.756Z</time></trkpt><trkpt lat="42.2609845" lon="14.1696278"><ele>355.0</ele><time>2026-04-26T11:42:49.755Z</time></trkpt><trkpt lat="42.2610007" lon="14.169489"><ele>353.25</ele><time>2026-04-26T11:42:50.753Z</time></trkpt><trkpt lat="42.261012" lon="14.1693287"><ele>351.5</ele><time>2026-04-26T11:42:51.756Z</time></trkpt><trkpt lat="42.2610263" lon="14.1691612"><ele>349.75</ele><time>2026-04-26T11:42:52.759Z</time></trkpt><trkpt lat="42.2610307" lon="14.1690008"><ele>348.0</ele><time>2026-04-26T11:42:53.757Z</time></trkpt><trkpt lat="42.26102" lon="14.1688337"><ele>346.75</ele><time>2026-04-26T11:42:54.758Z</time></trkpt><trkpt lat="42.2610138" lon="14.1686528"><ele>345.5</ele><time>2026-04-26T11:42:55.76Z</time></trkpt><trkpt lat="42.2610305" lon="14.1684713"><ele>344.25</ele><time>2026-04-26T11:42:56.758Z</time></trkpt><trkpt lat="42.2610688" lon="14.1682903"><ele>343.0</ele><time>2026-04-26T11:42:57.76Z</time></trkpt><trkpt lat="42.2611113" lon="14.1681172"><ele>340.75</ele><time>2026-04-26T11:42:58.759Z</time></trkpt><trkpt lat="42.2611483" lon="14.1679535"><ele>338.5</ele><time>2026-04-26T11:42:59.758Z</time></trkpt><trkpt lat="42.2611663" lon="14.1677913"><ele>336.25</ele><time>2026-04-26T11:43:00.757Z</time></trkpt><trkpt lat="42.2611683" lon="14.1676218"><ele>334.0</ele><time>2026-04-26T11:43:01.758Z</time></trkpt><trkpt lat="42.2611628" lon="14.1674617"><ele>331.0</ele><time>2026-04-26T11:43:02.756Z</time></trkpt><trkpt lat="42.2611572" lon="14.1673278"><ele>328.0</ele><time>2026-04-26T11:43:03.757Z</time></trkpt><trkpt lat="42.2611522" lon="14.1672255"><ele>325.0</ele><time>2026-04-26T11:43:04.756Z</time></trkpt><trkpt lat="42.2611258" lon="14.167094"><ele>322.0</ele><time>2026-04-26T11:43:06.756Z</time></trkpt><trkpt lat="42.261019" lon="14.1670465"><ele>319.0</ele><time>2026-04-26T11:43:08.757Z</time></trkpt><trkpt lat="42.2609332" lon="14.1670205"><ele>319.0</ele><time>2026-04-26T11:43:09.756Z</time></trkpt><trkpt lat="42.2608312" lon="14.1669852"><ele>319.0</ele><time>2026-04-26T11:43:10.756Z</time></trkpt><trkpt lat="42.2607158" lon="14.1669377"><ele>319.0</ele><time>2026-04-26T11:43:11.756Z</time></trkpt><trkpt lat="42.2606025" lon="14.1668888"><ele>319.0</ele><time>2026-04-26T11:43:12.754Z</time></trkpt><trkpt lat="42.260499" lon="14.166843"><ele>321.0</ele><time>2026-04-26T11:43:13.755Z</time></trkpt><trkpt lat="42.260393" lon="14.1667943"><ele>323.0</ele><time>2026-04-26T11:43:14.755Z</time></trkpt><trkpt lat="42.2603" lon="14.1667547"><ele>325.0</ele><time>2026-04-26T11:43:15.755Z</time></trkpt><trkpt lat="42.2602057" lon="14.1667237"><ele>327.0</ele><time>2026-04-26T11:43:16.755Z</time></trkpt><trkpt lat="42.2601097" lon="14.1667165"><ele>329.0</ele><time>2026-04-26T11:43:17.754Z</time></trkpt><trkpt lat="42.2600075" lon="14.1667242"><ele>329.0</ele><time>2026-04-26T11:43:18.756Z</time></trkpt><trkpt lat="42.259901" lon="14.1667325"><ele>329.0</ele><time>2026-04-26T11:43:19.757Z</time></trkpt><trkpt lat="42.2597972" lon="14.1667195"><ele>329.0</ele><time>2026-04-26T11:43:20.756Z</time></trkpt><trkpt lat="42.2597072" lon="14.1666848"><ele>329.0</ele><time>2026-04-26T11:43:21.756Z</time></trkpt><trkpt lat="42.2596162" lon="14.1666422"><ele>329.0</ele><time>2026-04-26T11:43:22.757Z</time></trkpt><trkpt lat="42.259526" lon="14.1665785"><ele>330.25</ele><time>2026-04-26T11:43:23.756Z</time></trkpt><trkpt lat="42.2594267" lon="14.1665255"><ele>331.5</ele><time>2026-04-26T11:43:24.756Z</time></trkpt><trkpt lat="42.25932" lon="14.1664843"><ele>332.75</ele><time>2026-04-26T11:43:25.756Z</time></trkpt><trkpt lat="42.2592002" lon="14.1664425"><ele>334.0</ele><time>2026-04-26T11:43:26.758Z</time></trkpt><trkpt lat="42.2590858" lon="14.166399"><ele>334.0</ele><time>2026-04-26T11:43:27.758Z</time></trkpt><trkpt lat="42.258979" lon="14.1663385"><ele>334.0</ele><time>2026-04-26T11:43:28.756Z</time></trkpt><trkpt lat="42.258873" lon="14.1662757"><ele>334.0</ele><time>2026-04-26T11:43:29.757Z</time></trkpt><trkpt lat="42.2587643" lon="14.1662278"><ele>334.0</ele><time>2026-04-26T11:43:30.759Z</time></trkpt><trkpt lat="42.2586565" lon="14.1661983"><ele>338.5</ele><time>2026-04-26T11:43:31.774Z</time></trkpt><trkpt lat="42.258544" lon="14.1661788"><ele>343.0</ele><time>2026-04-26T11:43:32.757Z</time></trkpt><trkpt lat="42.2584285" lon="14.1661613"><ele>347.5</ele><time>2026-04-26T11:43:33.758Z</time></trkpt><trkpt lat="42.2583173" lon="14.1661677"><ele>352.0</ele><time>2026-04-26T11:43:34.758Z</time></trkpt><trkpt lat="42.2582007" lon="14.1661803"><ele>351.0</ele><time>2026-04-26T11:43:35.759Z</time></trkpt><trkpt lat="42.2580872" lon="14.166195"><ele>350.0</ele><time>2026-04-26T11:43:36.76Z</time></trkpt><trkpt lat="42.2579985" lon="14.1662213"><ele>349.0</ele><time>2026-04-26T11:43:37.756Z</time></trkpt><trkpt lat="42.2579292" lon="14.166265"><ele>348.0</ele><time>2026-04-26T11:43:38.756Z</time></trkpt><trkpt lat="42.2578652" lon="14.1663322"><ele>347.0</ele><time>2026-04-26T11:43:39.755Z</time></trkpt><trkpt lat="42.2578052" lon="14.1664188"><ele>347.0</ele><time>2026-04-26T11:43:40.754Z</time></trkpt><trkpt lat="42.257752" lon="14.1665205"><ele>347.0</ele><time>2026-04-26T11:43:41.755Z</time></trkpt><trkpt lat="42.257699" lon="14.1666338"><ele>347.0</ele><time>2026-04-26T11:43:42.756Z</time></trkpt><trkpt lat="42.2576507" lon="14.1667407"><ele>347.0</ele><time>2026-04-26T11:43:43.757Z</time></trkpt><trkpt lat="42.2576087" lon="14.1668387"><ele>347.0</ele><time>2026-04-26T11:43:44.759Z</time></trkpt><trkpt lat="42.2575715" lon="14.1669285"><ele>347.0</ele><time>2026-04-26T11:43:45.756Z</time></trkpt><trkpt lat="42.2575377" lon="14.1670178"><ele>348.0</ele><time>2026-04-26T11:43:46.756Z</time></trkpt><trkpt lat="42.2575057" lon="14.1670973"><ele>349.0</ele><time>2026-04-26T11:43:47.756Z</time></trkpt><trkpt lat="42.2574675" lon="14.1671683"><ele>350.0</ele><time>2026-04-26T11:43:48.756Z</time></trkpt><trkpt lat="42.2574062" lon="14.167292"><ele>351.0</ele><time>2026-04-26T11:43:50.757Z</time></trkpt><trkpt lat="42.2573432" lon="14.1673797"><ele>352.0</ele><time>2026-04-26T11:43:52.756Z</time></trkpt><trkpt lat="42.2572673" lon="14.1674468"><ele>353.0</ele><time>2026-04-26T11:43:54.756Z</time></trkpt><trkpt lat="42.2572085" lon="14.1674975"><ele>353.0</ele><time>2026-04-26T11:43:55.756Z</time></trkpt><trkpt lat="42.257122" lon="14.1675433"><ele>353.0</ele><time>2026-04-26T11:43:56.755Z</time></trkpt><trkpt lat="42.2570132" lon="14.16757"><ele>353.0</ele><time>2026-04-26T11:43:57.757Z</time></trkpt><trkpt lat="42.2569017" lon="14.1675755"><ele>353.0</ele><time>2026-04-26T11:43:58.757Z</time></trkpt><trkpt lat="42.2567965" lon="14.167587"><ele>353.0</ele><time>2026-04-26T11:43:59.756Z</time></trkpt><trkpt lat="42.2566885" lon="14.1676182"><ele>353.0</ele><time>2026-04-26T11:44:00.757Z</time></trkpt><trkpt lat="42.2565857" lon="14.1676758"><ele>353.0</ele><time>2026-04-26T11:44:01.756Z</time></trkpt><trkpt lat="42.2564895" lon="14.167751"><ele>353.0</ele><time>2026-04-26T11:44:02.755Z</time></trkpt><trkpt lat="42.2563903" lon="14.1678378"><ele>353.0</ele><time>2026-04-26T11:44:03.757Z</time></trkpt><trkpt lat="42.2562962" lon="14.1679275"><ele>351.4</ele><time>2026-04-26T11:44:04.756Z</time></trkpt><trkpt lat="42.2562078" lon="14.1680167"><ele>349.79999999999995</ele><time>2026-04-26T11:44:05.756Z</time></trkpt><trkpt lat="42.2561258" lon="14.1681045"><ele>348.2</ele><time>2026-04-26T11:44:06.758Z</time></trkpt><trkpt lat="42.2560555" lon="14.1681913"><ele>346.6</ele><time>2026-04-26T11:44:07.756Z</time></trkpt><trkpt lat="42.2559988" lon="14.1682827"><ele>345.0</ele><time>2026-04-26T11:44:08.758Z</time></trkpt><trkpt lat="42.2559638" lon="14.1683668"><ele>345.0</ele><time>2026-04-26T11:44:09.758Z</time></trkpt><trkpt lat="42.2559267" lon="14.1684612"><ele>345.0</ele><time>2026-04-26T11:44:10.758Z</time></trkpt><trkpt lat="42.2558755" lon="14.1685565"><ele>345.0</ele><time>2026-04-26T11:44:11.757Z</time></trkpt><trkpt lat="42.2558213" lon="14.1686683"><ele>345.0</ele><time>2026-04-26T11:44:12.758Z</time></trkpt><trkpt lat="42.2557665" lon="14.168785"><ele>345.0</ele><time>2026-04-26T11:44:13.759Z</time></trkpt><trkpt lat="42.2557188" lon="14.1688983"><ele>345.0</ele><time>2026-04-26T11:44:14.758Z</time></trkpt><trkpt lat="42.255678" lon="14.1690053"><ele>345.0</ele><time>2026-04-26T11:44:15.763Z</time></trkpt><trkpt lat="42.2556453" lon="14.1690963"><ele>345.0</ele><time>2026-04-26T11:44:16.759Z</time></trkpt><trkpt lat="42.2555825" lon="14.169171"><ele>345.0</ele><time>2026-04-26T11:44:18.759Z</time></trkpt><trkpt lat="42.2555228" lon="14.1690968"><ele>345.0</ele><time>2026-04-26T11:44:21.757Z</time></trkpt><trkpt lat="42.255499" lon="14.1689987"><ele>345.0</ele><time>2026-04-26T11:44:25.757Z</time></trkpt><trkpt lat="42.2554798" lon="14.1688858"><ele>342.6</ele><time>2026-04-26T11:44:29.755Z</time></trkpt><trkpt lat="42.255458" lon="14.1687233"><ele>340.2</ele><time>2026-04-26T11:44:31.757Z</time></trkpt><trkpt lat="42.2554502" lon="14.1686087"><ele>337.79999999999995</ele><time>2026-04-26T11:44:32.756Z</time></trkpt><trkpt lat="42.2554477" lon="14.1684798"><ele>335.4</ele><time>2026-04-26T11:44:33.757Z</time></trkpt><trkpt lat="42.255441" lon="14.1683418"><ele>333.0</ele><time>2026-04-26T11:44:34.756Z</time></trkpt><trkpt lat="42.2554218" lon="14.1681962"><ele>332.75</ele><time>2026-04-26T11:44:35.758Z</time></trkpt><trkpt lat="42.2553953" lon="14.1680395"><ele>332.5</ele><time>2026-04-26T11:44:36.761Z</time></trkpt><trkpt lat="42.2553708" lon="14.1678745"><ele>332.25</ele><time>2026-04-26T11:44:37.76Z</time></trkpt><trkpt lat="42.2553475" lon="14.1677128"><ele>332.0</ele><time>2026-04-26T11:44:38.759Z</time></trkpt><trkpt lat="42.2553218" lon="14.1675572"><ele>332.0</ele><time>2026-04-26T11:44:39.758Z</time></trkpt><trkpt lat="42.2552893" lon="14.1674098"><ele>332.0</ele><time>2026-04-26T11:44:40.758Z</time></trkpt><trkpt lat="42.2552438" lon="14.1672765"><ele>332.0</ele><time>2026-04-26T11:44:41.757Z</time></trkpt><trkpt lat="42.2551845" lon="14.1671478"><ele>332.0</ele><time>2026-04-26T11:44:42.757Z</time></trkpt><trkpt lat="42.2551175" lon="14.1670118"><ele>330.25</ele><time>2026-04-26T11:44:43.757Z</time></trkpt><trkpt lat="42.2550495" lon="14.1668682"><ele>328.5</ele><time>2026-04-26T11:44:44.756Z</time></trkpt><trkpt lat="42.2549748" lon="14.1667203"><ele>326.75</ele><time>2026-04-26T11:44:45.76Z</time></trkpt><trkpt lat="42.2548992" lon="14.166567"><ele>325.0</ele><time>2026-04-26T11:44:46.756Z</time></trkpt><trkpt lat="42.2548223" lon="14.166405"><ele>323.66666666666663</ele><time>2026-04-26T11:44:47.757Z</time></trkpt><trkpt lat="42.2547358" lon="14.1662383"><ele>322.3333333333333</ele><time>2026-04-26T11:44:48.758Z</time></trkpt><trkpt lat="42.2546442" lon="14.1660653"><ele>321.0</ele><time>2026-04-26T11:44:49.757Z</time></trkpt><trkpt lat="42.254551" lon="14.1658905"><ele>321.0</ele><time>2026-04-26T11:44:50.756Z</time></trkpt><trkpt lat="42.254458" lon="14.1657192"><ele>321.0</ele><time>2026-04-26T11:44:51.753Z</time></trkpt><trkpt lat="42.2543605" lon="14.1655465"><ele>321.0</ele><time>2026-04-26T11:44:52.755Z</time></trkpt><trkpt lat="42.2542718" lon="14.1653835"><ele>319.5</ele><time>2026-04-26T11:44:53.754Z</time></trkpt><trkpt lat="42.2541937" lon="14.1652233"><ele>318.0</ele><time>2026-04-26T11:44:54.758Z</time></trkpt><trkpt lat="42.2541135" lon="14.165063"><ele>316.5</ele><time>2026-04-26T11:44:55.757Z</time></trkpt><trkpt lat="42.2540297" lon="14.1649028"><ele>315.0</ele><time>2026-04-26T11:44:56.759Z</time></trkpt><trkpt lat="42.2539405" lon="14.1647412"><ele>313.0</ele><time>2026-04-26T11:44:57.759Z</time></trkpt><trkpt lat="42.253845" lon="14.164575"><ele>311.0</ele><time>2026-04-26T11:44:58.759Z</time></trkpt><trkpt lat="42.2537488" lon="14.1644017"><ele>309.0</ele><time>2026-04-26T11:44:59.759Z</time></trkpt><trkpt lat="42.2536493" lon="14.1642292"><ele>309.0</ele><time>2026-04-26T11:45:00.759Z</time></trkpt><trkpt lat="42.2535535" lon="14.1640618"><ele>309.0</ele><time>2026-04-26T11:45:01.759Z</time></trkpt><trkpt lat="42.2534603" lon="14.1639068"><ele>309.0</ele><time>2026-04-26T11:45:02.759Z</time></trkpt><trkpt lat="42.2533737" lon="14.1637612"><ele>309.0</ele><time>2026-04-26T11:45:03.76Z</time></trkpt><trkpt lat="42.2532943" lon="14.1636147"><ele>309.0</ele><time>2026-04-26T11:45:04.759Z</time></trkpt><trkpt lat="42.2532227" lon="14.1634617"><ele>309.0</ele><time>2026-04-26T11:45:05.762Z</time></trkpt><trkpt lat="42.2531607" lon="14.1633045"><ele>309.0</ele><time>2026-04-26T11:45:06.761Z</time></trkpt><trkpt lat="42.2531132" lon="14.1631357"><ele>309.0</ele><time>2026-04-26T11:45:07.759Z</time></trkpt><trkpt lat="42.253083" lon="14.162955"><ele>307.25</ele><time>2026-04-26T11:45:08.758Z</time></trkpt><trkpt lat="42.2530607" lon="14.1627658"><ele>305.5</ele><time>2026-04-26T11:45:09.757Z</time></trkpt><trkpt lat="42.2530282" lon="14.162573"><ele>303.75</ele><time>2026-04-26T11:45:10.758Z</time></trkpt><trkpt lat="42.2529848" lon="14.1623787"><ele>302.0</ele><time>2026-04-26T11:45:11.757Z</time></trkpt><trkpt lat="42.2529397" lon="14.1621828"><ele>302.0</ele><time>2026-04-26T11:45:12.761Z</time></trkpt><trkpt lat="42.2528913" lon="14.1619875"><ele>302.0</ele><time>2026-04-26T11:45:13.758Z</time></trkpt><trkpt lat="42.252836" lon="14.1617868"><ele>302.0</ele><time>2026-04-26T11:45:14.758Z</time></trkpt><trkpt lat="42.2527817" lon="14.1615893"><ele>301.0</ele><time>2026-04-26T11:45:15.756Z</time></trkpt><trkpt lat="42.252728" lon="14.1613978"><ele>300.0</ele><time>2026-04-26T11:45:16.756Z</time></trkpt><trkpt lat="42.2526718" lon="14.1612158"><ele>299.0</ele><time>2026-04-26T11:45:17.755Z</time></trkpt><trkpt lat="42.252618" lon="14.1610415"><ele>298.0</ele><time>2026-04-26T11:45:18.757Z</time></trkpt><trkpt lat="42.252561" lon="14.1608802"><ele>298.0</ele><time>2026-04-26T11:45:19.76Z</time></trkpt><trkpt lat="42.2525042" lon="14.1607317"><ele>298.0</ele><time>2026-04-26T11:45:20.758Z</time></trkpt><trkpt lat="42.2524535" lon="14.1605868"><ele>298.0</ele><time>2026-04-26T11:45:21.76Z</time></trkpt><trkpt lat="42.2524128" lon="14.1604342"><ele>298.0</ele><time>2026-04-26T11:45:22.76Z</time></trkpt><trkpt lat="42.2523768" lon="14.1602697"><ele>295.75</ele><time>2026-04-26T11:45:23.759Z</time></trkpt><trkpt lat="42.2523497" lon="14.1601048"><ele>293.5</ele><time>2026-04-26T11:45:24.76Z</time></trkpt><trkpt lat="42.2523283" lon="14.1599508"><ele>291.25</ele><time>2026-04-26T11:45:25.758Z</time></trkpt><trkpt lat="42.2523047" lon="14.1598085"><ele>289.0</ele><time>2026-04-26T11:45:26.758Z</time></trkpt><trkpt lat="42.2522668" lon="14.1596785"><ele>289.0</ele><time>2026-04-26T11:45:27.759Z</time></trkpt><trkpt lat="42.2522152" lon="14.1595488"><ele>289.0</ele><time>2026-04-26T11:45:28.761Z</time></trkpt><trkpt lat="42.2521552" lon="14.1594208"><ele>289.0</ele><time>2026-04-26T11:45:29.757Z</time></trkpt><trkpt lat="42.2520963" lon="14.1592963"><ele>289.0</ele><time>2026-04-26T11:45:30.758Z</time></trkpt><trkpt lat="42.2520405" lon="14.1591813"><ele>289.0</ele><time>2026-04-26T11:45:31.757Z</time></trkpt><trkpt lat="42.2519828" lon="14.1590825"><ele>285.59999999999997</ele><time>2026-04-26T11:45:32.757Z</time></trkpt><trkpt lat="42.2519238" lon="14.1589898"><ele>282.2</ele><time>2026-04-26T11:45:33.758Z</time></trkpt><trkpt lat="42.2518582" lon="14.1589032"><ele>278.79999999999995</ele><time>2026-04-26T11:45:34.757Z</time></trkpt><trkpt lat="42.2517827" lon="14.1588217"><ele>275.4</ele><time>2026-04-26T11:45:35.758Z</time></trkpt><trkpt lat="42.2517038" lon="14.1587535"><ele>272.0</ele><time>2026-04-26T11:45:36.756Z</time></trkpt><trkpt lat="42.2516067" lon="14.1586872"><ele>272.0</ele><time>2026-04-26T11:45:37.758Z</time></trkpt><trkpt lat="42.2514935" lon="14.1586193"><ele>272.0</ele><time>2026-04-26T11:45:38.756Z</time></trkpt><trkpt lat="42.2513737" lon="14.1585492"><ele>272.0</ele><time>2026-04-26T11:45:39.756Z</time></trkpt><trkpt lat="42.2512672" lon="14.1584837"><ele>272.0</ele><time>2026-04-26T11:45:40.755Z</time></trkpt><trkpt lat="42.25118" lon="14.1584328"><ele>273.1666666666667</ele><time>2026-04-26T11:45:41.756Z</time></trkpt><trkpt lat="42.2511032" lon="14.1583928"><ele>274.33333333333337</ele><time>2026-04-26T11:45:42.757Z</time></trkpt><trkpt lat="42.2510298" lon="14.1583578"><ele>275.5</ele><time>2026-04-26T11:45:43.756Z</time></trkpt><trkpt lat="42.2509603" lon="14.1583328"><ele>276.6666666666667</ele><time>2026-04-26T11:45:44.758Z</time></trkpt><trkpt lat="42.2508903" lon="14.1583127"><ele>277.8333333333333</ele><time>2026-04-26T11:45:45.76Z</time></trkpt><trkpt lat="42.2508188" lon="14.1582807"><ele>279.0</ele><time>2026-04-26T11:45:46.761Z</time></trkpt><trkpt lat="42.2507433" lon="14.1582468"><ele>279.0</ele><time>2026-04-26T11:45:47.76Z</time></trkpt><trkpt lat="42.2506548" lon="14.1582262"><ele>279.0</ele><time>2026-04-26T11:45:48.76Z</time></trkpt><trkpt lat="42.2505538" lon="14.1582023"><ele>279.0</ele><time>2026-04-26T11:45:49.758Z</time></trkpt><trkpt lat="42.2504548" lon="14.158157"><ele>279.0</ele><time>2026-04-26T11:45:50.759Z</time></trkpt><trkpt lat="42.2503707" lon="14.1580862"><ele>279.0</ele><time>2026-04-26T11:45:51.76Z</time></trkpt><trkpt lat="42.2503025" lon="14.1579965"><ele>278.0</ele><time>2026-04-26T11:45:52.758Z</time></trkpt><trkpt lat="42.2502343" lon="14.157922"><ele>277.0</ele><time>2026-04-26T11:45:53.758Z</time></trkpt><trkpt lat="42.2501653" lon="14.1578697"><ele>276.0</ele><time>2026-04-26T11:45:54.759Z</time></trkpt><trkpt lat="42.250097" lon="14.1578467"><ele>275.0</ele><time>2026-04-26T11:45:55.758Z</time></trkpt><trkpt lat="42.2500228" lon="14.1578465"><ele>274.0</ele><time>2026-04-26T11:45:56.759Z</time></trkpt><trkpt lat="42.2499378" lon="14.1578507"><ele>273.0</ele><time>2026-04-26T11:45:57.76Z</time></trkpt><trkpt lat="42.2498433" lon="14.1578553"><ele>276.0</ele><time>2026-04-26T11:45:58.759Z</time></trkpt><trkpt lat="42.2497432" lon="14.157854"><ele>279.0</ele><time>2026-04-26T11:45:59.759Z</time></trkpt><trkpt lat="42.2496398" lon="14.157839"><ele>282.0</ele><time>2026-04-26T11:46:00.757Z</time></trkpt><trkpt lat="42.249539" lon="14.1578023"><ele>285.0</ele><time>2026-04-26T11:46:01.757Z</time></trkpt><trkpt lat="42.2494373" lon="14.1577465"><ele>288.0</ele><time>2026-04-26T11:46:02.758Z</time></trkpt><trkpt lat="42.249328" lon="14.1576878"><ele>288.0</ele><time>2026-04-26T11:46:03.758Z</time></trkpt><trkpt lat="42.249211" lon="14.1576385"><ele>288.0</ele><time>2026-04-26T11:46:04.755Z</time></trkpt><trkpt lat="42.2490885" lon="14.1575935"><ele>288.0</ele><time>2026-04-26T11:46:05.757Z</time></trkpt><trkpt lat="42.2489633" lon="14.1575523"><ele>288.0</ele><time>2026-04-26T11:46:06.755Z</time></trkpt><trkpt lat="42.2488327" lon="14.157504"><ele>290.0</ele><time>2026-04-26T11:46:07.756Z</time></trkpt><trkpt lat="42.248703" lon="14.1574578"><ele>292.0</ele><time>2026-04-26T11:46:08.758Z</time></trkpt><trkpt lat="42.2485817" lon="14.15741"><ele>294.0</ele><time>2026-04-26T11:46:09.76Z</time></trkpt><trkpt lat="42.2484673" lon="14.1573498"><ele>296.0</ele><time>2026-04-26T11:46:10.757Z</time></trkpt><trkpt lat="42.248355" lon="14.1572752"><ele>296.0</ele><time>2026-04-26T11:46:11.757Z</time></trkpt><trkpt lat="42.2482393" lon="14.1572008"><ele>296.0</ele><time>2026-04-26T11:46:12.757Z</time></trkpt><trkpt lat="42.2481292" lon="14.1571078"><ele>296.0</ele><time>2026-04-26T11:46:13.757Z</time></trkpt><trkpt lat="42.2480368" lon="14.1569937"><ele>296.0</ele><time>2026-04-26T11:46:14.758Z</time></trkpt><trkpt lat="42.247952" lon="14.156858"><ele>298.75</ele><time>2026-04-26T11:46:15.757Z</time></trkpt><trkpt lat="42.2478698" lon="14.1567067"><ele>301.5</ele><time>2026-04-26T11:46:16.757Z</time></trkpt><trkpt lat="42.2477918" lon="14.156555"><ele>304.25</ele><time>2026-04-26T11:46:17.756Z</time></trkpt><trkpt lat="42.2477228" lon="14.1564165"><ele>307.0</ele><time>2026-04-26T11:46:18.758Z</time></trkpt><trkpt lat="42.2476563" lon="14.1562763"><ele>307.0</ele><time>2026-04-26T11:46:19.755Z</time></trkpt><trkpt lat="42.2476022" lon="14.1561247"><ele>307.0</ele><time>2026-04-26T11:46:20.756Z</time></trkpt><trkpt lat="42.2475472" lon="14.1559802"><ele>307.0</ele><time>2026-04-26T11:46:21.757Z</time></trkpt><trkpt lat="42.2474925" lon="14.1558377"><ele>307.0</ele><time>2026-04-26T11:46:22.754Z</time></trkpt><trkpt lat="42.2474458" lon="14.1556932"><ele>305.16666666666663</ele><time>2026-04-26T11:46:23.755Z</time></trkpt><trkpt lat="42.2474078" lon="14.1555588"><ele>303.3333333333333</ele><time>2026-04-26T11:46:24.757Z</time></trkpt><trkpt lat="42.2474017" lon="14.1554503"><ele>301.5</ele><time>2026-04-26T11:46:25.757Z</time></trkpt><trkpt lat="42.247431" lon="14.155358"><ele>299.6666666666667</ele><time>2026-04-26T11:46:26.761Z</time></trkpt><trkpt lat="42.2474603" lon="14.1552582"><ele>297.83333333333337</ele><time>2026-04-26T11:46:27.757Z</time></trkpt><trkpt lat="42.2474593" lon="14.1551547"><ele>296.0</ele><time>2026-04-26T11:46:28.755Z</time></trkpt><trkpt lat="42.247436" lon="14.1550652"><ele>296.0</ele><time>2026-04-26T11:46:29.754Z</time></trkpt><trkpt lat="42.2473867" lon="14.1549982"><ele>296.0</ele><time>2026-04-26T11:46:30.754Z</time></trkpt><trkpt lat="42.2473167" lon="14.1549435"><ele>296.0</ele><time>2026-04-26T11:46:31.754Z</time></trkpt><trkpt lat="42.2472307" lon="14.1548848"><ele>296.0</ele><time>2026-04-26T11:46:32.755Z</time></trkpt><trkpt lat="42.2471357" lon="14.1548202"><ele>296.0</ele><time>2026-04-26T11:46:33.758Z</time></trkpt><trkpt lat="42.247044" lon="14.1547587"><ele>298.33333333333337</ele><time>2026-04-26T11:46:34.757Z</time></trkpt><trkpt lat="42.2469835" lon="14.1547058"><ele>300.6666666666667</ele><time>2026-04-26T11:46:35.756Z</time></trkpt><trkpt lat="42.246974" lon="14.1546153"><ele>303.0</ele><time>2026-04-26T11:46:37.759Z</time></trkpt><trkpt lat="42.2469447" lon="14.1544767"><ele>305.3333333333333</ele><time>2026-04-26T11:46:39.757Z</time></trkpt><trkpt lat="42.2468853" lon="14.154364"><ele>307.66666666666663</ele><time>2026-04-26T11:46:41.757Z</time></trkpt><trkpt lat="42.2468667" lon="14.1542678"><ele>310.0</ele><time>2026-04-26T11:46:46.758Z</time></trkpt><trkpt lat="42.2468832" lon="14.1541572"><ele>310.2</ele><time>2026-04-26T11:46:48.758Z</time></trkpt><trkpt lat="42.2469183" lon="14.1539927"><ele>310.4</ele><time>2026-04-26T11:46:50.758Z</time></trkpt><trkpt lat="42.2469403" lon="14.1538795"><ele>310.6</ele><time>2026-04-26T11:46:52.758Z</time></trkpt><trkpt lat="42.2469578" lon="14.153774"><ele>310.8</ele><time>2026-04-26T11:46:54.759Z</time></trkpt><trkpt lat="42.2469873" lon="14.15363"><ele>311.0</ele><time>2026-04-26T11:46:56.756Z</time></trkpt><trkpt lat="42.2469718" lon="14.1535222"><ele>311.0</ele><time>2026-04-26T11:46:58.759Z</time></trkpt><trkpt lat="42.2470013" lon="14.1536133"><ele>311.0</ele><time>2026-04-26T11:47:05.759Z</time></trkpt><trkpt lat="42.246975" lon="14.1537678"><ele>311.0</ele><time>2026-04-26T11:47:07.76Z</time></trkpt><trkpt lat="42.2469605" lon="14.1538675"><ele>311.0</ele><time>2026-04-26T11:47:08.758Z</time></trkpt><trkpt lat="42.2469452" lon="14.1539738"><ele>311.0</ele><time>2026-04-26T11:47:09.758Z</time></trkpt><trkpt lat="42.2469272" lon="14.1540848"><ele>311.0</ele><time>2026-04-26T11:47:10.758Z</time></trkpt><trkpt lat="42.2469105" lon="14.1541888"><ele>310.83333333333337</ele><time>2026-04-26T11:47:11.757Z</time></trkpt><trkpt lat="42.2469057" lon="14.154322"><ele>310.6666666666667</ele><time>2026-04-26T11:47:13.758Z</time></trkpt><trkpt lat="42.2468478" lon="14.1543753"><ele>310.5</ele><time>2026-04-26T11:47:18.759Z</time></trkpt><trkpt lat="42.246747" lon="14.1543738"><ele>310.3333333333333</ele><time>2026-04-26T11:47:20.756Z</time></trkpt><trkpt lat="42.2466777" lon="14.1543678"><ele>310.16666666666663</ele><time>2026-04-26T11:47:21.757Z</time></trkpt><trkpt lat="42.2465965" lon="14.1543583"><ele>310.0</ele><time>2026-04-26T11:47:22.759Z</time></trkpt><trkpt lat="42.2465107" lon="14.1543555"><ele>312.5</ele><time>2026-04-26T11:47:23.76Z</time></trkpt><trkpt lat="42.2464262" lon="14.1543695"><ele>315.0</ele><time>2026-04-26T11:47:24.758Z</time></trkpt><trkpt lat="42.2463455" lon="14.1544023"><ele>317.5</ele><time>2026-04-26T11:47:25.757Z</time></trkpt><trkpt lat="42.246271" lon="14.154449"><ele>320.0</ele><time>2026-04-26T11:47:26.757Z</time></trkpt><trkpt lat="42.2461982" lon="14.1544958"><ele>322.5</ele><time>2026-04-26T11:47:27.757Z</time></trkpt><trkpt lat="42.246126" lon="14.1545228"><ele>325.0</ele><time>2026-04-26T11:47:28.759Z</time></trkpt><trkpt lat="42.246048" lon="14.1545375"><ele>325.0</ele><time>2026-04-26T11:47:29.757Z</time></trkpt><trkpt lat="42.2459742" lon="14.154558"><ele>325.0</ele><time>2026-04-26T11:47:30.758Z</time></trkpt><trkpt lat="42.2459157" lon="14.1545933"><ele>325.0</ele><time>2026-04-26T11:47:31.757Z</time></trkpt><trkpt lat="42.2458525" lon="14.1546477"><ele>325.0</ele><time>2026-04-26T11:47:32.757Z</time></trkpt><trkpt lat="42.2457795" lon="14.154703"><ele>325.0</ele><time>2026-04-26T11:47:33.758Z</time></trkpt><trkpt lat="42.2456962" lon="14.1547515"><ele>325.0</ele><time>2026-04-26T11:47:34.757Z</time></trkpt><trkpt lat="42.245614" lon="14.1547923"><ele>328.0</ele><time>2026-04-26T11:47:35.758Z</time></trkpt><trkpt lat="42.2455393" lon="14.1548392"><ele>331.0</ele><time>2026-04-26T11:47:36.759Z</time></trkpt><trkpt lat="42.2454677" lon="14.1548978"><ele>334.0</ele><time>2026-04-26T11:47:37.76Z</time></trkpt><trkpt lat="42.245401" lon="14.1549623"><ele>337.0</ele><time>2026-04-26T11:47:38.757Z</time></trkpt><trkpt lat="42.2453333" lon="14.1550402"><ele>340.0</ele><time>2026-04-26T11:47:39.756Z</time></trkpt><trkpt lat="42.2452622" lon="14.1551208"><ele>343.0</ele><time>2026-04-26T11:47:40.757Z</time></trkpt><trkpt lat="42.24519" lon="14.1551975"><ele>343.16666666666663</ele><time>2026-04-26T11:47:41.756Z</time></trkpt><trkpt lat="42.2451175" lon="14.1552677"><ele>343.3333333333333</ele><time>2026-04-26T11:47:42.754Z</time></trkpt><trkpt lat="42.245047" lon="14.1553157"><ele>343.5</ele><time>2026-04-26T11:47:43.757Z</time></trkpt><trkpt lat="42.2449705" lon="14.1553543"><ele>343.6666666666667</ele><time>2026-04-26T11:47:44.755Z</time></trkpt><trkpt lat="42.2448892" lon="14.1553898"><ele>343.83333333333337</ele><time>2026-04-26T11:47:45.756Z</time></trkpt><trkpt lat="42.2448035" lon="14.1554247"><ele>344.0</ele><time>2026-04-26T11:47:46.759Z</time></trkpt><trkpt lat="42.244719" lon="14.1554698"><ele>347.79999999999995</ele><time>2026-04-26T11:47:47.758Z</time></trkpt><trkpt lat="42.2446425" lon="14.155535"><ele>351.59999999999997</ele><time>2026-04-26T11:47:48.757Z</time></trkpt><trkpt lat="42.2445717" lon="14.155616"><ele>355.4</ele><time>2026-04-26T11:47:49.758Z</time></trkpt><trkpt lat="42.2445015" lon="14.155705"><ele>359.2</ele><time>2026-04-26T11:47:50.758Z</time></trkpt><trkpt lat="42.2444335" lon="14.1557882"><ele>363.0</ele><time>2026-04-26T11:47:51.76Z</time></trkpt><trkpt lat="42.2443682" lon="14.1558517"><ele>363.0</ele><time>2026-04-26T11:47:52.76Z</time></trkpt><trkpt lat="42.2442625" lon="14.1558737"><ele>363.0</ele><time>2026-04-26T11:47:54.759Z</time></trkpt><trkpt lat="42.2441753" lon="14.1557587"><ele>363.0</ele><time>2026-04-26T11:47:56.758Z</time></trkpt><trkpt lat="42.2441242" lon="14.1556743"><ele>363.0</ele><time>2026-04-26T11:47:57.759Z</time></trkpt><trkpt lat="42.2440715" lon="14.1555978"><ele>363.0</ele><time>2026-04-26T11:47:58.76Z</time></trkpt><trkpt lat="42.2440093" lon="14.1555312"><ele>367.0</ele><time>2026-04-26T11:48:00.758Z</time></trkpt><trkpt lat="42.2439388" lon="14.1554495"><ele>371.0</ele><time>2026-04-26T11:48:56.758Z</time></trkpt><trkpt lat="42.2438908" lon="14.1552665"><ele>375.0</ele><time>2026-04-26T11:48:58.759Z</time></trkpt><trkpt lat="42.2438255" lon="14.1549832"><ele>375.5</ele><time>2026-04-26T11:49:00.761Z</time></trkpt><trkpt lat="42.2437848" lon="14.1548195"><ele>376.0</ele><time>2026-04-26T11:49:01.76Z</time></trkpt><trkpt lat="42.2437322" lon="14.1546533"><ele>376.5</ele><time>2026-04-26T11:49:02.761Z</time></trkpt><trkpt lat="42.2436707" lon="14.1544903"><ele>377.0</ele><time>2026-04-26T11:49:03.76Z</time></trkpt><trkpt lat="42.2436083" lon="14.1543445"><ele>377.0</ele><time>2026-04-26T11:49:04.758Z</time></trkpt><trkpt lat="42.24355" lon="14.1541942"><ele>377.0</ele><time>2026-04-26T11:49:05.762Z</time></trkpt><trkpt lat="42.2435127" lon="14.1540297"><ele>377.0</ele><time>2026-04-26T11:49:06.763Z</time></trkpt><trkpt lat="42.2434982" lon="14.1538565"><ele>377.0</ele><time>2026-04-26T11:49:07.761Z</time></trkpt><trkpt lat="42.243491" lon="14.1536708"><ele>377.0</ele><time>2026-04-26T11:49:08.76Z</time></trkpt><trkpt lat="42.2434768" lon="14.15348"><ele>377.0</ele><time>2026-04-26T11:49:09.76Z</time></trkpt><trkpt lat="42.2434487" lon="14.1532927"><ele>377.0</ele><time>2026-04-26T11:49:10.758Z</time></trkpt><trkpt lat="42.2433997" lon="14.1531153"><ele>377.0</ele><time>2026-04-26T11:49:11.758Z</time></trkpt><trkpt lat="42.2433345" lon="14.1529495"><ele>377.75</ele><time>2026-04-26T11:49:12.759Z</time></trkpt><trkpt lat="42.2432675" lon="14.152784"><ele>378.5</ele><time>2026-04-26T11:49:13.761Z</time></trkpt><trkpt lat="42.243217" lon="14.152618"><ele>379.25</ele><time>2026-04-26T11:49:14.758Z</time></trkpt><trkpt lat="42.2431968" lon="14.1524495"><ele>380.0</ele><time>2026-04-26T11:49:15.758Z</time></trkpt><trkpt lat="42.2432092" lon="14.1522795"><ele>380.5</ele><time>2026-04-26T11:49:16.76Z</time></trkpt><trkpt lat="42.2432373" lon="14.1521037"><ele>381.0</ele><time>2026-04-26T11:49:17.762Z</time></trkpt><trkpt lat="42.2432628" lon="14.1519152"><ele>381.5</ele><time>2026-04-26T11:49:18.762Z</time></trkpt><trkpt lat="42.2432752" lon="14.1517117"><ele>382.0</ele><time>2026-04-26T11:49:19.758Z</time></trkpt><trkpt lat="42.2432773" lon="14.1514988"><ele>382.66666666666663</ele><time>2026-04-26T11:49:20.755Z</time></trkpt><trkpt lat="42.2432682" lon="14.1512827"><ele>383.3333333333333</ele><time>2026-04-26T11:49:21.755Z</time></trkpt><trkpt lat="42.2432463" lon="14.1510745"><ele>384.0</ele><time>2026-04-26T11:49:22.755Z</time></trkpt><trkpt lat="42.2432037" lon="14.1508755"><ele>383.6666666666667</ele><time>2026-04-26T11:49:23.757Z</time></trkpt><trkpt lat="42.2431418" lon="14.1506872"><ele>383.33333333333337</ele><time>2026-04-26T11:49:24.761Z</time></trkpt><trkpt lat="42.2430762" lon="14.1505027"><ele>383.0</ele><time>2026-04-26T11:49:25.761Z</time></trkpt><trkpt lat="42.2430175" lon="14.1503152"><ele>383.0</ele><time>2026-04-26T11:49:26.763Z</time></trkpt><trkpt lat="42.24297" lon="14.1501202"><ele>383.0</ele><time>2026-04-26T11:49:27.764Z</time></trkpt><trkpt lat="42.2429322" lon="14.1499173"><ele>383.0</ele><time>2026-04-26T11:49:28.761Z</time></trkpt><trkpt lat="42.2428973" lon="14.149708"><ele>385.33333333333337</ele><time>2026-04-26T11:49:29.76Z</time></trkpt><trkpt lat="42.2428608" lon="14.1494923"><ele>387.6666666666667</ele><time>2026-04-26T11:49:30.76Z</time></trkpt><trkpt lat="42.2428243" lon="14.1492737"><ele>390.0</ele><time>2026-04-26T11:49:31.759Z</time></trkpt><trkpt lat="42.2427965" lon="14.1490508"><ele>391.66666666666663</ele><time>2026-04-26T11:49:32.759Z</time></trkpt><trkpt lat="42.242781" lon="14.1488233"><ele>393.3333333333333</ele><time>2026-04-26T11:49:33.763Z</time></trkpt><trkpt lat="42.2427733" lon="14.1485903"><ele>395.0</ele><time>2026-04-26T11:49:34.762Z</time></trkpt><trkpt lat="42.2427682" lon="14.148355"><ele>396.3333333333333</ele><time>2026-04-26T11:49:35.761Z</time></trkpt><trkpt lat="42.2427635" lon="14.1481198"><ele>397.66666666666663</ele><time>2026-04-26T11:49:36.763Z</time></trkpt><trkpt lat="42.2427582" lon="14.1478855"><ele>399.0</ele><time>2026-04-26T11:49:37.763Z</time></trkpt><trkpt lat="42.2427505" lon="14.1476517"><ele>399.0</ele><time>2026-04-26T11:49:38.76Z</time></trkpt><trkpt lat="42.2427422" lon="14.1474185"><ele>399.0</ele><time>2026-04-26T11:49:39.759Z</time></trkpt><trkpt lat="42.2427382" lon="14.147186"><ele>399.0</ele><time>2026-04-26T11:49:40.76Z</time></trkpt><trkpt lat="42.2427463" lon="14.1469522"><ele>399.66666666666663</ele><time>2026-04-26T11:49:41.758Z</time></trkpt><trkpt lat="42.2427675" lon="14.146714"><ele>400.3333333333333</ele><time>2026-04-26T11:49:42.762Z</time></trkpt><trkpt lat="42.2428003" lon="14.1464693"><ele>401.0</ele><time>2026-04-26T11:49:43.759Z</time></trkpt><trkpt lat="42.2428377" lon="14.1462222"><ele>401.0</ele><time>2026-04-26T11:49:44.757Z</time></trkpt><trkpt lat="42.2428677" lon="14.1459757"><ele>401.0</ele><time>2026-04-26T11:49:45.756Z</time></trkpt><trkpt lat="42.242888" lon="14.1457378"><ele>401.0</ele><time>2026-04-26T11:49:46.758Z</time></trkpt><trkpt lat="42.242898" lon="14.1455113"><ele>402.66666666666663</ele><time>2026-04-26T11:49:47.759Z</time></trkpt><trkpt lat="42.2429" lon="14.1452903"><ele>404.33333333333337</ele><time>2026-04-26T11:49:48.76Z</time></trkpt><trkpt lat="42.2428857" lon="14.1450682"><ele>406.0</ele><time>2026-04-26T11:49:49.759Z</time></trkpt><trkpt lat="42.2428593" lon="14.1448418"><ele>409.6666666666667</ele><time>2026-04-26T11:49:50.757Z</time></trkpt><trkpt lat="42.2428272" lon="14.1446112"><ele>413.33333333333337</ele><time>2026-04-26T11:49:51.759Z</time></trkpt><trkpt lat="42.242799" lon="14.1443783"><ele>417.0</ele><time>2026-04-26T11:49:52.759Z</time></trkpt><trkpt lat="42.24277" lon="14.1441497"><ele>414.5</ele><time>2026-04-26T11:49:53.758Z</time></trkpt><trkpt lat="42.242748" lon="14.143935"><ele>412.0</ele><time>2026-04-26T11:49:54.758Z</time></trkpt><trkpt lat="42.2427418" lon="14.1437355"><ele>409.5</ele><time>2026-04-26T11:49:55.767Z</time></trkpt><trkpt lat="42.2427552" lon="14.1435582"><ele>407.0</ele><time>2026-04-26T11:49:56.76Z</time></trkpt><trkpt lat="42.2427923" lon="14.1434057"><ele>407.0</ele><time>2026-04-26T11:49:57.761Z</time></trkpt><trkpt lat="42.2428583" lon="14.1432637"><ele>407.0</ele><time>2026-04-26T11:49:58.76Z</time></trkpt><trkpt lat="42.2429443" lon="14.1431183"><ele>407.0</ele><time>2026-04-26T11:49:59.759Z</time></trkpt><trkpt lat="42.2430268" lon="14.1429675"><ele>407.0</ele><time>2026-04-26T11:50:00.76Z</time></trkpt><trkpt lat="42.2430888" lon="14.142797"><ele>405.66666666666663</ele><time>2026-04-26T11:50:01.759Z</time></trkpt><trkpt lat="42.2431277" lon="14.1426032"><ele>404.33333333333337</ele><time>2026-04-26T11:50:02.758Z</time></trkpt><trkpt lat="42.2431453" lon="14.1423878"><ele>403.0</ele><time>2026-04-26T11:50:03.76Z</time></trkpt><trkpt lat="42.2431502" lon="14.1421548"><ele>402.6666666666667</ele><time>2026-04-26T11:50:04.76Z</time></trkpt><trkpt lat="42.2431408" lon="14.1419088"><ele>402.33333333333337</ele><time>2026-04-26T11:50:05.76Z</time></trkpt><trkpt lat="42.243115" lon="14.1416555"><ele>402.0</ele><time>2026-04-26T11:50:06.76Z</time></trkpt><trkpt lat="42.2430797" lon="14.1413927"><ele>402.0</ele><time>2026-04-26T11:50:07.76Z</time></trkpt><trkpt lat="42.2430485" lon="14.1411218"><ele>402.0</ele><time>2026-04-26T11:50:08.76Z</time></trkpt><trkpt lat="42.2430257" lon="14.1408533"><ele>402.0</ele><time>2026-04-26T11:50:09.758Z</time></trkpt><trkpt lat="42.2430058" lon="14.1406113"><ele>405.0</ele><time>2026-04-26T11:50:10.756Z</time></trkpt><trkpt lat="42.2429768" lon="14.1403933"><ele>408.0</ele><time>2026-04-26T11:50:11.758Z</time></trkpt><trkpt lat="42.2429312" lon="14.140178"><ele>411.0</ele><time>2026-04-26T11:50:12.757Z</time></trkpt><trkpt lat="42.2428685" lon="14.1399625"><ele>413.0</ele><time>2026-04-26T11:50:13.758Z</time></trkpt><trkpt lat="42.242794" lon="14.1397435"><ele>415.0</ele><time>2026-04-26T11:50:14.76Z</time></trkpt><trkpt lat="42.2427213" lon="14.1395167"><ele>417.0</ele><time>2026-04-26T11:50:15.761Z</time></trkpt><trkpt lat="42.2426537" lon="14.1392843"><ele>417.0</ele><time>2026-04-26T11:50:16.761Z</time></trkpt><trkpt lat="42.2425918" lon="14.1390533"><ele>417.0</ele><time>2026-04-26T11:50:17.761Z</time></trkpt><trkpt lat="42.2425448" lon="14.138835"><ele>417.0</ele><time>2026-04-26T11:50:18.761Z</time></trkpt><trkpt lat="42.2425115" lon="14.1386197"><ele>417.66666666666663</ele><time>2026-04-26T11:50:19.759Z</time></trkpt><trkpt lat="42.2424852" lon="14.138398"><ele>418.3333333333333</ele><time>2026-04-26T11:50:20.76Z</time></trkpt><trkpt lat="42.2424675" lon="14.1381692"><ele>419.0</ele><time>2026-04-26T11:50:21.759Z</time></trkpt><trkpt lat="42.2424563" lon="14.1379388"><ele>420.0</ele><time>2026-04-26T11:50:22.76Z</time></trkpt><trkpt lat="42.2424533" lon="14.137725"><ele>421.0</ele><time>2026-04-26T11:50:23.759Z</time></trkpt><trkpt lat="42.242453" lon="14.1375358"><ele>422.0</ele><time>2026-04-26T11:50:24.758Z</time></trkpt><trkpt lat="42.2424485" lon="14.1373748"><ele>423.0</ele><time>2026-04-26T11:50:25.757Z</time></trkpt><trkpt lat="42.2424413" lon="14.1372357"><ele>423.4</ele><time>2026-04-26T11:50:26.757Z</time></trkpt><trkpt lat="42.2424298" lon="14.1371173"><ele>423.79999999999995</ele><time>2026-04-26T11:50:27.757Z</time></trkpt><trkpt lat="42.2424188" lon="14.1370162"><ele>424.2</ele><time>2026-04-26T11:50:28.758Z</time></trkpt><trkpt lat="42.2424082" lon="14.1369297"><ele>424.6</ele><time>2026-04-26T11:50:29.758Z</time></trkpt><trkpt lat="42.2423812" lon="14.1367657"><ele>425.0</ele><time>2026-04-26T11:50:31.758Z</time></trkpt><trkpt lat="42.2423688" lon="14.136619"><ele>425.0</ele><time>2026-04-26T11:50:33.764Z</time></trkpt><trkpt lat="42.2423697" lon="14.136495"><ele>429.0</ele><time>2026-04-26T11:50:35.756Z</time></trkpt><trkpt lat="42.2423765" lon="14.1363938"><ele>429.0</ele><time>2026-04-26T11:50:38.759Z</time></trkpt></trkseg><trkseg><trkpt lat="42.2350483" lon="14.1265355"><ele>618.0</ele><time>2026-04-26T12:47:35.754Z</time></trkpt><trkpt lat="42.2349372" lon="14.1264512"><ele>618.0</ele><time>2026-04-26T12:47:39.561Z</time></trkpt><trkpt lat="42.2349343" lon="14.1265478"><ele>618.0</ele><time>2026-04-26T12:48:19.757Z</time></trkpt><trkpt lat="42.2349623" lon="14.1266782"><ele>618.0</ele><time>2026-04-26T12:48:21.757Z</time></trkpt><trkpt lat="42.235018" lon="14.1269278"><ele>617.25</ele><time>2026-04-26T12:48:24.757Z</time></trkpt><trkpt lat="42.2350452" lon="14.1271345"><ele>616.5</ele><time>2026-04-26T12:48:26.757Z</time></trkpt><trkpt lat="42.2350615" lon="14.1272468"><ele>615.75</ele><time>2026-04-26T12:48:27.757Z</time></trkpt><trkpt lat="42.2350915" lon="14.1274827"><ele>615.0</ele><time>2026-04-26T12:48:29.756Z</time></trkpt><trkpt lat="42.2351677" lon="14.1278032"><ele>615.0</ele><time>2026-04-26T12:48:32.757Z</time></trkpt><trkpt lat="42.2352878" lon="14.1279542"><ele>615.0</ele><time>2026-04-26T12:48:34.754Z</time></trkpt><trkpt lat="42.2353675" lon="14.1280123"><ele>615.0</ele><time>2026-04-26T12:48:35.754Z</time></trkpt><trkpt lat="42.2355497" lon="14.128057"><ele>615.0</ele><time>2026-04-26T12:48:37.757Z</time></trkpt><trkpt lat="42.2356422" lon="14.1280267"><ele>614.6666666666666</ele><time>2026-04-26T12:48:38.756Z</time></trkpt><trkpt lat="42.2358322" lon="14.1279067"><ele>614.3333333333333</ele><time>2026-04-26T12:48:40.756Z</time></trkpt><trkpt lat="42.2359383" lon="14.1278415"><ele>614.0</ele><time>2026-04-26T12:48:41.757Z</time></trkpt><trkpt lat="42.23617" lon="14.1277215"><ele>614.0</ele><time>2026-04-26T12:48:43.758Z</time></trkpt><trkpt lat="42.2362905" lon="14.1276603"><ele>614.0</ele><time>2026-04-26T12:48:44.757Z</time></trkpt><trkpt lat="42.23654" lon="14.1275357"><ele>614.0</ele><time>2026-04-26T12:48:46.756Z</time></trkpt><trkpt lat="42.2366642" lon="14.127474"><ele>615.0</ele><time>2026-04-26T12:48:47.756Z</time></trkpt><trkpt lat="42.2369117" lon="14.1273372"><ele>616.0</ele><time>2026-04-26T12:48:49.755Z</time></trkpt><trkpt lat="42.2372557" lon="14.1271045"><ele>614.5</ele><time>2026-04-26T12:48:52.756Z</time></trkpt><trkpt lat="42.2374273" lon="14.1270295"><ele>613.0</ele><time>2026-04-26T12:48:54.756Z</time></trkpt><trkpt lat="42.2374993" lon="14.127042"><ele>611.5</ele><time>2026-04-26T12:48:55.757Z</time></trkpt><trkpt lat="42.2376067" lon="14.1271578"><ele>610.0</ele><time>2026-04-26T12:48:57.758Z</time></trkpt><trkpt lat="42.2375768" lon="14.1274983"><ele>607.6666666666667</ele><time>2026-04-26T12:49:00.757Z</time></trkpt><trkpt lat="42.2374688" lon="14.1277948"><ele>605.3333333333334</ele><time>2026-04-26T12:49:02.756Z</time></trkpt><trkpt lat="42.2374172" lon="14.1279325"><ele>603.0</ele><time>2026-04-26T12:49:03.756Z</time></trkpt><trkpt lat="42.2373828" lon="14.128046"><ele>603.0</ele><time>2026-04-26T12:49:04.756Z</time></trkpt><trkpt lat="42.237372" lon="14.1281385"><ele>603.0</ele><time>2026-04-26T12:49:05.756Z</time></trkpt><trkpt lat="42.237476" lon="14.1282557"><ele>603.0</ele><time>2026-04-26T12:49:08.754Z</time></trkpt><trkpt lat="42.237564" lon="14.1282038"><ele>603.0</ele><time>2026-04-26T12:49:16.757Z</time></trkpt><trkpt lat="42.23764" lon="14.128219"><ele>603.0</ele><time>2026-04-26T12:49:19.757Z</time></trkpt><trkpt lat="42.2377187" lon="14.1283455"><ele>597.5</ele><time>2026-04-26T12:49:22.757Z</time></trkpt><trkpt lat="42.2378448" lon="14.1286015"><ele>592.0</ele><time>2026-04-26T12:49:25.755Z</time></trkpt><trkpt lat="42.2380605" lon="14.1287323"><ele>584.0</ele><time>2026-04-26T12:49:27.758Z</time></trkpt><trkpt lat="42.2381695" lon="14.1288222"><ele>576.0</ele><time>2026-04-26T12:49:28.756Z</time></trkpt><trkpt lat="42.2383652" lon="14.1290538"><ele>568.0</ele><time>2026-04-26T12:49:30.758Z</time></trkpt><trkpt lat="42.2384512" lon="14.129188"><ele>565.6666666666667</ele><time>2026-04-26T12:49:31.756Z</time></trkpt><trkpt lat="42.2385363" lon="14.1293202"><ele>563.3333333333334</ele><time>2026-04-26T12:49:32.756Z</time></trkpt><trkpt lat="42.2386225" lon="14.1294452"><ele>561.0</ele><time>2026-04-26T12:49:33.755Z</time></trkpt><trkpt lat="42.2387897" lon="14.12968"><ele>561.0</ele><time>2026-04-26T12:49:35.756Z</time></trkpt><trkpt lat="42.2388722" lon="14.129794"><ele>561.0</ele><time>2026-04-26T12:49:36.755Z</time></trkpt><trkpt lat="42.2389598" lon="14.1299218"><ele>561.0</ele><time>2026-04-26T12:49:37.755Z</time></trkpt><trkpt lat="42.2390587" lon="14.1300622"><ele>561.0</ele><time>2026-04-26T12:49:38.755Z</time></trkpt><trkpt lat="42.2391587" lon="14.1302148"><ele>553.0</ele><time>2026-04-26T12:49:39.755Z</time></trkpt><trkpt lat="42.2393932" lon="14.1306113"><ele>545.0</ele><time>2026-04-26T12:49:42.756Z</time></trkpt><trkpt lat="42.2396117" lon="14.1309277"><ele>542.6666666666666</ele><time>2026-04-26T12:49:45.757Z</time></trkpt><trkpt lat="42.239767" lon="14.1310865"><ele>540.3333333333334</ele><time>2026-04-26T12:49:47.755Z</time></trkpt><trkpt lat="42.2399583" lon="14.1311125"><ele>538.0</ele><time>2026-04-26T12:49:50.755Z</time></trkpt><trkpt lat="42.2400095" lon="14.1306508"><ele>534.6666666666667</ele><time>2026-04-26T12:49:54.757Z</time></trkpt><trkpt lat="42.2400173" lon="14.1303128"><ele>531.3333333333334</ele><time>2026-04-26T12:49:56.759Z</time></trkpt><trkpt lat="42.2400273" lon="14.130163"><ele>528.0</ele><time>2026-04-26T12:49:57.756Z</time></trkpt><trkpt lat="42.2401367" lon="14.1297568"><ele>528.0</ele><time>2026-04-26T12:50:00.758Z</time></trkpt><trkpt lat="42.2402222" lon="14.1292777"><ele>528.0</ele><time>2026-04-26T12:50:03.758Z</time></trkpt><trkpt lat="42.2402297" lon="14.1291335"><ele>528.0</ele><time>2026-04-26T12:50:04.755Z</time></trkpt><trkpt lat="42.2402508" lon="14.1290013"><ele>528.0</ele><time>2026-04-26T12:50:05.756Z</time></trkpt><trkpt lat="42.2402937" lon="14.1288738"><ele>528.0</ele><time>2026-04-26T12:50:06.759Z</time></trkpt><trkpt lat="42.2403453" lon="14.1287357"><ele>528.0</ele><time>2026-04-26T12:50:07.757Z</time></trkpt><trkpt lat="42.2403912" lon="14.1285807"><ele>528.0</ele><time>2026-04-26T12:50:08.755Z</time></trkpt><trkpt lat="42.2404292" lon="14.1284107"><ele>528.0</ele><time>2026-04-26T12:50:09.755Z</time></trkpt><trkpt lat="42.2404642" lon="14.12824"><ele>528.0</ele><time>2026-04-26T12:50:10.755Z</time></trkpt><trkpt lat="42.2404985" lon="14.1280855"><ele>528.0</ele><time>2026-04-26T12:50:11.756Z</time></trkpt><trkpt lat="42.240603" lon="14.1278375"><ele>524.6</ele><time>2026-04-26T12:50:13.756Z</time></trkpt><trkpt lat="42.2406665" lon="14.1277513"><ele>521.1999999999999</ele><time>2026-04-26T12:50:14.753Z</time></trkpt><trkpt lat="42.2407293" lon="14.1277057"><ele>517.8</ele><time>2026-04-26T12:50:15.755Z</time></trkpt><trkpt lat="42.2408705" lon="14.1278403"><ele>514.4</ele><time>2026-04-26T12:50:18.756Z</time></trkpt><trkpt lat="42.2408693" lon="14.1279478"><ele>511.0</ele><time>2026-04-26T12:50:19.756Z</time></trkpt><trkpt lat="42.240846" lon="14.1280688"><ele>511.0</ele><time>2026-04-26T12:50:20.756Z</time></trkpt><trkpt lat="42.240825" lon="14.1282055"><ele>511.0</ele><time>2026-04-26T12:50:21.756Z</time></trkpt><trkpt lat="42.2408192" lon="14.1283557"><ele>511.0</ele><time>2026-04-26T12:50:22.755Z</time></trkpt><trkpt lat="42.240837" lon="14.1285118"><ele>511.0</ele><time>2026-04-26T12:50:23.756Z</time></trkpt><trkpt lat="42.2408748" lon="14.128665"><ele>510.20000000000005</ele><time>2026-04-26T12:50:24.757Z</time></trkpt><trkpt lat="42.2409192" lon="14.1287977"><ele>509.40000000000003</ele><time>2026-04-26T12:50:25.755Z</time></trkpt><trkpt lat="42.2409652" lon="14.1288957"><ele>508.6</ele><time>2026-04-26T12:50:26.754Z</time></trkpt><trkpt lat="42.2410153" lon="14.1289483"><ele>507.8</ele><time>2026-04-26T12:50:27.757Z</time></trkpt><trkpt lat="42.2411047" lon="14.1289183"><ele>507.0</ele><time>2026-04-26T12:50:29.756Z</time></trkpt><trkpt lat="42.2411055" lon="14.1287617"><ele>507.0</ele><time>2026-04-26T12:50:31.756Z</time></trkpt><trkpt lat="42.2410902" lon="14.1286528"><ele>507.0</ele><time>2026-04-26T12:50:32.755Z</time></trkpt><trkpt lat="42.2411002" lon="14.1285335"><ele>507.0</ele><time>2026-04-26T12:50:33.756Z</time></trkpt><trkpt lat="42.24114" lon="14.1284353"><ele>507.0</ele><time>2026-04-26T12:50:34.756Z</time></trkpt><trkpt lat="42.2411993" lon="14.1283743"><ele>507.0</ele><time>2026-04-26T12:50:35.756Z</time></trkpt><trkpt lat="42.2412727" lon="14.1283587"><ele>507.0</ele><time>2026-04-26T12:50:36.756Z</time></trkpt><trkpt lat="42.241349" lon="14.128387"><ele>507.0</ele><time>2026-04-26T12:50:37.755Z</time></trkpt><trkpt lat="42.2414242" lon="14.1284592"><ele>507.00000000000006</ele><time>2026-04-26T12:50:38.754Z</time></trkpt><trkpt lat="42.2415003" lon="14.1285635"><ele>507.00000000000006</ele><time>2026-04-26T12:50:39.753Z</time></trkpt><trkpt lat="42.2415823" lon="14.128683"><ele>507.0</ele><time>2026-04-26T12:50:40.755Z</time></trkpt><trkpt lat="42.2416617" lon="14.1287963"><ele>507.0</ele><time>2026-04-26T12:50:41.755Z</time></trkpt><trkpt lat="42.2417398" lon="14.1289002"><ele>503.8</ele><time>2026-04-26T12:50:42.758Z</time></trkpt><trkpt lat="42.24181" lon="14.1290057"><ele>500.6</ele><time>2026-04-26T12:50:43.757Z</time></trkpt><trkpt lat="42.2418582" lon="14.129115"><ele>497.40000000000003</ele><time>2026-04-26T12:50:44.756Z</time></trkpt><trkpt lat="42.2418822" lon="14.1292478"><ele>494.20000000000005</ele><time>2026-04-26T12:50:45.758Z</time></trkpt><trkpt lat="42.2418783" lon="14.1294038"><ele>491.0</ele><time>2026-04-26T12:50:46.757Z</time></trkpt><trkpt lat="42.241855" lon="14.1295793"><ele>489.75</ele><time>2026-04-26T12:50:47.756Z</time></trkpt><trkpt lat="42.2418343" lon="14.1297603"><ele>488.5</ele><time>2026-04-26T12:50:48.76Z</time></trkpt><trkpt lat="42.2418318" lon="14.1299318"><ele>487.25</ele><time>2026-04-26T12:50:49.757Z</time></trkpt><trkpt lat="42.2418505" lon="14.1300798"><ele>486.0</ele><time>2026-04-26T12:50:50.756Z</time></trkpt><trkpt lat="42.2418908" lon="14.1302015"><ele>485.8</ele><time>2026-04-26T12:50:51.756Z</time></trkpt><trkpt lat="42.2419517" lon="14.1302898"><ele>485.6</ele><time>2026-04-26T12:50:52.755Z</time></trkpt><trkpt lat="42.2420138" lon="14.1303412"><ele>485.4</ele><time>2026-04-26T12:50:53.755Z</time></trkpt><trkpt lat="42.242089" lon="14.130362"><ele>485.2</ele><time>2026-04-26T12:50:55.757Z</time></trkpt><trkpt lat="42.2421365" lon="14.1302888"><ele>485.0</ele><time>2026-04-26T12:50:57.756Z</time></trkpt><trkpt lat="42.2421113" lon="14.1300928"><ele>485.0</ele><time>2026-04-26T12:50:59.756Z</time></trkpt><trkpt lat="42.2420768" lon="14.1299575"><ele>485.0</ele><time>2026-04-26T12:51:00.754Z</time></trkpt><trkpt lat="42.242061" lon="14.129807"><ele>485.0</ele><time>2026-04-26T12:51:01.753Z</time></trkpt><trkpt lat="42.2420822" lon="14.1296743"><ele>485.0</ele><time>2026-04-26T12:51:02.754Z</time></trkpt><trkpt lat="42.2421393" lon="14.1295802"><ele>485.0</ele><time>2026-04-26T12:51:03.754Z</time></trkpt><trkpt lat="42.2422238" lon="14.1295265"><ele>482.4</ele><time>2026-04-26T12:51:04.755Z</time></trkpt><trkpt lat="42.2423265" lon="14.1295037"><ele>479.8</ele><time>2026-04-26T12:51:05.756Z</time></trkpt><trkpt lat="42.242442" lon="14.1294795"><ele>477.20000000000005</ele><time>2026-04-26T12:51:06.755Z</time></trkpt><trkpt lat="42.2425558" lon="14.1294362"><ele>474.6</ele><time>2026-04-26T12:51:07.756Z</time></trkpt><trkpt lat="42.2426482" lon="14.129365"><ele>472.0</ele><time>2026-04-26T12:51:08.756Z</time></trkpt><trkpt lat="42.2427207" lon="14.1292598"><ele>472.0</ele><time>2026-04-26T12:51:09.756Z</time></trkpt><trkpt lat="42.242785" lon="14.129131"><ele>472.00000000000006</ele><time>2026-04-26T12:51:10.756Z</time></trkpt><trkpt lat="42.242846" lon="14.1290055"><ele>472.00000000000006</ele><time>2026-04-26T12:51:11.754Z</time></trkpt><trkpt lat="42.2429097" lon="14.128893"><ele>472.0</ele><time>2026-04-26T12:51:12.754Z</time></trkpt><trkpt lat="42.2429795" lon="14.1288062"><ele>472.0</ele><time>2026-04-26T12:51:13.754Z</time></trkpt><trkpt lat="42.2430578" lon="14.1287727"><ele>472.00000000000006</ele><time>2026-04-26T12:51:14.754Z</time></trkpt><trkpt lat="42.2431273" lon="14.1288023"><ele>472.0</ele><time>2026-04-26T12:51:15.755Z</time></trkpt><trkpt lat="42.2431778" lon="14.128866"><ele>472.0</ele><time>2026-04-26T12:51:16.756Z</time></trkpt><trkpt lat="42.243208" lon="14.1289573"><ele>472.0</ele><time>2026-04-26T12:51:17.756Z</time></trkpt><trkpt lat="42.2432023" lon="14.1290668"><ele>472.00000000000006</ele><time>2026-04-26T12:51:18.755Z</time></trkpt><trkpt lat="42.2431702" lon="14.1291837"><ele>472.0</ele><time>2026-04-26T12:51:19.756Z</time></trkpt><trkpt lat="42.2431252" lon="14.129315"><ele>472.0</ele><time>2026-04-26T12:51:20.755Z</time></trkpt><trkpt lat="42.2430767" lon="14.1294597"><ele>472.0</ele><time>2026-04-26T12:51:21.757Z</time></trkpt><trkpt lat="42.2430295" lon="14.1296173"><ele>472.0</ele><time>2026-04-26T12:51:22.758Z</time></trkpt><trkpt lat="42.2429855" lon="14.1297825"><ele>472.0</ele><time>2026-04-26T12:51:23.757Z</time></trkpt><trkpt lat="42.2429553" lon="14.1299437"><ele>471.5</ele><time>2026-04-26T12:51:24.759Z</time></trkpt><trkpt lat="42.2429468" lon="14.1301132"><ele>471.0</ele><time>2026-04-26T12:51:25.767Z</time></trkpt><trkpt lat="42.2429597" lon="14.1302917"><ele>470.5</ele><time>2026-04-26T12:51:26.753Z</time></trkpt><trkpt lat="42.2429895" lon="14.1304757"><ele>470.0</ele><time>2026-04-26T12:51:27.755Z</time></trkpt><trkpt lat="42.243021" lon="14.130669"><ele>470.25</ele><time>2026-04-26T12:51:28.754Z</time></trkpt><trkpt lat="42.2430472" lon="14.13087"><ele>470.5</ele><time>2026-04-26T12:51:29.758Z</time></trkpt><trkpt lat="42.2430663" lon="14.1310697"><ele>470.75</ele><time>2026-04-26T12:51:30.757Z</time></trkpt><trkpt lat="42.2430795" lon="14.1312598"><ele>471.0</ele><time>2026-04-26T12:51:31.76Z</time></trkpt><trkpt lat="42.2430995" lon="14.1314373"><ele>466.0</ele><time>2026-04-26T12:51:32.757Z</time></trkpt><trkpt lat="42.2431447" lon="14.1316067"><ele>461.0</ele><time>2026-04-26T12:51:33.758Z</time></trkpt><trkpt lat="42.2431973" lon="14.131771"><ele>456.0</ele><time>2026-04-26T12:51:34.757Z</time></trkpt><trkpt lat="42.243226" lon="14.1319347"><ele>451.0</ele><time>2026-04-26T12:51:35.758Z</time></trkpt><trkpt lat="42.2432208" lon="14.1320948"><ele>451.0</ele><time>2026-04-26T12:51:36.758Z</time></trkpt><trkpt lat="42.2431827" lon="14.132244"><ele>451.0</ele><time>2026-04-26T12:51:37.756Z</time></trkpt><trkpt lat="42.2431125" lon="14.1323813"><ele>451.0</ele><time>2026-04-26T12:51:38.757Z</time></trkpt><trkpt lat="42.2430185" lon="14.1325072"><ele>451.0</ele><time>2026-04-26T12:51:39.759Z</time></trkpt><trkpt lat="42.2429203" lon="14.1326353"><ele>451.0</ele><time>2026-04-26T12:51:40.757Z</time></trkpt><trkpt lat="42.2428422" lon="14.1327622"><ele>451.0</ele><time>2026-04-26T12:51:41.758Z</time></trkpt><trkpt lat="42.2427918" lon="14.132886"><ele>451.0</ele><time>2026-04-26T12:51:42.757Z</time></trkpt><trkpt lat="42.2427728" lon="14.133011"><ele>451.0</ele><time>2026-04-26T12:51:43.759Z</time></trkpt><trkpt lat="42.2427893" lon="14.1331292"><ele>451.0</ele><time>2026-04-26T12:51:44.757Z</time></trkpt><trkpt lat="42.2428135" lon="14.1332415"><ele>451.0</ele><time>2026-04-26T12:51:45.758Z</time></trkpt><trkpt lat="42.2428115" lon="14.1333632"><ele>451.0</ele><time>2026-04-26T12:51:46.759Z</time></trkpt><trkpt lat="42.2427775" lon="14.1334977"><ele>451.0</ele><time>2026-04-26T12:51:47.759Z</time></trkpt><trkpt lat="42.242717" lon="14.1336377"><ele>451.0</ele><time>2026-04-26T12:51:48.758Z</time></trkpt><trkpt lat="42.2426475" lon="14.1337867"><ele>451.0</ele><time>2026-04-26T12:51:49.756Z</time></trkpt><trkpt lat="42.2425927" lon="14.1339542"><ele>447.75</ele><time>2026-04-26T12:51:50.755Z</time></trkpt><trkpt lat="42.2425615" lon="14.1341368"><ele>444.5</ele><time>2026-04-26T12:51:51.755Z</time></trkpt><trkpt lat="42.242542" lon="14.1343327"><ele>441.25</ele><time>2026-04-26T12:51:52.754Z</time></trkpt><trkpt lat="42.2425225" lon="14.1345385"><ele>438.0</ele><time>2026-04-26T12:51:53.756Z</time></trkpt><trkpt lat="42.2425003" lon="14.1347497"><ele>435.0</ele><time>2026-04-26T12:51:54.758Z</time></trkpt><trkpt lat="42.2424745" lon="14.134963"><ele>432.0</ele><time>2026-04-26T12:51:55.758Z</time></trkpt><trkpt lat="42.2424502" lon="14.1351772"><ele>429.0</ele><time>2026-04-26T12:51:56.757Z</time></trkpt><trkpt lat="42.2424315" lon="14.135391"><ele>429.0</ele><time>2026-04-26T12:51:57.756Z</time></trkpt><trkpt lat="42.2424182" lon="14.1356018"><ele>429.0</ele><time>2026-04-26T12:51:58.757Z</time></trkpt><trkpt lat="42.2424093" lon="14.1357967"><ele>429.0</ele><time>2026-04-26T12:51:59.759Z</time></trkpt><trkpt lat="42.242401" lon="14.1359627"><ele>429.0</ele><time>2026-04-26T12:52:00.758Z</time></trkpt><trkpt lat="42.242392" lon="14.136101"><ele>429.0</ele><time>2026-04-26T12:52:01.756Z</time></trkpt><trkpt lat="42.2423862" lon="14.1362078"><ele>429.0</ele><time>2026-04-26T12:52:02.757Z</time></trkpt><trkpt lat="42.2424188" lon="14.1363183"><ele>429.0</ele><time>2026-04-26T12:52:04.756Z</time></trkpt><trkpt lat="42.2424678" lon="14.1362648"><ele>429.0</ele><time>2026-04-26T12:52:08.756Z</time></trkpt><trkpt lat="42.2424973" lon="14.1361385"><ele>429.0</ele><time>2026-04-26T12:52:21.756Z</time></trkpt><trkpt lat="42.2425408" lon="14.1359838"><ele>429.0</ele><time>2026-04-26T12:52:23.756Z</time></trkpt><trkpt lat="42.2425673" lon="14.135903"><ele>429.0</ele><time>2026-04-26T12:52:24.755Z</time></trkpt><trkpt lat="42.242598" lon="14.135823"><ele>429.0</ele><time>2026-04-26T12:52:25.755Z</time></trkpt><trkpt lat="42.242634" lon="14.1357415"><ele>429.0</ele><time>2026-04-26T12:52:26.757Z</time></trkpt><trkpt lat="42.2426735" lon="14.1356592"><ele>429.0</ele><time>2026-04-26T12:52:27.757Z</time></trkpt><trkpt lat="42.2427192" lon="14.1355697"><ele>429.0</ele><time>2026-04-26T12:52:28.756Z</time></trkpt><trkpt lat="42.2427707" lon="14.135471"><ele>429.0</ele><time>2026-04-26T12:52:29.756Z</time></trkpt><trkpt lat="42.2428732" lon="14.1353087"><ele>429.0</ele><time>2026-04-26T12:52:31.755Z</time></trkpt><trkpt lat="42.2429722" lon="14.135255"><ele>429.0</ele><time>2026-04-26T12:52:33.755Z</time></trkpt><trkpt lat="42.2430925" lon="14.1353175"><ele>429.0</ele><time>2026-04-26T12:52:36.756Z</time></trkpt><trkpt lat="42.2431257" lon="14.1354407"><ele>429.0</ele><time>2026-04-26T12:52:38.757Z</time></trkpt><trkpt lat="42.2431458" lon="14.1355918"><ele>429.0</ele><time>2026-04-26T12:52:40.755Z</time></trkpt><trkpt lat="42.2431647" lon="14.1357733"><ele>429.0</ele><time>2026-04-26T12:52:42.757Z</time></trkpt><trkpt lat="42.2431755" lon="14.1358575"><ele>429.0</ele><time>2026-04-26T12:52:43.757Z</time></trkpt><trkpt lat="42.24314" lon="14.1357368"><ele>429.0</ele><time>2026-04-26T12:53:10.758Z</time></trkpt><trkpt lat="42.2430818" lon="14.1355433"><ele>429.0</ele><time>2026-04-26T12:53:12.758Z</time></trkpt><trkpt lat="42.243053" lon="14.1354462"><ele>429.0</ele><time>2026-04-26T12:53:13.757Z</time></trkpt><trkpt lat="42.24301" lon="14.13531"><ele>429.0</ele><time>2026-04-26T12:53:15.758Z</time></trkpt><trkpt lat="42.242968" lon="14.135219"><ele>429.0</ele><time>2026-04-26T12:53:31.754Z</time></trkpt><trkpt lat="42.2430165" lon="14.1350987"><ele>429.0</ele><time>2026-04-26T12:53:35.755Z</time></trkpt><trkpt lat="42.2430967" lon="14.1350363"><ele>429.0</ele><time>2026-04-26T12:53:37.757Z</time></trkpt><trkpt lat="42.2432908" lon="14.1350242"><ele>426.5</ele><time>2026-04-26T12:53:40.755Z</time></trkpt><trkpt lat="42.2433823" lon="14.1349762"><ele>424.0</ele><time>2026-04-26T12:53:42.754Z</time></trkpt><trkpt lat="42.2435495" lon="14.1348563"><ele>421.5</ele><time>2026-04-26T12:53:45.753Z</time></trkpt><trkpt lat="42.243613" lon="14.1347717"><ele>419.0</ele><time>2026-04-26T12:53:47.755Z</time></trkpt><trkpt lat="42.2436687" lon="14.134667"><ele>419.0</ele><time>2026-04-26T12:53:50.757Z</time></trkpt><trkpt lat="42.2437222" lon="14.1345793"><ele>419.0</ele><time>2026-04-26T12:53:52.752Z</time></trkpt><trkpt lat="42.2437823" lon="14.1344932"><ele>419.0</ele><time>2026-04-26T12:53:54.753Z</time></trkpt><trkpt lat="42.2438908" lon="14.1343585"><ele>419.0</ele><time>2026-04-26T12:53:57.757Z</time></trkpt><trkpt lat="42.2439227" lon="14.1342803"><ele>419.0</ele><time>2026-04-26T12:53:59.757Z</time></trkpt><trkpt lat="42.2439182" lon="14.1340925"><ele>421.6</ele><time>2026-04-26T12:54:03.757Z</time></trkpt><trkpt lat="42.2439267" lon="14.1339325"><ele>424.2</ele><time>2026-04-26T12:54:05.755Z</time></trkpt><trkpt lat="42.2439082" lon="14.133799"><ele>426.80000000000007</ele><time>2026-04-26T12:54:07.755Z</time></trkpt><trkpt lat="42.243894" lon="14.1336653"><ele>429.40000000000003</ele><time>2026-04-26T12:54:09.756Z</time></trkpt><trkpt lat="42.243905" lon="14.13353"><ele>432.0</ele><time>2026-04-26T12:54:11.755Z</time></trkpt><trkpt lat="42.243932" lon="14.133407"><ele>432.0</ele><time>2026-04-26T12:54:13.755Z</time></trkpt><trkpt lat="42.243954" lon="14.1333035"><ele>432.0</ele><time>2026-04-26T12:54:15.756Z</time></trkpt><trkpt lat="42.2439767" lon="14.1331652"><ele>432.0</ele><time>2026-04-26T12:54:17.753Z</time></trkpt><trkpt lat="42.2440093" lon="14.1330175"><ele>432.0</ele><time>2026-04-26T12:54:19.754Z</time></trkpt><trkpt lat="42.24406" lon="14.1329304"><ele>432.0</ele><time>2026-04-26T12:55:31.755Z</time></trkpt><trkpt lat="42.2440914" lon="14.132855"><ele>432.0</ele><time>2026-04-26T12:55:33.753Z</time></trkpt><trkpt lat="42.2441376" lon="14.132725"><ele>431.6666666666667</ele><time>2026-04-26T12:55:35.756Z</time></trkpt><trkpt lat="42.2441646" lon="14.1326473"><ele>431.33333333333337</ele><time>2026-04-26T12:55:36.757Z</time></trkpt><trkpt lat="42.2442215" lon="14.1325987"><ele>431.0</ele><time>2026-04-26T12:55:38.756Z</time></trkpt><trkpt lat="42.2443118" lon="14.1326369"><ele>430.6666666666667</ele><time>2026-04-26T12:55:40.757Z</time></trkpt><trkpt lat="42.2444238" lon="14.1325965"><ele>430.33333333333337</ele><time>2026-04-26T12:55:43.757Z</time></trkpt><trkpt lat="42.2445206" lon="14.1325578"><ele>430.0</ele><time>2026-04-26T12:55:45.756Z</time></trkpt><trkpt lat="42.2445833" lon="14.1325657"><ele>430.0</ele><time>2026-04-26T12:55:46.756Z</time></trkpt><trkpt lat="42.2446519" lon="14.1325666"><ele>430.0</ele><time>2026-04-26T12:55:47.757Z</time></trkpt><trkpt lat="42.2447154" lon="14.1325604"><ele>430.0</ele><time>2026-04-26T12:55:48.755Z</time></trkpt><trkpt lat="42.2448352" lon="14.1325905"><ele>430.0</ele><time>2026-04-26T12:55:50.755Z</time></trkpt><trkpt lat="42.2449462" lon="14.1325952"><ele>430.0</ele><time>2026-04-26T12:55:52.756Z</time></trkpt><trkpt lat="42.2450408" lon="14.132564"><ele>427.75</ele><time>2026-04-26T12:55:54.755Z</time></trkpt><trkpt lat="42.2451453" lon="14.1325097"><ele>425.5</ele><time>2026-04-26T12:55:56.753Z</time></trkpt><trkpt lat="42.2452348" lon="14.132584"><ele>423.25</ele><time>2026-04-26T12:55:58.756Z</time></trkpt><trkpt lat="42.2453268" lon="14.1327303"><ele>421.0</ele><time>2026-04-26T12:56:00.756Z</time></trkpt><trkpt lat="42.245378" lon="14.1328748"><ele>421.0</ele><time>2026-04-26T12:56:02.756Z</time></trkpt><trkpt lat="42.2454973" lon="14.1329902"><ele>421.0</ele><time>2026-04-26T12:56:05.755Z</time></trkpt><trkpt lat="42.2455685" lon="14.133021"><ele>421.0</ele><time>2026-04-26T12:56:07.757Z</time></trkpt><trkpt lat="42.2457072" lon="14.1330255"><ele>421.0</ele><time>2026-04-26T12:56:11.755Z</time></trkpt><trkpt lat="42.2457917" lon="14.1330377"><ele>421.0</ele><time>2026-04-26T12:56:13.756Z</time></trkpt><trkpt lat="42.2458528" lon="14.1330625"><ele>417.25</ele><time>2026-04-26T12:56:14.756Z</time></trkpt><trkpt lat="42.2460098" lon="14.133105"><ele>413.5</ele><time>2026-04-26T12:56:16.756Z</time></trkpt><trkpt lat="42.246086" lon="14.1331077"><ele>409.75</ele><time>2026-04-26T12:56:17.757Z</time></trkpt><trkpt lat="42.246231" lon="14.1330802"><ele>406.0</ele><time>2026-04-26T12:56:19.755Z</time></trkpt><trkpt lat="42.2464492" lon="14.1329255"><ele>404.8</ele><time>2026-04-26T12:56:22.754Z</time></trkpt><trkpt lat="42.2465008" lon="14.1328068"><ele>403.6</ele><time>2026-04-26T12:56:23.757Z</time></trkpt><trkpt lat="42.2465482" lon="14.1326608"><ele>402.4</ele><time>2026-04-26T12:56:24.759Z</time></trkpt><trkpt lat="42.2465973" lon="14.132522"><ele>401.2</ele><time>2026-04-26T12:56:25.757Z</time></trkpt><trkpt lat="42.2466555" lon="14.1324177"><ele>400.0</ele><time>2026-04-26T12:56:26.757Z</time></trkpt><trkpt lat="42.2467262" lon="14.1323625"><ele>400.00000000000006</ele><time>2026-04-26T12:56:27.761Z</time></trkpt><trkpt lat="42.2467972" lon="14.1323647"><ele>400.0</ele><time>2026-04-26T12:56:28.757Z</time></trkpt><trkpt lat="42.246861" lon="14.1324138"><ele>400.0</ele><time>2026-04-26T12:56:29.756Z</time></trkpt><trkpt lat="42.2469018" lon="14.1324995"><ele>400.0</ele><time>2026-04-26T12:56:30.757Z</time></trkpt><trkpt lat="42.2469162" lon="14.132613"><ele>400.00000000000006</ele><time>2026-04-26T12:56:31.759Z</time></trkpt><trkpt lat="42.2469092" lon="14.1327443"><ele>400.0</ele><time>2026-04-26T12:56:32.759Z</time></trkpt><trkpt lat="42.246895" lon="14.1328735"><ele>399.50000000000006</ele><time>2026-04-26T12:56:33.759Z</time></trkpt><trkpt lat="42.246882" lon="14.1329825"><ele>399.0</ele><time>2026-04-26T12:56:34.762Z</time></trkpt><trkpt lat="42.2468768" lon="14.1330673"><ele>398.5</ele><time>2026-04-26T12:56:35.759Z</time></trkpt><trkpt lat="42.2469137" lon="14.1331703"><ele>398.0</ele><time>2026-04-26T12:56:37.757Z</time></trkpt><trkpt lat="42.2469862" lon="14.1331855"><ele>397.50000000000006</ele><time>2026-04-26T12:57:16.757Z</time></trkpt><trkpt lat="42.247069" lon="14.1332168"><ele>397.0</ele><time>2026-04-26T12:57:19.755Z</time></trkpt><trkpt lat="42.2471668" lon="14.1332533"><ele>395.6666666666667</ele><time>2026-04-26T12:57:21.758Z</time></trkpt><trkpt lat="42.2472937" lon="14.1332952"><ele>394.33333333333337</ele><time>2026-04-26T12:57:23.756Z</time></trkpt><trkpt lat="42.2473647" lon="14.1333302"><ele>393.0</ele><time>2026-04-26T12:57:24.757Z</time></trkpt><trkpt lat="42.2474312" lon="14.133375"><ele>391.66666666666663</ele><time>2026-04-26T12:57:25.758Z</time></trkpt><trkpt lat="42.2474992" lon="14.133418"><ele>390.3333333333333</ele><time>2026-04-26T12:57:26.757Z</time></trkpt><trkpt lat="42.2475768" lon="14.1334655"><ele>389.0</ele><time>2026-04-26T12:57:27.757Z</time></trkpt><trkpt lat="42.2476505" lon="14.1335173"><ele>387.8333333333333</ele><time>2026-04-26T12:57:28.757Z</time></trkpt><trkpt lat="42.2477192" lon="14.133565"><ele>386.66666666666663</ele><time>2026-04-26T12:57:29.756Z</time></trkpt><trkpt lat="42.2477978" lon="14.1336148"><ele>385.5</ele><time>2026-04-26T12:57:30.756Z</time></trkpt><trkpt lat="42.2478792" lon="14.1336628"><ele>384.3333333333333</ele><time>2026-04-26T12:57:31.755Z</time></trkpt><trkpt lat="42.2479567" lon="14.133719"><ele>383.16666666666663</ele><time>2026-04-26T12:57:32.757Z</time></trkpt><trkpt lat="42.2480363" lon="14.1337835"><ele>382.0</ele><time>2026-04-26T12:57:33.755Z</time></trkpt><trkpt lat="42.2481133" lon="14.1338572"><ele>380.3333333333333</ele><time>2026-04-26T12:57:34.756Z</time></trkpt><trkpt lat="42.2481927" lon="14.1339273"><ele>378.66666666666663</ele><time>2026-04-26T12:57:35.754Z</time></trkpt><trkpt lat="42.2482755" lon="14.1339828"><ele>377.0</ele><time>2026-04-26T12:57:36.754Z</time></trkpt><trkpt lat="42.2483603" lon="14.1340255"><ele>375.3333333333333</ele><time>2026-04-26T12:57:37.757Z</time></trkpt><trkpt lat="42.2484397" lon="14.1340597"><ele>373.6666666666667</ele><time>2026-04-26T12:57:38.756Z</time></trkpt><trkpt lat="42.2485087" lon="14.134102"><ele>372.0</ele><time>2026-04-26T12:57:39.758Z</time></trkpt><trkpt lat="42.2485723" lon="14.134179"><ele>371.5</ele><time>2026-04-26T12:57:40.758Z</time></trkpt><trkpt lat="42.2486427" lon="14.1342917"><ele>371.0</ele><time>2026-04-26T12:57:41.759Z</time></trkpt><trkpt lat="42.2487173" lon="14.1344353"><ele>370.5</ele><time>2026-04-26T12:57:42.76Z</time></trkpt><trkpt lat="42.2487882" lon="14.134603"><ele>370.0</ele><time>2026-04-26T12:57:43.758Z</time></trkpt><trkpt lat="42.248843" lon="14.1347677"><ele>367.2</ele><time>2026-04-26T12:57:44.757Z</time></trkpt><trkpt lat="42.2488797" lon="14.1349033"><ele>364.4</ele><time>2026-04-26T12:57:45.759Z</time></trkpt><trkpt lat="42.2489038" lon="14.1350023"><ele>361.6</ele><time>2026-04-26T12:57:46.758Z</time></trkpt><trkpt lat="42.2489157" lon="14.1351055"><ele>358.8</ele><time>2026-04-26T12:57:47.759Z</time></trkpt><trkpt lat="42.2489215" lon="14.1352365"><ele>356.0</ele><time>2026-04-26T12:57:48.76Z</time></trkpt><trkpt lat="42.2489268" lon="14.1353897"><ele>356.0</ele><time>2026-04-26T12:57:49.759Z</time></trkpt><trkpt lat="42.248931" lon="14.1355642"><ele>356.0</ele><time>2026-04-26T12:57:50.758Z</time></trkpt><trkpt lat="42.2489348" lon="14.1357452"><ele>356.0</ele><time>2026-04-26T12:57:51.758Z</time></trkpt><trkpt lat="42.2489425" lon="14.1359098"><ele>356.0</ele><time>2026-04-26T12:57:52.759Z</time></trkpt><trkpt lat="42.2489648" lon="14.1360562"><ele>355.0</ele><time>2026-04-26T12:57:53.758Z</time></trkpt><trkpt lat="42.2490055" lon="14.1361793"><ele>354.0</ele><time>2026-04-26T12:57:54.76Z</time></trkpt><trkpt lat="42.2490617" lon="14.1362768"><ele>353.0</ele><time>2026-04-26T12:57:55.759Z</time></trkpt><trkpt lat="42.2491265" lon="14.1363488"><ele>352.0</ele><time>2026-04-26T12:57:56.759Z</time></trkpt><trkpt lat="42.2491907" lon="14.136398"><ele>351.0</ele><time>2026-04-26T12:57:57.756Z</time></trkpt><trkpt lat="42.2492918" lon="14.136481"><ele>351.0</ele><time>2026-04-26T12:57:59.756Z</time></trkpt><trkpt lat="42.2493397" lon="14.1365488"><ele>351.0</ele><time>2026-04-26T12:58:00.756Z</time></trkpt><trkpt lat="42.2493945" lon="14.1366132"><ele>351.0</ele><time>2026-04-26T12:58:01.756Z</time></trkpt><trkpt lat="42.2494505" lon="14.1366697"><ele>351.0</ele><time>2026-04-26T12:58:02.757Z</time></trkpt><trkpt lat="42.2495052" lon="14.1367158"><ele>351.0</ele><time>2026-04-26T12:58:03.758Z</time></trkpt><trkpt lat="42.2496313" lon="14.1367993"><ele>351.0</ele><time>2026-04-26T12:58:05.758Z</time></trkpt><trkpt lat="42.2497203" lon="14.1368547"><ele>346.0</ele><time>2026-04-26T12:58:06.759Z</time></trkpt><trkpt lat="42.2498243" lon="14.1369155"><ele>341.0</ele><time>2026-04-26T12:58:07.761Z</time></trkpt><trkpt lat="42.2499345" lon="14.1369785"><ele>336.0</ele><time>2026-04-26T12:58:08.758Z</time></trkpt><trkpt lat="42.250045" lon="14.1370355"><ele>331.0</ele><time>2026-04-26T12:58:09.759Z</time></trkpt><trkpt lat="42.2501608" lon="14.1370937"><ele>331.0</ele><time>2026-04-26T12:58:10.758Z</time></trkpt><trkpt lat="42.2502835" lon="14.1371592"><ele>331.0</ele><time>2026-04-26T12:58:11.759Z</time></trkpt><trkpt lat="42.2504095" lon="14.1372263"><ele>331.0</ele><time>2026-04-26T12:58:12.76Z</time></trkpt><trkpt lat="42.250535" lon="14.1372917"><ele>331.0</ele><time>2026-04-26T12:58:13.759Z</time></trkpt><trkpt lat="42.2506572" lon="14.1373573"><ele>329.0</ele><time>2026-04-26T12:58:14.758Z</time></trkpt><trkpt lat="42.2507717" lon="14.1374297"><ele>327.0</ele><time>2026-04-26T12:58:15.758Z</time></trkpt><trkpt lat="42.2508817" lon="14.1375135"><ele>325.0</ele><time>2026-04-26T12:58:16.759Z</time></trkpt><trkpt lat="42.2509893" lon="14.1375927"><ele>323.0</ele><time>2026-04-26T12:58:17.759Z</time></trkpt><trkpt lat="42.2510932" lon="14.1376622"><ele>323.0</ele><time>2026-04-26T12:58:18.759Z</time></trkpt><trkpt lat="42.2511922" lon="14.1377252"><ele>323.0</ele><time>2026-04-26T12:58:19.758Z</time></trkpt><trkpt lat="42.2512758" lon="14.1377812"><ele>323.0</ele><time>2026-04-26T12:58:20.759Z</time></trkpt><trkpt lat="42.2513552" lon="14.1378543"><ele>323.0</ele><time>2026-04-26T12:58:22.755Z</time></trkpt><trkpt lat="42.251419" lon="14.1378458"><ele>323.0</ele><time>2026-04-26T12:58:25.757Z</time></trkpt><trkpt lat="42.2515228" lon="14.1377947"><ele>321.6666666666667</ele><time>2026-04-26T12:58:27.76Z</time></trkpt><trkpt lat="42.2515923" lon="14.137783"><ele>320.33333333333337</ele><time>2026-04-26T12:58:28.757Z</time></trkpt><trkpt lat="42.2516763" lon="14.1377637"><ele>319.0</ele><time>2026-04-26T12:58:29.76Z</time></trkpt><trkpt lat="42.251763" lon="14.1377378"><ele>317.6666666666667</ele><time>2026-04-26T12:58:30.757Z</time></trkpt><trkpt lat="42.2518467" lon="14.1377227"><ele>316.3333333333333</ele><time>2026-04-26T12:58:31.759Z</time></trkpt><trkpt lat="42.2519208" lon="14.1377048"><ele>315.0</ele><time>2026-04-26T12:58:32.755Z</time></trkpt><trkpt lat="42.2520003" lon="14.1376685"><ele>315.0</ele><time>2026-04-26T12:58:34.759Z</time></trkpt><trkpt lat="42.2520055" lon="14.1375802"><ele>315.0</ele><time>2026-04-26T12:58:39.758Z</time></trkpt><trkpt lat="42.2519237" lon="14.137498"><ele>315.0</ele><time>2026-04-26T12:58:41.758Z</time></trkpt><trkpt lat="42.2518527" lon="14.1374342"><ele>315.0</ele><time>2026-04-26T12:58:42.758Z</time></trkpt><trkpt lat="42.2517787" lon="14.1373425"><ele>315.0</ele><time>2026-04-26T12:58:43.757Z</time></trkpt><trkpt lat="42.2517102" lon="14.1372213"><ele>314.0</ele><time>2026-04-26T12:58:44.758Z</time></trkpt><trkpt lat="42.2516527" lon="14.1370785"><ele>313.0</ele><time>2026-04-26T12:58:45.756Z</time></trkpt><trkpt lat="42.2516082" lon="14.1369332"><ele>312.0</ele><time>2026-04-26T12:58:46.754Z</time></trkpt><trkpt lat="42.2515865" lon="14.1367912"><ele>311.0</ele><time>2026-04-26T12:58:47.755Z</time></trkpt><trkpt lat="42.251598" lon="14.136663"><ele>310.0</ele><time>2026-04-26T12:58:48.755Z</time></trkpt><trkpt lat="42.2516417" lon="14.1365677"><ele>311.5</ele><time>2026-04-26T12:58:49.756Z</time></trkpt><trkpt lat="42.2517113" lon="14.136508"><ele>313.0</ele><time>2026-04-26T12:58:50.757Z</time></trkpt><trkpt lat="42.251812" lon="14.1364727"><ele>314.5</ele><time>2026-04-26T12:58:51.761Z</time></trkpt><trkpt lat="42.251938" lon="14.1364572"><ele>316.0</ele><time>2026-04-26T12:58:52.758Z</time></trkpt><trkpt lat="42.2520752" lon="14.1364333"><ele>316.0</ele><time>2026-04-26T12:58:53.758Z</time></trkpt><trkpt lat="42.2521977" lon="14.136385"><ele>316.0</ele><time>2026-04-26T12:58:54.757Z</time></trkpt><trkpt lat="42.25232" lon="14.1363045"><ele>316.0</ele><time>2026-04-26T12:58:55.758Z</time></trkpt><trkpt lat="42.2524327" lon="14.1361848"><ele>316.0</ele><time>2026-04-26T12:58:56.757Z</time></trkpt><trkpt lat="42.2525352" lon="14.1360332"><ele>313.0</ele><time>2026-04-26T12:58:57.756Z</time></trkpt><trkpt lat="42.2526345" lon="14.1358547"><ele>310.0</ele><time>2026-04-26T12:58:58.756Z</time></trkpt><trkpt lat="42.2527417" lon="14.1356638"><ele>307.0</ele><time>2026-04-26T12:58:59.758Z</time></trkpt><trkpt lat="42.2528628" lon="14.1354728"><ele>307.0</ele><time>2026-04-26T12:59:00.758Z</time></trkpt><trkpt lat="42.2529855" lon="14.1352943"><ele>307.0</ele><time>2026-04-26T12:59:01.758Z</time></trkpt><trkpt lat="42.2530987" lon="14.135144"><ele>307.0</ele><time>2026-04-26T12:59:02.758Z</time></trkpt><trkpt lat="42.2532008" lon="14.135027"><ele>304.5</ele><time>2026-04-26T12:59:03.758Z</time></trkpt><trkpt lat="42.2533028" lon="14.134957"><ele>302.0</ele><time>2026-04-26T12:59:04.76Z</time></trkpt><trkpt lat="42.2534105" lon="14.1349398"><ele>299.5</ele><time>2026-04-26T12:59:05.76Z</time></trkpt><trkpt lat="42.253526" lon="14.1349712"><ele>297.0</ele><time>2026-04-26T12:59:06.758Z</time></trkpt><trkpt lat="42.2536462" lon="14.135048"><ele>297.0</ele><time>2026-04-26T12:59:07.758Z</time></trkpt><trkpt lat="42.2537727" lon="14.1351587"><ele>297.0</ele><time>2026-04-26T12:59:08.758Z</time></trkpt><trkpt lat="42.2539032" lon="14.1352948"><ele>297.0</ele><time>2026-04-26T12:59:09.759Z</time></trkpt><trkpt lat="42.2540272" lon="14.1354483"><ele>295.0</ele><time>2026-04-26T12:59:10.756Z</time></trkpt><trkpt lat="42.2541325" lon="14.1356065"><ele>293.0</ele><time>2026-04-26T12:59:11.758Z</time></trkpt><trkpt lat="42.254212" lon="14.1357735"><ele>291.0</ele><time>2026-04-26T12:59:12.756Z</time></trkpt><trkpt lat="42.2542588" lon="14.1359492"><ele>289.0</ele><time>2026-04-26T12:59:13.757Z</time></trkpt><trkpt lat="42.2542823" lon="14.1361175"><ele>289.0</ele><time>2026-04-26T12:59:14.759Z</time></trkpt><trkpt lat="42.2543158" lon="14.1362672"><ele>289.0</ele><time>2026-04-26T12:59:15.757Z</time></trkpt><trkpt lat="42.2543733" lon="14.1363937"><ele>289.0</ele><time>2026-04-26T12:59:16.758Z</time></trkpt><trkpt lat="42.2544572" lon="14.1364883"><ele>289.0</ele><time>2026-04-26T12:59:17.757Z</time></trkpt><trkpt lat="42.2545643" lon="14.1365512"><ele>289.0</ele><time>2026-04-26T12:59:18.756Z</time></trkpt><trkpt lat="42.254692" lon="14.1365832"><ele>289.0</ele><time>2026-04-26T12:59:19.757Z</time></trkpt><trkpt lat="42.2548365" lon="14.1365908"><ele>289.0</ele><time>2026-04-26T12:59:20.757Z</time></trkpt><trkpt lat="42.2549942" lon="14.136593"><ele>289.0</ele><time>2026-04-26T12:59:21.759Z</time></trkpt><trkpt lat="42.2551605" lon="14.1366003"><ele>287.66666666666663</ele><time>2026-04-26T12:59:22.757Z</time></trkpt><trkpt lat="42.2553382" lon="14.1366055"><ele>286.3333333333333</ele><time>2026-04-26T12:59:23.756Z</time></trkpt><trkpt lat="42.2555208" lon="14.1366103"><ele>285.0</ele><time>2026-04-26T12:59:24.758Z</time></trkpt><trkpt lat="42.2556947" lon="14.1366185"><ele>283.6666666666667</ele><time>2026-04-26T12:59:25.755Z</time></trkpt><trkpt lat="42.2558563" lon="14.1366437"><ele>282.33333333333337</ele><time>2026-04-26T12:59:26.758Z</time></trkpt><trkpt lat="42.2560057" lon="14.1366945"><ele>281.0</ele><time>2026-04-26T12:59:27.757Z</time></trkpt><trkpt lat="42.2561378" lon="14.1367718"><ele>281.0</ele><time>2026-04-26T12:59:28.758Z</time></trkpt><trkpt lat="42.256253" lon="14.1368378"><ele>281.0</ele><time>2026-04-26T12:59:29.758Z</time></trkpt><trkpt lat="42.2563632" lon="14.1368652"><ele>281.0</ele><time>2026-04-26T12:59:30.763Z</time></trkpt><trkpt lat="42.2564657" lon="14.136847"><ele>281.0</ele><time>2026-04-26T12:59:31.758Z</time></trkpt><trkpt lat="42.256553" lon="14.1367855"><ele>281.0</ele><time>2026-04-26T12:59:32.761Z</time></trkpt><trkpt lat="42.2566177" lon="14.1366883"><ele>279.0</ele><time>2026-04-26T12:59:33.758Z</time></trkpt><trkpt lat="42.2566565" lon="14.136563"><ele>277.0</ele><time>2026-04-26T12:59:34.758Z</time></trkpt><trkpt lat="42.2566783" lon="14.1364122"><ele>275.0</ele><time>2026-04-26T12:59:35.758Z</time></trkpt><trkpt lat="42.256697" lon="14.1362398"><ele>273.0</ele><time>2026-04-26T12:59:36.757Z</time></trkpt><trkpt lat="42.2567175" lon="14.1360518"><ele>272.5</ele><time>2026-04-26T12:59:37.76Z</time></trkpt><trkpt lat="42.256737" lon="14.1358538"><ele>272.0</ele><time>2026-04-26T12:59:38.757Z</time></trkpt><trkpt lat="42.2567533" lon="14.1356668"><ele>271.5</ele><time>2026-04-26T12:59:39.759Z</time></trkpt><trkpt lat="42.2567712" lon="14.135491"><ele>271.0</ele><time>2026-04-26T12:59:40.758Z</time></trkpt><trkpt lat="42.2567903" lon="14.1353112"><ele>271.0</ele><time>2026-04-26T12:59:41.758Z</time></trkpt><trkpt lat="42.2568078" lon="14.1351402"><ele>271.0</ele><time>2026-04-26T12:59:42.762Z</time></trkpt><trkpt lat="42.256826" lon="14.135004"><ele>271.0</ele><time>2026-04-26T12:59:43.758Z</time></trkpt><trkpt lat="42.256847" lon="14.1349068"><ele>271.0</ele><time>2026-04-26T12:59:44.76Z</time></trkpt><trkpt lat="42.25691" lon="14.1348692"><ele>271.0</ele><time>2026-04-26T12:59:46.759Z</time></trkpt><trkpt lat="42.2570482" lon="14.1348935"><ele>271.2</ele><time>2026-04-26T12:59:48.759Z</time></trkpt><trkpt lat="42.2571467" lon="14.1348777"><ele>271.40000000000003</ele><time>2026-04-26T12:59:49.757Z</time></trkpt><trkpt lat="42.257256" lon="14.1348452"><ele>271.6</ele><time>2026-04-26T12:59:50.758Z</time></trkpt><trkpt lat="42.2573658" lon="14.134837"><ele>271.8</ele><time>2026-04-26T12:59:51.758Z</time></trkpt><trkpt lat="42.2574768" lon="14.1348618"><ele>272.0</ele><time>2026-04-26T12:59:52.757Z</time></trkpt><trkpt lat="42.2575937" lon="14.1348943"><ele>272.0</ele><time>2026-04-26T12:59:53.757Z</time></trkpt><trkpt lat="42.2577178" lon="14.1349302"><ele>272.0</ele><time>2026-04-26T12:59:54.76Z</time></trkpt><trkpt lat="42.2578423" lon="14.134963"><ele>272.0</ele><time>2026-04-26T12:59:55.758Z</time></trkpt><trkpt lat="42.2579605" lon="14.1349818"><ele>272.0</ele><time>2026-04-26T12:59:56.759Z</time></trkpt><trkpt lat="42.2580783" lon="14.1349878"><ele>273.0</ele><time>2026-04-26T12:59:57.758Z</time></trkpt><trkpt lat="42.258196" lon="14.1349872"><ele>274.0</ele><time>2026-04-26T12:59:58.757Z</time></trkpt><trkpt lat="42.2583065" lon="14.1349925"><ele>275.0</ele><time>2026-04-26T12:59:59.755Z</time></trkpt><trkpt lat="42.258421" lon="14.1350135"><ele>276.0</ele><time>2026-04-26T13:00:00.756Z</time></trkpt><trkpt lat="42.2585235" lon="14.135053"><ele>276.0</ele><time>2026-04-26T13:00:01.755Z</time></trkpt><trkpt lat="42.258623" lon="14.1351125"><ele>276.0</ele><time>2026-04-26T13:00:02.754Z</time></trkpt><trkpt lat="42.2587255" lon="14.135167"><ele>276.0</ele><time>2026-04-26T13:00:03.759Z</time></trkpt><trkpt lat="42.2588302" lon="14.135205"><ele>276.0</ele><time>2026-04-26T13:00:04.757Z</time></trkpt><trkpt lat="42.258931" lon="14.1352215"><ele>276.0</ele><time>2026-04-26T13:00:05.757Z</time></trkpt><trkpt lat="42.259031" lon="14.1352323"><ele>277.40000000000003</ele><time>2026-04-26T13:00:06.758Z</time></trkpt><trkpt lat="42.2591248" lon="14.13524"><ele>278.8</ele><time>2026-04-26T13:00:07.757Z</time></trkpt><trkpt lat="42.2591965" lon="14.1352457"><ele>280.20000000000005</ele><time>2026-04-26T13:00:08.758Z</time></trkpt><trkpt lat="42.2592965" lon="14.1352607"><ele>281.6</ele><time>2026-04-26T13:00:10.756Z</time></trkpt><trkpt lat="42.2594115" lon="14.1352803"><ele>283.0</ele><time>2026-04-26T13:00:12.759Z</time></trkpt><trkpt lat="42.2595135" lon="14.1353335"><ele>283.0</ele><time>2026-04-26T13:00:14.759Z</time></trkpt><trkpt lat="42.2595708" lon="14.1353785"><ele>283.0</ele><time>2026-04-26T13:00:20.759Z</time></trkpt><trkpt lat="42.2596407" lon="14.1353685"><ele>283.0</ele><time>2026-04-26T13:00:26.756Z</time></trkpt><trkpt lat="42.2596317" lon="14.1352557"><ele>283.0</ele><time>2026-04-26T13:00:29.763Z</time></trkpt><trkpt lat="42.2597367" lon="14.1352398"><ele>283.0</ele><time>2026-04-26T13:00:32.759Z</time></trkpt><trkpt lat="42.2598157" lon="14.1352692"><ele>283.0</ele><time>2026-04-26T13:00:33.759Z</time></trkpt><trkpt lat="42.2599082" lon="14.1352953"><ele>282.8</ele><time>2026-04-26T13:00:34.759Z</time></trkpt><trkpt lat="42.2600053" lon="14.1353145"><ele>282.6</ele><time>2026-04-26T13:00:35.761Z</time></trkpt><trkpt lat="42.2601" lon="14.1353318"><ele>282.4</ele><time>2026-04-26T13:00:36.759Z</time></trkpt><trkpt lat="42.2601948" lon="14.1353622"><ele>282.2</ele><time>2026-04-26T13:00:37.759Z</time></trkpt><trkpt lat="42.2602887" lon="14.1353973"><ele>282.0</ele><time>2026-04-26T13:00:38.758Z</time></trkpt><trkpt lat="42.260382" lon="14.135423"><ele>282.0</ele><time>2026-04-26T13:00:39.762Z</time></trkpt><trkpt lat="42.26048" lon="14.1354445"><ele>282.0</ele><time>2026-04-26T13:00:40.754Z</time></trkpt><trkpt lat="42.2605765" lon="14.135464"><ele>282.0</ele><time>2026-04-26T13:00:41.756Z</time></trkpt><trkpt lat="42.2606618" lon="14.135509"><ele>282.0</ele><time>2026-04-26T13:00:42.755Z</time></trkpt><trkpt lat="42.2607615" lon="14.135595"><ele>282.0</ele><time>2026-04-26T13:00:43.755Z</time></trkpt><trkpt lat="42.2608598" lon="14.1356992"><ele>278.5</ele><time>2026-04-26T13:00:44.755Z</time></trkpt><trkpt lat="42.2609513" lon="14.135806"><ele>275.0</ele><time>2026-04-26T13:00:45.758Z</time></trkpt><trkpt lat="42.2610438" lon="14.1359143"><ele>271.5</ele><time>2026-04-26T13:00:46.757Z</time></trkpt><trkpt lat="42.2611305" lon="14.136031"><ele>268.0</ele><time>2026-04-26T13:00:47.757Z</time></trkpt><trkpt lat="42.2612115" lon="14.1361552"><ele>268.0</ele><time>2026-04-26T13:00:48.757Z</time></trkpt><trkpt lat="42.2612873" lon="14.1362695"><ele>268.0</ele><time>2026-04-26T13:00:49.755Z</time></trkpt><trkpt lat="42.26137" lon="14.1363705"><ele>268.0</ele><time>2026-04-26T13:00:50.756Z</time></trkpt><trkpt lat="42.2614647" lon="14.1364603"><ele>268.0</ele><time>2026-04-26T13:00:51.756Z</time></trkpt><trkpt lat="42.2615573" lon="14.1365388"><ele>265.6</ele><time>2026-04-26T13:00:52.755Z</time></trkpt><trkpt lat="42.2616397" lon="14.1366277"><ele>263.20000000000005</ele><time>2026-04-26T13:00:53.756Z</time></trkpt><trkpt lat="42.2617058" lon="14.1367263"><ele>260.8</ele><time>2026-04-26T13:00:54.756Z</time></trkpt><trkpt lat="42.2617638" lon="14.136834"><ele>258.40000000000003</ele><time>2026-04-26T13:00:55.755Z</time></trkpt><trkpt lat="42.2618075" lon="14.136933"><ele>256.0</ele><time>2026-04-26T13:00:56.756Z</time></trkpt><trkpt lat="42.2618193" lon="14.137036"><ele>255.99999999999997</ele><time>2026-04-26T13:00:57.756Z</time></trkpt><trkpt lat="42.2618145" lon="14.1371468"><ele>256.0</ele><time>2026-04-26T13:00:58.757Z</time></trkpt><trkpt lat="42.2617968" lon="14.1372547"><ele>256.0</ele><time>2026-04-26T13:00:59.759Z</time></trkpt><trkpt lat="42.2617737" lon="14.1373495"><ele>256.0</ele><time>2026-04-26T13:01:00.76Z</time></trkpt><trkpt lat="42.2617467" lon="14.137477"><ele>255.99999999999997</ele><time>2026-04-26T13:01:02.759Z</time></trkpt><trkpt lat="42.261746" lon="14.1375642"><ele>256.0</ele><time>2026-04-26T13:01:07.758Z</time></trkpt><trkpt lat="42.261781" lon="14.1376608"><ele>256.5</ele><time>2026-04-26T13:01:11.759Z</time></trkpt><trkpt lat="42.2617787" lon="14.1377733"><ele>257.0</ele><time>2026-04-26T13:02:07.761Z</time></trkpt><trkpt lat="42.2617432" lon="14.1378743"><ele>257.5</ele><time>2026-04-26T13:02:09.761Z</time></trkpt><trkpt lat="42.2616797" lon="14.138015"><ele>258.0</ele><time>2026-04-26T13:02:11.76Z</time></trkpt><trkpt lat="42.2616363" lon="14.1381002"><ele>258.5</ele><time>2026-04-26T13:02:12.761Z</time></trkpt><trkpt lat="42.2615932" lon="14.138182"><ele>259.0</ele><time>2026-04-26T13:02:13.76Z</time></trkpt><trkpt lat="42.2615482" lon="14.1382675"><ele>259.0</ele><time>2026-04-26T13:02:14.759Z</time></trkpt><trkpt lat="42.2614938" lon="14.1383612"><ele>259.0</ele><time>2026-04-26T13:02:15.762Z</time></trkpt><trkpt lat="42.2614342" lon="14.13845"><ele>259.0</ele><time>2026-04-26T13:02:16.76Z</time></trkpt><trkpt lat="42.2613693" lon="14.138534"><ele>259.0</ele><time>2026-04-26T13:02:17.76Z</time></trkpt><trkpt lat="42.2613027" lon="14.1386258"><ele>259.0</ele><time>2026-04-26T13:02:18.764Z</time></trkpt><trkpt lat="42.2612377" lon="14.1387422"><ele>262.5</ele><time>2026-04-26T13:02:19.761Z</time></trkpt><trkpt lat="42.2611833" lon="14.138868"><ele>266.0</ele><time>2026-04-26T13:02:20.762Z</time></trkpt><trkpt lat="42.2611567" lon="14.138968"><ele>269.5</ele><time>2026-04-26T13:02:21.762Z</time></trkpt><trkpt lat="42.2611737" lon="14.1390867"><ele>273.0</ele><time>2026-04-26T13:02:23.761Z</time></trkpt><trkpt lat="42.2612185" lon="14.1392133"><ele>276.5</ele><time>2026-04-26T13:02:25.761Z</time></trkpt><trkpt lat="42.2612422" lon="14.1392953"><ele>280.0</ele><time>2026-04-26T13:02:26.759Z</time></trkpt><trkpt lat="42.2612687" lon="14.1393752"><ele>280.3333333333333</ele><time>2026-04-26T13:02:27.759Z</time></trkpt><trkpt lat="42.2613025" lon="14.139453"><ele>280.66666666666663</ele><time>2026-04-26T13:02:28.758Z</time></trkpt><trkpt lat="42.2613747" lon="14.1395718"><ele>281.0</ele><time>2026-04-26T13:02:30.76Z</time></trkpt><trkpt lat="42.2614427" lon="14.139639"><ele>281.3333333333333</ele><time>2026-04-26T13:02:32.759Z</time></trkpt><trkpt lat="42.2615375" lon="14.1396242"><ele>281.6666666666667</ele><time>2026-04-26T13:02:35.759Z</time></trkpt><trkpt lat="42.2616158" lon="14.1396155"><ele>282.0</ele><time>2026-04-26T13:02:37.759Z</time></trkpt><trkpt lat="42.2617213" lon="14.1396428"><ele>278.5</ele><time>2026-04-26T13:02:39.762Z</time></trkpt><trkpt lat="42.2618243" lon="14.1397"><ele>275.0</ele><time>2026-04-26T13:02:41.76Z</time></trkpt><trkpt lat="42.261883" lon="14.1397417"><ele>271.5</ele><time>2026-04-26T13:02:43.761Z</time></trkpt><trkpt lat="42.2619552" lon="14.1397915"><ele>268.0</ele><time>2026-04-26T13:02:46.761Z</time></trkpt><trkpt lat="42.2620267" lon="14.1398467"><ele>264.5</ele><time>2026-04-26T13:02:49.76Z</time></trkpt><trkpt lat="42.2620817" lon="14.1399383"><ele>261.0</ele><time>2026-04-26T13:02:52.757Z</time></trkpt><trkpt lat="42.262126" lon="14.140074"><ele>261.0</ele><time>2026-04-26T13:02:54.757Z</time></trkpt><trkpt lat="42.262158" lon="14.1401633"><ele>261.0</ele><time>2026-04-26T13:02:55.76Z</time></trkpt><trkpt lat="42.262193" lon="14.1402527"><ele>261.0</ele><time>2026-04-26T13:02:56.761Z</time></trkpt><trkpt lat="42.2622223" lon="14.1403488"><ele>261.0</ele><time>2026-04-26T13:02:57.759Z</time></trkpt><trkpt lat="42.2622513" lon="14.1404512"><ele>261.0</ele><time>2026-04-26T13:02:58.759Z</time></trkpt><trkpt lat="42.262281" lon="14.1405523"><ele>261.0</ele><time>2026-04-26T13:02:59.76Z</time></trkpt><trkpt lat="42.262312" lon="14.140665"><ele>257.8333333333333</ele><time>2026-04-26T13:03:00.759Z</time></trkpt><trkpt lat="42.2623432" lon="14.1407895"><ele>254.66666666666669</ele><time>2026-04-26T13:03:01.759Z</time></trkpt><trkpt lat="42.2623617" lon="14.1409125"><ele>251.5</ele><time>2026-04-26T13:03:02.763Z</time></trkpt><trkpt lat="42.2623793" lon="14.1410245"><ele>248.33333333333334</ele><time>2026-04-26T13:03:03.76Z</time></trkpt><trkpt lat="42.2624085" lon="14.1411348"><ele>245.16666666666669</ele><time>2026-04-26T13:03:04.759Z</time></trkpt><trkpt lat="42.2624442" lon="14.141217"><ele>242.0</ele><time>2026-04-26T13:03:05.762Z</time></trkpt><trkpt lat="42.2625238" lon="14.1413107"><ele>242.00000000000003</ele><time>2026-04-26T13:03:07.759Z</time></trkpt><trkpt lat="42.2625908" lon="14.1413378"><ele>242.0</ele><time>2026-04-26T13:03:08.759Z</time></trkpt><trkpt lat="42.262671" lon="14.1413522"><ele>242.0</ele><time>2026-04-26T13:03:09.764Z</time></trkpt><trkpt lat="42.2627513" lon="14.1413587"><ele>242.0</ele><time>2026-04-26T13:03:10.759Z</time></trkpt><trkpt lat="42.2628307" lon="14.1413603"><ele>242.00000000000003</ele><time>2026-04-26T13:03:11.76Z</time></trkpt><trkpt lat="42.2628952" lon="14.1413225"><ele>242.0</ele><time>2026-04-26T13:03:12.759Z</time></trkpt><trkpt lat="42.262975" lon="14.1412605"><ele>242.0</ele><time>2026-04-26T13:03:13.759Z</time></trkpt><trkpt lat="42.2630675" lon="14.1412042"><ele>242.0</ele><time>2026-04-26T13:03:14.759Z</time></trkpt><trkpt lat="42.263161" lon="14.1411565"><ele>242.0</ele><time>2026-04-26T13:03:15.757Z</time></trkpt><trkpt lat="42.2632567" lon="14.1411413"><ele>242.0</ele><time>2026-04-26T13:03:16.758Z</time></trkpt><trkpt lat="42.263353" lon="14.1411535"><ele>242.0</ele><time>2026-04-26T13:03:17.757Z</time></trkpt><trkpt lat="42.2634585" lon="14.1411635"><ele>238.0</ele><time>2026-04-26T13:03:18.758Z</time></trkpt><trkpt lat="42.2635648" lon="14.14117"><ele>234.0</ele><time>2026-04-26T13:03:19.757Z</time></trkpt><trkpt lat="42.2636693" lon="14.1411795"><ele>230.0</ele><time>2026-04-26T13:03:20.759Z</time></trkpt><trkpt lat="42.2637728" lon="14.1411937"><ele>226.0</ele><time>2026-04-26T13:03:21.761Z</time></trkpt><trkpt lat="42.2638805" lon="14.141206"><ele>222.0</ele><time>2026-04-26T13:03:22.761Z</time></trkpt><trkpt lat="42.263983" lon="14.1412128"><ele>218.2</ele><time>2026-04-26T13:03:23.761Z</time></trkpt><trkpt lat="42.2640807" lon="14.1412243"><ele>214.39999999999998</ele><time>2026-04-26T13:03:24.761Z</time></trkpt><trkpt lat="42.2641632" lon="14.1412387"><ele>210.60000000000002</ele><time>2026-04-26T13:03:25.76Z</time></trkpt><trkpt lat="42.2642537" lon="14.1411952"><ele>206.8</ele><time>2026-04-26T13:03:27.759Z</time></trkpt><trkpt lat="42.2642718" lon="14.141014"><ele>203.0</ele><time>2026-04-26T13:03:29.761Z</time></trkpt><trkpt lat="42.264294" lon="14.1409188"><ele>203.0</ele><time>2026-04-26T13:03:30.76Z</time></trkpt><trkpt lat="42.2643267" lon="14.1408245"><ele>203.0</ele><time>2026-04-26T13:03:31.76Z</time></trkpt><trkpt lat="42.2643867" lon="14.1407368"><ele>203.0</ele><time>2026-04-26T13:03:33.76Z</time></trkpt><trkpt lat="42.2644978" lon="14.1407205"><ele>203.0</ele><time>2026-04-26T13:03:35.758Z</time></trkpt><trkpt lat="42.264582" lon="14.140701"><ele>203.0</ele><time>2026-04-26T13:03:36.759Z</time></trkpt><trkpt lat="42.2646763" lon="14.1406808"><ele>202.2</ele><time>2026-04-26T13:03:37.757Z</time></trkpt><trkpt lat="42.2647722" lon="14.1406628"><ele>201.4</ele><time>2026-04-26T13:03:38.758Z</time></trkpt><trkpt lat="42.2648702" lon="14.1406457"><ele>200.6</ele><time>2026-04-26T13:03:39.758Z</time></trkpt><trkpt lat="42.2649757" lon="14.1406368"><ele>199.79999999999998</ele><time>2026-04-26T13:03:40.755Z</time></trkpt><trkpt lat="42.265086" lon="14.1406305"><ele>199.0</ele><time>2026-04-26T13:03:41.755Z</time></trkpt><trkpt lat="42.2651997" lon="14.1406293"><ele>195.79999999999998</ele><time>2026-04-26T13:03:42.755Z</time></trkpt><trkpt lat="42.2653177" lon="14.1406242"><ele>192.6</ele><time>2026-04-26T13:03:43.757Z</time></trkpt><trkpt lat="42.2654272" lon="14.1406088"><ele>189.4</ele><time>2026-04-26T13:03:44.759Z</time></trkpt><trkpt lat="42.2655257" lon="14.1405913"><ele>186.2</ele><time>2026-04-26T13:03:45.758Z</time></trkpt><trkpt lat="42.2656183" lon="14.1405802"><ele>183.0</ele><time>2026-04-26T13:03:46.758Z</time></trkpt><trkpt lat="42.2656922" lon="14.1405953"><ele>181.8</ele><time>2026-04-26T13:03:47.758Z</time></trkpt><trkpt lat="42.2657762" lon="14.1407142"><ele>180.60000000000002</ele><time>2026-04-26T13:03:49.761Z</time></trkpt><trkpt lat="42.2658212" lon="14.1408102"><ele>179.39999999999998</ele><time>2026-04-26T13:03:50.76Z</time></trkpt><trkpt lat="42.2658743" lon="14.1409172"><ele>178.2</ele><time>2026-04-26T13:03:51.76Z</time></trkpt><trkpt lat="42.265922" lon="14.1410257"><ele>177.0</ele><time>2026-04-26T13:03:52.759Z</time></trkpt><trkpt lat="42.265961" lon="14.1411253"><ele>177.0</ele><time>2026-04-26T13:03:53.759Z</time></trkpt><trkpt lat="42.265992" lon="14.1412177"><ele>177.0</ele><time>2026-04-26T13:03:54.761Z</time></trkpt><trkpt lat="42.2660368" lon="14.1413477"><ele>177.0</ele><time>2026-04-26T13:03:56.758Z</time></trkpt><trkpt lat="42.2660977" lon="14.1414657"><ele>177.0</ele><time>2026-04-26T13:03:58.756Z</time></trkpt><trkpt lat="42.2661282" lon="14.1415408"><ele>177.0</ele><time>2026-04-26T13:03:59.758Z</time></trkpt><trkpt lat="42.2661488" lon="14.1416305"><ele>177.0</ele><time>2026-04-26T13:04:00.759Z</time></trkpt><trkpt lat="42.2661638" lon="14.1417237"><ele>177.0</ele><time>2026-04-26T13:04:01.756Z</time></trkpt><trkpt lat="42.2662113" lon="14.1418305"><ele>177.0</ele><time>2026-04-26T13:04:03.757Z</time></trkpt><trkpt lat="42.2663012" lon="14.1417753"><ele>177.0</ele><time>2026-04-26T13:04:06.754Z</time></trkpt><trkpt lat="42.2663638" lon="14.141669"><ele>177.0</ele><time>2026-04-26T13:04:08.756Z</time></trkpt><trkpt lat="42.2664057" lon="14.1415468"><ele>177.0</ele><time>2026-04-26T13:04:10.759Z</time></trkpt><trkpt lat="42.2664475" lon="14.1414475"><ele>176.83333333333334</ele><time>2026-04-26T13:04:12.757Z</time></trkpt><trkpt lat="42.2664937" lon="14.1415412"><ele>176.66666666666666</ele><time>2026-04-26T13:04:38.761Z</time></trkpt><trkpt lat="42.266485" lon="14.1416915"><ele>176.5</ele><time>2026-04-26T13:04:40.76Z</time></trkpt><trkpt lat="42.2664757" lon="14.1417908"><ele>176.33333333333331</ele><time>2026-04-26T13:04:41.758Z</time></trkpt><trkpt lat="42.2664642" lon="14.1419042"><ele>176.16666666666666</ele><time>2026-04-26T13:04:42.759Z</time></trkpt><trkpt lat="42.2664395" lon="14.1420178"><ele>176.0</ele><time>2026-04-26T13:04:43.759Z</time></trkpt><trkpt lat="42.266402" lon="14.142126"><ele>176.0</ele><time>2026-04-26T13:04:44.759Z</time></trkpt><trkpt lat="42.2663637" lon="14.14223"><ele>176.0</ele><time>2026-04-26T13:04:45.759Z</time></trkpt><trkpt lat="42.2663257" lon="14.1423257"><ele>176.0</ele><time>2026-04-26T13:04:46.758Z</time></trkpt><trkpt lat="42.2662883" lon="14.1424162"><ele>176.0</ele><time>2026-04-26T13:04:47.76Z</time></trkpt><trkpt lat="42.2662657" lon="14.1425107"><ele>176.0</ele><time>2026-04-26T13:04:48.758Z</time></trkpt><trkpt lat="42.2662653" lon="14.1426128"><ele>176.0</ele><time>2026-04-26T13:04:49.758Z</time></trkpt><trkpt lat="42.2662817" lon="14.1427237"><ele>176.66666666666666</ele><time>2026-04-26T13:04:50.757Z</time></trkpt><trkpt lat="42.2663038" lon="14.1428392"><ele>177.33333333333331</ele><time>2026-04-26T13:04:51.758Z</time></trkpt><trkpt lat="42.2663308" lon="14.1429577"><ele>178.0</ele><time>2026-04-26T13:04:52.757Z</time></trkpt><trkpt lat="42.2663652" lon="14.1430783"><ele>178.66666666666666</ele><time>2026-04-26T13:04:53.756Z</time></trkpt><trkpt lat="42.2663942" lon="14.143193"><ele>179.33333333333334</ele><time>2026-04-26T13:04:54.756Z</time></trkpt><trkpt lat="42.2664077" lon="14.1432915"><ele>180.0</ele><time>2026-04-26T13:04:55.756Z</time></trkpt><trkpt lat="42.266393" lon="14.1434692"><ele>181.83333333333334</ele><time>2026-04-26T13:04:57.761Z</time></trkpt><trkpt lat="42.2663728" lon="14.1435762"><ele>183.66666666666666</ele><time>2026-04-26T13:04:58.759Z</time></trkpt><trkpt lat="42.2663563" lon="14.1436895"><ele>185.5</ele><time>2026-04-26T13:04:59.759Z</time></trkpt><trkpt lat="42.2663477" lon="14.1438073"><ele>187.33333333333331</ele><time>2026-04-26T13:05:00.761Z</time></trkpt><trkpt lat="42.2663512" lon="14.1439317"><ele>189.16666666666666</ele><time>2026-04-26T13:05:01.759Z</time></trkpt><trkpt lat="42.2663672" lon="14.14406"><ele>191.0</ele><time>2026-04-26T13:05:02.759Z</time></trkpt><trkpt lat="42.2663883" lon="14.1441898"><ele>193.0</ele><time>2026-04-26T13:05:03.759Z</time></trkpt><trkpt lat="42.2664095" lon="14.1443255"><ele>195.0</ele><time>2026-04-26T13:05:04.759Z</time></trkpt><trkpt lat="42.2664193" lon="14.1444652"><ele>197.0</ele><time>2026-04-26T13:05:05.759Z</time></trkpt><trkpt lat="42.2664185" lon="14.1446072"><ele>199.0</ele><time>2026-04-26T13:05:06.758Z</time></trkpt><trkpt lat="42.2664165" lon="14.1447467"><ele>201.0</ele><time>2026-04-26T13:05:07.758Z</time></trkpt><trkpt lat="42.2664283" lon="14.1448843"><ele>203.4</ele><time>2026-04-26T13:05:08.757Z</time></trkpt><trkpt lat="42.2664577" lon="14.1450108"><ele>205.8</ele><time>2026-04-26T13:05:09.76Z</time></trkpt><trkpt lat="42.2664717" lon="14.1451237"><ele>208.20000000000002</ele><time>2026-04-26T13:05:10.758Z</time></trkpt><trkpt lat="42.2664663" lon="14.1452395"><ele>210.60000000000002</ele><time>2026-04-26T13:05:11.76Z</time></trkpt><trkpt lat="42.2664503" lon="14.1453653"><ele>213.0</ele><time>2026-04-26T13:05:12.758Z</time></trkpt><trkpt lat="42.266431" lon="14.1454987"><ele>213.0</ele><time>2026-04-26T13:05:13.758Z</time></trkpt><trkpt lat="42.2664115" lon="14.1456333"><ele>213.0</ele><time>2026-04-26T13:05:14.76Z</time></trkpt><trkpt lat="42.2664013" lon="14.1457718"><ele>213.0</ele><time>2026-04-26T13:05:15.762Z</time></trkpt><trkpt lat="42.2663962" lon="14.145918"><ele>213.0</ele><time>2026-04-26T13:05:16.757Z</time></trkpt><trkpt lat="42.2663978" lon="14.1460647"><ele>213.0</ele><time>2026-04-26T13:05:17.758Z</time></trkpt><trkpt lat="42.2663998" lon="14.1462017"><ele>217.5</ele><time>2026-04-26T13:05:18.76Z</time></trkpt><trkpt lat="42.266384" lon="14.1463217"><ele>222.0</ele><time>2026-04-26T13:05:19.757Z</time></trkpt><trkpt lat="42.2663513" lon="14.146435"><ele>226.5</ele><time>2026-04-26T13:05:20.757Z</time></trkpt><trkpt lat="42.2663087" lon="14.1465398"><ele>231.0</ele><time>2026-04-26T13:05:21.757Z</time></trkpt><trkpt lat="42.26626" lon="14.1466372"><ele>235.5</ele><time>2026-04-26T13:05:22.758Z</time></trkpt><trkpt lat="42.2662115" lon="14.1467275"><ele>240.0</ele><time>2026-04-26T13:05:23.759Z</time></trkpt><trkpt lat="42.2661827" lon="14.1468142"><ele>242.33333333333334</ele><time>2026-04-26T13:05:24.76Z</time></trkpt><trkpt lat="42.2661828" lon="14.1469052"><ele>244.66666666666669</ele><time>2026-04-26T13:05:25.758Z</time></trkpt><trkpt lat="42.2661992" lon="14.1470133"><ele>247.0</ele><time>2026-04-26T13:05:26.758Z</time></trkpt><trkpt lat="42.266225" lon="14.1471312"><ele>249.33333333333334</ele><time>2026-04-26T13:05:27.759Z</time></trkpt><trkpt lat="42.266249" lon="14.1472528"><ele>251.66666666666669</ele><time>2026-04-26T13:05:28.76Z</time></trkpt><trkpt lat="42.2662665" lon="14.1473617"><ele>254.0</ele><time>2026-04-26T13:05:29.762Z</time></trkpt><trkpt lat="42.266277" lon="14.1474472"><ele>254.0</ele><time>2026-04-26T13:05:30.762Z</time></trkpt><trkpt lat="42.2662885" lon="14.1475513"><ele>253.99999999999997</ele><time>2026-04-26T13:05:32.76Z</time></trkpt><trkpt lat="42.2662948" lon="14.1476558"><ele>253.99999999999997</ele><time>2026-04-26T13:06:33.76Z</time></trkpt><trkpt lat="42.2663225" lon="14.147856"><ele>254.0</ele><time>2026-04-26T13:06:35.758Z</time></trkpt><trkpt lat="42.266342" lon="14.148006"><ele>254.0</ele><time>2026-04-26T13:06:36.759Z</time></trkpt><trkpt lat="42.2663612" lon="14.1481782"><ele>254.39999999999998</ele><time>2026-04-26T13:06:37.76Z</time></trkpt><trkpt lat="42.2663778" lon="14.1483328"><ele>254.79999999999998</ele><time>2026-04-26T13:06:38.764Z</time></trkpt><trkpt lat="42.266393" lon="14.1484695"><ele>255.20000000000002</ele><time>2026-04-26T13:06:39.762Z</time></trkpt><trkpt lat="42.2664063" lon="14.1486017"><ele>255.60000000000002</ele><time>2026-04-26T13:06:40.762Z</time></trkpt><trkpt lat="42.266418" lon="14.1487465"><ele>256.0</ele><time>2026-04-26T13:06:41.762Z</time></trkpt><trkpt lat="42.2664283" lon="14.148909"><ele>256.8</ele><time>2026-04-26T13:06:42.764Z</time></trkpt><trkpt lat="42.2664298" lon="14.1490643"><ele>257.6</ele><time>2026-04-26T13:06:43.762Z</time></trkpt><trkpt lat="42.2664365" lon="14.1491935"><ele>258.4</ele><time>2026-04-26T13:06:44.761Z</time></trkpt><trkpt lat="42.2664465" lon="14.149286"><ele>259.2</ele><time>2026-04-26T13:06:45.761Z</time></trkpt><trkpt lat="42.2664477" lon="14.1494268"><ele>260.0</ele><time>2026-04-26T13:06:48.762Z</time></trkpt><trkpt lat="42.266424" lon="14.1495097"><ele>260.0</ele><time>2026-04-26T13:06:49.76Z</time></trkpt><trkpt lat="42.2663918" lon="14.1496248"><ele>260.0</ele><time>2026-04-26T13:06:50.76Z</time></trkpt><trkpt lat="42.266354" lon="14.149773"><ele>260.0</ele><time>2026-04-26T13:06:51.763Z</time></trkpt><trkpt lat="42.2663143" lon="14.1499357"><ele>260.0</ele><time>2026-04-26T13:06:52.76Z</time></trkpt><trkpt lat="42.2662805" lon="14.15007"><ele>260.0</ele><time>2026-04-26T13:06:53.76Z</time></trkpt><trkpt lat="42.2662543" lon="14.1501705"><ele>260.0</ele><time>2026-04-26T13:06:54.759Z</time></trkpt><trkpt lat="42.2662345" lon="14.150331"><ele>260.0</ele><time>2026-04-26T13:06:56.758Z</time></trkpt><trkpt lat="42.26625" lon="14.1502223"><ele>260.0</ele><time>2026-04-26T13:07:06.76Z</time></trkpt><trkpt lat="42.26628" lon="14.1500935"><ele>260.0</ele><time>2026-04-26T13:07:07.761Z</time></trkpt><trkpt lat="42.2663205" lon="14.1499122"><ele>260.0</ele><time>2026-04-26T13:07:08.758Z</time></trkpt><trkpt lat="42.2663623" lon="14.1497262"><ele>260.0</ele><time>2026-04-26T13:07:09.76Z</time></trkpt><trkpt lat="42.2664028" lon="14.1495555"><ele>260.0</ele><time>2026-04-26T13:07:10.76Z</time></trkpt><trkpt lat="42.266446" lon="14.1494127"><ele>260.0</ele><time>2026-04-26T13:07:11.762Z</time></trkpt><trkpt lat="42.2664898" lon="14.1493117"><ele>260.0</ele><time>2026-04-26T13:07:12.76Z</time></trkpt><trkpt lat="42.2666097" lon="14.1492518"><ele>267.5</ele><time>2026-04-26T13:07:14.758Z</time></trkpt><trkpt lat="42.266708" lon="14.1492697"><ele>275.0</ele><time>2026-04-26T13:07:15.759Z</time></trkpt><trkpt lat="42.2668358" lon="14.149306"><ele>282.5</ele><time>2026-04-26T13:07:16.758Z</time></trkpt><trkpt lat="42.26698" lon="14.1493468"><ele>290.0</ele><time>2026-04-26T13:07:17.758Z</time></trkpt><trkpt lat="42.2671193" lon="14.149388"><ele>290.0</ele><time>2026-04-26T13:07:18.762Z</time></trkpt><trkpt lat="42.2672595" lon="14.1494298"><ele>290.0</ele><time>2026-04-26T13:07:19.758Z</time></trkpt><trkpt lat="42.2674003" lon="14.149473"><ele>290.0</ele><time>2026-04-26T13:07:20.758Z</time></trkpt><trkpt lat="42.2675358" lon="14.1495167"><ele>290.0</ele><time>2026-04-26T13:07:21.757Z</time></trkpt><trkpt lat="42.2676585" lon="14.149557"><ele>287.25</ele><time>2026-04-26T13:07:22.756Z</time></trkpt><trkpt lat="42.2677723" lon="14.1495983"><ele>284.5</ele><time>2026-04-26T13:07:23.757Z</time></trkpt><trkpt lat="42.2678813" lon="14.1496508"><ele>281.75</ele><time>2026-04-26T13:07:24.757Z</time></trkpt><trkpt lat="42.2679973" lon="14.1497075"><ele>279.0</ele><time>2026-04-26T13:07:25.759Z</time></trkpt><trkpt lat="42.268115" lon="14.1497513"><ele>278.75</ele><time>2026-04-26T13:07:26.759Z</time></trkpt><trkpt lat="42.2682287" lon="14.149787"><ele>278.5</ele><time>2026-04-26T13:07:27.759Z</time></trkpt><trkpt lat="42.268347" lon="14.149818"><ele>278.25</ele><time>2026-04-26T13:07:28.76Z</time></trkpt><trkpt lat="42.268474" lon="14.1498437"><ele>278.0</ele><time>2026-04-26T13:07:29.756Z</time></trkpt><trkpt lat="42.2685933" lon="14.1498785"><ele>278.0</ele><time>2026-04-26T13:07:30.76Z</time></trkpt><trkpt lat="42.2686948" lon="14.1499245"><ele>278.0</ele><time>2026-04-26T13:07:31.757Z</time></trkpt><trkpt lat="42.2687925" lon="14.149942"><ele>278.0</ele><time>2026-04-26T13:07:32.757Z</time></trkpt><trkpt lat="42.268866" lon="14.1499345"><ele>278.0</ele><time>2026-04-26T13:07:33.759Z</time></trkpt><trkpt lat="42.2689792" lon="14.1499497"><ele>278.0</ele><time>2026-04-26T13:07:35.758Z</time></trkpt><trkpt lat="42.2690458" lon="14.1499233"><ele>277.2</ele><time>2026-04-26T13:07:39.761Z</time></trkpt><trkpt lat="42.2691205" lon="14.1498485"><ele>276.4</ele><time>2026-04-26T13:07:43.758Z</time></trkpt><trkpt lat="42.2692125" lon="14.149802"><ele>275.59999999999997</ele><time>2026-04-26T13:07:45.758Z</time></trkpt><trkpt lat="42.269291" lon="14.1497518"><ele>274.8</ele><time>2026-04-26T13:07:47.756Z</time></trkpt><trkpt lat="42.2693772" lon="14.1497092"><ele>274.0</ele><time>2026-04-26T13:07:50.76Z</time></trkpt><trkpt lat="42.269462" lon="14.1497243"><ele>274.0</ele><time>2026-04-26T13:07:52.757Z</time></trkpt><trkpt lat="42.269583" lon="14.1497642"><ele>274.0</ele><time>2026-04-26T13:07:54.758Z</time></trkpt><trkpt lat="42.2696465" lon="14.1497878"><ele>274.0</ele><time>2026-04-26T13:07:55.76Z</time></trkpt><trkpt lat="42.269755" lon="14.1498275"><ele>274.0</ele><time>2026-04-26T13:07:57.764Z</time></trkpt><trkpt lat="42.2698527" lon="14.1498427"><ele>274.0</ele><time>2026-04-26T13:07:59.761Z</time></trkpt><trkpt lat="42.26997" lon="14.1498088"><ele>274.8</ele><time>2026-04-26T13:08:01.762Z</time></trkpt><trkpt lat="42.2700625" lon="14.1497833"><ele>275.59999999999997</ele><time>2026-04-26T13:08:03.761Z</time></trkpt><trkpt lat="42.2701475" lon="14.1497825"><ele>276.4</ele><time>2026-04-26T13:08:05.76Z</time></trkpt><trkpt lat="42.2702088" lon="14.1498392"><ele>277.2</ele><time>2026-04-26T13:08:07.763Z</time></trkpt><trkpt lat="42.2702573" lon="14.1500175"><ele>278.0</ele><time>2026-04-26T13:08:09.759Z</time></trkpt><trkpt lat="42.2702805" lon="14.1501548"><ele>278.75</ele><time>2026-04-26T13:08:10.76Z</time></trkpt><trkpt lat="42.2703013" lon="14.1503202"><ele>279.5</ele><time>2026-04-26T13:08:11.759Z</time></trkpt><trkpt lat="42.2703277" lon="14.1505077"><ele>280.25</ele><time>2026-04-26T13:08:12.758Z</time></trkpt><trkpt lat="42.2703678" lon="14.150716"><ele>281.0</ele><time>2026-04-26T13:08:13.758Z</time></trkpt><trkpt lat="42.2704195" lon="14.1509417"><ele>281.25</ele><time>2026-04-26T13:08:14.759Z</time></trkpt><trkpt lat="42.2704617" lon="14.151159"><ele>281.5</ele><time>2026-04-26T13:08:15.76Z</time></trkpt><trkpt lat="42.2704828" lon="14.1513492"><ele>281.75</ele><time>2026-04-26T13:08:16.761Z</time></trkpt><trkpt lat="42.2704745" lon="14.1515215"><ele>282.0</ele><time>2026-04-26T13:08:17.76Z</time></trkpt><trkpt lat="42.2704477" lon="14.1516923"><ele>282.25</ele><time>2026-04-26T13:08:18.758Z</time></trkpt><trkpt lat="42.2704233" lon="14.151876"><ele>282.5</ele><time>2026-04-26T13:08:19.759Z</time></trkpt><trkpt lat="42.2704097" lon="14.1520723"><ele>282.75</ele><time>2026-04-26T13:08:20.761Z</time></trkpt><trkpt lat="42.2704123" lon="14.152254"><ele>283.0</ele><time>2026-04-26T13:08:21.76Z</time></trkpt><trkpt lat="42.2704215" lon="14.1524185"><ele>283.0</ele><time>2026-04-26T13:08:22.759Z</time></trkpt><trkpt lat="42.2704247" lon="14.152566"><ele>283.0</ele><time>2026-04-26T13:08:23.76Z</time></trkpt><trkpt lat="42.2704103" lon="14.1526853"><ele>283.0</ele><time>2026-04-26T13:08:24.758Z</time></trkpt><trkpt lat="42.2703742" lon="14.1527713"><ele>283.0</ele><time>2026-04-26T13:08:25.759Z</time></trkpt><trkpt lat="42.2703235" lon="14.152825"><ele>283.0</ele><time>2026-04-26T13:08:26.763Z</time></trkpt><trkpt lat="42.2702595" lon="14.1528548"><ele>283.0</ele><time>2026-04-26T13:08:27.759Z</time></trkpt><trkpt lat="42.2701728" lon="14.1529052"><ele>283.0</ele><time>2026-04-26T13:08:29.76Z</time></trkpt><trkpt lat="42.270246" lon="14.1529833"><ele>283.0</ele><time>2026-04-26T13:08:33.76Z</time></trkpt><trkpt lat="42.2703125" lon="14.1529847"><ele>283.0</ele><time>2026-04-26T13:08:34.758Z</time></trkpt><trkpt lat="42.2703768" lon="14.152983"><ele>283.0</ele><time>2026-04-26T13:08:35.759Z</time></trkpt><trkpt lat="42.2704405" lon="14.1529908"><ele>283.0</ele><time>2026-04-26T13:08:37.76Z</time></trkpt><trkpt lat="42.2705265" lon="14.1529532"><ele>283.0</ele><time>2026-04-26T13:08:39.759Z</time></trkpt><trkpt lat="42.2706152" lon="14.1529052"><ele>282.0</ele><time>2026-04-26T13:08:40.76Z</time></trkpt><trkpt lat="42.270735" lon="14.1528437"><ele>281.0</ele><time>2026-04-26T13:08:41.76Z</time></trkpt><trkpt lat="42.2708647" lon="14.152776"><ele>280.0</ele><time>2026-04-26T13:08:42.762Z</time></trkpt><trkpt lat="42.270988" lon="14.152714"><ele>279.0</ele><time>2026-04-26T13:08:43.762Z</time></trkpt><trkpt lat="42.2711092" lon="14.1526543"><ele>279.0</ele><time>2026-04-26T13:08:44.76Z</time></trkpt><trkpt lat="42.2712303" lon="14.1525955"><ele>279.0</ele><time>2026-04-26T13:08:45.761Z</time></trkpt><trkpt lat="42.2713413" lon="14.1525413"><ele>279.0</ele><time>2026-04-26T13:08:46.76Z</time></trkpt><trkpt lat="42.2714403" lon="14.152493"><ele>279.0</ele><time>2026-04-26T13:08:47.761Z</time></trkpt><trkpt lat="42.2715147" lon="14.152461"><ele>279.0</ele><time>2026-04-26T13:08:48.761Z</time></trkpt><trkpt lat="42.2716137" lon="14.1524218"><ele>279.0</ele><time>2026-04-26T13:08:50.76Z</time></trkpt><trkpt lat="42.2716897" lon="14.1523855"><ele>279.0</ele><time>2026-04-26T13:08:52.764Z</time></trkpt><trkpt lat="42.2716187" lon="14.152378"><ele>279.0</ele><time>2026-04-26T13:08:57.762Z</time></trkpt><trkpt lat="42.2715592" lon="14.1524148"><ele>279.0</ele><time>2026-04-26T13:08:58.76Z</time></trkpt><trkpt lat="42.2714713" lon="14.1524612"><ele>279.0</ele><time>2026-04-26T13:08:59.758Z</time></trkpt><trkpt lat="42.2713578" lon="14.1525173"><ele>279.0</ele><time>2026-04-26T13:09:00.761Z</time></trkpt><trkpt lat="42.2712468" lon="14.152569"><ele>279.0</ele><time>2026-04-26T13:09:01.757Z</time></trkpt><trkpt lat="42.2711575" lon="14.1526173"><ele>279.0</ele><time>2026-04-26T13:09:02.762Z</time></trkpt><trkpt lat="42.271096" lon="14.1527083"><ele>279.0</ele><time>2026-04-26T13:09:04.763Z</time></trkpt><trkpt lat="42.271186" lon="14.1527222"><ele>279.0</ele><time>2026-04-26T13:09:07.759Z</time></trkpt><trkpt lat="42.2712515" lon="14.1527022"><ele>279.0</ele><time>2026-04-26T13:09:08.762Z</time></trkpt><trkpt lat="42.2713295" lon="14.152698"><ele>279.0</ele><time>2026-04-26T13:09:09.762Z</time></trkpt><trkpt lat="42.2714145" lon="14.1526985"><ele>276.99999999999994</ele><time>2026-04-26T13:09:10.76Z</time></trkpt><trkpt lat="42.2714943" lon="14.1526958"><ele>275.0</ele><time>2026-04-26T13:09:11.76Z</time></trkpt><trkpt lat="42.2715775" lon="14.1526858"><ele>273.0</ele><time>2026-04-26T13:09:12.761Z</time></trkpt><trkpt lat="42.271653" lon="14.1526667"><ele>271.0</ele><time>2026-04-26T13:09:13.762Z</time></trkpt><trkpt lat="42.27172" lon="14.1526598"><ele>269.0</ele><time>2026-04-26T13:09:14.76Z</time></trkpt><trkpt lat="42.271785" lon="14.15268"><ele>266.99999999999994</ele><time>2026-04-26T13:09:15.761Z</time></trkpt><trkpt lat="42.2718468" lon="14.1527167"><ele>265.0</ele><time>2026-04-26T13:09:16.76Z</time></trkpt><trkpt lat="42.2719087" lon="14.1527787"><ele>265.0</ele><time>2026-04-26T13:09:17.763Z</time></trkpt><trkpt lat="42.2719698" lon="14.1528602"><ele>265.0</ele><time>2026-04-26T13:09:18.761Z</time></trkpt><trkpt lat="42.2720278" lon="14.1529398"><ele>265.0</ele><time>2026-04-26T13:09:19.76Z</time></trkpt><trkpt lat="42.272082" lon="14.1530177"><ele>265.0</ele><time>2026-04-26T13:09:20.761Z</time></trkpt><trkpt lat="42.2721323" lon="14.1531108"><ele>265.0</ele><time>2026-04-26T13:09:21.76Z</time></trkpt><trkpt lat="42.2721827" lon="14.1532085"><ele>265.0</ele><time>2026-04-26T13:09:22.76Z</time></trkpt><trkpt lat="42.2722437" lon="14.1533022"><ele>260.4</ele><time>2026-04-26T13:09:23.758Z</time></trkpt><trkpt lat="42.2723157" lon="14.1533942"><ele>255.8</ele><time>2026-04-26T13:09:24.758Z</time></trkpt><trkpt lat="42.2723893" lon="14.153488"><ele>251.2</ele><time>2026-04-26T13:09:25.758Z</time></trkpt><trkpt lat="42.2724547" lon="14.1535807"><ele>246.6</ele><time>2026-04-26T13:09:26.758Z</time></trkpt><trkpt lat="42.2725098" lon="14.1536777"><ele>242.0</ele><time>2026-04-26T13:09:27.76Z</time></trkpt><trkpt lat="42.2725603" lon="14.1537717"><ele>242.00000000000003</ele><time>2026-04-26T13:09:28.758Z</time></trkpt><trkpt lat="42.2726052" lon="14.1538517"><ele>242.0</ele><time>2026-04-26T13:09:29.76Z</time></trkpt><trkpt lat="42.2726593" lon="14.1539117"><ele>242.0</ele><time>2026-04-26T13:09:30.762Z</time></trkpt><trkpt lat="42.2727268" lon="14.1539697"><ele>242.0</ele><time>2026-04-26T13:09:31.759Z</time></trkpt><trkpt lat="42.2727963" lon="14.1540385"><ele>242.00000000000003</ele><time>2026-04-26T13:09:32.761Z</time></trkpt><trkpt lat="42.2728708" lon="14.154105"><ele>242.0</ele><time>2026-04-26T13:09:33.763Z</time></trkpt><trkpt lat="42.272957" lon="14.1541608"><ele>239.39999999999998</ele><time>2026-04-26T13:09:34.76Z</time></trkpt><trkpt lat="42.2730497" lon="14.1542147"><ele>236.79999999999998</ele><time>2026-04-26T13:09:35.76Z</time></trkpt><trkpt lat="42.2731385" lon="14.154269"><ele>234.2</ele><time>2026-04-26T13:09:36.759Z</time></trkpt><trkpt lat="42.2732235" lon="14.1543215"><ele>231.6</ele><time>2026-04-26T13:09:37.759Z</time></trkpt><trkpt lat="42.2732942" lon="14.1543925"><ele>229.0</ele><time>2026-04-26T13:09:38.759Z</time></trkpt><trkpt lat="42.2733425" lon="14.1544918"><ele>226.49999999999997</ele><time>2026-04-26T13:09:39.76Z</time></trkpt><trkpt lat="42.2733772" lon="14.1545955"><ele>224.0</ele><time>2026-04-26T13:09:40.759Z</time></trkpt><trkpt lat="42.2734052" lon="14.1547"><ele>221.5</ele><time>2026-04-26T13:09:41.76Z</time></trkpt><trkpt lat="42.2734247" lon="14.1548025"><ele>219.0</ele><time>2026-04-26T13:09:42.761Z</time></trkpt><trkpt lat="42.2734443" lon="14.1548962"><ele>216.49999999999997</ele><time>2026-04-26T13:09:43.76Z</time></trkpt><trkpt lat="42.2734773" lon="14.1549788"><ele>214.0</ele><time>2026-04-26T13:09:44.761Z</time></trkpt><trkpt lat="42.2735245" lon="14.1550427"><ele>211.49999999999997</ele><time>2026-04-26T13:09:45.76Z</time></trkpt><trkpt lat="42.2735822" lon="14.1550932"><ele>209.0</ele><time>2026-04-26T13:09:46.759Z</time></trkpt><trkpt lat="42.2736543" lon="14.1551473"><ele>206.5</ele><time>2026-04-26T13:09:47.758Z</time></trkpt><trkpt lat="42.2737378" lon="14.1551947"><ele>204.0</ele><time>2026-04-26T13:09:48.755Z</time></trkpt><trkpt lat="42.2738092" lon="14.1552538"><ele>201.49999999999997</ele><time>2026-04-26T13:09:49.757Z</time></trkpt><trkpt lat="42.2738698" lon="14.1553412"><ele>199.0</ele><time>2026-04-26T13:09:50.757Z</time></trkpt><trkpt lat="42.2739227" lon="14.155443"><ele>197.99999999999997</ele><time>2026-04-26T13:09:51.758Z</time></trkpt><trkpt lat="42.2739693" lon="14.1555343"><ele>197.0</ele><time>2026-04-26T13:09:52.758Z</time></trkpt><trkpt lat="42.274021" lon="14.1555845"><ele>196.0</ele><time>2026-04-26T13:09:53.758Z</time></trkpt><trkpt lat="42.2740813" lon="14.15561"><ele>195.0</ele><time>2026-04-26T13:09:54.763Z</time></trkpt><trkpt lat="42.2741437" lon="14.155648"><ele>194.0</ele><time>2026-04-26T13:09:55.763Z</time></trkpt><trkpt lat="42.2741878" lon="14.15571"><ele>192.99999999999997</ele><time>2026-04-26T13:09:56.763Z</time></trkpt><trkpt lat="42.2742157" lon="14.155791"><ele>192.0</ele><time>2026-04-26T13:09:57.763Z</time></trkpt><trkpt lat="42.2742348" lon="14.1558758"><ele>191.0</ele><time>2026-04-26T13:09:58.759Z</time></trkpt><trkpt lat="42.274257" lon="14.1559743"><ele>190.0</ele><time>2026-04-26T13:09:59.76Z</time></trkpt><trkpt lat="42.2742915" lon="14.1560837"><ele>189.0</ele><time>2026-04-26T13:10:00.76Z</time></trkpt><trkpt lat="42.2743363" lon="14.1561972"><ele>188.0</ele><time>2026-04-26T13:10:01.759Z</time></trkpt><trkpt lat="42.274379" lon="14.1563047"><ele>187.0</ele><time>2026-04-26T13:10:02.759Z</time></trkpt><trkpt lat="42.2744043" lon="14.1563978"><ele>186.0</ele><time>2026-04-26T13:10:03.761Z</time></trkpt><trkpt lat="42.2744713" lon="14.156521"><ele>183.16666666666666</ele><time>2026-04-26T13:10:05.761Z</time></trkpt><trkpt lat="42.2745567" lon="14.1565972"><ele>180.33333333333334</ele><time>2026-04-26T13:10:07.759Z</time></trkpt><trkpt lat="42.2746338" lon="14.1566588"><ele>177.5</ele><time>2026-04-26T13:10:09.76Z</time></trkpt><trkpt lat="42.2747128" lon="14.1566477"><ele>174.66666666666669</ele><time>2026-04-26T13:10:12.757Z</time></trkpt><trkpt lat="42.2747798" lon="14.1566145"><ele>171.83333333333334</ele><time>2026-04-26T13:10:14.757Z</time></trkpt><trkpt lat="42.274875" lon="14.1565835"><ele>169.0</ele><time>2026-04-26T13:10:16.76Z</time></trkpt><trkpt lat="42.2749697" lon="14.1565862"><ele>170.0</ele><time>2026-04-26T13:10:18.761Z</time></trkpt><trkpt lat="42.275072" lon="14.1565567"><ele>171.0</ele><time>2026-04-26T13:10:20.76Z</time></trkpt><trkpt lat="42.2751592" lon="14.1564943"><ele>172.0</ele><time>2026-04-26T13:10:22.758Z</time></trkpt><trkpt lat="42.275241" lon="14.1564455"><ele>173.0</ele><time>2026-04-26T13:10:24.759Z</time></trkpt><trkpt lat="42.2753202" lon="14.1563985"><ele>174.0</ele><time>2026-04-26T13:10:27.758Z</time></trkpt><trkpt lat="42.2754053" lon="14.1564522"><ele>171.6</ele><time>2026-04-26T13:10:30.759Z</time></trkpt><trkpt lat="42.275442" lon="14.1565443"><ele>169.2</ele><time>2026-04-26T13:10:32.755Z</time></trkpt><trkpt lat="42.2755017" lon="14.1566785"><ele>166.79999999999998</ele><time>2026-04-26T13:10:34.76Z</time></trkpt><trkpt lat="42.2755748" lon="14.1567375"><ele>164.39999999999998</ele><time>2026-04-26T13:10:36.759Z</time></trkpt><trkpt lat="42.2756798" lon="14.1566887"><ele>162.0</ele><time>2026-04-26T13:10:38.76Z</time></trkpt><trkpt lat="42.2757445" lon="14.1566322"><ele>162.8</ele><time>2026-04-26T13:10:39.758Z</time></trkpt><trkpt lat="42.2758152" lon="14.1565645"><ele>163.6</ele><time>2026-04-26T13:10:40.759Z</time></trkpt><trkpt lat="42.275893" lon="14.1564923"><ele>164.4</ele><time>2026-04-26T13:10:41.761Z</time></trkpt><trkpt lat="42.2759858" lon="14.1564273"><ele>165.20000000000002</ele><time>2026-04-26T13:10:42.76Z</time></trkpt><trkpt lat="42.2760858" lon="14.1563665"><ele>166.0</ele><time>2026-04-26T13:10:43.759Z</time></trkpt><trkpt lat="42.2761775" lon="14.1563068"><ele>166.0</ele><time>2026-04-26T13:10:44.762Z</time></trkpt><trkpt lat="42.2762667" lon="14.1562428"><ele>166.0</ele><time>2026-04-26T13:10:45.761Z</time></trkpt><trkpt lat="42.2763632" lon="14.156176"><ele>166.0</ele><time>2026-04-26T13:10:46.761Z</time></trkpt><trkpt lat="42.2764657" lon="14.1561015"><ele>166.0</ele><time>2026-04-26T13:10:47.762Z</time></trkpt><trkpt lat="42.2765782" lon="14.1560313"><ele>163.5</ele><time>2026-04-26T13:10:48.761Z</time></trkpt><trkpt lat="42.2766983" lon="14.1559647"><ele>161.0</ele><time>2026-04-26T13:10:49.757Z</time></trkpt><trkpt lat="42.2768175" lon="14.1558972"><ele>158.5</ele><time>2026-04-26T13:10:50.756Z</time></trkpt><trkpt lat="42.27694" lon="14.1558278"><ele>156.0</ele><time>2026-04-26T13:10:51.757Z</time></trkpt><trkpt lat="42.2770605" lon="14.155758"><ele>156.0</ele><time>2026-04-26T13:10:52.756Z</time></trkpt><trkpt lat="42.2771732" lon="14.1556927"><ele>156.0</ele><time>2026-04-26T13:10:53.757Z</time></trkpt><trkpt lat="42.2772777" lon="14.1556327"><ele>156.0</ele><time>2026-04-26T13:10:54.762Z</time></trkpt><trkpt lat="42.2773868" lon="14.1555722"><ele>156.0</ele><time>2026-04-26T13:10:55.76Z</time></trkpt><trkpt lat="42.2775027" lon="14.155504"><ele>156.0</ele><time>2026-04-26T13:10:56.758Z</time></trkpt><trkpt lat="42.2776213" lon="14.1554318"><ele>156.0</ele><time>2026-04-26T13:10:57.761Z</time></trkpt><trkpt lat="42.2777425" lon="14.1553572"><ele>156.0</ele><time>2026-04-26T13:10:58.76Z</time></trkpt><trkpt lat="42.2778668" lon="14.1552828"><ele>156.0</ele><time>2026-04-26T13:10:59.76Z</time></trkpt><trkpt lat="42.2779902" lon="14.1552138"><ele>152.5</ele><time>2026-04-26T13:11:00.758Z</time></trkpt><trkpt lat="42.2781178" lon="14.1551527"><ele>149.0</ele><time>2026-04-26T13:11:01.756Z</time></trkpt><trkpt lat="42.2782453" lon="14.1550962"><ele>145.5</ele><time>2026-04-26T13:11:02.756Z</time></trkpt><trkpt lat="42.2783693" lon="14.155039"><ele>142.0</ele><time>2026-04-26T13:11:03.759Z</time></trkpt><trkpt lat="42.2784845" lon="14.154976"><ele>142.0</ele><time>2026-04-26T13:11:04.759Z</time></trkpt><trkpt lat="42.2786" lon="14.1548987"><ele>142.0</ele><time>2026-04-26T13:11:05.759Z</time></trkpt><trkpt lat="42.2787157" lon="14.1548175"><ele>142.0</ele><time>2026-04-26T13:11:06.761Z</time></trkpt><trkpt lat="42.2788358" lon="14.1547332"><ele>142.0</ele><time>2026-04-26T13:11:07.76Z</time></trkpt><trkpt lat="42.2789643" lon="14.154648"><ele>141.66666666666669</ele><time>2026-04-26T13:11:08.759Z</time></trkpt><trkpt lat="42.2791007" lon="14.1545617"><ele>141.33333333333334</ele><time>2026-04-26T13:11:09.757Z</time></trkpt><trkpt lat="42.2792403" lon="14.1544752"><ele>141.0</ele><time>2026-04-26T13:11:10.757Z</time></trkpt><trkpt lat="42.279378" lon="14.154392"><ele>141.0</ele><time>2026-04-26T13:11:11.757Z</time></trkpt><trkpt lat="42.2795115" lon="14.1543052"><ele>141.0</ele><time>2026-04-26T13:11:12.758Z</time></trkpt><trkpt lat="42.279653" lon="14.1542292"><ele>141.0</ele><time>2026-04-26T13:11:13.76Z</time></trkpt><trkpt lat="42.2797967" lon="14.1541528"><ele>141.66666666666666</ele><time>2026-04-26T13:11:14.76Z</time></trkpt><trkpt lat="42.2799408" lon="14.1540723"><ele>142.33333333333331</ele><time>2026-04-26T13:11:15.761Z</time></trkpt><trkpt lat="42.280084" lon="14.1539888"><ele>143.0</ele><time>2026-04-26T13:11:16.76Z</time></trkpt><trkpt lat="42.2802203" lon="14.1539065"><ele>143.0</ele><time>2026-04-26T13:11:17.761Z</time></trkpt><trkpt lat="42.280346" lon="14.153823"><ele>143.0</ele><time>2026-04-26T13:11:18.76Z</time></trkpt><trkpt lat="42.2804782" lon="14.1537477"><ele>143.0</ele><time>2026-04-26T13:11:19.761Z</time></trkpt><trkpt lat="42.280611" lon="14.1536852"><ele>143.0</ele><time>2026-04-26T13:11:20.757Z</time></trkpt><trkpt lat="42.2807482" lon="14.1536325"><ele>140.5</ele><time>2026-04-26T13:11:21.76Z</time></trkpt><trkpt lat="42.2808738" lon="14.1535817"><ele>138.0</ele><time>2026-04-26T13:11:22.757Z</time></trkpt><trkpt lat="42.2809905" lon="14.1535437"><ele>135.5</ele><time>2026-04-26T13:11:23.757Z</time></trkpt><trkpt lat="42.2811013" lon="14.1535152"><ele>133.0</ele><time>2026-04-26T13:11:24.758Z</time></trkpt><trkpt lat="42.2812088" lon="14.1534918"><ele>133.0</ele><time>2026-04-26T13:11:25.757Z</time></trkpt><trkpt lat="42.2813105" lon="14.1534408"><ele>133.0</ele><time>2026-04-26T13:11:26.754Z</time></trkpt><trkpt lat="42.281394" lon="14.1533622"><ele>133.0</ele><time>2026-04-26T13:11:27.754Z</time></trkpt><trkpt lat="42.2814743" lon="14.1532645"><ele>133.0</ele><time>2026-04-26T13:11:28.754Z</time></trkpt><trkpt lat="42.2815677" lon="14.1531823"><ele>133.0</ele><time>2026-04-26T13:11:29.759Z</time></trkpt><trkpt lat="42.2816795" lon="14.1531225"><ele>129.75</ele><time>2026-04-26T13:11:30.758Z</time></trkpt><trkpt lat="42.2818058" lon="14.153072"><ele>126.5</ele><time>2026-04-26T13:11:31.758Z</time></trkpt><trkpt lat="42.2819428" lon="14.1530235"><ele>123.25</ele><time>2026-04-26T13:11:32.758Z</time></trkpt><trkpt lat="42.2820733" lon="14.1529845"><ele>120.0</ele><time>2026-04-26T13:11:33.759Z</time></trkpt><trkpt lat="42.282184" lon="14.1529565"><ele>119.5</ele><time>2026-04-26T13:11:34.758Z</time></trkpt><trkpt lat="42.2822727" lon="14.1529497"><ele>119.0</ele><time>2026-04-26T13:11:35.758Z</time></trkpt><trkpt lat="42.2823688" lon="14.1529313"><ele>118.5</ele><time>2026-04-26T13:11:37.759Z</time></trkpt><trkpt lat="42.2824257" lon="14.1528663"><ele>118.0</ele><time>2026-04-26T13:11:40.758Z</time></trkpt><trkpt lat="42.2824203" lon="14.1527462"><ele>117.5</ele><time>2026-04-26T13:11:42.757Z</time></trkpt><trkpt lat="42.2824025" lon="14.1526382"><ele>117.0</ele><time>2026-04-26T13:11:43.757Z</time></trkpt><trkpt lat="42.2823803" lon="14.1525112"><ele>117.0</ele><time>2026-04-26T13:11:44.757Z</time></trkpt><trkpt lat="42.2823468" lon="14.1523815"><ele>117.0</ele><time>2026-04-26T13:11:45.757Z</time></trkpt><trkpt lat="42.2823048" lon="14.1522698"><ele>117.0</ele><time>2026-04-26T13:11:46.759Z</time></trkpt><trkpt lat="42.2822755" lon="14.1521555"><ele>117.0</ele><time>2026-04-26T13:11:48.759Z</time></trkpt><trkpt lat="42.2823638" lon="14.1521237"><ele>117.0</ele><time>2026-04-26T13:11:52.755Z</time></trkpt><trkpt lat="42.2824363" lon="14.1521227"><ele>117.0</ele><time>2026-04-26T13:11:53.756Z</time></trkpt><trkpt lat="42.2825237" lon="14.152127"><ele>117.39999999999999</ele><time>2026-04-26T13:11:54.758Z</time></trkpt><trkpt lat="42.2826197" lon="14.1521313"><ele>117.79999999999998</ele><time>2026-04-26T13:11:55.757Z</time></trkpt><trkpt lat="42.2827202" lon="14.1521328"><ele>118.2</ele><time>2026-04-26T13:11:56.758Z</time></trkpt><trkpt lat="42.2828127" lon="14.152121"><ele>118.6</ele><time>2026-04-26T13:11:57.758Z</time></trkpt><trkpt lat="42.2828898" lon="14.1520865"><ele>119.0</ele><time>2026-04-26T13:11:58.758Z</time></trkpt><trkpt lat="42.2829515" lon="14.1520165"><ele>119.0</ele><time>2026-04-26T13:11:59.759Z</time></trkpt><trkpt lat="42.2829985" lon="14.151911"><ele>119.0</ele><time>2026-04-26T13:12:00.76Z</time></trkpt><trkpt lat="42.2830313" lon="14.15178"><ele>119.0</ele><time>2026-04-26T13:12:01.759Z</time></trkpt><trkpt lat="42.2830563" lon="14.1516297"><ele>119.0</ele><time>2026-04-26T13:12:02.758Z</time></trkpt><trkpt lat="42.2830807" lon="14.1514733"><ele>119.0</ele><time>2026-04-26T13:12:03.758Z</time></trkpt><trkpt lat="42.2831048" lon="14.1513427"><ele>119.80000000000001</ele><time>2026-04-26T13:12:04.757Z</time></trkpt><trkpt lat="42.2831268" lon="14.1512463"><ele>120.60000000000001</ele><time>2026-04-26T13:12:05.759Z</time></trkpt><trkpt lat="42.2831447" lon="14.1511287"><ele>121.4</ele><time>2026-04-26T13:12:07.759Z</time></trkpt><trkpt lat="42.2831088" lon="14.1510262"><ele>122.2</ele><time>2026-04-26T13:12:10.761Z</time></trkpt><trkpt lat="42.2830833" lon="14.1508973"><ele>123.0</ele><time>2026-04-26T13:12:13.757Z</time></trkpt><trkpt lat="42.2830612" lon="14.1507473"><ele>123.0</ele><time>2026-04-26T13:12:15.756Z</time></trkpt><trkpt lat="42.2830273" lon="14.150621"><ele>123.0</ele><time>2026-04-26T13:12:17.755Z</time></trkpt><trkpt lat="42.2829733" lon="14.1505265"><ele>123.0</ele><time>2026-04-26T13:12:19.76Z</time></trkpt><trkpt lat="42.282997" lon="14.1506167"><ele>123.0</ele><time>2026-04-26T13:12:43.758Z</time></trkpt><trkpt lat="42.2830627" lon="14.1507098"><ele>123.0</ele><time>2026-04-26T13:12:48.762Z</time></trkpt><trkpt lat="42.2830888" lon="14.1508132"><ele>123.0</ele><time>2026-04-26T13:12:50.758Z</time></trkpt><trkpt lat="42.2831005" lon="14.150901"><ele>123.0</ele><time>2026-04-26T13:12:52.762Z</time></trkpt><trkpt lat="42.283063" lon="14.1509725"><ele>123.00000000000001</ele><time>2026-04-26T13:12:56.761Z</time></trkpt><trkpt lat="42.2829703" lon="14.1509297"><ele>123.00000000000001</ele><time>2026-04-26T13:12:58.76Z</time></trkpt><trkpt lat="42.2828935" lon="14.150878"><ele>123.0</ele><time>2026-04-26T13:12:59.759Z</time></trkpt><trkpt lat="42.2828027" lon="14.1508045"><ele>123.0</ele><time>2026-04-26T13:13:00.761Z</time></trkpt><trkpt lat="42.2827072" lon="14.1507103"><ele>125.25</ele><time>2026-04-26T13:13:01.761Z</time></trkpt><trkpt lat="42.2826153" lon="14.1505968"><ele>127.5</ele><time>2026-04-26T13:13:02.76Z</time></trkpt><trkpt lat="42.2825285" lon="14.1504648"><ele>129.75</ele><time>2026-04-26T13:13:03.758Z</time></trkpt><trkpt lat="42.282444" lon="14.1503138"><ele>132.0</ele><time>2026-04-26T13:13:04.756Z</time></trkpt><trkpt lat="42.2823582" lon="14.1501473"><ele>132.0</ele><time>2026-04-26T13:13:05.756Z</time></trkpt><trkpt lat="42.2822668" lon="14.1499698"><ele>132.0</ele><time>2026-04-26T13:13:06.757Z</time></trkpt><trkpt lat="42.282171" lon="14.1497835"><ele>132.0</ele><time>2026-04-26T13:13:07.761Z</time></trkpt><trkpt lat="42.2820698" lon="14.149589"><ele>130.66666666666666</ele><time>2026-04-26T13:13:08.758Z</time></trkpt><trkpt lat="42.2819667" lon="14.1493857"><ele>129.33333333333331</ele><time>2026-04-26T13:13:09.76Z</time></trkpt><trkpt lat="42.2818602" lon="14.149176"><ele>128.0</ele><time>2026-04-26T13:13:10.756Z</time></trkpt><trkpt lat="42.2817517" lon="14.1489628"><ele>128.0</ele><time>2026-04-26T13:13:11.758Z</time></trkpt><trkpt lat="42.2816422" lon="14.1487473"><ele>128.0</ele><time>2026-04-26T13:13:12.758Z</time></trkpt><trkpt lat="42.2815342" lon="14.1485283"><ele>128.0</ele><time>2026-04-26T13:13:13.758Z</time></trkpt><trkpt lat="42.2814318" lon="14.1483053"><ele>126.0</ele><time>2026-04-26T13:13:14.756Z</time></trkpt><trkpt lat="42.28134" lon="14.1480915"><ele>124.0</ele><time>2026-04-26T13:13:15.756Z</time></trkpt><trkpt lat="42.2812612" lon="14.147903"><ele>122.0</ele><time>2026-04-26T13:13:16.757Z</time></trkpt><trkpt lat="42.281207" lon="14.1477642"><ele>122.0</ele><time>2026-04-26T13:13:17.756Z</time></trkpt><trkpt lat="42.2811817" lon="14.1476478"><ele>121.99999999999999</ele><time>2026-04-26T13:13:19.758Z</time></trkpt><trkpt lat="42.2812717" lon="14.1475718"><ele>121.99999999999999</ele><time>2026-04-26T13:13:22.758Z</time></trkpt><trkpt lat="42.2813635" lon="14.1474798"><ele>122.0</ele><time>2026-04-26T13:13:24.758Z</time></trkpt><trkpt lat="42.2814552" lon="14.1473657"><ele>122.0</ele><time>2026-04-26T13:13:26.757Z</time></trkpt><trkpt lat="42.2814915" lon="14.1472888"><ele>123.49999999999999</ele><time>2026-04-26T13:13:27.757Z</time></trkpt><trkpt lat="42.281523" lon="14.1471992"><ele>125.0</ele><time>2026-04-26T13:13:28.754Z</time></trkpt><trkpt lat="42.2815597" lon="14.1471028"><ele>126.5</ele><time>2026-04-26T13:13:29.755Z</time></trkpt><trkpt lat="42.2815862" lon="14.1470023"><ele>128.0</ele><time>2026-04-26T13:13:30.754Z</time></trkpt><trkpt lat="42.2815848" lon="14.1468952"><ele>129.5</ele><time>2026-04-26T13:13:31.754Z</time></trkpt><trkpt lat="42.2815713" lon="14.1467835"><ele>131.0</ele><time>2026-04-26T13:13:32.757Z</time></trkpt><trkpt lat="42.281559" lon="14.1466637"><ele>131.2</ele><time>2026-04-26T13:13:33.757Z</time></trkpt><trkpt lat="42.2815393" lon="14.1465342"><ele>131.39999999999998</ele><time>2026-04-26T13:13:34.758Z</time></trkpt><trkpt lat="42.2815138" lon="14.146405"><ele>131.6</ele><time>2026-04-26T13:13:35.756Z</time></trkpt><trkpt lat="42.2814842" lon="14.1462722"><ele>131.79999999999998</ele><time>2026-04-26T13:13:36.757Z</time></trkpt><trkpt lat="42.2814555" lon="14.1461332"><ele>132.0</ele><time>2026-04-26T13:13:37.759Z</time></trkpt><trkpt lat="42.2814208" lon="14.1459953"><ele>132.0</ele><time>2026-04-26T13:13:38.759Z</time></trkpt><trkpt lat="42.2813842" lon="14.145863"><ele>132.0</ele><time>2026-04-26T13:13:39.758Z</time></trkpt><trkpt lat="42.2813427" lon="14.1457342"><ele>132.0</ele><time>2026-04-26T13:13:40.762Z</time></trkpt><trkpt lat="42.2812857" lon="14.1456162"><ele>132.0</ele><time>2026-04-26T13:13:41.758Z</time></trkpt><trkpt lat="42.2812297" lon="14.1455015"><ele>132.0</ele><time>2026-04-26T13:13:42.761Z</time></trkpt><trkpt lat="42.281193" lon="14.1453915"><ele>133.66666666666666</ele><time>2026-04-26T13:13:43.758Z</time></trkpt><trkpt lat="42.2811812" lon="14.1452893"><ele>135.33333333333334</ele><time>2026-04-26T13:13:44.758Z</time></trkpt><trkpt lat="42.2811843" lon="14.1451852"><ele>137.0</ele><time>2026-04-26T13:13:45.76Z</time></trkpt><trkpt lat="42.2811887" lon="14.1450708"><ele>138.66666666666669</ele><time>2026-04-26T13:13:46.758Z</time></trkpt><trkpt lat="42.2811967" lon="14.1449508"><ele>140.33333333333334</ele><time>2026-04-26T13:13:47.758Z</time></trkpt><trkpt lat="42.2812058" lon="14.1448332"><ele>142.0</ele><time>2026-04-26T13:13:48.758Z</time></trkpt><trkpt lat="42.2812162" lon="14.1447163"><ele>143.6</ele><time>2026-04-26T13:13:49.758Z</time></trkpt><trkpt lat="42.2812317" lon="14.1445957"><ele>145.2</ele><time>2026-04-26T13:13:50.759Z</time></trkpt><trkpt lat="42.2812447" lon="14.1444717"><ele>146.8</ele><time>2026-04-26T13:13:51.758Z</time></trkpt><trkpt lat="42.281256" lon="14.144348"><ele>148.4</ele><time>2026-04-26T13:13:52.757Z</time></trkpt><trkpt lat="42.281269" lon="14.14422"><ele>150.0</ele><time>2026-04-26T13:13:53.757Z</time></trkpt><trkpt lat="42.2812828" lon="14.1440908"><ele>152.2</ele><time>2026-04-26T13:13:54.756Z</time></trkpt><trkpt lat="42.2812987" lon="14.1439592"><ele>154.4</ele><time>2026-04-26T13:13:55.757Z</time></trkpt><trkpt lat="42.281316" lon="14.1438317"><ele>156.60000000000002</ele><time>2026-04-26T13:13:56.758Z</time></trkpt><trkpt lat="42.2813312" lon="14.143703"><ele>158.8</ele><time>2026-04-26T13:13:57.758Z</time></trkpt><trkpt lat="42.2813368" lon="14.143586"><ele>161.0</ele><time>2026-04-26T13:13:58.757Z</time></trkpt><trkpt lat="42.2813308" lon="14.143477"><ele>161.0</ele><time>2026-04-26T13:13:59.757Z</time></trkpt><trkpt lat="42.2813112" lon="14.1433762"><ele>161.0</ele><time>2026-04-26T13:14:00.757Z</time></trkpt><trkpt lat="42.2812873" lon="14.1432783"><ele>161.0</ele><time>2026-04-26T13:14:01.757Z</time></trkpt><trkpt lat="42.2812625" lon="14.143181"><ele>161.0</ele><time>2026-04-26T13:14:02.758Z</time></trkpt><trkpt lat="42.2812327" lon="14.1430977"><ele>161.0</ele><time>2026-04-26T13:14:03.755Z</time></trkpt><trkpt lat="42.2812505" lon="14.1429432"><ele>161.0</ele><time>2026-04-26T13:14:05.757Z</time></trkpt><trkpt lat="42.2813102" lon="14.1428802"><ele>162.5</ele><time>2026-04-26T13:14:06.755Z</time></trkpt><trkpt lat="42.2813688" lon="14.1428042"><ele>164.0</ele><time>2026-04-26T13:14:07.756Z</time></trkpt><trkpt lat="42.2814258" lon="14.1427205"><ele>165.5</ele><time>2026-04-26T13:14:08.759Z</time></trkpt><trkpt lat="42.2814872" lon="14.1426447"><ele>167.0</ele><time>2026-04-26T13:14:09.757Z</time></trkpt><trkpt lat="42.2815425" lon="14.1425742"><ele>168.5</ele><time>2026-04-26T13:14:10.754Z</time></trkpt><trkpt lat="42.2815645" lon="14.142488"><ele>170.0</ele><time>2026-04-26T13:14:11.756Z</time></trkpt><trkpt lat="42.2815068" lon="14.142437"><ele>171.16666666666666</ele><time>2026-04-26T13:14:13.756Z</time></trkpt><trkpt lat="42.2814067" lon="14.1424173"><ele>172.33333333333331</ele><time>2026-04-26T13:14:15.756Z</time></trkpt><trkpt lat="42.2813357" lon="14.1423927"><ele>173.5</ele><time>2026-04-26T13:14:16.756Z</time></trkpt><trkpt lat="42.281258" lon="14.142369"><ele>174.66666666666666</ele><time>2026-04-26T13:14:17.758Z</time></trkpt><trkpt lat="42.2811795" lon="14.1423393"><ele>175.83333333333334</ele><time>2026-04-26T13:14:18.757Z</time></trkpt><trkpt lat="42.2811035" lon="14.142299"><ele>177.0</ele><time>2026-04-26T13:14:19.756Z</time></trkpt><trkpt lat="42.281032" lon="14.142247"><ele>179.5</ele><time>2026-04-26T13:14:20.757Z</time></trkpt><trkpt lat="42.2809765" lon="14.1421838"><ele>182.0</ele><time>2026-04-26T13:14:21.758Z</time></trkpt><trkpt lat="42.2809397" lon="14.1421017"><ele>184.5</ele><time>2026-04-26T13:14:22.757Z</time></trkpt><trkpt lat="42.2809192" lon="14.1419992"><ele>187.0</ele><time>2026-04-26T13:14:23.757Z</time></trkpt><trkpt lat="42.2809028" lon="14.1418878"><ele>189.5</ele><time>2026-04-26T13:14:24.757Z</time></trkpt><trkpt lat="42.2808848" lon="14.1417833"><ele>192.0</ele><time>2026-04-26T13:14:25.757Z</time></trkpt><trkpt lat="42.280865" lon="14.141672"><ele>192.0</ele><time>2026-04-26T13:14:26.757Z</time></trkpt><trkpt lat="42.2808463" lon="14.1415563"><ele>192.0</ele><time>2026-04-26T13:14:27.76Z</time></trkpt><trkpt lat="42.2808327" lon="14.1414318"><ele>192.0</ele><time>2026-04-26T13:14:28.757Z</time></trkpt><trkpt lat="42.2808105" lon="14.141305"><ele>192.0</ele><time>2026-04-26T13:14:29.758Z</time></trkpt><trkpt lat="42.2807867" lon="14.1411842"><ele>192.0</ele><time>2026-04-26T13:14:30.761Z</time></trkpt><trkpt lat="42.2807763" lon="14.1410818"><ele>192.0</ele><time>2026-04-26T13:14:31.761Z</time></trkpt><trkpt lat="42.2808212" lon="14.1409792"><ele>192.0</ele><time>2026-04-26T13:14:33.76Z</time></trkpt><trkpt lat="42.280895" lon="14.1409462"><ele>192.0</ele><time>2026-04-26T13:14:35.759Z</time></trkpt><trkpt lat="42.2809685" lon="14.1409007"><ele>192.0</ele><time>2026-04-26T13:14:38.76Z</time></trkpt><trkpt lat="42.2810322" lon="14.1408287"><ele>192.0</ele><time>2026-04-26T13:14:56.761Z</time></trkpt><trkpt lat="42.2811695" lon="14.1407567"><ele>192.0</ele><time>2026-04-26T13:14:58.758Z</time></trkpt><trkpt lat="42.281263" lon="14.140717"><ele>189.0</ele><time>2026-04-26T13:14:59.759Z</time></trkpt><trkpt lat="42.281368" lon="14.1406683"><ele>186.0</ele><time>2026-04-26T13:15:00.758Z</time></trkpt><trkpt lat="42.2814747" lon="14.1406113"><ele>183.0</ele><time>2026-04-26T13:15:01.757Z</time></trkpt><trkpt lat="42.281574" lon="14.1405437"><ele>180.0</ele><time>2026-04-26T13:15:02.76Z</time></trkpt><trkpt lat="42.2816565" lon="14.1404613"><ele>177.0</ele><time>2026-04-26T13:15:03.76Z</time></trkpt><trkpt lat="42.281738" lon="14.1403613"><ele>183.39999999999998</ele><time>2026-04-26T13:15:04.761Z</time></trkpt><trkpt lat="42.2818202" lon="14.1402608"><ele>189.79999999999998</ele><time>2026-04-26T13:15:05.76Z</time></trkpt><trkpt lat="42.2818867" lon="14.1401702"><ele>196.2</ele><time>2026-04-26T13:15:06.757Z</time></trkpt><trkpt lat="42.2819375" lon="14.1400897"><ele>202.6</ele><time>2026-04-26T13:15:07.758Z</time></trkpt><trkpt lat="42.2819917" lon="14.1400067"><ele>209.0</ele><time>2026-04-26T13:15:08.757Z</time></trkpt><trkpt lat="42.2820628" lon="14.1399132"><ele>210.0</ele><time>2026-04-26T13:15:09.759Z</time></trkpt><trkpt lat="42.282152" lon="14.1398135"><ele>211.0</ele><time>2026-04-26T13:15:10.759Z</time></trkpt><trkpt lat="42.2822527" lon="14.1397088"><ele>212.0</ele><time>2026-04-26T13:15:11.76Z</time></trkpt><trkpt lat="42.2823502" lon="14.1396027"><ele>213.0</ele><time>2026-04-26T13:15:12.759Z</time></trkpt><trkpt lat="42.2824425" lon="14.1394912"><ele>213.0</ele><time>2026-04-26T13:15:13.759Z</time></trkpt><trkpt lat="42.2825363" lon="14.1393695"><ele>213.0</ele><time>2026-04-26T13:15:14.759Z</time></trkpt><trkpt lat="42.2826312" lon="14.1392387"><ele>213.0</ele><time>2026-04-26T13:15:15.758Z</time></trkpt><trkpt lat="42.2827263" lon="14.1391015"><ele>213.0</ele><time>2026-04-26T13:15:16.757Z</time></trkpt><trkpt lat="42.2828212" lon="14.1389607"><ele>214.0</ele><time>2026-04-26T13:15:17.757Z</time></trkpt><trkpt lat="42.2829123" lon="14.138826"><ele>215.0</ele><time>2026-04-26T13:15:18.759Z</time></trkpt><trkpt lat="42.2830025" lon="14.1386942"><ele>216.0</ele><time>2026-04-26T13:15:19.758Z</time></trkpt><trkpt lat="42.2830945" lon="14.1385672"><ele>217.0</ele><time>2026-04-26T13:15:20.758Z</time></trkpt><trkpt lat="42.2831832" lon="14.1384587"><ele>216.99999999999997</ele><time>2026-04-26T13:15:21.76Z</time></trkpt><trkpt lat="42.283262" lon="14.138382"><ele>217.0</ele><time>2026-04-26T13:15:22.758Z</time></trkpt><trkpt lat="42.2833183" lon="14.138324"><ele>217.0</ele><time>2026-04-26T13:15:23.76Z</time></trkpt><trkpt lat="42.283229" lon="14.1382425"><ele>217.0</ele><time>2026-04-26T13:15:27.758Z</time></trkpt><trkpt lat="42.2831603" lon="14.1382188"><ele>216.99999999999997</ele><time>2026-04-26T13:15:28.756Z</time></trkpt><trkpt lat="42.2830815" lon="14.1381845"><ele>217.0</ele><time>2026-04-26T13:15:29.758Z</time></trkpt><trkpt lat="42.2829968" lon="14.1381533"><ele>214.33333333333331</ele><time>2026-04-26T13:15:30.757Z</time></trkpt><trkpt lat="42.2829118" lon="14.1381358"><ele>211.66666666666666</ele><time>2026-04-26T13:15:31.755Z</time></trkpt><trkpt lat="42.2828387" lon="14.1381272"><ele>209.0</ele><time>2026-04-26T13:15:32.756Z</time></trkpt><trkpt lat="42.2827325" lon="14.1380998"><ele>206.33333333333331</ele><time>2026-04-26T13:15:34.756Z</time></trkpt><trkpt lat="42.2826908" lon="14.138014"><ele>203.66666666666666</ele><time>2026-04-26T13:15:37.757Z</time></trkpt><trkpt lat="42.2827587" lon="14.1379223"><ele>201.0</ele><time>2026-04-26T13:15:40.757Z</time></trkpt><trkpt lat="42.282832" lon="14.1378362"><ele>201.0</ele><time>2026-04-26T13:15:42.76Z</time></trkpt><trkpt lat="42.2828978" lon="14.1377397"><ele>201.0</ele><time>2026-04-26T13:15:44.756Z</time></trkpt><trkpt lat="42.2829237" lon="14.1376398"><ele>201.0</ele><time>2026-04-26T13:15:46.756Z</time></trkpt><trkpt lat="42.28292" lon="14.1375292"><ele>201.0</ele><time>2026-04-26T13:15:49.755Z</time></trkpt><trkpt lat="42.2828978" lon="14.1374455"><ele>201.0</ele><time>2026-04-26T13:15:53.756Z</time></trkpt><trkpt lat="42.282847" lon="14.1373523"><ele>201.0</ele><time>2026-04-26T13:17:09.758Z</time></trkpt><trkpt lat="42.2827813" lon="14.1372145"><ele>202.20000000000002</ele><time>2026-04-26T13:17:11.759Z</time></trkpt><trkpt lat="42.2827585" lon="14.1371043"><ele>203.4</ele><time>2026-04-26T13:17:12.757Z</time></trkpt><trkpt lat="42.2827503" lon="14.1369765"><ele>204.6</ele><time>2026-04-26T13:17:13.758Z</time></trkpt><trkpt lat="42.2827478" lon="14.1368428"><ele>205.8</ele><time>2026-04-26T13:17:14.76Z</time></trkpt><trkpt lat="42.282739" lon="14.1367135"><ele>207.0</ele><time>2026-04-26T13:17:15.759Z</time></trkpt><trkpt lat="42.2827182" lon="14.1365897"><ele>208.39999999999998</ele><time>2026-04-26T13:17:16.761Z</time></trkpt><trkpt lat="42.2826882" lon="14.1364565"><ele>209.79999999999998</ele><time>2026-04-26T13:17:17.757Z</time></trkpt><trkpt lat="42.2826535" lon="14.1363242"><ele>211.2</ele><time>2026-04-26T13:17:18.76Z</time></trkpt><trkpt lat="42.2826108" lon="14.1362107"><ele>212.6</ele><time>2026-04-26T13:17:19.759Z</time></trkpt><trkpt lat="42.2825518" lon="14.136103"><ele>214.0</ele><time>2026-04-26T13:17:20.759Z</time></trkpt><trkpt lat="42.2824787" lon="14.1360017"><ele>214.0</ele><time>2026-04-26T13:17:21.76Z</time></trkpt><trkpt lat="42.2824073" lon="14.1359047"><ele>213.99999999999997</ele><time>2026-04-26T13:17:22.76Z</time></trkpt><trkpt lat="42.2823488" lon="14.1357935"><ele>213.99999999999997</ele><time>2026-04-26T13:17:23.758Z</time></trkpt><trkpt lat="42.282301" lon="14.135679"><ele>214.0</ele><time>2026-04-26T13:17:24.759Z</time></trkpt><trkpt lat="42.282264" lon="14.1355767"><ele>214.0</ele><time>2026-04-26T13:17:25.759Z</time></trkpt><trkpt lat="42.2822455" lon="14.1354805"><ele>214.2</ele><time>2026-04-26T13:17:26.758Z</time></trkpt><trkpt lat="42.2822398" lon="14.1353705"><ele>214.39999999999998</ele><time>2026-04-26T13:17:27.759Z</time></trkpt><trkpt lat="42.2822302" lon="14.135248"><ele>214.6</ele><time>2026-04-26T13:17:28.757Z</time></trkpt><trkpt lat="42.282215" lon="14.1351157"><ele>214.8</ele><time>2026-04-26T13:17:29.759Z</time></trkpt><trkpt lat="42.2821995" lon="14.1349758"><ele>215.0</ele><time>2026-04-26T13:17:30.761Z</time></trkpt><trkpt lat="42.2821808" lon="14.1348347"><ele>215.0</ele><time>2026-04-26T13:17:31.759Z</time></trkpt><trkpt lat="42.2821618" lon="14.134694"><ele>215.0</ele><time>2026-04-26T13:17:32.757Z</time></trkpt><trkpt lat="42.2821428" lon="14.1345497"><ele>215.0</ele><time>2026-04-26T13:17:33.756Z</time></trkpt><trkpt lat="42.2821182" lon="14.1344047"><ele>215.0</ele><time>2026-04-26T13:17:34.756Z</time></trkpt><trkpt lat="42.28209" lon="14.1342562"><ele>215.0</ele><time>2026-04-26T13:17:35.756Z</time></trkpt><trkpt lat="42.2820623" lon="14.1340972"><ele>216.25</ele><time>2026-04-26T13:17:36.756Z</time></trkpt><trkpt lat="42.2820367" lon="14.133924"><ele>217.5</ele><time>2026-04-26T13:17:37.759Z</time></trkpt><trkpt lat="42.2820132" lon="14.1337407"><ele>218.75</ele><time>2026-04-26T13:17:38.76Z</time></trkpt><trkpt lat="42.2819945" lon="14.1335717"><ele>220.0</ele><time>2026-04-26T13:17:39.759Z</time></trkpt><trkpt lat="42.2819808" lon="14.1334277"><ele>219.99999999999997</ele><time>2026-04-26T13:17:40.758Z</time></trkpt><trkpt lat="42.2819672" lon="14.1333175"><ele>220.0</ele><time>2026-04-26T13:17:41.759Z</time></trkpt><trkpt lat="42.2819023" lon="14.1332145"><ele>220.0</ele><time>2026-04-26T13:17:43.759Z</time></trkpt><trkpt lat="42.2818412" lon="14.1331865"><ele>220.0</ele><time>2026-04-26T13:17:44.76Z</time></trkpt><trkpt lat="42.281766" lon="14.1331427"><ele>219.99999999999997</ele><time>2026-04-26T13:17:45.762Z</time></trkpt><trkpt lat="42.281684" lon="14.1330758"><ele>220.0</ele><time>2026-04-26T13:17:46.759Z</time></trkpt><trkpt lat="42.2816048" lon="14.1330122"><ele>220.8</ele><time>2026-04-26T13:17:47.759Z</time></trkpt><trkpt lat="42.281531" lon="14.1329853"><ele>221.6</ele><time>2026-04-26T13:17:48.757Z</time></trkpt><trkpt lat="42.2814522" lon="14.1330072"><ele>222.39999999999998</ele><time>2026-04-26T13:17:49.756Z</time></trkpt><trkpt lat="42.2813653" lon="14.1330312"><ele>223.2</ele><time>2026-04-26T13:17:50.756Z</time></trkpt><trkpt lat="42.2812673" lon="14.1330562"><ele>224.0</ele><time>2026-04-26T13:17:51.758Z</time></trkpt><trkpt lat="42.2811652" lon="14.1330918"><ele>224.00000000000003</ele><time>2026-04-26T13:17:52.758Z</time></trkpt><trkpt lat="42.281074" lon="14.133135"><ele>224.0</ele><time>2026-04-26T13:17:53.76Z</time></trkpt><trkpt lat="42.2809948" lon="14.1331572"><ele>224.0</ele><time>2026-04-26T13:17:54.76Z</time></trkpt><trkpt lat="42.2809255" lon="14.133142"><ele>224.0</ele><time>2026-04-26T13:17:55.76Z</time></trkpt><trkpt lat="42.2808597" lon="14.133094"><ele>224.00000000000003</ele><time>2026-04-26T13:17:56.76Z</time></trkpt><trkpt lat="42.2807932" lon="14.1330167"><ele>224.0</ele><time>2026-04-26T13:17:57.757Z</time></trkpt><trkpt lat="42.2807162" lon="14.1329282"><ele>224.0</ele><time>2026-04-26T13:17:58.756Z</time></trkpt><trkpt lat="42.2806282" lon="14.1328488"><ele>223.99999999999997</ele><time>2026-04-26T13:17:59.758Z</time></trkpt><trkpt lat="42.2805338" lon="14.1327843"><ele>223.99999999999997</ele><time>2026-04-26T13:18:00.757Z</time></trkpt><trkpt lat="42.2804392" lon="14.132729"><ele>224.0</ele><time>2026-04-26T13:18:01.759Z</time></trkpt><trkpt lat="42.2803465" lon="14.1326738"><ele>224.0</ele><time>2026-04-26T13:18:02.76Z</time></trkpt><trkpt lat="42.2802525" lon="14.1326202"><ele>225.0</ele><time>2026-04-26T13:18:03.761Z</time></trkpt><trkpt lat="42.2801563" lon="14.132566"><ele>225.99999999999997</ele><time>2026-04-26T13:18:04.759Z</time></trkpt><trkpt lat="42.280058" lon="14.1325028"><ele>226.99999999999997</ele><time>2026-04-26T13:18:05.761Z</time></trkpt><trkpt lat="42.2799667" lon="14.1324422"><ele>228.0</ele><time>2026-04-26T13:18:06.76Z</time></trkpt><trkpt lat="42.279895" lon="14.1323885"><ele>229.0</ele><time>2026-04-26T13:18:07.76Z</time></trkpt><trkpt lat="42.2798418" lon="14.132267"><ele>229.0</ele><time>2026-04-26T13:18:09.758Z</time></trkpt><trkpt lat="42.2798313" lon="14.1321663"><ele>228.99999999999997</ele><time>2026-04-26T13:18:10.759Z</time></trkpt><trkpt lat="42.279807" lon="14.1320448"><ele>228.99999999999997</ele><time>2026-04-26T13:18:11.76Z</time></trkpt><trkpt lat="42.2797668" lon="14.1319102"><ele>229.0</ele><time>2026-04-26T13:18:12.76Z</time></trkpt><trkpt lat="42.2797258" lon="14.1317708"><ele>229.0</ele><time>2026-04-26T13:18:13.76Z</time></trkpt><trkpt lat="42.2796913" lon="14.1316367"><ele>230.33333333333331</ele><time>2026-04-26T13:18:14.761Z</time></trkpt><trkpt lat="42.2796728" lon="14.1315445"><ele>231.66666666666666</ele><time>2026-04-26T13:18:15.76Z</time></trkpt><trkpt lat="42.2797385" lon="14.131478"><ele>233.0</ele><time>2026-04-26T13:18:18.76Z</time></trkpt><trkpt lat="42.2798043" lon="14.1314877"><ele>234.33333333333331</ele><time>2026-04-26T13:18:19.76Z</time></trkpt><trkpt lat="42.2798978" lon="14.1315025"><ele>235.66666666666666</ele><time>2026-04-26T13:18:20.759Z</time></trkpt><trkpt lat="42.2800148" lon="14.1315177"><ele>237.0</ele><time>2026-04-26T13:18:21.758Z</time></trkpt><trkpt lat="42.2801505" lon="14.1315238"><ele>238.25</ele><time>2026-04-26T13:18:22.758Z</time></trkpt><trkpt lat="42.2802987" lon="14.1315112"><ele>239.5</ele><time>2026-04-26T13:18:23.758Z</time></trkpt><trkpt lat="42.2804462" lon="14.1314832"><ele>240.75</ele><time>2026-04-26T13:18:24.757Z</time></trkpt><trkpt lat="42.2805725" lon="14.1314428"><ele>242.0</ele><time>2026-04-26T13:18:25.758Z</time></trkpt><trkpt lat="42.2806768" lon="14.1313815"><ele>242.0</ele><time>2026-04-26T13:18:26.759Z</time></trkpt><trkpt lat="42.2807593" lon="14.1312905"><ele>242.0</ele><time>2026-04-26T13:18:27.76Z</time></trkpt><trkpt lat="42.2808253" lon="14.1311633"><ele>242.0</ele><time>2026-04-26T13:18:28.758Z</time></trkpt><trkpt lat="42.28088" lon="14.1310027"><ele>242.0</ele><time>2026-04-26T13:18:29.758Z</time></trkpt><trkpt lat="42.2809322" lon="14.13082"><ele>243.5</ele><time>2026-04-26T13:18:30.758Z</time></trkpt><trkpt lat="42.2809783" lon="14.1306192"><ele>245.0</ele><time>2026-04-26T13:18:31.761Z</time></trkpt><trkpt lat="42.2810135" lon="14.130424"><ele>246.5</ele><time>2026-04-26T13:18:32.76Z</time></trkpt><trkpt lat="42.2810342" lon="14.1302515"><ele>248.0</ele><time>2026-04-26T13:18:33.757Z</time></trkpt><trkpt lat="42.281031" lon="14.1301025"><ele>248.00000000000003</ele><time>2026-04-26T13:18:34.758Z</time></trkpt><trkpt lat="42.280997" lon="14.1299863"><ele>248.0</ele><time>2026-04-26T13:18:35.757Z</time></trkpt><trkpt lat="42.2809333" lon="14.1299093"><ele>248.0</ele><time>2026-04-26T13:18:36.758Z</time></trkpt><trkpt lat="42.2808573" lon="14.1298805"><ele>248.0</ele><time>2026-04-26T13:18:37.76Z</time></trkpt><trkpt lat="42.2807727" lon="14.1298968"><ele>248.00000000000003</ele><time>2026-04-26T13:18:38.76Z</time></trkpt><trkpt lat="42.2806902" lon="14.1299572"><ele>248.0</ele><time>2026-04-26T13:18:39.758Z</time></trkpt><trkpt lat="42.2806035" lon="14.1300593"><ele>249.5</ele><time>2026-04-26T13:18:40.759Z</time></trkpt><trkpt lat="42.280508" lon="14.1301803"><ele>251.0</ele><time>2026-04-26T13:18:41.76Z</time></trkpt><trkpt lat="42.2804015" lon="14.130307"><ele>252.5</ele><time>2026-04-26T13:18:42.758Z</time></trkpt><trkpt lat="42.2802928" lon="14.1304108"><ele>254.0</ele><time>2026-04-26T13:18:43.758Z</time></trkpt><trkpt lat="42.2801877" lon="14.1304717"><ele>254.0</ele><time>2026-04-26T13:18:44.759Z</time></trkpt><trkpt lat="42.2800833" lon="14.130483"><ele>254.0</ele><time>2026-04-26T13:18:45.76Z</time></trkpt><trkpt lat="42.2799737" lon="14.1304492"><ele>254.0</ele><time>2026-04-26T13:18:46.758Z</time></trkpt><trkpt lat="42.2798563" lon="14.130389"><ele>254.0</ele><time>2026-04-26T13:18:47.759Z</time></trkpt><trkpt lat="42.2797297" lon="14.1303168"><ele>253.5</ele><time>2026-04-26T13:18:48.756Z</time></trkpt><trkpt lat="42.2795952" lon="14.1302373"><ele>253.0</ele><time>2026-04-26T13:18:49.757Z</time></trkpt><trkpt lat="42.2794677" lon="14.1301502"><ele>252.5</ele><time>2026-04-26T13:18:50.759Z</time></trkpt><trkpt lat="42.2793678" lon="14.1300488"><ele>252.0</ele><time>2026-04-26T13:18:51.761Z</time></trkpt><trkpt lat="42.279306" lon="14.1299297"><ele>254.16666666666666</ele><time>2026-04-26T13:18:52.762Z</time></trkpt><trkpt lat="42.2792933" lon="14.1298087"><ele>256.3333333333333</ele><time>2026-04-26T13:18:53.761Z</time></trkpt><trkpt lat="42.2793203" lon="14.129698"><ele>258.5</ele><time>2026-04-26T13:18:54.76Z</time></trkpt><trkpt lat="42.2793767" lon="14.1296257"><ele>260.66666666666663</ele><time>2026-04-26T13:18:55.761Z</time></trkpt><trkpt lat="42.2794545" lon="14.1295895"><ele>262.8333333333333</ele><time>2026-04-26T13:18:56.76Z</time></trkpt><trkpt lat="42.2795497" lon="14.129584"><ele>265.0</ele><time>2026-04-26T13:18:57.761Z</time></trkpt><trkpt lat="42.2796557" lon="14.129574"><ele>265.0</ele><time>2026-04-26T13:18:58.761Z</time></trkpt><trkpt lat="42.2797575" lon="14.12953"><ele>265.0</ele><time>2026-04-26T13:18:59.759Z</time></trkpt><trkpt lat="42.2798418" lon="14.1294513"><ele>265.0</ele><time>2026-04-26T13:19:00.76Z</time></trkpt><trkpt lat="42.2799157" lon="14.1293362"><ele>265.0</ele><time>2026-04-26T13:19:01.76Z</time></trkpt><trkpt lat="42.2799792" lon="14.1291887"><ele>265.0</ele><time>2026-04-26T13:19:02.758Z</time></trkpt><trkpt lat="42.2800412" lon="14.1290183"><ele>267.0</ele><time>2026-04-26T13:19:03.758Z</time></trkpt><trkpt lat="42.2801078" lon="14.1288362"><ele>269.0</ele><time>2026-04-26T13:19:04.759Z</time></trkpt><trkpt lat="42.2801783" lon="14.1286493"><ele>271.0</ele><time>2026-04-26T13:19:05.757Z</time></trkpt><trkpt lat="42.2802535" lon="14.1284795"><ele>271.0</ele><time>2026-04-26T13:19:06.759Z</time></trkpt><trkpt lat="42.2803458" lon="14.1283305"><ele>271.0</ele><time>2026-04-26T13:19:07.764Z</time></trkpt><trkpt lat="42.2804602" lon="14.1282143"><ele>271.0</ele><time>2026-04-26T13:19:08.76Z</time></trkpt><trkpt lat="42.2805895" lon="14.1281255"><ele>271.0</ele><time>2026-04-26T13:19:09.76Z</time></trkpt><trkpt lat="42.2807272" lon="14.1280562"><ele>272.2</ele><time>2026-04-26T13:19:10.762Z</time></trkpt><trkpt lat="42.2808542" lon="14.1279907"><ele>273.40000000000003</ele><time>2026-04-26T13:19:11.757Z</time></trkpt><trkpt lat="42.2809555" lon="14.1279128"><ele>274.6</ele><time>2026-04-26T13:19:12.756Z</time></trkpt><trkpt lat="42.2810227" lon="14.1278188"><ele>275.8</ele><time>2026-04-26T13:19:13.756Z</time></trkpt><trkpt lat="42.2810563" lon="14.1277048"><ele>277.0</ele><time>2026-04-26T13:19:14.756Z</time></trkpt><trkpt lat="42.2810542" lon="14.127579"><ele>277.0</ele><time>2026-04-26T13:19:15.758Z</time></trkpt><trkpt lat="42.2810167" lon="14.1274617"><ele>277.0</ele><time>2026-04-26T13:19:16.757Z</time></trkpt><trkpt lat="42.280952" lon="14.1273697"><ele>277.0</ele><time>2026-04-26T13:19:17.762Z</time></trkpt><trkpt lat="42.2808668" lon="14.1273152"><ele>277.0</ele><time>2026-04-26T13:19:18.757Z</time></trkpt><trkpt lat="42.2807652" lon="14.1273015"><ele>277.0</ele><time>2026-04-26T13:19:19.756Z</time></trkpt><trkpt lat="42.2806453" lon="14.1273137"><ele>279.75</ele><time>2026-04-26T13:19:20.759Z</time></trkpt><trkpt lat="42.280511" lon="14.127336"><ele>282.5</ele><time>2026-04-26T13:19:21.762Z</time></trkpt><trkpt lat="42.2803643" lon="14.1273512"><ele>285.25</ele><time>2026-04-26T13:19:22.76Z</time></trkpt><trkpt lat="42.2802075" lon="14.1273677"><ele>288.0</ele><time>2026-04-26T13:19:23.76Z</time></trkpt><trkpt lat="42.2800422" lon="14.1273847"><ele>286.0</ele><time>2026-04-26T13:19:24.759Z</time></trkpt><trkpt lat="42.2798733" lon="14.127405"><ele>284.0</ele><time>2026-04-26T13:19:25.763Z</time></trkpt><trkpt lat="42.2797127" lon="14.127425"><ele>282.0</ele><time>2026-04-26T13:19:26.759Z</time></trkpt><trkpt lat="42.2795697" lon="14.1274437"><ele>282.0</ele><time>2026-04-26T13:19:27.759Z</time></trkpt><trkpt lat="42.2794592" lon="14.1274603"><ele>282.0</ele><time>2026-04-26T13:19:28.759Z</time></trkpt><trkpt lat="42.279388" lon="14.1274885"><ele>282.0</ele><time>2026-04-26T13:19:29.762Z</time></trkpt><trkpt lat="42.2792905" lon="14.1275842"><ele>282.0</ele><time>2026-04-26T13:19:31.759Z</time></trkpt><trkpt lat="42.2792247" lon="14.1276143"><ele>282.0</ele><time>2026-04-26T13:19:32.762Z</time></trkpt><trkpt lat="42.2791358" lon="14.1276272"><ele>282.0</ele><time>2026-04-26T13:19:33.76Z</time></trkpt><trkpt lat="42.2790278" lon="14.1276335"><ele>282.0</ele><time>2026-04-26T13:19:34.76Z</time></trkpt><trkpt lat="42.278903" lon="14.1276367"><ele>282.0</ele><time>2026-04-26T13:19:35.758Z</time></trkpt><trkpt lat="42.2787678" lon="14.1276327"><ele>282.0</ele><time>2026-04-26T13:19:36.758Z</time></trkpt><trkpt lat="42.278638" lon="14.1276252"><ele>282.5</ele><time>2026-04-26T13:19:37.758Z</time></trkpt><trkpt lat="42.2785195" lon="14.1276132"><ele>283.0</ele><time>2026-04-26T13:19:38.756Z</time></trkpt><trkpt lat="42.278408" lon="14.1276035"><ele>283.5</ele><time>2026-04-26T13:19:39.757Z</time></trkpt><trkpt lat="42.2782887" lon="14.1275973"><ele>284.0</ele><time>2026-04-26T13:19:40.758Z</time></trkpt><trkpt lat="42.2781597" lon="14.1275857"><ele>284.5</ele><time>2026-04-26T13:19:41.761Z</time></trkpt><trkpt lat="42.2780332" lon="14.1275612"><ele>285.0</ele><time>2026-04-26T13:19:42.761Z</time></trkpt><trkpt lat="42.277904" lon="14.1275182"><ele>285.5</ele><time>2026-04-26T13:19:43.765Z</time></trkpt><trkpt lat="42.2777717" lon="14.127467"><ele>286.0</ele><time>2026-04-26T13:19:44.761Z</time></trkpt><trkpt lat="42.2776437" lon="14.1274207"><ele>286.0</ele><time>2026-04-26T13:19:45.761Z</time></trkpt><trkpt lat="42.277525" lon="14.127389"><ele>286.0</ele><time>2026-04-26T13:19:46.758Z</time></trkpt><trkpt lat="42.2774052" lon="14.127383"><ele>286.0</ele><time>2026-04-26T13:19:47.758Z</time></trkpt><trkpt lat="42.2772833" lon="14.1273985"><ele>286.0</ele><time>2026-04-26T13:19:48.76Z</time></trkpt><trkpt lat="42.277164" lon="14.1274032"><ele>288.75</ele><time>2026-04-26T13:19:49.76Z</time></trkpt><trkpt lat="42.2770513" lon="14.127384"><ele>291.5</ele><time>2026-04-26T13:19:50.76Z</time></trkpt><trkpt lat="42.276937" lon="14.1273402"><ele>294.25</ele><time>2026-04-26T13:19:51.762Z</time></trkpt><trkpt lat="42.2768213" lon="14.1272835"><ele>297.0</ele><time>2026-04-26T13:19:52.758Z</time></trkpt><trkpt lat="42.2767163" lon="14.1272363"><ele>297.0</ele><time>2026-04-26T13:19:53.76Z</time></trkpt><trkpt lat="42.2766315" lon="14.127207"><ele>297.0</ele><time>2026-04-26T13:19:54.759Z</time></trkpt><trkpt lat="42.276566" lon="14.127219"><ele>297.0</ele><time>2026-04-26T13:19:55.758Z</time></trkpt><trkpt lat="42.2765045" lon="14.1272747"><ele>297.0</ele><time>2026-04-26T13:19:56.759Z</time></trkpt><trkpt lat="42.276438" lon="14.1273628"><ele>297.0</ele><time>2026-04-26T13:19:57.76Z</time></trkpt><trkpt lat="42.2763618" lon="14.1274762"><ele>297.0</ele><time>2026-04-26T13:19:58.76Z</time></trkpt><trkpt lat="42.2762817" lon="14.1276075"><ele>296.75</ele><time>2026-04-26T13:19:59.761Z</time></trkpt><trkpt lat="42.2762013" lon="14.1277317"><ele>296.5</ele><time>2026-04-26T13:20:00.759Z</time></trkpt><trkpt lat="42.276115" lon="14.1278373"><ele>296.25</ele><time>2026-04-26T13:20:01.755Z</time></trkpt><trkpt lat="42.2760127" lon="14.1279162"><ele>296.0</ele><time>2026-04-26T13:20:02.757Z</time></trkpt><trkpt lat="42.275895" lon="14.1279677"><ele>296.0</ele><time>2026-04-26T13:20:03.755Z</time></trkpt><trkpt lat="42.2757623" lon="14.1280067"><ele>296.0</ele><time>2026-04-26T13:20:04.757Z</time></trkpt><trkpt lat="42.2756227" lon="14.1280473"><ele>296.0</ele><time>2026-04-26T13:20:05.761Z</time></trkpt><trkpt lat="42.2754868" lon="14.1281058"><ele>296.0</ele><time>2026-04-26T13:20:06.761Z</time></trkpt><trkpt lat="42.2753815" lon="14.1281848"><ele>296.8</ele><time>2026-04-26T13:20:07.757Z</time></trkpt><trkpt lat="42.2752973" lon="14.128256"><ele>297.6</ele><time>2026-04-26T13:20:08.759Z</time></trkpt><trkpt lat="42.2752307" lon="14.1282842"><ele>298.4</ele><time>2026-04-26T13:20:09.759Z</time></trkpt><trkpt lat="42.2751458" lon="14.128196"><ele>299.2</ele><time>2026-04-26T13:20:11.76Z</time></trkpt><trkpt lat="42.275113" lon="14.128096"><ele>300.0</ele><time>2026-04-26T13:20:12.765Z</time></trkpt><trkpt lat="42.2750752" lon="14.1279702"><ele>300.75</ele><time>2026-04-26T13:20:13.759Z</time></trkpt><trkpt lat="42.2750308" lon="14.1278215"><ele>301.5</ele><time>2026-04-26T13:20:14.758Z</time></trkpt><trkpt lat="42.2749782" lon="14.127656"><ele>302.25</ele><time>2026-04-26T13:20:15.761Z</time></trkpt><trkpt lat="42.2749183" lon="14.127476"><ele>303.0</ele><time>2026-04-26T13:20:16.759Z</time></trkpt><trkpt lat="42.274855" lon="14.1272857"><ele>303.6666666666667</ele><time>2026-04-26T13:20:17.76Z</time></trkpt><trkpt lat="42.2747917" lon="14.1270845"><ele>304.33333333333337</ele><time>2026-04-26T13:20:18.761Z</time></trkpt><trkpt lat="42.2747348" lon="14.1268767"><ele>305.0</ele><time>2026-04-26T13:20:19.76Z</time></trkpt><trkpt lat="42.2746828" lon="14.1266652"><ele>301.5</ele><time>2026-04-26T13:20:20.759Z</time></trkpt><trkpt lat="42.2746388" lon="14.1264595"><ele>298.0</ele><time>2026-04-26T13:20:21.76Z</time></trkpt><trkpt lat="42.2746125" lon="14.1262775"><ele>294.5</ele><time>2026-04-26T13:20:22.76Z</time></trkpt><trkpt lat="42.2746163" lon="14.1261048"><ele>291.0</ele><time>2026-04-26T13:20:23.761Z</time></trkpt><trkpt lat="42.274648" lon="14.1259258"><ele>291.0</ele><time>2026-04-26T13:20:24.761Z</time></trkpt><trkpt lat="42.274697" lon="14.1257365"><ele>291.0</ele><time>2026-04-26T13:20:25.759Z</time></trkpt><trkpt lat="42.274752" lon="14.1255372"><ele>291.0</ele><time>2026-04-26T13:20:26.759Z</time></trkpt><trkpt lat="42.2748097" lon="14.1253353"><ele>300.3333333333333</ele><time>2026-04-26T13:20:27.756Z</time></trkpt><trkpt lat="42.2748653" lon="14.1251378"><ele>309.66666666666663</ele><time>2026-04-26T13:20:28.757Z</time></trkpt><trkpt lat="42.2749228" lon="14.1249505"><ele>319.0</ele><time>2026-04-26T13:20:29.758Z</time></trkpt><trkpt lat="42.2749907" lon="14.1247768"><ele>321.0</ele><time>2026-04-26T13:20:30.759Z</time></trkpt><trkpt lat="42.2750668" lon="14.1246053"><ele>323.0</ele><time>2026-04-26T13:20:31.76Z</time></trkpt><trkpt lat="42.2751417" lon="14.124447"><ele>325.0</ele><time>2026-04-26T13:20:32.759Z</time></trkpt><trkpt lat="42.275219" lon="14.1243252"><ele>327.0</ele><time>2026-04-26T13:20:33.76Z</time></trkpt><trkpt lat="42.2753062" lon="14.1242573"><ele>327.0</ele><time>2026-04-26T13:20:34.76Z</time></trkpt><trkpt lat="42.2754182" lon="14.1242272"><ele>327.0</ele><time>2026-04-26T13:20:35.759Z</time></trkpt><trkpt lat="42.2755533" lon="14.1242133"><ele>327.0</ele><time>2026-04-26T13:20:36.762Z</time></trkpt><trkpt lat="42.2756903" lon="14.124204"><ele>327.0</ele><time>2026-04-26T13:20:37.76Z</time></trkpt><trkpt lat="42.2758238" lon="14.1241955"><ele>325.5</ele><time>2026-04-26T13:20:38.759Z</time></trkpt><trkpt lat="42.275952" lon="14.1241813"><ele>324.0</ele><time>2026-04-26T13:20:39.76Z</time></trkpt><trkpt lat="42.2760735" lon="14.1241467"><ele>322.5</ele><time>2026-04-26T13:20:40.76Z</time></trkpt><trkpt lat="42.2761908" lon="14.1241118"><ele>321.0</ele><time>2026-04-26T13:20:41.761Z</time></trkpt><trkpt lat="42.2763112" lon="14.124098"><ele>321.0</ele><time>2026-04-26T13:20:42.761Z</time></trkpt><trkpt lat="42.2764148" lon="14.1240955"><ele>321.0</ele><time>2026-04-26T13:20:43.76Z</time></trkpt><trkpt lat="42.2764945" lon="14.124097"><ele>321.0</ele><time>2026-04-26T13:20:44.759Z</time></trkpt><trkpt lat="42.2765667" lon="14.1240645"><ele>321.0</ele><time>2026-04-26T13:20:46.759Z</time></trkpt><trkpt lat="42.2764803" lon="14.1240073"><ele>321.0</ele><time>2026-04-26T13:20:49.756Z</time></trkpt><trkpt lat="42.276414" lon="14.1239618"><ele>321.0</ele><time>2026-04-26T13:20:50.757Z</time></trkpt><trkpt lat="42.2763403" lon="14.1238747"><ele>320.2</ele><time>2026-04-26T13:20:51.757Z</time></trkpt><trkpt lat="42.276269" lon="14.1237578"><ele>319.40000000000003</ele><time>2026-04-26T13:20:52.758Z</time></trkpt><trkpt lat="42.2762045" lon="14.1236325"><ele>318.6</ele><time>2026-04-26T13:20:53.758Z</time></trkpt><trkpt lat="42.2761608" lon="14.1235435"><ele>317.8</ele><time>2026-04-26T13:20:54.759Z</time></trkpt><trkpt lat="42.2761052" lon="14.1234602"><ele>317.0</ele><time>2026-04-26T13:20:56.76Z</time></trkpt><trkpt lat="42.276049" lon="14.1234177"><ele>317.0</ele><time>2026-04-26T13:20:58.76Z</time></trkpt><trkpt lat="42.2759602" lon="14.1233723"><ele>317.0</ele><time>2026-04-26T13:21:00.759Z</time></trkpt><trkpt lat="42.2758748" lon="14.1233458"><ele>317.0</ele><time>2026-04-26T13:21:02.76Z</time></trkpt><trkpt lat="42.2757978" lon="14.1233208"><ele>317.0</ele><time>2026-04-26T13:21:04.759Z</time></trkpt><trkpt lat="42.2757167" lon="14.123302"><ele>317.0</ele><time>2026-04-26T13:21:07.76Z</time></trkpt><trkpt lat="42.2756512" lon="14.1232877"><ele>317.0</ele><time>2026-04-26T13:21:09.758Z</time></trkpt><trkpt lat="42.2755855" lon="14.1232728"><ele>316.5</ele><time>2026-04-26T13:21:11.757Z</time></trkpt><trkpt lat="42.2755147" lon="14.1232233"><ele>316.0</ele><time>2026-04-26T13:21:14.757Z</time></trkpt><trkpt lat="42.2754568" lon="14.1231845"><ele>315.5</ele><time>2026-04-26T13:21:16.757Z</time></trkpt><trkpt lat="42.2753838" lon="14.1231695"><ele>315.0</ele><time>2026-04-26T13:21:18.759Z</time></trkpt><trkpt lat="42.2753098" lon="14.123184"><ele>314.5</ele><time>2026-04-26T13:21:20.76Z</time></trkpt><trkpt lat="42.2752152" lon="14.1231802"><ele>314.0</ele><time>2026-04-26T13:21:22.76Z</time></trkpt><trkpt lat="42.2751497" lon="14.1231547"><ele>314.0</ele><time>2026-04-26T13:21:23.76Z</time></trkpt><trkpt lat="42.2750707" lon="14.1231333"><ele>314.0</ele><time>2026-04-26T13:21:24.761Z</time></trkpt><trkpt lat="42.2749777" lon="14.1231208"><ele>314.0</ele><time>2026-04-26T13:21:25.76Z</time></trkpt><trkpt lat="42.2748763" lon="14.1231193"><ele>314.0</ele><time>2026-04-26T13:21:26.761Z</time></trkpt><trkpt lat="42.2747782" lon="14.123111"><ele>314.0</ele><time>2026-04-26T13:21:27.761Z</time></trkpt><trkpt lat="42.274679" lon="14.1230973"><ele>315.2</ele><time>2026-04-26T13:21:28.76Z</time></trkpt><trkpt lat="42.2745877" lon="14.1230825"><ele>316.4</ele><time>2026-04-26T13:21:29.759Z</time></trkpt><trkpt lat="42.274506" lon="14.1230628"><ele>317.6</ele><time>2026-04-26T13:21:30.762Z</time></trkpt><trkpt lat="42.2744218" lon="14.1230295"><ele>318.8</ele><time>2026-04-26T13:21:31.76Z</time></trkpt><trkpt lat="42.2743322" lon="14.122975"><ele>320.0</ele><time>2026-04-26T13:21:32.759Z</time></trkpt><trkpt lat="42.2742415" lon="14.1229095"><ele>320.0</ele><time>2026-04-26T13:21:33.761Z</time></trkpt><trkpt lat="42.2741558" lon="14.1228442"><ele>320.0</ele><time>2026-04-26T13:21:34.761Z</time></trkpt><trkpt lat="42.2740788" lon="14.1227498"><ele>320.0</ele><time>2026-04-26T13:21:35.762Z</time></trkpt><trkpt lat="42.2740183" lon="14.1226225"><ele>320.0</ele><time>2026-04-26T13:21:36.761Z</time></trkpt><trkpt lat="42.2739638" lon="14.122487"><ele>320.0</ele><time>2026-04-26T13:21:37.76Z</time></trkpt><trkpt lat="42.2739017" lon="14.1223788"><ele>316.2</ele><time>2026-04-26T13:21:38.758Z</time></trkpt><trkpt lat="42.2738267" lon="14.1222938"><ele>312.4</ele><time>2026-04-26T13:21:39.757Z</time></trkpt><trkpt lat="42.2737467" lon="14.1222063"><ele>308.6</ele><time>2026-04-26T13:21:40.757Z</time></trkpt><trkpt lat="42.273688" lon="14.1221038"><ele>304.8</ele><time>2026-04-26T13:21:41.758Z</time></trkpt><trkpt lat="42.2736563" lon="14.1219622"><ele>301.0</ele><time>2026-04-26T13:21:42.761Z</time></trkpt><trkpt lat="42.273625" lon="14.1218147"><ele>301.0</ele><time>2026-04-26T13:21:43.759Z</time></trkpt><trkpt lat="42.2735757" lon="14.1216847"><ele>301.0</ele><time>2026-04-26T13:21:44.76Z</time></trkpt><trkpt lat="42.2735178" lon="14.1215908"><ele>301.0</ele><time>2026-04-26T13:21:45.762Z</time></trkpt><trkpt lat="42.2734463" lon="14.1215132"><ele>301.0</ele><time>2026-04-26T13:21:46.759Z</time></trkpt><trkpt lat="42.2733675" lon="14.1214368"><ele>301.0</ele><time>2026-04-26T13:21:47.761Z</time></trkpt><trkpt lat="42.2732997" lon="14.1213608"><ele>300.40000000000003</ele><time>2026-04-26T13:21:48.76Z</time></trkpt><trkpt lat="42.2732522" lon="14.1212658"><ele>299.8</ele><time>2026-04-26T13:21:49.759Z</time></trkpt><trkpt lat="42.2732132" lon="14.121158"><ele>299.20000000000005</ele><time>2026-04-26T13:21:50.759Z</time></trkpt><trkpt lat="42.273145" lon="14.1210712"><ele>298.6</ele><time>2026-04-26T13:21:51.761Z</time></trkpt><trkpt lat="42.2730425" lon="14.1209975"><ele>298.0</ele><time>2026-04-26T13:21:52.761Z</time></trkpt><trkpt lat="42.2729308" lon="14.1209205"><ele>296.5</ele><time>2026-04-26T13:21:53.76Z</time></trkpt><trkpt lat="42.272824" lon="14.120841"><ele>295.0</ele><time>2026-04-26T13:21:54.759Z</time></trkpt><trkpt lat="42.2727163" lon="14.1207752"><ele>293.5</ele><time>2026-04-26T13:21:55.759Z</time></trkpt><trkpt lat="42.2726133" lon="14.1207168"><ele>292.0</ele><time>2026-04-26T13:21:56.76Z</time></trkpt><trkpt lat="42.272517" lon="14.1206475"><ele>289.75</ele><time>2026-04-26T13:21:57.762Z</time></trkpt><trkpt lat="42.2724155" lon="14.1205655"><ele>287.5</ele><time>2026-04-26T13:21:58.759Z</time></trkpt><trkpt lat="42.2723135" lon="14.1204692"><ele>285.25</ele><time>2026-04-26T13:21:59.76Z</time></trkpt><trkpt lat="42.2722112" lon="14.120378"><ele>283.0</ele><time>2026-04-26T13:22:00.76Z</time></trkpt><trkpt lat="42.2721113" lon="14.1202918"><ele>282.6</ele><time>2026-04-26T13:22:01.758Z</time></trkpt><trkpt lat="42.272015" lon="14.1202078"><ele>282.20000000000005</ele><time>2026-04-26T13:22:02.757Z</time></trkpt><trkpt lat="42.2719198" lon="14.1201293"><ele>281.8</ele><time>2026-04-26T13:22:03.756Z</time></trkpt><trkpt lat="42.2718238" lon="14.1200518"><ele>281.40000000000003</ele><time>2026-04-26T13:22:04.756Z</time></trkpt><trkpt lat="42.271729" lon="14.1199808"><ele>281.0</ele><time>2026-04-26T13:22:05.756Z</time></trkpt><trkpt lat="42.2716368" lon="14.1199227"><ele>280.40000000000003</ele><time>2026-04-26T13:22:06.76Z</time></trkpt><trkpt lat="42.2715532" lon="14.1198555"><ele>279.8</ele><time>2026-04-26T13:22:07.76Z</time></trkpt><trkpt lat="42.2714935" lon="14.1197683"><ele>279.20000000000005</ele><time>2026-04-26T13:22:08.761Z</time></trkpt><trkpt lat="42.2714483" lon="14.1196612"><ele>278.6</ele><time>2026-04-26T13:22:09.761Z</time></trkpt><trkpt lat="42.2714088" lon="14.1195332"><ele>278.0</ele><time>2026-04-26T13:22:10.761Z</time></trkpt><trkpt lat="42.2713648" lon="14.1193915"><ele>278.0</ele><time>2026-04-26T13:22:11.76Z</time></trkpt><trkpt lat="42.2713198" lon="14.1192545"><ele>278.0</ele><time>2026-04-26T13:22:12.762Z</time></trkpt><trkpt lat="42.271276" lon="14.1191337"><ele>278.0</ele><time>2026-04-26T13:22:13.76Z</time></trkpt><trkpt lat="42.2712317" lon="14.119034"><ele>278.0</ele><time>2026-04-26T13:22:14.759Z</time></trkpt><trkpt lat="42.2711833" lon="14.118947"><ele>278.0</ele><time>2026-04-26T13:22:15.76Z</time></trkpt><trkpt lat="42.2711317" lon="14.1188828"><ele>278.0</ele><time>2026-04-26T13:22:16.759Z</time></trkpt><trkpt lat="42.271072" lon="14.1188318"><ele>277.33333333333337</ele><time>2026-04-26T13:22:17.759Z</time></trkpt><trkpt lat="42.2710097" lon="14.1188013"><ele>276.6666666666667</ele><time>2026-04-26T13:22:18.76Z</time></trkpt><trkpt lat="42.2708963" lon="14.1187877"><ele>276.0</ele><time>2026-04-26T13:22:20.759Z</time></trkpt><trkpt lat="42.270827" lon="14.1187877"><ele>275.3333333333333</ele><time>2026-04-26T13:22:21.76Z</time></trkpt><trkpt lat="42.2707443" lon="14.1187817"><ele>274.66666666666663</ele><time>2026-04-26T13:22:22.759Z</time></trkpt><trkpt lat="42.2706547" lon="14.118769"><ele>274.0</ele><time>2026-04-26T13:22:23.759Z</time></trkpt><trkpt lat="42.2705632" lon="14.1187547"><ele>275.59999999999997</ele><time>2026-04-26T13:22:24.76Z</time></trkpt><trkpt lat="42.2704687" lon="14.1187353"><ele>277.2</ele><time>2026-04-26T13:22:25.76Z</time></trkpt><trkpt lat="42.270373" lon="14.1187103"><ele>278.79999999999995</ele><time>2026-04-26T13:22:26.761Z</time></trkpt><trkpt lat="42.2702792" lon="14.1186665"><ele>280.4</ele><time>2026-04-26T13:22:27.757Z</time></trkpt><trkpt lat="42.2701823" lon="14.1186145"><ele>282.0</ele><time>2026-04-26T13:22:28.758Z</time></trkpt><trkpt lat="42.2700832" lon="14.1185612"><ele>282.0</ele><time>2026-04-26T13:22:29.757Z</time></trkpt><trkpt lat="42.269984" lon="14.118513"><ele>282.0</ele><time>2026-04-26T13:22:30.758Z</time></trkpt><trkpt lat="42.2698948" lon="14.1184635"><ele>282.0</ele><time>2026-04-26T13:22:31.763Z</time></trkpt><trkpt lat="42.2698272" lon="14.1184128"><ele>282.0</ele><time>2026-04-26T13:22:32.759Z</time></trkpt><trkpt lat="42.2697628" lon="14.1183582"><ele>282.0</ele><time>2026-04-26T13:22:33.758Z</time></trkpt><trkpt lat="42.2696957" lon="14.1182922"><ele>282.0</ele><time>2026-04-26T13:22:34.758Z</time></trkpt><trkpt lat="42.2696262" lon="14.1182118"><ele>279.4</ele><time>2026-04-26T13:22:35.762Z</time></trkpt><trkpt lat="42.2695573" lon="14.1181283"><ele>276.79999999999995</ele><time>2026-04-26T13:22:36.761Z</time></trkpt><trkpt lat="42.2694922" lon="14.1180283"><ele>274.2</ele><time>2026-04-26T13:22:37.76Z</time></trkpt><trkpt lat="42.2694347" lon="14.11791"><ele>271.59999999999997</ele><time>2026-04-26T13:22:38.759Z</time></trkpt><trkpt lat="42.2693955" lon="14.1177777"><ele>269.0</ele><time>2026-04-26T13:22:39.761Z</time></trkpt><trkpt lat="42.2693858" lon="14.1176302"><ele>269.0</ele><time>2026-04-26T13:22:40.762Z</time></trkpt><trkpt lat="42.2694075" lon="14.1174665"><ele>269.0</ele><time>2026-04-26T13:22:41.762Z</time></trkpt><trkpt lat="42.269461" lon="14.1173033"><ele>269.0</ele><time>2026-04-26T13:22:42.76Z</time></trkpt><trkpt lat="42.2695263" lon="14.1171598"><ele>269.0</ele><time>2026-04-26T13:22:43.761Z</time></trkpt><trkpt lat="42.269576" lon="14.1170272"><ele>266.5</ele><time>2026-04-26T13:22:44.757Z</time></trkpt><trkpt lat="42.2695912" lon="14.1168618"><ele>264.0</ele><time>2026-04-26T13:22:45.757Z</time></trkpt><trkpt lat="42.269583" lon="14.1166708"><ele>261.5</ele><time>2026-04-26T13:22:46.756Z</time></trkpt><trkpt lat="42.2695788" lon="14.1164735"><ele>259.0</ele><time>2026-04-26T13:22:47.759Z</time></trkpt><trkpt lat="42.269581" lon="14.1162818"><ele>257.5</ele><time>2026-04-26T13:22:48.76Z</time></trkpt><trkpt lat="42.2695677" lon="14.1161"><ele>256.0</ele><time>2026-04-26T13:22:49.759Z</time></trkpt><trkpt lat="42.2695265" lon="14.1159345"><ele>254.5</ele><time>2026-04-26T13:22:50.759Z</time></trkpt><trkpt lat="42.2694592" lon="14.1158027"><ele>253.0</ele><time>2026-04-26T13:22:51.758Z</time></trkpt><trkpt lat="42.2693672" lon="14.1157062"><ele>251.5</ele><time>2026-04-26T13:22:52.757Z</time></trkpt><trkpt lat="42.2692605" lon="14.1156215"><ele>250.0</ele><time>2026-04-26T13:22:53.758Z</time></trkpt><trkpt lat="42.2691722" lon="14.1155257"><ele>248.5</ele><time>2026-04-26T13:22:54.756Z</time></trkpt><trkpt lat="42.2690905" lon="14.1153785"><ele>247.0</ele><time>2026-04-26T13:22:55.959Z</time></trkpt><trkpt lat="42.269013" lon="14.1151727"><ele>247.0</ele><time>2026-04-26T13:22:57.569Z</time></trkpt><trkpt lat="42.2689732" lon="14.115038"><ele>247.0</ele><time>2026-04-26T13:22:58.759Z</time></trkpt><trkpt lat="42.268933" lon="14.1149318"><ele>247.0</ele><time>2026-04-26T13:22:59.76Z</time></trkpt><trkpt lat="42.2688902" lon="14.114828"><ele>247.0</ele><time>2026-04-26T13:23:00.758Z</time></trkpt><trkpt lat="42.2688483" lon="14.11472"><ele>247.0</ele><time>2026-04-26T13:23:01.759Z</time></trkpt><trkpt lat="42.2688195" lon="14.1145935"><ele>242.5</ele><time>2026-04-26T13:23:02.759Z</time></trkpt><trkpt lat="42.2687885" lon="14.1144443"><ele>238.0</ele><time>2026-04-26T13:23:03.759Z</time></trkpt><trkpt lat="42.268762" lon="14.1142892"><ele>233.5</ele><time>2026-04-26T13:23:04.76Z</time></trkpt><trkpt lat="42.2687315" lon="14.1141323"><ele>229.0</ele><time>2026-04-26T13:23:05.758Z</time></trkpt><trkpt lat="42.268683" lon="14.1140007"><ele>229.0</ele><time>2026-04-26T13:23:06.761Z</time></trkpt><trkpt lat="42.2686065" lon="14.113901"><ele>229.0</ele><time>2026-04-26T13:23:07.758Z</time></trkpt><trkpt lat="42.2685043" lon="14.113825"><ele>229.0</ele><time>2026-04-26T13:23:08.759Z</time></trkpt><trkpt lat="42.2683958" lon="14.1137397"><ele>229.0</ele><time>2026-04-26T13:23:09.76Z</time></trkpt><trkpt lat="42.268284" lon="14.113652"><ele>229.0</ele><time>2026-04-26T13:23:10.76Z</time></trkpt><trkpt lat="42.2681747" lon="14.113579"><ele>229.0</ele><time>2026-04-26T13:23:11.759Z</time></trkpt><trkpt lat="42.268071" lon="14.113485"><ele>229.0</ele><time>2026-04-26T13:23:12.759Z</time></trkpt><trkpt lat="42.2679787" lon="14.113361"><ele>229.0</ele><time>2026-04-26T13:23:13.76Z</time></trkpt><trkpt lat="42.2678945" lon="14.1132203"><ele>230.0</ele><time>2026-04-26T13:23:14.759Z</time></trkpt><trkpt lat="42.2678225" lon="14.1130687"><ele>231.0</ele><time>2026-04-26T13:23:15.758Z</time></trkpt><trkpt lat="42.2677508" lon="14.1129193"><ele>232.0</ele><time>2026-04-26T13:23:16.758Z</time></trkpt><trkpt lat="42.2676602" lon="14.1127893"><ele>233.0</ele><time>2026-04-26T13:23:17.757Z</time></trkpt><trkpt lat="42.267561" lon="14.112674"><ele>233.0</ele><time>2026-04-26T13:23:18.758Z</time></trkpt><trkpt lat="42.2674723" lon="14.1125603"><ele>233.0</ele><time>2026-04-26T13:23:19.758Z</time></trkpt><trkpt lat="42.267411" lon="14.1124293"><ele>233.0</ele><time>2026-04-26T13:23:20.76Z</time></trkpt><trkpt lat="42.2673652" lon="14.1122765"><ele>233.0</ele><time>2026-04-26T13:23:21.761Z</time></trkpt><trkpt lat="42.267325" lon="14.1121107"><ele>232.0</ele><time>2026-04-26T13:23:22.761Z</time></trkpt><trkpt lat="42.2672867" lon="14.1119438"><ele>231.0</ele><time>2026-04-26T13:23:23.759Z</time></trkpt><trkpt lat="42.2672453" lon="14.111776"><ele>230.0</ele><time>2026-04-26T13:23:24.759Z</time></trkpt><trkpt lat="42.2672023" lon="14.1116117"><ele>229.0</ele><time>2026-04-26T13:23:25.76Z</time></trkpt><trkpt lat="42.267152" lon="14.111445"><ele>232.75</ele><time>2026-04-26T13:23:26.777Z</time></trkpt><trkpt lat="42.2671002" lon="14.1112783"><ele>236.5</ele><time>2026-04-26T13:23:27.761Z</time></trkpt><trkpt lat="42.2670437" lon="14.1111115"><ele>240.25</ele><time>2026-04-26T13:23:28.759Z</time></trkpt><trkpt lat="42.2669852" lon="14.1109443"><ele>244.0</ele><time>2026-04-26T13:23:29.759Z</time></trkpt><trkpt lat="42.2669308" lon="14.1107838"><ele>244.75</ele><time>2026-04-26T13:23:30.758Z</time></trkpt><trkpt lat="42.2668793" lon="14.1106188"><ele>245.5</ele><time>2026-04-26T13:23:31.759Z</time></trkpt><trkpt lat="42.2668383" lon="14.1104377"><ele>246.25</ele><time>2026-04-26T13:23:32.761Z</time></trkpt><trkpt lat="42.2668073" lon="14.110249"><ele>247.0</ele><time>2026-04-26T13:23:33.759Z</time></trkpt><trkpt lat="42.2667823" lon="14.1100618"><ele>249.0</ele><time>2026-04-26T13:23:34.759Z</time></trkpt><trkpt lat="42.2667483" lon="14.1098923"><ele>251.0</ele><time>2026-04-26T13:23:35.758Z</time></trkpt><trkpt lat="42.266703" lon="14.1097682"><ele>253.0</ele><time>2026-04-26T13:23:36.76Z</time></trkpt><trkpt lat="42.2666595" lon="14.1096557"><ele>255.0</ele><time>2026-04-26T13:23:37.758Z</time></trkpt><trkpt lat="42.2666125" lon="14.1095423"><ele>257.0</ele><time>2026-04-26T13:23:38.761Z</time></trkpt><trkpt lat="42.2665632" lon="14.1094303"><ele>257.0</ele><time>2026-04-26T13:23:39.761Z</time></trkpt><trkpt lat="42.2665102" lon="14.1093142"><ele>257.0</ele><time>2026-04-26T13:23:40.757Z</time></trkpt><trkpt lat="42.2664552" lon="14.1091982"><ele>257.0</ele><time>2026-04-26T13:23:41.756Z</time></trkpt><trkpt lat="42.2663947" lon="14.109084"><ele>257.0</ele><time>2026-04-26T13:23:42.757Z</time></trkpt><trkpt lat="42.266331" lon="14.1089727"><ele>257.0</ele><time>2026-04-26T13:23:43.756Z</time></trkpt><trkpt lat="42.2662625" lon="14.1088642"><ele>259.5</ele><time>2026-04-26T13:23:44.757Z</time></trkpt><trkpt lat="42.2661883" lon="14.1087552"><ele>262.0</ele><time>2026-04-26T13:23:45.76Z</time></trkpt><trkpt lat="42.2661097" lon="14.1086407"><ele>264.5</ele><time>2026-04-26T13:23:46.761Z</time></trkpt><trkpt lat="42.2660335" lon="14.1085233"><ele>267.0</ele><time>2026-04-26T13:23:47.76Z</time></trkpt><trkpt lat="42.2659595" lon="14.1084047"><ele>267.0</ele><time>2026-04-26T13:23:48.762Z</time></trkpt><trkpt lat="42.2658883" lon="14.1082875"><ele>267.0</ele><time>2026-04-26T13:23:49.761Z</time></trkpt><trkpt lat="42.2658263" lon="14.1081622"><ele>267.0</ele><time>2026-04-26T13:23:50.766Z</time></trkpt><trkpt lat="42.2657723" lon="14.1080325"><ele>267.0</ele><time>2026-04-26T13:23:51.765Z</time></trkpt><trkpt lat="42.2657237" lon="14.1078988"><ele>267.0</ele><time>2026-04-26T13:23:52.76Z</time></trkpt><trkpt lat="42.2656745" lon="14.1077633"><ele>267.4</ele><time>2026-04-26T13:23:53.76Z</time></trkpt><trkpt lat="42.2656212" lon="14.1076335"><ele>267.79999999999995</ele><time>2026-04-26T13:23:54.76Z</time></trkpt><trkpt lat="42.2655675" lon="14.107519"><ele>268.2</ele><time>2026-04-26T13:23:55.759Z</time></trkpt><trkpt lat="42.2655127" lon="14.1074183"><ele>268.59999999999997</ele><time>2026-04-26T13:23:56.76Z</time></trkpt><trkpt lat="42.265458" lon="14.107317"><ele>269.0</ele><time>2026-04-26T13:23:57.761Z</time></trkpt><trkpt lat="42.2654083" lon="14.1072078"><ele>269.1666666666667</ele><time>2026-04-26T13:23:58.759Z</time></trkpt><trkpt lat="42.2653662" lon="14.1071085"><ele>269.33333333333337</ele><time>2026-04-26T13:23:59.76Z</time></trkpt><trkpt lat="42.2653425" lon="14.1070283"><ele>269.5</ele><time>2026-04-26T13:24:01.759Z</time></trkpt><trkpt lat="42.2653838" lon="14.1069312"><ele>269.6666666666667</ele><time>2026-04-26T13:24:05.757Z</time></trkpt><trkpt lat="42.2654253" lon="14.1068503"><ele>269.8333333333333</ele><time>2026-04-26T13:24:08.756Z</time></trkpt><trkpt lat="42.2654607" lon="14.1067745"><ele>270.0</ele><time>2026-04-26T13:24:10.761Z</time></trkpt><trkpt lat="42.2655077" lon="14.1066755"><ele>265.8</ele><time>2026-04-26T13:24:12.76Z</time></trkpt><trkpt lat="42.2655667" lon="14.1065617"><ele>261.6</ele><time>2026-04-26T13:24:14.761Z</time></trkpt><trkpt lat="42.265638" lon="14.1064663"><ele>257.4</ele><time>2026-04-26T13:24:16.762Z</time></trkpt><trkpt lat="42.2657353" lon="14.1063883"><ele>253.2</ele><time>2026-04-26T13:24:18.761Z</time></trkpt><trkpt lat="42.2658433" lon="14.10631"><ele>249.0</ele><time>2026-04-26T13:24:20.761Z</time></trkpt><trkpt lat="42.2658975" lon="14.1062628"><ele>248.2</ele><time>2026-04-26T13:24:21.762Z</time></trkpt><trkpt lat="42.2659515" lon="14.1062078"><ele>247.39999999999998</ele><time>2026-04-26T13:24:22.762Z</time></trkpt><trkpt lat="42.265999" lon="14.1061487"><ele>246.6</ele><time>2026-04-26T13:24:23.76Z</time></trkpt><trkpt lat="42.2660728" lon="14.106026"><ele>245.8</ele><time>2026-04-26T13:24:25.761Z</time></trkpt><trkpt lat="42.2661355" lon="14.1058913"><ele>245.0</ele><time>2026-04-26T13:24:27.759Z</time></trkpt><trkpt lat="42.2661802" lon="14.1057593"><ele>241.16666666666669</ele><time>2026-04-26T13:24:29.759Z</time></trkpt><trkpt lat="42.2662138" lon="14.1056242"><ele>237.33333333333334</ele><time>2026-04-26T13:24:31.756Z</time></trkpt><trkpt lat="42.266238" lon="14.1054997"><ele>233.5</ele><time>2026-04-26T13:24:33.76Z</time></trkpt><trkpt lat="42.2662508" lon="14.1054125"><ele>229.66666666666669</ele><time>2026-04-26T13:24:35.758Z</time></trkpt><trkpt lat="42.266272" lon="14.1053078"><ele>225.83333333333334</ele><time>2026-04-26T13:24:38.759Z</time></trkpt><trkpt lat="42.2663025" lon="14.1051968"><ele>222.0</ele><time>2026-04-26T13:24:41.761Z</time></trkpt><trkpt lat="42.2663348" lon="14.1050997"><ele>222.0</ele><time>2026-04-26T13:24:44.758Z</time></trkpt><trkpt lat="42.266376" lon="14.105014"><ele>222.0</ele><time>2026-04-26T13:25:58.759Z</time></trkpt><trkpt lat="42.2664732" lon="14.1049008"><ele>222.0</ele><time>2026-04-26T13:26:00.766Z</time></trkpt><trkpt lat="42.266531" lon="14.1048482"><ele>222.0</ele><time>2026-04-26T13:26:01.76Z</time></trkpt><trkpt lat="42.2665957" lon="14.1047982"><ele>222.0</ele><time>2026-04-26T13:26:02.759Z</time></trkpt><trkpt lat="42.2666687" lon="14.1047575"><ele>222.0</ele><time>2026-04-26T13:26:03.763Z</time></trkpt><trkpt lat="42.2667465" lon="14.1047355"><ele>219.33333333333334</ele><time>2026-04-26T13:26:04.76Z</time></trkpt><trkpt lat="42.2668282" lon="14.1047237"><ele>216.66666666666669</ele><time>2026-04-26T13:26:05.758Z</time></trkpt><trkpt lat="42.2669143" lon="14.1047147"><ele>214.0</ele><time>2026-04-26T13:26:06.757Z</time></trkpt><trkpt lat="42.2669965" lon="14.1047017"><ele>211.33333333333334</ele><time>2026-04-26T13:26:07.756Z</time></trkpt><trkpt lat="42.2670855" lon="14.1046855"><ele>208.66666666666669</ele><time>2026-04-26T13:26:08.756Z</time></trkpt><trkpt lat="42.2671762" lon="14.1046668"><ele>206.0</ele><time>2026-04-26T13:26:09.757Z</time></trkpt><trkpt lat="42.2672645" lon="14.1046462"><ele>206.60000000000002</ele><time>2026-04-26T13:26:10.757Z</time></trkpt><trkpt lat="42.267343" lon="14.1046263"><ele>207.2</ele><time>2026-04-26T13:26:11.759Z</time></trkpt><trkpt lat="42.2674263" lon="14.104604"><ele>207.8</ele><time>2026-04-26T13:26:12.761Z</time></trkpt><trkpt lat="42.2675233" lon="14.1045868"><ele>208.39999999999998</ele><time>2026-04-26T13:26:13.761Z</time></trkpt><trkpt lat="42.2676323" lon="14.1045722"><ele>209.0</ele><time>2026-04-26T13:26:14.761Z</time></trkpt><trkpt lat="42.2677513" lon="14.1045587"><ele>209.0</ele><time>2026-04-26T13:26:15.762Z</time></trkpt><trkpt lat="42.267877" lon="14.1045417"><ele>209.0</ele><time>2026-04-26T13:26:16.762Z</time></trkpt><trkpt lat="42.2680052" lon="14.1045217"><ele>209.0</ele><time>2026-04-26T13:26:17.76Z</time></trkpt><trkpt lat="42.2681312" lon="14.104496"><ele>209.0</ele><time>2026-04-26T13:26:18.759Z</time></trkpt><trkpt lat="42.26825" lon="14.104463"><ele>210.0</ele><time>2026-04-26T13:26:19.759Z</time></trkpt><trkpt lat="42.2683503" lon="14.1044327"><ele>211.0</ele><time>2026-04-26T13:26:20.759Z</time></trkpt><trkpt lat="42.2684262" lon="14.104413"><ele>211.99999999999997</ele><time>2026-04-26T13:26:21.76Z</time></trkpt><trkpt lat="42.2684912" lon="14.1044027"><ele>213.0</ele><time>2026-04-26T13:26:22.76Z</time></trkpt><trkpt lat="42.2686205" lon="14.1043988"><ele>214.0</ele><time>2026-04-26T13:26:24.759Z</time></trkpt><trkpt lat="42.2686997" lon="14.104404"><ele>214.0</ele><time>2026-04-26T13:26:25.759Z</time></trkpt><trkpt lat="42.2687857" lon="14.1044138"><ele>213.99999999999997</ele><time>2026-04-26T13:26:26.759Z</time></trkpt><trkpt lat="42.2688775" lon="14.104435"><ele>213.99999999999997</ele><time>2026-04-26T13:26:27.759Z</time></trkpt><trkpt lat="42.2689747" lon="14.1044638"><ele>214.0</ele><time>2026-04-26T13:26:28.762Z</time></trkpt><trkpt lat="42.2690718" lon="14.1044903"><ele>214.0</ele><time>2026-04-26T13:26:29.76Z</time></trkpt><trkpt lat="42.2691623" lon="14.104512"><ele>213.79999999999998</ele><time>2026-04-26T13:26:30.759Z</time></trkpt><trkpt lat="42.2692433" lon="14.1045425"><ele>213.59999999999997</ele><time>2026-04-26T13:26:31.76Z</time></trkpt><trkpt lat="42.2693287" lon="14.1045793"><ele>213.4</ele><time>2026-04-26T13:26:32.758Z</time></trkpt><trkpt lat="42.269427" lon="14.1046063"><ele>213.2</ele><time>2026-04-26T13:26:33.76Z</time></trkpt><trkpt lat="42.2695265" lon="14.1046135"><ele>213.0</ele><time>2026-04-26T13:26:34.757Z</time></trkpt><trkpt lat="42.269618" lon="14.1045997"><ele>213.0</ele><time>2026-04-26T13:26:35.76Z</time></trkpt><trkpt lat="42.269711" lon="14.1045835"><ele>213.0</ele><time>2026-04-26T13:26:36.762Z</time></trkpt><trkpt lat="42.2698092" lon="14.1045742"><ele>213.0</ele><time>2026-04-26T13:26:37.76Z</time></trkpt><trkpt lat="42.2699085" lon="14.1045747"><ele>213.0</ele><time>2026-04-26T13:26:38.759Z</time></trkpt><trkpt lat="42.2700095" lon="14.1045877"><ele>213.0</ele><time>2026-04-26T13:26:39.76Z</time></trkpt><trkpt lat="42.2701168" lon="14.104602"><ele>213.60000000000002</ele><time>2026-04-26T13:26:40.759Z</time></trkpt><trkpt lat="42.2702292" lon="14.1046162"><ele>214.20000000000002</ele><time>2026-04-26T13:26:41.757Z</time></trkpt><trkpt lat="42.2703395" lon="14.1046207"><ele>214.8</ele><time>2026-04-26T13:26:42.759Z</time></trkpt><trkpt lat="42.2704457" lon="14.1046183"><ele>215.4</ele><time>2026-04-26T13:26:43.76Z</time></trkpt><trkpt lat="42.270535" lon="14.1046132"><ele>216.0</ele><time>2026-04-26T13:26:44.76Z</time></trkpt><trkpt lat="42.2706133" lon="14.104599"><ele>216.0</ele><time>2026-04-26T13:26:45.759Z</time></trkpt><trkpt lat="42.2706998" lon="14.1045818"><ele>216.00000000000003</ele><time>2026-04-26T13:26:46.762Z</time></trkpt><trkpt lat="42.2707948" lon="14.1045702"><ele>216.00000000000003</ele><time>2026-04-26T13:26:47.761Z</time></trkpt><trkpt lat="42.2708933" lon="14.1045572"><ele>216.0</ele><time>2026-04-26T13:26:48.76Z</time></trkpt><trkpt lat="42.27099" lon="14.104532"><ele>216.0</ele><time>2026-04-26T13:26:49.76Z</time></trkpt><trkpt lat="42.2710887" lon="14.1044928"><ele>216.0</ele><time>2026-04-26T13:26:50.762Z</time></trkpt><trkpt lat="42.271185" lon="14.1044507"><ele>216.00000000000003</ele><time>2026-04-26T13:26:51.761Z</time></trkpt><trkpt lat="42.2712758" lon="14.1044215"><ele>216.00000000000003</ele><time>2026-04-26T13:26:52.76Z</time></trkpt><trkpt lat="42.2713535" lon="14.1044113"><ele>216.0</ele><time>2026-04-26T13:26:53.761Z</time></trkpt><trkpt lat="42.2714193" lon="14.104408"><ele>216.0</ele><time>2026-04-26T13:26:54.759Z</time></trkpt><trkpt lat="42.2715312" lon="14.104412"><ele>214.60000000000002</ele><time>2026-04-26T13:26:56.763Z</time></trkpt><trkpt lat="42.2716377" lon="14.1043698"><ele>213.20000000000002</ele><time>2026-04-26T13:26:58.757Z</time></trkpt><trkpt lat="42.2717505" lon="14.1042787"><ele>211.8</ele><time>2026-04-26T13:27:00.759Z</time></trkpt><trkpt lat="42.271818" lon="14.1042185"><ele>210.39999999999998</ele><time>2026-04-26T13:27:01.757Z</time></trkpt><trkpt lat="42.2718865" lon="14.1041485"><ele>209.0</ele><time>2026-04-26T13:27:02.761Z</time></trkpt><trkpt lat="42.2719432" lon="14.1040687"><ele>206.66666666666669</ele><time>2026-04-26T13:27:03.762Z</time></trkpt><trkpt lat="42.2719903" lon="14.1039782"><ele>204.33333333333334</ele><time>2026-04-26T13:27:04.76Z</time></trkpt><trkpt lat="42.2720318" lon="14.1038752"><ele>202.0</ele><time>2026-04-26T13:27:05.762Z</time></trkpt><trkpt lat="42.272067" lon="14.1037653"><ele>199.66666666666669</ele><time>2026-04-26T13:27:06.761Z</time></trkpt><trkpt lat="42.2720993" lon="14.1036502"><ele>197.33333333333334</ele><time>2026-04-26T13:27:07.76Z</time></trkpt><trkpt lat="42.2721318" lon="14.1035287"><ele>195.0</ele><time>2026-04-26T13:27:08.761Z</time></trkpt><trkpt lat="42.2721627" lon="14.1034023"><ele>195.0</ele><time>2026-04-26T13:27:09.76Z</time></trkpt><trkpt lat="42.2721852" lon="14.1032703"><ele>195.0</ele><time>2026-04-26T13:27:10.759Z</time></trkpt><trkpt lat="42.2721967" lon="14.1031322"><ele>195.0</ele><time>2026-04-26T13:27:11.76Z</time></trkpt><trkpt lat="42.2722048" lon="14.1029978"><ele>195.0</ele><time>2026-04-26T13:27:12.76Z</time></trkpt><trkpt lat="42.2722185" lon="14.1028745"><ele>195.0</ele><time>2026-04-26T13:27:13.759Z</time></trkpt><trkpt lat="42.2722483" lon="14.1027667"><ele>194.4</ele><time>2026-04-26T13:27:14.761Z</time></trkpt><trkpt lat="42.2722957" lon="14.1026792"><ele>193.8</ele><time>2026-04-26T13:27:15.759Z</time></trkpt><trkpt lat="42.2723643" lon="14.102599"><ele>193.2</ele><time>2026-04-26T13:27:16.762Z</time></trkpt><trkpt lat="42.2724487" lon="14.1025268"><ele>192.6</ele><time>2026-04-26T13:27:17.761Z</time></trkpt><trkpt lat="42.2725423" lon="14.1024558"><ele>192.0</ele><time>2026-04-26T13:27:18.762Z</time></trkpt><trkpt lat="42.2726352" lon="14.1023787"><ele>192.0</ele><time>2026-04-26T13:27:19.759Z</time></trkpt><trkpt lat="42.2727212" lon="14.1022868"><ele>192.0</ele><time>2026-04-26T13:27:20.76Z</time></trkpt><trkpt lat="42.2727897" lon="14.1021805"><ele>192.0</ele><time>2026-04-26T13:27:21.756Z</time></trkpt><trkpt lat="42.2728395" lon="14.1020572"><ele>192.0</ele><time>2026-04-26T13:27:22.756Z</time></trkpt><trkpt lat="42.2728773" lon="14.1019155"><ele>192.0</ele><time>2026-04-26T13:27:23.758Z</time></trkpt><trkpt lat="42.2729163" lon="14.1017733"><ele>192.0</ele><time>2026-04-26T13:27:24.758Z</time></trkpt><trkpt lat="42.2729667" lon="14.1016493"><ele>192.0</ele><time>2026-04-26T13:27:25.758Z</time></trkpt><trkpt lat="42.2730305" lon="14.1015452"><ele>192.0</ele><time>2026-04-26T13:27:26.76Z</time></trkpt><trkpt lat="42.2731098" lon="14.1014692"><ele>192.0</ele><time>2026-04-26T13:27:27.759Z</time></trkpt><trkpt lat="42.2732022" lon="14.1014288"><ele>192.0</ele><time>2026-04-26T13:27:28.761Z</time></trkpt><trkpt lat="42.2732998" lon="14.1014283"><ele>191.75</ele><time>2026-04-26T13:27:29.759Z</time></trkpt><trkpt lat="42.273408" lon="14.1014605"><ele>191.5</ele><time>2026-04-26T13:27:30.759Z</time></trkpt><trkpt lat="42.2735278" lon="14.1015112"><ele>191.25</ele><time>2026-04-26T13:27:31.759Z</time></trkpt><trkpt lat="42.273657" lon="14.1015677"><ele>191.0</ele><time>2026-04-26T13:27:32.759Z</time></trkpt><trkpt lat="42.2737875" lon="14.1016242"><ele>189.5</ele><time>2026-04-26T13:27:33.759Z</time></trkpt><trkpt lat="42.2739142" lon="14.1016763"><ele>188.0</ele><time>2026-04-26T13:27:34.759Z</time></trkpt><trkpt lat="42.2740382" lon="14.1017192"><ele>186.5</ele><time>2026-04-26T13:27:35.759Z</time></trkpt><trkpt lat="42.2741587" lon="14.1017485"><ele>185.0</ele><time>2026-04-26T13:27:36.758Z</time></trkpt><trkpt lat="42.2742787" lon="14.101752"><ele>185.0</ele><time>2026-04-26T13:27:37.757Z</time></trkpt><trkpt lat="42.2744005" lon="14.1017247"><ele>185.0</ele><time>2026-04-26T13:27:38.761Z</time></trkpt><trkpt lat="42.2745135" lon="14.1016747"><ele>185.0</ele><time>2026-04-26T13:27:39.759Z</time></trkpt><trkpt lat="42.2746148" lon="14.1016052"><ele>185.0</ele><time>2026-04-26T13:27:40.76Z</time></trkpt><trkpt lat="42.2747098" lon="14.1015105"><ele>183.8</ele><time>2026-04-26T13:27:41.763Z</time></trkpt><trkpt lat="42.274795" lon="14.1014013"><ele>182.6</ele><time>2026-04-26T13:27:42.761Z</time></trkpt><trkpt lat="42.2748665" lon="14.1012928"><ele>181.39999999999998</ele><time>2026-04-26T13:27:43.761Z</time></trkpt><trkpt lat="42.2749225" lon="14.101176"><ele>180.2</ele><time>2026-04-26T13:27:44.761Z</time></trkpt><trkpt lat="42.2749713" lon="14.1010397"><ele>179.0</ele><time>2026-04-26T13:27:45.76Z</time></trkpt><trkpt lat="42.2750212" lon="14.1008953"><ele>177.75</ele><time>2026-04-26T13:27:46.757Z</time></trkpt><trkpt lat="42.2750757" lon="14.100745"><ele>176.5</ele><time>2026-04-26T13:27:47.756Z</time></trkpt><trkpt lat="42.2751345" lon="14.1005938"><ele>175.25</ele><time>2026-04-26T13:27:48.757Z</time></trkpt><trkpt lat="42.275194" lon="14.1004502"><ele>174.0</ele><time>2026-04-26T13:27:49.758Z</time></trkpt><trkpt lat="42.2752515" lon="14.1003153"><ele>174.0</ele><time>2026-04-26T13:27:50.759Z</time></trkpt><trkpt lat="42.2753053" lon="14.1001902"><ele>174.0</ele><time>2026-04-26T13:27:51.76Z</time></trkpt><trkpt lat="42.2753523" lon="14.1000803"><ele>174.0</ele><time>2026-04-26T13:27:52.761Z</time></trkpt><trkpt lat="42.2753928" lon="14.0999705"><ele>174.0</ele><time>2026-04-26T13:27:53.761Z</time></trkpt><trkpt lat="42.2754332" lon="14.0998495"><ele>174.0</ele><time>2026-04-26T13:27:54.764Z</time></trkpt><trkpt lat="42.2754692" lon="14.0997175"><ele>174.25</ele><time>2026-04-26T13:27:55.761Z</time></trkpt><trkpt lat="42.2754938" lon="14.0995737"><ele>174.5</ele><time>2026-04-26T13:27:56.761Z</time></trkpt><trkpt lat="42.2755003" lon="14.0994195"><ele>174.75</ele><time>2026-04-26T13:27:57.762Z</time></trkpt><trkpt lat="42.2754897" lon="14.09926"><ele>175.0</ele><time>2026-04-26T13:27:58.761Z</time></trkpt><trkpt lat="42.2754687" lon="14.0990992"><ele>176.25</ele><time>2026-04-26T13:27:59.759Z</time></trkpt><trkpt lat="42.2754413" lon="14.0989358"><ele>177.5</ele><time>2026-04-26T13:28:00.762Z</time></trkpt><trkpt lat="42.2754135" lon="14.0987697"><ele>178.75</ele><time>2026-04-26T13:28:01.76Z</time></trkpt><trkpt lat="42.2753868" lon="14.0985995"><ele>180.0</ele><time>2026-04-26T13:28:02.759Z</time></trkpt><trkpt lat="42.2753612" lon="14.0984225"><ele>180.0</ele><time>2026-04-26T13:28:03.761Z</time></trkpt><trkpt lat="42.2753372" lon="14.098242"><ele>180.0</ele><time>2026-04-26T13:28:04.761Z</time></trkpt><trkpt lat="42.2753195" lon="14.0980563"><ele>180.0</ele><time>2026-04-26T13:28:05.762Z</time></trkpt><trkpt lat="42.2753133" lon="14.0978705"><ele>180.0</ele><time>2026-04-26T13:28:06.76Z</time></trkpt><trkpt lat="42.2753188" lon="14.0976893"><ele>180.0</ele><time>2026-04-26T13:28:07.76Z</time></trkpt><trkpt lat="42.2753327" lon="14.0975117"><ele>180.0</ele><time>2026-04-26T13:28:08.758Z</time></trkpt><trkpt lat="42.2753488" lon="14.0973362"><ele>180.0</ele><time>2026-04-26T13:28:09.763Z</time></trkpt><trkpt lat="42.2753652" lon="14.0971668"><ele>180.0</ele><time>2026-04-26T13:28:10.76Z</time></trkpt><trkpt lat="42.2753843" lon="14.096989"><ele>178.75</ele><time>2026-04-26T13:28:11.759Z</time></trkpt><trkpt lat="42.2754028" lon="14.0968055"><ele>177.5</ele><time>2026-04-26T13:28:12.758Z</time></trkpt><trkpt lat="42.2754215" lon="14.0966195"><ele>176.25</ele><time>2026-04-26T13:28:13.759Z</time></trkpt><trkpt lat="42.2754398" lon="14.096432"><ele>175.0</ele><time>2026-04-26T13:28:14.763Z</time></trkpt><trkpt lat="42.2754587" lon="14.0962497"><ele>173.25</ele><time>2026-04-26T13:28:15.762Z</time></trkpt><trkpt lat="42.2754817" lon="14.0960753"><ele>171.5</ele><time>2026-04-26T13:28:16.761Z</time></trkpt><trkpt lat="42.2755112" lon="14.0959087"><ele>169.75</ele><time>2026-04-26T13:28:17.76Z</time></trkpt><trkpt lat="42.2755453" lon="14.095754"><ele>168.0</ele><time>2026-04-26T13:28:18.76Z</time></trkpt><trkpt lat="42.2755728" lon="14.0956073"><ele>167.5</ele><time>2026-04-26T13:28:19.76Z</time></trkpt><trkpt lat="42.2755892" lon="14.095469"><ele>167.0</ele><time>2026-04-26T13:28:20.76Z</time></trkpt><trkpt lat="42.275595" lon="14.0953493"><ele>166.5</ele><time>2026-04-26T13:28:21.76Z</time></trkpt><trkpt lat="42.2756017" lon="14.0952515"><ele>166.0</ele><time>2026-04-26T13:28:22.759Z</time></trkpt><trkpt lat="42.2756612" lon="14.0951448"><ele>165.5</ele><time>2026-04-26T13:28:24.761Z</time></trkpt><trkpt lat="42.27572" lon="14.0951077"><ele>165.0</ele><time>2026-04-26T13:28:25.76Z</time></trkpt><trkpt lat="42.2758108" lon="14.0950568"><ele>165.0</ele><time>2026-04-26T13:28:26.76Z</time></trkpt><trkpt lat="42.2759295" lon="14.094995"><ele>165.0</ele><time>2026-04-26T13:28:27.76Z</time></trkpt><trkpt lat="42.2760695" lon="14.0949208"><ele>165.0</ele><time>2026-04-26T13:28:28.76Z</time></trkpt><trkpt lat="42.2762233" lon="14.094836"><ele>165.0</ele><time>2026-04-26T13:28:29.759Z</time></trkpt><trkpt lat="42.2763735" lon="14.0947503"><ele>162.25</ele><time>2026-04-26T13:28:30.76Z</time></trkpt><trkpt lat="42.2765133" lon="14.094661"><ele>159.5</ele><time>2026-04-26T13:28:31.761Z</time></trkpt><trkpt lat="42.2766372" lon="14.0945585"><ele>156.75</ele><time>2026-04-26T13:28:32.757Z</time></trkpt><trkpt lat="42.2767382" lon="14.0944413"><ele>154.0</ele><time>2026-04-26T13:28:33.76Z</time></trkpt><trkpt lat="42.2768107" lon="14.0943028"><ele>154.0</ele><time>2026-04-26T13:28:34.761Z</time></trkpt><trkpt lat="42.276862" lon="14.0941328"><ele>154.0</ele><time>2026-04-26T13:28:35.758Z</time></trkpt><trkpt lat="42.276903" lon="14.0939402"><ele>154.0</ele><time>2026-04-26T13:28:36.758Z</time></trkpt><trkpt lat="42.276944" lon="14.0937335"><ele>154.0</ele><time>2026-04-26T13:28:37.759Z</time></trkpt><trkpt lat="42.276986" lon="14.0935187"><ele>151.0</ele><time>2026-04-26T13:28:38.76Z</time></trkpt><trkpt lat="42.2770315" lon="14.0933002"><ele>148.0</ele><time>2026-04-26T13:28:39.761Z</time></trkpt><trkpt lat="42.2770743" lon="14.093079"><ele>145.0</ele><time>2026-04-26T13:28:40.76Z</time></trkpt><trkpt lat="42.277109" lon="14.0928587"><ele>142.0</ele><time>2026-04-26T13:28:41.761Z</time></trkpt><trkpt lat="42.277131" lon="14.0926505"><ele>139.0</ele><time>2026-04-26T13:28:42.764Z</time></trkpt><trkpt lat="42.2771403" lon="14.0922643"><ele>136.0</ele><time>2026-04-26T13:28:44.762Z</time></trkpt><trkpt lat="42.2771392" lon="14.0919113"><ele>133.75</ele><time>2026-04-26T13:28:46.763Z</time></trkpt><trkpt lat="42.2771482" lon="14.0917498"><ele>131.5</ele><time>2026-04-26T13:28:47.762Z</time></trkpt><trkpt lat="42.2771623" lon="14.0915952"><ele>129.25</ele><time>2026-04-26T13:28:48.761Z</time></trkpt><trkpt lat="42.277184" lon="14.0914468"><ele>127.0</ele><time>2026-04-26T13:28:49.761Z</time></trkpt><trkpt lat="42.2772163" lon="14.0913028"><ele>129.0</ele><time>2026-04-26T13:28:50.76Z</time></trkpt><trkpt lat="42.2773147" lon="14.0910775"><ele>131.0</ele><time>2026-04-26T13:28:52.759Z</time></trkpt><trkpt lat="42.2774613" lon="14.091002"><ele>133.0</ele><time>2026-04-26T13:28:54.76Z</time></trkpt><trkpt lat="42.2776265" lon="14.0910798"><ele>133.0</ele><time>2026-04-26T13:28:56.759Z</time></trkpt><trkpt lat="42.2777092" lon="14.0911298"><ele>133.0</ele><time>2026-04-26T13:28:57.779Z</time></trkpt><trkpt lat="42.2777878" lon="14.0911725"><ele>133.0</ele><time>2026-04-26T13:28:58.759Z</time></trkpt><trkpt lat="42.277861" lon="14.0912027"><ele>133.0</ele><time>2026-04-26T13:28:59.757Z</time></trkpt><trkpt lat="42.2779295" lon="14.0912083"><ele>133.0</ele><time>2026-04-26T13:29:00.757Z</time></trkpt><trkpt lat="42.2780382" lon="14.0910087"><ele>133.0</ele><time>2026-04-26T13:29:03.758Z</time></trkpt><trkpt lat="42.2780298" lon="14.0908843"><ele>133.0</ele><time>2026-04-26T13:29:04.758Z</time></trkpt><trkpt lat="42.2780122" lon="14.09077"><ele>133.0</ele><time>2026-04-26T13:29:05.758Z</time></trkpt><trkpt lat="42.2779957" lon="14.0906787"><ele>133.0</ele><time>2026-04-26T13:29:06.762Z</time></trkpt><trkpt lat="42.2780222" lon="14.0905938"><ele>133.0</ele><time>2026-04-26T13:29:08.761Z</time></trkpt><trkpt lat="42.2781033" lon="14.0907005"><ele>133.0</ele><time>2026-04-26T13:29:11.758Z</time></trkpt><trkpt lat="42.2781397" lon="14.0907915"><ele>128.66666666666669</ele><time>2026-04-26T13:29:12.757Z</time></trkpt><trkpt lat="42.2781842" lon="14.0909022"><ele>124.33333333333334</ele><time>2026-04-26T13:29:13.759Z</time></trkpt><trkpt lat="42.2782332" lon="14.0910293"><ele>120.0</ele><time>2026-04-26T13:29:14.757Z</time></trkpt><trkpt lat="42.278332" lon="14.0913533"><ele>120.0</ele><time>2026-04-26T13:29:16.759Z</time></trkpt><trkpt lat="42.2783825" lon="14.0915713"><ele>120.0</ele><time>2026-04-26T13:29:17.759Z</time></trkpt><trkpt lat="42.2784335" lon="14.0918203"><ele>120.0</ele><time>2026-04-26T13:29:18.76Z</time></trkpt><trkpt lat="42.2785138" lon="14.0923043"><ele>122.5</ele><time>2026-04-26T13:29:20.759Z</time></trkpt><trkpt lat="42.2786228" lon="14.0928428"><ele>125.0</ele><time>2026-04-26T13:29:23.757Z</time></trkpt><trkpt lat="42.2786877" lon="14.0929835"><ele>125.0</ele><time>2026-04-26T13:29:24.757Z</time></trkpt><trkpt lat="42.2787627" lon="14.0930942"><ele>125.0</ele><time>2026-04-26T13:29:25.758Z</time></trkpt><trkpt lat="42.2788447" lon="14.0931687"><ele>125.0</ele><time>2026-04-26T13:29:26.757Z</time></trkpt><trkpt lat="42.2789272" lon="14.0931998"><ele>125.0</ele><time>2026-04-26T13:29:27.759Z</time></trkpt><trkpt lat="42.2790212" lon="14.0931933"><ele>125.0</ele><time>2026-04-26T13:29:28.758Z</time></trkpt><trkpt lat="42.279136" lon="14.0931628"><ele>122.75</ele><time>2026-04-26T13:29:29.76Z</time></trkpt><trkpt lat="42.2792533" lon="14.093139"><ele>120.5</ele><time>2026-04-26T13:29:30.76Z</time></trkpt><trkpt lat="42.2793627" lon="14.0931473"><ele>118.25</ele><time>2026-04-26T13:29:31.761Z</time></trkpt><trkpt lat="42.2794638" lon="14.0931968"><ele>116.0</ele><time>2026-04-26T13:29:32.76Z</time></trkpt><trkpt lat="42.2795602" lon="14.0932913"><ele>116.0</ele><time>2026-04-26T13:29:33.761Z</time></trkpt><trkpt lat="42.2796568" lon="14.0934225"><ele>116.0</ele><time>2026-04-26T13:29:34.759Z</time></trkpt><trkpt lat="42.2797547" lon="14.0935625"><ele>116.0</ele><time>2026-04-26T13:29:35.758Z</time></trkpt><trkpt lat="42.2798527" lon="14.0936908"><ele>116.0</ele><time>2026-04-26T13:29:36.759Z</time></trkpt><trkpt lat="42.2799538" lon="14.093798"><ele>113.0</ele><time>2026-04-26T13:29:37.758Z</time></trkpt><trkpt lat="42.2800448" lon="14.0938968"><ele>110.0</ele><time>2026-04-26T13:29:38.759Z</time></trkpt><trkpt lat="42.2801028" lon="14.0940032"><ele>107.0</ele><time>2026-04-26T13:29:39.757Z</time></trkpt><trkpt lat="42.2801278" lon="14.094129"><ele>104.0</ele><time>2026-04-26T13:29:40.758Z</time></trkpt><trkpt lat="42.2801355" lon="14.0942838"><ele>101.0</ele><time>2026-04-26T13:29:41.759Z</time></trkpt><trkpt lat="42.2801403" lon="14.0944585"><ele>100.75</ele><time>2026-04-26T13:29:42.76Z</time></trkpt><trkpt lat="42.2801472" lon="14.0946477"><ele>100.5</ele><time>2026-04-26T13:29:43.758Z</time></trkpt><trkpt lat="42.2801537" lon="14.0948482"><ele>100.25</ele><time>2026-04-26T13:29:44.76Z</time></trkpt><trkpt lat="42.2801622" lon="14.0950563"><ele>100.0</ele><time>2026-04-26T13:29:45.76Z</time></trkpt><trkpt lat="42.2801758" lon="14.0952707"><ele>100.0</ele><time>2026-04-26T13:29:46.761Z</time></trkpt><trkpt lat="42.280192" lon="14.0954913"><ele>100.0</ele><time>2026-04-26T13:29:47.759Z</time></trkpt><trkpt lat="42.2802085" lon="14.0957147"><ele>100.0</ele><time>2026-04-26T13:29:48.757Z</time></trkpt><trkpt lat="42.280231" lon="14.0959412"><ele>100.0</ele><time>2026-04-26T13:29:49.758Z</time></trkpt><trkpt lat="42.2802628" lon="14.0961695"><ele>100.0</ele><time>2026-04-26T13:29:50.757Z</time></trkpt><trkpt lat="42.2803063" lon="14.0963982"><ele>100.0</ele><time>2026-04-26T13:29:51.755Z</time></trkpt><trkpt lat="42.2803583" lon="14.0966248"><ele>101.0</ele><time>2026-04-26T13:29:52.758Z</time></trkpt><trkpt lat="42.2804087" lon="14.096854"><ele>102.0</ele><time>2026-04-26T13:29:53.758Z</time></trkpt><trkpt lat="42.2804383" lon="14.0970743"><ele>103.0</ele><time>2026-04-26T13:29:54.758Z</time></trkpt><trkpt lat="42.2804542" lon="14.0972988"><ele>103.0</ele><time>2026-04-26T13:29:55.758Z</time></trkpt><trkpt lat="42.2804712" lon="14.0975273"><ele>103.0</ele><time>2026-04-26T13:29:56.757Z</time></trkpt><trkpt lat="42.2805013" lon="14.0977653"><ele>103.0</ele><time>2026-04-26T13:29:57.761Z</time></trkpt><trkpt lat="42.2805473" lon="14.0980062"><ele>103.0</ele><time>2026-04-26T13:29:58.76Z</time></trkpt><trkpt lat="42.2805962" lon="14.098249"><ele>103.0</ele><time>2026-04-26T13:29:59.772Z</time></trkpt><trkpt lat="42.2806433" lon="14.0984937"><ele>103.0</ele><time>2026-04-26T13:30:00.759Z</time></trkpt><trkpt lat="42.2806928" lon="14.0987368"><ele>105.33333333333334</ele><time>2026-04-26T13:30:01.757Z</time></trkpt><trkpt lat="42.2807445" lon="14.0989793"><ele>107.66666666666666</ele><time>2026-04-26T13:30:02.76Z</time></trkpt><trkpt lat="42.280801" lon="14.09922"><ele>110.0</ele><time>2026-04-26T13:30:03.76Z</time></trkpt><trkpt lat="42.2808592" lon="14.0994578"><ele>111.75</ele><time>2026-04-26T13:30:04.76Z</time></trkpt><trkpt lat="42.280914" lon="14.0996745"><ele>113.5</ele><time>2026-04-26T13:30:05.759Z</time></trkpt><trkpt lat="42.2809565" lon="14.0998467"><ele>115.25</ele><time>2026-04-26T13:30:06.759Z</time></trkpt><trkpt lat="42.2809888" lon="14.0999725"><ele>117.0</ele><time>2026-04-26T13:30:07.76Z</time></trkpt><trkpt lat="42.2810222" lon="14.1000593"><ele>118.39999999999999</ele><time>2026-04-26T13:30:08.76Z</time></trkpt><trkpt lat="42.2811113" lon="14.1001918"><ele>119.79999999999998</ele><time>2026-04-26T13:30:10.761Z</time></trkpt><trkpt lat="42.281161" lon="14.1002878"><ele>121.2</ele><time>2026-04-26T13:30:11.76Z</time></trkpt><trkpt lat="42.2812182" lon="14.10041"><ele>122.6</ele><time>2026-04-26T13:30:12.757Z</time></trkpt><trkpt lat="42.2812878" lon="14.1005453"><ele>124.0</ele><time>2026-04-26T13:30:13.755Z</time></trkpt><trkpt lat="42.281362" lon="14.1006952"><ele>124.0</ele><time>2026-04-26T13:30:14.757Z</time></trkpt><trkpt lat="42.28144" lon="14.1008532"><ele>124.0</ele><time>2026-04-26T13:30:15.756Z</time></trkpt><trkpt lat="42.2815153" lon="14.1010138"><ele>124.0</ele><time>2026-04-26T13:30:16.757Z</time></trkpt><trkpt lat="42.2815907" lon="14.1011857"><ele>124.0</ele><time>2026-04-26T13:30:17.76Z</time></trkpt><trkpt lat="42.2816702" lon="14.1013645"><ele>124.0</ele><time>2026-04-26T13:30:18.76Z</time></trkpt><trkpt lat="42.2817562" lon="14.101535"><ele>124.0</ele><time>2026-04-26T13:30:19.759Z</time></trkpt><trkpt lat="42.2818413" lon="14.10171"><ele>124.0</ele><time>2026-04-26T13:30:20.759Z</time></trkpt><trkpt lat="42.2819225" lon="14.1018935"><ele>127.0</ele><time>2026-04-26T13:30:21.76Z</time></trkpt><trkpt lat="42.2820032" lon="14.1020785"><ele>130.0</ele><time>2026-04-26T13:30:22.759Z</time></trkpt><trkpt lat="42.282079" lon="14.1022605"><ele>133.0</ele><time>2026-04-26T13:30:23.759Z</time></trkpt><trkpt lat="42.282152" lon="14.1024368"><ele>135.25</ele><time>2026-04-26T13:30:24.76Z</time></trkpt><trkpt lat="42.2822255" lon="14.1026087"><ele>137.5</ele><time>2026-04-26T13:30:25.758Z</time></trkpt><trkpt lat="42.2823043" lon="14.102781"><ele>139.75</ele><time>2026-04-26T13:30:26.76Z</time></trkpt><trkpt lat="42.282384" lon="14.1029558"><ele>142.0</ele><time>2026-04-26T13:30:27.758Z</time></trkpt><trkpt lat="42.2824593" lon="14.1031343"><ele>137.66666666666669</ele><time>2026-04-26T13:30:28.76Z</time></trkpt><trkpt lat="42.2825353" lon="14.1033128"><ele>133.33333333333334</ele><time>2026-04-26T13:30:29.758Z</time></trkpt><trkpt lat="42.2826093" lon="14.1034927"><ele>129.0</ele><time>2026-04-26T13:30:30.76Z</time></trkpt><trkpt lat="42.2826793" lon="14.1036705"><ele>129.0</ele><time>2026-04-26T13:30:31.758Z</time></trkpt><trkpt lat="42.2827497" lon="14.1038437"><ele>129.0</ele><time>2026-04-26T13:30:32.759Z</time></trkpt><trkpt lat="42.2828107" lon="14.1040107"><ele>129.0</ele><time>2026-04-26T13:30:33.76Z</time></trkpt><trkpt lat="42.2828728" lon="14.104183"><ele>129.0</ele><time>2026-04-26T13:30:34.762Z</time></trkpt><trkpt lat="42.2829318" lon="14.1043518"><ele>130.75</ele><time>2026-04-26T13:30:35.759Z</time></trkpt><trkpt lat="42.2829878" lon="14.104515"><ele>132.5</ele><time>2026-04-26T13:30:36.759Z</time></trkpt><trkpt lat="42.2830467" lon="14.1046797"><ele>134.25</ele><time>2026-04-26T13:30:37.756Z</time></trkpt><trkpt lat="42.2831115" lon="14.1048483"><ele>136.0</ele><time>2026-04-26T13:30:38.756Z</time></trkpt><trkpt lat="42.2831758" lon="14.1050147"><ele>132.5</ele><time>2026-04-26T13:30:39.757Z</time></trkpt><trkpt lat="42.2832367" lon="14.1051805"><ele>129.0</ele><time>2026-04-26T13:30:40.757Z</time></trkpt><trkpt lat="42.2832945" lon="14.105351"><ele>125.5</ele><time>2026-04-26T13:30:41.759Z</time></trkpt><trkpt lat="42.2833498" lon="14.105516"><ele>122.0</ele><time>2026-04-26T13:30:42.759Z</time></trkpt><trkpt lat="42.2834018" lon="14.1056673"><ele>123.5</ele><time>2026-04-26T13:30:43.76Z</time></trkpt><trkpt lat="42.283452" lon="14.1058147"><ele>125.0</ele><time>2026-04-26T13:30:44.76Z</time></trkpt><trkpt lat="42.283502" lon="14.105951"><ele>126.5</ele><time>2026-04-26T13:30:45.761Z</time></trkpt><trkpt lat="42.2835553" lon="14.106085"><ele>128.0</ele><time>2026-04-26T13:30:46.76Z</time></trkpt><trkpt lat="42.2836095" lon="14.1062298"><ele>128.0</ele><time>2026-04-26T13:30:47.76Z</time></trkpt><trkpt lat="42.2836623" lon="14.106387"><ele>128.0</ele><time>2026-04-26T13:30:48.76Z</time></trkpt><trkpt lat="42.2837167" lon="14.106547"><ele>128.0</ele><time>2026-04-26T13:30:49.76Z</time></trkpt><trkpt lat="42.2837692" lon="14.106705"><ele>128.0</ele><time>2026-04-26T13:30:50.761Z</time></trkpt><trkpt lat="42.2838177" lon="14.1068568"><ele>128.25</ele><time>2026-04-26T13:30:51.76Z</time></trkpt><trkpt lat="42.2838618" lon="14.1070013"><ele>128.5</ele><time>2026-04-26T13:30:52.759Z</time></trkpt><trkpt lat="42.2839087" lon="14.1071468"><ele>128.75</ele><time>2026-04-26T13:30:53.76Z</time></trkpt><trkpt lat="42.2839545" lon="14.1072925"><ele>129.0</ele><time>2026-04-26T13:30:54.759Z</time></trkpt><trkpt lat="42.2839988" lon="14.1074383"><ele>129.0</ele><time>2026-04-26T13:30:55.76Z</time></trkpt><trkpt lat="42.284041" lon="14.1075832"><ele>129.0</ele><time>2026-04-26T13:30:56.758Z</time></trkpt><trkpt lat="42.2840868" lon="14.107734"><ele>129.0</ele><time>2026-04-26T13:30:57.76Z</time></trkpt><trkpt lat="42.2841418" lon="14.107894"><ele>129.0</ele><time>2026-04-26T13:30:58.758Z</time></trkpt><trkpt lat="42.2841982" lon="14.108062"><ele>129.0</ele><time>2026-04-26T13:30:59.758Z</time></trkpt><trkpt lat="42.2842528" lon="14.1082322"><ele>129.0</ele><time>2026-04-26T13:31:00.758Z</time></trkpt><trkpt lat="42.2843015" lon="14.108392"><ele>129.0</ele><time>2026-04-26T13:31:01.758Z</time></trkpt><trkpt lat="42.2843497" lon="14.1085303"><ele>129.0</ele><time>2026-04-26T13:31:02.756Z</time></trkpt><trkpt lat="42.2843942" lon="14.10865"><ele>129.5</ele><time>2026-04-26T13:31:03.758Z</time></trkpt><trkpt lat="42.2844327" lon="14.1087553"><ele>130.0</ele><time>2026-04-26T13:31:04.756Z</time></trkpt><trkpt lat="42.28447" lon="14.1088597"><ele>130.5</ele><time>2026-04-26T13:31:05.757Z</time></trkpt><trkpt lat="42.2845042" lon="14.1089587"><ele>131.0</ele><time>2026-04-26T13:31:06.759Z</time></trkpt><trkpt lat="42.2845342" lon="14.1090437"><ele>131.5</ele><time>2026-04-26T13:31:07.76Z</time></trkpt><trkpt lat="42.284565" lon="14.1091192"><ele>132.0</ele><time>2026-04-26T13:31:08.759Z</time></trkpt><trkpt lat="42.2846193" lon="14.109268"><ele>133.25</ele><time>2026-04-26T13:31:10.76Z</time></trkpt><trkpt lat="42.284668" lon="14.1094113"><ele>134.5</ele><time>2026-04-26T13:31:12.759Z</time></trkpt><trkpt lat="42.2847137" lon="14.109548"><ele>135.75</ele><time>2026-04-26T13:31:14.759Z</time></trkpt><trkpt lat="42.2847647" lon="14.109683"><ele>137.0</ele><time>2026-04-26T13:31:16.758Z</time></trkpt><trkpt lat="42.2848308" lon="14.1098163"><ele>135.33333333333331</ele><time>2026-04-26T13:31:18.762Z</time></trkpt><trkpt lat="42.284864" lon="14.1098955"><ele>133.66666666666666</ele><time>2026-04-26T13:31:19.759Z</time></trkpt><trkpt lat="42.284893" lon="14.1099892"><ele>132.0</ele><time>2026-04-26T13:31:20.758Z</time></trkpt><trkpt lat="42.2849255" lon="14.1100867"><ele>130.33333333333334</ele><time>2026-04-26T13:31:21.76Z</time></trkpt><trkpt lat="42.284961" lon="14.1101937"><ele>128.66666666666669</ele><time>2026-04-26T13:31:22.759Z</time></trkpt><trkpt lat="42.2849965" lon="14.110309"><ele>127.0</ele><time>2026-04-26T13:31:23.759Z</time></trkpt><trkpt lat="42.2850315" lon="14.1104302"><ele>127.0</ele><time>2026-04-26T13:31:24.76Z</time></trkpt><trkpt lat="42.285067" lon="14.1105608"><ele>126.99999999999999</ele><time>2026-04-26T13:31:25.758Z</time></trkpt><trkpt lat="42.2851023" lon="14.1106987"><ele>126.99999999999999</ele><time>2026-04-26T13:31:26.755Z</time></trkpt><trkpt lat="42.2851372" lon="14.1108417"><ele>127.0</ele><time>2026-04-26T13:31:27.758Z</time></trkpt><trkpt lat="42.2851765" lon="14.1109862"><ele>127.0</ele><time>2026-04-26T13:31:28.758Z</time></trkpt><trkpt lat="42.2852162" lon="14.1111338"><ele>128.6</ele><time>2026-04-26T13:31:29.757Z</time></trkpt><trkpt lat="42.2852535" lon="14.1112833"><ele>130.2</ele><time>2026-04-26T13:31:30.762Z</time></trkpt><trkpt lat="42.2852875" lon="14.1114268"><ele>131.8</ele><time>2026-04-26T13:31:31.758Z</time></trkpt><trkpt lat="42.2853198" lon="14.1115535"><ele>133.4</ele><time>2026-04-26T13:31:32.757Z</time></trkpt><trkpt lat="42.2853463" lon="14.111652"><ele>135.0</ele><time>2026-04-26T13:31:33.758Z</time></trkpt><trkpt lat="42.2853882" lon="14.1117763"><ele>135.8</ele><time>2026-04-26T13:31:35.76Z</time></trkpt><trkpt lat="42.285431" lon="14.1119395"><ele>136.6</ele><time>2026-04-26T13:31:37.758Z</time></trkpt><trkpt lat="42.2854758" lon="14.112034"><ele>137.4</ele><time>2026-04-26T13:31:38.76Z</time></trkpt><trkpt lat="42.2855335" lon="14.1121383"><ele>138.2</ele><time>2026-04-26T13:31:39.757Z</time></trkpt><trkpt lat="42.2855973" lon="14.112249"><ele>139.0</ele><time>2026-04-26T13:31:40.757Z</time></trkpt><trkpt lat="42.2856615" lon="14.112362"><ele>137.2</ele><time>2026-04-26T13:31:41.761Z</time></trkpt><trkpt lat="42.2857297" lon="14.1124682"><ele>135.4</ele><time>2026-04-26T13:31:42.761Z</time></trkpt><trkpt lat="42.2858013" lon="14.1125743"><ele>133.6</ele><time>2026-04-26T13:31:43.758Z</time></trkpt><trkpt lat="42.285875" lon="14.1126868"><ele>131.8</ele><time>2026-04-26T13:31:44.758Z</time></trkpt><trkpt lat="42.2859535" lon="14.1128005"><ele>130.0</ele><time>2026-04-26T13:31:45.76Z</time></trkpt><trkpt lat="42.2860257" lon="14.1129108"><ele>130.0</ele><time>2026-04-26T13:31:46.759Z</time></trkpt><trkpt lat="42.286088" lon="14.11302"><ele>130.0</ele><time>2026-04-26T13:31:47.759Z</time></trkpt><trkpt lat="42.2861407" lon="14.1131238"><ele>130.0</ele><time>2026-04-26T13:31:48.761Z</time></trkpt><trkpt lat="42.2861822" lon="14.1132245"><ele>130.0</ele><time>2026-04-26T13:31:49.758Z</time></trkpt><trkpt lat="42.2862117" lon="14.1133317"><ele>130.0</ele><time>2026-04-26T13:31:50.757Z</time></trkpt><trkpt lat="42.2862315" lon="14.113447"><ele>131.8</ele><time>2026-04-26T13:31:51.759Z</time></trkpt><trkpt lat="42.2862468" lon="14.113572"><ele>133.6</ele><time>2026-04-26T13:31:52.759Z</time></trkpt><trkpt lat="42.2862618" lon="14.1137037"><ele>135.4</ele><time>2026-04-26T13:31:53.755Z</time></trkpt><trkpt lat="42.2862747" lon="14.113839"><ele>137.2</ele><time>2026-04-26T13:31:54.758Z</time></trkpt><trkpt lat="42.2862893" lon="14.1139828"><ele>139.0</ele><time>2026-04-26T13:31:55.758Z</time></trkpt><trkpt lat="42.2863053" lon="14.114134"><ele>140.0</ele><time>2026-04-26T13:31:56.762Z</time></trkpt><trkpt lat="42.2863193" lon="14.114277"><ele>141.0</ele><time>2026-04-26T13:31:57.759Z</time></trkpt><trkpt lat="42.2863347" lon="14.1144182"><ele>142.0</ele><time>2026-04-26T13:31:58.761Z</time></trkpt><trkpt lat="42.2863473" lon="14.1145593"><ele>143.0</ele><time>2026-04-26T13:31:59.759Z</time></trkpt><trkpt lat="42.2863637" lon="14.1147077"><ele>144.0</ele><time>2026-04-26T13:32:00.758Z</time></trkpt><trkpt lat="42.2863778" lon="14.1148453"><ele>145.4</ele><time>2026-04-26T13:32:01.757Z</time></trkpt><trkpt lat="42.2863977" lon="14.1149652"><ele>146.8</ele><time>2026-04-26T13:32:02.761Z</time></trkpt><trkpt lat="42.2864222" lon="14.1150877"><ele>148.2</ele><time>2026-04-26T13:32:03.761Z</time></trkpt><trkpt lat="42.2864498" lon="14.115211"><ele>149.6</ele><time>2026-04-26T13:32:04.758Z</time></trkpt><trkpt lat="42.2864778" lon="14.115319"><ele>151.0</ele><time>2026-04-26T13:32:05.757Z</time></trkpt><trkpt lat="42.286508" lon="14.1154273"><ele>148.66666666666669</ele><time>2026-04-26T13:32:06.759Z</time></trkpt><trkpt lat="42.2865382" lon="14.1155357"><ele>146.33333333333334</ele><time>2026-04-26T13:32:07.757Z</time></trkpt><trkpt lat="42.286559" lon="14.1156457"><ele>144.0</ele><time>2026-04-26T13:32:08.759Z</time></trkpt><trkpt lat="42.2865555" lon="14.1157825"><ele>141.66666666666666</ele><time>2026-04-26T13:32:10.758Z</time></trkpt><trkpt lat="42.2865317" lon="14.11592"><ele>139.33333333333331</ele><time>2026-04-26T13:32:12.762Z</time></trkpt><trkpt lat="42.2865083" lon="14.1160037"><ele>137.0</ele><time>2026-04-26T13:32:13.759Z</time></trkpt><trkpt lat="42.2864725" lon="14.1160897"><ele>139.0</ele><time>2026-04-26T13:32:14.757Z</time></trkpt><trkpt lat="42.2864243" lon="14.1161772"><ele>141.0</ele><time>2026-04-26T13:32:15.76Z</time></trkpt><trkpt lat="42.2863687" lon="14.1162803"><ele>143.0</ele><time>2026-04-26T13:32:16.756Z</time></trkpt><trkpt lat="42.28631" lon="14.1163862"><ele>145.0</ele><time>2026-04-26T13:32:17.758Z</time></trkpt><trkpt lat="42.2862557" lon="14.1164813"><ele>147.0</ele><time>2026-04-26T13:32:18.759Z</time></trkpt><trkpt lat="42.2862208" lon="14.1165598"><ele>149.0</ele><time>2026-04-26T13:32:19.757Z</time></trkpt><trkpt lat="42.286174" lon="14.11671"><ele>149.0</ele><time>2026-04-26T13:32:21.759Z</time></trkpt><trkpt lat="42.2861603" lon="14.1168003"><ele>149.0</ele><time>2026-04-26T13:32:22.759Z</time></trkpt><trkpt lat="42.2861522" lon="14.1169075"><ele>149.0</ele><time>2026-04-26T13:32:23.759Z</time></trkpt><trkpt lat="42.2861465" lon="14.1170258"><ele>149.0</ele><time>2026-04-26T13:32:24.759Z</time></trkpt><trkpt lat="42.2861405" lon="14.1171542"><ele>149.0</ele><time>2026-04-26T13:32:25.759Z</time></trkpt><trkpt lat="42.2861318" lon="14.1172872"><ele>149.0</ele><time>2026-04-26T13:32:26.761Z</time></trkpt><trkpt lat="42.2861233" lon="14.1174245"><ele>149.4</ele><time>2026-04-26T13:32:27.761Z</time></trkpt><trkpt lat="42.286115" lon="14.1175647"><ele>149.8</ele><time>2026-04-26T13:32:28.758Z</time></trkpt><trkpt lat="42.2860992" lon="14.1177115"><ele>150.2</ele><time>2026-04-26T13:32:29.76Z</time></trkpt><trkpt lat="42.2860753" lon="14.1178542"><ele>150.6</ele><time>2026-04-26T13:32:30.759Z</time></trkpt><trkpt lat="42.286045" lon="14.1179912"><ele>151.0</ele><time>2026-04-26T13:32:31.76Z</time></trkpt><trkpt lat="42.2860043" lon="14.1181185"><ele>151.8</ele><time>2026-04-26T13:32:32.762Z</time></trkpt><trkpt lat="42.285967" lon="14.1182418"><ele>152.6</ele><time>2026-04-26T13:32:33.76Z</time></trkpt><trkpt lat="42.2859365" lon="14.1183672"><ele>153.4</ele><time>2026-04-26T13:32:34.758Z</time></trkpt><trkpt lat="42.2859073" lon="14.1184922"><ele>154.2</ele><time>2026-04-26T13:32:35.757Z</time></trkpt><trkpt lat="42.2858787" lon="14.1186102"><ele>155.0</ele><time>2026-04-26T13:32:36.759Z</time></trkpt><trkpt lat="42.2858657" lon="14.1187167"><ele>155.0</ele><time>2026-04-26T13:32:37.76Z</time></trkpt><trkpt lat="42.2858583" lon="14.1188305"><ele>155.0</ele><time>2026-04-26T13:32:38.759Z</time></trkpt><trkpt lat="42.2858418" lon="14.1189523"><ele>155.0</ele><time>2026-04-26T13:32:39.757Z</time></trkpt><trkpt lat="42.28581" lon="14.1190732"><ele>155.0</ele><time>2026-04-26T13:32:40.756Z</time></trkpt><trkpt lat="42.285761" lon="14.1191873"><ele>155.0</ele><time>2026-04-26T13:32:41.757Z</time></trkpt><trkpt lat="42.2856978" lon="14.119292"><ele>156.0</ele><time>2026-04-26T13:32:42.756Z</time></trkpt><trkpt lat="42.2856303" lon="14.1193837"><ele>157.0</ele><time>2026-04-26T13:32:43.759Z</time></trkpt><trkpt lat="42.2855543" lon="14.119467"><ele>158.0</ele><time>2026-04-26T13:32:44.759Z</time></trkpt><trkpt lat="42.2854748" lon="14.1195505"><ele>159.0</ele><time>2026-04-26T13:32:45.76Z</time></trkpt><trkpt lat="42.2853903" lon="14.119633"><ele>160.0</ele><time>2026-04-26T13:32:46.757Z</time></trkpt><trkpt lat="42.285302" lon="14.1197125"><ele>162.4</ele><time>2026-04-26T13:32:47.76Z</time></trkpt><trkpt lat="42.2852082" lon="14.119792"><ele>164.8</ele><time>2026-04-26T13:32:48.76Z</time></trkpt><trkpt lat="42.2851112" lon="14.1198688"><ele>167.2</ele><time>2026-04-26T13:32:49.759Z</time></trkpt><trkpt lat="42.2850165" lon="14.1199425"><ele>169.6</ele><time>2026-04-26T13:32:50.761Z</time></trkpt><trkpt lat="42.2849233" lon="14.120014"><ele>172.0</ele><time>2026-04-26T13:32:51.761Z</time></trkpt><trkpt lat="42.2848415" lon="14.1200835"><ele>172.0</ele><time>2026-04-26T13:32:52.76Z</time></trkpt><trkpt lat="42.2847685" lon="14.1201492"><ele>172.0</ele><time>2026-04-26T13:32:53.76Z</time></trkpt><trkpt lat="42.2847065" lon="14.1202083"><ele>172.0</ele><time>2026-04-26T13:32:54.76Z</time></trkpt><trkpt lat="42.284658" lon="14.1202728"><ele>172.0</ele><time>2026-04-26T13:32:55.758Z</time></trkpt><trkpt lat="42.2846168" lon="14.120344"><ele>172.0</ele><time>2026-04-26T13:32:56.761Z</time></trkpt><trkpt lat="42.2845757" lon="14.1204268"><ele>172.0</ele><time>2026-04-26T13:32:57.759Z</time></trkpt><trkpt lat="42.2845345" lon="14.1205208"><ele>174.66666666666669</ele><time>2026-04-26T13:32:58.76Z</time></trkpt><trkpt lat="42.284505" lon="14.120611"><ele>177.33333333333334</ele><time>2026-04-26T13:32:59.761Z</time></trkpt><trkpt lat="42.2844803" lon="14.1206958"><ele>180.0</ele><time>2026-04-26T13:33:00.758Z</time></trkpt><trkpt lat="42.2844605" lon="14.1207827"><ele>182.66666666666666</ele><time>2026-04-26T13:33:01.756Z</time></trkpt><trkpt lat="42.2844338" lon="14.120945"><ele>185.33333333333331</ele><time>2026-04-26T13:33:03.762Z</time></trkpt><trkpt lat="42.284424" lon="14.1210355"><ele>188.0</ele><time>2026-04-26T13:33:04.757Z</time></trkpt><trkpt lat="42.2844155" lon="14.1211365"><ele>188.0</ele><time>2026-04-26T13:33:05.757Z</time></trkpt><trkpt lat="42.2844052" lon="14.1212493"><ele>188.0</ele><time>2026-04-26T13:33:06.757Z</time></trkpt><trkpt lat="42.2843953" lon="14.1213675"><ele>188.0</ele><time>2026-04-26T13:33:07.755Z</time></trkpt><trkpt lat="42.2843837" lon="14.1214893"><ele>188.0</ele><time>2026-04-26T13:33:08.759Z</time></trkpt><trkpt lat="42.2843685" lon="14.1216025"><ele>188.0</ele><time>2026-04-26T13:33:09.759Z</time></trkpt><trkpt lat="42.2843343" lon="14.1217378"><ele>188.2</ele><time>2026-04-26T13:33:11.758Z</time></trkpt><trkpt lat="42.2843215" lon="14.1218577"><ele>188.4</ele><time>2026-04-26T13:33:14.757Z</time></trkpt><trkpt lat="42.2842767" lon="14.1219722"><ele>188.6</ele><time>2026-04-26T13:33:16.758Z</time></trkpt><trkpt lat="42.2842307" lon="14.1220725"><ele>188.79999999999998</ele><time>2026-04-26T13:33:18.758Z</time></trkpt><trkpt lat="42.2842808" lon="14.1219533"><ele>189.0</ele><time>2026-04-26T13:35:05.76Z</time></trkpt><trkpt lat="42.2843353" lon="14.1218065"><ele>189.0</ele><time>2026-04-26T13:35:07.758Z</time></trkpt><trkpt lat="42.284354" lon="14.1217145"><ele>189.0</ele><time>2026-04-26T13:35:08.757Z</time></trkpt><trkpt lat="42.2843687" lon="14.1216162"><ele>189.0</ele><time>2026-04-26T13:35:09.757Z</time></trkpt><trkpt lat="42.2843802" lon="14.1215317"><ele>189.0</ele><time>2026-04-26T13:35:10.757Z</time></trkpt><trkpt lat="42.2843922" lon="14.1213833"><ele>189.0</ele><time>2026-04-26T13:35:12.761Z</time></trkpt><trkpt lat="42.2844057" lon="14.12121"><ele>189.0</ele><time>2026-04-26T13:35:14.759Z</time></trkpt><trkpt lat="42.2844117" lon="14.1211207"><ele>188.79999999999998</ele><time>2026-04-26T13:35:15.759Z</time></trkpt><trkpt lat="42.2844248" lon="14.1209832"><ele>188.6</ele><time>2026-04-26T13:35:17.76Z</time></trkpt><trkpt lat="42.2844435" lon="14.1209017"><ele>188.4</ele><time>2026-04-26T13:35:28.761Z</time></trkpt><trkpt lat="42.2844312" lon="14.121002"><ele>188.2</ele><time>2026-04-26T13:36:35.759Z</time></trkpt><trkpt lat="42.2844167" lon="14.1211308"><ele>188.0</ele><time>2026-04-26T13:36:37.759Z</time></trkpt><trkpt lat="42.2844028" lon="14.1212933"><ele>188.0</ele><time>2026-04-26T13:36:39.759Z</time></trkpt><trkpt lat="42.2843957" lon="14.1213818"><ele>188.0</ele><time>2026-04-26T13:36:40.759Z</time></trkpt><trkpt lat="42.2843885" lon="14.1214683"><ele>188.0</ele><time>2026-04-26T13:36:41.759Z</time></trkpt><trkpt lat="42.2843795" lon="14.1215562"><ele>188.0</ele><time>2026-04-26T13:36:42.761Z</time></trkpt><trkpt lat="42.2843677" lon="14.12164"><ele>188.0</ele><time>2026-04-26T13:36:43.758Z</time></trkpt><trkpt lat="42.2843383" lon="14.1218103"><ele>188.0</ele><time>2026-04-26T13:36:45.756Z</time></trkpt><trkpt lat="42.284312" lon="14.1218935"><ele>188.14285714285714</ele><time>2026-04-26T13:36:46.756Z</time></trkpt><trkpt lat="42.2842773" lon="14.1219745"><ele>188.28571428571428</ele><time>2026-04-26T13:36:47.757Z</time></trkpt><trkpt lat="42.2842297" lon="14.1220465"><ele>188.42857142857144</ele><time>2026-04-26T13:36:48.758Z</time></trkpt><trkpt lat="42.2841703" lon="14.1220968"><ele>188.57142857142856</ele><time>2026-04-26T13:36:49.761Z</time></trkpt><trkpt lat="42.284101" lon="14.1221272"><ele>188.71428571428572</ele><time>2026-04-26T13:36:50.761Z</time></trkpt><trkpt lat="42.2840248" lon="14.122139"><ele>188.85714285714286</ele><time>2026-04-26T13:36:51.759Z</time></trkpt><trkpt lat="42.283948" lon="14.1221307"><ele>189.0</ele><time>2026-04-26T13:36:52.759Z</time></trkpt><trkpt lat="42.283876" lon="14.1220978"><ele>192.71428571428572</ele><time>2026-04-26T13:36:53.759Z</time></trkpt><trkpt lat="42.2838188" lon="14.122041"><ele>196.42857142857144</ele><time>2026-04-26T13:36:54.761Z</time></trkpt><trkpt lat="42.2837673" lon="14.1219723"><ele>200.14285714285714</ele><time>2026-04-26T13:36:55.757Z</time></trkpt><trkpt lat="42.2837197" lon="14.1218935"><ele>203.85714285714286</ele><time>2026-04-26T13:36:56.756Z</time></trkpt><trkpt lat="42.283678" lon="14.1218138"><ele>207.57142857142858</ele><time>2026-04-26T13:36:57.759Z</time></trkpt><trkpt lat="42.2836305" lon="14.1217372"><ele>211.28571428571428</ele><time>2026-04-26T13:36:58.758Z</time></trkpt><trkpt lat="42.283575" lon="14.1216553"><ele>215.0</ele><time>2026-04-26T13:36:59.757Z</time></trkpt><trkpt lat="42.2835137" lon="14.1215702"><ele>215.0</ele><time>2026-04-26T13:37:00.757Z</time></trkpt><trkpt lat="42.283455" lon="14.121475"><ele>215.0</ele><time>2026-04-26T13:37:01.759Z</time></trkpt><trkpt lat="42.2834015" lon="14.1213718"><ele>215.0</ele><time>2026-04-26T13:37:02.757Z</time></trkpt><trkpt lat="42.2833505" lon="14.121264"><ele>215.0</ele><time>2026-04-26T13:37:03.759Z</time></trkpt><trkpt lat="42.2832987" lon="14.1211547"><ele>215.0</ele><time>2026-04-26T13:37:04.758Z</time></trkpt><trkpt lat="42.2832497" lon="14.1210458"><ele>215.0</ele><time>2026-04-26T13:37:05.758Z</time></trkpt><trkpt lat="42.2832113" lon="14.1209358"><ele>215.0</ele><time>2026-04-26T13:37:06.758Z</time></trkpt><trkpt lat="42.2831802" lon="14.1208217"><ele>215.0</ele><time>2026-04-26T13:37:07.758Z</time></trkpt><trkpt lat="42.2831435" lon="14.1207028"><ele>215.0</ele><time>2026-04-26T13:37:08.757Z</time></trkpt><trkpt lat="42.2831048" lon="14.1205748"><ele>215.0</ele><time>2026-04-26T13:37:09.758Z</time></trkpt><trkpt lat="42.2830652" lon="14.1204373"><ele>218.75</ele><time>2026-04-26T13:37:10.755Z</time></trkpt><trkpt lat="42.2830228" lon="14.1202932"><ele>222.5</ele><time>2026-04-26T13:37:11.755Z</time></trkpt><trkpt lat="42.2829775" lon="14.1201448"><ele>226.25</ele><time>2026-04-26T13:37:12.756Z</time></trkpt><trkpt lat="42.2829318" lon="14.1199897"><ele>230.0</ele><time>2026-04-26T13:37:13.759Z</time></trkpt><trkpt lat="42.282888" lon="14.1198302"><ele>230.0</ele><time>2026-04-26T13:37:14.757Z</time></trkpt><trkpt lat="42.2828445" lon="14.1196668"><ele>230.0</ele><time>2026-04-26T13:37:15.758Z</time></trkpt><trkpt lat="42.2827985" lon="14.1195025"><ele>230.0</ele><time>2026-04-26T13:37:16.757Z</time></trkpt><trkpt lat="42.2827547" lon="14.1193397"><ele>230.0</ele><time>2026-04-26T13:37:17.759Z</time></trkpt><trkpt lat="42.2827102" lon="14.119179"><ele>229.2</ele><time>2026-04-26T13:37:18.761Z</time></trkpt><trkpt lat="42.2826625" lon="14.1190195"><ele>228.4</ele><time>2026-04-26T13:37:19.76Z</time></trkpt><trkpt lat="42.2826177" lon="14.1188727"><ele>227.60000000000002</ele><time>2026-04-26T13:37:20.759Z</time></trkpt><trkpt lat="42.2825807" lon="14.118754"><ele>226.8</ele><time>2026-04-26T13:37:21.76Z</time></trkpt><trkpt lat="42.2825393" lon="14.1186488"><ele>226.0</ele><time>2026-04-26T13:37:23.758Z</time></trkpt><trkpt lat="42.2824947" lon="14.1185058"><ele>226.0</ele><time>2026-04-26T13:37:38.757Z</time></trkpt><trkpt lat="42.2824705" lon="14.118407"><ele>226.00000000000003</ele><time>2026-04-26T13:37:39.759Z</time></trkpt><trkpt lat="42.2824377" lon="14.1182895"><ele>226.00000000000003</ele><time>2026-04-26T13:37:40.756Z</time></trkpt><trkpt lat="42.282393" lon="14.1181642"><ele>226.0</ele><time>2026-04-26T13:37:41.758Z</time></trkpt><trkpt lat="42.2823402" lon="14.1180383"><ele>226.0</ele><time>2026-04-26T13:37:42.757Z</time></trkpt><trkpt lat="42.2822803" lon="14.1179157"><ele>225.49999999999997</ele><time>2026-04-26T13:37:43.757Z</time></trkpt><trkpt lat="42.2822223" lon="14.1178097"><ele>225.0</ele><time>2026-04-26T13:37:44.759Z</time></trkpt><trkpt lat="42.2821708" lon="14.1177247"><ele>224.5</ele><time>2026-04-26T13:37:45.758Z</time></trkpt><trkpt lat="42.2821288" lon="14.1176602"><ele>224.0</ele><time>2026-04-26T13:37:46.756Z</time></trkpt><trkpt lat="42.2820697" lon="14.1175902"><ele>223.49999999999997</ele><time>2026-04-26T13:37:48.758Z</time></trkpt><trkpt lat="42.2820082" lon="14.1176287"><ele>223.0</ele><time>2026-04-26T13:37:52.757Z</time></trkpt><trkpt lat="42.2820173" lon="14.1177858"><ele>223.0</ele><time>2026-04-26T13:37:54.759Z</time></trkpt><trkpt lat="42.2820243" lon="14.1178988"><ele>223.0</ele><time>2026-04-26T13:37:55.761Z</time></trkpt><trkpt lat="42.2820257" lon="14.118031"><ele>223.0</ele><time>2026-04-26T13:37:56.758Z</time></trkpt><trkpt lat="42.2820225" lon="14.1181785"><ele>223.0</ele><time>2026-04-26T13:37:57.758Z</time></trkpt><trkpt lat="42.2820133" lon="14.1183377"><ele>223.0</ele><time>2026-04-26T13:37:58.758Z</time></trkpt><trkpt lat="42.2819985" lon="14.118509"><ele>224.25</ele><time>2026-04-26T13:37:59.757Z</time></trkpt><trkpt lat="42.28198" lon="14.1186898"><ele>225.5</ele><time>2026-04-26T13:38:00.758Z</time></trkpt><trkpt lat="42.2819583" lon="14.1188778"><ele>226.75</ele><time>2026-04-26T13:38:01.757Z</time></trkpt><trkpt lat="42.281935" lon="14.1190692"><ele>228.0</ele><time>2026-04-26T13:38:02.76Z</time></trkpt><trkpt lat="42.2819138" lon="14.1192612"><ele>230.0</ele><time>2026-04-26T13:38:03.76Z</time></trkpt><trkpt lat="42.2819002" lon="14.1194488"><ele>232.0</ele><time>2026-04-26T13:38:04.759Z</time></trkpt><trkpt lat="42.2818997" lon="14.1196337"><ele>234.0</ele><time>2026-04-26T13:38:05.76Z</time></trkpt><trkpt lat="42.2819163" lon="14.1198185"><ele>236.0</ele><time>2026-04-26T13:38:06.76Z</time></trkpt><trkpt lat="42.2819468" lon="14.1200078"><ele>237.5</ele><time>2026-04-26T13:38:07.759Z</time></trkpt><trkpt lat="42.2819912" lon="14.1201955"><ele>239.0</ele><time>2026-04-26T13:38:08.764Z</time></trkpt><trkpt lat="42.2820377" lon="14.1203825"><ele>240.5</ele><time>2026-04-26T13:38:09.76Z</time></trkpt><trkpt lat="42.2820725" lon="14.1205653"><ele>242.0</ele><time>2026-04-26T13:38:10.76Z</time></trkpt><trkpt lat="42.2820935" lon="14.120752"><ele>243.5</ele><time>2026-04-26T13:38:11.758Z</time></trkpt><trkpt lat="42.2820988" lon="14.1209457"><ele>245.0</ele><time>2026-04-26T13:38:12.76Z</time></trkpt><trkpt lat="42.2820853" lon="14.1211385"><ele>246.5</ele><time>2026-04-26T13:38:13.759Z</time></trkpt><trkpt lat="42.2820548" lon="14.121328"><ele>248.0</ele><time>2026-04-26T13:38:14.76Z</time></trkpt><trkpt lat="42.2820228" lon="14.1215137"><ele>249.0</ele><time>2026-04-26T13:38:15.759Z</time></trkpt><trkpt lat="42.2820027" lon="14.1216963"><ele>250.0</ele><time>2026-04-26T13:38:16.758Z</time></trkpt><trkpt lat="42.282001" lon="14.1218803"><ele>251.0</ele><time>2026-04-26T13:38:17.759Z</time></trkpt><trkpt lat="42.282017" lon="14.1220695"><ele>252.0</ele><time>2026-04-26T13:38:18.759Z</time></trkpt><trkpt lat="42.2820427" lon="14.1222608"><ele>254.33333333333331</ele><time>2026-04-26T13:38:19.76Z</time></trkpt><trkpt lat="42.2820737" lon="14.1224563"><ele>256.66666666666663</ele><time>2026-04-26T13:38:20.759Z</time></trkpt><trkpt lat="42.2820997" lon="14.1226592"><ele>259.0</ele><time>2026-04-26T13:38:21.761Z</time></trkpt><trkpt lat="42.2821195" lon="14.1228693"><ele>259.0</ele><time>2026-04-26T13:38:22.758Z</time></trkpt><trkpt lat="42.282135" lon="14.1230852"><ele>259.0</ele><time>2026-04-26T13:38:23.755Z</time></trkpt><trkpt lat="42.2821457" lon="14.123304"><ele>259.0</ele><time>2026-04-26T13:38:24.757Z</time></trkpt><trkpt lat="42.2821525" lon="14.1235275"><ele>263.0</ele><time>2026-04-26T13:38:25.755Z</time></trkpt><trkpt lat="42.2821565" lon="14.1237533"><ele>267.0</ele><time>2026-04-26T13:38:26.759Z</time></trkpt><trkpt lat="42.282159" lon="14.123982"><ele>271.0</ele><time>2026-04-26T13:38:27.76Z</time></trkpt><trkpt lat="42.2821658" lon="14.124212"><ele>273.66666666666663</ele><time>2026-04-26T13:38:28.759Z</time></trkpt><trkpt lat="42.2821797" lon="14.1244417"><ele>276.3333333333333</ele><time>2026-04-26T13:38:29.761Z</time></trkpt><trkpt lat="42.2821985" lon="14.1246675"><ele>279.0</ele><time>2026-04-26T13:38:30.759Z</time></trkpt><trkpt lat="42.2822193" lon="14.1248927"><ele>279.6666666666667</ele><time>2026-04-26T13:38:31.759Z</time></trkpt><trkpt lat="42.2822405" lon="14.125117"><ele>280.33333333333337</ele><time>2026-04-26T13:38:32.758Z</time></trkpt><trkpt lat="42.282262" lon="14.1253435"><ele>281.0</ele><time>2026-04-26T13:38:33.758Z</time></trkpt><trkpt lat="42.282283" lon="14.1255723"><ele>283.6666666666667</ele><time>2026-04-26T13:38:34.757Z</time></trkpt><trkpt lat="42.2823045" lon="14.1258018"><ele>286.3333333333333</ele><time>2026-04-26T13:38:35.757Z</time></trkpt><trkpt lat="42.2823285" lon="14.1260133"><ele>289.0</ele><time>2026-04-26T13:38:36.758Z</time></trkpt><trkpt lat="42.2823628" lon="14.1262143"><ele>289.0</ele><time>2026-04-26T13:38:37.759Z</time></trkpt><trkpt lat="42.2824138" lon="14.126405"><ele>289.0</ele><time>2026-04-26T13:38:38.758Z</time></trkpt><trkpt lat="42.282474" lon="14.1265733"><ele>289.0</ele><time>2026-04-26T13:38:39.761Z</time></trkpt><trkpt lat="42.2825328" lon="14.1267163"><ele>289.0</ele><time>2026-04-26T13:38:40.762Z</time></trkpt><trkpt lat="42.2825847" lon="14.1268363"><ele>290.8333333333333</ele><time>2026-04-26T13:38:41.757Z</time></trkpt><trkpt lat="42.2826195" lon="14.1269278"><ele>292.66666666666663</ele><time>2026-04-26T13:38:42.759Z</time></trkpt><trkpt lat="42.2826523" lon="14.1270248"><ele>294.5</ele><time>2026-04-26T13:38:44.761Z</time></trkpt><trkpt lat="42.2826942" lon="14.1271425"><ele>296.3333333333333</ele><time>2026-04-26T13:38:46.762Z</time></trkpt><trkpt lat="42.2827392" lon="14.1272195"><ele>298.1666666666667</ele><time>2026-04-26T13:38:47.758Z</time></trkpt><trkpt lat="42.2827923" lon="14.1273077"><ele>300.0</ele><time>2026-04-26T13:38:48.756Z</time></trkpt><trkpt lat="42.2828465" lon="14.1274045"><ele>300.1666666666667</ele><time>2026-04-26T13:38:49.755Z</time></trkpt><trkpt lat="42.2829042" lon="14.1275052"><ele>300.3333333333333</ele><time>2026-04-26T13:38:50.756Z</time></trkpt><trkpt lat="42.2829605" lon="14.1276058"><ele>300.5</ele><time>2026-04-26T13:38:51.758Z</time></trkpt><trkpt lat="42.2830047" lon="14.1276872"><ele>300.66666666666663</ele><time>2026-04-26T13:38:52.757Z</time></trkpt><trkpt lat="42.2830478" lon="14.1277672"><ele>300.8333333333333</ele><time>2026-04-26T13:38:53.758Z</time></trkpt><trkpt lat="42.2830948" lon="14.127856"><ele>301.0</ele><time>2026-04-26T13:38:54.759Z</time></trkpt><trkpt lat="42.2831488" lon="14.1279535"><ele>301.3333333333333</ele><time>2026-04-26T13:38:55.76Z</time></trkpt><trkpt lat="42.2832068" lon="14.1280548"><ele>301.6666666666667</ele><time>2026-04-26T13:38:56.762Z</time></trkpt><trkpt lat="42.2833367" lon="14.1282723"><ele>302.0</ele><time>2026-04-26T13:38:58.761Z</time></trkpt><trkpt lat="42.2834868" lon="14.1284988"><ele>302.0</ele><time>2026-04-26T13:39:00.762Z</time></trkpt><trkpt lat="42.2835805" lon="14.128585"><ele>302.0</ele><time>2026-04-26T13:39:01.759Z</time></trkpt><trkpt lat="42.2836867" lon="14.128648"><ele>302.0</ele><time>2026-04-26T13:39:02.762Z</time></trkpt><trkpt lat="42.2838045" lon="14.1286803"><ele>302.0</ele><time>2026-04-26T13:39:03.76Z</time></trkpt><trkpt lat="42.284179" lon="14.1287403"><ele>302.5</ele><time>2026-04-26T13:39:06.758Z</time></trkpt><trkpt lat="42.2842932" lon="14.128809"><ele>303.0</ele><time>2026-04-26T13:39:07.76Z</time></trkpt><trkpt lat="42.2844027" lon="14.1289015"><ele>303.5</ele><time>2026-04-26T13:39:08.76Z</time></trkpt><trkpt lat="42.2845132" lon="14.1290075"><ele>304.0</ele><time>2026-04-26T13:39:09.759Z</time></trkpt><trkpt lat="42.2846277" lon="14.1291228"><ele>303.3333333333333</ele><time>2026-04-26T13:39:10.758Z</time></trkpt><trkpt lat="42.2847478" lon="14.1292447"><ele>302.6666666666667</ele><time>2026-04-26T13:39:11.759Z</time></trkpt><trkpt lat="42.2848705" lon="14.129371"><ele>302.0</ele><time>2026-04-26T13:39:12.757Z</time></trkpt><trkpt lat="42.2849938" lon="14.1295075"><ele>302.0</ele><time>2026-04-26T13:39:13.756Z</time></trkpt><trkpt lat="42.2851143" lon="14.1296578"><ele>302.0</ele><time>2026-04-26T13:39:14.757Z</time></trkpt><trkpt lat="42.2852337" lon="14.1298183"><ele>302.0</ele><time>2026-04-26T13:39:15.76Z</time></trkpt><trkpt lat="42.2853523" lon="14.1299845"><ele>303.6666666666667</ele><time>2026-04-26T13:39:16.759Z</time></trkpt><trkpt lat="42.285468" lon="14.1301553"><ele>305.3333333333333</ele><time>2026-04-26T13:39:17.76Z</time></trkpt><trkpt lat="42.2855765" lon="14.1303342"><ele>307.0</ele><time>2026-04-26T13:39:18.76Z</time></trkpt><trkpt lat="42.2856748" lon="14.1305222"><ele>304.0</ele><time>2026-04-26T13:39:19.76Z</time></trkpt><trkpt lat="42.2857677" lon="14.1307162"><ele>301.0</ele><time>2026-04-26T13:39:20.761Z</time></trkpt><trkpt lat="42.285859" lon="14.1309067"><ele>298.0</ele><time>2026-04-26T13:39:21.761Z</time></trkpt><trkpt lat="42.28595" lon="14.131082"><ele>298.0</ele><time>2026-04-26T13:39:22.76Z</time></trkpt><trkpt lat="42.286053" lon="14.1312485"><ele>298.0</ele><time>2026-04-26T13:39:23.76Z</time></trkpt><trkpt lat="42.2861625" lon="14.1314152"><ele>298.0</ele><time>2026-04-26T13:39:24.76Z</time></trkpt><trkpt lat="42.286271" lon="14.1315863"><ele>299.3333333333333</ele><time>2026-04-26T13:39:25.761Z</time></trkpt><trkpt lat="42.2863763" lon="14.1317618"><ele>300.6666666666667</ele><time>2026-04-26T13:39:26.76Z</time></trkpt><trkpt lat="42.2864758" lon="14.1319365"><ele>302.0</ele><time>2026-04-26T13:39:27.763Z</time></trkpt><trkpt lat="42.2865643" lon="14.1321033"><ele>299.5</ele><time>2026-04-26T13:39:28.761Z</time></trkpt><trkpt lat="42.28664" lon="14.132264"><ele>297.0</ele><time>2026-04-26T13:39:29.76Z</time></trkpt><trkpt lat="42.2866985" lon="14.1324332"><ele>294.5</ele><time>2026-04-26T13:39:30.761Z</time></trkpt><trkpt lat="42.2867418" lon="14.1326127"><ele>292.0</ele><time>2026-04-26T13:39:31.76Z</time></trkpt><trkpt lat="42.286778" lon="14.1327935"><ele>292.0</ele><time>2026-04-26T13:39:32.759Z</time></trkpt><trkpt lat="42.2868118" lon="14.1329637"><ele>292.0</ele><time>2026-04-26T13:39:33.758Z</time></trkpt><trkpt lat="42.2868475" lon="14.1331145"><ele>292.0</ele><time>2026-04-26T13:39:34.758Z</time></trkpt><trkpt lat="42.2868962" lon="14.1332402"><ele>292.0</ele><time>2026-04-26T13:39:35.758Z</time></trkpt><trkpt lat="42.2869643" lon="14.133332"><ele>292.0</ele><time>2026-04-26T13:39:36.757Z</time></trkpt><trkpt lat="42.2870563" lon="14.1333977"><ele>291.25</ele><time>2026-04-26T13:39:37.755Z</time></trkpt><trkpt lat="42.2871692" lon="14.1334543"><ele>290.5</ele><time>2026-04-26T13:39:38.755Z</time></trkpt><trkpt lat="42.2872962" lon="14.133511"><ele>289.75</ele><time>2026-04-26T13:39:39.755Z</time></trkpt><trkpt lat="42.287435" lon="14.1335655"><ele>289.0</ele><time>2026-04-26T13:39:40.758Z</time></trkpt><trkpt lat="42.287581" lon="14.1336178"><ele>289.0</ele><time>2026-04-26T13:39:41.758Z</time></trkpt><trkpt lat="42.2877203" lon="14.1336697"><ele>289.0</ele><time>2026-04-26T13:39:42.759Z</time></trkpt><trkpt lat="42.2878465" lon="14.1337302"><ele>289.0</ele><time>2026-04-26T13:39:43.758Z</time></trkpt><trkpt lat="42.2879565" lon="14.1338182"><ele>289.0</ele><time>2026-04-26T13:39:44.756Z</time></trkpt><trkpt lat="42.2880495" lon="14.1339365"><ele>291.25</ele><time>2026-04-26T13:39:45.757Z</time></trkpt><trkpt lat="42.2881288" lon="14.1340783"><ele>293.5</ele><time>2026-04-26T13:39:46.756Z</time></trkpt><trkpt lat="42.2882082" lon="14.1342302"><ele>295.75</ele><time>2026-04-26T13:39:47.757Z</time></trkpt><trkpt lat="42.2882948" lon="14.134382"><ele>298.0</ele><time>2026-04-26T13:39:48.756Z</time></trkpt><trkpt lat="42.2883907" lon="14.1345238"><ele>298.0</ele><time>2026-04-26T13:39:49.755Z</time></trkpt><trkpt lat="42.288499" lon="14.1346455"><ele>298.0</ele><time>2026-04-26T13:39:50.756Z</time></trkpt><trkpt lat="42.2886187" lon="14.1347575"><ele>298.0</ele><time>2026-04-26T13:39:51.756Z</time></trkpt><trkpt lat="42.2887438" lon="14.1348625"><ele>298.0</ele><time>2026-04-26T13:39:52.756Z</time></trkpt><trkpt lat="42.2888692" lon="14.1349755"><ele>302.0</ele><time>2026-04-26T13:39:53.755Z</time></trkpt><trkpt lat="42.2889942" lon="14.1350993"><ele>306.0</ele><time>2026-04-26T13:39:54.754Z</time></trkpt><trkpt lat="42.2891192" lon="14.135231"><ele>310.0</ele><time>2026-04-26T13:39:55.754Z</time></trkpt><trkpt lat="42.289243" lon="14.1353667"><ele>310.0</ele><time>2026-04-26T13:39:56.756Z</time></trkpt><trkpt lat="42.2893602" lon="14.1354897"><ele>310.0</ele><time>2026-04-26T13:39:57.755Z</time></trkpt><trkpt lat="42.289482" lon="14.1355907"><ele>310.0</ele><time>2026-04-26T13:39:58.755Z</time></trkpt><trkpt lat="42.2896137" lon="14.1356735"><ele>310.0</ele><time>2026-04-26T13:39:59.756Z</time></trkpt><trkpt lat="42.2897528" lon="14.1357435"><ele>310.3333333333333</ele><time>2026-04-26T13:40:00.755Z</time></trkpt><trkpt lat="42.2899018" lon="14.1357958"><ele>310.6666666666667</ele><time>2026-04-26T13:40:01.754Z</time></trkpt><trkpt lat="42.2900582" lon="14.1358447"><ele>311.0</ele><time>2026-04-26T13:40:02.753Z</time></trkpt><trkpt lat="42.2902177" lon="14.1358995"><ele>311.0</ele><time>2026-04-26T13:40:03.754Z</time></trkpt><trkpt lat="42.2903798" lon="14.1359567"><ele>311.0</ele><time>2026-04-26T13:40:04.753Z</time></trkpt><trkpt lat="42.2905393" lon="14.136009"><ele>311.0</ele><time>2026-04-26T13:40:05.754Z</time></trkpt><trkpt lat="42.2906858" lon="14.1360555"><ele>312.5</ele><time>2026-04-26T13:40:06.758Z</time></trkpt><trkpt lat="42.290816" lon="14.1360958"><ele>314.0</ele><time>2026-04-26T13:40:07.756Z</time></trkpt><trkpt lat="42.2909337" lon="14.1361213"><ele>315.5</ele><time>2026-04-26T13:40:08.757Z</time></trkpt><trkpt lat="42.2910412" lon="14.136118"><ele>317.0</ele><time>2026-04-26T13:40:09.758Z</time></trkpt><trkpt lat="42.2911457" lon="14.1360915"><ele>317.0</ele><time>2026-04-26T13:40:10.756Z</time></trkpt><trkpt lat="42.2912373" lon="14.1360615"><ele>317.0</ele><time>2026-04-26T13:40:11.76Z</time></trkpt><trkpt lat="42.2913153" lon="14.1360377"><ele>317.0</ele><time>2026-04-26T13:40:12.756Z</time></trkpt><trkpt lat="42.2913778" lon="14.1360195"><ele>317.0</ele><time>2026-04-26T13:40:13.759Z</time></trkpt><trkpt lat="42.2914513" lon="14.1359738"><ele>317.0</ele><time>2026-04-26T13:40:15.761Z</time></trkpt><trkpt lat="42.291459" lon="14.1358765"><ele>317.0</ele><time>2026-04-26T13:40:18.76Z</time></trkpt><trkpt lat="42.2914098" lon="14.1358148"><ele>317.0</ele><time>2026-04-26T13:40:21.759Z</time></trkpt><trkpt lat="42.291365" lon="14.1357297"><ele>317.0</ele><time>2026-04-26T13:40:23.758Z</time></trkpt><trkpt lat="42.2913135" lon="14.1356425"><ele>317.0</ele><time>2026-04-26T13:40:25.755Z</time></trkpt><trkpt lat="42.2912553" lon="14.1355543"><ele>317.0</ele><time>2026-04-26T13:40:27.756Z</time></trkpt><trkpt lat="42.291173" lon="14.1354127"><ele>317.0</ele><time>2026-04-26T13:40:29.756Z</time></trkpt><trkpt lat="42.2911323" lon="14.1353142"><ele>317.6666666666667</ele><time>2026-04-26T13:40:30.756Z</time></trkpt><trkpt lat="42.2910887" lon="14.135203"><ele>318.33333333333337</ele><time>2026-04-26T13:40:31.756Z</time></trkpt><trkpt lat="42.2910422" lon="14.1350877"><ele>319.0</ele><time>2026-04-26T13:40:32.757Z</time></trkpt><trkpt lat="42.2909965" lon="14.1349765"><ele>319.6666666666667</ele><time>2026-04-26T13:40:33.756Z</time></trkpt><trkpt lat="42.2909583" lon="14.1348828"><ele>320.3333333333333</ele><time>2026-04-26T13:40:34.756Z</time></trkpt><trkpt lat="42.2909282" lon="14.1348075"><ele>321.0</ele><time>2026-04-26T13:40:35.754Z</time></trkpt><trkpt lat="42.2909002" lon="14.134682"><ele>321.0</ele><time>2026-04-26T13:40:37.754Z</time></trkpt><trkpt lat="42.290862" lon="14.1345228"><ele>321.0</ele><time>2026-04-26T13:40:39.76Z</time></trkpt><trkpt lat="42.2908263" lon="14.1344317"><ele>321.0</ele><time>2026-04-26T13:40:40.756Z</time></trkpt><trkpt lat="42.2907902" lon="14.1343458"><ele>321.0</ele><time>2026-04-26T13:40:41.759Z</time></trkpt><trkpt lat="42.2907562" lon="14.1342697"><ele>321.0</ele><time>2026-04-26T13:40:42.763Z</time></trkpt><trkpt lat="42.290692" lon="14.134145"><ele>321.0</ele><time>2026-04-26T13:40:44.757Z</time></trkpt><trkpt lat="42.2905998" lon="14.1340573"><ele>321.0</ele><time>2026-04-26T13:40:46.76Z</time></trkpt><trkpt lat="42.2905278" lon="14.1340127"><ele>321.0</ele><time>2026-04-26T13:40:47.759Z</time></trkpt><trkpt lat="42.2904383" lon="14.1339617"><ele>321.0</ele><time>2026-04-26T13:40:48.759Z</time></trkpt><trkpt lat="42.2903368" lon="14.133909"><ele>321.0</ele><time>2026-04-26T13:40:49.755Z</time></trkpt><trkpt lat="42.2902275" lon="14.1338522"><ele>320.6</ele><time>2026-04-26T13:40:50.754Z</time></trkpt><trkpt lat="42.2901267" lon="14.1337877"><ele>320.20000000000005</ele><time>2026-04-26T13:40:51.755Z</time></trkpt><trkpt lat="42.2900397" lon="14.1336997"><ele>319.79999999999995</ele><time>2026-04-26T13:40:52.755Z</time></trkpt><trkpt lat="42.2899653" lon="14.1335877"><ele>319.4</ele><time>2026-04-26T13:40:53.756Z</time></trkpt><trkpt lat="42.2899038" lon="14.1334605"><ele>319.0</ele><time>2026-04-26T13:40:54.758Z</time></trkpt><trkpt lat="42.2898477" lon="14.1333332"><ele>319.0</ele><time>2026-04-26T13:40:55.757Z</time></trkpt><trkpt lat="42.2897865" lon="14.133225"><ele>319.0</ele><time>2026-04-26T13:40:56.759Z</time></trkpt><trkpt lat="42.2897187" lon="14.1331418"><ele>319.0</ele><time>2026-04-26T13:40:57.759Z</time></trkpt><trkpt lat="42.2896553" lon="14.1330735"><ele>319.0</ele><time>2026-04-26T13:40:58.759Z</time></trkpt><trkpt lat="42.2896118" lon="14.1330003"><ele>319.0</ele><time>2026-04-26T13:40:59.761Z</time></trkpt><trkpt lat="42.2895933" lon="14.13291"><ele>319.0</ele><time>2026-04-26T13:41:00.761Z</time></trkpt><trkpt lat="42.2895963" lon="14.1327973"><ele>318.0</ele><time>2026-04-26T13:41:01.758Z</time></trkpt><trkpt lat="42.2896108" lon="14.1326645"><ele>317.0</ele><time>2026-04-26T13:41:02.759Z</time></trkpt><trkpt lat="42.2896322" lon="14.132513"><ele>316.0</ele><time>2026-04-26T13:41:03.757Z</time></trkpt><trkpt lat="42.2896595" lon="14.132359"><ele>315.0</ele><time>2026-04-26T13:41:04.758Z</time></trkpt><trkpt lat="42.289693" lon="14.1322158"><ele>314.0</ele><time>2026-04-26T13:41:05.76Z</time></trkpt><trkpt lat="42.2897305" lon="14.1320832"><ele>313.0</ele><time>2026-04-26T13:41:06.758Z</time></trkpt><trkpt lat="42.2897788" lon="14.131961"><ele>312.0</ele><time>2026-04-26T13:41:07.759Z</time></trkpt><trkpt lat="42.2898338" lon="14.1318443"><ele>311.0</ele><time>2026-04-26T13:41:08.758Z</time></trkpt><trkpt lat="42.28989" lon="14.1317302"><ele>310.0</ele><time>2026-04-26T13:41:09.758Z</time></trkpt><trkpt lat="42.2899453" lon="14.1316207"><ele>309.0</ele><time>2026-04-26T13:41:10.76Z</time></trkpt><trkpt lat="42.2899957" lon="14.131525"><ele>305.8</ele><time>2026-04-26T13:41:11.76Z</time></trkpt><trkpt lat="42.2900377" lon="14.1314457"><ele>302.59999999999997</ele><time>2026-04-26T13:41:12.759Z</time></trkpt><trkpt lat="42.2900942" lon="14.1313112"><ele>299.4</ele><time>2026-04-26T13:41:14.755Z</time></trkpt><trkpt lat="42.2901388" lon="14.1311775"><ele>296.2</ele><time>2026-04-26T13:41:16.755Z</time></trkpt><trkpt lat="42.2901772" lon="14.1310453"><ele>293.0</ele><time>2026-04-26T13:41:18.759Z</time></trkpt><trkpt lat="42.2902193" lon="14.1308692"><ele>293.0</ele><time>2026-04-26T13:41:20.759Z</time></trkpt><trkpt lat="42.2902442" lon="14.1307572"><ele>293.0</ele><time>2026-04-26T13:41:21.758Z</time></trkpt><trkpt lat="42.2902693" lon="14.130641"><ele>293.0</ele><time>2026-04-26T13:41:22.759Z</time></trkpt><trkpt lat="42.290299" lon="14.130526"><ele>293.0</ele><time>2026-04-26T13:41:23.757Z</time></trkpt><trkpt lat="42.2903247" lon="14.1304083"><ele>293.0</ele><time>2026-04-26T13:41:24.757Z</time></trkpt><trkpt lat="42.2903475" lon="14.13029"><ele>293.0</ele><time>2026-04-26T13:41:25.756Z</time></trkpt><trkpt lat="42.2903617" lon="14.1301712"><ele>289.8</ele><time>2026-04-26T13:41:26.761Z</time></trkpt><trkpt lat="42.2903695" lon="14.1300552"><ele>286.6</ele><time>2026-04-26T13:41:27.757Z</time></trkpt><trkpt lat="42.2903677" lon="14.12993"><ele>283.4</ele><time>2026-04-26T13:41:28.757Z</time></trkpt><trkpt lat="42.2903572" lon="14.1297953"><ele>280.2</ele><time>2026-04-26T13:41:29.757Z</time></trkpt><trkpt lat="42.2903423" lon="14.1296578"><ele>277.0</ele><time>2026-04-26T13:41:30.759Z</time></trkpt><trkpt lat="42.2903308" lon="14.1295207"><ele>275.4</ele><time>2026-04-26T13:41:31.757Z</time></trkpt><trkpt lat="42.2903187" lon="14.1293855"><ele>273.79999999999995</ele><time>2026-04-26T13:41:32.758Z</time></trkpt><trkpt lat="42.2903133" lon="14.1292432"><ele>272.2</ele><time>2026-04-26T13:41:33.758Z</time></trkpt><trkpt lat="42.2903192" lon="14.1291008"><ele>270.59999999999997</ele><time>2026-04-26T13:41:34.758Z</time></trkpt><trkpt lat="42.290329" lon="14.1289617"><ele>269.0</ele><time>2026-04-26T13:41:35.759Z</time></trkpt><trkpt lat="42.2903432" lon="14.1288227"><ele>265.0</ele><time>2026-04-26T13:41:36.76Z</time></trkpt><trkpt lat="42.2903647" lon="14.1286798"><ele>261.0</ele><time>2026-04-26T13:41:37.758Z</time></trkpt><trkpt lat="42.2903892" lon="14.1285342"><ele>257.0</ele><time>2026-04-26T13:41:38.758Z</time></trkpt><trkpt lat="42.2904078" lon="14.1283872"><ele>253.0</ele><time>2026-04-26T13:41:39.755Z</time></trkpt><trkpt lat="42.29042" lon="14.1282372"><ele>249.0</ele><time>2026-04-26T13:41:40.754Z</time></trkpt><trkpt lat="42.2904437" lon="14.1280827"><ele>244.79999999999998</ele><time>2026-04-26T13:41:41.756Z</time></trkpt><trkpt lat="42.2904692" lon="14.1279308"><ele>240.59999999999997</ele><time>2026-04-26T13:41:42.759Z</time></trkpt><trkpt lat="42.2904918" lon="14.127782"><ele>236.4</ele><time>2026-04-26T13:41:43.76Z</time></trkpt><trkpt lat="42.2905118" lon="14.1276512"><ele>232.2</ele><time>2026-04-26T13:41:44.757Z</time></trkpt><trkpt lat="42.2905338" lon="14.1275315"><ele>228.0</ele><time>2026-04-26T13:41:45.758Z</time></trkpt><trkpt lat="42.2905548" lon="14.1274122"><ele>227.2</ele><time>2026-04-26T13:41:46.757Z</time></trkpt><trkpt lat="42.2905763" lon="14.127289"><ele>226.4</ele><time>2026-04-26T13:41:47.76Z</time></trkpt><trkpt lat="42.2905962" lon="14.1271622"><ele>225.59999999999997</ele><time>2026-04-26T13:41:48.76Z</time></trkpt><trkpt lat="42.2906137" lon="14.1270378"><ele>224.79999999999998</ele><time>2026-04-26T13:41:49.759Z</time></trkpt><trkpt lat="42.2906258" lon="14.1269232"><ele>224.0</ele><time>2026-04-26T13:41:50.759Z</time></trkpt><trkpt lat="42.2906292" lon="14.1268055"><ele>224.0</ele><time>2026-04-26T13:41:51.759Z</time></trkpt><trkpt lat="42.290625" lon="14.1266832"><ele>223.99999999999997</ele><time>2026-04-26T13:41:52.756Z</time></trkpt><trkpt lat="42.2906122" lon="14.1265622"><ele>223.99999999999997</ele><time>2026-04-26T13:41:53.757Z</time></trkpt><trkpt lat="42.2905942" lon="14.126438"><ele>224.0</ele><time>2026-04-26T13:41:54.757Z</time></trkpt><trkpt lat="42.2905755" lon="14.1263135"><ele>224.0</ele><time>2026-04-26T13:41:55.757Z</time></trkpt><trkpt lat="42.2905578" lon="14.1261892"><ele>220.33333333333334</ele><time>2026-04-26T13:41:56.758Z</time></trkpt><trkpt lat="42.2905432" lon="14.1260718"><ele>216.66666666666669</ele><time>2026-04-26T13:41:57.758Z</time></trkpt><trkpt lat="42.2905367" lon="14.1259572"><ele>213.0</ele><time>2026-04-26T13:41:58.758Z</time></trkpt><trkpt lat="42.2905283" lon="14.1258425"><ele>209.33333333333331</ele><time>2026-04-26T13:41:59.758Z</time></trkpt><trkpt lat="42.29052" lon="14.125738"><ele>205.66666666666666</ele><time>2026-04-26T13:42:00.758Z</time></trkpt><trkpt lat="42.2905085" lon="14.1256407"><ele>202.0</ele><time>2026-04-26T13:42:01.756Z</time></trkpt><trkpt lat="42.2904967" lon="14.1255452"><ele>201.49999999999997</ele><time>2026-04-26T13:42:02.757Z</time></trkpt><trkpt lat="42.290488" lon="14.1254418"><ele>201.0</ele><time>2026-04-26T13:42:03.754Z</time></trkpt><trkpt lat="42.2904858" lon="14.1253335"><ele>200.5</ele><time>2026-04-26T13:42:04.754Z</time></trkpt><trkpt lat="42.2904867" lon="14.125221"><ele>200.0</ele><time>2026-04-26T13:42:05.754Z</time></trkpt><trkpt lat="42.2904912" lon="14.125105"><ele>199.49999999999997</ele><time>2026-04-26T13:42:06.755Z</time></trkpt><trkpt lat="42.2904997" lon="14.1249992"><ele>199.0</ele><time>2026-04-26T13:42:07.758Z</time></trkpt><trkpt lat="42.2905273" lon="14.1249182"><ele>198.16666666666666</ele><time>2026-04-26T13:42:08.761Z</time></trkpt><trkpt lat="42.2905678" lon="14.1248455"><ele>197.33333333333331</ele><time>2026-04-26T13:42:09.76Z</time></trkpt><trkpt lat="42.290608" lon="14.1247625"><ele>196.5</ele><time>2026-04-26T13:42:10.758Z</time></trkpt><trkpt lat="42.290649" lon="14.1246733"><ele>195.66666666666669</ele><time>2026-04-26T13:42:11.757Z</time></trkpt><trkpt lat="42.2906908" lon="14.1245837"><ele>194.83333333333334</ele><time>2026-04-26T13:42:12.758Z</time></trkpt><trkpt lat="42.2907367" lon="14.1244968"><ele>194.0</ele><time>2026-04-26T13:42:13.758Z</time></trkpt><trkpt lat="42.2907783" lon="14.1244058"><ele>194.00000000000003</ele><time>2026-04-26T13:42:14.763Z</time></trkpt><trkpt lat="42.2908182" lon="14.1243098"><ele>194.0</ele><time>2026-04-26T13:42:15.758Z</time></trkpt><trkpt lat="42.290857" lon="14.1242065"><ele>194.0</ele><time>2026-04-26T13:42:16.757Z</time></trkpt><trkpt lat="42.2908875" lon="14.1241058"><ele>194.0</ele><time>2026-04-26T13:42:17.758Z</time></trkpt><trkpt lat="42.2909087" lon="14.1240135"><ele>194.00000000000003</ele><time>2026-04-26T13:42:18.757Z</time></trkpt><trkpt lat="42.2909248" lon="14.1239255"><ele>194.0</ele><time>2026-04-26T13:42:19.758Z</time></trkpt><trkpt lat="42.2909438" lon="14.1238358"><ele>191.00000000000003</ele><time>2026-04-26T13:42:20.758Z</time></trkpt><trkpt lat="42.2909593" lon="14.123745"><ele>188.0</ele><time>2026-04-26T13:42:21.758Z</time></trkpt><trkpt lat="42.2909645" lon="14.1236538"><ele>185.0</ele><time>2026-04-26T13:42:22.757Z</time></trkpt><trkpt lat="42.2909512" lon="14.1235602"><ele>182.0</ele><time>2026-04-26T13:42:23.757Z</time></trkpt><trkpt lat="42.2909222" lon="14.123456"><ele>179.0</ele><time>2026-04-26T13:42:24.758Z</time></trkpt><trkpt lat="42.2908812" lon="14.1233468"><ele>176.0</ele><time>2026-04-26T13:42:25.758Z</time></trkpt><trkpt lat="42.29084" lon="14.123238"><ele>173.5</ele><time>2026-04-26T13:42:26.756Z</time></trkpt><trkpt lat="42.2908063" lon="14.1231285"><ele>171.0</ele><time>2026-04-26T13:42:27.756Z</time></trkpt><trkpt lat="42.290775" lon="14.1230238"><ele>168.5</ele><time>2026-04-26T13:42:28.758Z</time></trkpt><trkpt lat="42.2907405" lon="14.1229173"><ele>166.0</ele><time>2026-04-26T13:42:29.755Z</time></trkpt><trkpt lat="42.2907142" lon="14.1228248"><ele>163.5</ele><time>2026-04-26T13:42:30.756Z</time></trkpt><trkpt lat="42.2906843" lon="14.122739"><ele>161.0</ele><time>2026-04-26T13:42:31.757Z</time></trkpt><trkpt lat="42.2906752" lon="14.1225982"><ele>161.0</ele><time>2026-04-26T13:42:33.758Z</time></trkpt><trkpt lat="42.2907575" lon="14.1224752"><ele>161.0</ele><time>2026-04-26T13:42:35.759Z</time></trkpt><trkpt lat="42.290814" lon="14.1224157"><ele>161.0</ele><time>2026-04-26T13:42:36.758Z</time></trkpt><trkpt lat="42.2908712" lon="14.122368"><ele>161.0</ele><time>2026-04-26T13:42:37.758Z</time></trkpt><trkpt lat="42.2909442" lon="14.1222933"><ele>161.0</ele><time>2026-04-26T13:42:39.757Z</time></trkpt><trkpt lat="42.2909662" lon="14.122212"><ele>161.0</ele><time>2026-04-26T13:42:41.759Z</time></trkpt><trkpt lat="42.2909603" lon="14.1221045"><ele>161.0</ele><time>2026-04-26T13:42:43.756Z</time></trkpt><trkpt lat="42.290955" lon="14.1219548"><ele>161.0</ele><time>2026-04-26T13:42:45.757Z</time></trkpt><trkpt lat="42.291006" lon="14.1218205"><ele>161.0</ele><time>2026-04-26T13:42:47.758Z</time></trkpt><trkpt lat="42.2910783" lon="14.121677"><ele>161.0</ele><time>2026-04-26T13:42:49.758Z</time></trkpt><trkpt lat="42.2911152" lon="14.1216023"><ele>161.0</ele><time>2026-04-26T13:42:50.758Z</time></trkpt><trkpt lat="42.2911522" lon="14.121525"><ele>162.66666666666666</ele><time>2026-04-26T13:42:51.759Z</time></trkpt><trkpt lat="42.291189" lon="14.1214495"><ele>164.33333333333331</ele><time>2026-04-26T13:42:52.755Z</time></trkpt><trkpt lat="42.2912262" lon="14.1213748"><ele>166.0</ele><time>2026-04-26T13:42:53.756Z</time></trkpt><trkpt lat="42.2912632" lon="14.1213"><ele>167.66666666666666</ele><time>2026-04-26T13:42:54.756Z</time></trkpt><trkpt lat="42.291298" lon="14.1212252"><ele>169.33333333333334</ele><time>2026-04-26T13:42:55.756Z</time></trkpt><trkpt lat="42.2913598" lon="14.1210832"><ele>171.0</ele><time>2026-04-26T13:42:57.76Z</time></trkpt><trkpt lat="42.2913925" lon="14.1210072"><ele>172.28571428571428</ele><time>2026-04-26T13:42:58.759Z</time></trkpt><trkpt lat="42.2914277" lon="14.1209278"><ele>173.57142857142856</ele><time>2026-04-26T13:42:59.759Z</time></trkpt><trkpt lat="42.2914653" lon="14.1208465"><ele>174.85714285714283</ele><time>2026-04-26T13:43:00.759Z</time></trkpt><trkpt lat="42.2915043" lon="14.1207657"><ele>176.14285714285714</ele><time>2026-04-26T13:43:01.759Z</time></trkpt><trkpt lat="42.291546" lon="14.1206798"><ele>177.42857142857144</ele><time>2026-04-26T13:43:02.759Z</time></trkpt><trkpt lat="42.2915877" lon="14.1205943"><ele>178.7142857142857</ele><time>2026-04-26T13:43:03.758Z</time></trkpt><trkpt lat="42.2916285" lon="14.1205098"><ele>180.0</ele><time>2026-04-26T13:43:04.759Z</time></trkpt><trkpt lat="42.2916672" lon="14.120432"><ele>182.83333333333334</ele><time>2026-04-26T13:43:05.758Z</time></trkpt><trkpt lat="42.2917058" lon="14.1203553"><ele>185.66666666666669</ele><time>2026-04-26T13:43:06.757Z</time></trkpt><trkpt lat="42.291743" lon="14.1202855"><ele>188.5</ele><time>2026-04-26T13:43:07.758Z</time></trkpt><trkpt lat="42.2917937" lon="14.1201548"><ele>191.33333333333334</ele><time>2026-04-26T13:43:09.757Z</time></trkpt><trkpt lat="42.2917978" lon="14.1199983"><ele>194.16666666666669</ele><time>2026-04-26T13:43:11.759Z</time></trkpt><trkpt lat="42.2917908" lon="14.1199128"><ele>197.0</ele><time>2026-04-26T13:43:12.758Z</time></trkpt><trkpt lat="42.2917818" lon="14.1197858"><ele>200.6</ele><time>2026-04-26T13:43:14.759Z</time></trkpt><trkpt lat="42.2917698" lon="14.1197022"><ele>204.2</ele><time>2026-04-26T13:43:16.756Z</time></trkpt><trkpt lat="42.2917313" lon="14.1195623"><ele>207.8</ele><time>2026-04-26T13:43:18.754Z</time></trkpt><trkpt lat="42.291702" lon="14.1194702"><ele>211.4</ele><time>2026-04-26T13:43:20.756Z</time></trkpt><trkpt lat="42.291791" lon="14.1194908"><ele>215.0</ele><time>2026-04-26T13:43:23.757Z</time></trkpt><trkpt lat="42.2919107" lon="14.1195322"><ele>215.00000000000003</ele><time>2026-04-26T13:43:25.756Z</time></trkpt><trkpt lat="42.2920327" lon="14.1195122"><ele>215.0</ele><time>2026-04-26T13:43:27.756Z</time></trkpt><trkpt lat="42.292092" lon="14.1194827"><ele>215.0</ele><time>2026-04-26T13:43:28.757Z</time></trkpt><trkpt lat="42.2921985" lon="14.1194177"><ele>215.0</ele><time>2026-04-26T13:43:30.76Z</time></trkpt><trkpt lat="42.2922563" lon="14.11938"><ele>215.00000000000003</ele><time>2026-04-26T13:43:31.758Z</time></trkpt><trkpt lat="42.2923198" lon="14.1193377"><ele>215.0</ele><time>2026-04-26T13:43:32.758Z</time></trkpt><trkpt lat="42.2923853" lon="14.1192917"><ele>217.14285714285714</ele><time>2026-04-26T13:43:33.759Z</time></trkpt><trkpt lat="42.2924492" lon="14.1192473"><ele>219.28571428571428</ele><time>2026-04-26T13:43:34.758Z</time></trkpt><trkpt lat="42.2925067" lon="14.1192005"><ele>221.42857142857142</ele><time>2026-04-26T13:43:35.757Z</time></trkpt><trkpt lat="42.292562" lon="14.1191463"><ele>223.57142857142856</ele><time>2026-04-26T13:43:36.759Z</time></trkpt><trkpt lat="42.292615" lon="14.1190858"><ele>225.71428571428572</ele><time>2026-04-26T13:43:37.759Z</time></trkpt><trkpt lat="42.2926655" lon="14.1190215"><ele>227.85714285714283</ele><time>2026-04-26T13:43:38.758Z</time></trkpt><trkpt lat="42.2927178" lon="14.1189582"><ele>229.99999999999997</ele><time>2026-04-26T13:43:39.759Z</time></trkpt><trkpt lat="42.2927723" lon="14.1188982"><ele>232.83333333333334</ele><time>2026-04-26T13:43:40.758Z</time></trkpt><trkpt lat="42.2928282" lon="14.1188388"><ele>235.66666666666669</ele><time>2026-04-26T13:43:41.756Z</time></trkpt><trkpt lat="42.2928842" lon="14.118784"><ele>238.5</ele><time>2026-04-26T13:43:42.756Z</time></trkpt><trkpt lat="42.292942" lon="14.1187327"><ele>241.33333333333331</ele><time>2026-04-26T13:43:43.755Z</time></trkpt><trkpt lat="42.2929967" lon="14.1186852"><ele>244.16666666666666</ele><time>2026-04-26T13:43:44.754Z</time></trkpt><trkpt lat="42.2930443" lon="14.1185815"><ele>247.0</ele><time>2026-04-26T13:43:46.756Z</time></trkpt><trkpt lat="42.2930112" lon="14.1184593"><ele>246.99999999999997</ele><time>2026-04-26T13:43:48.76Z</time></trkpt><trkpt lat="42.29299" lon="14.1183772"><ele>247.0</ele><time>2026-04-26T13:43:49.76Z</time></trkpt><trkpt lat="42.2929787" lon="14.1182923"><ele>247.0</ele><time>2026-04-26T13:43:50.763Z</time></trkpt><trkpt lat="42.2929647" lon="14.1182042"><ele>247.0</ele><time>2026-04-26T13:43:53.76Z</time></trkpt><trkpt lat="42.2929077" lon="14.1181543"><ele>246.99999999999997</ele><time>2026-04-26T13:44:42.759Z</time></trkpt><trkpt lat="42.2927953" lon="14.1181075"><ele>247.0</ele><time>2026-04-26T13:44:44.761Z</time></trkpt><trkpt lat="42.2927213" lon="14.1180843"><ele>246.16666666666666</ele><time>2026-04-26T13:44:45.759Z</time></trkpt><trkpt lat="42.2926438" lon="14.118053"><ele>245.33333333333331</ele><time>2026-04-26T13:44:46.761Z</time></trkpt><trkpt lat="42.2925607" lon="14.1180157"><ele>244.5</ele><time>2026-04-26T13:44:47.759Z</time></trkpt><trkpt lat="42.2924833" lon="14.1179683"><ele>243.66666666666669</ele><time>2026-04-26T13:44:48.761Z</time></trkpt><trkpt lat="42.2924188" lon="14.1179047"><ele>242.83333333333334</ele><time>2026-04-26T13:44:49.762Z</time></trkpt><trkpt lat="42.292375" lon="14.1178208"><ele>242.0</ele><time>2026-04-26T13:44:50.76Z</time></trkpt><trkpt lat="42.2923638" lon="14.1177265"><ele>242.00000000000003</ele><time>2026-04-26T13:44:51.761Z</time></trkpt><trkpt lat="42.2923902" lon="14.117638"><ele>242.0</ele><time>2026-04-26T13:44:52.76Z</time></trkpt><trkpt lat="42.292446" lon="14.1175743"><ele>242.0</ele><time>2026-04-26T13:44:53.761Z</time></trkpt><trkpt lat="42.2925187" lon="14.1175555"><ele>242.0</ele><time>2026-04-26T13:44:54.76Z</time></trkpt><trkpt lat="42.2926003" lon="14.1175767"><ele>242.00000000000003</ele><time>2026-04-26T13:44:55.757Z</time></trkpt><trkpt lat="42.2926847" lon="14.117633"><ele>242.0</ele><time>2026-04-26T13:44:56.755Z</time></trkpt><trkpt lat="42.292772" lon="14.1177065"><ele>242.00000000000003</ele><time>2026-04-26T13:44:57.756Z</time></trkpt><trkpt lat="42.292859" lon="14.1177717"><ele>242.0</ele><time>2026-04-26T13:44:58.76Z</time></trkpt><trkpt lat="42.2929438" lon="14.1178115"><ele>242.0</ele><time>2026-04-26T13:44:59.759Z</time></trkpt><trkpt lat="42.293021" lon="14.117821"><ele>242.0</ele><time>2026-04-26T13:45:00.759Z</time></trkpt><trkpt lat="42.2930832" lon="14.1177935"><ele>242.00000000000003</ele><time>2026-04-26T13:45:01.775Z</time></trkpt><trkpt lat="42.2931347" lon="14.1176667"><ele>242.0</ele><time>2026-04-26T13:45:03.761Z</time></trkpt><trkpt lat="42.2930592" lon="14.1175295"><ele>242.0</ele><time>2026-04-26T13:45:05.762Z</time></trkpt><trkpt lat="42.2929858" lon="14.1174562"><ele>242.0</ele><time>2026-04-26T13:45:06.761Z</time></trkpt><trkpt lat="42.2929" lon="14.117369"><ele>242.0</ele><time>2026-04-26T13:45:07.76Z</time></trkpt><trkpt lat="42.2928105" lon="14.1172633"><ele>242.0</ele><time>2026-04-26T13:45:08.76Z</time></trkpt><trkpt lat="42.2927268" lon="14.1171377"><ele>242.0</ele><time>2026-04-26T13:45:09.759Z</time></trkpt><trkpt lat="42.2926497" lon="14.1169938"><ele>238.75</ele><time>2026-04-26T13:45:10.761Z</time></trkpt><trkpt lat="42.2925733" lon="14.1168437"><ele>235.5</ele><time>2026-04-26T13:45:11.759Z</time></trkpt><trkpt lat="42.2924998" lon="14.1167"><ele>232.25</ele><time>2026-04-26T13:45:12.76Z</time></trkpt><trkpt lat="42.2924203" lon="14.116556"><ele>229.0</ele><time>2026-04-26T13:45:13.759Z</time></trkpt><trkpt lat="42.2923285" lon="14.1164167"><ele>225.5</ele><time>2026-04-26T13:45:14.76Z</time></trkpt><trkpt lat="42.292225" lon="14.116282"><ele>222.0</ele><time>2026-04-26T13:45:15.761Z</time></trkpt><trkpt lat="42.2921132" lon="14.1161475"><ele>218.5</ele><time>2026-04-26T13:45:16.759Z</time></trkpt><trkpt lat="42.2919958" lon="14.116009"><ele>215.0</ele><time>2026-04-26T13:45:17.76Z</time></trkpt><trkpt lat="42.2918788" lon="14.1158623"><ele>214.0</ele><time>2026-04-26T13:45:18.759Z</time></trkpt><trkpt lat="42.2917645" lon="14.1157027"><ele>213.0</ele><time>2026-04-26T13:45:19.757Z</time></trkpt><trkpt lat="42.291653" lon="14.115537"><ele>212.0</ele><time>2026-04-26T13:45:20.758Z</time></trkpt><trkpt lat="42.2915502" lon="14.1153758"><ele>212.0</ele><time>2026-04-26T13:45:21.76Z</time></trkpt><trkpt lat="42.2914538" lon="14.115209"><ele>212.0</ele><time>2026-04-26T13:45:22.759Z</time></trkpt><trkpt lat="42.2913612" lon="14.1150378"><ele>212.0</ele><time>2026-04-26T13:45:23.761Z</time></trkpt><trkpt lat="42.2912705" lon="14.1148662"><ele>214.0</ele><time>2026-04-26T13:45:24.76Z</time></trkpt><trkpt lat="42.2911842" lon="14.1146907"><ele>216.0</ele><time>2026-04-26T13:45:25.759Z</time></trkpt><trkpt lat="42.2911017" lon="14.1145117"><ele>218.0</ele><time>2026-04-26T13:45:26.758Z</time></trkpt><trkpt lat="42.2910192" lon="14.1143308"><ele>218.0</ele><time>2026-04-26T13:45:27.758Z</time></trkpt><trkpt lat="42.290938" lon="14.114146"><ele>218.0</ele><time>2026-04-26T13:45:28.759Z</time></trkpt><trkpt lat="42.2908552" lon="14.1139583"><ele>218.0</ele><time>2026-04-26T13:45:29.759Z</time></trkpt><trkpt lat="42.290771" lon="14.1137717"><ele>216.66666666666669</ele><time>2026-04-26T13:45:30.762Z</time></trkpt><trkpt lat="42.290686" lon="14.1135868"><ele>215.33333333333331</ele><time>2026-04-26T13:45:31.761Z</time></trkpt><trkpt lat="42.2906067" lon="14.1134033"><ele>214.0</ele><time>2026-04-26T13:45:32.762Z</time></trkpt><trkpt lat="42.2905367" lon="14.1132145"><ele>217.33333333333331</ele><time>2026-04-26T13:45:33.76Z</time></trkpt><trkpt lat="42.2904753" lon="14.1130182"><ele>220.66666666666669</ele><time>2026-04-26T13:45:34.761Z</time></trkpt><trkpt lat="42.2904188" lon="14.112814"><ele>224.0</ele><time>2026-04-26T13:45:35.76Z</time></trkpt><trkpt lat="42.2903655" lon="14.1126037"><ele>222.33333333333334</ele><time>2026-04-26T13:45:36.759Z</time></trkpt><trkpt lat="42.2903173" lon="14.1123882"><ele>220.66666666666669</ele><time>2026-04-26T13:45:37.759Z</time></trkpt><trkpt lat="42.2902703" lon="14.1121685"><ele>219.0</ele><time>2026-04-26T13:45:38.759Z</time></trkpt><trkpt lat="42.2902245" lon="14.1119452"><ele>219.0</ele><time>2026-04-26T13:45:39.759Z</time></trkpt><trkpt lat="42.290185" lon="14.1117262"><ele>219.0</ele><time>2026-04-26T13:45:40.759Z</time></trkpt><trkpt lat="42.2901525" lon="14.1115195"><ele>219.0</ele><time>2026-04-26T13:45:41.759Z</time></trkpt><trkpt lat="42.290135" lon="14.111322"><ele>217.25</ele><time>2026-04-26T13:45:42.76Z</time></trkpt><trkpt lat="42.2901405" lon="14.1111365"><ele>215.5</ele><time>2026-04-26T13:45:43.758Z</time></trkpt><trkpt lat="42.2901693" lon="14.1109593"><ele>213.75</ele><time>2026-04-26T13:45:44.757Z</time></trkpt><trkpt lat="42.290214" lon="14.1107877"><ele>212.0</ele><time>2026-04-26T13:45:45.758Z</time></trkpt><trkpt lat="42.2902648" lon="14.1106308"><ele>212.5</ele><time>2026-04-26T13:45:46.76Z</time></trkpt><trkpt lat="42.2903272" lon="14.1104902"><ele>213.0</ele><time>2026-04-26T13:45:47.761Z</time></trkpt><trkpt lat="42.290411" lon="14.1103685"><ele>213.5</ele><time>2026-04-26T13:45:48.76Z</time></trkpt><trkpt lat="42.2905145" lon="14.1102655"><ele>214.0</ele><time>2026-04-26T13:45:49.758Z</time></trkpt><trkpt lat="42.2906295" lon="14.1101678"><ele>214.0</ele><time>2026-04-26T13:45:50.762Z</time></trkpt><trkpt lat="42.2907502" lon="14.1100613"><ele>214.0</ele><time>2026-04-26T13:45:51.762Z</time></trkpt><trkpt lat="42.2908723" lon="14.1099435"><ele>214.0</ele><time>2026-04-26T13:45:52.759Z</time></trkpt><trkpt lat="42.290993" lon="14.1098167"><ele>214.0</ele><time>2026-04-26T13:45:53.759Z</time></trkpt><trkpt lat="42.291109" lon="14.109684"><ele>212.25</ele><time>2026-04-26T13:45:54.761Z</time></trkpt><trkpt lat="42.2912132" lon="14.109555"><ele>210.5</ele><time>2026-04-26T13:45:55.759Z</time></trkpt><trkpt lat="42.2913082" lon="14.1094432"><ele>208.75</ele><time>2026-04-26T13:45:56.759Z</time></trkpt><trkpt lat="42.2914045" lon="14.1093517"><ele>207.0</ele><time>2026-04-26T13:45:57.76Z</time></trkpt><trkpt lat="42.291512" lon="14.1092715"><ele>211.25</ele><time>2026-04-26T13:45:58.759Z</time></trkpt><trkpt lat="42.291627" lon="14.1091968"><ele>215.5</ele><time>2026-04-26T13:45:59.758Z</time></trkpt><trkpt lat="42.2917462" lon="14.1091232"><ele>219.75</ele><time>2026-04-26T13:46:00.759Z</time></trkpt><trkpt lat="42.2918667" lon="14.1090493"><ele>224.0</ele><time>2026-04-26T13:46:01.761Z</time></trkpt><trkpt lat="42.291981" lon="14.1089618"><ele>223.5</ele><time>2026-04-26T13:46:02.761Z</time></trkpt><trkpt lat="42.2920922" lon="14.1088577"><ele>223.0</ele><time>2026-04-26T13:46:03.761Z</time></trkpt><trkpt lat="42.2921975" lon="14.1087377"><ele>222.5</ele><time>2026-04-26T13:46:04.76Z</time></trkpt><trkpt lat="42.2922963" lon="14.1086025"><ele>222.0</ele><time>2026-04-26T13:46:05.76Z</time></trkpt><trkpt lat="42.2923885" lon="14.1084455"><ele>222.0</ele><time>2026-04-26T13:46:06.758Z</time></trkpt><trkpt lat="42.2924712" lon="14.1082663"><ele>222.0</ele><time>2026-04-26T13:46:07.757Z</time></trkpt><trkpt lat="42.2925517" lon="14.1080745"><ele>222.0</ele><time>2026-04-26T13:46:08.756Z</time></trkpt><trkpt lat="42.2926318" lon="14.107876"><ele>223.66666666666669</ele><time>2026-04-26T13:46:09.756Z</time></trkpt><trkpt lat="42.292712" lon="14.1076713"><ele>225.33333333333334</ele><time>2026-04-26T13:46:10.756Z</time></trkpt><trkpt lat="42.292792" lon="14.1074613"><ele>227.0</ele><time>2026-04-26T13:46:11.762Z</time></trkpt><trkpt lat="42.2928723" lon="14.1072453"><ele>228.0</ele><time>2026-04-26T13:46:12.759Z</time></trkpt><trkpt lat="42.292953" lon="14.107024"><ele>229.0</ele><time>2026-04-26T13:46:13.76Z</time></trkpt><trkpt lat="42.2930335" lon="14.106804"><ele>230.0</ele><time>2026-04-26T13:46:14.76Z</time></trkpt><trkpt lat="42.293116" lon="14.1065862"><ele>225.66666666666669</ele><time>2026-04-26T13:46:15.76Z</time></trkpt><trkpt lat="42.2932018" lon="14.1063725"><ele>221.33333333333331</ele><time>2026-04-26T13:46:16.76Z</time></trkpt><trkpt lat="42.2932968" lon="14.1061663"><ele>217.0</ele><time>2026-04-26T13:46:17.758Z</time></trkpt><trkpt lat="42.2934043" lon="14.1059715"><ele>217.0</ele><time>2026-04-26T13:46:18.758Z</time></trkpt><trkpt lat="42.293524" lon="14.105789"><ele>217.0</ele><time>2026-04-26T13:46:19.758Z</time></trkpt><trkpt lat="42.2936525" lon="14.1056185"><ele>217.0</ele><time>2026-04-26T13:46:20.759Z</time></trkpt><trkpt lat="42.293778" lon="14.1054423"><ele>218.0</ele><time>2026-04-26T13:46:21.763Z</time></trkpt><trkpt lat="42.293894" lon="14.105252"><ele>219.0</ele><time>2026-04-26T13:46:22.762Z</time></trkpt><trkpt lat="42.2940018" lon="14.1050487"><ele>220.0</ele><time>2026-04-26T13:46:23.759Z</time></trkpt><trkpt lat="42.294106" lon="14.1048367"><ele>216.33333333333331</ele><time>2026-04-26T13:46:24.759Z</time></trkpt><trkpt lat="42.2942102" lon="14.1046222"><ele>212.66666666666669</ele><time>2026-04-26T13:46:25.759Z</time></trkpt><trkpt lat="42.2943155" lon="14.1044093"><ele>209.0</ele><time>2026-04-26T13:46:26.76Z</time></trkpt><trkpt lat="42.2944202" lon="14.1041977"><ele>209.0</ele><time>2026-04-26T13:46:27.76Z</time></trkpt><trkpt lat="42.2945243" lon="14.1039878"><ele>209.0</ele><time>2026-04-26T13:46:28.76Z</time></trkpt><trkpt lat="42.2946283" lon="14.1037767"><ele>209.0</ele><time>2026-04-26T13:46:29.759Z</time></trkpt><trkpt lat="42.2947323" lon="14.1035643"><ele>207.33333333333334</ele><time>2026-04-26T13:46:30.757Z</time></trkpt><trkpt lat="42.2948335" lon="14.1033507"><ele>205.66666666666669</ele><time>2026-04-26T13:46:31.76Z</time></trkpt><trkpt lat="42.2949345" lon="14.1031367"><ele>204.0</ele><time>2026-04-26T13:46:32.758Z</time></trkpt><trkpt lat="42.295039" lon="14.1029297"><ele>204.0</ele><time>2026-04-26T13:46:33.757Z</time></trkpt><trkpt lat="42.2951482" lon="14.1027317"><ele>204.0</ele><time>2026-04-26T13:46:34.758Z</time></trkpt><trkpt lat="42.2952607" lon="14.1025385"><ele>204.0</ele><time>2026-04-26T13:46:35.759Z</time></trkpt><trkpt lat="42.295377" lon="14.1023513"><ele>203.66666666666669</ele><time>2026-04-26T13:46:36.759Z</time></trkpt><trkpt lat="42.2954997" lon="14.102172"><ele>203.33333333333334</ele><time>2026-04-26T13:46:37.768Z</time></trkpt><trkpt lat="42.2956257" lon="14.1020095"><ele>203.0</ele><time>2026-04-26T13:46:38.759Z</time></trkpt><trkpt lat="42.2957515" lon="14.1018625"><ele>202.66666666666669</ele><time>2026-04-26T13:46:39.762Z</time></trkpt><trkpt lat="42.2958765" lon="14.1017135"><ele>202.33333333333331</ele><time>2026-04-26T13:46:40.76Z</time></trkpt><trkpt lat="42.2959978" lon="14.101552"><ele>202.0</ele><time>2026-04-26T13:46:41.759Z</time></trkpt><trkpt lat="42.296119" lon="14.1013778"><ele>203.0</ele><time>2026-04-26T13:46:42.761Z</time></trkpt><trkpt lat="42.296243" lon="14.1011988"><ele>204.0</ele><time>2026-04-26T13:46:43.762Z</time></trkpt><trkpt lat="42.296366" lon="14.1010278"><ele>205.0</ele><time>2026-04-26T13:46:44.761Z</time></trkpt><trkpt lat="42.2964913" lon="14.1008648"><ele>203.33333333333331</ele><time>2026-04-26T13:46:45.76Z</time></trkpt><trkpt lat="42.2966248" lon="14.1007165"><ele>201.66666666666669</ele><time>2026-04-26T13:46:46.759Z</time></trkpt><trkpt lat="42.2967635" lon="14.1005875"><ele>200.0</ele><time>2026-04-26T13:46:47.758Z</time></trkpt><trkpt lat="42.2969035" lon="14.1004618"><ele>200.0</ele><time>2026-04-26T13:46:48.759Z</time></trkpt><trkpt lat="42.297038" lon="14.1003233"><ele>200.0</ele><time>2026-04-26T13:46:49.759Z</time></trkpt><trkpt lat="42.2971628" lon="14.1001702"><ele>200.0</ele><time>2026-04-26T13:46:50.761Z</time></trkpt><trkpt lat="42.297276" lon="14.100007"><ele>194.66666666666669</ele><time>2026-04-26T13:46:51.76Z</time></trkpt><trkpt lat="42.2973765" lon="14.0998357"><ele>189.33333333333334</ele><time>2026-04-26T13:46:52.761Z</time></trkpt><trkpt lat="42.2974592" lon="14.0996623"><ele>184.0</ele><time>2026-04-26T13:46:53.761Z</time></trkpt><trkpt lat="42.2975252" lon="14.0994818"><ele>184.0</ele><time>2026-04-26T13:46:54.761Z</time></trkpt><trkpt lat="42.2975752" lon="14.099296"><ele>184.0</ele><time>2026-04-26T13:46:55.761Z</time></trkpt><trkpt lat="42.2976087" lon="14.0991225"><ele>184.0</ele><time>2026-04-26T13:46:56.763Z</time></trkpt><trkpt lat="42.2976242" lon="14.098941"><ele>184.0</ele><time>2026-04-26T13:46:57.758Z</time></trkpt><trkpt lat="42.2976265" lon="14.0987505"><ele>183.0</ele><time>2026-04-26T13:46:58.758Z</time></trkpt><trkpt lat="42.2976255" lon="14.0985677"><ele>182.0</ele><time>2026-04-26T13:46:59.758Z</time></trkpt><trkpt lat="42.2976267" lon="14.0983955"><ele>181.0</ele><time>2026-04-26T13:47:00.76Z</time></trkpt><trkpt lat="42.2976337" lon="14.0982335"><ele>180.0</ele><time>2026-04-26T13:47:01.759Z</time></trkpt><trkpt lat="42.2976455" lon="14.0980797"><ele>180.0</ele><time>2026-04-26T13:47:02.761Z</time></trkpt><trkpt lat="42.2976693" lon="14.0979382"><ele>180.0</ele><time>2026-04-26T13:47:03.761Z</time></trkpt><trkpt lat="42.2977008" lon="14.0978195"><ele>180.0</ele><time>2026-04-26T13:47:04.761Z</time></trkpt><trkpt lat="42.2977288" lon="14.097727"><ele>180.0</ele><time>2026-04-26T13:47:05.761Z</time></trkpt><trkpt lat="42.2977807" lon="14.0976552"><ele>180.0</ele><time>2026-04-26T13:47:07.761Z</time></trkpt><trkpt lat="42.2977993" lon="14.0977525"><ele>180.0</ele><time>2026-04-26T13:47:10.76Z</time></trkpt><trkpt lat="42.2978203" lon="14.0979383"><ele>180.0</ele><time>2026-04-26T13:47:12.761Z</time></trkpt><trkpt lat="42.297869" lon="14.0980203"><ele>180.0</ele><time>2026-04-26T13:47:13.761Z</time></trkpt><trkpt lat="42.2979358" lon="14.0980722"><ele>180.0</ele><time>2026-04-26T13:47:14.759Z</time></trkpt><trkpt lat="42.298018" lon="14.0981118"><ele>180.0</ele><time>2026-04-26T13:47:15.759Z</time></trkpt><trkpt lat="42.2981017" lon="14.0981682"><ele>180.0</ele><time>2026-04-26T13:47:16.759Z</time></trkpt><trkpt lat="42.2981788" lon="14.0982513"><ele>180.0</ele><time>2026-04-26T13:47:17.758Z</time></trkpt><trkpt lat="42.2982608" lon="14.0983438"><ele>175.0</ele><time>2026-04-26T13:47:18.759Z</time></trkpt><trkpt lat="42.2983578" lon="14.0984307"><ele>170.0</ele><time>2026-04-26T13:47:19.759Z</time></trkpt><trkpt lat="42.2984708" lon="14.0985078"><ele>165.0</ele><time>2026-04-26T13:47:20.76Z</time></trkpt><trkpt lat="42.2985863" lon="14.0985708"><ele>160.0</ele><time>2026-04-26T13:47:21.758Z</time></trkpt><trkpt lat="42.2987118" lon="14.0986153"><ele>160.0</ele><time>2026-04-26T13:47:22.759Z</time></trkpt><trkpt lat="42.2988527" lon="14.0986487"><ele>160.0</ele><time>2026-04-26T13:47:23.759Z</time></trkpt><trkpt lat="42.2990018" lon="14.0986833"><ele>160.0</ele><time>2026-04-26T13:47:24.758Z</time></trkpt><trkpt lat="42.2991507" lon="14.0987228"><ele>160.0</ele><time>2026-04-26T13:47:25.757Z</time></trkpt><trkpt lat="42.2992978" lon="14.0987545"><ele>153.0</ele><time>2026-04-26T13:47:26.759Z</time></trkpt><trkpt lat="42.2994432" lon="14.0987662"><ele>146.0</ele><time>2026-04-26T13:47:27.759Z</time></trkpt><trkpt lat="42.2995955" lon="14.0987557"><ele>139.0</ele><time>2026-04-26T13:47:28.758Z</time></trkpt><trkpt lat="42.299747" lon="14.0987298"><ele>135.75</ele><time>2026-04-26T13:47:29.759Z</time></trkpt><trkpt lat="42.299895" lon="14.098694"><ele>132.5</ele><time>2026-04-26T13:47:30.759Z</time></trkpt><trkpt lat="42.300032" lon="14.0986547"><ele>129.25</ele><time>2026-04-26T13:47:31.758Z</time></trkpt><trkpt lat="42.3001607" lon="14.0986027"><ele>126.0</ele><time>2026-04-26T13:47:32.759Z</time></trkpt><trkpt lat="42.3002962" lon="14.0985248"><ele>126.0</ele><time>2026-04-26T13:47:33.759Z</time></trkpt><trkpt lat="42.3004277" lon="14.0984282"><ele>126.0</ele><time>2026-04-26T13:47:34.76Z</time></trkpt><trkpt lat="42.3005468" lon="14.0983088"><ele>126.0</ele><time>2026-04-26T13:47:35.76Z</time></trkpt><trkpt lat="42.3006608" lon="14.0981772"><ele>126.0</ele><time>2026-04-26T13:47:36.76Z</time></trkpt><trkpt lat="42.3007755" lon="14.0980562"><ele>121.0</ele><time>2026-04-26T13:47:37.759Z</time></trkpt><trkpt lat="42.3008995" lon="14.097958"><ele>116.0</ele><time>2026-04-26T13:47:38.76Z</time></trkpt><trkpt lat="42.3010402" lon="14.0978785"><ele>111.0</ele><time>2026-04-26T13:47:39.761Z</time></trkpt><trkpt lat="42.3011885" lon="14.0978225"><ele>111.0</ele><time>2026-04-26T13:47:40.76Z</time></trkpt><trkpt lat="42.3013275" lon="14.0977998"><ele>111.0</ele><time>2026-04-26T13:47:41.761Z</time></trkpt><trkpt lat="42.3014478" lon="14.0978017"><ele>111.0</ele><time>2026-04-26T13:47:42.76Z</time></trkpt><trkpt lat="42.301542" lon="14.0978058"><ele>111.0</ele><time>2026-04-26T13:47:43.759Z</time></trkpt><trkpt lat="42.3016088" lon="14.0977952"><ele>111.0</ele><time>2026-04-26T13:47:44.76Z</time></trkpt><trkpt lat="42.3016688" lon="14.0977028"><ele>110.0</ele><time>2026-04-26T13:47:46.757Z</time></trkpt><trkpt lat="42.3016743" lon="14.0976177"><ele>109.0</ele><time>2026-04-26T13:47:47.758Z</time></trkpt><trkpt lat="42.3016862" lon="14.0975022"><ele>108.0</ele><time>2026-04-26T13:47:48.756Z</time></trkpt><trkpt lat="42.3017098" lon="14.097359"><ele>107.0</ele><time>2026-04-26T13:47:49.757Z</time></trkpt><trkpt lat="42.3017382" lon="14.0971927"><ele>106.0</ele><time>2026-04-26T13:47:50.758Z</time></trkpt><trkpt lat="42.3017687" lon="14.0970037"><ele>105.66666666666667</ele><time>2026-04-26T13:47:51.759Z</time></trkpt><trkpt lat="42.3018027" lon="14.0967993"><ele>105.33333333333334</ele><time>2026-04-26T13:47:52.758Z</time></trkpt><trkpt lat="42.3018385" lon="14.096582"><ele>105.0</ele><time>2026-04-26T13:47:53.762Z</time></trkpt><trkpt lat="42.301874" lon="14.0963543"><ele>105.33333333333334</ele><time>2026-04-26T13:47:54.761Z</time></trkpt><trkpt lat="42.3019075" lon="14.0961193"><ele>105.66666666666667</ele><time>2026-04-26T13:47:55.759Z</time></trkpt><trkpt lat="42.3019398" lon="14.095878"><ele>106.0</ele><time>2026-04-26T13:47:56.759Z</time></trkpt><trkpt lat="42.3019712" lon="14.0956332"><ele>106.0</ele><time>2026-04-26T13:47:57.759Z</time></trkpt><trkpt lat="42.3020003" lon="14.0953898"><ele>106.0</ele><time>2026-04-26T13:47:58.759Z</time></trkpt><trkpt lat="42.3020293" lon="14.0951568"><ele>106.0</ele><time>2026-04-26T13:47:59.759Z</time></trkpt><trkpt lat="42.302056" lon="14.0949427"><ele>105.75</ele><time>2026-04-26T13:48:00.76Z</time></trkpt><trkpt lat="42.3020698" lon="14.0947682"><ele>105.5</ele><time>2026-04-26T13:48:01.759Z</time></trkpt><trkpt lat="42.3020575" lon="14.0946228"><ele>105.25</ele><time>2026-04-26T13:48:02.758Z</time></trkpt><trkpt lat="42.3020192" lon="14.0944757"><ele>105.0</ele><time>2026-04-26T13:48:03.76Z</time></trkpt><trkpt lat="42.3019818" lon="14.0943175"><ele>105.0</ele><time>2026-04-26T13:48:04.76Z</time></trkpt><trkpt lat="42.3019543" lon="14.0941457"><ele>105.0</ele><time>2026-04-26T13:48:05.76Z</time></trkpt><trkpt lat="42.301911" lon="14.0939862"><ele>105.0</ele><time>2026-04-26T13:48:06.76Z</time></trkpt><trkpt lat="42.3018378" lon="14.0938465"><ele>105.0</ele><time>2026-04-26T13:48:07.758Z</time></trkpt><trkpt lat="42.301753" lon="14.0937053"><ele>105.16666666666667</ele><time>2026-04-26T13:48:08.759Z</time></trkpt><trkpt lat="42.301694" lon="14.0935802"><ele>105.33333333333334</ele><time>2026-04-26T13:48:09.758Z</time></trkpt><trkpt lat="42.3016738" lon="14.0934682"><ele>105.5</ele><time>2026-04-26T13:48:10.758Z</time></trkpt><trkpt lat="42.3016938" lon="14.0933832"><ele>105.66666666666667</ele><time>2026-04-26T13:48:11.758Z</time></trkpt><trkpt lat="42.3017472" lon="14.0933235"><ele>105.83333333333334</ele><time>2026-04-26T13:48:12.758Z</time></trkpt><trkpt lat="42.3018272" lon="14.0932753"><ele>106.0</ele><time>2026-04-26T13:48:13.758Z</time></trkpt><trkpt lat="42.3019282" lon="14.0932242"><ele>108.25</ele><time>2026-04-26T13:48:14.763Z</time></trkpt><trkpt lat="42.302047" lon="14.0931662"><ele>110.5</ele><time>2026-04-26T13:48:15.759Z</time></trkpt><trkpt lat="42.3021817" lon="14.0930988"><ele>112.75</ele><time>2026-04-26T13:48:16.759Z</time></trkpt><trkpt lat="42.302327" lon="14.0930225"><ele>115.0</ele><time>2026-04-26T13:48:17.76Z</time></trkpt><trkpt lat="42.3024677" lon="14.0929488"><ele>115.0</ele><time>2026-04-26T13:48:18.759Z</time></trkpt><trkpt lat="42.3025945" lon="14.0928798"><ele>115.0</ele><time>2026-04-26T13:48:19.76Z</time></trkpt><trkpt lat="42.3027095" lon="14.0928147"><ele>115.0</ele><time>2026-04-26T13:48:20.759Z</time></trkpt><trkpt lat="42.302812" lon="14.0927505"><ele>115.0</ele><time>2026-04-26T13:48:21.762Z</time></trkpt><trkpt lat="42.3029038" lon="14.0926697"><ele>115.0</ele><time>2026-04-26T13:48:22.76Z</time></trkpt><trkpt lat="42.3029915" lon="14.0925597"><ele>115.0</ele><time>2026-04-26T13:48:23.762Z</time></trkpt><trkpt lat="42.3030818" lon="14.0924277"><ele>115.0</ele><time>2026-04-26T13:48:24.761Z</time></trkpt><trkpt lat="42.3031793" lon="14.0922825"><ele>115.0</ele><time>2026-04-26T13:48:25.759Z</time></trkpt><trkpt lat="42.3032878" lon="14.092133"><ele>113.66666666666667</ele><time>2026-04-26T13:48:26.759Z</time></trkpt><trkpt lat="42.3034083" lon="14.0919883"><ele>112.33333333333334</ele><time>2026-04-26T13:48:27.764Z</time></trkpt><trkpt lat="42.3035403" lon="14.0918643"><ele>111.0</ele><time>2026-04-26T13:48:28.761Z</time></trkpt><trkpt lat="42.3036845" lon="14.0917627"><ele>111.0</ele><time>2026-04-26T13:48:29.762Z</time></trkpt><trkpt lat="42.3038367" lon="14.0916743"><ele>111.0</ele><time>2026-04-26T13:48:30.761Z</time></trkpt><trkpt lat="42.3039957" lon="14.0915902"><ele>111.0</ele><time>2026-04-26T13:48:31.76Z</time></trkpt><trkpt lat="42.3041592" lon="14.091505"><ele>111.33333333333334</ele><time>2026-04-26T13:48:32.762Z</time></trkpt><trkpt lat="42.3043243" lon="14.091417"><ele>111.66666666666667</ele><time>2026-04-26T13:48:33.762Z</time></trkpt><trkpt lat="42.3044897" lon="14.0913252"><ele>112.0</ele><time>2026-04-26T13:48:34.763Z</time></trkpt><trkpt lat="42.3046543" lon="14.0912278"><ele>108.0</ele><time>2026-04-26T13:48:35.759Z</time></trkpt><trkpt lat="42.3048168" lon="14.0911283"><ele>104.0</ele><time>2026-04-26T13:48:36.76Z</time></trkpt><trkpt lat="42.304972" lon="14.0910315"><ele>100.0</ele><time>2026-04-26T13:48:37.76Z</time></trkpt><trkpt lat="42.305119" lon="14.0909368"><ele>100.0</ele><time>2026-04-26T13:48:38.761Z</time></trkpt><trkpt lat="42.3052667" lon="14.0908427"><ele>100.0</ele><time>2026-04-26T13:48:39.762Z</time></trkpt><trkpt lat="42.305418" lon="14.0907477"><ele>100.0</ele><time>2026-04-26T13:48:40.77Z</time></trkpt><trkpt lat="42.3055678" lon="14.090654"><ele>98.66666666666667</ele><time>2026-04-26T13:48:41.761Z</time></trkpt><trkpt lat="42.3057153" lon="14.0905543"><ele>97.33333333333334</ele><time>2026-04-26T13:48:42.761Z</time></trkpt><trkpt lat="42.3058593" lon="14.0904457"><ele>96.0</ele><time>2026-04-26T13:48:43.759Z</time></trkpt><trkpt lat="42.3059978" lon="14.0903353"><ele>96.0</ele><time>2026-04-26T13:48:44.763Z</time></trkpt><trkpt lat="42.3061307" lon="14.0902257"><ele>96.0</ele><time>2026-04-26T13:48:45.761Z</time></trkpt><trkpt lat="42.3062488" lon="14.0901028"><ele>96.0</ele><time>2026-04-26T13:48:46.76Z</time></trkpt><trkpt lat="42.3063507" lon="14.0899555"><ele>95.25</ele><time>2026-04-26T13:48:47.761Z</time></trkpt><trkpt lat="42.3064307" lon="14.0897923"><ele>94.5</ele><time>2026-04-26T13:48:48.761Z</time></trkpt><trkpt lat="42.3064953" lon="14.0896383"><ele>93.75</ele><time>2026-04-26T13:48:49.759Z</time></trkpt><trkpt lat="42.3065595" lon="14.0895067"><ele>93.0</ele><time>2026-04-26T13:48:50.757Z</time></trkpt><trkpt lat="42.306634" lon="14.0894142"><ele>93.0</ele><time>2026-04-26T13:48:51.76Z</time></trkpt><trkpt lat="42.3067137" lon="14.089372"><ele>93.0</ele><time>2026-04-26T13:48:52.76Z</time></trkpt><trkpt lat="42.3067988" lon="14.0893718"><ele>93.0</ele><time>2026-04-26T13:48:53.761Z</time></trkpt><trkpt lat="42.3068913" lon="14.0893988"><ele>93.0</ele><time>2026-04-26T13:48:54.761Z</time></trkpt><trkpt lat="42.3069913" lon="14.0894495"><ele>93.0</ele><time>2026-04-26T13:48:55.761Z</time></trkpt><trkpt lat="42.3070993" lon="14.0895127"><ele>93.0</ele><time>2026-04-26T13:48:56.761Z</time></trkpt><trkpt lat="42.3072053" lon="14.0895623"><ele>93.0</ele><time>2026-04-26T13:48:57.761Z</time></trkpt><trkpt lat="42.3073015" lon="14.0895903"><ele>93.0</ele><time>2026-04-26T13:48:58.76Z</time></trkpt><trkpt lat="42.3073815" lon="14.0895972"><ele>93.0</ele><time>2026-04-26T13:48:59.758Z</time></trkpt><trkpt lat="42.3074597" lon="14.0896048"><ele>93.0</ele><time>2026-04-26T13:49:00.756Z</time></trkpt><trkpt lat="42.307546" lon="14.0896312"><ele>92.75</ele><time>2026-04-26T13:49:01.756Z</time></trkpt><trkpt lat="42.3076415" lon="14.0896692"><ele>92.5</ele><time>2026-04-26T13:49:02.756Z</time></trkpt><trkpt lat="42.3077503" lon="14.0897068"><ele>92.25</ele><time>2026-04-26T13:49:03.759Z</time></trkpt><trkpt lat="42.3078723" lon="14.089747"><ele>92.0</ele><time>2026-04-26T13:49:04.759Z</time></trkpt><trkpt lat="42.3080063" lon="14.0897947"><ele>90.33333333333334</ele><time>2026-04-26T13:49:05.761Z</time></trkpt><trkpt lat="42.3081505" lon="14.0898418"><ele>88.66666666666667</ele><time>2026-04-26T13:49:06.761Z</time></trkpt><trkpt lat="42.3083012" lon="14.0898883"><ele>87.0</ele><time>2026-04-26T13:49:07.761Z</time></trkpt><trkpt lat="42.308452" lon="14.0899358"><ele>85.75</ele><time>2026-04-26T13:49:08.76Z</time></trkpt><trkpt lat="42.3085943" lon="14.0899827"><ele>84.5</ele><time>2026-04-26T13:49:09.761Z</time></trkpt><trkpt lat="42.3087263" lon="14.0900267"><ele>83.25</ele><time>2026-04-26T13:49:10.759Z</time></trkpt><trkpt lat="42.308829" lon="14.0900613"><ele>82.0</ele><time>2026-04-26T13:49:11.76Z</time></trkpt><trkpt lat="42.3088963" lon="14.090086"><ele>81.42857142857142</ele><time>2026-04-26T13:49:12.759Z</time></trkpt><trkpt lat="42.3089668" lon="14.0900993"><ele>80.85714285714286</ele><time>2026-04-26T13:49:15.761Z</time></trkpt><trkpt lat="42.30903" lon="14.0900922"><ele>80.28571428571428</ele><time>2026-04-26T13:49:21.761Z</time></trkpt><trkpt lat="42.3091095" lon="14.0901587"><ele>79.71428571428571</ele><time>2026-04-26T13:49:23.759Z</time></trkpt><trkpt lat="42.3091535" lon="14.0902237"><ele>79.14285714285714</ele><time>2026-04-26T13:49:24.76Z</time></trkpt><trkpt lat="42.3091915" lon="14.0903027"><ele>78.57142857142857</ele><time>2026-04-26T13:49:25.758Z</time></trkpt><trkpt lat="42.3092218" lon="14.0904028"><ele>78.0</ele><time>2026-04-26T13:49:26.76Z</time></trkpt><trkpt lat="42.3092455" lon="14.0905118"><ele>78.0</ele><time>2026-04-26T13:49:27.757Z</time></trkpt><trkpt lat="42.3092657" lon="14.0906185"><ele>78.0</ele><time>2026-04-26T13:49:28.76Z</time></trkpt><trkpt lat="42.3092855" lon="14.0907215"><ele>78.0</ele><time>2026-04-26T13:49:29.758Z</time></trkpt><trkpt lat="42.3093207" lon="14.0908157"><ele>78.0</ele><time>2026-04-26T13:49:30.758Z</time></trkpt><trkpt lat="42.3093735" lon="14.0908877"><ele>78.0</ele><time>2026-04-26T13:49:31.759Z</time></trkpt><trkpt lat="42.309441" lon="14.0909488"><ele>78.0</ele><time>2026-04-26T13:49:32.758Z</time></trkpt><trkpt lat="42.3095097" lon="14.0910105"><ele>77.66666666666667</ele><time>2026-04-26T13:49:33.759Z</time></trkpt><trkpt lat="42.3095698" lon="14.0910787"><ele>77.33333333333333</ele><time>2026-04-26T13:49:34.758Z</time></trkpt><trkpt lat="42.309626" lon="14.0911567"><ele>77.0</ele><time>2026-04-26T13:49:35.763Z</time></trkpt><trkpt lat="42.309685" lon="14.0912388"><ele>76.66666666666666</ele><time>2026-04-26T13:49:36.759Z</time></trkpt><trkpt lat="42.3097435" lon="14.0913193"><ele>76.33333333333333</ele><time>2026-04-26T13:49:37.761Z</time></trkpt><trkpt lat="42.309805" lon="14.0913948"><ele>76.0</ele><time>2026-04-26T13:49:38.76Z</time></trkpt><trkpt lat="42.3098665" lon="14.0914727"><ele>77.0</ele><time>2026-04-26T13:49:39.761Z</time></trkpt><trkpt lat="42.3099243" lon="14.0915608"><ele>78.0</ele><time>2026-04-26T13:49:40.76Z</time></trkpt><trkpt lat="42.3099803" lon="14.0916602"><ele>79.0</ele><time>2026-04-26T13:49:41.761Z</time></trkpt><trkpt lat="42.3100325" lon="14.0917615"><ele>80.0</ele><time>2026-04-26T13:49:42.76Z</time></trkpt><trkpt lat="42.3100882" lon="14.0918647"><ele>81.0</ele><time>2026-04-26T13:49:43.759Z</time></trkpt><trkpt lat="42.3101473" lon="14.0919685"><ele>82.0</ele><time>2026-04-26T13:49:44.761Z</time></trkpt><trkpt lat="42.310215" lon="14.0920698"><ele>83.0</ele><time>2026-04-26T13:49:45.763Z</time></trkpt><trkpt lat="42.3102865" lon="14.0921712"><ele>84.0</ele><time>2026-04-26T13:49:46.761Z</time></trkpt><trkpt lat="42.3103578" lon="14.0922792"><ele>85.0</ele><time>2026-04-26T13:49:47.76Z</time></trkpt><trkpt lat="42.3104267" lon="14.092394"><ele>86.0</ele><time>2026-04-26T13:49:48.758Z</time></trkpt><trkpt lat="42.3104938" lon="14.0925155"><ele>87.5</ele><time>2026-04-26T13:49:49.756Z</time></trkpt><trkpt lat="42.310563" lon="14.0926397"><ele>89.0</ele><time>2026-04-26T13:49:50.758Z</time></trkpt><trkpt lat="42.310638" lon="14.0927615"><ele>90.5</ele><time>2026-04-26T13:49:51.757Z</time></trkpt><trkpt lat="42.3107137" lon="14.0928832"><ele>92.0</ele><time>2026-04-26T13:49:52.758Z</time></trkpt><trkpt lat="42.3107923" lon="14.093008"><ele>92.0</ele><time>2026-04-26T13:49:53.759Z</time></trkpt><trkpt lat="42.3108747" lon="14.0931327"><ele>92.0</ele><time>2026-04-26T13:49:54.76Z</time></trkpt><trkpt lat="42.3109573" lon="14.0932535"><ele>92.0</ele><time>2026-04-26T13:49:55.76Z</time></trkpt><trkpt lat="42.3110297" lon="14.0933572"><ele>92.0</ele><time>2026-04-26T13:49:56.761Z</time></trkpt><trkpt lat="42.3110903" lon="14.0934427"><ele>92.0</ele><time>2026-04-26T13:49:57.761Z</time></trkpt><trkpt lat="42.3111378" lon="14.0935195"><ele>92.66666666666667</ele><time>2026-04-26T13:49:58.76Z</time></trkpt><trkpt lat="42.3111828" lon="14.0936035"><ele>93.33333333333334</ele><time>2026-04-26T13:49:59.76Z</time></trkpt><trkpt lat="42.3112343" lon="14.0936855"><ele>94.0</ele><time>2026-04-26T13:50:00.76Z</time></trkpt><trkpt lat="42.3112903" lon="14.09377"><ele>94.66666666666667</ele><time>2026-04-26T13:50:01.759Z</time></trkpt><trkpt lat="42.3113412" lon="14.093838"><ele>95.33333333333333</ele><time>2026-04-26T13:50:02.759Z</time></trkpt><trkpt lat="42.3114243" lon="14.0938917"><ele>96.0</ele><time>2026-04-26T13:50:04.759Z</time></trkpt><trkpt lat="42.3114867" lon="14.0937882"><ele>96.0</ele><time>2026-04-26T13:50:07.76Z</time></trkpt><trkpt lat="42.3115393" lon="14.0936123"><ele>96.0</ele><time>2026-04-26T13:50:09.759Z</time></trkpt><trkpt lat="42.3115893" lon="14.093499"><ele>96.0</ele><time>2026-04-26T13:50:10.76Z</time></trkpt><trkpt lat="42.311652" lon="14.09337"><ele>96.0</ele><time>2026-04-26T13:50:11.76Z</time></trkpt><trkpt lat="42.3117293" lon="14.09323"><ele>95.0</ele><time>2026-04-26T13:50:12.758Z</time></trkpt><trkpt lat="42.311817" lon="14.0930813"><ele>94.0</ele><time>2026-04-26T13:50:13.757Z</time></trkpt><trkpt lat="42.3119068" lon="14.0929235"><ele>93.0</ele><time>2026-04-26T13:50:14.757Z</time></trkpt><trkpt lat="42.3119988" lon="14.0927612"><ele>92.0</ele><time>2026-04-26T13:50:15.757Z</time></trkpt><trkpt lat="42.3120868" lon="14.0925985"><ele>92.0</ele><time>2026-04-26T13:50:16.757Z</time></trkpt><trkpt lat="42.3121677" lon="14.0924473"><ele>92.0</ele><time>2026-04-26T13:50:17.761Z</time></trkpt><trkpt lat="42.3122433" lon="14.0923135"><ele>92.0</ele><time>2026-04-26T13:50:18.76Z</time></trkpt><trkpt lat="42.312313" lon="14.092203"><ele>92.0</ele><time>2026-04-26T13:50:19.762Z</time></trkpt><trkpt lat="42.31238" lon="14.0921085"><ele>92.5</ele><time>2026-04-26T13:50:20.76Z</time></trkpt><trkpt lat="42.3124547" lon="14.0920218"><ele>93.0</ele><time>2026-04-26T13:50:21.761Z</time></trkpt><trkpt lat="42.3125412" lon="14.0919363"><ele>93.5</ele><time>2026-04-26T13:50:22.759Z</time></trkpt><trkpt lat="42.3126398" lon="14.0918498"><ele>94.0</ele><time>2026-04-26T13:50:23.76Z</time></trkpt><trkpt lat="42.3127488" lon="14.0917597"><ele>94.0</ele><time>2026-04-26T13:50:24.759Z</time></trkpt><trkpt lat="42.3128533" lon="14.0916623"><ele>94.0</ele><time>2026-04-26T13:50:25.761Z</time></trkpt><trkpt lat="42.312941" lon="14.0915515"><ele>94.0</ele><time>2026-04-26T13:50:26.761Z</time></trkpt><trkpt lat="42.3130118" lon="14.0914153"><ele>94.0</ele><time>2026-04-26T13:50:27.76Z</time></trkpt><trkpt lat="42.3130607" lon="14.0912582"><ele>94.0</ele><time>2026-04-26T13:50:28.763Z</time></trkpt><trkpt lat="42.3130938" lon="14.0910852"><ele>94.0</ele><time>2026-04-26T13:50:29.762Z</time></trkpt><trkpt lat="42.313124" lon="14.0909012"><ele>94.0</ele><time>2026-04-26T13:50:30.764Z</time></trkpt><trkpt lat="42.3131547" lon="14.0907127"><ele>94.0</ele><time>2026-04-26T13:50:31.762Z</time></trkpt><trkpt lat="42.3131845" lon="14.0905208"><ele>94.0</ele><time>2026-04-26T13:50:32.76Z</time></trkpt><trkpt lat="42.3132113" lon="14.0903365"><ele>94.0</ele><time>2026-04-26T13:50:33.761Z</time></trkpt><trkpt lat="42.3132335" lon="14.0901638"><ele>94.0</ele><time>2026-04-26T13:50:34.761Z</time></trkpt><trkpt lat="42.3132563" lon="14.0899915"><ele>94.0</ele><time>2026-04-26T13:50:35.762Z</time></trkpt><trkpt lat="42.3132833" lon="14.0898138"><ele>93.5</ele><time>2026-04-26T13:50:36.762Z</time></trkpt><trkpt lat="42.313316" lon="14.089631"><ele>93.0</ele><time>2026-04-26T13:50:37.761Z</time></trkpt><trkpt lat="42.3133577" lon="14.0894473"><ele>92.5</ele><time>2026-04-26T13:50:38.759Z</time></trkpt><trkpt lat="42.31341" lon="14.089263"><ele>92.0</ele><time>2026-04-26T13:50:39.766Z</time></trkpt><trkpt lat="42.3134718" lon="14.0890758"><ele>91.33333333333334</ele><time>2026-04-26T13:50:40.762Z</time></trkpt><trkpt lat="42.3135348" lon="14.0888862"><ele>90.66666666666667</ele><time>2026-04-26T13:50:41.759Z</time></trkpt><trkpt lat="42.3135992" lon="14.0886963"><ele>90.0</ele><time>2026-04-26T13:50:42.76Z</time></trkpt><trkpt lat="42.3136748" lon="14.0885182"><ele>90.0</ele><time>2026-04-26T13:50:43.763Z</time></trkpt><trkpt lat="42.3137672" lon="14.0883557"><ele>90.0</ele><time>2026-04-26T13:50:44.761Z</time></trkpt><trkpt lat="42.3138757" lon="14.0882015"><ele>90.0</ele><time>2026-04-26T13:50:45.761Z</time></trkpt><trkpt lat="42.3139945" lon="14.0880447"><ele>88.0</ele><time>2026-04-26T13:50:46.759Z</time></trkpt><trkpt lat="42.3141168" lon="14.0878812"><ele>86.0</ele><time>2026-04-26T13:50:47.76Z</time></trkpt><trkpt lat="42.3142412" lon="14.087713"><ele>84.0</ele><time>2026-04-26T13:50:48.761Z</time></trkpt><trkpt lat="42.3143677" lon="14.0875503"><ele>83.33333333333333</ele><time>2026-04-26T13:50:49.761Z</time></trkpt><trkpt lat="42.3144912" lon="14.0873952"><ele>82.66666666666666</ele><time>2026-04-26T13:50:50.762Z</time></trkpt><trkpt lat="42.3146085" lon="14.0872505"><ele>82.0</ele><time>2026-04-26T13:50:51.761Z</time></trkpt><trkpt lat="42.3147275" lon="14.0871185"><ele>81.25</ele><time>2026-04-26T13:50:52.76Z</time></trkpt><trkpt lat="42.3148468" lon="14.087001"><ele>80.5</ele><time>2026-04-26T13:50:53.76Z</time></trkpt><trkpt lat="42.3149613" lon="14.0869008"><ele>79.75</ele><time>2026-04-26T13:50:54.759Z</time></trkpt><trkpt lat="42.3150707" lon="14.0868188"><ele>79.0</ele><time>2026-04-26T13:50:55.762Z</time></trkpt><trkpt lat="42.3151808" lon="14.0867535"><ele>79.0</ele><time>2026-04-26T13:50:56.759Z</time></trkpt><trkpt lat="42.3152922" lon="14.086711"><ele>79.0</ele><time>2026-04-26T13:50:57.76Z</time></trkpt><trkpt lat="42.315405" lon="14.0866962"><ele>79.0</ele><time>2026-04-26T13:50:58.759Z</time></trkpt><trkpt lat="42.315522" lon="14.0867035"><ele>79.0</ele><time>2026-04-26T13:50:59.759Z</time></trkpt><trkpt lat="42.3156442" lon="14.0867235"><ele>79.25</ele><time>2026-04-26T13:51:00.761Z</time></trkpt><trkpt lat="42.3157713" lon="14.0867483"><ele>79.5</ele><time>2026-04-26T13:51:01.756Z</time></trkpt><trkpt lat="42.315907" lon="14.0867688"><ele>79.75</ele><time>2026-04-26T13:51:02.756Z</time></trkpt><trkpt lat="42.316048" lon="14.086785"><ele>80.0</ele><time>2026-04-26T13:51:03.759Z</time></trkpt><trkpt lat="42.3161933" lon="14.086807"><ele>80.0</ele><time>2026-04-26T13:51:04.758Z</time></trkpt><trkpt lat="42.316339" lon="14.0868495"><ele>80.0</ele><time>2026-04-26T13:51:05.761Z</time></trkpt><trkpt lat="42.3164818" lon="14.0869202"><ele>80.0</ele><time>2026-04-26T13:51:06.764Z</time></trkpt><trkpt lat="42.3166233" lon="14.0870077"><ele>79.0</ele><time>2026-04-26T13:51:07.761Z</time></trkpt><trkpt lat="42.316766" lon="14.0870982"><ele>78.0</ele><time>2026-04-26T13:51:08.762Z</time></trkpt><trkpt lat="42.3169125" lon="14.0871867"><ele>77.0</ele><time>2026-04-26T13:51:09.761Z</time></trkpt><trkpt lat="42.3170642" lon="14.0872695"><ele>77.0</ele><time>2026-04-26T13:51:10.759Z</time></trkpt><trkpt lat="42.3172183" lon="14.0873542"><ele>77.0</ele><time>2026-04-26T13:51:11.761Z</time></trkpt><trkpt lat="42.3173707" lon="14.0874457"><ele>77.0</ele><time>2026-04-26T13:51:12.759Z</time></trkpt><trkpt lat="42.3175128" lon="14.08754"><ele>74.5</ele><time>2026-04-26T13:51:13.759Z</time></trkpt><trkpt lat="42.3176433" lon="14.0876398"><ele>72.0</ele><time>2026-04-26T13:51:14.76Z</time></trkpt><trkpt lat="42.3177587" lon="14.0877485"><ele>69.5</ele><time>2026-04-26T13:51:15.759Z</time></trkpt><trkpt lat="42.3178592" lon="14.0878643"><ele>67.0</ele><time>2026-04-26T13:51:16.761Z</time></trkpt><trkpt lat="42.31795" lon="14.087981"><ele>67.0</ele><time>2026-04-26T13:51:17.762Z</time></trkpt><trkpt lat="42.3180352" lon="14.088093"><ele>67.0</ele><time>2026-04-26T13:51:18.759Z</time></trkpt><trkpt lat="42.3181227" lon="14.0881835"><ele>67.0</ele><time>2026-04-26T13:51:19.76Z</time></trkpt><trkpt lat="42.3182233" lon="14.088249"><ele>67.0</ele><time>2026-04-26T13:51:20.759Z</time></trkpt><trkpt lat="42.3183355" lon="14.0882882"><ele>66.25</ele><time>2026-04-26T13:51:21.759Z</time></trkpt><trkpt lat="42.3184533" lon="14.0883038"><ele>65.5</ele><time>2026-04-26T13:51:22.759Z</time></trkpt><trkpt lat="42.3185745" lon="14.0883185"><ele>64.75</ele><time>2026-04-26T13:51:23.758Z</time></trkpt><trkpt lat="42.3186958" lon="14.0883528"><ele>64.0</ele><time>2026-04-26T13:51:24.759Z</time></trkpt><trkpt lat="42.3188167" lon="14.0884035"><ele>63.5</ele><time>2026-04-26T13:51:25.757Z</time></trkpt><trkpt lat="42.3189397" lon="14.0884598"><ele>63.0</ele><time>2026-04-26T13:51:26.756Z</time></trkpt><trkpt lat="42.3190642" lon="14.088511"><ele>62.5</ele><time>2026-04-26T13:51:27.758Z</time></trkpt><trkpt lat="42.319182" lon="14.0885438"><ele>62.0</ele><time>2026-04-26T13:51:28.756Z</time></trkpt><trkpt lat="42.3192885" lon="14.0885722"><ele>62.00000000000001</ele><time>2026-04-26T13:51:29.756Z</time></trkpt><trkpt lat="42.3193782" lon="14.088604"><ele>62.0</ele><time>2026-04-26T13:51:30.757Z</time></trkpt><trkpt lat="42.319448" lon="14.0886295"><ele>62.0</ele><time>2026-04-26T13:51:31.759Z</time></trkpt><trkpt lat="42.3195287" lon="14.0886055"><ele>62.0</ele><time>2026-04-26T13:51:33.759Z</time></trkpt><trkpt lat="42.3195785" lon="14.0885172"><ele>62.00000000000001</ele><time>2026-04-26T13:51:35.758Z</time></trkpt><trkpt lat="42.3196215" lon="14.0884308"><ele>62.0</ele><time>2026-04-26T13:51:36.759Z</time></trkpt><trkpt lat="42.319677" lon="14.0883212"><ele>61.75</ele><time>2026-04-26T13:51:37.756Z</time></trkpt><trkpt lat="42.3197435" lon="14.088195"><ele>61.5</ele><time>2026-04-26T13:51:38.758Z</time></trkpt><trkpt lat="42.3198143" lon="14.088063"><ele>61.25</ele><time>2026-04-26T13:51:39.757Z</time></trkpt><trkpt lat="42.319886" lon="14.0879293"><ele>61.0</ele><time>2026-04-26T13:51:40.755Z</time></trkpt><trkpt lat="42.3199553" lon="14.0877952"><ele>61.0</ele><time>2026-04-26T13:51:41.76Z</time></trkpt><trkpt lat="42.320024" lon="14.0876682"><ele>60.99999999999999</ele><time>2026-04-26T13:51:42.756Z</time></trkpt><trkpt lat="42.3200917" lon="14.0875593"><ele>60.99999999999999</ele><time>2026-04-26T13:51:43.757Z</time></trkpt><trkpt lat="42.32016" lon="14.0874737"><ele>61.0</ele><time>2026-04-26T13:51:44.758Z</time></trkpt><trkpt lat="42.3202235" lon="14.087406"><ele>61.0</ele><time>2026-04-26T13:51:45.757Z</time></trkpt><trkpt lat="42.3203047" lon="14.087334"><ele>61.0</ele><time>2026-04-26T13:51:47.758Z</time></trkpt><trkpt lat="42.3203895" lon="14.0873975"><ele>60.99999999999999</ele><time>2026-04-26T13:52:01.759Z</time></trkpt><trkpt lat="42.320434" lon="14.087484"><ele>60.99999999999999</ele><time>2026-04-26T13:52:02.76Z</time></trkpt><trkpt lat="42.3204892" lon="14.0875977"><ele>61.0</ele><time>2026-04-26T13:52:03.761Z</time></trkpt><trkpt lat="42.3205538" lon="14.0877323"><ele>61.0</ele><time>2026-04-26T13:52:04.761Z</time></trkpt><trkpt lat="42.320625" lon="14.0878823"><ele>60.75</ele><time>2026-04-26T13:52:05.758Z</time></trkpt><trkpt lat="42.3207023" lon="14.0880417"><ele>60.5</ele><time>2026-04-26T13:52:06.76Z</time></trkpt><trkpt lat="42.3207793" lon="14.088203"><ele>60.25</ele><time>2026-04-26T13:52:07.76Z</time></trkpt><trkpt lat="42.3208505" lon="14.0883537"><ele>60.0</ele><time>2026-04-26T13:52:08.759Z</time></trkpt><trkpt lat="42.3209165" lon="14.088492"><ele>60.0</ele><time>2026-04-26T13:52:09.759Z</time></trkpt><trkpt lat="42.3209782" lon="14.0886215"><ele>60.0</ele><time>2026-04-26T13:52:10.759Z</time></trkpt><trkpt lat="42.3210427" lon="14.0887535"><ele>60.0</ele><time>2026-04-26T13:52:11.759Z</time></trkpt><trkpt lat="42.3211098" lon="14.0888892"><ele>60.0</ele><time>2026-04-26T13:52:12.759Z</time></trkpt><trkpt lat="42.3211767" lon="14.0890285"><ele>59.75</ele><time>2026-04-26T13:52:13.76Z</time></trkpt><trkpt lat="42.3212438" lon="14.0891695"><ele>59.5</ele><time>2026-04-26T13:52:14.757Z</time></trkpt><trkpt lat="42.321307" lon="14.0893025"><ele>59.25</ele><time>2026-04-26T13:52:15.757Z</time></trkpt><trkpt lat="42.3213677" lon="14.0894287"><ele>59.0</ele><time>2026-04-26T13:52:16.755Z</time></trkpt><trkpt lat="42.3214288" lon="14.0895583"><ele>59.0</ele><time>2026-04-26T13:52:17.756Z</time></trkpt><trkpt lat="42.3214912" lon="14.0896867"><ele>59.00000000000001</ele><time>2026-04-26T13:52:18.757Z</time></trkpt><trkpt lat="42.3215492" lon="14.089807"><ele>59.00000000000001</ele><time>2026-04-26T13:52:19.756Z</time></trkpt><trkpt lat="42.321603" lon="14.0899195"><ele>59.0</ele><time>2026-04-26T13:52:20.758Z</time></trkpt><trkpt lat="42.3216548" lon="14.0900362"><ele>59.0</ele><time>2026-04-26T13:52:21.758Z</time></trkpt><trkpt lat="42.321707" lon="14.09015"><ele>58.75</ele><time>2026-04-26T13:52:22.76Z</time></trkpt><trkpt lat="42.32176" lon="14.09026"><ele>58.5</ele><time>2026-04-26T13:52:23.759Z</time></trkpt><trkpt lat="42.3218132" lon="14.0903697"><ele>58.25</ele><time>2026-04-26T13:52:24.758Z</time></trkpt><trkpt lat="42.321921" lon="14.0905917"><ele>58.0</ele><time>2026-04-26T13:52:26.759Z</time></trkpt><trkpt lat="42.3219748" lon="14.0907045"><ele>58.0</ele><time>2026-04-26T13:52:27.758Z</time></trkpt><trkpt lat="42.3220313" lon="14.0908237"><ele>58.0</ele><time>2026-04-26T13:52:28.759Z</time></trkpt><trkpt lat="42.3220905" lon="14.090949"><ele>58.0</ele><time>2026-04-26T13:52:29.761Z</time></trkpt><trkpt lat="42.3222605" lon="14.0913138"><ele>58.5</ele><time>2026-04-26T13:52:32.758Z</time></trkpt><trkpt lat="42.3223693" lon="14.091539"><ele>59.0</ele><time>2026-04-26T13:52:34.76Z</time></trkpt><trkpt lat="42.3225365" lon="14.0919005"><ele>59.0</ele><time>2026-04-26T13:52:37.759Z</time></trkpt><trkpt lat="42.322594" lon="14.0920252"><ele>59.0</ele><time>2026-04-26T13:52:38.76Z</time></trkpt><trkpt lat="42.322655" lon="14.0921538"><ele>59.0</ele><time>2026-04-26T13:52:39.759Z</time></trkpt><trkpt lat="42.3228423" lon="14.0925472"><ele>58.75</ele><time>2026-04-26T13:52:42.757Z</time></trkpt><trkpt lat="42.3229093" lon="14.0926915"><ele>58.5</ele><time>2026-04-26T13:52:43.757Z</time></trkpt><trkpt lat="42.3229782" lon="14.0928383"><ele>58.25</ele><time>2026-04-26T13:52:44.759Z</time></trkpt><trkpt lat="42.3230497" lon="14.0929857"><ele>58.0</ele><time>2026-04-26T13:52:45.759Z</time></trkpt><trkpt lat="42.32312" lon="14.0931338"><ele>58.0</ele><time>2026-04-26T13:52:46.757Z</time></trkpt><trkpt lat="42.3231885" lon="14.0932798"><ele>58.0</ele><time>2026-04-26T13:52:47.761Z</time></trkpt><trkpt lat="42.3232555" lon="14.093423"><ele>58.0</ele><time>2026-04-26T13:52:48.761Z</time></trkpt><trkpt lat="42.3233223" lon="14.0935645"><ele>58.0</ele><time>2026-04-26T13:52:49.759Z</time></trkpt><trkpt lat="42.3233887" lon="14.0937053"><ele>58.0</ele><time>2026-04-26T13:52:50.757Z</time></trkpt><trkpt lat="42.3234502" lon="14.0938458"><ele>58.0</ele><time>2026-04-26T13:52:51.758Z</time></trkpt><trkpt lat="42.323509" lon="14.0939883"><ele>58.0</ele><time>2026-04-26T13:52:52.758Z</time></trkpt><trkpt lat="42.3235587" lon="14.094133"><ele>58.0</ele><time>2026-04-26T13:52:53.759Z</time></trkpt><trkpt lat="42.3236018" lon="14.0942772"><ele>58.0</ele><time>2026-04-26T13:52:54.758Z</time></trkpt><trkpt lat="42.323639" lon="14.0944252"><ele>58.0</ele><time>2026-04-26T13:52:55.758Z</time></trkpt><trkpt lat="42.3236702" lon="14.0945667"><ele>58.0</ele><time>2026-04-26T13:52:56.76Z</time></trkpt><trkpt lat="42.3236992" lon="14.0947077"><ele>58.0</ele><time>2026-04-26T13:52:57.761Z</time></trkpt><trkpt lat="42.3237295" lon="14.0948472"><ele>58.0</ele><time>2026-04-26T13:52:58.761Z</time></trkpt><trkpt lat="42.3237603" lon="14.0949885"><ele>58.2</ele><time>2026-04-26T13:52:59.76Z</time></trkpt><trkpt lat="42.3237935" lon="14.0951305"><ele>58.4</ele><time>2026-04-26T13:53:00.762Z</time></trkpt><trkpt lat="42.3238255" lon="14.0952688"><ele>58.60000000000001</ele><time>2026-04-26T13:53:01.759Z</time></trkpt><trkpt lat="42.3238547" lon="14.0954022"><ele>58.800000000000004</ele><time>2026-04-26T13:53:02.759Z</time></trkpt><trkpt lat="42.323886" lon="14.095545"><ele>59.0</ele><time>2026-04-26T13:53:03.759Z</time></trkpt><trkpt lat="42.3239247" lon="14.0957058"><ele>58.66666666666667</ele><time>2026-04-26T13:53:04.758Z</time></trkpt><trkpt lat="42.3239703" lon="14.0958885"><ele>58.33333333333333</ele><time>2026-04-26T13:53:05.759Z</time></trkpt><trkpt lat="42.3240158" lon="14.0960928"><ele>58.0</ele><time>2026-04-26T13:53:06.758Z</time></trkpt><trkpt lat="42.3240628" lon="14.0963155"><ele>58.0</ele><time>2026-04-26T13:53:07.759Z</time></trkpt><trkpt lat="42.3241108" lon="14.0965528"><ele>58.0</ele><time>2026-04-26T13:53:08.756Z</time></trkpt><trkpt lat="42.3241522" lon="14.09678"><ele>58.0</ele><time>2026-04-26T13:53:09.76Z</time></trkpt><trkpt lat="42.3241915" lon="14.0969903"><ele>58.0</ele><time>2026-04-26T13:53:10.755Z</time></trkpt><trkpt lat="42.3242368" lon="14.0972015"><ele>58.0</ele><time>2026-04-26T13:53:11.759Z</time></trkpt><trkpt lat="42.32429" lon="14.0974247"><ele>58.0</ele><time>2026-04-26T13:53:12.763Z</time></trkpt><trkpt lat="42.324348" lon="14.0976558"><ele>57.666666666666664</ele><time>2026-04-26T13:53:13.759Z</time></trkpt><trkpt lat="42.3244153" lon="14.097876"><ele>57.33333333333333</ele><time>2026-04-26T13:53:14.759Z</time></trkpt><trkpt lat="42.3245008" lon="14.0980883"><ele>57.0</ele><time>2026-04-26T13:53:15.758Z</time></trkpt><trkpt lat="42.3246028" lon="14.0982927"><ele>58.0</ele><time>2026-04-26T13:53:16.758Z</time></trkpt><trkpt lat="42.3247153" lon="14.0984897"><ele>59.0</ele><time>2026-04-26T13:53:17.759Z</time></trkpt><trkpt lat="42.3248332" lon="14.0986828"><ele>60.0</ele><time>2026-04-26T13:53:18.761Z</time></trkpt><trkpt lat="42.324952" lon="14.0988763"><ele>58.66666666666667</ele><time>2026-04-26T13:53:19.76Z</time></trkpt><trkpt lat="42.3250692" lon="14.0990697"><ele>57.333333333333336</ele><time>2026-04-26T13:53:20.76Z</time></trkpt><trkpt lat="42.3251862" lon="14.0992612"><ele>56.0</ele><time>2026-04-26T13:53:21.758Z</time></trkpt><trkpt lat="42.325304" lon="14.0994475"><ele>56.0</ele><time>2026-04-26T13:53:22.758Z</time></trkpt><trkpt lat="42.325421" lon="14.0996335"><ele>56.0</ele><time>2026-04-26T13:53:23.759Z</time></trkpt><trkpt lat="42.3255333" lon="14.0998077"><ele>56.0</ele><time>2026-04-26T13:53:24.757Z</time></trkpt><trkpt lat="42.3256378" lon="14.0999708"><ele>55.25</ele><time>2026-04-26T13:53:25.757Z</time></trkpt><trkpt lat="42.325736" lon="14.100126"><ele>54.5</ele><time>2026-04-26T13:53:26.758Z</time></trkpt><trkpt lat="42.3258267" lon="14.1002693"><ele>53.75</ele><time>2026-04-26T13:53:27.758Z</time></trkpt><trkpt lat="42.3259093" lon="14.100403"><ele>53.0</ele><time>2026-04-26T13:53:28.758Z</time></trkpt><trkpt lat="42.325982" lon="14.100527"><ele>53.00000000000001</ele><time>2026-04-26T13:53:29.756Z</time></trkpt><trkpt lat="42.3260408" lon="14.100638"><ele>53.0</ele><time>2026-04-26T13:53:30.757Z</time></trkpt><trkpt lat="42.3260873" lon="14.100742"><ele>53.0</ele><time>2026-04-26T13:53:31.756Z</time></trkpt><trkpt lat="42.3261213" lon="14.1008398"><ele>53.0</ele><time>2026-04-26T13:53:32.758Z</time></trkpt><trkpt lat="42.3261442" lon="14.100939"><ele>53.00000000000001</ele><time>2026-04-26T13:53:33.759Z</time></trkpt><trkpt lat="42.3261627" lon="14.1010368"><ele>53.0</ele><time>2026-04-26T13:53:34.76Z</time></trkpt><trkpt lat="42.3261885" lon="14.1011215"><ele>53.333333333333336</ele><time>2026-04-26T13:53:35.76Z</time></trkpt><trkpt lat="42.3262297" lon="14.1011913"><ele>53.66666666666667</ele><time>2026-04-26T13:53:36.76Z</time></trkpt><trkpt lat="42.3262885" lon="14.1012472"><ele>54.0</ele><time>2026-04-26T13:53:37.761Z</time></trkpt><trkpt lat="42.326361" lon="14.1012887"><ele>54.33333333333333</ele><time>2026-04-26T13:53:38.759Z</time></trkpt><trkpt lat="42.3264368" lon="14.1013367"><ele>54.666666666666664</ele><time>2026-04-26T13:53:39.76Z</time></trkpt><trkpt lat="42.326507" lon="14.1014043"><ele>55.0</ele><time>2026-04-26T13:53:40.759Z</time></trkpt><trkpt lat="42.3265717" lon="14.1014878"><ele>55.0</ele><time>2026-04-26T13:53:41.758Z</time></trkpt><trkpt lat="42.3266335" lon="14.1015817"><ele>55.0</ele><time>2026-04-26T13:53:42.759Z</time></trkpt><trkpt lat="42.326697" lon="14.1016793"><ele>55.0</ele><time>2026-04-26T13:53:43.757Z</time></trkpt><trkpt lat="42.3267633" lon="14.101781"><ele>55.0</ele><time>2026-04-26T13:53:44.758Z</time></trkpt><trkpt lat="42.32683" lon="14.1018892"><ele>55.0</ele><time>2026-04-26T13:53:45.759Z</time></trkpt><trkpt lat="42.3268977" lon="14.1020023"><ele>55.0</ele><time>2026-04-26T13:53:46.758Z</time></trkpt><trkpt lat="42.3269785" lon="14.1021433"><ele>55.0</ele><time>2026-04-26T13:53:47.958Z</time></trkpt><trkpt lat="42.3270827" lon="14.102338"><ele>55.0</ele><time>2026-04-26T13:53:49.567Z</time></trkpt><trkpt lat="42.3271413" lon="14.1024598"><ele>55.0</ele><time>2026-04-26T13:53:50.568Z</time></trkpt><trkpt lat="42.3271917" lon="14.102588"><ele>53.8</ele><time>2026-04-26T13:53:51.567Z</time></trkpt><trkpt lat="42.3272412" lon="14.1027202"><ele>52.6</ele><time>2026-04-26T13:53:52.568Z</time></trkpt><trkpt lat="42.3272882" lon="14.102856"><ele>51.400000000000006</ele><time>2026-04-26T13:53:53.567Z</time></trkpt><trkpt lat="42.3273342" lon="14.1029948"><ele>50.2</ele><time>2026-04-26T13:53:54.567Z</time></trkpt><trkpt lat="42.3273795" lon="14.1031375"><ele>49.0</ele><time>2026-04-26T13:53:55.567Z</time></trkpt><trkpt lat="42.3274277" lon="14.1032805"><ele>49.0</ele><time>2026-04-26T13:53:56.567Z</time></trkpt><trkpt lat="42.3274722" lon="14.1034258"><ele>49.0</ele><time>2026-04-26T13:53:57.57Z</time></trkpt><trkpt lat="42.3275283" lon="14.1036035"><ele>49.0</ele><time>2026-04-26T13:53:58.76Z</time></trkpt><trkpt lat="42.3275757" lon="14.103748"><ele>49.0</ele><time>2026-04-26T13:53:59.758Z</time></trkpt><trkpt lat="42.3276213" lon="14.103891"><ele>49.0</ele><time>2026-04-26T13:54:00.762Z</time></trkpt><trkpt lat="42.3276665" lon="14.1040338"><ele>49.0</ele><time>2026-04-26T13:54:01.76Z</time></trkpt><trkpt lat="42.327713" lon="14.1041778"><ele>49.0</ele><time>2026-04-26T13:54:02.758Z</time></trkpt><trkpt lat="42.32776" lon="14.1043255"><ele>49.0</ele><time>2026-04-26T13:54:03.76Z</time></trkpt><trkpt lat="42.3278047" lon="14.1044735"><ele>48.6</ele><time>2026-04-26T13:54:04.758Z</time></trkpt><trkpt lat="42.327849" lon="14.1046205"><ele>48.2</ele><time>2026-04-26T13:54:05.76Z</time></trkpt><trkpt lat="42.3278918" lon="14.1047615"><ele>47.800000000000004</ele><time>2026-04-26T13:54:06.759Z</time></trkpt><trkpt lat="42.3279353" lon="14.1048957"><ele>47.400000000000006</ele><time>2026-04-26T13:54:07.759Z</time></trkpt><trkpt lat="42.3279787" lon="14.105028"><ele>47.0</ele><time>2026-04-26T13:54:08.759Z</time></trkpt><trkpt lat="42.3280177" lon="14.1051515"><ele>46.8</ele><time>2026-04-26T13:54:09.76Z</time></trkpt><trkpt lat="42.3280533" lon="14.1052663"><ele>46.6</ele><time>2026-04-26T13:54:10.758Z</time></trkpt><trkpt lat="42.328086" lon="14.1053733"><ele>46.4</ele><time>2026-04-26T13:54:11.757Z</time></trkpt><trkpt lat="42.3281253" lon="14.1054767"><ele>46.199999999999996</ele><time>2026-04-26T13:54:12.757Z</time></trkpt><trkpt lat="42.3281645" lon="14.105596"><ele>46.0</ele><time>2026-04-26T13:54:13.758Z</time></trkpt><trkpt lat="42.3282065" lon="14.1057213"><ele>46.0</ele><time>2026-04-26T13:54:14.757Z</time></trkpt><trkpt lat="42.3282475" lon="14.1058495"><ele>46.0</ele><time>2026-04-26T13:54:15.759Z</time></trkpt><trkpt lat="42.3282882" lon="14.1059768"><ele>46.0</ele><time>2026-04-26T13:54:16.757Z</time></trkpt><trkpt lat="42.3283285" lon="14.1060995"><ele>46.0</ele><time>2026-04-26T13:54:17.758Z</time></trkpt><trkpt lat="42.3283702" lon="14.106226"><ele>46.0</ele><time>2026-04-26T13:54:18.755Z</time></trkpt><trkpt lat="42.3284098" lon="14.10635"><ele>46.0</ele><time>2026-04-26T13:54:19.754Z</time></trkpt><trkpt lat="42.3284477" lon="14.1064722"><ele>46.0</ele><time>2026-04-26T13:54:20.756Z</time></trkpt><trkpt lat="42.3284868" lon="14.1065965"><ele>46.0</ele><time>2026-04-26T13:54:21.756Z</time></trkpt><trkpt lat="42.3285237" lon="14.1067163"><ele>46.0</ele><time>2026-04-26T13:54:22.759Z</time></trkpt><trkpt lat="42.3285617" lon="14.1068383"><ele>46.0</ele><time>2026-04-26T13:54:23.758Z</time></trkpt><trkpt lat="42.3285998" lon="14.1069642"><ele>46.0</ele><time>2026-04-26T13:54:24.759Z</time></trkpt><trkpt lat="42.3286387" lon="14.1070917"><ele>46.0</ele><time>2026-04-26T13:54:25.76Z</time></trkpt><trkpt lat="42.3286773" lon="14.1072177"><ele>46.0</ele><time>2026-04-26T13:54:26.762Z</time></trkpt><trkpt lat="42.3287172" lon="14.1073407"><ele>46.0</ele><time>2026-04-26T13:54:27.761Z</time></trkpt><trkpt lat="42.3287592" lon="14.1074662"><ele>46.0</ele><time>2026-04-26T13:54:28.76Z</time></trkpt><trkpt lat="42.3288013" lon="14.107595"><ele>46.0</ele><time>2026-04-26T13:54:29.761Z</time></trkpt><trkpt lat="42.3288447" lon="14.1077258"><ele>46.0</ele><time>2026-04-26T13:54:30.758Z</time></trkpt><trkpt lat="42.3288842" lon="14.107856"><ele>46.0</ele><time>2026-04-26T13:54:31.757Z</time></trkpt><trkpt lat="42.3289238" lon="14.1079848"><ele>46.0</ele><time>2026-04-26T13:54:32.759Z</time></trkpt><trkpt lat="42.3289642" lon="14.1081132"><ele>46.0</ele><time>2026-04-26T13:54:33.76Z</time></trkpt><trkpt lat="42.3290042" lon="14.1082422"><ele>45.0</ele><time>2026-04-26T13:54:34.759Z</time></trkpt><trkpt lat="42.3290457" lon="14.108372"><ele>44.0</ele><time>2026-04-26T13:54:35.759Z</time></trkpt><trkpt lat="42.3290878" lon="14.1085035"><ele>43.0</ele><time>2026-04-26T13:54:36.759Z</time></trkpt><trkpt lat="42.3291283" lon="14.1086353"><ele>42.0</ele><time>2026-04-26T13:54:37.759Z</time></trkpt><trkpt lat="42.3291687" lon="14.1087652"><ele>41.0</ele><time>2026-04-26T13:54:38.76Z</time></trkpt><trkpt lat="42.3292087" lon="14.1088935"><ele>41.0</ele><time>2026-04-26T13:54:39.759Z</time></trkpt><trkpt lat="42.3292473" lon="14.1090175"><ele>41.0</ele><time>2026-04-26T13:54:40.76Z</time></trkpt><trkpt lat="42.3292827" lon="14.1091402"><ele>41.0</ele><time>2026-04-26T13:54:41.757Z</time></trkpt><trkpt lat="42.3293197" lon="14.1092625"><ele>41.0</ele><time>2026-04-26T13:54:42.756Z</time></trkpt><trkpt lat="42.3293573" lon="14.1093857"><ele>41.0</ele><time>2026-04-26T13:54:43.755Z</time></trkpt><trkpt lat="42.3293975" lon="14.109507"><ele>41.5</ele><time>2026-04-26T13:54:44.757Z</time></trkpt><trkpt lat="42.329443" lon="14.1096393"><ele>42.0</ele><time>2026-04-26T13:54:45.755Z</time></trkpt><trkpt lat="42.3294927" lon="14.1097837"><ele>42.5</ele><time>2026-04-26T13:54:46.755Z</time></trkpt><trkpt lat="42.3295462" lon="14.1099383"><ele>43.0</ele><time>2026-04-26T13:54:47.759Z</time></trkpt><trkpt lat="42.3295952" lon="14.1100892"><ele>43.2</ele><time>2026-04-26T13:54:48.757Z</time></trkpt><trkpt lat="42.3296365" lon="14.110216"><ele>43.4</ele><time>2026-04-26T13:54:49.758Z</time></trkpt><trkpt lat="42.3296705" lon="14.1103308"><ele>43.6</ele><time>2026-04-26T13:54:50.759Z</time></trkpt><trkpt lat="42.3297075" lon="14.1104472"><ele>43.800000000000004</ele><time>2026-04-26T13:54:51.759Z</time></trkpt><trkpt lat="42.3297427" lon="14.1105632"><ele>44.0</ele><time>2026-04-26T13:54:52.76Z</time></trkpt><trkpt lat="42.3297783" lon="14.1106763"><ele>43.6</ele><time>2026-04-26T13:54:53.759Z</time></trkpt><trkpt lat="42.3298165" lon="14.110798"><ele>43.2</ele><time>2026-04-26T13:54:54.76Z</time></trkpt><trkpt lat="42.329858" lon="14.1109292"><ele>42.800000000000004</ele><time>2026-04-26T13:54:55.76Z</time></trkpt><trkpt lat="42.329901" lon="14.1110632"><ele>42.400000000000006</ele><time>2026-04-26T13:54:56.76Z</time></trkpt><trkpt lat="42.3299485" lon="14.1112043"><ele>42.0</ele><time>2026-04-26T13:54:57.761Z</time></trkpt><trkpt lat="42.3300023" lon="14.1113602"><ele>42.0</ele><time>2026-04-26T13:54:58.758Z</time></trkpt><trkpt lat="42.3300593" lon="14.111537"><ele>42.0</ele><time>2026-04-26T13:54:59.761Z</time></trkpt><trkpt lat="42.3301215" lon="14.1117355"><ele>42.0</ele><time>2026-04-26T13:55:00.761Z</time></trkpt><trkpt lat="42.3301938" lon="14.1119605"><ele>42.333333333333336</ele><time>2026-04-26T13:55:01.76Z</time></trkpt><trkpt lat="42.3302643" lon="14.1122007"><ele>42.66666666666667</ele><time>2026-04-26T13:55:02.761Z</time></trkpt><trkpt lat="42.3303292" lon="14.1124268"><ele>43.0</ele><time>2026-04-26T13:55:03.76Z</time></trkpt><trkpt lat="42.3303845" lon="14.1126363"><ele>43.0</ele><time>2026-04-26T13:55:04.76Z</time></trkpt><trkpt lat="42.3304285" lon="14.1128318"><ele>43.0</ele><time>2026-04-26T13:55:05.76Z</time></trkpt><trkpt lat="42.3304587" lon="14.1130102"><ele>43.0</ele><time>2026-04-26T13:55:06.762Z</time></trkpt><trkpt lat="42.3304883" lon="14.113159"><ele>43.0</ele><time>2026-04-26T13:55:07.759Z</time></trkpt><trkpt lat="42.3305302" lon="14.1132782"><ele>41.75</ele><time>2026-04-26T13:55:08.759Z</time></trkpt><trkpt lat="42.3305942" lon="14.1133948"><ele>40.5</ele><time>2026-04-26T13:55:09.759Z</time></trkpt><trkpt lat="42.330665" lon="14.113529"><ele>39.25</ele><time>2026-04-26T13:55:10.759Z</time></trkpt><trkpt lat="42.3307267" lon="14.1136917"><ele>38.0</ele><time>2026-04-26T13:55:11.76Z</time></trkpt><trkpt lat="42.3307838" lon="14.1138757"><ele>38.0</ele><time>2026-04-26T13:55:12.76Z</time></trkpt><trkpt lat="42.3308415" lon="14.114066"><ele>38.0</ele><time>2026-04-26T13:55:13.76Z</time></trkpt><trkpt lat="42.3308998" lon="14.1142595"><ele>38.0</ele><time>2026-04-26T13:55:14.759Z</time></trkpt><trkpt lat="42.3309592" lon="14.1144535"><ele>38.0</ele><time>2026-04-26T13:55:15.76Z</time></trkpt><trkpt lat="42.3310177" lon="14.114644"><ele>38.0</ele><time>2026-04-26T13:55:16.759Z</time></trkpt><trkpt lat="42.331076" lon="14.1148318"><ele>38.0</ele><time>2026-04-26T13:55:17.76Z</time></trkpt><trkpt lat="42.3311363" lon="14.1150185"><ele>38.0</ele><time>2026-04-26T13:55:18.76Z</time></trkpt><trkpt lat="42.3311957" lon="14.1152042"><ele>38.0</ele><time>2026-04-26T13:55:19.76Z</time></trkpt><trkpt lat="42.3312537" lon="14.1153912"><ele>38.0</ele><time>2026-04-26T13:55:20.761Z</time></trkpt><trkpt lat="42.3313113" lon="14.1155767"><ele>38.0</ele><time>2026-04-26T13:55:21.76Z</time></trkpt><trkpt lat="42.331369" lon="14.115761"><ele>38.0</ele><time>2026-04-26T13:55:22.761Z</time></trkpt><trkpt lat="42.3314267" lon="14.1159447"><ele>38.0</ele><time>2026-04-26T13:55:23.757Z</time></trkpt><trkpt lat="42.331484" lon="14.1161262"><ele>38.0</ele><time>2026-04-26T13:55:24.757Z</time></trkpt><trkpt lat="42.3315417" lon="14.1163098"><ele>38.0</ele><time>2026-04-26T13:55:25.757Z</time></trkpt><trkpt lat="42.3315982" lon="14.11649"><ele>38.0</ele><time>2026-04-26T13:55:26.759Z</time></trkpt><trkpt lat="42.3316545" lon="14.116668"><ele>38.0</ele><time>2026-04-26T13:55:27.757Z</time></trkpt><trkpt lat="42.331711" lon="14.1168447"><ele>38.0</ele><time>2026-04-26T13:55:28.76Z</time></trkpt><trkpt lat="42.3317673" lon="14.1170205"><ele>38.0</ele><time>2026-04-26T13:55:29.757Z</time></trkpt><trkpt lat="42.331823" lon="14.1171978"><ele>38.0</ele><time>2026-04-26T13:55:30.76Z</time></trkpt><trkpt lat="42.3318773" lon="14.1173762"><ele>38.0</ele><time>2026-04-26T13:55:31.759Z</time></trkpt><trkpt lat="42.3319328" lon="14.1175565"><ele>38.0</ele><time>2026-04-26T13:55:32.758Z</time></trkpt><trkpt lat="42.3319885" lon="14.1177373"><ele>38.0</ele><time>2026-04-26T13:55:33.756Z</time></trkpt><trkpt lat="42.3320443" lon="14.1179193"><ele>38.0</ele><time>2026-04-26T13:55:34.756Z</time></trkpt><trkpt lat="42.3321012" lon="14.1181035"><ele>38.0</ele><time>2026-04-26T13:55:35.758Z</time></trkpt><trkpt lat="42.3321598" lon="14.1182873"><ele>38.0</ele><time>2026-04-26T13:55:36.759Z</time></trkpt><trkpt lat="42.3322188" lon="14.1184725"><ele>38.0</ele><time>2026-04-26T13:55:37.76Z</time></trkpt><trkpt lat="42.3322777" lon="14.1186582"><ele>38.0</ele><time>2026-04-26T13:55:38.76Z</time></trkpt><trkpt lat="42.3323365" lon="14.1188428"><ele>38.0</ele><time>2026-04-26T13:55:39.758Z</time></trkpt><trkpt lat="42.332395" lon="14.1190268"><ele>38.0</ele><time>2026-04-26T13:55:40.759Z</time></trkpt><trkpt lat="42.3324532" lon="14.1192108"><ele>38.0</ele><time>2026-04-26T13:55:41.76Z</time></trkpt><trkpt lat="42.3325087" lon="14.1193963"><ele>37.75</ele><time>2026-04-26T13:55:42.759Z</time></trkpt><trkpt lat="42.332565" lon="14.119582"><ele>37.5</ele><time>2026-04-26T13:55:43.757Z</time></trkpt><trkpt lat="42.332625" lon="14.1197697"><ele>37.25</ele><time>2026-04-26T13:55:44.758Z</time></trkpt><trkpt lat="42.3326837" lon="14.1199543"><ele>37.0</ele><time>2026-04-26T13:55:45.76Z</time></trkpt><trkpt lat="42.3327405" lon="14.120142"><ele>37.75</ele><time>2026-04-26T13:55:46.758Z</time></trkpt><trkpt lat="42.3327968" lon="14.120329"><ele>38.5</ele><time>2026-04-26T13:55:47.759Z</time></trkpt><trkpt lat="42.3328542" lon="14.120515"><ele>39.25</ele><time>2026-04-26T13:55:48.761Z</time></trkpt><trkpt lat="42.332911" lon="14.1207017"><ele>40.0</ele><time>2026-04-26T13:55:49.761Z</time></trkpt><trkpt lat="42.3329682" lon="14.1208862"><ele>40.0</ele><time>2026-04-26T13:55:50.757Z</time></trkpt><trkpt lat="42.3330262" lon="14.1210625"><ele>40.0</ele><time>2026-04-26T13:55:51.757Z</time></trkpt><trkpt lat="42.3330785" lon="14.121224"><ele>40.0</ele><time>2026-04-26T13:55:52.756Z</time></trkpt><trkpt lat="42.3331252" lon="14.121375"><ele>40.0</ele><time>2026-04-26T13:55:53.759Z</time></trkpt><trkpt lat="42.3331718" lon="14.1215278"><ele>40.5</ele><time>2026-04-26T13:55:54.758Z</time></trkpt><trkpt lat="42.3332203" lon="14.1216838"><ele>41.0</ele><time>2026-04-26T13:55:55.757Z</time></trkpt><trkpt lat="42.3332688" lon="14.1218438"><ele>41.5</ele><time>2026-04-26T13:55:56.756Z</time></trkpt><trkpt lat="42.333321" lon="14.1220065"><ele>42.0</ele><time>2026-04-26T13:55:57.756Z</time></trkpt><trkpt lat="42.333376" lon="14.1221768"><ele>42.0</ele><time>2026-04-26T13:55:58.757Z</time></trkpt><trkpt lat="42.333433" lon="14.122351"><ele>42.0</ele><time>2026-04-26T13:55:59.757Z</time></trkpt><trkpt lat="42.3334923" lon="14.1225352"><ele>42.0</ele><time>2026-04-26T13:56:00.757Z</time></trkpt><trkpt lat="42.3335537" lon="14.1227283"><ele>42.0</ele><time>2026-04-26T13:56:01.757Z</time></trkpt><trkpt lat="42.3336148" lon="14.1229265"><ele>42.333333333333336</ele><time>2026-04-26T13:56:02.758Z</time></trkpt><trkpt lat="42.333681" lon="14.123134"><ele>42.66666666666667</ele><time>2026-04-26T13:56:03.757Z</time></trkpt><trkpt lat="42.3337508" lon="14.1233457"><ele>43.0</ele><time>2026-04-26T13:56:04.757Z</time></trkpt><trkpt lat="42.3338215" lon="14.1235618"><ele>42.66666666666667</ele><time>2026-04-26T13:56:05.757Z</time></trkpt><trkpt lat="42.3338933" lon="14.123782"><ele>42.333333333333336</ele><time>2026-04-26T13:56:06.76Z</time></trkpt><trkpt lat="42.3339662" lon="14.124006"><ele>42.0</ele><time>2026-04-26T13:56:07.758Z</time></trkpt><trkpt lat="42.3340392" lon="14.1242353"><ele>41.666666666666664</ele><time>2026-04-26T13:56:08.758Z</time></trkpt><trkpt lat="42.3341135" lon="14.1244695"><ele>41.33333333333333</ele><time>2026-04-26T13:56:09.761Z</time></trkpt><trkpt lat="42.334189" lon="14.124706"><ele>41.0</ele><time>2026-04-26T13:56:10.76Z</time></trkpt><trkpt lat="42.3342612" lon="14.1249335"><ele>41.666666666666664</ele><time>2026-04-26T13:56:11.76Z</time></trkpt><trkpt lat="42.3343307" lon="14.1251498"><ele>42.333333333333336</ele><time>2026-04-26T13:56:12.76Z</time></trkpt><trkpt lat="42.3343953" lon="14.1253508"><ele>43.0</ele><time>2026-04-26T13:56:13.76Z</time></trkpt><trkpt lat="42.3344593" lon="14.1255513"><ele>43.66666666666667</ele><time>2026-04-26T13:56:14.759Z</time></trkpt><trkpt lat="42.3345232" lon="14.1257517"><ele>44.333333333333336</ele><time>2026-04-26T13:56:15.76Z</time></trkpt><trkpt lat="42.3345868" lon="14.1259537"><ele>45.0</ele><time>2026-04-26T13:56:16.759Z</time></trkpt><trkpt lat="42.3346507" lon="14.1261582"><ele>45.0</ele><time>2026-04-26T13:56:17.759Z</time></trkpt><trkpt lat="42.3347183" lon="14.1263643"><ele>45.0</ele><time>2026-04-26T13:56:18.758Z</time></trkpt><trkpt lat="42.3347868" lon="14.1265753"><ele>45.0</ele><time>2026-04-26T13:56:19.76Z</time></trkpt><trkpt lat="42.3348555" lon="14.1267917"><ele>45.333333333333336</ele><time>2026-04-26T13:56:20.76Z</time></trkpt><trkpt lat="42.3349233" lon="14.1270102"><ele>45.66666666666667</ele><time>2026-04-26T13:56:21.757Z</time></trkpt><trkpt lat="42.3349923" lon="14.1272278"><ele>46.0</ele><time>2026-04-26T13:56:22.757Z</time></trkpt><trkpt lat="42.3350612" lon="14.1274438"><ele>46.66666666666667</ele><time>2026-04-26T13:56:23.756Z</time></trkpt><trkpt lat="42.3351263" lon="14.1276553"><ele>47.333333333333336</ele><time>2026-04-26T13:56:24.757Z</time></trkpt><trkpt lat="42.3351873" lon="14.127853"><ele>48.0</ele><time>2026-04-26T13:56:25.759Z</time></trkpt><trkpt lat="42.3352508" lon="14.1280465"><ele>48.33333333333333</ele><time>2026-04-26T13:56:26.76Z</time></trkpt><trkpt lat="42.3353142" lon="14.1282457"><ele>48.666666666666664</ele><time>2026-04-26T13:56:27.758Z</time></trkpt><trkpt lat="42.3353782" lon="14.1284475"><ele>49.0</ele><time>2026-04-26T13:56:28.758Z</time></trkpt><trkpt lat="42.3354415" lon="14.1286517"><ele>49.0</ele><time>2026-04-26T13:56:29.759Z</time></trkpt><trkpt lat="42.3355058" lon="14.1288578"><ele>49.0</ele><time>2026-04-26T13:56:30.76Z</time></trkpt><trkpt lat="42.3355697" lon="14.1290623"><ele>49.0</ele><time>2026-04-26T13:56:31.758Z</time></trkpt><trkpt lat="42.3356332" lon="14.1292638"><ele>49.33333333333333</ele><time>2026-04-26T13:56:32.759Z</time></trkpt><trkpt lat="42.3356957" lon="14.1294635"><ele>49.66666666666667</ele><time>2026-04-26T13:56:33.759Z</time></trkpt><trkpt lat="42.335755" lon="14.1296572"><ele>50.0</ele><time>2026-04-26T13:56:34.76Z</time></trkpt><trkpt lat="42.3358127" lon="14.1298482"><ele>50.5</ele><time>2026-04-26T13:56:35.759Z</time></trkpt><trkpt lat="42.3358702" lon="14.1300365"><ele>51.0</ele><time>2026-04-26T13:56:36.759Z</time></trkpt><trkpt lat="42.3359268" lon="14.130214"><ele>51.5</ele><time>2026-04-26T13:56:37.757Z</time></trkpt><trkpt lat="42.3359827" lon="14.1303857"><ele>52.0</ele><time>2026-04-26T13:56:38.76Z</time></trkpt><trkpt lat="42.3360378" lon="14.1305657"><ele>52.0</ele><time>2026-04-26T13:56:39.759Z</time></trkpt><trkpt lat="42.336095" lon="14.1307503"><ele>52.0</ele><time>2026-04-26T13:56:40.764Z</time></trkpt><trkpt lat="42.3361537" lon="14.1309388"><ele>52.0</ele><time>2026-04-26T13:56:41.761Z</time></trkpt><trkpt lat="42.3362137" lon="14.131129"><ele>52.0</ele><time>2026-04-26T13:56:42.758Z</time></trkpt><trkpt lat="42.3362757" lon="14.1313195"><ele>52.0</ele><time>2026-04-26T13:56:43.758Z</time></trkpt><trkpt lat="42.3363338" lon="14.131502"><ele>52.0</ele><time>2026-04-26T13:56:44.758Z</time></trkpt><trkpt lat="42.336392" lon="14.1316765"><ele>52.0</ele><time>2026-04-26T13:56:45.757Z</time></trkpt><trkpt lat="42.3364558" lon="14.131851"><ele>52.0</ele><time>2026-04-26T13:56:46.758Z</time></trkpt><trkpt lat="42.3365275" lon="14.1320183"><ele>52.0</ele><time>2026-04-26T13:56:47.757Z</time></trkpt><trkpt lat="42.3366048" lon="14.1321713"><ele>52.0</ele><time>2026-04-26T13:56:48.757Z</time></trkpt><trkpt lat="42.3366888" lon="14.1323073"><ele>52.0</ele><time>2026-04-26T13:56:49.761Z</time></trkpt><trkpt lat="42.3367837" lon="14.1324315"><ele>52.5</ele><time>2026-04-26T13:56:50.759Z</time></trkpt><trkpt lat="42.33689" lon="14.1325455"><ele>53.0</ele><time>2026-04-26T13:56:51.759Z</time></trkpt><trkpt lat="42.3370058" lon="14.1326508"><ele>53.5</ele><time>2026-04-26T13:56:52.758Z</time></trkpt><trkpt lat="42.3371275" lon="14.1327463"><ele>54.0</ele><time>2026-04-26T13:56:53.757Z</time></trkpt><trkpt lat="42.3372573" lon="14.1328272"><ele>54.25</ele><time>2026-04-26T13:56:54.76Z</time></trkpt><trkpt lat="42.3373932" lon="14.1328885"><ele>54.5</ele><time>2026-04-26T13:56:55.758Z</time></trkpt><trkpt lat="42.337536" lon="14.1329397"><ele>54.75</ele><time>2026-04-26T13:56:56.758Z</time></trkpt><trkpt lat="42.3376827" lon="14.132983"><ele>55.0</ele><time>2026-04-26T13:56:57.756Z</time></trkpt><trkpt lat="42.3378303" lon="14.1330272"><ele>55.0</ele><time>2026-04-26T13:56:58.76Z</time></trkpt><trkpt lat="42.3379785" lon="14.1330718"><ele>55.0</ele><time>2026-04-26T13:56:59.759Z</time></trkpt><trkpt lat="42.3381255" lon="14.1331167"><ele>55.0</ele><time>2026-04-26T13:57:00.758Z</time></trkpt><trkpt lat="42.3382737" lon="14.1331615"><ele>55.0</ele><time>2026-04-26T13:57:01.758Z</time></trkpt><trkpt lat="42.338426" lon="14.1332112"><ele>55.0</ele><time>2026-04-26T13:57:02.76Z</time></trkpt><trkpt lat="42.3385828" lon="14.1332618"><ele>55.0</ele><time>2026-04-26T13:57:03.759Z</time></trkpt><trkpt lat="42.3387442" lon="14.133313"><ele>55.33333333333333</ele><time>2026-04-26T13:57:04.758Z</time></trkpt><trkpt lat="42.3389058" lon="14.1333633"><ele>55.66666666666667</ele><time>2026-04-26T13:57:05.759Z</time></trkpt><trkpt lat="42.3390668" lon="14.1334117"><ele>56.0</ele><time>2026-04-26T13:57:06.759Z</time></trkpt><trkpt lat="42.3392243" lon="14.1334585"><ele>56.0</ele><time>2026-04-26T13:57:07.76Z</time></trkpt><trkpt lat="42.3393767" lon="14.1335062"><ele>56.0</ele><time>2026-04-26T13:57:08.763Z</time></trkpt><trkpt lat="42.3395253" lon="14.1335513"><ele>56.0</ele><time>2026-04-26T13:57:09.758Z</time></trkpt><trkpt lat="42.339665" lon="14.1335925"><ele>55.75</ele><time>2026-04-26T13:57:10.755Z</time></trkpt><trkpt lat="42.3397997" lon="14.1336315"><ele>55.5</ele><time>2026-04-26T13:57:11.754Z</time></trkpt><trkpt lat="42.3399288" lon="14.1336705"><ele>55.25</ele><time>2026-04-26T13:57:12.756Z</time></trkpt><trkpt lat="42.3400482" lon="14.133707"><ele>55.0</ele><time>2026-04-26T13:57:13.757Z</time></trkpt><trkpt lat="42.3401582" lon="14.1337445"><ele>54.99999999999999</ele><time>2026-04-26T13:57:14.758Z</time></trkpt><trkpt lat="42.3402522" lon="14.1337785"><ele>55.0</ele><time>2026-04-26T13:57:15.757Z</time></trkpt><trkpt lat="42.3403263" lon="14.1338118"><ele>55.0</ele><time>2026-04-26T13:57:16.759Z</time></trkpt><trkpt lat="42.340391" lon="14.133853"><ele>55.0</ele><time>2026-04-26T13:57:17.757Z</time></trkpt><trkpt lat="42.3404547" lon="14.1339098"><ele>54.99999999999999</ele><time>2026-04-26T13:57:18.758Z</time></trkpt><trkpt lat="42.3405135" lon="14.1339617"><ele>55.0</ele><time>2026-04-26T13:57:19.76Z</time></trkpt><trkpt lat="42.340627" lon="14.13399"><ele>54.666666666666664</ele><time>2026-04-26T13:57:21.758Z</time></trkpt><trkpt lat="42.3407087" lon="14.1339118"><ele>54.33333333333333</ele><time>2026-04-26T13:57:23.758Z</time></trkpt><trkpt lat="42.3407243" lon="14.1338002"><ele>54.0</ele><time>2026-04-26T13:57:25.758Z</time></trkpt><trkpt lat="42.3406937" lon="14.1337198"><ele>53.66666666666667</ele><time>2026-04-26T13:57:27.761Z</time></trkpt><trkpt lat="42.340668" lon="14.1336028"><ele>53.333333333333336</ele><time>2026-04-26T13:57:30.76Z</time></trkpt><trkpt lat="42.3407003" lon="14.1334903"><ele>53.0</ele><time>2026-04-26T13:57:33.757Z</time></trkpt><trkpt lat="42.3407437" lon="14.133408"><ele>53.0</ele><time>2026-04-26T13:57:46.759Z</time></trkpt><trkpt lat="42.3407905" lon="14.1333037"><ele>53.0</ele><time>2026-04-26T13:57:48.759Z</time></trkpt><trkpt lat="42.3408425" lon="14.1332095"><ele>53.0</ele><time>2026-04-26T13:57:49.76Z</time></trkpt><trkpt lat="42.340912" lon="14.1330872"><ele>53.0</ele><time>2026-04-26T13:57:50.758Z</time></trkpt><trkpt lat="42.340996" lon="14.132938"><ele>53.0</ele><time>2026-04-26T13:57:51.761Z</time></trkpt><trkpt lat="42.3410898" lon="14.1327772"><ele>52.333333333333336</ele><time>2026-04-26T13:57:52.759Z</time></trkpt><trkpt lat="42.341192" lon="14.1326153"><ele>51.66666666666667</ele><time>2026-04-26T13:57:53.76Z</time></trkpt><trkpt lat="42.3412935" lon="14.1324582"><ele>51.0</ele><time>2026-04-26T13:57:54.762Z</time></trkpt><trkpt lat="42.3413877" lon="14.1323082"><ele>50.25</ele><time>2026-04-26T13:57:55.76Z</time></trkpt><trkpt lat="42.341467" lon="14.1321595"><ele>49.5</ele><time>2026-04-26T13:57:56.76Z</time></trkpt><trkpt lat="42.3415302" lon="14.1320065"><ele>48.75</ele><time>2026-04-26T13:57:57.76Z</time></trkpt><trkpt lat="42.3415848" lon="14.1318493"><ele>48.0</ele><time>2026-04-26T13:57:58.758Z</time></trkpt><trkpt lat="42.3416333" lon="14.1316935"><ele>47.8</ele><time>2026-04-26T13:57:59.756Z</time></trkpt><trkpt lat="42.3416715" lon="14.131547"><ele>47.599999999999994</ele><time>2026-04-26T13:58:00.754Z</time></trkpt><trkpt lat="42.3417145" lon="14.1314188"><ele>47.400000000000006</ele><time>2026-04-26T13:58:01.755Z</time></trkpt><trkpt lat="42.3417643" lon="14.1312973"><ele>47.2</ele><time>2026-04-26T13:58:02.757Z</time></trkpt><trkpt lat="42.3418085" lon="14.1311815"><ele>47.0</ele><time>2026-04-26T13:58:03.758Z</time></trkpt><trkpt lat="42.3418405" lon="14.131051"><ele>47.0</ele><time>2026-04-26T13:58:04.758Z</time></trkpt><trkpt lat="42.3418653" lon="14.1308993"><ele>47.0</ele><time>2026-04-26T13:58:05.758Z</time></trkpt><trkpt lat="42.3418942" lon="14.1307358"><ele>47.0</ele><time>2026-04-26T13:58:06.76Z</time></trkpt><trkpt lat="42.341926" lon="14.1305747"><ele>47.0</ele><time>2026-04-26T13:58:07.757Z</time></trkpt><trkpt lat="42.3419632" lon="14.1304192"><ele>46.83333333333333</ele><time>2026-04-26T13:58:08.758Z</time></trkpt><trkpt lat="42.3419998" lon="14.1302747"><ele>46.666666666666664</ele><time>2026-04-26T13:58:09.755Z</time></trkpt><trkpt lat="42.3420247" lon="14.1301423"><ele>46.5</ele><time>2026-04-26T13:58:10.756Z</time></trkpt><trkpt lat="42.3420337" lon="14.1300283"><ele>46.333333333333336</ele><time>2026-04-26T13:58:11.756Z</time></trkpt><trkpt lat="42.3420383" lon="14.1299282"><ele>46.16666666666667</ele><time>2026-04-26T13:58:12.759Z</time></trkpt><trkpt lat="42.34205" lon="14.1298428"><ele>46.0</ele><time>2026-04-26T13:58:13.758Z</time></trkpt><trkpt lat="42.3420778" lon="14.1297623"><ele>45.66666666666667</ele><time>2026-04-26T13:58:14.758Z</time></trkpt><trkpt lat="42.34212" lon="14.1296718"><ele>45.333333333333336</ele><time>2026-04-26T13:58:15.759Z</time></trkpt><trkpt lat="42.3421645" lon="14.129567"><ele>45.0</ele><time>2026-04-26T13:58:16.757Z</time></trkpt><trkpt lat="42.3421852" lon="14.1294625"><ele>44.666666666666664</ele><time>2026-04-26T13:58:17.757Z</time></trkpt><trkpt lat="42.3421717" lon="14.1293623"><ele>44.33333333333333</ele><time>2026-04-26T13:58:18.759Z</time></trkpt><trkpt lat="42.3421288" lon="14.1292718"><ele>44.0</ele><time>2026-04-26T13:58:19.758Z</time></trkpt><trkpt lat="42.3420605" lon="14.129194"><ele>44.0</ele><time>2026-04-26T13:58:20.758Z</time></trkpt><trkpt lat="42.3419795" lon="14.1291063"><ele>44.0</ele><time>2026-04-26T13:58:21.758Z</time></trkpt><trkpt lat="42.3419145" lon="14.1289938"><ele>44.0</ele><time>2026-04-26T13:58:22.758Z</time></trkpt><trkpt lat="42.3418643" lon="14.128842"><ele>44.0</ele><time>2026-04-26T13:58:23.755Z</time></trkpt><trkpt lat="42.3418207" lon="14.1286543"><ele>42.33333333333333</ele><time>2026-04-26T13:58:24.754Z</time></trkpt><trkpt lat="42.3417778" lon="14.1284382"><ele>40.666666666666664</ele><time>2026-04-26T13:58:25.754Z</time></trkpt><trkpt lat="42.3417372" lon="14.128205"><ele>39.0</ele><time>2026-04-26T13:58:26.755Z</time></trkpt><trkpt lat="42.3416953" lon="14.1279577"><ele>38.333333333333336</ele><time>2026-04-26T13:58:27.759Z</time></trkpt><trkpt lat="42.3416507" lon="14.1276992"><ele>37.66666666666667</ele><time>2026-04-26T13:58:28.757Z</time></trkpt><trkpt lat="42.3416062" lon="14.1274307"><ele>37.0</ele><time>2026-04-26T13:58:29.761Z</time></trkpt><trkpt lat="42.3415613" lon="14.1271588"><ele>36.333333333333336</ele><time>2026-04-26T13:58:30.76Z</time></trkpt><trkpt lat="42.3415143" lon="14.1268885"><ele>35.666666666666664</ele><time>2026-04-26T13:58:31.76Z</time></trkpt><trkpt lat="42.3414678" lon="14.1266182"><ele>35.0</ele><time>2026-04-26T13:58:32.759Z</time></trkpt><trkpt lat="42.3414213" lon="14.1263498"><ele>35.0</ele><time>2026-04-26T13:58:33.761Z</time></trkpt><trkpt lat="42.3413763" lon="14.1260838"><ele>35.0</ele><time>2026-04-26T13:58:34.758Z</time></trkpt><trkpt lat="42.3413315" lon="14.1258198"><ele>35.0</ele><time>2026-04-26T13:58:35.758Z</time></trkpt><trkpt lat="42.3412895" lon="14.1255568"><ele>35.0</ele><time>2026-04-26T13:58:36.76Z</time></trkpt><trkpt lat="42.3412467" lon="14.125294"><ele>35.0</ele><time>2026-04-26T13:58:37.758Z</time></trkpt><trkpt lat="42.3412038" lon="14.1250342"><ele>35.0</ele><time>2026-04-26T13:58:38.759Z</time></trkpt><trkpt lat="42.3411595" lon="14.1247753"><ele>35.0</ele><time>2026-04-26T13:58:39.759Z</time></trkpt><trkpt lat="42.3411142" lon="14.1245168"><ele>35.0</ele><time>2026-04-26T13:58:40.758Z</time></trkpt><trkpt lat="42.3410697" lon="14.1242563"><ele>35.0</ele><time>2026-04-26T13:58:41.76Z</time></trkpt><trkpt lat="42.3410242" lon="14.1239962"><ele>35.0</ele><time>2026-04-26T13:58:42.759Z</time></trkpt><trkpt lat="42.3409812" lon="14.1237347"><ele>35.0</ele><time>2026-04-26T13:58:43.76Z</time></trkpt><trkpt lat="42.3409393" lon="14.1234728"><ele>35.0</ele><time>2026-04-26T13:58:44.759Z</time></trkpt><trkpt lat="42.3408992" lon="14.1232137"><ele>35.0</ele><time>2026-04-26T13:58:45.76Z</time></trkpt><trkpt lat="42.3408598" lon="14.1229688"><ele>35.0</ele><time>2026-04-26T13:58:46.757Z</time></trkpt><trkpt lat="42.3408228" lon="14.1227405"><ele>35.0</ele><time>2026-04-26T13:58:47.756Z</time></trkpt><trkpt lat="42.3407987" lon="14.1225277"><ele>34.75</ele><time>2026-04-26T13:58:48.756Z</time></trkpt><trkpt lat="42.3407957" lon="14.1223295"><ele>34.5</ele><time>2026-04-26T13:58:49.756Z</time></trkpt><trkpt lat="42.340809" lon="14.122141"><ele>34.25</ele><time>2026-04-26T13:58:50.756Z</time></trkpt><trkpt lat="42.3408363" lon="14.1219707"><ele>34.0</ele><time>2026-04-26T13:58:51.757Z</time></trkpt><trkpt lat="42.3408815" lon="14.121825"><ele>34.0</ele><time>2026-04-26T13:58:52.759Z</time></trkpt><trkpt lat="42.3409483" lon="14.1217102"><ele>34.0</ele><time>2026-04-26T13:58:53.758Z</time></trkpt><trkpt lat="42.3410308" lon="14.1216212"><ele>34.0</ele><time>2026-04-26T13:58:54.759Z</time></trkpt><trkpt lat="42.3411088" lon="14.1215387"><ele>34.0</ele><time>2026-04-26T13:58:55.759Z</time></trkpt><trkpt lat="42.3411647" lon="14.1214447"><ele>34.0</ele><time>2026-04-26T13:58:56.759Z</time></trkpt><trkpt lat="42.3411957" lon="14.1213248"><ele>33.0</ele><time>2026-04-26T13:58:57.759Z</time></trkpt><trkpt lat="42.3412095" lon="14.1211867"><ele>32.0</ele><time>2026-04-26T13:58:58.759Z</time></trkpt><trkpt lat="42.341234" lon="14.1210417"><ele>31.0</ele><time>2026-04-26T13:58:59.759Z</time></trkpt><trkpt lat="42.341286" lon="14.1208978"><ele>30.0</ele><time>2026-04-26T13:59:00.759Z</time></trkpt><trkpt lat="42.3413607" lon="14.1207522"><ele>31.0</ele><time>2026-04-26T13:59:01.758Z</time></trkpt><trkpt lat="42.3414483" lon="14.1206003"><ele>32.0</ele><time>2026-04-26T13:59:02.757Z</time></trkpt><trkpt lat="42.341541" lon="14.1204367"><ele>33.0</ele><time>2026-04-26T13:59:03.759Z</time></trkpt><trkpt lat="42.3416375" lon="14.1202627"><ele>33.0</ele><time>2026-04-26T13:59:04.758Z</time></trkpt><trkpt lat="42.3417375" lon="14.1200812"><ele>33.0</ele><time>2026-04-26T13:59:05.758Z</time></trkpt><trkpt lat="42.3418402" lon="14.119895"><ele>33.0</ele><time>2026-04-26T13:59:06.758Z</time></trkpt><trkpt lat="42.3419442" lon="14.119706"><ele>32.666666666666664</ele><time>2026-04-26T13:59:07.758Z</time></trkpt><trkpt lat="42.3420483" lon="14.1195147"><ele>32.33333333333333</ele><time>2026-04-26T13:59:08.759Z</time></trkpt><trkpt lat="42.3421527" lon="14.1193227"><ele>32.0</ele><time>2026-04-26T13:59:09.759Z</time></trkpt><trkpt lat="42.342255" lon="14.1191283"><ele>32.33333333333333</ele><time>2026-04-26T13:59:10.757Z</time></trkpt><trkpt lat="42.3423508" lon="14.1189288"><ele>32.666666666666664</ele><time>2026-04-26T13:59:11.757Z</time></trkpt><trkpt lat="42.3424343" lon="14.1187195"><ele>33.0</ele><time>2026-04-26T13:59:12.758Z</time></trkpt><trkpt lat="42.3425033" lon="14.1184993"><ele>33.0</ele><time>2026-04-26T13:59:13.755Z</time></trkpt><trkpt lat="42.3425598" lon="14.1182705"><ele>33.0</ele><time>2026-04-26T13:59:14.755Z</time></trkpt><trkpt lat="42.3426077" lon="14.1180337"><ele>33.0</ele><time>2026-04-26T13:59:15.757Z</time></trkpt><trkpt lat="42.3426525" lon="14.117792"><ele>35.0</ele><time>2026-04-26T13:59:16.761Z</time></trkpt><trkpt lat="42.3426982" lon="14.1175505"><ele>37.0</ele><time>2026-04-26T13:59:17.759Z</time></trkpt><trkpt lat="42.342743" lon="14.1173073"><ele>39.0</ele><time>2026-04-26T13:59:18.759Z</time></trkpt><trkpt lat="42.3427862" lon="14.1170643"><ele>41.0</ele><time>2026-04-26T13:59:19.756Z</time></trkpt><trkpt lat="42.3428305" lon="14.1168215"><ele>43.0</ele><time>2026-04-26T13:59:20.756Z</time></trkpt><trkpt lat="42.3428735" lon="14.1165805"><ele>45.0</ele><time>2026-04-26T13:59:21.758Z</time></trkpt><trkpt lat="42.3429133" lon="14.1163387"><ele>45.333333333333336</ele><time>2026-04-26T13:59:22.758Z</time></trkpt><trkpt lat="42.3429527" lon="14.1160985"><ele>45.66666666666667</ele><time>2026-04-26T13:59:23.76Z</time></trkpt><trkpt lat="42.3429918" lon="14.1158678"><ele>46.0</ele><time>2026-04-26T13:59:24.758Z</time></trkpt><trkpt lat="42.3430292" lon="14.1156558"><ele>46.5</ele><time>2026-04-26T13:59:25.759Z</time></trkpt><trkpt lat="42.3430623" lon="14.115456"><ele>47.0</ele><time>2026-04-26T13:59:26.766Z</time></trkpt><trkpt lat="42.3430935" lon="14.1152702"><ele>47.5</ele><time>2026-04-26T13:59:27.76Z</time></trkpt><trkpt lat="42.3431198" lon="14.115097"><ele>48.0</ele><time>2026-04-26T13:59:28.759Z</time></trkpt><trkpt lat="42.3431427" lon="14.1149262"><ele>48.0</ele><time>2026-04-26T13:59:29.759Z</time></trkpt><trkpt lat="42.343165" lon="14.1147445"><ele>48.0</ele><time>2026-04-26T13:59:30.759Z</time></trkpt><trkpt lat="42.3431868" lon="14.1145385"><ele>48.0</ele><time>2026-04-26T13:59:31.759Z</time></trkpt><trkpt lat="42.3432158" lon="14.1143135"><ele>48.0</ele><time>2026-04-26T13:59:32.757Z</time></trkpt><trkpt lat="42.3432498" lon="14.1140757"><ele>48.0</ele><time>2026-04-26T13:59:33.759Z</time></trkpt><trkpt lat="42.343286" lon="14.113832"><ele>48.0</ele><time>2026-04-26T13:59:34.757Z</time></trkpt><trkpt lat="42.3433213" lon="14.1135852"><ele>47.666666666666664</ele><time>2026-04-26T13:59:35.759Z</time></trkpt><trkpt lat="42.3433542" lon="14.1133378"><ele>47.33333333333333</ele><time>2026-04-26T13:59:36.76Z</time></trkpt><trkpt lat="42.3433863" lon="14.11309"><ele>47.0</ele><time>2026-04-26T13:59:37.757Z</time></trkpt><trkpt lat="42.343419" lon="14.1128442"><ele>47.0</ele><time>2026-04-26T13:59:38.757Z</time></trkpt><trkpt lat="42.3434498" lon="14.1126037"><ele>47.0</ele><time>2026-04-26T13:59:39.759Z</time></trkpt><trkpt lat="42.34348" lon="14.1123783"><ele>47.0</ele><time>2026-04-26T13:59:40.758Z</time></trkpt><trkpt lat="42.3435082" lon="14.1121733"><ele>47.0</ele><time>2026-04-26T13:59:41.759Z</time></trkpt><trkpt lat="42.3435328" lon="14.1119877"><ele>47.0</ele><time>2026-04-26T13:59:42.757Z</time></trkpt><trkpt lat="42.343556" lon="14.111822"><ele>47.0</ele><time>2026-04-26T13:59:43.759Z</time></trkpt><trkpt lat="42.343581" lon="14.1116833"><ele>47.0</ele><time>2026-04-26T13:59:44.759Z</time></trkpt><trkpt lat="42.343609" lon="14.1115795"><ele>47.166666666666664</ele><time>2026-04-26T13:59:45.76Z</time></trkpt><trkpt lat="42.3436508" lon="14.1115087"><ele>47.33333333333333</ele><time>2026-04-26T13:59:46.758Z</time></trkpt><trkpt lat="42.3437543" lon="14.1114727"><ele>47.5</ele><time>2026-04-26T13:59:48.759Z</time></trkpt><trkpt lat="42.3438188" lon="14.1115027"><ele>47.666666666666664</ele><time>2026-04-26T13:59:49.758Z</time></trkpt><trkpt lat="42.3438972" lon="14.1115548"><ele>47.833333333333336</ele><time>2026-04-26T13:59:50.759Z</time></trkpt><trkpt lat="42.3439978" lon="14.1116242"><ele>48.0</ele><time>2026-04-26T13:59:51.761Z</time></trkpt><trkpt lat="42.3441205" lon="14.1117072"><ele>48.0</ele><time>2026-04-26T13:59:52.758Z</time></trkpt><trkpt lat="42.3442595" lon="14.1118018"><ele>48.0</ele><time>2026-04-26T13:59:53.758Z</time></trkpt><trkpt lat="42.344412" lon="14.1119042"><ele>48.0</ele><time>2026-04-26T13:59:54.758Z</time></trkpt><trkpt lat="42.3445697" lon="14.1120087"><ele>47.0</ele><time>2026-04-26T13:59:55.76Z</time></trkpt><trkpt lat="42.3447257" lon="14.1121118"><ele>46.0</ele><time>2026-04-26T13:59:56.757Z</time></trkpt><trkpt lat="42.3448812" lon="14.1122082"><ele>45.0</ele><time>2026-04-26T13:59:57.756Z</time></trkpt><trkpt lat="42.3450403" lon="14.1123027"><ele>45.0</ele><time>2026-04-26T13:59:58.758Z</time></trkpt><trkpt lat="42.345208" lon="14.112385"><ele>45.0</ele><time>2026-04-26T13:59:59.759Z</time></trkpt><trkpt lat="42.345386" lon="14.1124543"><ele>45.0</ele><time>2026-04-26T14:00:00.757Z</time></trkpt><trkpt lat="42.3455742" lon="14.1125118"><ele>45.333333333333336</ele><time>2026-04-26T14:00:01.756Z</time></trkpt><trkpt lat="42.3457632" lon="14.1125655"><ele>45.66666666666667</ele><time>2026-04-26T14:00:02.755Z</time></trkpt><trkpt lat="42.3459475" lon="14.1126197"><ele>46.0</ele><time>2026-04-26T14:00:03.755Z</time></trkpt><trkpt lat="42.3461343" lon="14.1126867"><ele>46.0</ele><time>2026-04-26T14:00:04.755Z</time></trkpt><trkpt lat="42.346324" lon="14.112765"><ele>46.0</ele><time>2026-04-26T14:00:05.757Z</time></trkpt><trkpt lat="42.3465158" lon="14.1128525"><ele>46.0</ele><time>2026-04-26T14:00:06.762Z</time></trkpt><trkpt lat="42.3467105" lon="14.1129442"><ele>46.0</ele><time>2026-04-26T14:00:07.757Z</time></trkpt><trkpt lat="42.3469057" lon="14.1130408"><ele>46.0</ele><time>2026-04-26T14:00:08.757Z</time></trkpt><trkpt lat="42.3471012" lon="14.1131362"><ele>46.0</ele><time>2026-04-26T14:00:09.757Z</time></trkpt><trkpt lat="42.347294" lon="14.1132302"><ele>45.66666666666667</ele><time>2026-04-26T14:00:10.759Z</time></trkpt><trkpt lat="42.3474828" lon="14.1133215"><ele>45.333333333333336</ele><time>2026-04-26T14:00:11.758Z</time></trkpt><trkpt lat="42.3476597" lon="14.113409"><ele>45.0</ele><time>2026-04-26T14:00:12.76Z</time></trkpt><trkpt lat="42.3478248" lon="14.113491"><ele>45.0</ele><time>2026-04-26T14:00:13.758Z</time></trkpt><trkpt lat="42.3479792" lon="14.1135652"><ele>45.0</ele><time>2026-04-26T14:00:14.759Z</time></trkpt><trkpt lat="42.3481243" lon="14.1136263"><ele>45.0</ele><time>2026-04-26T14:00:15.759Z</time></trkpt><trkpt lat="42.3482642" lon="14.113657"><ele>45.0</ele><time>2026-04-26T14:00:16.761Z</time></trkpt><trkpt lat="42.3484082" lon="14.113651"><ele>45.0</ele><time>2026-04-26T14:00:17.76Z</time></trkpt><trkpt lat="42.3485573" lon="14.1136053"><ele>45.0</ele><time>2026-04-26T14:00:18.76Z</time></trkpt><trkpt lat="42.3487118" lon="14.1135258"><ele>45.0</ele><time>2026-04-26T14:00:19.759Z</time></trkpt><trkpt lat="42.3488737" lon="14.1134292"><ele>45.0</ele><time>2026-04-26T14:00:20.761Z</time></trkpt><trkpt lat="42.3490408" lon="14.1133235"><ele>45.0</ele><time>2026-04-26T14:00:21.759Z</time></trkpt><trkpt lat="42.3492127" lon="14.113209"><ele>43.666666666666664</ele><time>2026-04-26T14:00:22.76Z</time></trkpt><trkpt lat="42.349377" lon="14.1130967"><ele>42.33333333333333</ele><time>2026-04-26T14:00:23.76Z</time></trkpt><trkpt lat="42.3495307" lon="14.1129912"><ele>41.0</ele><time>2026-04-26T14:00:24.762Z</time></trkpt><trkpt lat="42.349677" lon="14.1128903"><ele>42.0</ele><time>2026-04-26T14:00:25.757Z</time></trkpt><trkpt lat="42.3498278" lon="14.1127912"><ele>43.0</ele><time>2026-04-26T14:00:26.758Z</time></trkpt><trkpt lat="42.3499843" lon="14.1126968"><ele>44.0</ele><time>2026-04-26T14:00:27.757Z</time></trkpt><trkpt lat="42.350141" lon="14.1126197"><ele>44.0</ele><time>2026-04-26T14:00:28.756Z</time></trkpt><trkpt lat="42.3503047" lon="14.112566"><ele>44.0</ele><time>2026-04-26T14:00:29.758Z</time></trkpt><trkpt lat="42.3504783" lon="14.1125378"><ele>44.0</ele><time>2026-04-26T14:00:30.76Z</time></trkpt><trkpt lat="42.3506592" lon="14.1125312"><ele>44.0</ele><time>2026-04-26T14:00:31.758Z</time></trkpt><trkpt lat="42.3508448" lon="14.11255"><ele>44.0</ele><time>2026-04-26T14:00:32.758Z</time></trkpt><trkpt lat="42.351033" lon="14.1125968"><ele>44.0</ele><time>2026-04-26T14:00:33.76Z</time></trkpt><trkpt lat="42.3512223" lon="14.1126623"><ele>42.666666666666664</ele><time>2026-04-26T14:00:34.758Z</time></trkpt><trkpt lat="42.351414" lon="14.1127343"><ele>41.333333333333336</ele><time>2026-04-26T14:00:35.759Z</time></trkpt><trkpt lat="42.3516057" lon="14.1128093"><ele>40.0</ele><time>2026-04-26T14:00:36.765Z</time></trkpt><trkpt lat="42.3517985" lon="14.1128862"><ele>40.0</ele><time>2026-04-26T14:00:37.761Z</time></trkpt><trkpt lat="42.3519917" lon="14.1129688"><ele>40.0</ele><time>2026-04-26T14:00:38.76Z</time></trkpt><trkpt lat="42.3521865" lon="14.1130535"><ele>40.0</ele><time>2026-04-26T14:00:39.759Z</time></trkpt><trkpt lat="42.3523823" lon="14.1131378"><ele>38.66666666666667</ele><time>2026-04-26T14:00:40.761Z</time></trkpt><trkpt lat="42.3525795" lon="14.1132173"><ele>37.333333333333336</ele><time>2026-04-26T14:00:41.76Z</time></trkpt><trkpt lat="42.3527773" lon="14.1132955"><ele>36.0</ele><time>2026-04-26T14:00:42.76Z</time></trkpt><trkpt lat="42.3529762" lon="14.1133742"><ele>35.666666666666664</ele><time>2026-04-26T14:00:43.76Z</time></trkpt><trkpt lat="42.3531758" lon="14.1134533"><ele>35.33333333333333</ele><time>2026-04-26T14:00:44.759Z</time></trkpt><trkpt lat="42.353374" lon="14.1135353"><ele>35.0</ele><time>2026-04-26T14:00:45.759Z</time></trkpt><trkpt lat="42.3535718" lon="14.1136168"><ele>35.0</ele><time>2026-04-26T14:00:46.759Z</time></trkpt><trkpt lat="42.35377" lon="14.1136967"><ele>35.0</ele><time>2026-04-26T14:00:47.759Z</time></trkpt><trkpt lat="42.3539687" lon="14.1137758"><ele>35.0</ele><time>2026-04-26T14:00:48.761Z</time></trkpt><trkpt lat="42.3541692" lon="14.1138532"><ele>35.33333333333333</ele><time>2026-04-26T14:00:49.758Z</time></trkpt><trkpt lat="42.3543708" lon="14.1139315"><ele>35.666666666666664</ele><time>2026-04-26T14:00:50.758Z</time></trkpt><trkpt lat="42.354572" lon="14.1140107"><ele>36.0</ele><time>2026-04-26T14:00:51.754Z</time></trkpt><trkpt lat="42.354774" lon="14.1140907"><ele>36.333333333333336</ele><time>2026-04-26T14:00:52.759Z</time></trkpt><trkpt lat="42.3549775" lon="14.1141697"><ele>36.66666666666667</ele><time>2026-04-26T14:00:53.755Z</time></trkpt><trkpt lat="42.3551795" lon="14.1142515"><ele>37.0</ele><time>2026-04-26T14:00:54.759Z</time></trkpt><trkpt lat="42.3553775" lon="14.1143312"><ele>40.333333333333336</ele><time>2026-04-26T14:00:55.757Z</time></trkpt><trkpt lat="42.3555732" lon="14.1144093"><ele>43.666666666666664</ele><time>2026-04-26T14:00:56.758Z</time></trkpt><trkpt lat="42.355768" lon="14.1144887"><ele>47.0</ele><time>2026-04-26T14:00:57.757Z</time></trkpt><trkpt lat="42.3559637" lon="14.114569"><ele>47.0</ele><time>2026-04-26T14:00:58.759Z</time></trkpt><trkpt lat="42.3561598" lon="14.1146475"><ele>47.0</ele><time>2026-04-26T14:00:59.758Z</time></trkpt><trkpt lat="42.3563565" lon="14.1147272"><ele>47.0</ele><time>2026-04-26T14:01:00.759Z</time></trkpt><trkpt lat="42.3565505" lon="14.1148058"><ele>47.666666666666664</ele><time>2026-04-26T14:01:01.758Z</time></trkpt><trkpt lat="42.356743" lon="14.1148838"><ele>48.33333333333333</ele><time>2026-04-26T14:01:02.757Z</time></trkpt><trkpt lat="42.3569343" lon="14.1149618"><ele>49.0</ele><time>2026-04-26T14:01:03.758Z</time></trkpt><trkpt lat="42.357126" lon="14.1150403"><ele>46.33333333333333</ele><time>2026-04-26T14:01:04.758Z</time></trkpt><trkpt lat="42.3573185" lon="14.1151175"><ele>43.666666666666664</ele><time>2026-04-26T14:01:05.758Z</time></trkpt><trkpt lat="42.3575105" lon="14.1151918"><ele>41.0</ele><time>2026-04-26T14:01:06.759Z</time></trkpt><trkpt lat="42.3577028" lon="14.1152653"><ele>41.0</ele><time>2026-04-26T14:01:07.757Z</time></trkpt><trkpt lat="42.3578953" lon="14.1153418"><ele>41.0</ele><time>2026-04-26T14:01:08.759Z</time></trkpt><trkpt lat="42.3580895" lon="14.1154205"><ele>41.0</ele><time>2026-04-26T14:01:09.757Z</time></trkpt><trkpt lat="42.3582843" lon="14.1154983"><ele>41.0</ele><time>2026-04-26T14:01:10.759Z</time></trkpt><trkpt lat="42.3584813" lon="14.1155778"><ele>41.0</ele><time>2026-04-26T14:01:11.759Z</time></trkpt><trkpt lat="42.3586792" lon="14.115656"><ele>41.0</ele><time>2026-04-26T14:01:12.758Z</time></trkpt><trkpt lat="42.3588788" lon="14.115734"><ele>39.33333333333333</ele><time>2026-04-26T14:01:13.756Z</time></trkpt><trkpt lat="42.3590783" lon="14.1158133"><ele>37.666666666666664</ele><time>2026-04-26T14:01:14.756Z</time></trkpt><trkpt lat="42.3592788" lon="14.1158962"><ele>36.0</ele><time>2026-04-26T14:01:15.754Z</time></trkpt><trkpt lat="42.3594793" lon="14.1159835"><ele>36.0</ele><time>2026-04-26T14:01:16.753Z</time></trkpt><trkpt lat="42.3596802" lon="14.1160725"><ele>36.0</ele><time>2026-04-26T14:01:17.757Z</time></trkpt><trkpt lat="42.3598822" lon="14.1161627"><ele>36.0</ele><time>2026-04-26T14:01:18.759Z</time></trkpt><trkpt lat="42.3600855" lon="14.1162523"><ele>36.333333333333336</ele><time>2026-04-26T14:01:19.758Z</time></trkpt><trkpt lat="42.3602898" lon="14.1163425"><ele>36.66666666666667</ele><time>2026-04-26T14:01:20.757Z</time></trkpt><trkpt lat="42.3604947" lon="14.1164362"><ele>37.0</ele><time>2026-04-26T14:01:21.758Z</time></trkpt><trkpt lat="42.3606998" lon="14.1165297"><ele>34.66666666666667</ele><time>2026-04-26T14:01:22.759Z</time></trkpt><trkpt lat="42.3609052" lon="14.116621"><ele>32.333333333333336</ele><time>2026-04-26T14:01:23.758Z</time></trkpt><trkpt lat="42.3611102" lon="14.1167115"><ele>30.0</ele><time>2026-04-26T14:01:24.757Z</time></trkpt><trkpt lat="42.3613148" lon="14.1168045"><ele>32.0</ele><time>2026-04-26T14:01:25.756Z</time></trkpt><trkpt lat="42.36152" lon="14.116898"><ele>34.0</ele><time>2026-04-26T14:01:26.758Z</time></trkpt><trkpt lat="42.3617258" lon="14.1169908"><ele>36.0</ele><time>2026-04-26T14:01:27.755Z</time></trkpt><trkpt lat="42.3619332" lon="14.1170858"><ele>36.0</ele><time>2026-04-26T14:01:28.759Z</time></trkpt><trkpt lat="42.3621393" lon="14.1171797"><ele>36.0</ele><time>2026-04-26T14:01:29.756Z</time></trkpt><trkpt lat="42.362342" lon="14.1172682"><ele>36.0</ele><time>2026-04-26T14:01:30.756Z</time></trkpt><trkpt lat="42.3625415" lon="14.1173468"><ele>34.333333333333336</ele><time>2026-04-26T14:01:31.758Z</time></trkpt><trkpt lat="42.3627432" lon="14.1174067"><ele>32.66666666666667</ele><time>2026-04-26T14:01:32.757Z</time></trkpt><trkpt lat="42.362947" lon="14.1174418"><ele>31.0</ele><time>2026-04-26T14:01:33.756Z</time></trkpt><trkpt lat="42.3631552" lon="14.1174558"><ele>31.0</ele><time>2026-04-26T14:01:34.755Z</time></trkpt><trkpt lat="42.3633653" lon="14.1174583"><ele>31.0</ele><time>2026-04-26T14:01:35.759Z</time></trkpt><trkpt lat="42.363576" lon="14.1174602"><ele>31.0</ele><time>2026-04-26T14:01:36.757Z</time></trkpt><trkpt lat="42.3637882" lon="14.1174635"><ele>31.666666666666668</ele><time>2026-04-26T14:01:37.755Z</time></trkpt><trkpt lat="42.3639943" lon="14.1174767"><ele>32.333333333333336</ele><time>2026-04-26T14:01:38.757Z</time></trkpt><trkpt lat="42.3641928" lon="14.117509"><ele>33.0</ele><time>2026-04-26T14:01:39.754Z</time></trkpt><trkpt lat="42.3643838" lon="14.1175647"><ele>33.0</ele><time>2026-04-26T14:01:40.754Z</time></trkpt><trkpt lat="42.364571" lon="14.1176543"><ele>33.0</ele><time>2026-04-26T14:01:41.754Z</time></trkpt><trkpt lat="42.3647548" lon="14.1177652"><ele>33.0</ele><time>2026-04-26T14:01:42.755Z</time></trkpt><trkpt lat="42.3649382" lon="14.1178843"><ele>32.666666666666664</ele><time>2026-04-26T14:01:43.758Z</time></trkpt><trkpt lat="42.3651218" lon="14.1180075"><ele>32.33333333333333</ele><time>2026-04-26T14:01:44.758Z</time></trkpt><trkpt lat="42.3653055" lon="14.1181322"><ele>32.0</ele><time>2026-04-26T14:01:45.759Z</time></trkpt><trkpt lat="42.3654902" lon="14.1182588"><ele>30.666666666666664</ele><time>2026-04-26T14:01:46.76Z</time></trkpt><trkpt lat="42.3656768" lon="14.1183857"><ele>29.333333333333336</ele><time>2026-04-26T14:01:47.759Z</time></trkpt><trkpt lat="42.3658653" lon="14.1185125"><ele>28.0</ele><time>2026-04-26T14:01:48.762Z</time></trkpt><trkpt lat="42.3660552" lon="14.118641"><ele>28.0</ele><time>2026-04-26T14:01:49.76Z</time></trkpt><trkpt lat="42.3662453" lon="14.11877"><ele>28.0</ele><time>2026-04-26T14:01:50.76Z</time></trkpt><trkpt lat="42.3664363" lon="14.1189012"><ele>28.0</ele><time>2026-04-26T14:01:51.759Z</time></trkpt><trkpt lat="42.3666278" lon="14.1190373"><ele>28.0</ele><time>2026-04-26T14:01:52.76Z</time></trkpt><trkpt lat="42.366821" lon="14.1191735"><ele>28.0</ele><time>2026-04-26T14:01:53.758Z</time></trkpt><trkpt lat="42.3670157" lon="14.1193087"><ele>28.0</ele><time>2026-04-26T14:01:54.759Z</time></trkpt><trkpt lat="42.36721" lon="14.1194445"><ele>28.0</ele><time>2026-04-26T14:01:55.759Z</time></trkpt><trkpt lat="42.3674043" lon="14.1195825"><ele>28.0</ele><time>2026-04-26T14:01:56.759Z</time></trkpt><trkpt lat="42.3675978" lon="14.1197213"><ele>28.0</ele><time>2026-04-26T14:01:57.759Z</time></trkpt><trkpt lat="42.3677888" lon="14.1198565"><ele>28.0</ele><time>2026-04-26T14:01:58.759Z</time></trkpt><trkpt lat="42.3679702" lon="14.1199807"><ele>28.0</ele><time>2026-04-26T14:01:59.759Z</time></trkpt><trkpt lat="42.3681485" lon="14.1200912"><ele>28.0</ele><time>2026-04-26T14:02:00.761Z</time></trkpt><trkpt lat="42.3683307" lon="14.1201807"><ele>28.333333333333336</ele><time>2026-04-26T14:02:01.759Z</time></trkpt><trkpt lat="42.368519" lon="14.120246"><ele>28.666666666666664</ele><time>2026-04-26T14:02:02.76Z</time></trkpt><trkpt lat="42.3687113" lon="14.120287"><ele>29.0</ele><time>2026-04-26T14:02:03.757Z</time></trkpt><trkpt lat="42.3689093" lon="14.1203143"><ele>31.666666666666664</ele><time>2026-04-26T14:02:04.755Z</time></trkpt><trkpt lat="42.3691082" lon="14.120336"><ele>34.333333333333336</ele><time>2026-04-26T14:02:05.755Z</time></trkpt><trkpt lat="42.3693067" lon="14.1203572"><ele>37.0</ele><time>2026-04-26T14:02:06.757Z</time></trkpt><trkpt lat="42.3695063" lon="14.120379"><ele>37.0</ele><time>2026-04-26T14:02:07.757Z</time></trkpt><trkpt lat="42.369707" lon="14.1204018"><ele>37.0</ele><time>2026-04-26T14:02:08.758Z</time></trkpt><trkpt lat="42.3699085" lon="14.1204267"><ele>37.0</ele><time>2026-04-26T14:02:09.76Z</time></trkpt><trkpt lat="42.3701088" lon="14.1204493"><ele>37.0</ele><time>2026-04-26T14:02:10.757Z</time></trkpt><trkpt lat="42.3703117" lon="14.1204735"><ele>37.0</ele><time>2026-04-26T14:02:11.759Z</time></trkpt><trkpt lat="42.3705128" lon="14.1205022"><ele>37.0</ele><time>2026-04-26T14:02:12.758Z</time></trkpt><trkpt lat="42.370711" lon="14.1205427"><ele>37.333333333333336</ele><time>2026-04-26T14:02:13.758Z</time></trkpt><trkpt lat="42.3709057" lon="14.120599"><ele>37.666666666666664</ele><time>2026-04-26T14:02:14.758Z</time></trkpt><trkpt lat="42.3710955" lon="14.1206692"><ele>38.0</ele><time>2026-04-26T14:02:15.758Z</time></trkpt><trkpt lat="42.3712832" lon="14.120747"><ele>36.33333333333333</ele><time>2026-04-26T14:02:16.758Z</time></trkpt><trkpt lat="42.3714683" lon="14.1208277"><ele>34.666666666666664</ele><time>2026-04-26T14:02:17.757Z</time></trkpt><trkpt lat="42.3716515" lon="14.1209098"><ele>33.0</ele><time>2026-04-26T14:02:18.758Z</time></trkpt><trkpt lat="42.3718333" lon="14.1209948"><ele>33.0</ele><time>2026-04-26T14:02:19.758Z</time></trkpt><trkpt lat="42.3720098" lon="14.1210897"><ele>33.0</ele><time>2026-04-26T14:02:20.757Z</time></trkpt><trkpt lat="42.3721797" lon="14.1211983"><ele>33.0</ele><time>2026-04-26T14:02:21.756Z</time></trkpt><trkpt lat="42.3723473" lon="14.1213225"><ele>33.333333333333336</ele><time>2026-04-26T14:02:22.757Z</time></trkpt><trkpt lat="42.3725143" lon="14.1214578"><ele>33.66666666666667</ele><time>2026-04-26T14:02:23.761Z</time></trkpt><trkpt lat="42.3726823" lon="14.1215962"><ele>34.0</ele><time>2026-04-26T14:02:24.758Z</time></trkpt><trkpt lat="42.3728515" lon="14.1217335"><ele>34.0</ele><time>2026-04-26T14:02:25.758Z</time></trkpt><trkpt lat="42.3730137" lon="14.1218632"><ele>34.0</ele><time>2026-04-26T14:02:26.759Z</time></trkpt><trkpt lat="42.3731655" lon="14.1219832"><ele>34.0</ele><time>2026-04-26T14:02:27.759Z</time></trkpt><trkpt lat="42.3733067" lon="14.1220935"><ele>34.75</ele><time>2026-04-26T14:02:28.758Z</time></trkpt><trkpt lat="42.3734335" lon="14.1221918"><ele>35.5</ele><time>2026-04-26T14:02:29.757Z</time></trkpt><trkpt lat="42.3735477" lon="14.1222797"><ele>36.25</ele><time>2026-04-26T14:02:30.758Z</time></trkpt><trkpt lat="42.373648" lon="14.1223575"><ele>37.0</ele><time>2026-04-26T14:02:31.755Z</time></trkpt><trkpt lat="42.3737323" lon="14.1224252"><ele>37.0</ele><time>2026-04-26T14:02:32.758Z</time></trkpt><trkpt lat="42.3738032" lon="14.1224832"><ele>37.0</ele><time>2026-04-26T14:02:33.758Z</time></trkpt><trkpt lat="42.3738657" lon="14.122532"><ele>37.0</ele><time>2026-04-26T14:02:34.758Z</time></trkpt><trkpt lat="42.3739235" lon="14.12257"><ele>37.0</ele><time>2026-04-26T14:02:35.759Z</time></trkpt><trkpt lat="42.3740067" lon="14.1226158"><ele>37.0</ele><time>2026-04-26T14:02:37.759Z</time></trkpt><trkpt lat="42.3740962" lon="14.122665"><ele>37.0</ele><time>2026-04-26T14:02:48.759Z</time></trkpt><trkpt lat="42.3741585" lon="14.12271"><ele>38.0</ele><time>2026-04-26T14:02:49.759Z</time></trkpt><trkpt lat="42.3742377" lon="14.1227788"><ele>39.0</ele><time>2026-04-26T14:02:50.76Z</time></trkpt><trkpt lat="42.374333" lon="14.122869"><ele>40.0</ele><time>2026-04-26T14:02:51.76Z</time></trkpt><trkpt lat="42.3744447" lon="14.1229712"><ele>41.0</ele><time>2026-04-26T14:02:52.757Z</time></trkpt><trkpt lat="42.3745732" lon="14.1230785"><ele>40.33333333333333</ele><time>2026-04-26T14:02:53.756Z</time></trkpt><trkpt lat="42.3747135" lon="14.1231932"><ele>39.666666666666664</ele><time>2026-04-26T14:02:54.757Z</time></trkpt><trkpt lat="42.3748588" lon="14.123313"><ele>39.0</ele><time>2026-04-26T14:02:55.755Z</time></trkpt><trkpt lat="42.3750107" lon="14.1234337"><ele>39.0</ele><time>2026-04-26T14:02:56.757Z</time></trkpt><trkpt lat="42.3751662" lon="14.1235557"><ele>39.0</ele><time>2026-04-26T14:02:57.76Z</time></trkpt><trkpt lat="42.3753227" lon="14.1236768"><ele>39.0</ele><time>2026-04-26T14:02:58.76Z</time></trkpt><trkpt lat="42.3754758" lon="14.1237878"><ele>40.333333333333336</ele><time>2026-04-26T14:02:59.76Z</time></trkpt><trkpt lat="42.3756212" lon="14.1238817"><ele>41.66666666666667</ele><time>2026-04-26T14:03:00.76Z</time></trkpt><trkpt lat="42.375761" lon="14.123952"><ele>43.0</ele><time>2026-04-26T14:03:01.759Z</time></trkpt><trkpt lat="42.375901" lon="14.124004"><ele>43.0</ele><time>2026-04-26T14:03:02.76Z</time></trkpt><trkpt lat="42.3760335" lon="14.124045"><ele>43.0</ele><time>2026-04-26T14:03:03.761Z</time></trkpt><trkpt lat="42.3761475" lon="14.1240883"><ele>43.0</ele><time>2026-04-26T14:03:04.759Z</time></trkpt><trkpt lat="42.3762393" lon="14.1241528"><ele>43.0</ele><time>2026-04-26T14:03:05.758Z</time></trkpt><trkpt lat="42.3763128" lon="14.1242442"><ele>42.0</ele><time>2026-04-26T14:03:06.758Z</time></trkpt><trkpt lat="42.3763742" lon="14.1243482"><ele>41.0</ele><time>2026-04-26T14:03:07.76Z</time></trkpt><trkpt lat="42.376427" lon="14.1244372"><ele>40.0</ele><time>2026-04-26T14:03:08.761Z</time></trkpt><trkpt lat="42.3764772" lon="14.1244948"><ele>39.0</ele><time>2026-04-26T14:03:09.762Z</time></trkpt><trkpt lat="42.3765842" lon="14.1244807"><ele>38.0</ele><time>2026-04-26T14:03:11.761Z</time></trkpt><trkpt lat="42.3766358" lon="14.1244127"><ele>37.0</ele><time>2026-04-26T14:03:12.76Z</time></trkpt><trkpt lat="42.3766925" lon="14.1243123"><ele>37.0</ele><time>2026-04-26T14:03:13.759Z</time></trkpt><trkpt lat="42.3767598" lon="14.1241952"><ele>37.0</ele><time>2026-04-26T14:03:14.761Z</time></trkpt><trkpt lat="42.3768403" lon="14.124072"><ele>37.0</ele><time>2026-04-26T14:03:15.758Z</time></trkpt><trkpt lat="42.3769267" lon="14.1239402"><ele>37.0</ele><time>2026-04-26T14:03:16.759Z</time></trkpt><trkpt lat="42.3770153" lon="14.1237995"><ele>38.75</ele><time>2026-04-26T14:03:17.757Z</time></trkpt><trkpt lat="42.377106" lon="14.1236563"><ele>40.5</ele><time>2026-04-26T14:03:18.759Z</time></trkpt><trkpt lat="42.3771993" lon="14.1235417"><ele>42.25</ele><time>2026-04-26T14:03:19.759Z</time></trkpt><trkpt lat="42.3773017" lon="14.1234593"><ele>44.0</ele><time>2026-04-26T14:03:20.76Z</time></trkpt><trkpt lat="42.3774105" lon="14.123416"><ele>44.5</ele><time>2026-04-26T14:03:21.761Z</time></trkpt><trkpt lat="42.3775217" lon="14.1234103"><ele>45.0</ele><time>2026-04-26T14:03:22.761Z</time></trkpt><trkpt lat="42.3776338" lon="14.1234232"><ele>45.5</ele><time>2026-04-26T14:03:23.76Z</time></trkpt><trkpt lat="42.3777508" lon="14.1234427"><ele>46.0</ele><time>2026-04-26T14:03:24.759Z</time></trkpt><trkpt lat="42.3778768" lon="14.1234653"><ele>46.0</ele><time>2026-04-26T14:03:25.758Z</time></trkpt><trkpt lat="42.37801" lon="14.123488"><ele>46.0</ele><time>2026-04-26T14:03:26.758Z</time></trkpt><trkpt lat="42.37815" lon="14.1235117"><ele>46.0</ele><time>2026-04-26T14:03:27.759Z</time></trkpt><trkpt lat="42.3782938" lon="14.1235363"><ele>46.0</ele><time>2026-04-26T14:03:28.76Z</time></trkpt><trkpt lat="42.3784412" lon="14.1235617"><ele>49.0</ele><time>2026-04-26T14:03:29.758Z</time></trkpt><trkpt lat="42.3785903" lon="14.123587"><ele>52.0</ele><time>2026-04-26T14:03:30.759Z</time></trkpt><trkpt lat="42.3787427" lon="14.1236125"><ele>55.0</ele><time>2026-04-26T14:03:31.758Z</time></trkpt><trkpt lat="42.3788977" lon="14.1236405"><ele>56.0</ele><time>2026-04-26T14:03:32.76Z</time></trkpt><trkpt lat="42.3790507" lon="14.1236697"><ele>57.0</ele><time>2026-04-26T14:03:33.76Z</time></trkpt><trkpt lat="42.3791918" lon="14.1237033"><ele>58.0</ele><time>2026-04-26T14:03:34.757Z</time></trkpt><trkpt lat="42.3793185" lon="14.123753"><ele>59.0</ele><time>2026-04-26T14:03:35.76Z</time></trkpt><trkpt lat="42.379429" lon="14.123819"><ele>59.0</ele><time>2026-04-26T14:03:36.758Z</time></trkpt><trkpt lat="42.3795303" lon="14.123906"><ele>59.0</ele><time>2026-04-26T14:03:37.758Z</time></trkpt><trkpt lat="42.3796312" lon="14.1240027"><ele>59.0</ele><time>2026-04-26T14:03:38.759Z</time></trkpt><trkpt lat="42.37974" lon="14.1241073"><ele>59.0</ele><time>2026-04-26T14:03:39.761Z</time></trkpt><trkpt lat="42.3798585" lon="14.1242212"><ele>56.66666666666667</ele><time>2026-04-26T14:03:40.759Z</time></trkpt><trkpt lat="42.3799892" lon="14.1243377"><ele>54.33333333333333</ele><time>2026-04-26T14:03:41.759Z</time></trkpt><trkpt lat="42.3801317" lon="14.1244498"><ele>52.0</ele><time>2026-04-26T14:03:42.757Z</time></trkpt><trkpt lat="42.3802812" lon="14.1245602"><ele>52.0</ele><time>2026-04-26T14:03:43.755Z</time></trkpt><trkpt lat="42.3804323" lon="14.1246707"><ele>52.0</ele><time>2026-04-26T14:03:44.756Z</time></trkpt><trkpt lat="42.3805827" lon="14.1247815"><ele>52.0</ele><time>2026-04-26T14:03:45.76Z</time></trkpt><trkpt lat="42.3807315" lon="14.1248927"><ele>50.666666666666664</ele><time>2026-04-26T14:03:46.759Z</time></trkpt><trkpt lat="42.3808803" lon="14.1250037"><ele>49.33333333333333</ele><time>2026-04-26T14:03:47.761Z</time></trkpt><trkpt lat="42.3810298" lon="14.1251138"><ele>48.0</ele><time>2026-04-26T14:03:48.746Z</time></trkpt><trkpt lat="42.3811812" lon="14.1252202"><ele>48.0</ele><time>2026-04-26T14:03:49.759Z</time></trkpt><trkpt lat="42.381334" lon="14.125325"><ele>48.0</ele><time>2026-04-26T14:03:50.759Z</time></trkpt><trkpt lat="42.3814858" lon="14.1254305"><ele>48.0</ele><time>2026-04-26T14:03:51.759Z</time></trkpt><trkpt lat="42.3816342" lon="14.1255392"><ele>46.666666666666664</ele><time>2026-04-26T14:03:52.759Z</time></trkpt><trkpt lat="42.3817812" lon="14.1256525"><ele>45.33333333333333</ele><time>2026-04-26T14:03:53.759Z</time></trkpt><trkpt lat="42.3819263" lon="14.1257722"><ele>44.0</ele><time>2026-04-26T14:03:54.758Z</time></trkpt><trkpt lat="42.3820677" lon="14.1258992"><ele>47.0</ele><time>2026-04-26T14:03:55.759Z</time></trkpt><trkpt lat="42.3822068" lon="14.1260268"><ele>50.0</ele><time>2026-04-26T14:03:56.759Z</time></trkpt><trkpt lat="42.3823463" lon="14.1261475"><ele>53.0</ele><time>2026-04-26T14:03:57.758Z</time></trkpt><trkpt lat="42.382491" lon="14.1262515"><ele>53.0</ele><time>2026-04-26T14:03:58.758Z</time></trkpt><trkpt lat="42.3826435" lon="14.1263292"><ele>53.0</ele><time>2026-04-26T14:03:59.759Z</time></trkpt><trkpt lat="42.382803" lon="14.1263778"><ele>53.0</ele><time>2026-04-26T14:04:00.76Z</time></trkpt><trkpt lat="42.3829605" lon="14.1263968"><ele>53.0</ele><time>2026-04-26T14:04:01.759Z</time></trkpt><trkpt lat="42.383112" lon="14.1264018"><ele>53.0</ele><time>2026-04-26T14:04:02.76Z</time></trkpt><trkpt lat="42.3832512" lon="14.1264068"><ele>53.0</ele><time>2026-04-26T14:04:03.76Z</time></trkpt><trkpt lat="42.3833793" lon="14.1264245"><ele>53.0</ele><time>2026-04-26T14:04:04.759Z</time></trkpt><trkpt lat="42.3835083" lon="14.1264663"><ele>53.0</ele><time>2026-04-26T14:04:05.761Z</time></trkpt><trkpt lat="42.3836395" lon="14.1265368"><ele>53.0</ele><time>2026-04-26T14:04:06.758Z</time></trkpt><trkpt lat="42.3837745" lon="14.1266183"><ele>53.0</ele><time>2026-04-26T14:04:07.756Z</time></trkpt><trkpt lat="42.3839167" lon="14.1267003"><ele>53.0</ele><time>2026-04-26T14:04:08.758Z</time></trkpt><trkpt lat="42.3840585" lon="14.1267742"><ele>50.25</ele><time>2026-04-26T14:04:09.761Z</time></trkpt><trkpt lat="42.3842008" lon="14.1268405"><ele>47.5</ele><time>2026-04-26T14:04:10.758Z</time></trkpt><trkpt lat="42.3843398" lon="14.126902"><ele>44.75</ele><time>2026-04-26T14:04:11.761Z</time></trkpt><trkpt lat="42.3844775" lon="14.1269587"><ele>42.0</ele><time>2026-04-26T14:04:12.76Z</time></trkpt><trkpt lat="42.3846097" lon="14.1270065"><ele>42.75</ele><time>2026-04-26T14:04:13.76Z</time></trkpt><trkpt lat="42.3847387" lon="14.1270535"><ele>43.5</ele><time>2026-04-26T14:04:14.76Z</time></trkpt><trkpt lat="42.3848623" lon="14.1271048"><ele>44.25</ele><time>2026-04-26T14:04:15.759Z</time></trkpt><trkpt lat="42.3849852" lon="14.1271713"><ele>45.0</ele><time>2026-04-26T14:04:16.758Z</time></trkpt><trkpt lat="42.3851093" lon="14.1272572"><ele>45.0</ele><time>2026-04-26T14:04:17.756Z</time></trkpt><trkpt lat="42.3852427" lon="14.1273698"><ele>45.0</ele><time>2026-04-26T14:04:18.758Z</time></trkpt><trkpt lat="42.3853832" lon="14.127507"><ele>45.0</ele><time>2026-04-26T14:04:19.759Z</time></trkpt><trkpt lat="42.3855277" lon="14.1276605"><ele>42.0</ele><time>2026-04-26T14:04:20.779Z</time></trkpt><trkpt lat="42.385669" lon="14.1278182"><ele>39.0</ele><time>2026-04-26T14:04:21.759Z</time></trkpt><trkpt lat="42.3858142" lon="14.1279697"><ele>36.0</ele><time>2026-04-26T14:04:22.76Z</time></trkpt><trkpt lat="42.3859603" lon="14.1281138"><ele>35.666666666666664</ele><time>2026-04-26T14:04:23.759Z</time></trkpt><trkpt lat="42.386102" lon="14.1282582"><ele>35.33333333333333</ele><time>2026-04-26T14:04:24.76Z</time></trkpt><trkpt lat="42.3862368" lon="14.1284108"><ele>35.0</ele><time>2026-04-26T14:04:25.757Z</time></trkpt><trkpt lat="42.3863565" lon="14.1285773"><ele>35.666666666666664</ele><time>2026-04-26T14:04:26.759Z</time></trkpt><trkpt lat="42.386467" lon="14.1287517"><ele>36.333333333333336</ele><time>2026-04-26T14:04:27.759Z</time></trkpt><trkpt lat="42.3865747" lon="14.1289275"><ele>37.0</ele><time>2026-04-26T14:04:28.758Z</time></trkpt><trkpt lat="42.3866805" lon="14.1291015"><ele>35.66666666666667</ele><time>2026-04-26T14:04:29.76Z</time></trkpt><trkpt lat="42.3867892" lon="14.1292693"><ele>34.333333333333336</ele><time>2026-04-26T14:04:30.759Z</time></trkpt><trkpt lat="42.3869018" lon="14.1294227"><ele>33.0</ele><time>2026-04-26T14:04:31.756Z</time></trkpt><trkpt lat="42.387024" lon="14.1295622"><ele>33.0</ele><time>2026-04-26T14:04:32.757Z</time></trkpt><trkpt lat="42.3871535" lon="14.1296962"><ele>33.0</ele><time>2026-04-26T14:04:33.758Z</time></trkpt><trkpt lat="42.3872852" lon="14.1298252"><ele>33.0</ele><time>2026-04-26T14:04:34.757Z</time></trkpt><trkpt lat="42.3874103" lon="14.1299457"><ele>32.75</ele><time>2026-04-26T14:04:35.758Z</time></trkpt><trkpt lat="42.3875285" lon="14.1300602"><ele>32.5</ele><time>2026-04-26T14:04:36.757Z</time></trkpt><trkpt lat="42.3876452" lon="14.1301717"><ele>32.25</ele><time>2026-04-26T14:04:37.758Z</time></trkpt><trkpt lat="42.3877557" lon="14.1302758"><ele>32.0</ele><time>2026-04-26T14:04:38.758Z</time></trkpt><trkpt lat="42.3878565" lon="14.130365"><ele>32.0</ele><time>2026-04-26T14:04:39.76Z</time></trkpt><trkpt lat="42.3879472" lon="14.130434"><ele>32.0</ele><time>2026-04-26T14:04:40.76Z</time></trkpt><trkpt lat="42.3880288" lon="14.1304893"><ele>32.0</ele><time>2026-04-26T14:04:41.76Z</time></trkpt><trkpt lat="42.388112" lon="14.130537"><ele>32.0</ele><time>2026-04-26T14:04:42.764Z</time></trkpt><trkpt lat="42.3882095" lon="14.1305825"><ele>32.0</ele><time>2026-04-26T14:04:43.763Z</time></trkpt><trkpt lat="42.3883185" lon="14.1306347"><ele>32.0</ele><time>2026-04-26T14:04:44.76Z</time></trkpt><trkpt lat="42.3884347" lon="14.1306977"><ele>32.0</ele><time>2026-04-26T14:04:45.76Z</time></trkpt><trkpt lat="42.3885558" lon="14.1307743"><ele>32.0</ele><time>2026-04-26T14:04:46.76Z</time></trkpt><trkpt lat="42.3886802" lon="14.130861"><ele>32.0</ele><time>2026-04-26T14:04:47.761Z</time></trkpt><trkpt lat="42.3888112" lon="14.1309475"><ele>32.33333333333333</ele><time>2026-04-26T14:04:48.758Z</time></trkpt><trkpt lat="42.3889468" lon="14.1310357"><ele>32.666666666666664</ele><time>2026-04-26T14:04:49.759Z</time></trkpt><trkpt lat="42.3890847" lon="14.1311263"><ele>33.0</ele><time>2026-04-26T14:04:50.759Z</time></trkpt><trkpt lat="42.3892223" lon="14.131225"><ele>33.0</ele><time>2026-04-26T14:04:51.76Z</time></trkpt><trkpt lat="42.3893585" lon="14.1313313"><ele>33.0</ele><time>2026-04-26T14:04:52.76Z</time></trkpt><trkpt lat="42.389493" lon="14.1314445"><ele>33.0</ele><time>2026-04-26T14:04:53.758Z</time></trkpt><trkpt lat="42.3896278" lon="14.1315597"><ele>32.333333333333336</ele><time>2026-04-26T14:04:54.757Z</time></trkpt><trkpt lat="42.3897618" lon="14.1316765"><ele>31.666666666666668</ele><time>2026-04-26T14:04:55.755Z</time></trkpt><trkpt lat="42.3898962" lon="14.1317952"><ele>31.0</ele><time>2026-04-26T14:04:56.757Z</time></trkpt><trkpt lat="42.3900295" lon="14.1319145"><ele>31.0</ele><time>2026-04-26T14:04:57.756Z</time></trkpt><trkpt lat="42.3901633" lon="14.1320333"><ele>31.0</ele><time>2026-04-26T14:04:58.757Z</time></trkpt><trkpt lat="42.390297" lon="14.1321522"><ele>31.0</ele><time>2026-04-26T14:04:59.759Z</time></trkpt><trkpt lat="42.3904288" lon="14.1322723"><ele>30.666666666666668</ele><time>2026-04-26T14:05:00.76Z</time></trkpt><trkpt lat="42.3905622" lon="14.1323933"><ele>30.333333333333336</ele><time>2026-04-26T14:05:01.758Z</time></trkpt><trkpt lat="42.3906965" lon="14.1325128"><ele>30.0</ele><time>2026-04-26T14:05:02.762Z</time></trkpt><trkpt lat="42.390832" lon="14.1326343"><ele>30.0</ele><time>2026-04-26T14:05:03.762Z</time></trkpt><trkpt lat="42.3909663" lon="14.1327582"><ele>30.0</ele><time>2026-04-26T14:05:04.758Z</time></trkpt><trkpt lat="42.3911012" lon="14.1328823"><ele>30.0</ele><time>2026-04-26T14:05:05.759Z</time></trkpt><trkpt lat="42.391239" lon="14.1330063"><ele>30.0</ele><time>2026-04-26T14:05:06.76Z</time></trkpt><trkpt lat="42.391378" lon="14.1331315"><ele>30.0</ele><time>2026-04-26T14:05:07.758Z</time></trkpt><trkpt lat="42.391518" lon="14.1332617"><ele>30.0</ele><time>2026-04-26T14:05:08.763Z</time></trkpt><trkpt lat="42.391659" lon="14.1333935"><ele>30.0</ele><time>2026-04-26T14:05:09.761Z</time></trkpt><trkpt lat="42.3918035" lon="14.1335245"><ele>30.0</ele><time>2026-04-26T14:05:10.759Z</time></trkpt><trkpt lat="42.3919485" lon="14.1336558"><ele>30.0</ele><time>2026-04-26T14:05:11.756Z</time></trkpt><trkpt lat="42.3920962" lon="14.133787"><ele>29.666666666666664</ele><time>2026-04-26T14:05:12.757Z</time></trkpt><trkpt lat="42.3922498" lon="14.1339098"><ele>29.333333333333332</ele><time>2026-04-26T14:05:13.756Z</time></trkpt><trkpt lat="42.3923972" lon="14.1340387"><ele>29.0</ele><time>2026-04-26T14:05:14.753Z</time></trkpt><trkpt lat="42.3925308" lon="14.134176"><ele>29.0</ele><time>2026-04-26T14:05:15.749Z</time></trkpt><trkpt lat="42.392691" lon="14.134313"><ele>29.0</ele><time>2026-04-26T14:05:16.75Z</time></trkpt><trkpt lat="42.3928907" lon="14.1344728"><ele>29.0</ele><time>2026-04-26T14:05:17.948Z</time></trkpt><trkpt lat="42.3931707" lon="14.134726"><ele>29.333333333333332</ele><time>2026-04-26T14:05:19.754Z</time></trkpt><trkpt lat="42.3933095" lon="14.1348577"><ele>29.666666666666664</ele><time>2026-04-26T14:05:20.757Z</time></trkpt><trkpt lat="42.3934583" lon="14.1349863"><ele>30.0</ele><time>2026-04-26T14:05:21.757Z</time></trkpt><trkpt lat="42.3936025" lon="14.1351175"><ele>30.0</ele><time>2026-04-26T14:05:22.764Z</time></trkpt><trkpt lat="42.3937483" lon="14.135249"><ele>30.0</ele><time>2026-04-26T14:05:23.758Z</time></trkpt><trkpt lat="42.393893" lon="14.13538"><ele>30.0</ele><time>2026-04-26T14:05:24.759Z</time></trkpt><trkpt lat="42.3940288" lon="14.1355048"><ele>30.0</ele><time>2026-04-26T14:05:25.758Z</time></trkpt><trkpt lat="42.3941612" lon="14.1356262"><ele>30.0</ele><time>2026-04-26T14:05:26.759Z</time></trkpt><trkpt lat="42.3942943" lon="14.1357455"><ele>30.0</ele><time>2026-04-26T14:05:27.761Z</time></trkpt><trkpt lat="42.3944248" lon="14.1358628"><ele>29.666666666666664</ele><time>2026-04-26T14:05:28.761Z</time></trkpt><trkpt lat="42.3945568" lon="14.1359803"><ele>29.333333333333332</ele><time>2026-04-26T14:05:29.759Z</time></trkpt><trkpt lat="42.3946885" lon="14.1360995"><ele>29.0</ele><time>2026-04-26T14:05:30.759Z</time></trkpt><trkpt lat="42.3948198" lon="14.1362152"><ele>29.0</ele><time>2026-04-26T14:05:31.761Z</time></trkpt><trkpt lat="42.3949442" lon="14.1363255"><ele>29.0</ele><time>2026-04-26T14:05:32.76Z</time></trkpt><trkpt lat="42.3950665" lon="14.1364325"><ele>29.0</ele><time>2026-04-26T14:05:33.761Z</time></trkpt><trkpt lat="42.3951878" lon="14.1365388"><ele>29.0</ele><time>2026-04-26T14:05:34.758Z</time></trkpt><trkpt lat="42.3953073" lon="14.136645"><ele>28.25</ele><time>2026-04-26T14:05:35.76Z</time></trkpt><trkpt lat="42.3954222" lon="14.1367498"><ele>27.5</ele><time>2026-04-26T14:05:36.76Z</time></trkpt><trkpt lat="42.3955303" lon="14.1368475"><ele>26.75</ele><time>2026-04-26T14:05:37.761Z</time></trkpt><trkpt lat="42.3956382" lon="14.136942"><ele>26.0</ele><time>2026-04-26T14:05:38.761Z</time></trkpt><trkpt lat="42.3957465" lon="14.1370325"><ele>26.0</ele><time>2026-04-26T14:05:39.76Z</time></trkpt><trkpt lat="42.3958538" lon="14.1371208"><ele>26.0</ele><time>2026-04-26T14:05:40.762Z</time></trkpt><trkpt lat="42.3959648" lon="14.1372123"><ele>26.0</ele><time>2026-04-26T14:05:41.761Z</time></trkpt><trkpt lat="42.3960863" lon="14.1373092"><ele>26.0</ele><time>2026-04-26T14:05:42.761Z</time></trkpt><trkpt lat="42.3962145" lon="14.1374193"><ele>26.333333333333332</ele><time>2026-04-26T14:05:43.759Z</time></trkpt><trkpt lat="42.396345" lon="14.1375433"><ele>26.666666666666664</ele><time>2026-04-26T14:05:44.757Z</time></trkpt><trkpt lat="42.3964765" lon="14.137669"><ele>27.0</ele><time>2026-04-26T14:05:45.757Z</time></trkpt><trkpt lat="42.3966098" lon="14.1377888"><ele>27.0</ele><time>2026-04-26T14:05:46.758Z</time></trkpt><trkpt lat="42.3967492" lon="14.1379102"><ele>27.0</ele><time>2026-04-26T14:05:47.758Z</time></trkpt><trkpt lat="42.3968913" lon="14.1380368"><ele>27.0</ele><time>2026-04-26T14:05:48.761Z</time></trkpt><trkpt lat="42.397035" lon="14.1381695"><ele>26.666666666666664</ele><time>2026-04-26T14:05:49.761Z</time></trkpt><trkpt lat="42.3971802" lon="14.1383022"><ele>26.333333333333332</ele><time>2026-04-26T14:05:50.76Z</time></trkpt><trkpt lat="42.3973262" lon="14.1384345"><ele>26.0</ele><time>2026-04-26T14:05:51.759Z</time></trkpt><trkpt lat="42.3974722" lon="14.138567"><ele>26.0</ele><time>2026-04-26T14:05:52.761Z</time></trkpt><trkpt lat="42.3976173" lon="14.1386993"><ele>26.0</ele><time>2026-04-26T14:05:53.759Z</time></trkpt><trkpt lat="42.3977622" lon="14.1388298"><ele>26.0</ele><time>2026-04-26T14:05:54.761Z</time></trkpt><trkpt lat="42.397904" lon="14.1389577"><ele>26.0</ele><time>2026-04-26T14:05:55.76Z</time></trkpt><trkpt lat="42.3980422" lon="14.13908"><ele>26.0</ele><time>2026-04-26T14:05:56.762Z</time></trkpt><trkpt lat="42.3981755" lon="14.139197"><ele>26.0</ele><time>2026-04-26T14:05:57.76Z</time></trkpt><trkpt lat="42.3983055" lon="14.13931"><ele>26.0</ele><time>2026-04-26T14:05:58.759Z</time></trkpt><trkpt lat="42.3984285" lon="14.1394153"><ele>26.0</ele><time>2026-04-26T14:05:59.76Z</time></trkpt><trkpt lat="42.39854" lon="14.1395092"><ele>26.0</ele><time>2026-04-26T14:06:00.761Z</time></trkpt><trkpt lat="42.3986488" lon="14.1396008"><ele>26.0</ele><time>2026-04-26T14:06:01.761Z</time></trkpt><trkpt lat="42.3987595" lon="14.139698"><ele>25.666666666666664</ele><time>2026-04-26T14:06:02.76Z</time></trkpt><trkpt lat="42.3988738" lon="14.139808"><ele>25.333333333333336</ele><time>2026-04-26T14:06:03.761Z</time></trkpt><trkpt lat="42.3989958" lon="14.1399287"><ele>25.0</ele><time>2026-04-26T14:06:04.76Z</time></trkpt><trkpt lat="42.399124" lon="14.140055"><ele>25.0</ele><time>2026-04-26T14:06:05.762Z</time></trkpt><trkpt lat="42.3992583" lon="14.140179"><ele>25.0</ele><time>2026-04-26T14:06:06.761Z</time></trkpt><trkpt lat="42.3993977" lon="14.1403022"><ele>25.0</ele><time>2026-04-26T14:06:07.762Z</time></trkpt><trkpt lat="42.3995388" lon="14.1404263"><ele>24.666666666666668</ele><time>2026-04-26T14:06:08.757Z</time></trkpt><trkpt lat="42.3996807" lon="14.1405503"><ele>24.333333333333336</ele><time>2026-04-26T14:06:09.759Z</time></trkpt><trkpt lat="42.399822" lon="14.140675"><ele>24.0</ele><time>2026-04-26T14:06:10.759Z</time></trkpt><trkpt lat="42.399962" lon="14.1407993"><ele>24.666666666666664</ele><time>2026-04-26T14:06:11.759Z</time></trkpt><trkpt lat="42.4001008" lon="14.1409225"><ele>25.333333333333332</ele><time>2026-04-26T14:06:12.76Z</time></trkpt><trkpt lat="42.4002402" lon="14.1410437"><ele>26.0</ele><time>2026-04-26T14:06:13.76Z</time></trkpt><trkpt lat="42.4003777" lon="14.1411672"><ele>25.666666666666664</ele><time>2026-04-26T14:06:14.76Z</time></trkpt><trkpt lat="42.4005138" lon="14.1412928"><ele>25.333333333333336</ele><time>2026-04-26T14:06:15.763Z</time></trkpt><trkpt lat="42.4006502" lon="14.1414168"><ele>25.0</ele><time>2026-04-26T14:06:16.762Z</time></trkpt><trkpt lat="42.4007865" lon="14.1415423"><ele>25.0</ele><time>2026-04-26T14:06:17.762Z</time></trkpt><trkpt lat="42.4009235" lon="14.1416677"><ele>25.0</ele><time>2026-04-26T14:06:18.761Z</time></trkpt><trkpt lat="42.4010587" lon="14.141796"><ele>25.0</ele><time>2026-04-26T14:06:19.76Z</time></trkpt><trkpt lat="42.4011947" lon="14.1419245"><ele>25.0</ele><time>2026-04-26T14:06:20.76Z</time></trkpt><trkpt lat="42.401328" lon="14.142048"><ele>25.0</ele><time>2026-04-26T14:06:21.761Z</time></trkpt><trkpt lat="42.4014558" lon="14.1421602"><ele>25.0</ele><time>2026-04-26T14:06:22.759Z</time></trkpt><trkpt lat="42.4015743" lon="14.1422588"><ele>25.0</ele><time>2026-04-26T14:06:23.76Z</time></trkpt><trkpt lat="42.4016815" lon="14.1423478"><ele>25.0</ele><time>2026-04-26T14:06:24.761Z</time></trkpt><trkpt lat="42.4017785" lon="14.1424307"><ele>25.0</ele><time>2026-04-26T14:06:25.761Z</time></trkpt><trkpt lat="42.4018715" lon="14.14251"><ele>25.0</ele><time>2026-04-26T14:06:26.761Z</time></trkpt><trkpt lat="42.401969" lon="14.142591"><ele>24.8</ele><time>2026-04-26T14:06:27.761Z</time></trkpt><trkpt lat="42.402068" lon="14.1426747"><ele>24.6</ele><time>2026-04-26T14:06:28.761Z</time></trkpt><trkpt lat="42.4021635" lon="14.1427572"><ele>24.4</ele><time>2026-04-26T14:06:29.758Z</time></trkpt><trkpt lat="42.4022547" lon="14.1428375"><ele>24.2</ele><time>2026-04-26T14:06:30.761Z</time></trkpt><trkpt lat="42.4023477" lon="14.1429157"><ele>24.0</ele><time>2026-04-26T14:06:31.76Z</time></trkpt><trkpt lat="42.4024433" lon="14.1429935"><ele>24.0</ele><time>2026-04-26T14:06:32.759Z</time></trkpt><trkpt lat="42.4025432" lon="14.1430768"><ele>24.0</ele><time>2026-04-26T14:06:33.759Z</time></trkpt><trkpt lat="42.4026357" lon="14.143156"><ele>24.0</ele><time>2026-04-26T14:06:34.758Z</time></trkpt><trkpt lat="42.4027277" lon="14.1432375"><ele>24.0</ele><time>2026-04-26T14:06:35.759Z</time></trkpt><trkpt lat="42.4028232" lon="14.1433208"><ele>24.0</ele><time>2026-04-26T14:06:36.761Z</time></trkpt><trkpt lat="42.4029318" lon="14.1434092"><ele>24.0</ele><time>2026-04-26T14:06:37.762Z</time></trkpt><trkpt lat="42.4030555" lon="14.143511"><ele>24.0</ele><time>2026-04-26T14:06:38.763Z</time></trkpt><trkpt lat="42.4031908" lon="14.14363"><ele>24.0</ele><time>2026-04-26T14:06:39.761Z</time></trkpt><trkpt lat="42.4033332" lon="14.1437665"><ele>24.0</ele><time>2026-04-26T14:06:40.762Z</time></trkpt><trkpt lat="42.4034837" lon="14.1439127"><ele>24.0</ele><time>2026-04-26T14:06:41.762Z</time></trkpt><trkpt lat="42.4036415" lon="14.1440622"><ele>24.0</ele><time>2026-04-26T14:06:42.762Z</time></trkpt><trkpt lat="42.4038033" lon="14.1442133"><ele>24.333333333333336</ele><time>2026-04-26T14:06:43.761Z</time></trkpt><trkpt lat="42.4039675" lon="14.1443635"><ele>24.666666666666668</ele><time>2026-04-26T14:06:44.761Z</time></trkpt><trkpt lat="42.4041313" lon="14.1445135"><ele>25.0</ele><time>2026-04-26T14:06:45.761Z</time></trkpt><trkpt lat="42.4042945" lon="14.1446635"><ele>25.0</ele><time>2026-04-26T14:06:46.761Z</time></trkpt><trkpt lat="42.4044583" lon="14.1448115"><ele>25.0</ele><time>2026-04-26T14:06:47.76Z</time></trkpt><trkpt lat="42.4046222" lon="14.1449578"><ele>25.0</ele><time>2026-04-26T14:06:48.763Z</time></trkpt><trkpt lat="42.404784" lon="14.1451022"><ele>24.333333333333336</ele><time>2026-04-26T14:06:49.761Z</time></trkpt><trkpt lat="42.4049372" lon="14.1452382"><ele>23.666666666666668</ele><time>2026-04-26T14:06:50.759Z</time></trkpt><trkpt lat="42.4050785" lon="14.1453655"><ele>23.0</ele><time>2026-04-26T14:06:51.762Z</time></trkpt><trkpt lat="42.4052035" lon="14.145478"><ele>23.0</ele><time>2026-04-26T14:06:52.761Z</time></trkpt><trkpt lat="42.4053097" lon="14.1455793"><ele>23.0</ele><time>2026-04-26T14:06:53.761Z</time></trkpt><trkpt lat="42.4053888" lon="14.1456768"><ele>23.0</ele><time>2026-04-26T14:06:54.766Z</time></trkpt><trkpt lat="42.4054387" lon="14.1457793"><ele>23.0</ele><time>2026-04-26T14:06:55.761Z</time></trkpt><trkpt lat="42.4054617" lon="14.1458873"><ele>23.0</ele><time>2026-04-26T14:06:56.76Z</time></trkpt><trkpt lat="42.4054757" lon="14.1459823"><ele>22.799999999999997</ele><time>2026-04-26T14:06:57.76Z</time></trkpt><trkpt lat="42.4055378" lon="14.1461057"><ele>22.6</ele><time>2026-04-26T14:06:59.76Z</time></trkpt><trkpt lat="42.405654" lon="14.1460865"><ele>22.4</ele><time>2026-04-26T14:07:01.761Z</time></trkpt><trkpt lat="42.4057285" lon="14.1460608"><ele>22.200000000000003</ele><time>2026-04-26T14:07:02.762Z</time></trkpt><trkpt lat="42.4058122" lon="14.1460683"><ele>22.0</ele><time>2026-04-26T14:07:03.762Z</time></trkpt><trkpt lat="42.4058987" lon="14.1461173"><ele>22.0</ele><time>2026-04-26T14:07:04.759Z</time></trkpt><trkpt lat="42.4059872" lon="14.146198"><ele>22.0</ele><time>2026-04-26T14:07:05.761Z</time></trkpt><trkpt lat="42.4060892" lon="14.1462932"><ele>22.0</ele><time>2026-04-26T14:07:06.76Z</time></trkpt><trkpt lat="42.4062023" lon="14.1463947"><ele>22.0</ele><time>2026-04-26T14:07:07.761Z</time></trkpt><trkpt lat="42.4063242" lon="14.1465025"><ele>22.0</ele><time>2026-04-26T14:07:08.762Z</time></trkpt><trkpt lat="42.406452" lon="14.1466125"><ele>22.0</ele><time>2026-04-26T14:07:09.761Z</time></trkpt><trkpt lat="42.4065872" lon="14.1467198"><ele>22.0</ele><time>2026-04-26T14:07:10.761Z</time></trkpt><trkpt lat="42.4067297" lon="14.1468183"><ele>22.0</ele><time>2026-04-26T14:07:11.762Z</time></trkpt><trkpt lat="42.4068803" lon="14.1469027"><ele>22.0</ele><time>2026-04-26T14:07:12.762Z</time></trkpt><trkpt lat="42.4070373" lon="14.1469693"><ele>22.0</ele><time>2026-04-26T14:07:13.762Z</time></trkpt><trkpt lat="42.4072003" lon="14.1470227"><ele>20.666666666666664</ele><time>2026-04-26T14:07:14.761Z</time></trkpt><trkpt lat="42.407368" lon="14.1470663"><ele>19.333333333333332</ele><time>2026-04-26T14:07:15.761Z</time></trkpt><trkpt lat="42.4075403" lon="14.1471063"><ele>18.0</ele><time>2026-04-26T14:07:16.761Z</time></trkpt><trkpt lat="42.4077162" lon="14.1471445"><ele>18.0</ele><time>2026-04-26T14:07:17.763Z</time></trkpt><trkpt lat="42.407894" lon="14.1471817"><ele>18.0</ele><time>2026-04-26T14:07:18.761Z</time></trkpt><trkpt lat="42.408072" lon="14.1472233"><ele>18.0</ele><time>2026-04-26T14:07:19.76Z</time></trkpt><trkpt lat="42.4082483" lon="14.1472765"><ele>17.666666666666668</ele><time>2026-04-26T14:07:20.761Z</time></trkpt><trkpt lat="42.408423" lon="14.1473433"><ele>17.333333333333336</ele><time>2026-04-26T14:07:21.76Z</time></trkpt><trkpt lat="42.4085967" lon="14.1474267"><ele>17.0</ele><time>2026-04-26T14:07:22.759Z</time></trkpt><trkpt lat="42.4087657" lon="14.1475282"><ele>17.0</ele><time>2026-04-26T14:07:23.758Z</time></trkpt><trkpt lat="42.4089287" lon="14.1476448"><ele>17.0</ele><time>2026-04-26T14:07:24.759Z</time></trkpt><trkpt lat="42.4090892" lon="14.1477688"><ele>17.0</ele><time>2026-04-26T14:07:25.759Z</time></trkpt><trkpt lat="42.409249" lon="14.1478963"><ele>17.0</ele><time>2026-04-26T14:07:26.762Z</time></trkpt><trkpt lat="42.4094092" lon="14.1480262"><ele>17.0</ele><time>2026-04-26T14:07:27.761Z</time></trkpt><trkpt lat="42.4095718" lon="14.1481552"><ele>17.0</ele><time>2026-04-26T14:07:28.762Z</time></trkpt><trkpt lat="42.4097362" lon="14.1482825"><ele>17.666666666666668</ele><time>2026-04-26T14:07:29.761Z</time></trkpt><trkpt lat="42.4099012" lon="14.1484112"><ele>18.333333333333332</ele><time>2026-04-26T14:07:30.761Z</time></trkpt><trkpt lat="42.4100672" lon="14.1485423"><ele>19.0</ele><time>2026-04-26T14:07:31.762Z</time></trkpt><trkpt lat="42.4102347" lon="14.1486755"><ele>19.0</ele><time>2026-04-26T14:07:32.759Z</time></trkpt><trkpt lat="42.410405" lon="14.1488105"><ele>19.0</ele><time>2026-04-26T14:07:33.761Z</time></trkpt><trkpt lat="42.410578" lon="14.1489475"><ele>19.0</ele><time>2026-04-26T14:07:34.76Z</time></trkpt><trkpt lat="42.4107527" lon="14.1490853"><ele>19.666666666666664</ele><time>2026-04-26T14:07:35.76Z</time></trkpt><trkpt lat="42.410928" lon="14.1492227"><ele>20.333333333333332</ele><time>2026-04-26T14:07:36.761Z</time></trkpt><trkpt lat="42.4111033" lon="14.1493603"><ele>21.0</ele><time>2026-04-26T14:07:37.761Z</time></trkpt><trkpt lat="42.4112788" lon="14.1494992"><ele>21.0</ele><time>2026-04-26T14:07:38.761Z</time></trkpt><trkpt lat="42.4114542" lon="14.149638"><ele>21.0</ele><time>2026-04-26T14:07:39.761Z</time></trkpt><trkpt lat="42.4116293" lon="14.1497768"><ele>21.0</ele><time>2026-04-26T14:07:40.76Z</time></trkpt><trkpt lat="42.4118042" lon="14.1499167"><ele>20.0</ele><time>2026-04-26T14:07:41.761Z</time></trkpt><trkpt lat="42.4119782" lon="14.1500583"><ele>19.0</ele><time>2026-04-26T14:07:42.761Z</time></trkpt><trkpt lat="42.4121527" lon="14.150198"><ele>18.0</ele><time>2026-04-26T14:07:43.761Z</time></trkpt><trkpt lat="42.4123287" lon="14.1503335"><ele>17.0</ele><time>2026-04-26T14:07:44.761Z</time></trkpt><trkpt lat="42.4125042" lon="14.1504685"><ele>16.0</ele><time>2026-04-26T14:07:45.762Z</time></trkpt><trkpt lat="42.4126758" lon="14.1506062"><ele>15.0</ele><time>2026-04-26T14:07:46.76Z</time></trkpt><trkpt lat="42.4128427" lon="14.150749"><ele>15.0</ele><time>2026-04-26T14:07:47.758Z</time></trkpt><trkpt lat="42.4130027" lon="14.1509012"><ele>15.0</ele><time>2026-04-26T14:07:48.759Z</time></trkpt><trkpt lat="42.4131563" lon="14.15106"><ele>15.0</ele><time>2026-04-26T14:07:49.756Z</time></trkpt><trkpt lat="42.4133065" lon="14.1512207"><ele>15.0</ele><time>2026-04-26T14:07:50.759Z</time></trkpt><trkpt lat="42.4134592" lon="14.1513767"><ele>15.0</ele><time>2026-04-26T14:07:51.76Z</time></trkpt><trkpt lat="42.4136168" lon="14.1515225"><ele>15.0</ele><time>2026-04-26T14:07:52.76Z</time></trkpt><trkpt lat="42.4137823" lon="14.1516527"><ele>15.333333333333332</ele><time>2026-04-26T14:07:53.759Z</time></trkpt><trkpt lat="42.4139568" lon="14.1517637"><ele>15.666666666666666</ele><time>2026-04-26T14:07:54.764Z</time></trkpt><trkpt lat="42.4141363" lon="14.1518547"><ele>16.0</ele><time>2026-04-26T14:07:55.759Z</time></trkpt><trkpt lat="42.41431" lon="14.1519253"><ele>16.0</ele><time>2026-04-26T14:07:56.76Z</time></trkpt><trkpt lat="42.4144758" lon="14.1519758"><ele>16.0</ele><time>2026-04-26T14:07:57.761Z</time></trkpt><trkpt lat="42.4146388" lon="14.1520112"><ele>16.0</ele><time>2026-04-26T14:07:58.759Z</time></trkpt><trkpt lat="42.4148117" lon="14.1520342"><ele>15.666666666666666</ele><time>2026-04-26T14:07:59.76Z</time></trkpt><trkpt lat="42.4149928" lon="14.1520512"><ele>15.333333333333332</ele><time>2026-04-26T14:08:00.76Z</time></trkpt><trkpt lat="42.4151788" lon="14.1520658"><ele>15.0</ele><time>2026-04-26T14:08:01.759Z</time></trkpt><trkpt lat="42.4153665" lon="14.1520828"><ele>15.333333333333332</ele><time>2026-04-26T14:08:02.757Z</time></trkpt><trkpt lat="42.4155497" lon="14.1521043"><ele>15.666666666666666</ele><time>2026-04-26T14:08:03.76Z</time></trkpt><trkpt lat="42.415732" lon="14.1521295"><ele>16.0</ele><time>2026-04-26T14:08:04.759Z</time></trkpt><trkpt lat="42.4159125" lon="14.152174"><ele>16.0</ele><time>2026-04-26T14:08:05.76Z</time></trkpt><trkpt lat="42.416085" lon="14.152249"><ele>16.0</ele><time>2026-04-26T14:08:06.761Z</time></trkpt><trkpt lat="42.4162443" lon="14.1523572"><ele>16.0</ele><time>2026-04-26T14:08:07.759Z</time></trkpt><trkpt lat="42.4163863" lon="14.1524918"><ele>17.333333333333332</ele><time>2026-04-26T14:08:08.759Z</time></trkpt><trkpt lat="42.4165148" lon="14.1526455"><ele>18.666666666666668</ele><time>2026-04-26T14:08:09.76Z</time></trkpt><trkpt lat="42.4166365" lon="14.1528123"><ele>20.0</ele><time>2026-04-26T14:08:10.76Z</time></trkpt><trkpt lat="42.4167583" lon="14.1529845"><ele>20.0</ele><time>2026-04-26T14:08:11.757Z</time></trkpt><trkpt lat="42.4168835" lon="14.1531605"><ele>20.0</ele><time>2026-04-26T14:08:12.757Z</time></trkpt><trkpt lat="42.4170115" lon="14.1533375"><ele>20.0</ele><time>2026-04-26T14:08:13.758Z</time></trkpt><trkpt lat="42.417141" lon="14.1535135"><ele>20.333333333333336</ele><time>2026-04-26T14:08:14.759Z</time></trkpt><trkpt lat="42.41727" lon="14.1536862"><ele>20.666666666666668</ele><time>2026-04-26T14:08:15.762Z</time></trkpt><trkpt lat="42.4173923" lon="14.1538473"><ele>21.0</ele><time>2026-04-26T14:08:16.761Z</time></trkpt><trkpt lat="42.4175052" lon="14.154001"><ele>20.333333333333332</ele><time>2026-04-26T14:08:17.762Z</time></trkpt><trkpt lat="42.41762" lon="14.1541535"><ele>19.666666666666664</ele><time>2026-04-26T14:08:18.762Z</time></trkpt><trkpt lat="42.4177325" lon="14.1543025"><ele>19.0</ele><time>2026-04-26T14:08:19.762Z</time></trkpt><trkpt lat="42.4178372" lon="14.1544423"><ele>19.0</ele><time>2026-04-26T14:08:20.76Z</time></trkpt><trkpt lat="42.417935" lon="14.154572"><ele>19.0</ele><time>2026-04-26T14:08:21.76Z</time></trkpt><trkpt lat="42.4180323" lon="14.1546977"><ele>19.0</ele><time>2026-04-26T14:08:22.761Z</time></trkpt><trkpt lat="42.4181302" lon="14.1548235"><ele>19.0</ele><time>2026-04-26T14:08:23.759Z</time></trkpt><trkpt lat="42.4182312" lon="14.154951"><ele>18.333333333333332</ele><time>2026-04-26T14:08:24.761Z</time></trkpt><trkpt lat="42.4183395" lon="14.1550873"><ele>17.666666666666668</ele><time>2026-04-26T14:08:25.76Z</time></trkpt><trkpt lat="42.4184465" lon="14.1552427"><ele>17.0</ele><time>2026-04-26T14:08:26.76Z</time></trkpt><trkpt lat="42.4185535" lon="14.1554098"><ele>17.0</ele><time>2026-04-26T14:08:27.759Z</time></trkpt><trkpt lat="42.4186658" lon="14.1555802"><ele>17.0</ele><time>2026-04-26T14:08:28.759Z</time></trkpt><trkpt lat="42.4187812" lon="14.1557505"><ele>17.0</ele><time>2026-04-26T14:08:29.761Z</time></trkpt><trkpt lat="42.418899" lon="14.1559185"><ele>19.0</ele><time>2026-04-26T14:08:30.76Z</time></trkpt><trkpt lat="42.4190173" lon="14.1560768"><ele>21.0</ele><time>2026-04-26T14:08:31.76Z</time></trkpt><trkpt lat="42.4191357" lon="14.1562152"><ele>23.0</ele><time>2026-04-26T14:08:32.759Z</time></trkpt><trkpt lat="42.419265" lon="14.1563302"><ele>23.0</ele><time>2026-04-26T14:08:33.76Z</time></trkpt><trkpt lat="42.419407" lon="14.1564173"><ele>23.0</ele><time>2026-04-26T14:08:34.758Z</time></trkpt><trkpt lat="42.4195583" lon="14.1564862"><ele>23.0</ele><time>2026-04-26T14:08:35.757Z</time></trkpt><trkpt lat="42.419714" lon="14.1565485"><ele>22.0</ele><time>2026-04-26T14:08:36.757Z</time></trkpt><trkpt lat="42.4198718" lon="14.156616"><ele>21.0</ele><time>2026-04-26T14:08:37.757Z</time></trkpt><trkpt lat="42.4200308" lon="14.156688"><ele>20.0</ele><time>2026-04-26T14:08:38.757Z</time></trkpt><trkpt lat="42.4201912" lon="14.1567572"><ele>20.0</ele><time>2026-04-26T14:08:39.759Z</time></trkpt><trkpt lat="42.4203513" lon="14.1568273"><ele>20.0</ele><time>2026-04-26T14:08:40.759Z</time></trkpt><trkpt lat="42.4205108" lon="14.1568935"><ele>20.0</ele><time>2026-04-26T14:08:41.761Z</time></trkpt><trkpt lat="42.4206707" lon="14.156958"><ele>20.333333333333336</ele><time>2026-04-26T14:08:42.762Z</time></trkpt><trkpt lat="42.4208298" lon="14.1570232"><ele>20.666666666666668</ele><time>2026-04-26T14:08:43.76Z</time></trkpt><trkpt lat="42.4209872" lon="14.1570877"><ele>21.0</ele><time>2026-04-26T14:08:44.759Z</time></trkpt><trkpt lat="42.4211348" lon="14.1571485"><ele>21.0</ele><time>2026-04-26T14:08:45.759Z</time></trkpt><trkpt lat="42.4212798" lon="14.1572063"><ele>21.0</ele><time>2026-04-26T14:08:46.759Z</time></trkpt><trkpt lat="42.4214258" lon="14.157267"><ele>21.0</ele><time>2026-04-26T14:08:47.758Z</time></trkpt><trkpt lat="42.421565" lon="14.1573247"><ele>21.0</ele><time>2026-04-26T14:08:48.762Z</time></trkpt><trkpt lat="42.4216977" lon="14.1573723"><ele>20.75</ele><time>2026-04-26T14:08:49.76Z</time></trkpt><trkpt lat="42.421822" lon="14.1574025"><ele>20.5</ele><time>2026-04-26T14:08:50.761Z</time></trkpt><trkpt lat="42.4219387" lon="14.1574102"><ele>20.25</ele><time>2026-04-26T14:08:51.761Z</time></trkpt><trkpt lat="42.4220558" lon="14.1574032"><ele>20.0</ele><time>2026-04-26T14:08:52.759Z</time></trkpt><trkpt lat="42.4221658" lon="14.1574097"><ele>20.0</ele><time>2026-04-26T14:08:53.759Z</time></trkpt><trkpt lat="42.422275" lon="14.1574397"><ele>20.0</ele><time>2026-04-26T14:08:54.76Z</time></trkpt><trkpt lat="42.4223873" lon="14.1574932"><ele>20.0</ele><time>2026-04-26T14:08:55.761Z</time></trkpt><trkpt lat="42.4225033" lon="14.1575633"><ele>20.0</ele><time>2026-04-26T14:08:56.76Z</time></trkpt><trkpt lat="42.4226195" lon="14.1576455"><ele>20.0</ele><time>2026-04-26T14:08:57.759Z</time></trkpt><trkpt lat="42.422738" lon="14.1577322"><ele>20.0</ele><time>2026-04-26T14:08:58.76Z</time></trkpt><trkpt lat="42.422862" lon="14.1578078"><ele>20.0</ele><time>2026-04-26T14:08:59.759Z</time></trkpt><trkpt lat="42.4229927" lon="14.157871"><ele>20.0</ele><time>2026-04-26T14:09:00.758Z</time></trkpt><trkpt lat="42.4231263" lon="14.1579257"><ele>19.5</ele><time>2026-04-26T14:09:01.758Z</time></trkpt><trkpt lat="42.4232608" lon="14.1579787"><ele>19.0</ele><time>2026-04-26T14:09:02.756Z</time></trkpt><trkpt lat="42.4233923" lon="14.1580327"><ele>18.5</ele><time>2026-04-26T14:09:03.756Z</time></trkpt><trkpt lat="42.4235237" lon="14.1580848"><ele>18.0</ele><time>2026-04-26T14:09:04.757Z</time></trkpt><trkpt lat="42.4236563" lon="14.1581372"><ele>18.0</ele><time>2026-04-26T14:09:05.759Z</time></trkpt><trkpt lat="42.423785" lon="14.1581887"><ele>18.0</ele><time>2026-04-26T14:09:06.759Z</time></trkpt><trkpt lat="42.423899" lon="14.1582362"><ele>18.0</ele><time>2026-04-26T14:09:07.758Z</time></trkpt><trkpt lat="42.4240175" lon="14.1582872"><ele>18.0</ele><time>2026-04-26T14:09:08.759Z</time></trkpt><trkpt lat="42.4241415" lon="14.1583408"><ele>18.0</ele><time>2026-04-26T14:09:09.758Z</time></trkpt><trkpt lat="42.4242685" lon="14.1584"><ele>18.0</ele><time>2026-04-26T14:09:10.757Z</time></trkpt><trkpt lat="42.4243988" lon="14.1584615"><ele>18.0</ele><time>2026-04-26T14:09:11.759Z</time></trkpt><trkpt lat="42.4245308" lon="14.1585217"><ele>18.0</ele><time>2026-04-26T14:09:12.759Z</time></trkpt><trkpt lat="42.4246638" lon="14.1585787"><ele>18.0</ele><time>2026-04-26T14:09:13.759Z</time></trkpt><trkpt lat="42.4247983" lon="14.1586328"><ele>18.0</ele><time>2026-04-26T14:09:14.759Z</time></trkpt><trkpt lat="42.4249337" lon="14.1586877"><ele>18.0</ele><time>2026-04-26T14:09:15.759Z</time></trkpt><trkpt lat="42.4250667" lon="14.1587468"><ele>18.0</ele><time>2026-04-26T14:09:16.76Z</time></trkpt><trkpt lat="42.4251993" lon="14.158807"><ele>18.0</ele><time>2026-04-26T14:09:17.76Z</time></trkpt><trkpt lat="42.4253318" lon="14.1588682"><ele>18.0</ele><time>2026-04-26T14:09:18.761Z</time></trkpt><trkpt lat="42.4254642" lon="14.1589297"><ele>18.0</ele><time>2026-04-26T14:09:19.759Z</time></trkpt><trkpt lat="42.4255958" lon="14.1589922"><ele>18.0</ele><time>2026-04-26T14:09:20.76Z</time></trkpt><trkpt lat="42.4257285" lon="14.1590567"><ele>18.25</ele><time>2026-04-26T14:09:21.761Z</time></trkpt><trkpt lat="42.4258605" lon="14.159127"><ele>18.5</ele><time>2026-04-26T14:09:22.76Z</time></trkpt><trkpt lat="42.4259915" lon="14.1592045"><ele>18.75</ele><time>2026-04-26T14:09:23.761Z</time></trkpt><trkpt lat="42.4261213" lon="14.159287"><ele>19.0</ele><time>2026-04-26T14:09:24.76Z</time></trkpt><trkpt lat="42.4262513" lon="14.1593722"><ele>19.25</ele><time>2026-04-26T14:09:25.757Z</time></trkpt><trkpt lat="42.4263823" lon="14.159458"><ele>19.5</ele><time>2026-04-26T14:09:26.757Z</time></trkpt><trkpt lat="42.426509" lon="14.159544"><ele>19.75</ele><time>2026-04-26T14:09:27.759Z</time></trkpt><trkpt lat="42.4266333" lon="14.1596353"><ele>20.0</ele><time>2026-04-26T14:09:28.758Z</time></trkpt><trkpt lat="42.4267503" lon="14.1597258"><ele>20.0</ele><time>2026-04-26T14:09:29.76Z</time></trkpt><trkpt lat="42.4268645" lon="14.1598123"><ele>20.0</ele><time>2026-04-26T14:09:30.759Z</time></trkpt><trkpt lat="42.4269768" lon="14.1599008"><ele>20.0</ele><time>2026-04-26T14:09:31.76Z</time></trkpt><trkpt lat="42.4270957" lon="14.159995"><ele>20.0</ele><time>2026-04-26T14:09:32.76Z</time></trkpt><trkpt lat="42.4272253" lon="14.1600988"><ele>19.333333333333336</ele><time>2026-04-26T14:09:33.761Z</time></trkpt><trkpt lat="42.4273607" lon="14.160213"><ele>18.666666666666668</ele><time>2026-04-26T14:09:34.76Z</time></trkpt><trkpt lat="42.4275032" lon="14.1603397"><ele>18.0</ele><time>2026-04-26T14:09:35.758Z</time></trkpt><trkpt lat="42.4276513" lon="14.160476"><ele>18.0</ele><time>2026-04-26T14:09:36.761Z</time></trkpt><trkpt lat="42.4277948" lon="14.1606162"><ele>18.0</ele><time>2026-04-26T14:09:37.759Z</time></trkpt><trkpt lat="42.4279282" lon="14.1607485"><ele>18.0</ele><time>2026-04-26T14:09:38.761Z</time></trkpt><trkpt lat="42.4280573" lon="14.1608797"><ele>17.666666666666668</ele><time>2026-04-26T14:09:39.762Z</time></trkpt><trkpt lat="42.4281845" lon="14.1610078"><ele>17.333333333333336</ele><time>2026-04-26T14:09:40.759Z</time></trkpt><trkpt lat="42.4283117" lon="14.1611342"><ele>17.0</ele><time>2026-04-26T14:09:41.759Z</time></trkpt><trkpt lat="42.4284387" lon="14.1612603"><ele>17.0</ele><time>2026-04-26T14:09:42.762Z</time></trkpt><trkpt lat="42.4285648" lon="14.1613857"><ele>17.0</ele><time>2026-04-26T14:09:43.758Z</time></trkpt><trkpt lat="42.4286887" lon="14.161511"><ele>17.0</ele><time>2026-04-26T14:09:44.761Z</time></trkpt><trkpt lat="42.4288058" lon="14.1616295"><ele>19.5</ele><time>2026-04-26T14:09:45.764Z</time></trkpt><trkpt lat="42.4289122" lon="14.1617388"><ele>22.0</ele><time>2026-04-26T14:09:46.762Z</time></trkpt><trkpt lat="42.4290102" lon="14.1618367"><ele>24.5</ele><time>2026-04-26T14:09:47.762Z</time></trkpt><trkpt lat="42.4291002" lon="14.1619262"><ele>27.0</ele><time>2026-04-26T14:09:48.76Z</time></trkpt><trkpt lat="42.4291858" lon="14.1620122"><ele>27.0</ele><time>2026-04-26T14:09:49.759Z</time></trkpt><trkpt lat="42.4292758" lon="14.1621045"><ele>27.0</ele><time>2026-04-26T14:09:50.758Z</time></trkpt><trkpt lat="42.4293718" lon="14.1622023"><ele>27.0</ele><time>2026-04-26T14:09:51.76Z</time></trkpt><trkpt lat="42.4294733" lon="14.1623037"><ele>27.0</ele><time>2026-04-26T14:09:52.759Z</time></trkpt><trkpt lat="42.429583" lon="14.1624057"><ele>25.5</ele><time>2026-04-26T14:09:53.761Z</time></trkpt><trkpt lat="42.429701" lon="14.162505"><ele>24.0</ele><time>2026-04-26T14:09:54.762Z</time></trkpt><trkpt lat="42.429828" lon="14.162596"><ele>22.5</ele><time>2026-04-26T14:09:55.761Z</time></trkpt><trkpt lat="42.4299647" lon="14.1626707"><ele>21.0</ele><time>2026-04-26T14:09:56.761Z</time></trkpt><trkpt lat="42.4301082" lon="14.1627233"><ele>21.0</ele><time>2026-04-26T14:09:57.762Z</time></trkpt><trkpt lat="42.4302558" lon="14.1627618"><ele>21.0</ele><time>2026-04-26T14:09:58.76Z</time></trkpt><trkpt lat="42.4304002" lon="14.1627892"><ele>21.0</ele><time>2026-04-26T14:09:59.761Z</time></trkpt><trkpt lat="42.4305452" lon="14.1628115"><ele>21.0</ele><time>2026-04-26T14:10:00.76Z</time></trkpt><trkpt lat="42.4306865" lon="14.1628283"><ele>21.200000000000003</ele><time>2026-04-26T14:10:01.76Z</time></trkpt><trkpt lat="42.4308157" lon="14.1628453"><ele>21.400000000000002</ele><time>2026-04-26T14:10:02.76Z</time></trkpt><trkpt lat="42.4309297" lon="14.162858"><ele>21.6</ele><time>2026-04-26T14:10:03.762Z</time></trkpt><trkpt lat="42.4310282" lon="14.1628637"><ele>21.8</ele><time>2026-04-26T14:10:04.76Z</time></trkpt><trkpt lat="42.4311088" lon="14.1628682"><ele>22.0</ele><time>2026-04-26T14:10:05.761Z</time></trkpt><trkpt lat="42.4312252" lon="14.1628637"><ele>22.0</ele><time>2026-04-26T14:10:07.759Z</time></trkpt><trkpt lat="42.4312937" lon="14.1627747"><ele>22.0</ele><time>2026-04-26T14:10:09.762Z</time></trkpt><trkpt lat="42.4312798" lon="14.1626418"><ele>22.0</ele><time>2026-04-26T14:10:11.759Z</time></trkpt><trkpt lat="42.4312313" lon="14.1624828"><ele>22.0</ele><time>2026-04-26T14:10:13.758Z</time></trkpt><trkpt lat="42.4312003" lon="14.1623915"><ele>22.0</ele><time>2026-04-26T14:10:14.759Z</time></trkpt><trkpt lat="42.4311682" lon="14.1622928"><ele>22.166666666666664</ele><time>2026-04-26T14:10:15.761Z</time></trkpt><trkpt lat="42.4311383" lon="14.1621977"><ele>22.333333333333332</ele><time>2026-04-26T14:10:16.758Z</time></trkpt><trkpt lat="42.431113" lon="14.1621117"><ele>22.5</ele><time>2026-04-26T14:10:17.76Z</time></trkpt><trkpt lat="42.4310887" lon="14.162023"><ele>22.666666666666668</ele><time>2026-04-26T14:10:18.76Z</time></trkpt><trkpt lat="42.4310595" lon="14.1619282"><ele>22.833333333333336</ele><time>2026-04-26T14:10:19.757Z</time></trkpt><trkpt lat="42.4310298" lon="14.1618293"><ele>23.0</ele><time>2026-04-26T14:10:20.758Z</time></trkpt><trkpt lat="42.4310023" lon="14.1617248"><ele>23.0</ele><time>2026-04-26T14:10:21.762Z</time></trkpt><trkpt lat="42.4309772" lon="14.161617"><ele>23.0</ele><time>2026-04-26T14:10:22.756Z</time></trkpt><trkpt lat="42.4309573" lon="14.1615058"><ele>23.0</ele><time>2026-04-26T14:10:23.758Z</time></trkpt><trkpt lat="42.4309415" lon="14.1613907"><ele>23.0</ele><time>2026-04-26T14:10:24.759Z</time></trkpt><trkpt lat="42.4309307" lon="14.1612733"><ele>23.0</ele><time>2026-04-26T14:10:25.759Z</time></trkpt><trkpt lat="42.430931" lon="14.1611538"><ele>23.0</ele><time>2026-04-26T14:10:26.759Z</time></trkpt><trkpt lat="42.4309445" lon="14.1610363"><ele>23.799999999999997</ele><time>2026-04-26T14:10:27.762Z</time></trkpt><trkpt lat="42.4309677" lon="14.1609203"><ele>24.6</ele><time>2026-04-26T14:10:28.761Z</time></trkpt><trkpt lat="42.4310045" lon="14.160805"><ele>25.400000000000002</ele><time>2026-04-26T14:10:29.759Z</time></trkpt><trkpt lat="42.4310467" lon="14.1606877"><ele>26.200000000000003</ele><time>2026-04-26T14:10:30.76Z</time></trkpt><trkpt lat="42.4310957" lon="14.1605713"><ele>27.0</ele><time>2026-04-26T14:10:31.759Z</time></trkpt><trkpt lat="42.4311462" lon="14.160453"><ele>27.0</ele><time>2026-04-26T14:10:32.758Z</time></trkpt><trkpt lat="42.431196" lon="14.1603322"><ele>27.000000000000004</ele><time>2026-04-26T14:10:33.759Z</time></trkpt><trkpt lat="42.4312475" lon="14.1602088"><ele>27.000000000000004</ele><time>2026-04-26T14:10:34.759Z</time></trkpt><trkpt lat="42.4313003" lon="14.1600828"><ele>27.0</ele><time>2026-04-26T14:10:35.761Z</time></trkpt><trkpt lat="42.4313552" lon="14.1599532"><ele>27.0</ele><time>2026-04-26T14:10:36.761Z</time></trkpt><trkpt lat="42.4314095" lon="14.1598208"><ele>28.25</ele><time>2026-04-26T14:10:37.759Z</time></trkpt><trkpt lat="42.4314652" lon="14.159684"><ele>29.5</ele><time>2026-04-26T14:10:38.756Z</time></trkpt><trkpt lat="42.4315213" lon="14.1595443"><ele>30.75</ele><time>2026-04-26T14:10:39.759Z</time></trkpt><trkpt lat="42.4315793" lon="14.1594013"><ele>32.0</ele><time>2026-04-26T14:10:40.76Z</time></trkpt><trkpt lat="42.4316388" lon="14.1592587"><ele>32.0</ele><time>2026-04-26T14:10:41.759Z</time></trkpt><trkpt lat="42.4316973" lon="14.1591183"><ele>32.0</ele><time>2026-04-26T14:10:42.76Z</time></trkpt><trkpt lat="42.4317565" lon="14.1589697"><ele>32.0</ele><time>2026-04-26T14:10:43.761Z</time></trkpt><trkpt lat="42.431822" lon="14.158809"><ele>32.0</ele><time>2026-04-26T14:10:44.761Z</time></trkpt><trkpt lat="42.431892" lon="14.1586437"><ele>32.25</ele><time>2026-04-26T14:10:45.761Z</time></trkpt><trkpt lat="42.4319637" lon="14.1584747"><ele>32.5</ele><time>2026-04-26T14:10:46.758Z</time></trkpt><trkpt lat="42.4320338" lon="14.1582997"><ele>32.75</ele><time>2026-04-26T14:10:47.759Z</time></trkpt><trkpt lat="42.4321105" lon="14.1581227"><ele>33.0</ele><time>2026-04-26T14:10:48.759Z</time></trkpt><trkpt lat="42.43219" lon="14.1579427"><ele>35.666666666666664</ele><time>2026-04-26T14:10:49.76Z</time></trkpt><trkpt lat="42.4322718" lon="14.1577603"><ele>38.33333333333333</ele><time>2026-04-26T14:10:50.762Z</time></trkpt><trkpt lat="42.4323585" lon="14.157585"><ele>41.0</ele><time>2026-04-26T14:10:51.761Z</time></trkpt><trkpt lat="42.4324573" lon="14.1574243"><ele>42.33333333333333</ele><time>2026-04-26T14:10:52.761Z</time></trkpt><trkpt lat="42.4325702" lon="14.1572783"><ele>43.666666666666664</ele><time>2026-04-26T14:10:53.758Z</time></trkpt><trkpt lat="42.4326933" lon="14.157142"><ele>45.0</ele><time>2026-04-26T14:10:54.762Z</time></trkpt><trkpt lat="42.4328248" lon="14.157013"><ele>45.0</ele><time>2026-04-26T14:10:55.76Z</time></trkpt><trkpt lat="42.4329602" lon="14.1568918"><ele>45.0</ele><time>2026-04-26T14:10:56.761Z</time></trkpt><trkpt lat="42.4330977" lon="14.1567775"><ele>45.0</ele><time>2026-04-26T14:10:57.761Z</time></trkpt><trkpt lat="42.433235" lon="14.1566647"><ele>46.66666666666667</ele><time>2026-04-26T14:10:58.761Z</time></trkpt><trkpt lat="42.4333725" lon="14.1565507"><ele>48.333333333333336</ele><time>2026-04-26T14:10:59.76Z</time></trkpt><trkpt lat="42.4335127" lon="14.1564382"><ele>50.0</ele><time>2026-04-26T14:11:00.762Z</time></trkpt><trkpt lat="42.4336553" lon="14.156327"><ele>50.66666666666667</ele><time>2026-04-26T14:11:01.762Z</time></trkpt><trkpt lat="42.4337997" lon="14.1562157"><ele>51.33333333333333</ele><time>2026-04-26T14:11:02.759Z</time></trkpt><trkpt lat="42.4339452" lon="14.1561042"><ele>52.0</ele><time>2026-04-26T14:11:03.757Z</time></trkpt><trkpt lat="42.4340927" lon="14.1559938"><ele>52.666666666666664</ele><time>2026-04-26T14:11:04.759Z</time></trkpt><trkpt lat="42.4342402" lon="14.1558827"><ele>53.33333333333333</ele><time>2026-04-26T14:11:05.758Z</time></trkpt><trkpt lat="42.4343875" lon="14.155772"><ele>54.0</ele><time>2026-04-26T14:11:06.761Z</time></trkpt><trkpt lat="42.4345335" lon="14.1556617"><ele>55.66666666666667</ele><time>2026-04-26T14:11:07.765Z</time></trkpt><trkpt lat="42.4346772" lon="14.1555497"><ele>57.333333333333336</ele><time>2026-04-26T14:11:08.761Z</time></trkpt><trkpt lat="42.4348222" lon="14.155436"><ele>59.0</ele><time>2026-04-26T14:11:09.762Z</time></trkpt><trkpt lat="42.434971" lon="14.155322"><ele>59.0</ele><time>2026-04-26T14:11:10.763Z</time></trkpt><trkpt lat="42.4351223" lon="14.155209"><ele>59.0</ele><time>2026-04-26T14:11:11.76Z</time></trkpt><trkpt lat="42.4352753" lon="14.1550938"><ele>59.0</ele><time>2026-04-26T14:11:12.761Z</time></trkpt><trkpt lat="42.4354303" lon="14.154978"><ele>60.333333333333336</ele><time>2026-04-26T14:11:13.761Z</time></trkpt><trkpt lat="42.4355872" lon="14.1548612"><ele>61.66666666666667</ele><time>2026-04-26T14:11:14.761Z</time></trkpt><trkpt lat="42.4357445" lon="14.1547412"><ele>63.0</ele><time>2026-04-26T14:11:15.761Z</time></trkpt><trkpt lat="42.4359013" lon="14.1546187"><ele>63.0</ele><time>2026-04-26T14:11:16.762Z</time></trkpt><trkpt lat="42.4360572" lon="14.1544932"><ele>63.0</ele><time>2026-04-26T14:11:17.76Z</time></trkpt><trkpt lat="42.4362112" lon="14.1543643"><ele>63.0</ele><time>2026-04-26T14:11:18.763Z</time></trkpt><trkpt lat="42.4363632" lon="14.1542345"><ele>63.33333333333333</ele><time>2026-04-26T14:11:19.761Z</time></trkpt><trkpt lat="42.436513" lon="14.1541057"><ele>63.666666666666664</ele><time>2026-04-26T14:11:20.762Z</time></trkpt><trkpt lat="42.4366615" lon="14.153977"><ele>64.0</ele><time>2026-04-26T14:11:21.761Z</time></trkpt><trkpt lat="42.4368077" lon="14.153848"><ele>65.66666666666666</ele><time>2026-04-26T14:11:22.76Z</time></trkpt><trkpt lat="42.4369528" lon="14.1537198"><ele>67.33333333333333</ele><time>2026-04-26T14:11:23.762Z</time></trkpt><trkpt lat="42.4370965" lon="14.1535957"><ele>69.0</ele><time>2026-04-26T14:11:24.763Z</time></trkpt><trkpt lat="42.4372322" lon="14.1534875"><ele>69.0</ele><time>2026-04-26T14:11:25.761Z</time></trkpt><trkpt lat="42.4373638" lon="14.1533953"><ele>69.0</ele><time>2026-04-26T14:11:26.762Z</time></trkpt><trkpt lat="42.4375012" lon="14.153315"><ele>69.0</ele><time>2026-04-26T14:11:27.762Z</time></trkpt><trkpt lat="42.4376482" lon="14.1532552"><ele>68.0</ele><time>2026-04-26T14:11:28.758Z</time></trkpt><trkpt lat="42.4379568" lon="14.1531717"><ele>67.0</ele><time>2026-04-26T14:11:30.759Z</time></trkpt><trkpt lat="42.4382507" lon="14.1530485"><ele>65.66666666666666</ele><time>2026-04-26T14:11:32.761Z</time></trkpt><trkpt lat="42.4383932" lon="14.1529545"><ele>64.33333333333333</ele><time>2026-04-26T14:11:33.763Z</time></trkpt><trkpt lat="42.4385308" lon="14.1528388"><ele>63.0</ele><time>2026-04-26T14:11:34.76Z</time></trkpt><trkpt lat="42.4386637" lon="14.1527065"><ele>63.0</ele><time>2026-04-26T14:11:35.76Z</time></trkpt><trkpt lat="42.4387897" lon="14.1525578"><ele>63.0</ele><time>2026-04-26T14:11:36.765Z</time></trkpt><trkpt lat="42.4389093" lon="14.1523958"><ele>63.0</ele><time>2026-04-26T14:11:37.761Z</time></trkpt><trkpt lat="42.4390242" lon="14.1522255"><ele>66.33333333333333</ele><time>2026-04-26T14:11:38.762Z</time></trkpt><trkpt lat="42.439139" lon="14.1520555"><ele>69.66666666666666</ele><time>2026-04-26T14:11:39.761Z</time></trkpt><trkpt lat="42.4392588" lon="14.1518978"><ele>73.0</ele><time>2026-04-26T14:11:40.761Z</time></trkpt><trkpt lat="42.4393855" lon="14.1517568"><ele>73.0</ele><time>2026-04-26T14:11:41.76Z</time></trkpt><trkpt lat="42.4395208" lon="14.151638"><ele>73.0</ele><time>2026-04-26T14:11:42.762Z</time></trkpt><trkpt lat="42.4396657" lon="14.151542"><ele>73.0</ele><time>2026-04-26T14:11:43.76Z</time></trkpt><trkpt lat="42.4398173" lon="14.1514618"><ele>74.0</ele><time>2026-04-26T14:11:44.761Z</time></trkpt><trkpt lat="42.4399725" lon="14.1513845"><ele>75.0</ele><time>2026-04-26T14:11:45.762Z</time></trkpt><trkpt lat="42.440127" lon="14.1513012"><ele>76.0</ele><time>2026-04-26T14:11:46.765Z</time></trkpt><trkpt lat="42.4402757" lon="14.1512033"><ele>76.0</ele><time>2026-04-26T14:11:47.76Z</time></trkpt><trkpt lat="42.4404183" lon="14.1510915"><ele>76.0</ele><time>2026-04-26T14:11:48.761Z</time></trkpt><trkpt lat="42.4405643" lon="14.150991"><ele>76.0</ele><time>2026-04-26T14:11:49.762Z</time></trkpt><trkpt lat="42.4407155" lon="14.1509075"><ele>80.0</ele><time>2026-04-26T14:11:50.762Z</time></trkpt><trkpt lat="42.4408652" lon="14.1508443"><ele>84.0</ele><time>2026-04-26T14:11:51.758Z</time></trkpt><trkpt lat="42.441013" lon="14.150811"><ele>88.0</ele><time>2026-04-26T14:11:52.757Z</time></trkpt><trkpt lat="42.4411613" lon="14.1508072"><ele>89.0</ele><time>2026-04-26T14:11:53.758Z</time></trkpt><trkpt lat="42.4413105" lon="14.1508328"><ele>90.0</ele><time>2026-04-26T14:11:54.758Z</time></trkpt><trkpt lat="42.4414643" lon="14.150884"><ele>91.0</ele><time>2026-04-26T14:11:55.759Z</time></trkpt><trkpt lat="42.441618" lon="14.1509212"><ele>91.0</ele><time>2026-04-26T14:11:56.758Z</time></trkpt><trkpt lat="42.4417793" lon="14.1509305"><ele>91.0</ele><time>2026-04-26T14:11:57.761Z</time></trkpt><trkpt lat="42.4419408" lon="14.1509053"><ele>91.0</ele><time>2026-04-26T14:11:58.762Z</time></trkpt><trkpt lat="42.442085" lon="14.1508442"><ele>91.75</ele><time>2026-04-26T14:11:59.76Z</time></trkpt><trkpt lat="42.4422047" lon="14.1507523"><ele>92.5</ele><time>2026-04-26T14:12:00.762Z</time></trkpt><trkpt lat="42.4422918" lon="14.1506357"><ele>93.25</ele><time>2026-04-26T14:12:01.762Z</time></trkpt><trkpt lat="42.4423547" lon="14.1504917"><ele>94.0</ele><time>2026-04-26T14:12:02.763Z</time></trkpt><trkpt lat="42.4423988" lon="14.1503203"><ele>94.0</ele><time>2026-04-26T14:12:03.761Z</time></trkpt><trkpt lat="42.4424353" lon="14.1501275"><ele>94.0</ele><time>2026-04-26T14:12:04.761Z</time></trkpt><trkpt lat="42.442478" lon="14.1499247"><ele>94.0</ele><time>2026-04-26T14:12:05.763Z</time></trkpt><trkpt lat="42.4425288" lon="14.1497152"><ele>95.33333333333333</ele><time>2026-04-26T14:12:06.761Z</time></trkpt><trkpt lat="42.4425862" lon="14.149503"><ele>96.66666666666666</ele><time>2026-04-26T14:12:07.762Z</time></trkpt><trkpt lat="42.4426497" lon="14.1492938"><ele>98.0</ele><time>2026-04-26T14:12:08.761Z</time></trkpt><trkpt lat="42.4427202" lon="14.149091"><ele>100.0</ele><time>2026-04-26T14:12:09.759Z</time></trkpt><trkpt lat="42.4428027" lon="14.1488962"><ele>102.0</ele><time>2026-04-26T14:12:10.759Z</time></trkpt><trkpt lat="42.4428983" lon="14.1487112"><ele>104.0</ele><time>2026-04-26T14:12:11.759Z</time></trkpt><trkpt lat="42.4430038" lon="14.1485368"><ele>104.0</ele><time>2026-04-26T14:12:12.761Z</time></trkpt><trkpt lat="42.443116" lon="14.1483672"><ele>104.0</ele><time>2026-04-26T14:12:13.759Z</time></trkpt><trkpt lat="42.443233" lon="14.1481982"><ele>104.0</ele><time>2026-04-26T14:12:14.76Z</time></trkpt><trkpt lat="42.4433538" lon="14.1480292"><ele>109.0</ele><time>2026-04-26T14:12:15.759Z</time></trkpt><trkpt lat="42.443478" lon="14.1478637"><ele>114.0</ele><time>2026-04-26T14:12:16.76Z</time></trkpt><trkpt lat="42.4436053" lon="14.147713"><ele>119.0</ele><time>2026-04-26T14:12:17.758Z</time></trkpt><trkpt lat="42.443742" lon="14.1475923"><ele>117.33333333333333</ele><time>2026-04-26T14:12:18.757Z</time></trkpt><trkpt lat="42.4438888" lon="14.1475068"><ele>115.66666666666666</ele><time>2026-04-26T14:12:19.758Z</time></trkpt><trkpt lat="42.444041" lon="14.147456"><ele>114.0</ele><time>2026-04-26T14:12:20.76Z</time></trkpt><trkpt lat="42.44418" lon="14.147416"><ele>116.0</ele><time>2026-04-26T14:12:21.76Z</time></trkpt><trkpt lat="42.4442987" lon="14.1473668"><ele>118.0</ele><time>2026-04-26T14:12:22.761Z</time></trkpt><trkpt lat="42.4443962" lon="14.1472918"><ele>120.0</ele><time>2026-04-26T14:12:23.761Z</time></trkpt><trkpt lat="42.4444735" lon="14.1471902"><ele>122.0</ele><time>2026-04-26T14:12:24.761Z</time></trkpt><trkpt lat="42.444531" lon="14.1470805"><ele>124.0</ele><time>2026-04-26T14:12:25.759Z</time></trkpt><trkpt lat="42.444576" lon="14.1469823"><ele>124.0</ele><time>2026-04-26T14:12:26.761Z</time></trkpt><trkpt lat="42.4446257" lon="14.1468893"><ele>124.0</ele><time>2026-04-26T14:12:27.759Z</time></trkpt><trkpt lat="42.4446862" lon="14.1467873"><ele>124.0</ele><time>2026-04-26T14:12:28.76Z</time></trkpt><trkpt lat="42.444756" lon="14.1466748"><ele>124.0</ele><time>2026-04-26T14:12:29.76Z</time></trkpt><trkpt lat="42.4448327" lon="14.146547"><ele>124.0</ele><time>2026-04-26T14:12:30.761Z</time></trkpt><trkpt lat="42.4449155" lon="14.1464033"><ele>124.66666666666667</ele><time>2026-04-26T14:12:31.758Z</time></trkpt><trkpt lat="42.4450047" lon="14.1462475"><ele>125.33333333333334</ele><time>2026-04-26T14:12:32.76Z</time></trkpt><trkpt lat="42.4450993" lon="14.1460813"><ele>126.0</ele><time>2026-04-26T14:12:33.76Z</time></trkpt><trkpt lat="42.4451987" lon="14.1459053"><ele>126.0</ele><time>2026-04-26T14:12:34.76Z</time></trkpt><trkpt lat="42.4453013" lon="14.145728"><ele>126.0</ele><time>2026-04-26T14:12:35.76Z</time></trkpt><trkpt lat="42.4454105" lon="14.1455545"><ele>126.0</ele><time>2026-04-26T14:12:36.764Z</time></trkpt><trkpt lat="42.4455278" lon="14.1453932"><ele>124.0</ele><time>2026-04-26T14:12:37.76Z</time></trkpt><trkpt lat="42.4456565" lon="14.1452468"><ele>122.0</ele><time>2026-04-26T14:12:38.759Z</time></trkpt><trkpt lat="42.445796" lon="14.145116"><ele>120.0</ele><time>2026-04-26T14:12:39.76Z</time></trkpt><trkpt lat="42.4459432" lon="14.145002"><ele>120.0</ele><time>2026-04-26T14:12:40.758Z</time></trkpt><trkpt lat="42.4460952" lon="14.1449007"><ele>120.0</ele><time>2026-04-26T14:12:41.759Z</time></trkpt><trkpt lat="42.446252" lon="14.144811"><ele>120.0</ele><time>2026-04-26T14:12:42.759Z</time></trkpt><trkpt lat="42.4464117" lon="14.144735"><ele>120.33333333333334</ele><time>2026-04-26T14:12:43.759Z</time></trkpt><trkpt lat="42.446576" lon="14.1446797"><ele>120.66666666666667</ele><time>2026-04-26T14:12:44.759Z</time></trkpt><trkpt lat="42.4467413" lon="14.144632"><ele>121.0</ele><time>2026-04-26T14:12:45.759Z</time></trkpt><trkpt lat="42.4469033" lon="14.1445833"><ele>121.0</ele><time>2026-04-26T14:12:46.76Z</time></trkpt><trkpt lat="42.4470567" lon="14.1445423"><ele>121.0</ele><time>2026-04-26T14:12:47.761Z</time></trkpt><trkpt lat="42.447194" lon="14.1445187"><ele>121.0</ele><time>2026-04-26T14:12:48.761Z</time></trkpt><trkpt lat="42.4473155" lon="14.1445278"><ele>121.0</ele><time>2026-04-26T14:12:49.762Z</time></trkpt><trkpt lat="42.4474137" lon="14.1445743"><ele>122.0</ele><time>2026-04-26T14:12:50.761Z</time></trkpt><trkpt lat="42.4474845" lon="14.1446543"><ele>123.0</ele><time>2026-04-26T14:12:51.762Z</time></trkpt><trkpt lat="42.4475295" lon="14.1447638"><ele>124.0</ele><time>2026-04-26T14:12:52.76Z</time></trkpt><trkpt lat="42.4475552" lon="14.1448993"><ele>125.0</ele><time>2026-04-26T14:12:53.758Z</time></trkpt><trkpt lat="42.4475675" lon="14.1450533"><ele>126.0</ele><time>2026-04-26T14:12:54.76Z</time></trkpt><trkpt lat="42.4475745" lon="14.1452225"><ele>126.25</ele><time>2026-04-26T14:12:55.759Z</time></trkpt><trkpt lat="42.447583" lon="14.1453937"><ele>126.5</ele><time>2026-04-26T14:12:56.758Z</time></trkpt><trkpt lat="42.4475977" lon="14.1455428"><ele>126.75</ele><time>2026-04-26T14:12:57.759Z</time></trkpt><trkpt lat="42.4476268" lon="14.1456822"><ele>127.0</ele><time>2026-04-26T14:12:58.76Z</time></trkpt><trkpt lat="42.4476755" lon="14.1458147"><ele>127.5</ele><time>2026-04-26T14:12:59.76Z</time></trkpt><trkpt lat="42.4477445" lon="14.1459375"><ele>128.0</ele><time>2026-04-26T14:13:00.762Z</time></trkpt><trkpt lat="42.447831" lon="14.1460518"><ele>128.5</ele><time>2026-04-26T14:13:01.762Z</time></trkpt><trkpt lat="42.4479325" lon="14.146157"><ele>129.0</ele><time>2026-04-26T14:13:02.763Z</time></trkpt><trkpt lat="42.4480467" lon="14.1462487"><ele>132.25</ele><time>2026-04-26T14:13:03.761Z</time></trkpt><trkpt lat="42.4481717" lon="14.14633"><ele>135.5</ele><time>2026-04-26T14:13:04.757Z</time></trkpt><trkpt lat="42.4483083" lon="14.1463932"><ele>138.75</ele><time>2026-04-26T14:13:05.759Z</time></trkpt><trkpt lat="42.4484458" lon="14.1464395"><ele>142.0</ele><time>2026-04-26T14:13:06.756Z</time></trkpt><trkpt lat="42.4485788" lon="14.1464643"><ele>142.0</ele><time>2026-04-26T14:13:07.757Z</time></trkpt><trkpt lat="42.448708" lon="14.1464615"><ele>142.0</ele><time>2026-04-26T14:13:08.758Z</time></trkpt><trkpt lat="42.4488317" lon="14.1464295"><ele>142.0</ele><time>2026-04-26T14:13:09.759Z</time></trkpt><trkpt lat="42.4489453" lon="14.1463693"><ele>142.0</ele><time>2026-04-26T14:13:10.759Z</time></trkpt><trkpt lat="42.449049" lon="14.1462818"><ele>142.5</ele><time>2026-04-26T14:13:11.76Z</time></trkpt><trkpt lat="42.4491418" lon="14.1461675"><ele>143.0</ele><time>2026-04-26T14:13:12.759Z</time></trkpt><trkpt lat="42.449228" lon="14.1460312"><ele>143.5</ele><time>2026-04-26T14:13:13.76Z</time></trkpt><trkpt lat="42.4493117" lon="14.145881"><ele>144.0</ele><time>2026-04-26T14:13:14.76Z</time></trkpt><trkpt lat="42.4494002" lon="14.1457238"><ele>141.33333333333334</ele><time>2026-04-26T14:13:15.761Z</time></trkpt><trkpt lat="42.4494887" lon="14.145561"><ele>138.66666666666669</ele><time>2026-04-26T14:13:16.76Z</time></trkpt><trkpt lat="42.4495742" lon="14.1453907"><ele>136.0</ele><time>2026-04-26T14:13:17.759Z</time></trkpt><trkpt lat="42.4496542" lon="14.1452125"><ele>136.0</ele><time>2026-04-26T14:13:18.76Z</time></trkpt><trkpt lat="42.4497285" lon="14.145028"><ele>136.0</ele><time>2026-04-26T14:13:19.76Z</time></trkpt><trkpt lat="42.4497965" lon="14.1448377"><ele>136.0</ele><time>2026-04-26T14:13:20.759Z</time></trkpt><trkpt lat="42.4498558" lon="14.1446417"><ele>136.66666666666669</ele><time>2026-04-26T14:13:21.758Z</time></trkpt><trkpt lat="42.4499012" lon="14.144439"><ele>137.33333333333334</ele><time>2026-04-26T14:13:22.761Z</time></trkpt><trkpt lat="42.4499292" lon="14.1442297"><ele>138.0</ele><time>2026-04-26T14:13:23.762Z</time></trkpt><trkpt lat="42.4499375" lon="14.1440163"><ele>138.0</ele><time>2026-04-26T14:13:24.76Z</time></trkpt><trkpt lat="42.4499302" lon="14.1437998"><ele>138.0</ele><time>2026-04-26T14:13:25.76Z</time></trkpt><trkpt lat="42.4499175" lon="14.1435832"><ele>138.0</ele><time>2026-04-26T14:13:26.76Z</time></trkpt><trkpt lat="42.4498987" lon="14.1433683"><ele>137.66666666666666</ele><time>2026-04-26T14:13:27.761Z</time></trkpt><trkpt lat="42.4498712" lon="14.1431552"><ele>137.33333333333331</ele><time>2026-04-26T14:13:28.762Z</time></trkpt><trkpt lat="42.4498287" lon="14.1429492"><ele>137.0</ele><time>2026-04-26T14:13:29.758Z</time></trkpt><trkpt lat="42.449769" lon="14.1427515"><ele>137.0</ele><time>2026-04-26T14:13:30.756Z</time></trkpt><trkpt lat="42.4497057" lon="14.1425632"><ele>137.0</ele><time>2026-04-26T14:13:31.756Z</time></trkpt><trkpt lat="42.4496462" lon="14.1423892"><ele>137.0</ele><time>2026-04-26T14:13:32.755Z</time></trkpt><trkpt lat="42.4495942" lon="14.1422285"><ele>137.0</ele><time>2026-04-26T14:13:33.757Z</time></trkpt><trkpt lat="42.4495622" lon="14.1420837"><ele>137.5</ele><time>2026-04-26T14:13:34.759Z</time></trkpt><trkpt lat="42.4495628" lon="14.141954"><ele>138.0</ele><time>2026-04-26T14:13:35.759Z</time></trkpt><trkpt lat="42.4495887" lon="14.1418495"><ele>138.5</ele><time>2026-04-26T14:13:36.759Z</time></trkpt><trkpt lat="42.4496315" lon="14.141771"><ele>139.0</ele><time>2026-04-26T14:13:37.761Z</time></trkpt><trkpt lat="42.4496905" lon="14.1417077"><ele>139.5</ele><time>2026-04-26T14:13:38.758Z</time></trkpt><trkpt lat="42.449762" lon="14.1416473"><ele>140.0</ele><time>2026-04-26T14:13:39.76Z</time></trkpt><trkpt lat="42.4498428" lon="14.1415843"><ele>141.25</ele><time>2026-04-26T14:13:40.758Z</time></trkpt><trkpt lat="42.449935" lon="14.1415193"><ele>142.5</ele><time>2026-04-26T14:13:41.758Z</time></trkpt><trkpt lat="42.4500397" lon="14.1414618"><ele>143.75</ele><time>2026-04-26T14:13:42.759Z</time></trkpt><trkpt lat="42.450156" lon="14.1414092"><ele>145.0</ele><time>2026-04-26T14:13:43.759Z</time></trkpt><trkpt lat="42.4502777" lon="14.1413573"><ele>145.0</ele><time>2026-04-26T14:13:44.757Z</time></trkpt><trkpt lat="42.4503995" lon="14.1413053"><ele>145.0</ele><time>2026-04-26T14:13:45.758Z</time></trkpt><trkpt lat="42.4505183" lon="14.1412575"><ele>145.0</ele><time>2026-04-26T14:13:46.758Z</time></trkpt><trkpt lat="42.4506387" lon="14.1412148"><ele>145.0</ele><time>2026-04-26T14:13:47.756Z</time></trkpt><trkpt lat="42.4507645" lon="14.1411763"><ele>146.25</ele><time>2026-04-26T14:13:48.756Z</time></trkpt><trkpt lat="42.4508935" lon="14.1411342"><ele>147.5</ele><time>2026-04-26T14:13:49.756Z</time></trkpt><trkpt lat="42.4510265" lon="14.1410888"><ele>148.75</ele><time>2026-04-26T14:13:50.757Z</time></trkpt><trkpt lat="42.4511692" lon="14.1410403"><ele>150.0</ele><time>2026-04-26T14:13:51.757Z</time></trkpt><trkpt lat="42.4513168" lon="14.1409972"><ele>150.5</ele><time>2026-04-26T14:13:52.755Z</time></trkpt><trkpt lat="42.4514527" lon="14.1409608"><ele>151.0</ele><time>2026-04-26T14:13:53.756Z</time></trkpt><trkpt lat="42.4515738" lon="14.1409313"><ele>151.5</ele><time>2026-04-26T14:13:54.753Z</time></trkpt><trkpt lat="42.4516935" lon="14.1409047"><ele>152.0</ele><time>2026-04-26T14:13:55.755Z</time></trkpt><trkpt lat="42.4518115" lon="14.1408817"><ele>152.0</ele><time>2026-04-26T14:13:56.756Z</time></trkpt><trkpt lat="42.4519288" lon="14.14086"><ele>152.0</ele><time>2026-04-26T14:13:57.758Z</time></trkpt><trkpt lat="42.4520422" lon="14.140838"><ele>152.0</ele><time>2026-04-26T14:13:58.76Z</time></trkpt><trkpt lat="42.4521477" lon="14.1408165"><ele>152.0</ele><time>2026-04-26T14:13:59.764Z</time></trkpt><trkpt lat="42.4522423" lon="14.140798"><ele>152.0</ele><time>2026-04-26T14:14:00.762Z</time></trkpt><trkpt lat="42.4523327" lon="14.1407828"><ele>152.0</ele><time>2026-04-26T14:14:01.76Z</time></trkpt><trkpt lat="42.4524185" lon="14.1407673"><ele>152.0</ele><time>2026-04-26T14:14:02.76Z</time></trkpt><trkpt lat="42.4525023" lon="14.1407487"><ele>152.0</ele><time>2026-04-26T14:14:03.76Z</time></trkpt><trkpt lat="42.4525833" lon="14.1407303"><ele>152.0</ele><time>2026-04-26T14:14:04.76Z</time></trkpt><trkpt lat="42.4526652" lon="14.1407115"><ele>152.0</ele><time>2026-04-26T14:14:05.76Z</time></trkpt><trkpt lat="42.452748" lon="14.1406917"><ele>152.0</ele><time>2026-04-26T14:14:06.76Z</time></trkpt><trkpt lat="42.4528338" lon="14.140668"><ele>152.0</ele><time>2026-04-26T14:14:07.759Z</time></trkpt><trkpt lat="42.4529115" lon="14.1406432"><ele>152.0</ele><time>2026-04-26T14:14:08.759Z</time></trkpt><trkpt lat="42.452975" lon="14.1406212"><ele>152.0</ele><time>2026-04-26T14:14:09.761Z</time></trkpt><trkpt lat="42.453047" lon="14.1405923"><ele>152.0</ele><time>2026-04-26T14:14:10.759Z</time></trkpt><trkpt lat="42.4531345" lon="14.14055"><ele>152.0</ele><time>2026-04-26T14:14:11.759Z</time></trkpt><trkpt lat="42.4532347" lon="14.140496"><ele>152.0</ele><time>2026-04-26T14:14:12.76Z</time></trkpt><trkpt lat="42.4533432" lon="14.1404315"><ele>156.25</ele><time>2026-04-26T14:14:13.758Z</time></trkpt><trkpt lat="42.4534562" lon="14.1403668"><ele>160.5</ele><time>2026-04-26T14:14:14.759Z</time></trkpt><trkpt lat="42.4535713" lon="14.1402987"><ele>164.75</ele><time>2026-04-26T14:14:15.759Z</time></trkpt><trkpt lat="42.4536882" lon="14.1402257"><ele>169.0</ele><time>2026-04-26T14:14:16.76Z</time></trkpt><trkpt lat="42.4537982" lon="14.1401378"><ele>169.75</ele><time>2026-04-26T14:14:17.76Z</time></trkpt><trkpt lat="42.4538948" lon="14.1400238"><ele>170.5</ele><time>2026-04-26T14:14:18.756Z</time></trkpt><trkpt lat="42.4539782" lon="14.1398868"><ele>171.25</ele><time>2026-04-26T14:14:19.756Z</time></trkpt><trkpt lat="42.4540527" lon="14.1397382"><ele>172.0</ele><time>2026-04-26T14:14:20.757Z</time></trkpt><trkpt lat="42.4541222" lon="14.1395908"><ele>172.39999999999998</ele><time>2026-04-26T14:14:21.754Z</time></trkpt><trkpt lat="42.4541892" lon="14.1394523"><ele>172.79999999999998</ele><time>2026-04-26T14:14:22.756Z</time></trkpt><trkpt lat="42.4542492" lon="14.1393308"><ele>173.2</ele><time>2026-04-26T14:14:23.758Z</time></trkpt><trkpt lat="42.454305" lon="14.1392232"><ele>173.6</ele><time>2026-04-26T14:14:24.759Z</time></trkpt><trkpt lat="42.4543553" lon="14.1391302"><ele>174.0</ele><time>2026-04-26T14:14:25.76Z</time></trkpt><trkpt lat="42.4543972" lon="14.1390508"><ele>173.83333333333334</ele><time>2026-04-26T14:14:26.76Z</time></trkpt><trkpt lat="42.4544353" lon="14.1389758"><ele>173.66666666666666</ele><time>2026-04-26T14:14:27.761Z</time></trkpt><trkpt lat="42.4544763" lon="14.1388985"><ele>173.5</ele><time>2026-04-26T14:14:28.759Z</time></trkpt><trkpt lat="42.4545212" lon="14.1388203"><ele>173.33333333333331</ele><time>2026-04-26T14:14:29.76Z</time></trkpt><trkpt lat="42.4545668" lon="14.1387425"><ele>173.16666666666666</ele><time>2026-04-26T14:14:30.76Z</time></trkpt><trkpt lat="42.4546077" lon="14.138674"><ele>173.0</ele><time>2026-04-26T14:14:31.758Z</time></trkpt><trkpt lat="42.4546792" lon="14.138557"><ele>173.0</ele><time>2026-04-26T14:14:33.758Z</time></trkpt><trkpt lat="42.4547205" lon="14.1384902"><ele>173.0</ele><time>2026-04-26T14:14:34.758Z</time></trkpt><trkpt lat="42.4547678" lon="14.1384137"><ele>173.0</ele><time>2026-04-26T14:14:35.758Z</time></trkpt><trkpt lat="42.4548188" lon="14.1383312"><ele>173.0</ele><time>2026-04-26T14:14:36.758Z</time></trkpt><trkpt lat="42.4548678" lon="14.138246"><ele>173.0</ele><time>2026-04-26T14:14:37.76Z</time></trkpt><trkpt lat="42.454912" lon="14.1381643"><ele>173.0</ele><time>2026-04-26T14:14:38.757Z</time></trkpt><trkpt lat="42.4549562" lon="14.1380757"><ele>172.5</ele><time>2026-04-26T14:14:39.762Z</time></trkpt><trkpt lat="42.4549912" lon="14.137988"><ele>172.0</ele><time>2026-04-26T14:14:40.758Z</time></trkpt><trkpt lat="42.455019" lon="14.13789"><ele>171.5</ele><time>2026-04-26T14:14:41.757Z</time></trkpt><trkpt lat="42.455036" lon="14.1377805"><ele>171.0</ele><time>2026-04-26T14:14:42.757Z</time></trkpt><trkpt lat="42.4550452" lon="14.1376625"><ele>170.5</ele><time>2026-04-26T14:14:43.754Z</time></trkpt><trkpt lat="42.4550433" lon="14.1375452"><ele>170.0</ele><time>2026-04-26T14:14:44.754Z</time></trkpt><trkpt lat="42.4550427" lon="14.137434"><ele>170.5</ele><time>2026-04-26T14:14:45.757Z</time></trkpt><trkpt lat="42.4550395" lon="14.1373303"><ele>171.0</ele><time>2026-04-26T14:14:46.756Z</time></trkpt><trkpt lat="42.4550362" lon="14.1372282"><ele>171.5</ele><time>2026-04-26T14:14:47.759Z</time></trkpt><trkpt lat="42.4550353" lon="14.1371227"><ele>172.0</ele><time>2026-04-26T14:14:48.76Z</time></trkpt><trkpt lat="42.4550338" lon="14.1370142"><ele>172.5</ele><time>2026-04-26T14:14:49.759Z</time></trkpt><trkpt lat="42.4550323" lon="14.136911"><ele>173.0</ele><time>2026-04-26T14:14:50.758Z</time></trkpt><trkpt lat="42.4550303" lon="14.1368223"><ele>173.0</ele><time>2026-04-26T14:14:51.758Z</time></trkpt><trkpt lat="42.4550313" lon="14.136689"><ele>173.0</ele><time>2026-04-26T14:14:53.759Z</time></trkpt><trkpt lat="42.4550433" lon="14.1365802"><ele>173.0</ele><time>2026-04-26T14:14:55.759Z</time></trkpt><trkpt lat="42.4550965" lon="14.1364817"><ele>173.0</ele><time>2026-04-26T14:14:57.759Z</time></trkpt><trkpt lat="42.455182" lon="14.1364288"><ele>173.0</ele><time>2026-04-26T14:14:59.756Z</time></trkpt><trkpt lat="42.455289" lon="14.1363815"><ele>174.16666666666666</ele><time>2026-04-26T14:15:01.757Z</time></trkpt><trkpt lat="42.4554037" lon="14.1363197"><ele>175.33333333333331</ele><time>2026-04-26T14:15:03.756Z</time></trkpt><trkpt lat="42.4554622" lon="14.136285"><ele>176.5</ele><time>2026-04-26T14:15:04.757Z</time></trkpt><trkpt lat="42.4555242" lon="14.1362448"><ele>177.66666666666666</ele><time>2026-04-26T14:15:05.759Z</time></trkpt><trkpt lat="42.4555845" lon="14.1362077"><ele>178.83333333333334</ele><time>2026-04-26T14:15:06.759Z</time></trkpt><trkpt lat="42.4556508" lon="14.1361663"><ele>180.0</ele><time>2026-04-26T14:15:07.758Z</time></trkpt><trkpt lat="42.4557145" lon="14.1361278"><ele>180.0</ele><time>2026-04-26T14:15:08.755Z</time></trkpt><trkpt lat="42.4557815" lon="14.1360848"><ele>180.0</ele><time>2026-04-26T14:15:09.76Z</time></trkpt><trkpt lat="42.4558595" lon="14.136023"><ele>180.0</ele><time>2026-04-26T14:15:10.758Z</time></trkpt><trkpt lat="42.4559425" lon="14.135939"><ele>180.0</ele><time>2026-04-26T14:15:11.757Z</time></trkpt><trkpt lat="42.4560232" lon="14.1358315"><ele>180.0</ele><time>2026-04-26T14:15:12.76Z</time></trkpt><trkpt lat="42.456093" lon="14.1357055"><ele>183.5</ele><time>2026-04-26T14:15:13.758Z</time></trkpt><trkpt lat="42.4561567" lon="14.1355558"><ele>187.0</ele><time>2026-04-26T14:15:14.762Z</time></trkpt><trkpt lat="42.4562155" lon="14.1353848"><ele>190.5</ele><time>2026-04-26T14:15:15.759Z</time></trkpt><trkpt lat="42.456274" lon="14.1351998"><ele>194.0</ele><time>2026-04-26T14:15:16.759Z</time></trkpt><trkpt lat="42.4563335" lon="14.1350045"><ele>185.33333333333334</ele><time>2026-04-26T14:15:17.759Z</time></trkpt><trkpt lat="42.4563947" lon="14.1348017"><ele>176.66666666666669</ele><time>2026-04-26T14:15:18.762Z</time></trkpt><trkpt lat="42.4564595" lon="14.1345948"><ele>168.0</ele><time>2026-04-26T14:15:19.758Z</time></trkpt><trkpt lat="42.4565273" lon="14.1343882"><ele>168.0</ele><time>2026-04-26T14:15:20.76Z</time></trkpt><trkpt lat="42.4565913" lon="14.1341887"><ele>168.0</ele><time>2026-04-26T14:15:21.76Z</time></trkpt><trkpt lat="42.456649" lon="14.1339947"><ele>168.0</ele><time>2026-04-26T14:15:22.762Z</time></trkpt><trkpt lat="42.4566985" lon="14.1337965"><ele>168.0</ele><time>2026-04-26T14:15:23.76Z</time></trkpt><trkpt lat="42.4567375" lon="14.1335993"><ele>168.0</ele><time>2026-04-26T14:15:24.765Z</time></trkpt><trkpt lat="42.4567703" lon="14.1333982"><ele>168.0</ele><time>2026-04-26T14:15:25.761Z</time></trkpt><trkpt lat="42.4567995" lon="14.1331935"><ele>167.33333333333334</ele><time>2026-04-26T14:15:26.76Z</time></trkpt><trkpt lat="42.456828" lon="14.1329857"><ele>166.66666666666669</ele><time>2026-04-26T14:15:27.759Z</time></trkpt><trkpt lat="42.4568622" lon="14.1327778"><ele>166.0</ele><time>2026-04-26T14:15:28.761Z</time></trkpt><trkpt lat="42.4569088" lon="14.1325733"><ele>166.0</ele><time>2026-04-26T14:15:29.761Z</time></trkpt><trkpt lat="42.4569683" lon="14.1323722"><ele>166.0</ele><time>2026-04-26T14:15:30.761Z</time></trkpt><trkpt lat="42.4570398" lon="14.132175"><ele>166.0</ele><time>2026-04-26T14:15:31.758Z</time></trkpt><trkpt lat="42.4571202" lon="14.1319817"><ele>164.0</ele><time>2026-04-26T14:15:32.756Z</time></trkpt><trkpt lat="42.4572035" lon="14.1317877"><ele>162.0</ele><time>2026-04-26T14:15:33.754Z</time></trkpt><trkpt lat="42.4572892" lon="14.1315937"><ele>160.0</ele><time>2026-04-26T14:15:34.754Z</time></trkpt><trkpt lat="42.4573737" lon="14.1313963"><ele>160.0</ele><time>2026-04-26T14:15:35.756Z</time></trkpt><trkpt lat="42.4574573" lon="14.1312"><ele>160.0</ele><time>2026-04-26T14:15:36.759Z</time></trkpt><trkpt lat="42.457539" lon="14.1310135"><ele>160.0</ele><time>2026-04-26T14:15:37.76Z</time></trkpt><trkpt lat="42.4576277" lon="14.1308403"><ele>160.33333333333334</ele><time>2026-04-26T14:15:38.764Z</time></trkpt><trkpt lat="42.4577325" lon="14.13068"><ele>160.66666666666666</ele><time>2026-04-26T14:15:39.76Z</time></trkpt><trkpt lat="42.457852" lon="14.1305337"><ele>161.0</ele><time>2026-04-26T14:15:40.761Z</time></trkpt><trkpt lat="42.4579788" lon="14.130398"><ele>160.0</ele><time>2026-04-26T14:15:41.761Z</time></trkpt><trkpt lat="42.4581032" lon="14.1302663"><ele>159.0</ele><time>2026-04-26T14:15:42.761Z</time></trkpt><trkpt lat="42.4582217" lon="14.1301278"><ele>158.0</ele><time>2026-04-26T14:15:43.76Z</time></trkpt><trkpt lat="42.4583268" lon="14.1299858"><ele>158.5</ele><time>2026-04-26T14:15:44.757Z</time></trkpt><trkpt lat="42.4584157" lon="14.1298458"><ele>159.0</ele><time>2026-04-26T14:15:45.76Z</time></trkpt><trkpt lat="42.4584947" lon="14.1296975"><ele>159.5</ele><time>2026-04-26T14:15:46.757Z</time></trkpt><trkpt lat="42.458568" lon="14.1295353"><ele>160.0</ele><time>2026-04-26T14:15:47.762Z</time></trkpt><trkpt lat="42.4586302" lon="14.1293593"><ele>160.0</ele><time>2026-04-26T14:15:48.761Z</time></trkpt><trkpt lat="42.4586778" lon="14.1291807"><ele>160.0</ele><time>2026-04-26T14:15:49.759Z</time></trkpt><trkpt lat="42.4587073" lon="14.1290013"><ele>160.0</ele><time>2026-04-26T14:15:50.759Z</time></trkpt><trkpt lat="42.4587187" lon="14.1288137"><ele>160.0</ele><time>2026-04-26T14:15:51.761Z</time></trkpt><trkpt lat="42.458707" lon="14.1286215"><ele>161.5</ele><time>2026-04-26T14:15:52.76Z</time></trkpt><trkpt lat="42.4586232" lon="14.128235"><ele>163.0</ele><time>2026-04-26T14:15:54.761Z</time></trkpt><trkpt lat="42.4585598" lon="14.1280445"><ele>163.0</ele><time>2026-04-26T14:15:55.76Z</time></trkpt><trkpt lat="42.4584917" lon="14.1278533"><ele>163.0</ele><time>2026-04-26T14:15:56.756Z</time></trkpt><trkpt lat="42.4584208" lon="14.1276642"><ele>163.0</ele><time>2026-04-26T14:15:57.755Z</time></trkpt><trkpt lat="42.4583448" lon="14.1274912"><ele>161.25</ele><time>2026-04-26T14:15:58.755Z</time></trkpt><trkpt lat="42.4582512" lon="14.1273383"><ele>159.5</ele><time>2026-04-26T14:15:59.755Z</time></trkpt><trkpt lat="42.4581395" lon="14.1272038"><ele>157.75</ele><time>2026-04-26T14:16:00.754Z</time></trkpt><trkpt lat="42.4580183" lon="14.1270768"><ele>156.0</ele><time>2026-04-26T14:16:01.757Z</time></trkpt><trkpt lat="42.4579067" lon="14.1269323"><ele>156.0</ele><time>2026-04-26T14:16:02.756Z</time></trkpt><trkpt lat="42.4578092" lon="14.1267658"><ele>156.0</ele><time>2026-04-26T14:16:03.758Z</time></trkpt><trkpt lat="42.4577177" lon="14.1265877"><ele>156.0</ele><time>2026-04-26T14:16:04.758Z</time></trkpt><trkpt lat="42.4576253" lon="14.1264065"><ele>159.66666666666666</ele><time>2026-04-26T14:16:05.758Z</time></trkpt><trkpt lat="42.4575343" lon="14.1262228"><ele>163.33333333333331</ele><time>2026-04-26T14:16:06.758Z</time></trkpt><trkpt lat="42.4574525" lon="14.1260397"><ele>167.0</ele><time>2026-04-26T14:16:07.757Z</time></trkpt><trkpt lat="42.4573862" lon="14.1258633"><ele>168.75</ele><time>2026-04-26T14:16:08.758Z</time></trkpt><trkpt lat="42.4573317" lon="14.1256817"><ele>170.5</ele><time>2026-04-26T14:16:09.756Z</time></trkpt><trkpt lat="42.4572882" lon="14.1254942"><ele>172.25</ele><time>2026-04-26T14:16:10.757Z</time></trkpt><trkpt lat="42.4572555" lon="14.1253028"><ele>174.0</ele><time>2026-04-26T14:16:11.756Z</time></trkpt><trkpt lat="42.4572367" lon="14.1251078"><ele>174.0</ele><time>2026-04-26T14:16:12.759Z</time></trkpt><trkpt lat="42.4572345" lon="14.1249103"><ele>174.0</ele><time>2026-04-26T14:16:13.758Z</time></trkpt><trkpt lat="42.4572468" lon="14.1247125"><ele>174.0</ele><time>2026-04-26T14:16:14.757Z</time></trkpt><trkpt lat="42.4572717" lon="14.124515"><ele>174.0</ele><time>2026-04-26T14:16:15.756Z</time></trkpt><trkpt lat="42.4573077" lon="14.1243178"><ele>173.0</ele><time>2026-04-26T14:16:16.757Z</time></trkpt><trkpt lat="42.4573535" lon="14.1241227"><ele>172.0</ele><time>2026-04-26T14:16:17.757Z</time></trkpt><trkpt lat="42.4574058" lon="14.123929"><ele>171.0</ele><time>2026-04-26T14:16:18.757Z</time></trkpt><trkpt lat="42.4574635" lon="14.1237348"><ele>169.25</ele><time>2026-04-26T14:16:19.758Z</time></trkpt><trkpt lat="42.4575217" lon="14.1235428"><ele>167.5</ele><time>2026-04-26T14:16:20.757Z</time></trkpt><trkpt lat="42.457577" lon="14.1233602"><ele>165.75</ele><time>2026-04-26T14:16:21.756Z</time></trkpt><trkpt lat="42.457632" lon="14.1231793"><ele>164.0</ele><time>2026-04-26T14:16:22.757Z</time></trkpt><trkpt lat="42.4576872" lon="14.1229958"><ele>163.5</ele><time>2026-04-26T14:16:23.755Z</time></trkpt><trkpt lat="42.4577425" lon="14.1228093"><ele>163.0</ele><time>2026-04-26T14:16:24.755Z</time></trkpt><trkpt lat="42.4578005" lon="14.1226235"><ele>162.5</ele><time>2026-04-26T14:16:25.762Z</time></trkpt><trkpt lat="42.4578653" lon="14.1224445"><ele>162.0</ele><time>2026-04-26T14:16:26.758Z</time></trkpt><trkpt lat="42.4579405" lon="14.122271"><ele>161.5</ele><time>2026-04-26T14:16:27.76Z</time></trkpt><trkpt lat="42.4580268" lon="14.1221053"><ele>161.0</ele><time>2026-04-26T14:16:28.757Z</time></trkpt><trkpt lat="42.4581237" lon="14.1219587"><ele>160.5</ele><time>2026-04-26T14:16:29.762Z</time></trkpt><trkpt lat="42.4582287" lon="14.1218193"><ele>160.0</ele><time>2026-04-26T14:16:30.759Z</time></trkpt><trkpt lat="42.4583423" lon="14.1216858"><ele>160.25</ele><time>2026-04-26T14:16:31.759Z</time></trkpt><trkpt lat="42.4584612" lon="14.1215593"><ele>160.5</ele><time>2026-04-26T14:16:32.759Z</time></trkpt><trkpt lat="42.4585732" lon="14.1214453"><ele>160.75</ele><time>2026-04-26T14:16:33.757Z</time></trkpt><trkpt lat="42.4586785" lon="14.1213368"><ele>161.0</ele><time>2026-04-26T14:16:34.757Z</time></trkpt><trkpt lat="42.4587793" lon="14.1212315"><ele>160.75</ele><time>2026-04-26T14:16:35.759Z</time></trkpt><trkpt lat="42.4588862" lon="14.1211202"><ele>160.5</ele><time>2026-04-26T14:16:36.758Z</time></trkpt><trkpt lat="42.4589997" lon="14.1210017"><ele>160.25</ele><time>2026-04-26T14:16:37.759Z</time></trkpt><trkpt lat="42.4591128" lon="14.12088"><ele>160.0</ele><time>2026-04-26T14:16:38.76Z</time></trkpt><trkpt lat="42.4592227" lon="14.1207532"><ele>160.0</ele><time>2026-04-26T14:16:39.759Z</time></trkpt><trkpt lat="42.4593378" lon="14.1206295"><ele>160.0</ele><time>2026-04-26T14:16:40.759Z</time></trkpt><trkpt lat="42.4594538" lon="14.1205093"><ele>160.0</ele><time>2026-04-26T14:16:41.761Z</time></trkpt><trkpt lat="42.4595625" lon="14.1203975"><ele>160.0</ele><time>2026-04-26T14:16:42.759Z</time></trkpt><trkpt lat="42.4596613" lon="14.1203012"><ele>160.0</ele><time>2026-04-26T14:16:43.76Z</time></trkpt><trkpt lat="42.4597425" lon="14.120227"><ele>160.0</ele><time>2026-04-26T14:16:44.76Z</time></trkpt><trkpt lat="42.4598092" lon="14.1201715"><ele>160.0</ele><time>2026-04-26T14:16:45.757Z</time></trkpt><trkpt lat="42.459875" lon="14.1201282"><ele>160.0</ele><time>2026-04-26T14:16:46.756Z</time></trkpt><trkpt lat="42.4599553" lon="14.1200945"><ele>160.0</ele><time>2026-04-26T14:16:47.755Z</time></trkpt><trkpt lat="42.460054" lon="14.1200675"><ele>160.0</ele><time>2026-04-26T14:16:48.757Z</time></trkpt><trkpt lat="42.4601677" lon="14.1200462"><ele>160.0</ele><time>2026-04-26T14:16:49.756Z</time></trkpt><trkpt lat="42.46029" lon="14.1200482"><ele>160.0</ele><time>2026-04-26T14:16:50.756Z</time></trkpt><trkpt lat="42.4604172" lon="14.1200815"><ele>160.0</ele><time>2026-04-26T14:16:51.759Z</time></trkpt><trkpt lat="42.4605502" lon="14.1201353"><ele>160.0</ele><time>2026-04-26T14:16:52.757Z</time></trkpt><trkpt lat="42.46069" lon="14.1201928"><ele>160.66666666666669</ele><time>2026-04-26T14:16:53.758Z</time></trkpt><trkpt lat="42.4608378" lon="14.1202395"><ele>161.33333333333334</ele><time>2026-04-26T14:16:54.76Z</time></trkpt><trkpt lat="42.4609908" lon="14.120283"><ele>162.0</ele><time>2026-04-26T14:16:55.758Z</time></trkpt><trkpt lat="42.4611448" lon="14.1203302"><ele>164.33333333333334</ele><time>2026-04-26T14:16:56.758Z</time></trkpt><trkpt lat="42.4612983" lon="14.12039"><ele>166.66666666666669</ele><time>2026-04-26T14:16:57.759Z</time></trkpt><trkpt lat="42.4614468" lon="14.1204735"><ele>169.0</ele><time>2026-04-26T14:16:58.76Z</time></trkpt><trkpt lat="42.4615915" lon="14.1205772"><ele>169.0</ele><time>2026-04-26T14:16:59.759Z</time></trkpt><trkpt lat="42.4617355" lon="14.1206888"><ele>169.0</ele><time>2026-04-26T14:17:00.757Z</time></trkpt><trkpt lat="42.4618808" lon="14.1208022"><ele>169.0</ele><time>2026-04-26T14:17:01.756Z</time></trkpt><trkpt lat="42.4620268" lon="14.1209138"><ele>168.0</ele><time>2026-04-26T14:17:02.759Z</time></trkpt><trkpt lat="42.462173" lon="14.1210245"><ele>167.0</ele><time>2026-04-26T14:17:03.759Z</time></trkpt><trkpt lat="42.4623197" lon="14.1211352"><ele>166.0</ele><time>2026-04-26T14:17:04.757Z</time></trkpt><trkpt lat="42.4624683" lon="14.1212458"><ele>166.0</ele><time>2026-04-26T14:17:05.757Z</time></trkpt><trkpt lat="42.4626173" lon="14.1213575"><ele>166.0</ele><time>2026-04-26T14:17:06.757Z</time></trkpt><trkpt lat="42.462766" lon="14.121471"><ele>166.0</ele><time>2026-04-26T14:17:07.756Z</time></trkpt><trkpt lat="42.462916" lon="14.1215817"><ele>162.33333333333334</ele><time>2026-04-26T14:17:08.756Z</time></trkpt><trkpt lat="42.4630697" lon="14.1216867"><ele>158.66666666666666</ele><time>2026-04-26T14:17:09.757Z</time></trkpt><trkpt lat="42.463222" lon="14.1217925"><ele>155.0</ele><time>2026-04-26T14:17:10.754Z</time></trkpt><trkpt lat="42.4633713" lon="14.121899"><ele>155.0</ele><time>2026-04-26T14:17:11.754Z</time></trkpt><trkpt lat="42.4635123" lon="14.122005"><ele>155.0</ele><time>2026-04-26T14:17:12.753Z</time></trkpt><trkpt lat="42.4636452" lon="14.1221073"><ele>155.0</ele><time>2026-04-26T14:17:13.754Z</time></trkpt><trkpt lat="42.4637665" lon="14.1222123"><ele>154.0</ele><time>2026-04-26T14:17:14.758Z</time></trkpt><trkpt lat="42.4638713" lon="14.122332"><ele>153.0</ele><time>2026-04-26T14:17:15.76Z</time></trkpt><trkpt lat="42.4639658" lon="14.1224737"><ele>152.0</ele><time>2026-04-26T14:17:16.759Z</time></trkpt><trkpt lat="42.4640518" lon="14.1226308"><ele>151.0</ele><time>2026-04-26T14:17:17.757Z</time></trkpt><trkpt lat="42.464131" lon="14.1227978"><ele>150.33333333333334</ele><time>2026-04-26T14:17:18.759Z</time></trkpt><trkpt lat="42.464204" lon="14.122973"><ele>149.66666666666666</ele><time>2026-04-26T14:17:19.761Z</time></trkpt><trkpt lat="42.464269" lon="14.123159"><ele>149.0</ele><time>2026-04-26T14:17:20.758Z</time></trkpt><trkpt lat="42.4643257" lon="14.1233555"><ele>149.0</ele><time>2026-04-26T14:17:21.759Z</time></trkpt><trkpt lat="42.4643767" lon="14.1235553"><ele>149.0</ele><time>2026-04-26T14:17:22.76Z</time></trkpt><trkpt lat="42.4644332" lon="14.1237532"><ele>149.0</ele><time>2026-04-26T14:17:23.759Z</time></trkpt><trkpt lat="42.4645013" lon="14.1239445"><ele>147.33333333333331</ele><time>2026-04-26T14:17:24.762Z</time></trkpt><trkpt lat="42.4645832" lon="14.1241258"><ele>145.66666666666666</ele><time>2026-04-26T14:17:25.758Z</time></trkpt><trkpt lat="42.4646825" lon="14.1242933"><ele>144.0</ele><time>2026-04-26T14:17:26.759Z</time></trkpt><trkpt lat="42.4647978" lon="14.1244487"><ele>143.0</ele><time>2026-04-26T14:17:27.761Z</time></trkpt><trkpt lat="42.464917" lon="14.1246013"><ele>142.0</ele><time>2026-04-26T14:17:28.758Z</time></trkpt><trkpt lat="42.4650293" lon="14.1247578"><ele>141.0</ele><time>2026-04-26T14:17:29.762Z</time></trkpt><trkpt lat="42.4651305" lon="14.1249252"><ele>144.5</ele><time>2026-04-26T14:17:30.759Z</time></trkpt><trkpt lat="42.4652247" lon="14.125097"><ele>148.0</ele><time>2026-04-26T14:17:31.758Z</time></trkpt><trkpt lat="42.465419" lon="14.1254275"><ele>145.5</ele><time>2026-04-26T14:17:33.759Z</time></trkpt><trkpt lat="42.4656395" lon="14.1257223"><ele>143.0</ele><time>2026-04-26T14:17:35.758Z</time></trkpt><trkpt lat="42.4658747" lon="14.125972"><ele>138.5</ele><time>2026-04-26T14:17:37.756Z</time></trkpt><trkpt lat="42.4662907" lon="14.126144"><ele>134.0</ele><time>2026-04-26T14:17:40.76Z</time></trkpt><trkpt lat="42.4664352" lon="14.1261695"><ele>134.0</ele><time>2026-04-26T14:17:41.761Z</time></trkpt><trkpt lat="42.4665643" lon="14.1262055"><ele>134.0</ele><time>2026-04-26T14:17:42.766Z</time></trkpt><trkpt lat="42.4666758" lon="14.1262633"><ele>134.0</ele><time>2026-04-26T14:17:43.761Z</time></trkpt><trkpt lat="42.4667743" lon="14.1263573"><ele>134.0</ele><time>2026-04-26T14:17:44.766Z</time></trkpt><trkpt lat="42.4668578" lon="14.126489"><ele>134.25</ele><time>2026-04-26T14:17:45.761Z</time></trkpt><trkpt lat="42.4669372" lon="14.1266417"><ele>134.5</ele><time>2026-04-26T14:17:46.763Z</time></trkpt><trkpt lat="42.4670197" lon="14.1268068"><ele>134.75</ele><time>2026-04-26T14:17:47.76Z</time></trkpt><trkpt lat="42.4671063" lon="14.126984"><ele>135.0</ele><time>2026-04-26T14:17:48.761Z</time></trkpt><trkpt lat="42.4671943" lon="14.1271723"><ele>135.0</ele><time>2026-04-26T14:17:49.767Z</time></trkpt><trkpt lat="42.4672825" lon="14.1273695"><ele>135.0</ele><time>2026-04-26T14:17:50.759Z</time></trkpt><trkpt lat="42.4673667" lon="14.1275755"><ele>135.0</ele><time>2026-04-26T14:17:51.761Z</time></trkpt><trkpt lat="42.4674438" lon="14.127787"><ele>138.33333333333334</ele><time>2026-04-26T14:17:52.761Z</time></trkpt><trkpt lat="42.467519" lon="14.1279985"><ele>141.66666666666669</ele><time>2026-04-26T14:17:53.762Z</time></trkpt><trkpt lat="42.4675918" lon="14.128201"><ele>145.0</ele><time>2026-04-26T14:17:54.762Z</time></trkpt><trkpt lat="42.4676602" lon="14.1283807"><ele>145.5</ele><time>2026-04-26T14:17:55.761Z</time></trkpt><trkpt lat="42.467734" lon="14.1285345"><ele>146.0</ele><time>2026-04-26T14:17:56.759Z</time></trkpt><trkpt lat="42.467824" lon="14.1286655"><ele>146.5</ele><time>2026-04-26T14:17:57.762Z</time></trkpt><trkpt lat="42.4679325" lon="14.128765"><ele>147.0</ele><time>2026-04-26T14:17:58.757Z</time></trkpt><trkpt lat="42.4680608" lon="14.1288348"><ele>150.33333333333334</ele><time>2026-04-26T14:17:59.756Z</time></trkpt><trkpt lat="42.4682027" lon="14.1288892"><ele>153.66666666666669</ele><time>2026-04-26T14:18:00.756Z</time></trkpt><trkpt lat="42.4683558" lon="14.12894"><ele>157.0</ele><time>2026-04-26T14:18:01.755Z</time></trkpt><trkpt lat="42.4685142" lon="14.1289915"><ele>157.0</ele><time>2026-04-26T14:18:02.756Z</time></trkpt><trkpt lat="42.4686755" lon="14.1290447"><ele>157.0</ele><time>2026-04-26T14:18:03.76Z</time></trkpt><trkpt lat="42.4688367" lon="14.1290983"><ele>157.0</ele><time>2026-04-26T14:18:04.758Z</time></trkpt><trkpt lat="42.4689937" lon="14.1291552"><ele>154.66666666666669</ele><time>2026-04-26T14:18:05.76Z</time></trkpt><trkpt lat="42.4691443" lon="14.129218"><ele>152.33333333333334</ele><time>2026-04-26T14:18:06.76Z</time></trkpt><trkpt lat="42.4692897" lon="14.129298"><ele>150.0</ele><time>2026-04-26T14:18:07.76Z</time></trkpt><trkpt lat="42.4694275" lon="14.1294038"><ele>150.0</ele><time>2026-04-26T14:18:08.76Z</time></trkpt><trkpt lat="42.4695588" lon="14.1295307"><ele>150.0</ele><time>2026-04-26T14:18:09.758Z</time></trkpt><trkpt lat="42.4696877" lon="14.1296685"><ele>150.0</ele><time>2026-04-26T14:18:10.759Z</time></trkpt><trkpt lat="42.4698142" lon="14.1298115"><ele>150.0</ele><time>2026-04-26T14:18:11.761Z</time></trkpt><trkpt lat="42.46994" lon="14.1299603"><ele>150.0</ele><time>2026-04-26T14:18:12.761Z</time></trkpt><trkpt lat="42.470066" lon="14.1301137"><ele>150.0</ele><time>2026-04-26T14:18:13.759Z</time></trkpt><trkpt lat="42.470195" lon="14.1302687"><ele>150.0</ele><time>2026-04-26T14:18:14.762Z</time></trkpt><trkpt lat="42.4703253" lon="14.1304263"><ele>150.0</ele><time>2026-04-26T14:18:15.76Z</time></trkpt><trkpt lat="42.4704545" lon="14.1305825"><ele>150.0</ele><time>2026-04-26T14:18:16.761Z</time></trkpt><trkpt lat="42.470576" lon="14.1307305"><ele>148.5</ele><time>2026-04-26T14:18:17.761Z</time></trkpt><trkpt lat="42.4706898" lon="14.1308703"><ele>147.0</ele><time>2026-04-26T14:18:18.76Z</time></trkpt><trkpt lat="42.4707958" lon="14.1310045"><ele>145.5</ele><time>2026-04-26T14:18:19.76Z</time></trkpt><trkpt lat="42.4708982" lon="14.1311277"><ele>144.0</ele><time>2026-04-26T14:18:20.759Z</time></trkpt><trkpt lat="42.4709978" lon="14.131248"><ele>144.0</ele><time>2026-04-26T14:18:21.759Z</time></trkpt><trkpt lat="42.471094" lon="14.1313675"><ele>144.0</ele><time>2026-04-26T14:18:22.759Z</time></trkpt><trkpt lat="42.4711828" lon="14.1314788"><ele>144.0</ele><time>2026-04-26T14:18:23.758Z</time></trkpt><trkpt lat="42.4712693" lon="14.1315888"><ele>144.0</ele><time>2026-04-26T14:18:24.758Z</time></trkpt><trkpt lat="42.471355" lon="14.1317048"><ele>143.5</ele><time>2026-04-26T14:18:25.76Z</time></trkpt><trkpt lat="42.4714345" lon="14.1318298"><ele>143.0</ele><time>2026-04-26T14:18:26.757Z</time></trkpt><trkpt lat="42.471495" lon="14.1319712"><ele>142.5</ele><time>2026-04-26T14:18:27.76Z</time></trkpt><trkpt lat="42.4715327" lon="14.1321295"><ele>142.0</ele><time>2026-04-26T14:18:28.76Z</time></trkpt><trkpt lat="42.4715508" lon="14.1322958"><ele>143.5</ele><time>2026-04-26T14:18:29.76Z</time></trkpt><trkpt lat="42.4715605" lon="14.1324687"><ele>145.0</ele><time>2026-04-26T14:18:30.762Z</time></trkpt><trkpt lat="42.471575" lon="14.1326408"><ele>146.5</ele><time>2026-04-26T14:18:31.76Z</time></trkpt><trkpt lat="42.4716018" lon="14.132813"><ele>148.0</ele><time>2026-04-26T14:18:32.76Z</time></trkpt><trkpt lat="42.4716418" lon="14.1329722"><ele>148.0</ele><time>2026-04-26T14:18:33.761Z</time></trkpt><trkpt lat="42.4716972" lon="14.1331125"><ele>148.0</ele><time>2026-04-26T14:18:34.76Z</time></trkpt><trkpt lat="42.4717708" lon="14.13323"><ele>148.0</ele><time>2026-04-26T14:18:35.761Z</time></trkpt><trkpt lat="42.4718625" lon="14.1333207"><ele>148.0</ele><time>2026-04-26T14:18:36.762Z</time></trkpt><trkpt lat="42.4719678" lon="14.1333747"><ele>148.0</ele><time>2026-04-26T14:18:37.759Z</time></trkpt><trkpt lat="42.4720783" lon="14.1333932"><ele>148.0</ele><time>2026-04-26T14:18:38.761Z</time></trkpt><trkpt lat="42.4721912" lon="14.1333943"><ele>148.0</ele><time>2026-04-26T14:18:39.76Z</time></trkpt><trkpt lat="42.472304" lon="14.1333992"><ele>148.0</ele><time>2026-04-26T14:18:40.76Z</time></trkpt><trkpt lat="42.4724145" lon="14.1334202"><ele>148.0</ele><time>2026-04-26T14:18:41.76Z</time></trkpt><trkpt lat="42.472514" lon="14.1334665"><ele>150.5</ele><time>2026-04-26T14:18:42.76Z</time></trkpt><trkpt lat="42.4726083" lon="14.1335408"><ele>153.0</ele><time>2026-04-26T14:18:43.76Z</time></trkpt><trkpt lat="42.4727068" lon="14.13364"><ele>155.5</ele><time>2026-04-26T14:18:44.76Z</time></trkpt><trkpt lat="42.4728223" lon="14.1337525"><ele>158.0</ele><time>2026-04-26T14:18:45.761Z</time></trkpt><trkpt lat="42.472958" lon="14.1338705"><ele>160.66666666666666</ele><time>2026-04-26T14:18:46.76Z</time></trkpt><trkpt lat="42.4731043" lon="14.1339865"><ele>163.33333333333334</ele><time>2026-04-26T14:18:47.76Z</time></trkpt><trkpt lat="42.4732472" lon="14.1341137"><ele>166.0</ele><time>2026-04-26T14:18:48.756Z</time></trkpt><trkpt lat="42.4733755" lon="14.1342602"><ele>166.0</ele><time>2026-04-26T14:18:49.756Z</time></trkpt><trkpt lat="42.4734788" lon="14.1344133"><ele>166.0</ele><time>2026-04-26T14:18:50.756Z</time></trkpt><trkpt lat="42.4735537" lon="14.134574"><ele>166.0</ele><time>2026-04-26T14:18:51.758Z</time></trkpt><trkpt lat="42.4735997" lon="14.1347532"><ele>166.0</ele><time>2026-04-26T14:18:52.76Z</time></trkpt><trkpt lat="42.4736368" lon="14.1349443"><ele>164.0</ele><time>2026-04-26T14:18:53.76Z</time></trkpt><trkpt lat="42.4736722" lon="14.135119"><ele>162.0</ele><time>2026-04-26T14:18:54.758Z</time></trkpt><trkpt lat="42.473711" lon="14.135269"><ele>160.0</ele><time>2026-04-26T14:18:55.756Z</time></trkpt><trkpt lat="42.4737722" lon="14.135393"><ele>158.0</ele><time>2026-04-26T14:18:56.759Z</time></trkpt><trkpt lat="42.4738618" lon="14.1354893"><ele>160.0</ele><time>2026-04-26T14:18:57.758Z</time></trkpt><trkpt lat="42.4739757" lon="14.1355607"><ele>162.0</ele><time>2026-04-26T14:18:58.76Z</time></trkpt><trkpt lat="42.4741053" lon="14.1356232"><ele>164.0</ele><time>2026-04-26T14:18:59.758Z</time></trkpt><trkpt lat="42.4742403" lon="14.1356928"><ele>166.0</ele><time>2026-04-26T14:19:00.757Z</time></trkpt><trkpt lat="42.474371" lon="14.1357845"><ele>166.0</ele><time>2026-04-26T14:19:01.757Z</time></trkpt><trkpt lat="42.474493" lon="14.1358962"><ele>166.0</ele><time>2026-04-26T14:19:02.757Z</time></trkpt><trkpt lat="42.4746085" lon="14.1360048"><ele>166.0</ele><time>2026-04-26T14:19:03.758Z</time></trkpt><trkpt lat="42.4747277" lon="14.1360893"><ele>166.0</ele><time>2026-04-26T14:19:04.758Z</time></trkpt><trkpt lat="42.4748577" lon="14.1361507"><ele>170.25</ele><time>2026-04-26T14:19:05.757Z</time></trkpt><trkpt lat="42.4749928" lon="14.1361985"><ele>174.5</ele><time>2026-04-26T14:19:06.758Z</time></trkpt><trkpt lat="42.4751148" lon="14.1362535"><ele>178.75</ele><time>2026-04-26T14:19:07.755Z</time></trkpt><trkpt lat="42.4752142" lon="14.1363353"><ele>183.0</ele><time>2026-04-26T14:19:08.756Z</time></trkpt><trkpt lat="42.4752933" lon="14.1364482"><ele>183.0</ele><time>2026-04-26T14:19:09.756Z</time></trkpt><trkpt lat="42.4753718" lon="14.1365797"><ele>183.0</ele><time>2026-04-26T14:19:10.756Z</time></trkpt><trkpt lat="42.4754673" lon="14.1366988"><ele>183.0</ele><time>2026-04-26T14:19:11.755Z</time></trkpt><trkpt lat="42.4755835" lon="14.1368035"><ele>183.0</ele><time>2026-04-26T14:19:12.755Z</time></trkpt><trkpt lat="42.4757157" lon="14.1369"><ele>183.0</ele><time>2026-04-26T14:19:13.754Z</time></trkpt><trkpt lat="42.4758577" lon="14.136991"><ele>183.0</ele><time>2026-04-26T14:19:14.755Z</time></trkpt><trkpt lat="42.4760062" lon="14.1370808"><ele>183.0</ele><time>2026-04-26T14:19:15.754Z</time></trkpt><trkpt lat="42.4761567" lon="14.1371718"><ele>181.66666666666666</ele><time>2026-04-26T14:19:16.756Z</time></trkpt><trkpt lat="42.4763087" lon="14.137258"><ele>180.33333333333331</ele><time>2026-04-26T14:19:17.757Z</time></trkpt><trkpt lat="42.4764598" lon="14.1373335"><ele>179.0</ele><time>2026-04-26T14:19:18.759Z</time></trkpt><trkpt lat="42.4766007" lon="14.1373905"><ele>179.0</ele><time>2026-04-26T14:19:19.757Z</time></trkpt><trkpt lat="42.4767323" lon="14.1374268"><ele>179.0</ele><time>2026-04-26T14:19:20.759Z</time></trkpt><trkpt lat="42.4768648" lon="14.1374475"><ele>179.0</ele><time>2026-04-26T14:19:21.757Z</time></trkpt><trkpt lat="42.4770008" lon="14.1374592"><ele>179.0</ele><time>2026-04-26T14:19:22.759Z</time></trkpt><trkpt lat="42.4771417" lon="14.1374657"><ele>179.75</ele><time>2026-04-26T14:19:23.762Z</time></trkpt><trkpt lat="42.477286" lon="14.1374592"><ele>180.5</ele><time>2026-04-26T14:19:24.759Z</time></trkpt><trkpt lat="42.4774332" lon="14.1374322"><ele>181.25</ele><time>2026-04-26T14:19:25.756Z</time></trkpt><trkpt lat="42.4775833" lon="14.1373867"><ele>182.0</ele><time>2026-04-26T14:19:26.757Z</time></trkpt><trkpt lat="42.477736" lon="14.1373298"><ele>180.0</ele><time>2026-04-26T14:19:27.758Z</time></trkpt><trkpt lat="42.477888" lon="14.13727"><ele>178.0</ele><time>2026-04-26T14:19:28.757Z</time></trkpt><trkpt lat="42.4780313" lon="14.1372217"><ele>176.0</ele><time>2026-04-26T14:19:29.758Z</time></trkpt><trkpt lat="42.4781662" lon="14.1371977"><ele>174.0</ele><time>2026-04-26T14:19:30.757Z</time></trkpt><trkpt lat="42.478294" lon="14.1372078"><ele>172.5</ele><time>2026-04-26T14:19:31.759Z</time></trkpt><trkpt lat="42.478421" lon="14.1372442"><ele>171.0</ele><time>2026-04-26T14:19:32.758Z</time></trkpt><trkpt lat="42.4785472" lon="14.1372855"><ele>169.5</ele><time>2026-04-26T14:19:33.759Z</time></trkpt><trkpt lat="42.4786673" lon="14.1372997"><ele>168.0</ele><time>2026-04-26T14:19:34.758Z</time></trkpt><trkpt lat="42.4787923" lon="14.1372768"><ele>167.75</ele><time>2026-04-26T14:19:35.758Z</time></trkpt><trkpt lat="42.4789233" lon="14.137224"><ele>167.5</ele><time>2026-04-26T14:19:36.758Z</time></trkpt><trkpt lat="42.4790527" lon="14.1371522"><ele>167.25</ele><time>2026-04-26T14:19:37.755Z</time></trkpt><trkpt lat="42.4791705" lon="14.1370635"><ele>167.0</ele><time>2026-04-26T14:19:38.755Z</time></trkpt><trkpt lat="42.4792732" lon="14.1369467"><ele>167.0</ele><time>2026-04-26T14:19:39.756Z</time></trkpt><trkpt lat="42.4793627" lon="14.1368062"><ele>167.0</ele><time>2026-04-26T14:19:40.756Z</time></trkpt><trkpt lat="42.4794468" lon="14.1366487"><ele>167.0</ele><time>2026-04-26T14:19:41.76Z</time></trkpt><trkpt lat="42.4795383" lon="14.1364915"><ele>167.0</ele><time>2026-04-26T14:19:42.757Z</time></trkpt><trkpt lat="42.479641" lon="14.1363412"><ele>166.5</ele><time>2026-04-26T14:19:43.756Z</time></trkpt><trkpt lat="42.4797515" lon="14.1361992"><ele>166.0</ele><time>2026-04-26T14:19:44.758Z</time></trkpt><trkpt lat="42.4798467" lon="14.1360535"><ele>165.5</ele><time>2026-04-26T14:19:45.758Z</time></trkpt><trkpt lat="42.4799163" lon="14.1358942"><ele>165.0</ele><time>2026-04-26T14:19:46.76Z</time></trkpt><trkpt lat="42.4799658" lon="14.1357182"><ele>163.0</ele><time>2026-04-26T14:19:47.761Z</time></trkpt><trkpt lat="42.480007" lon="14.1355467"><ele>161.0</ele><time>2026-04-26T14:19:48.759Z</time></trkpt><trkpt lat="42.4800577" lon="14.1353887"><ele>159.0</ele><time>2026-04-26T14:19:49.758Z</time></trkpt><trkpt lat="42.4801235" lon="14.1352452"><ele>157.0</ele><time>2026-04-26T14:19:50.758Z</time></trkpt><trkpt lat="42.480247" lon="14.1350755"><ele>157.0</ele><time>2026-04-26T14:19:52.157Z</time></trkpt><trkpt lat="42.480418" lon="14.1349145"><ele>157.0</ele><time>2026-04-26T14:19:53.758Z</time></trkpt><trkpt lat="42.4805262" lon="14.1348412"><ele>157.0</ele><time>2026-04-26T14:19:54.76Z</time></trkpt><trkpt lat="42.4806277" lon="14.1347948"><ele>157.0</ele><time>2026-04-26T14:19:55.761Z</time></trkpt><trkpt lat="42.4807267" lon="14.1347952"><ele>157.2</ele><time>2026-04-26T14:19:56.757Z</time></trkpt><trkpt lat="42.4808177" lon="14.1348382"><ele>157.39999999999998</ele><time>2026-04-26T14:19:57.761Z</time></trkpt><trkpt lat="42.4809085" lon="14.1349147"><ele>157.60000000000002</ele><time>2026-04-26T14:19:58.764Z</time></trkpt><trkpt lat="42.4809972" lon="14.135012"><ele>157.8</ele><time>2026-04-26T14:19:59.76Z</time></trkpt><trkpt lat="42.4810752" lon="14.1351355"><ele>158.0</ele><time>2026-04-26T14:20:00.762Z</time></trkpt><trkpt lat="42.4811378" lon="14.1352842"><ele>158.0</ele><time>2026-04-26T14:20:01.758Z</time></trkpt><trkpt lat="42.4811938" lon="14.1354487"><ele>158.0</ele><time>2026-04-26T14:20:02.757Z</time></trkpt><trkpt lat="42.4812535" lon="14.1356258"><ele>158.0</ele><time>2026-04-26T14:20:03.761Z</time></trkpt><trkpt lat="42.4813122" lon="14.1358032"><ele>158.0</ele><time>2026-04-26T14:20:04.757Z</time></trkpt><trkpt lat="42.481367" lon="14.1359717"><ele>154.33333333333331</ele><time>2026-04-26T14:20:05.758Z</time></trkpt><trkpt lat="42.4814337" lon="14.1361617"><ele>150.66666666666666</ele><time>2026-04-26T14:20:06.96Z</time></trkpt><trkpt lat="42.4815282" lon="14.1363855"><ele>147.0</ele><time>2026-04-26T14:20:08.569Z</time></trkpt><trkpt lat="42.481602" lon="14.1364898"><ele>147.0</ele><time>2026-04-26T14:20:09.567Z</time></trkpt><trkpt lat="42.4816925" lon="14.1365493"><ele>147.0</ele><time>2026-04-26T14:20:10.567Z</time></trkpt><trkpt lat="42.4817935" lon="14.1365632"><ele>147.0</ele><time>2026-04-26T14:20:11.567Z</time></trkpt><trkpt lat="42.4818992" lon="14.1365347"><ele>147.0</ele><time>2026-04-26T14:20:12.567Z</time></trkpt><trkpt lat="42.4819948" lon="14.1364625"><ele>147.0</ele><time>2026-04-26T14:20:13.566Z</time></trkpt><trkpt lat="42.4820755" lon="14.1363492"><ele>145.75</ele><time>2026-04-26T14:20:14.569Z</time></trkpt><trkpt lat="42.4821348" lon="14.136203"><ele>144.5</ele><time>2026-04-26T14:20:15.569Z</time></trkpt><trkpt lat="42.4821807" lon="14.1360285"><ele>143.25</ele><time>2026-04-26T14:20:16.568Z</time></trkpt><trkpt lat="42.4822233" lon="14.1358378"><ele>142.0</ele><time>2026-04-26T14:20:17.568Z</time></trkpt><trkpt lat="42.4822647" lon="14.135635"><ele>141.0</ele><time>2026-04-26T14:20:18.567Z</time></trkpt><trkpt lat="42.4823087" lon="14.1354227"><ele>140.0</ele><time>2026-04-26T14:20:19.569Z</time></trkpt><trkpt lat="42.482355" lon="14.1352067"><ele>139.0</ele><time>2026-04-26T14:20:20.572Z</time></trkpt><trkpt lat="42.4824035" lon="14.1349887"><ele>138.33333333333334</ele><time>2026-04-26T14:20:21.57Z</time></trkpt><trkpt lat="42.4824523" lon="14.1347665"><ele>137.66666666666666</ele><time>2026-04-26T14:20:22.57Z</time></trkpt><trkpt lat="42.4825" lon="14.1345458"><ele>137.0</ele><time>2026-04-26T14:20:23.57Z</time></trkpt><trkpt lat="42.4825448" lon="14.134333"><ele>137.0</ele><time>2026-04-26T14:20:24.57Z</time></trkpt><trkpt lat="42.4825877" lon="14.1341235"><ele>137.0</ele><time>2026-04-26T14:20:25.57Z</time></trkpt><trkpt lat="42.4826287" lon="14.1339252"><ele>137.0</ele><time>2026-04-26T14:20:26.569Z</time></trkpt><trkpt lat="42.4826708" lon="14.1337427"><ele>136.0</ele><time>2026-04-26T14:20:27.568Z</time></trkpt><trkpt lat="42.4827235" lon="14.1335773"><ele>135.0</ele><time>2026-04-26T14:20:28.569Z</time></trkpt><trkpt lat="42.4827908" lon="14.1334327"><ele>134.0</ele><time>2026-04-26T14:20:29.568Z</time></trkpt><trkpt lat="42.4828762" lon="14.1333238"><ele>133.0</ele><time>2026-04-26T14:20:30.569Z</time></trkpt><trkpt lat="42.4829833" lon="14.1332392"><ele>132.0</ele><time>2026-04-26T14:20:31.571Z</time></trkpt><trkpt lat="42.4831068" lon="14.1331678"><ele>131.0</ele><time>2026-04-26T14:20:32.57Z</time></trkpt><trkpt lat="42.4832423" lon="14.1331"><ele>130.0</ele><time>2026-04-26T14:20:33.57Z</time></trkpt><trkpt lat="42.4833847" lon="14.1330282"><ele>129.0</ele><time>2026-04-26T14:20:34.569Z</time></trkpt><trkpt lat="42.4835323" lon="14.132953"><ele>129.0</ele><time>2026-04-26T14:20:35.567Z</time></trkpt><trkpt lat="42.4836838" lon="14.1328768"><ele>129.0</ele><time>2026-04-26T14:20:36.566Z</time></trkpt><trkpt lat="42.4838385" lon="14.1327995"><ele>129.0</ele><time>2026-04-26T14:20:37.565Z</time></trkpt><trkpt lat="42.4839948" lon="14.1327232"><ele>127.66666666666666</ele><time>2026-04-26T14:20:38.566Z</time></trkpt><trkpt lat="42.4841512" lon="14.132648"><ele>126.33333333333333</ele><time>2026-04-26T14:20:39.567Z</time></trkpt><trkpt lat="42.4843067" lon="14.1325735"><ele>125.0</ele><time>2026-04-26T14:20:40.57Z</time></trkpt><trkpt lat="42.4844607" lon="14.1325003"><ele>123.75</ele><time>2026-04-26T14:20:41.57Z</time></trkpt><trkpt lat="42.484608" lon="14.1324318"><ele>122.5</ele><time>2026-04-26T14:20:42.57Z</time></trkpt><trkpt lat="42.4847465" lon="14.132371"><ele>121.25</ele><time>2026-04-26T14:20:43.572Z</time></trkpt><trkpt lat="42.4848755" lon="14.1323227"><ele>120.0</ele><time>2026-04-26T14:20:44.569Z</time></trkpt><trkpt lat="42.4849973" lon="14.1322983"><ele>120.0</ele><time>2026-04-26T14:20:45.568Z</time></trkpt><trkpt lat="42.4851178" lon="14.1323098"><ele>120.0</ele><time>2026-04-26T14:20:46.568Z</time></trkpt><trkpt lat="42.4852385" lon="14.1323578"><ele>120.0</ele><time>2026-04-26T14:20:47.569Z</time></trkpt><trkpt lat="42.4853533" lon="14.1324417"><ele>120.0</ele><time>2026-04-26T14:20:48.568Z</time></trkpt><trkpt lat="42.485461" lon="14.1325483"><ele>119.5</ele><time>2026-04-26T14:20:49.57Z</time></trkpt><trkpt lat="42.4855677" lon="14.1326675"><ele>119.0</ele><time>2026-04-26T14:20:50.569Z</time></trkpt><trkpt lat="42.4856747" lon="14.132792"><ele>118.5</ele><time>2026-04-26T14:20:51.568Z</time></trkpt><trkpt lat="42.4857823" lon="14.1329212"><ele>118.0</ele><time>2026-04-26T14:20:52.569Z</time></trkpt><trkpt lat="42.4858923" lon="14.1330532"><ele>118.0</ele><time>2026-04-26T14:20:53.569Z</time></trkpt><trkpt lat="42.4860007" lon="14.1331828"><ele>118.0</ele><time>2026-04-26T14:20:54.568Z</time></trkpt><trkpt lat="42.4861063" lon="14.1333068"><ele>118.0</ele><time>2026-04-26T14:20:55.566Z</time></trkpt><trkpt lat="42.4862052" lon="14.1334207"><ele>118.0</ele><time>2026-04-26T14:20:56.569Z</time></trkpt><trkpt lat="42.4862997" lon="14.1335295"><ele>118.25</ele><time>2026-04-26T14:20:57.569Z</time></trkpt><trkpt lat="42.4864087" lon="14.1336608"><ele>118.5</ele><time>2026-04-26T14:20:58.759Z</time></trkpt><trkpt lat="42.4864908" lon="14.1337637"><ele>118.75</ele><time>2026-04-26T14:20:59.76Z</time></trkpt><trkpt lat="42.4865617" lon="14.1338658"><ele>119.0</ele><time>2026-04-26T14:21:00.761Z</time></trkpt><trkpt lat="42.4866208" lon="14.133977"><ele>118.5</ele><time>2026-04-26T14:21:01.758Z</time></trkpt><trkpt lat="42.4866633" lon="14.134106"><ele>118.0</ele><time>2026-04-26T14:21:02.76Z</time></trkpt><trkpt lat="42.4866952" lon="14.1342517"><ele>117.5</ele><time>2026-04-26T14:21:03.759Z</time></trkpt><trkpt lat="42.486725" lon="14.1344115"><ele>117.0</ele><time>2026-04-26T14:21:04.758Z</time></trkpt><trkpt lat="42.4867558" lon="14.134582"><ele>117.0</ele><time>2026-04-26T14:21:05.761Z</time></trkpt><trkpt lat="42.4867853" lon="14.1347523"><ele>117.0</ele><time>2026-04-26T14:21:06.76Z</time></trkpt><trkpt lat="42.486814" lon="14.1349195"><ele>117.0</ele><time>2026-04-26T14:21:07.761Z</time></trkpt><trkpt lat="42.4868423" lon="14.1350935"><ele>117.0</ele><time>2026-04-26T14:21:08.759Z</time></trkpt><trkpt lat="42.4868743" lon="14.1352737"><ele>117.0</ele><time>2026-04-26T14:21:09.763Z</time></trkpt><trkpt lat="42.4869118" lon="14.1354582"><ele>117.0</ele><time>2026-04-26T14:21:10.759Z</time></trkpt><trkpt lat="42.4869538" lon="14.1356442"><ele>117.0</ele><time>2026-04-26T14:21:11.759Z</time></trkpt><trkpt lat="42.4870015" lon="14.1358278"><ele>117.0</ele><time>2026-04-26T14:21:12.759Z</time></trkpt><trkpt lat="42.4870568" lon="14.1360042"><ele>117.5</ele><time>2026-04-26T14:21:13.758Z</time></trkpt><trkpt lat="42.4871202" lon="14.1361788"><ele>118.0</ele><time>2026-04-26T14:21:14.759Z</time></trkpt><trkpt lat="42.48719" lon="14.1363517"><ele>118.5</ele><time>2026-04-26T14:21:15.756Z</time></trkpt><trkpt lat="42.487258" lon="14.1365237"><ele>119.0</ele><time>2026-04-26T14:21:16.754Z</time></trkpt><trkpt lat="42.4873247" lon="14.1366978"><ele>120.25</ele><time>2026-04-26T14:21:17.757Z</time></trkpt><trkpt lat="42.4873868" lon="14.1368655"><ele>121.5</ele><time>2026-04-26T14:21:18.757Z</time></trkpt><trkpt lat="42.4874418" lon="14.137019"><ele>122.75</ele><time>2026-04-26T14:21:19.76Z</time></trkpt><trkpt lat="42.4874865" lon="14.1371523"><ele>124.0</ele><time>2026-04-26T14:21:20.759Z</time></trkpt><trkpt lat="42.4875192" lon="14.1372543"><ele>124.00000000000001</ele><time>2026-04-26T14:21:21.761Z</time></trkpt><trkpt lat="42.4875478" lon="14.1373412"><ele>124.0</ele><time>2026-04-26T14:21:22.762Z</time></trkpt><trkpt lat="42.4875757" lon="14.1374265"><ele>124.0</ele><time>2026-04-26T14:21:23.759Z</time></trkpt><trkpt lat="42.4876043" lon="14.1375237"><ele>124.0</ele><time>2026-04-26T14:21:24.761Z</time></trkpt><trkpt lat="42.4876345" lon="14.13763"><ele>124.00000000000001</ele><time>2026-04-26T14:21:25.76Z</time></trkpt><trkpt lat="42.4876587" lon="14.1377435"><ele>124.0</ele><time>2026-04-26T14:21:26.761Z</time></trkpt><trkpt lat="42.487671" lon="14.1378538"><ele>124.0</ele><time>2026-04-26T14:21:27.76Z</time></trkpt><trkpt lat="42.4876715" lon="14.137973"><ele>124.0</ele><time>2026-04-26T14:21:28.76Z</time></trkpt><trkpt lat="42.4876663" lon="14.1381053"><ele>124.0</ele><time>2026-04-26T14:21:29.761Z</time></trkpt><trkpt lat="42.4876623" lon="14.1382477"><ele>124.0</ele><time>2026-04-26T14:21:30.763Z</time></trkpt><trkpt lat="42.4876617" lon="14.1383992"><ele>124.0</ele><time>2026-04-26T14:21:31.761Z</time></trkpt><trkpt lat="42.4876747" lon="14.1385593"><ele>124.25</ele><time>2026-04-26T14:21:32.76Z</time></trkpt><trkpt lat="42.4877102" lon="14.13872"><ele>124.5</ele><time>2026-04-26T14:21:33.762Z</time></trkpt><trkpt lat="42.487767" lon="14.1388753"><ele>124.75</ele><time>2026-04-26T14:21:34.759Z</time></trkpt><trkpt lat="42.4878412" lon="14.139023"><ele>125.0</ele><time>2026-04-26T14:21:35.76Z</time></trkpt><trkpt lat="42.4879358" lon="14.1391505"><ele>127.25</ele><time>2026-04-26T14:21:36.763Z</time></trkpt><trkpt lat="42.4880495" lon="14.13925"><ele>129.5</ele><time>2026-04-26T14:21:37.76Z</time></trkpt><trkpt lat="42.488177" lon="14.1393175"><ele>131.75</ele><time>2026-04-26T14:21:38.761Z</time></trkpt><trkpt lat="42.4883148" lon="14.1393532"><ele>134.0</ele><time>2026-04-26T14:21:39.759Z</time></trkpt><trkpt lat="42.4884577" lon="14.1393683"><ele>134.0</ele><time>2026-04-26T14:21:40.756Z</time></trkpt><trkpt lat="42.488604" lon="14.1393745"><ele>134.0</ele><time>2026-04-26T14:21:41.759Z</time></trkpt><trkpt lat="42.4887392" lon="14.1393838"><ele>134.0</ele><time>2026-04-26T14:21:42.757Z</time></trkpt><trkpt lat="42.4888568" lon="14.1394002"><ele>134.0</ele><time>2026-04-26T14:21:43.758Z</time></trkpt><trkpt lat="42.4889593" lon="14.1394272"><ele>134.5</ele><time>2026-04-26T14:21:44.76Z</time></trkpt><trkpt lat="42.489051" lon="14.1394715"><ele>135.0</ele><time>2026-04-26T14:21:45.76Z</time></trkpt><trkpt lat="42.4891368" lon="14.1395353"><ele>135.5</ele><time>2026-04-26T14:21:46.76Z</time></trkpt><trkpt lat="42.4892167" lon="14.1395853"><ele>136.0</ele><time>2026-04-26T14:21:47.762Z</time></trkpt><trkpt lat="42.4892985" lon="14.1396038"><ele>136.5</ele><time>2026-04-26T14:21:48.76Z</time></trkpt><trkpt lat="42.4893755" lon="14.1395875"><ele>137.0</ele><time>2026-04-26T14:21:49.759Z</time></trkpt><trkpt lat="42.4894423" lon="14.1395402"><ele>137.0</ele><time>2026-04-26T14:21:50.76Z</time></trkpt><trkpt lat="42.4895058" lon="14.1394835"><ele>137.0</ele><time>2026-04-26T14:21:51.76Z</time></trkpt><trkpt lat="42.4895848" lon="14.13945"><ele>137.0</ele><time>2026-04-26T14:21:52.759Z</time></trkpt><trkpt lat="42.4896792" lon="14.1394467"><ele>137.0</ele><time>2026-04-26T14:21:53.758Z</time></trkpt><trkpt lat="42.4897872" lon="14.1394532"><ele>137.0</ele><time>2026-04-26T14:21:54.758Z</time></trkpt><trkpt lat="42.4899072" lon="14.1394567"><ele>138.0</ele><time>2026-04-26T14:21:55.758Z</time></trkpt><trkpt lat="42.4900362" lon="14.1394615"><ele>139.0</ele><time>2026-04-26T14:21:56.757Z</time></trkpt><trkpt lat="42.4901712" lon="14.1394697"><ele>140.0</ele><time>2026-04-26T14:21:57.755Z</time></trkpt><trkpt lat="42.4903092" lon="14.139478"><ele>141.0</ele><time>2026-04-26T14:21:58.759Z</time></trkpt><trkpt lat="42.4904443" lon="14.1394888"><ele>143.0</ele><time>2026-04-26T14:21:59.759Z</time></trkpt><trkpt lat="42.4905667" lon="14.1394993"><ele>145.0</ele><time>2026-04-26T14:22:00.759Z</time></trkpt><trkpt lat="42.490673" lon="14.1395123"><ele>147.0</ele><time>2026-04-26T14:22:01.758Z</time></trkpt><trkpt lat="42.4907588" lon="14.1395383"><ele>149.0</ele><time>2026-04-26T14:22:02.757Z</time></trkpt><trkpt lat="42.4908208" lon="14.1395847"><ele>151.0</ele><time>2026-04-26T14:22:03.756Z</time></trkpt><trkpt lat="42.4908613" lon="14.1396572"><ele>151.0</ele><time>2026-04-26T14:22:04.756Z</time></trkpt><trkpt lat="42.490885" lon="14.1397558"><ele>151.0</ele><time>2026-04-26T14:22:05.757Z</time></trkpt><trkpt lat="42.490892" lon="14.1398732"><ele>151.0</ele><time>2026-04-26T14:22:06.757Z</time></trkpt><trkpt lat="42.4908893" lon="14.1400115"><ele>151.0</ele><time>2026-04-26T14:22:07.755Z</time></trkpt><trkpt lat="42.4908885" lon="14.140167"><ele>151.0</ele><time>2026-04-26T14:22:08.758Z</time></trkpt><trkpt lat="42.490893" lon="14.1403333"><ele>151.66666666666669</ele><time>2026-04-26T14:22:09.758Z</time></trkpt><trkpt lat="42.4908965" lon="14.1404955"><ele>152.33333333333334</ele><time>2026-04-26T14:22:10.759Z</time></trkpt><trkpt lat="42.4909037" lon="14.1406373"><ele>153.0</ele><time>2026-04-26T14:22:11.758Z</time></trkpt><trkpt lat="42.4909232" lon="14.140749"><ele>153.66666666666666</ele><time>2026-04-26T14:22:12.757Z</time></trkpt><trkpt lat="42.4909632" lon="14.1408287"><ele>154.33333333333331</ele><time>2026-04-26T14:22:13.759Z</time></trkpt><trkpt lat="42.4910225" lon="14.1408718"><ele>155.0</ele><time>2026-04-26T14:22:14.758Z</time></trkpt><trkpt lat="42.49109" lon="14.1408705"><ele>155.0</ele><time>2026-04-26T14:22:15.758Z</time></trkpt><trkpt lat="42.4911507" lon="14.1408248"><ele>155.0</ele><time>2026-04-26T14:22:16.757Z</time></trkpt><trkpt lat="42.4912033" lon="14.1407463"><ele>155.0</ele><time>2026-04-26T14:22:17.757Z</time></trkpt><trkpt lat="42.4912507" lon="14.1406533"><ele>155.0</ele><time>2026-04-26T14:22:18.758Z</time></trkpt><trkpt lat="42.4912935" lon="14.1405772"><ele>155.0</ele><time>2026-04-26T14:22:19.757Z</time></trkpt><trkpt lat="42.4913322" lon="14.140507"><ele>155.0</ele><time>2026-04-26T14:22:20.759Z</time></trkpt><trkpt lat="42.4913692" lon="14.1404308"><ele>155.0</ele><time>2026-04-26T14:22:21.758Z</time></trkpt><trkpt lat="42.4914562" lon="14.1403472"><ele>156.2</ele><time>2026-04-26T14:22:23.758Z</time></trkpt><trkpt lat="42.4915735" lon="14.140399"><ele>157.4</ele><time>2026-04-26T14:22:25.758Z</time></trkpt><trkpt lat="42.4916138" lon="14.1404762"><ele>158.60000000000002</ele><time>2026-04-26T14:22:26.759Z</time></trkpt><trkpt lat="42.4916462" lon="14.1405853"><ele>159.8</ele><time>2026-04-26T14:22:27.758Z</time></trkpt><trkpt lat="42.4916798" lon="14.1407163"><ele>161.0</ele><time>2026-04-26T14:22:28.756Z</time></trkpt><trkpt lat="42.4917155" lon="14.1408607"><ele>161.0</ele><time>2026-04-26T14:22:29.757Z</time></trkpt><trkpt lat="42.4917518" lon="14.1410172"><ele>161.0</ele><time>2026-04-26T14:22:30.757Z</time></trkpt><trkpt lat="42.4917783" lon="14.1411747"><ele>161.0</ele><time>2026-04-26T14:22:31.756Z</time></trkpt><trkpt lat="42.491789" lon="14.141338"><ele>161.0</ele><time>2026-04-26T14:22:32.759Z</time></trkpt><trkpt lat="42.4917827" lon="14.1415078"><ele>161.0</ele><time>2026-04-26T14:22:33.76Z</time></trkpt><trkpt lat="42.4917503" lon="14.1416733"><ele>161.0</ele><time>2026-04-26T14:22:34.758Z</time></trkpt><trkpt lat="42.4916947" lon="14.1418267"><ele>161.0</ele><time>2026-04-26T14:22:35.758Z</time></trkpt><trkpt lat="42.4916407" lon="14.1419723"><ele>161.0</ele><time>2026-04-26T14:22:36.758Z</time></trkpt><trkpt lat="42.4916043" lon="14.1421167"><ele>161.0</ele><time>2026-04-26T14:22:37.758Z</time></trkpt><trkpt lat="42.4915985" lon="14.1422547"><ele>161.0</ele><time>2026-04-26T14:22:38.757Z</time></trkpt><trkpt lat="42.4916262" lon="14.1423818"><ele>161.0</ele><time>2026-04-26T14:22:39.757Z</time></trkpt><trkpt lat="42.4916838" lon="14.1425023"><ele>161.0</ele><time>2026-04-26T14:22:40.759Z</time></trkpt><trkpt lat="42.4917475" lon="14.1426242"><ele>161.0</ele><time>2026-04-26T14:22:41.757Z</time></trkpt><trkpt lat="42.4917953" lon="14.1427522"><ele>160.20000000000002</ele><time>2026-04-26T14:22:42.758Z</time></trkpt><trkpt lat="42.491812" lon="14.1428767"><ele>159.4</ele><time>2026-04-26T14:22:43.758Z</time></trkpt><trkpt lat="42.49179" lon="14.1429855"><ele>158.6</ele><time>2026-04-26T14:22:44.757Z</time></trkpt><trkpt lat="42.4917348" lon="14.1430753"><ele>157.8</ele><time>2026-04-26T14:22:45.758Z</time></trkpt><trkpt lat="42.4916653" lon="14.1431638"><ele>157.0</ele><time>2026-04-26T14:22:46.758Z</time></trkpt><trkpt lat="42.4916057" lon="14.1432698"><ele>156.2</ele><time>2026-04-26T14:22:47.755Z</time></trkpt><trkpt lat="42.4915698" lon="14.1433865"><ele>155.39999999999998</ele><time>2026-04-26T14:22:48.758Z</time></trkpt><trkpt lat="42.491563" lon="14.1435123"><ele>154.60000000000002</ele><time>2026-04-26T14:22:49.757Z</time></trkpt><trkpt lat="42.4915902" lon="14.1436465"><ele>153.8</ele><time>2026-04-26T14:22:50.757Z</time></trkpt><trkpt lat="42.4916457" lon="14.1437847"><ele>153.0</ele><time>2026-04-26T14:22:51.759Z</time></trkpt><trkpt lat="42.4917175" lon="14.1439272"><ele>154.0</ele><time>2026-04-26T14:22:52.756Z</time></trkpt><trkpt lat="42.4917997" lon="14.1440597"><ele>155.0</ele><time>2026-04-26T14:22:53.755Z</time></trkpt><trkpt lat="42.4919025" lon="14.1441615"><ele>156.0</ele><time>2026-04-26T14:22:54.755Z</time></trkpt><trkpt lat="42.4920253" lon="14.1442345"><ele>157.0</ele><time>2026-04-26T14:22:55.754Z</time></trkpt><trkpt lat="42.4921557" lon="14.1442895"><ele>150.75</ele><time>2026-04-26T14:22:56.758Z</time></trkpt><trkpt lat="42.4922812" lon="14.1443377"><ele>144.5</ele><time>2026-04-26T14:22:57.755Z</time></trkpt><trkpt lat="42.4924075" lon="14.1443965"><ele>138.25</ele><time>2026-04-26T14:22:58.755Z</time></trkpt><trkpt lat="42.4925335" lon="14.1444645"><ele>132.0</ele><time>2026-04-26T14:22:59.759Z</time></trkpt><trkpt lat="42.4926508" lon="14.1445293"><ele>132.0</ele><time>2026-04-26T14:23:00.756Z</time></trkpt><trkpt lat="42.4927655" lon="14.1445928"><ele>132.0</ele><time>2026-04-26T14:23:01.755Z</time></trkpt><trkpt lat="42.4928655" lon="14.1446635"><ele>132.0</ele><time>2026-04-26T14:23:02.756Z</time></trkpt><trkpt lat="42.4929572" lon="14.144752"><ele>132.0</ele><time>2026-04-26T14:23:03.757Z</time></trkpt><trkpt lat="42.4930367" lon="14.1448698"><ele>133.25</ele><time>2026-04-26T14:23:04.757Z</time></trkpt><trkpt lat="42.4931167" lon="14.1450008"><ele>134.5</ele><time>2026-04-26T14:23:05.757Z</time></trkpt><trkpt lat="42.493199" lon="14.1451135"><ele>135.75</ele><time>2026-04-26T14:23:06.757Z</time></trkpt><trkpt lat="42.4932908" lon="14.1451985"><ele>137.0</ele><time>2026-04-26T14:23:07.756Z</time></trkpt><trkpt lat="42.4933873" lon="14.145254"><ele>137.0</ele><time>2026-04-26T14:23:08.757Z</time></trkpt><trkpt lat="42.493486" lon="14.1452728"><ele>137.0</ele><time>2026-04-26T14:23:09.756Z</time></trkpt><trkpt lat="42.4935812" lon="14.1452642"><ele>137.0</ele><time>2026-04-26T14:23:10.756Z</time></trkpt><trkpt lat="42.4936803" lon="14.1452188"><ele>137.0</ele><time>2026-04-26T14:23:11.755Z</time></trkpt><trkpt lat="42.4937682" lon="14.1451442"><ele>137.0</ele><time>2026-04-26T14:23:12.754Z</time></trkpt><trkpt lat="42.4938388" lon="14.1450443"><ele>135.5</ele><time>2026-04-26T14:23:13.756Z</time></trkpt><trkpt lat="42.4938898" lon="14.1449133"><ele>134.0</ele><time>2026-04-26T14:23:14.754Z</time></trkpt><trkpt lat="42.4939317" lon="14.1447637"><ele>132.5</ele><time>2026-04-26T14:23:15.755Z</time></trkpt><trkpt lat="42.4939765" lon="14.1446043"><ele>131.0</ele><time>2026-04-26T14:23:16.756Z</time></trkpt><trkpt lat="42.4940218" lon="14.144445"><ele>127.75</ele><time>2026-04-26T14:23:17.756Z</time></trkpt><trkpt lat="42.4940732" lon="14.1442957"><ele>124.5</ele><time>2026-04-26T14:23:18.755Z</time></trkpt><trkpt lat="42.4941328" lon="14.1441618"><ele>121.25</ele><time>2026-04-26T14:23:19.754Z</time></trkpt><trkpt lat="42.4942075" lon="14.1440525"><ele>118.0</ele><time>2026-04-26T14:23:20.754Z</time></trkpt><trkpt lat="42.4942947" lon="14.1439687"><ele>114.5</ele><time>2026-04-26T14:23:21.758Z</time></trkpt><trkpt lat="42.4943973" lon="14.143901"><ele>111.0</ele><time>2026-04-26T14:23:22.759Z</time></trkpt><trkpt lat="42.4945105" lon="14.1438558"><ele>107.5</ele><time>2026-04-26T14:23:23.757Z</time></trkpt><trkpt lat="42.4946338" lon="14.1438375"><ele>104.0</ele><time>2026-04-26T14:23:24.757Z</time></trkpt><trkpt lat="42.4947613" lon="14.1438372"><ele>104.0</ele><time>2026-04-26T14:23:25.756Z</time></trkpt><trkpt lat="42.494888" lon="14.1438347"><ele>104.0</ele><time>2026-04-26T14:23:26.756Z</time></trkpt><trkpt lat="42.4950178" lon="14.143824"><ele>104.0</ele><time>2026-04-26T14:23:27.757Z</time></trkpt><trkpt lat="42.4951482" lon="14.1437955"><ele>104.0</ele><time>2026-04-26T14:23:28.757Z</time></trkpt><trkpt lat="42.4952833" lon="14.1437577"><ele>105.75</ele><time>2026-04-26T14:23:29.759Z</time></trkpt><trkpt lat="42.4954215" lon="14.1437125"><ele>107.5</ele><time>2026-04-26T14:23:30.758Z</time></trkpt><trkpt lat="42.4955563" lon="14.143651"><ele>109.25</ele><time>2026-04-26T14:23:31.758Z</time></trkpt><trkpt lat="42.4956857" lon="14.1435657"><ele>111.0</ele><time>2026-04-26T14:23:32.758Z</time></trkpt><trkpt lat="42.4958122" lon="14.1434633"><ele>111.0</ele><time>2026-04-26T14:23:33.76Z</time></trkpt><trkpt lat="42.4959375" lon="14.143349"><ele>111.0</ele><time>2026-04-26T14:23:34.76Z</time></trkpt><trkpt lat="42.4960578" lon="14.1432387"><ele>111.0</ele><time>2026-04-26T14:23:35.759Z</time></trkpt><trkpt lat="42.4961707" lon="14.1431357"><ele>111.0</ele><time>2026-04-26T14:23:36.759Z</time></trkpt><trkpt lat="42.4962762" lon="14.1430445"><ele>108.8</ele><time>2026-04-26T14:23:37.759Z</time></trkpt><trkpt lat="42.496376" lon="14.1429587"><ele>106.6</ele><time>2026-04-26T14:23:38.761Z</time></trkpt><trkpt lat="42.4964735" lon="14.1428777"><ele>104.4</ele><time>2026-04-26T14:23:39.763Z</time></trkpt><trkpt lat="42.4965678" lon="14.1428013"><ele>102.2</ele><time>2026-04-26T14:23:40.759Z</time></trkpt><trkpt lat="42.4966535" lon="14.14273"><ele>100.0</ele><time>2026-04-26T14:23:41.758Z</time></trkpt><trkpt lat="42.4967298" lon="14.1426588"><ele>100.0</ele><time>2026-04-26T14:23:42.756Z</time></trkpt><trkpt lat="42.4968168" lon="14.1425858"><ele>100.0</ele><time>2026-04-26T14:23:43.756Z</time></trkpt><trkpt lat="42.4969113" lon="14.1425008"><ele>100.0</ele><time>2026-04-26T14:23:44.757Z</time></trkpt><trkpt lat="42.4970123" lon="14.1423973"><ele>100.0</ele><time>2026-04-26T14:23:45.757Z</time></trkpt><trkpt lat="42.4971132" lon="14.1422867"><ele>97.0</ele><time>2026-04-26T14:23:46.76Z</time></trkpt><trkpt lat="42.497209" lon="14.1421787"><ele>94.0</ele><time>2026-04-26T14:23:47.762Z</time></trkpt><trkpt lat="42.4972958" lon="14.142079"><ele>91.0</ele><time>2026-04-26T14:23:48.76Z</time></trkpt><trkpt lat="42.4973752" lon="14.1420037"><ele>88.0</ele><time>2026-04-26T14:23:49.757Z</time></trkpt><trkpt lat="42.4974468" lon="14.1419633"><ele>85.0</ele><time>2026-04-26T14:23:50.759Z</time></trkpt><trkpt lat="42.497516" lon="14.1419702"><ele>85.0</ele><time>2026-04-26T14:23:51.761Z</time></trkpt><trkpt lat="42.4975677" lon="14.1420222"><ele>85.0</ele><time>2026-04-26T14:23:52.764Z</time></trkpt><trkpt lat="42.4975967" lon="14.1421087"><ele>85.0</ele><time>2026-04-26T14:23:53.761Z</time></trkpt><trkpt lat="42.4975943" lon="14.1422118"><ele>85.0</ele><time>2026-04-26T14:23:54.762Z</time></trkpt><trkpt lat="42.49756" lon="14.1423227"><ele>85.0</ele><time>2026-04-26T14:23:55.76Z</time></trkpt><trkpt lat="42.497499" lon="14.1424402"><ele>85.0</ele><time>2026-04-26T14:23:56.759Z</time></trkpt><trkpt lat="42.4974235" lon="14.142572"><ele>85.25</ele><time>2026-04-26T14:23:57.759Z</time></trkpt><trkpt lat="42.4973392" lon="14.1427223"><ele>85.5</ele><time>2026-04-26T14:23:58.759Z</time></trkpt><trkpt lat="42.4972472" lon="14.1428828"><ele>85.75</ele><time>2026-04-26T14:23:59.758Z</time></trkpt><trkpt lat="42.4971487" lon="14.1430518"><ele>86.0</ele><time>2026-04-26T14:24:00.758Z</time></trkpt><trkpt lat="42.49705" lon="14.1432303"><ele>89.33333333333334</ele><time>2026-04-26T14:24:01.759Z</time></trkpt><trkpt lat="42.4969507" lon="14.1434023"><ele>92.66666666666667</ele><time>2026-04-26T14:24:02.757Z</time></trkpt><trkpt lat="42.4968545" lon="14.1435642"><ele>96.0</ele><time>2026-04-26T14:24:03.758Z</time></trkpt><trkpt lat="42.4966792" lon="14.1438188"><ele>96.0</ele><time>2026-04-26T14:24:05.567Z</time></trkpt><trkpt lat="42.4965915" lon="14.143939"><ele>96.0</ele><time>2026-04-26T14:24:06.565Z</time></trkpt><trkpt lat="42.496518" lon="14.144059"><ele>96.0</ele><time>2026-04-26T14:24:07.565Z</time></trkpt><trkpt lat="42.4964625" lon="14.1441933"><ele>96.0</ele><time>2026-04-26T14:24:08.565Z</time></trkpt><trkpt lat="42.4964277" lon="14.1443498"><ele>92.5</ele><time>2026-04-26T14:24:09.565Z</time></trkpt><trkpt lat="42.496419" lon="14.1445153"><ele>89.0</ele><time>2026-04-26T14:24:10.564Z</time></trkpt><trkpt lat="42.4964272" lon="14.1446873"><ele>85.5</ele><time>2026-04-26T14:24:11.563Z</time></trkpt><trkpt lat="42.4964218" lon="14.1448552"><ele>82.0</ele><time>2026-04-26T14:24:12.563Z</time></trkpt><trkpt lat="42.4963945" lon="14.1450198"><ele>84.5</ele><time>2026-04-26T14:24:13.563Z</time></trkpt><trkpt lat="42.49634" lon="14.1451773"><ele>87.0</ele><time>2026-04-26T14:24:14.564Z</time></trkpt><trkpt lat="42.4962728" lon="14.1453228"><ele>89.5</ele><time>2026-04-26T14:24:15.564Z</time></trkpt><trkpt lat="42.4962107" lon="14.1454543"><ele>92.0</ele><time>2026-04-26T14:24:16.562Z</time></trkpt><trkpt lat="42.4961817" lon="14.1455928"><ele>90.0</ele><time>2026-04-26T14:24:17.564Z</time></trkpt><trkpt lat="42.4961862" lon="14.1457267"><ele>88.0</ele><time>2026-04-26T14:24:18.563Z</time></trkpt><trkpt lat="42.4962215" lon="14.1458425"><ele>86.0</ele><time>2026-04-26T14:24:19.562Z</time></trkpt><trkpt lat="42.496291" lon="14.1459363"><ele>84.0</ele><time>2026-04-26T14:24:20.563Z</time></trkpt><trkpt lat="42.4963822" lon="14.14599"><ele>82.0</ele><time>2026-04-26T14:24:21.562Z</time></trkpt><trkpt lat="42.4964808" lon="14.1460018"><ele>80.0</ele><time>2026-04-26T14:24:22.563Z</time></trkpt><trkpt lat="42.4965682" lon="14.1459643"><ele>78.0</ele><time>2026-04-26T14:24:23.563Z</time></trkpt><trkpt lat="42.4966433" lon="14.1458893"><ele>76.0</ele><time>2026-04-26T14:24:24.564Z</time></trkpt><trkpt lat="42.4966968" lon="14.1457713"><ele>74.0</ele><time>2026-04-26T14:24:25.564Z</time></trkpt><trkpt lat="42.4967227" lon="14.1456222"><ele>72.0</ele><time>2026-04-26T14:24:26.565Z</time></trkpt><trkpt lat="42.4967377" lon="14.1454518"><ele>71.5</ele><time>2026-04-26T14:24:27.565Z</time></trkpt><trkpt lat="42.4967568" lon="14.1452845"><ele>71.0</ele><time>2026-04-26T14:24:28.564Z</time></trkpt><trkpt lat="42.4967997" lon="14.1451205"><ele>70.5</ele><time>2026-04-26T14:24:29.566Z</time></trkpt><trkpt lat="42.4968668" lon="14.1449615"><ele>70.0</ele><time>2026-04-26T14:24:30.565Z</time></trkpt><trkpt lat="42.4969497" lon="14.1448182"><ele>67.5</ele><time>2026-04-26T14:24:31.564Z</time></trkpt><trkpt lat="42.4970433" lon="14.1446988"><ele>65.0</ele><time>2026-04-26T14:24:32.565Z</time></trkpt><trkpt lat="42.4971512" lon="14.1446008"><ele>62.5</ele><time>2026-04-26T14:24:33.562Z</time></trkpt><trkpt lat="42.497268" lon="14.1445107"><ele>60.0</ele><time>2026-04-26T14:24:34.562Z</time></trkpt><trkpt lat="42.4973882" lon="14.1444263"><ele>60.0</ele><time>2026-04-26T14:24:35.564Z</time></trkpt><trkpt lat="42.4975033" lon="14.1443317"><ele>60.0</ele><time>2026-04-26T14:24:36.564Z</time></trkpt><trkpt lat="42.4976122" lon="14.1442157"><ele>60.0</ele><time>2026-04-26T14:24:37.564Z</time></trkpt><trkpt lat="42.4977147" lon="14.144083"><ele>60.0</ele><time>2026-04-26T14:24:38.565Z</time></trkpt><trkpt lat="42.4978178" lon="14.1439418"><ele>57.75</ele><time>2026-04-26T14:24:39.565Z</time></trkpt><trkpt lat="42.4979183" lon="14.1438048"><ele>55.5</ele><time>2026-04-26T14:24:40.564Z</time></trkpt><trkpt lat="42.4980127" lon="14.1436715"><ele>53.25</ele><time>2026-04-26T14:24:41.562Z</time></trkpt><trkpt lat="42.4981018" lon="14.14354"><ele>51.0</ele><time>2026-04-26T14:24:42.561Z</time></trkpt><trkpt lat="42.4981845" lon="14.143411"><ele>51.0</ele><time>2026-04-26T14:24:43.562Z</time></trkpt><trkpt lat="42.4982613" lon="14.1432867"><ele>51.0</ele><time>2026-04-26T14:24:44.562Z</time></trkpt><trkpt lat="42.4983312" lon="14.1431712"><ele>51.0</ele><time>2026-04-26T14:24:45.565Z</time></trkpt><trkpt lat="42.4983928" lon="14.143065"><ele>51.0</ele><time>2026-04-26T14:24:46.567Z</time></trkpt><trkpt lat="42.4984512" lon="14.1429733"><ele>51.0</ele><time>2026-04-26T14:24:47.565Z</time></trkpt><trkpt lat="42.4985043" lon="14.142895"><ele>49.666666666666664</ele><time>2026-04-26T14:24:48.565Z</time></trkpt><trkpt lat="42.4985787" lon="14.1428022"><ele>48.333333333333336</ele><time>2026-04-26T14:24:50.564Z</time></trkpt><trkpt lat="42.4986303" lon="14.1427455"><ele>47.0</ele><time>2026-04-26T14:24:54.567Z</time></trkpt><trkpt lat="42.4986825" lon="14.1426872"><ele>45.66666666666667</ele><time>2026-04-26T14:25:09.759Z</time></trkpt><trkpt lat="42.4987565" lon="14.1425698"><ele>44.333333333333336</ele><time>2026-04-26T14:25:20.755Z</time></trkpt><trkpt lat="42.498779" lon="14.1424793"><ele>43.0</ele><time>2026-04-26T14:25:21.756Z</time></trkpt><trkpt lat="42.4988012" lon="14.1423637"><ele>43.0</ele><time>2026-04-26T14:25:22.759Z</time></trkpt><trkpt lat="42.498838" lon="14.1422345"><ele>43.0</ele><time>2026-04-26T14:25:23.755Z</time></trkpt><trkpt lat="42.4988903" lon="14.142096"><ele>43.0</ele><time>2026-04-26T14:25:24.759Z</time></trkpt><trkpt lat="42.4989502" lon="14.1419498"><ele>43.0</ele><time>2026-04-26T14:25:25.757Z</time></trkpt><trkpt lat="42.4990123" lon="14.1418113"><ele>43.0</ele><time>2026-04-26T14:25:26.76Z</time></trkpt><trkpt lat="42.4990777" lon="14.141682"><ele>43.0</ele><time>2026-04-26T14:25:27.758Z</time></trkpt><trkpt lat="42.4991502" lon="14.1415573"><ele>43.0</ele><time>2026-04-26T14:25:28.757Z</time></trkpt><trkpt lat="42.49923" lon="14.1414383"><ele>43.0</ele><time>2026-04-26T14:25:29.757Z</time></trkpt><trkpt lat="42.4993147" lon="14.1413232"><ele>45.25</ele><time>2026-04-26T14:25:30.757Z</time></trkpt><trkpt lat="42.4994027" lon="14.1412168"><ele>47.5</ele><time>2026-04-26T14:25:31.756Z</time></trkpt><trkpt lat="42.4994907" lon="14.1411213"><ele>49.75</ele><time>2026-04-26T14:25:32.76Z</time></trkpt><trkpt lat="42.499581" lon="14.141031"><ele>52.0</ele><time>2026-04-26T14:25:33.76Z</time></trkpt><trkpt lat="42.499675" lon="14.1409387"><ele>48.75</ele><time>2026-04-26T14:25:34.759Z</time></trkpt><trkpt lat="42.4997695" lon="14.1408408"><ele>45.5</ele><time>2026-04-26T14:25:35.757Z</time></trkpt><trkpt lat="42.4998607" lon="14.1407332"><ele>42.25</ele><time>2026-04-26T14:25:36.759Z</time></trkpt><trkpt lat="42.4999483" lon="14.1406167"><ele>39.0</ele><time>2026-04-26T14:25:37.756Z</time></trkpt><trkpt lat="42.5000352" lon="14.1404923"><ele>39.0</ele><time>2026-04-26T14:25:38.757Z</time></trkpt><trkpt lat="42.5001178" lon="14.1403652"><ele>39.0</ele><time>2026-04-26T14:25:39.759Z</time></trkpt><trkpt lat="42.5001985" lon="14.1402425"><ele>39.0</ele><time>2026-04-26T14:25:40.756Z</time></trkpt><trkpt lat="42.5002802" lon="14.1401212"><ele>39.0</ele><time>2026-04-26T14:25:41.759Z</time></trkpt><trkpt lat="42.5003573" lon="14.1400007"><ele>36.6</ele><time>2026-04-26T14:25:42.756Z</time></trkpt><trkpt lat="42.5004322" lon="14.1398838"><ele>34.2</ele><time>2026-04-26T14:25:43.757Z</time></trkpt><trkpt lat="42.5005045" lon="14.1397717"><ele>31.800000000000004</ele><time>2026-04-26T14:25:44.755Z</time></trkpt><trkpt lat="42.5005712" lon="14.1396583"><ele>29.400000000000002</ele><time>2026-04-26T14:25:45.754Z</time></trkpt><trkpt lat="42.5006357" lon="14.139546"><ele>27.0</ele><time>2026-04-26T14:25:46.757Z</time></trkpt><trkpt lat="42.5006965" lon="14.139437"><ele>26.8</ele><time>2026-04-26T14:25:47.755Z</time></trkpt><trkpt lat="42.5007553" lon="14.1393308"><ele>26.6</ele><time>2026-04-26T14:25:48.757Z</time></trkpt><trkpt lat="42.5008138" lon="14.1392252"><ele>26.400000000000002</ele><time>2026-04-26T14:25:49.757Z</time></trkpt><trkpt lat="42.5008773" lon="14.1391142"><ele>26.200000000000003</ele><time>2026-04-26T14:25:50.759Z</time></trkpt><trkpt lat="42.5009407" lon="14.1390088"><ele>26.0</ele><time>2026-04-26T14:25:51.758Z</time></trkpt><trkpt lat="42.501001" lon="14.1389158"><ele>25.166666666666664</ele><time>2026-04-26T14:25:52.757Z</time></trkpt><trkpt lat="42.5010613" lon="14.1388413"><ele>24.333333333333332</ele><time>2026-04-26T14:25:53.761Z</time></trkpt><trkpt lat="42.5011242" lon="14.1387857"><ele>23.5</ele><time>2026-04-26T14:25:54.757Z</time></trkpt><trkpt lat="42.501187" lon="14.1387453"><ele>22.666666666666664</ele><time>2026-04-26T14:25:55.759Z</time></trkpt><trkpt lat="42.5012998" lon="14.1387197"><ele>21.833333333333332</ele><time>2026-04-26T14:25:57.759Z</time></trkpt><trkpt lat="42.5013933" lon="14.1387477"><ele>21.0</ele><time>2026-04-26T14:25:59.76Z</time></trkpt><trkpt lat="42.5014902" lon="14.1387552"><ele>20.400000000000002</ele><time>2026-04-26T14:26:01.76Z</time></trkpt><trkpt lat="42.5016012" lon="14.138658"><ele>19.8</ele><time>2026-04-26T14:26:03.759Z</time></trkpt><trkpt lat="42.5016675" lon="14.1385842"><ele>19.200000000000003</ele><time>2026-04-26T14:26:04.761Z</time></trkpt><trkpt lat="42.501746" lon="14.1385002"><ele>18.6</ele><time>2026-04-26T14:26:05.759Z</time></trkpt><trkpt lat="42.5018338" lon="14.1384077"><ele>18.0</ele><time>2026-04-26T14:26:06.759Z</time></trkpt><trkpt lat="42.5019302" lon="14.1383065"><ele>17.5</ele><time>2026-04-26T14:26:07.761Z</time></trkpt><trkpt lat="42.5020337" lon="14.1382008"><ele>17.0</ele><time>2026-04-26T14:26:08.759Z</time></trkpt><trkpt lat="42.502135" lon="14.1380932"><ele>16.5</ele><time>2026-04-26T14:26:09.757Z</time></trkpt><trkpt lat="42.502236" lon="14.1379797"><ele>16.0</ele><time>2026-04-26T14:26:10.759Z</time></trkpt><trkpt lat="42.5023317" lon="14.137868"><ele>16.0</ele><time>2026-04-26T14:26:11.757Z</time></trkpt><trkpt lat="42.5024267" lon="14.137753"><ele>16.0</ele><time>2026-04-26T14:26:12.759Z</time></trkpt><trkpt lat="42.5025225" lon="14.1376308"><ele>16.0</ele><time>2026-04-26T14:26:13.76Z</time></trkpt><trkpt lat="42.5026202" lon="14.137506"><ele>16.0</ele><time>2026-04-26T14:26:14.761Z</time></trkpt><trkpt lat="42.5027157" lon="14.1373812"><ele>16.0</ele><time>2026-04-26T14:26:15.76Z</time></trkpt><trkpt lat="42.5028095" lon="14.1372558"><ele>16.0</ele><time>2026-04-26T14:26:16.759Z</time></trkpt><trkpt lat="42.5029027" lon="14.137131"><ele>16.0</ele><time>2026-04-26T14:26:17.76Z</time></trkpt><trkpt lat="42.5029933" lon="14.137007"><ele>16.0</ele><time>2026-04-26T14:26:18.759Z</time></trkpt><trkpt lat="42.5030855" lon="14.1368872"><ele>16.0</ele><time>2026-04-26T14:26:19.76Z</time></trkpt><trkpt lat="42.5031758" lon="14.1367682"><ele>16.0</ele><time>2026-04-26T14:26:20.759Z</time></trkpt><trkpt lat="42.5032632" lon="14.136655"><ele>16.0</ele><time>2026-04-26T14:26:21.759Z</time></trkpt><trkpt lat="42.5033417" lon="14.1365537"><ele>16.0</ele><time>2026-04-26T14:26:22.758Z</time></trkpt><trkpt lat="42.5034137" lon="14.13646"><ele>15.666666666666666</ele><time>2026-04-26T14:26:23.762Z</time></trkpt><trkpt lat="42.5034768" lon="14.1363727"><ele>15.333333333333332</ele><time>2026-04-26T14:26:24.759Z</time></trkpt><trkpt lat="42.5035353" lon="14.1362965"><ele>15.0</ele><time>2026-04-26T14:26:25.759Z</time></trkpt><trkpt lat="42.5035895" lon="14.1362327"><ele>14.666666666666668</ele><time>2026-04-26T14:26:26.758Z</time></trkpt><trkpt lat="42.5036692" lon="14.1361602"><ele>14.333333333333334</ele><time>2026-04-26T14:26:28.76Z</time></trkpt><trkpt lat="42.503719" lon="14.1360878"><ele>14.0</ele><time>2026-04-26T14:26:45.758Z</time></trkpt><trkpt lat="42.5036975" lon="14.1359847"><ele>14.0</ele><time>2026-04-26T14:26:47.76Z</time></trkpt><trkpt lat="42.5035918" lon="14.1358677"><ele>13.999999999999998</ele><time>2026-04-26T14:26:49.761Z</time></trkpt><trkpt lat="42.5035292" lon="14.1358033"><ele>13.999999999999998</ele><time>2026-04-26T14:26:50.759Z</time></trkpt><trkpt lat="42.5034685" lon="14.135733"><ele>14.0</ele><time>2026-04-26T14:26:51.76Z</time></trkpt><trkpt lat="42.5034005" lon="14.1356598"><ele>14.0</ele><time>2026-04-26T14:26:52.759Z</time></trkpt><trkpt lat="42.5033303" lon="14.1355827"><ele>13.666666666666668</ele><time>2026-04-26T14:26:53.76Z</time></trkpt><trkpt lat="42.5032672" lon="14.1355103"><ele>13.333333333333334</ele><time>2026-04-26T14:26:54.758Z</time></trkpt><trkpt lat="42.5032152" lon="14.1354477"><ele>13.0</ele><time>2026-04-26T14:26:55.758Z</time></trkpt><trkpt lat="42.50316" lon="14.1353578"><ele>12.666666666666668</ele><time>2026-04-26T14:26:57.759Z</time></trkpt><trkpt lat="42.5031567" lon="14.1352267"><ele>12.333333333333334</ele><time>2026-04-26T14:26:59.756Z</time></trkpt><trkpt lat="42.5031765" lon="14.1351338"><ele>12.0</ele><time>2026-04-26T14:27:00.757Z</time></trkpt><trkpt lat="42.503206" lon="14.1350215"><ele>12.0</ele><time>2026-04-26T14:27:01.755Z</time></trkpt><trkpt lat="42.5032382" lon="14.1348967"><ele>12.0</ele><time>2026-04-26T14:27:02.759Z</time></trkpt><trkpt lat="42.5032728" lon="14.13476"><ele>12.0</ele><time>2026-04-26T14:27:03.76Z</time></trkpt><trkpt lat="42.503309" lon="14.1346158"><ele>12.0</ele><time>2026-04-26T14:27:04.759Z</time></trkpt><trkpt lat="42.503347" lon="14.1344718"><ele>12.0</ele><time>2026-04-26T14:27:05.759Z</time></trkpt><trkpt lat="42.5033813" lon="14.134335"><ele>12.2</ele><time>2026-04-26T14:27:06.76Z</time></trkpt><trkpt lat="42.5034132" lon="14.1342053"><ele>12.399999999999999</ele><time>2026-04-26T14:27:07.759Z</time></trkpt><trkpt lat="42.5034463" lon="14.1340812"><ele>12.600000000000001</ele><time>2026-04-26T14:27:08.762Z</time></trkpt><trkpt lat="42.5034805" lon="14.1339568"><ele>12.8</ele><time>2026-04-26T14:27:09.76Z</time></trkpt><trkpt lat="42.5035185" lon="14.1338432"><ele>13.0</ele><time>2026-04-26T14:27:10.758Z</time></trkpt><trkpt lat="42.5035707" lon="14.1337397"><ele>13.0</ele><time>2026-04-26T14:27:11.76Z</time></trkpt><trkpt lat="42.5036382" lon="14.1336453"><ele>13.0</ele><time>2026-04-26T14:27:12.758Z</time></trkpt><trkpt lat="42.503715" lon="14.1335592"><ele>13.0</ele><time>2026-04-26T14:27:13.759Z</time></trkpt><trkpt lat="42.5038028" lon="14.1334748"><ele>13.0</ele><time>2026-04-26T14:27:14.76Z</time></trkpt><trkpt lat="42.503892" lon="14.1333908"><ele>13.0</ele><time>2026-04-26T14:27:15.761Z</time></trkpt><trkpt lat="42.5039862" lon="14.1333015"><ele>13.0</ele><time>2026-04-26T14:27:16.758Z</time></trkpt><trkpt lat="42.5040862" lon="14.1332078"><ele>13.0</ele><time>2026-04-26T14:27:17.758Z</time></trkpt><trkpt lat="42.5041903" lon="14.1331108"><ele>13.0</ele><time>2026-04-26T14:27:18.76Z</time></trkpt><trkpt lat="42.5042925" lon="14.1330157"><ele>13.0</ele><time>2026-04-26T14:27:19.762Z</time></trkpt><trkpt lat="42.5043953" lon="14.1329205"><ele>13.0</ele><time>2026-04-26T14:27:20.758Z</time></trkpt><trkpt lat="42.5044997" lon="14.132824"><ele>13.0</ele><time>2026-04-26T14:27:21.76Z</time></trkpt><trkpt lat="42.504606" lon="14.1327277"><ele>13.0</ele><time>2026-04-26T14:27:22.757Z</time></trkpt><trkpt lat="42.5047132" lon="14.132631"><ele>13.0</ele><time>2026-04-26T14:27:23.755Z</time></trkpt><trkpt lat="42.5048195" lon="14.1325338"><ele>12.0</ele><time>2026-04-26T14:27:24.757Z</time></trkpt><trkpt lat="42.5049248" lon="14.1324368"><ele>11.0</ele><time>2026-04-26T14:27:25.756Z</time></trkpt><trkpt lat="42.5050282" lon="14.1323407"><ele>10.0</ele><time>2026-04-26T14:27:26.758Z</time></trkpt><trkpt lat="42.5051282" lon="14.1322452"><ele>9.0</ele><time>2026-04-26T14:27:27.758Z</time></trkpt><trkpt lat="42.5052217" lon="14.1321553"><ele>9.0</ele><time>2026-04-26T14:27:28.758Z</time></trkpt><trkpt lat="42.5053108" lon="14.1320717"><ele>9.0</ele><time>2026-04-26T14:27:29.76Z</time></trkpt><trkpt lat="42.5054035" lon="14.13199"><ele>9.0</ele><time>2026-04-26T14:27:30.76Z</time></trkpt><trkpt lat="42.5054967" lon="14.1319065"><ele>9.0</ele><time>2026-04-26T14:27:31.759Z</time></trkpt><trkpt lat="42.5055847" lon="14.1318243"><ele>9.0</ele><time>2026-04-26T14:27:32.758Z</time></trkpt><trkpt lat="42.5056717" lon="14.1317437"><ele>9.0</ele><time>2026-04-26T14:27:33.76Z</time></trkpt><trkpt lat="42.50576" lon="14.131664"><ele>9.0</ele><time>2026-04-26T14:27:34.759Z</time></trkpt><trkpt lat="42.5058492" lon="14.1315838"><ele>9.0</ele><time>2026-04-26T14:27:35.759Z</time></trkpt><trkpt lat="42.5059347" lon="14.131506"><ele>9.0</ele><time>2026-04-26T14:27:36.763Z</time></trkpt><trkpt lat="42.5060198" lon="14.1314272"><ele>9.0</ele><time>2026-04-26T14:27:37.759Z</time></trkpt><trkpt lat="42.5061033" lon="14.131349"><ele>9.0</ele><time>2026-04-26T14:27:38.762Z</time></trkpt><trkpt lat="42.5061848" lon="14.1312748"><ele>9.0</ele><time>2026-04-26T14:27:39.761Z</time></trkpt><trkpt lat="42.506269" lon="14.1312023"><ele>9.0</ele><time>2026-04-26T14:27:40.76Z</time></trkpt><trkpt lat="42.5063583" lon="14.1311345"><ele>9.0</ele><time>2026-04-26T14:27:41.761Z</time></trkpt><trkpt lat="42.5064573" lon="14.1310685"><ele>9.0</ele><time>2026-04-26T14:27:42.761Z</time></trkpt><trkpt lat="42.5065563" lon="14.1310068"><ele>9.0</ele><time>2026-04-26T14:27:43.76Z</time></trkpt><trkpt lat="42.5066563" lon="14.1309445"><ele>9.0</ele><time>2026-04-26T14:27:44.76Z</time></trkpt><trkpt lat="42.5067602" lon="14.1308853"><ele>9.0</ele><time>2026-04-26T14:27:45.759Z</time></trkpt><trkpt lat="42.506867" lon="14.1308322"><ele>9.0</ele><time>2026-04-26T14:27:46.76Z</time></trkpt><trkpt lat="42.5069777" lon="14.1307855"><ele>9.5</ele><time>2026-04-26T14:27:47.759Z</time></trkpt><trkpt lat="42.5070907" lon="14.1307447"><ele>10.0</ele><time>2026-04-26T14:27:48.761Z</time></trkpt><trkpt lat="42.5072068" lon="14.1307072"><ele>10.5</ele><time>2026-04-26T14:27:49.759Z</time></trkpt><trkpt lat="42.5073262" lon="14.1306695"><ele>11.0</ele><time>2026-04-26T14:27:50.758Z</time></trkpt><trkpt lat="42.5074475" lon="14.1306292"><ele>11.25</ele><time>2026-04-26T14:27:51.76Z</time></trkpt><trkpt lat="42.5075697" lon="14.130583"><ele>11.5</ele><time>2026-04-26T14:27:52.758Z</time></trkpt><trkpt lat="42.5076887" lon="14.130527"><ele>11.75</ele><time>2026-04-26T14:27:53.759Z</time></trkpt><trkpt lat="42.5078058" lon="14.1304588"><ele>12.0</ele><time>2026-04-26T14:27:54.76Z</time></trkpt><trkpt lat="42.5079193" lon="14.130383"><ele>12.0</ele><time>2026-04-26T14:27:55.76Z</time></trkpt><trkpt lat="42.5080322" lon="14.1303"><ele>12.0</ele><time>2026-04-26T14:27:56.761Z</time></trkpt><trkpt lat="42.5081373" lon="14.130217"><ele>12.0</ele><time>2026-04-26T14:27:57.76Z</time></trkpt><trkpt lat="42.5082405" lon="14.1301328"><ele>12.0</ele><time>2026-04-26T14:27:58.762Z</time></trkpt><trkpt lat="42.508343" lon="14.1300473"><ele>12.0</ele><time>2026-04-26T14:27:59.762Z</time></trkpt><trkpt lat="42.5084437" lon="14.1299625"><ele>12.0</ele><time>2026-04-26T14:28:00.762Z</time></trkpt><trkpt lat="42.5085348" lon="14.1298843"><ele>12.0</ele><time>2026-04-26T14:28:01.76Z</time></trkpt><trkpt lat="42.5086155" lon="14.1298192"><ele>12.0</ele><time>2026-04-26T14:28:02.76Z</time></trkpt><trkpt lat="42.5086902" lon="14.1297683"><ele>12.0</ele><time>2026-04-26T14:28:03.76Z</time></trkpt><trkpt lat="42.508766" lon="14.1297378"><ele>11.0</ele><time>2026-04-26T14:28:04.762Z</time></trkpt><trkpt lat="42.5088512" lon="14.1297347"><ele>10.0</ele><time>2026-04-26T14:28:05.76Z</time></trkpt><trkpt lat="42.5089397" lon="14.1297597"><ele>9.0</ele><time>2026-04-26T14:28:06.761Z</time></trkpt><trkpt lat="42.509027" lon="14.129813"><ele>8.0</ele><time>2026-04-26T14:28:07.763Z</time></trkpt><trkpt lat="42.509108" lon="14.1298937"><ele>7.0</ele><time>2026-04-26T14:28:08.761Z</time></trkpt><trkpt lat="42.509188" lon="14.1299958"><ele>7.0</ele><time>2026-04-26T14:28:09.762Z</time></trkpt><trkpt lat="42.5092823" lon="14.1301228"><ele>7.0</ele><time>2026-04-26T14:28:10.759Z</time></trkpt><trkpt lat="42.5093865" lon="14.1302647"><ele>7.0</ele><time>2026-04-26T14:28:11.761Z</time></trkpt><trkpt lat="42.5094953" lon="14.130411"><ele>7.0</ele><time>2026-04-26T14:28:12.759Z</time></trkpt><trkpt lat="42.5096127" lon="14.1305737"><ele>6.333333333333334</ele><time>2026-04-26T14:28:13.758Z</time></trkpt><trkpt lat="42.5097303" lon="14.1307433"><ele>5.666666666666667</ele><time>2026-04-26T14:28:14.757Z</time></trkpt><trkpt lat="42.509842" lon="14.1309103"><ele>5.0</ele><time>2026-04-26T14:28:15.76Z</time></trkpt><trkpt lat="42.5099485" lon="14.131075"><ele>5.0</ele><time>2026-04-26T14:28:16.759Z</time></trkpt><trkpt lat="42.5100507" lon="14.1312395"><ele>5.0</ele><time>2026-04-26T14:28:17.759Z</time></trkpt><trkpt lat="42.5101485" lon="14.1314065"><ele>5.0</ele><time>2026-04-26T14:28:18.763Z</time></trkpt><trkpt lat="42.5102452" lon="14.1315802"><ele>5.333333333333334</ele><time>2026-04-26T14:28:19.76Z</time></trkpt><trkpt lat="42.5103412" lon="14.1317605"><ele>5.666666666666667</ele><time>2026-04-26T14:28:20.76Z</time></trkpt><trkpt lat="42.5104385" lon="14.1319445"><ele>6.0</ele><time>2026-04-26T14:28:21.761Z</time></trkpt><trkpt lat="42.5105365" lon="14.1321317"><ele>6.0</ele><time>2026-04-26T14:28:22.761Z</time></trkpt><trkpt lat="42.5106323" lon="14.1323162"><ele>6.0</ele><time>2026-04-26T14:28:23.762Z</time></trkpt><trkpt lat="42.510727" lon="14.1324972"><ele>6.0</ele><time>2026-04-26T14:28:24.764Z</time></trkpt><trkpt lat="42.5108217" lon="14.1326775"><ele>6.0</ele><time>2026-04-26T14:28:25.762Z</time></trkpt><trkpt lat="42.5109168" lon="14.1328527"><ele>6.0</ele><time>2026-04-26T14:28:26.76Z</time></trkpt><trkpt lat="42.5110132" lon="14.1330227"><ele>6.0</ele><time>2026-04-26T14:28:27.763Z</time></trkpt><trkpt lat="42.5111108" lon="14.1331877"><ele>6.333333333333334</ele><time>2026-04-26T14:28:28.762Z</time></trkpt><trkpt lat="42.5112067" lon="14.1333475"><ele>6.666666666666667</ele><time>2026-04-26T14:28:29.762Z</time></trkpt><trkpt lat="42.5113" lon="14.1335077"><ele>7.0</ele><time>2026-04-26T14:28:30.765Z</time></trkpt><trkpt lat="42.5113875" lon="14.1336698"><ele>6.5</ele><time>2026-04-26T14:28:31.764Z</time></trkpt><trkpt lat="42.511466" lon="14.1338308"><ele>6.0</ele><time>2026-04-26T14:28:32.763Z</time></trkpt><trkpt lat="42.5115417" lon="14.133989"><ele>5.5</ele><time>2026-04-26T14:28:33.761Z</time></trkpt><trkpt lat="42.5116223" lon="14.1341408"><ele>5.0</ele><time>2026-04-26T14:28:34.761Z</time></trkpt><trkpt lat="42.5117127" lon="14.1342775"><ele>5.0</ele><time>2026-04-26T14:28:35.763Z</time></trkpt><trkpt lat="42.5118133" lon="14.1343953"><ele>5.0</ele><time>2026-04-26T14:28:36.759Z</time></trkpt><trkpt lat="42.5119235" lon="14.1344982"><ele>5.0</ele><time>2026-04-26T14:28:37.757Z</time></trkpt><trkpt lat="42.5120422" lon="14.134592"><ele>5.0</ele><time>2026-04-26T14:28:38.76Z</time></trkpt><trkpt lat="42.512167" lon="14.1346822"><ele>4.5</ele><time>2026-04-26T14:28:39.759Z</time></trkpt><trkpt lat="42.512297" lon="14.1347713"><ele>4.0</ele><time>2026-04-26T14:28:40.76Z</time></trkpt><trkpt lat="42.51243" lon="14.1348607"><ele>3.5</ele><time>2026-04-26T14:28:41.762Z</time></trkpt><trkpt lat="42.5125642" lon="14.1349527"><ele>3.0</ele><time>2026-04-26T14:28:42.761Z</time></trkpt><trkpt lat="42.5126965" lon="14.1350518"><ele>3.0</ele><time>2026-04-26T14:28:43.761Z</time></trkpt><trkpt lat="42.5128238" lon="14.1351613"><ele>3.0</ele><time>2026-04-26T14:28:44.76Z</time></trkpt><trkpt lat="42.5129408" lon="14.1352852"><ele>3.0</ele><time>2026-04-26T14:28:45.763Z</time></trkpt><trkpt lat="42.5130433" lon="14.1354248"><ele>3.0</ele><time>2026-04-26T14:28:46.761Z</time></trkpt><trkpt lat="42.5131347" lon="14.135581"><ele>3.0</ele><time>2026-04-26T14:28:47.761Z</time></trkpt><trkpt lat="42.5132152" lon="14.1357473"><ele>3.0</ele><time>2026-04-26T14:28:48.763Z</time></trkpt><trkpt lat="42.5132827" lon="14.1359222"><ele>3.0</ele><time>2026-04-26T14:28:49.764Z</time></trkpt><trkpt lat="42.5133378" lon="14.1361062"><ele>3.0</ele><time>2026-04-26T14:28:50.762Z</time></trkpt><trkpt lat="42.513384" lon="14.136297"><ele>3.0</ele><time>2026-04-26T14:28:51.761Z</time></trkpt><trkpt lat="42.5134258" lon="14.1364892"><ele>3.0</ele><time>2026-04-26T14:28:52.761Z</time></trkpt><trkpt lat="42.5134682" lon="14.136667"><ele>3.0</ele><time>2026-04-26T14:28:53.761Z</time></trkpt><trkpt lat="42.5135143" lon="14.1368367"><ele>3.0</ele><time>2026-04-26T14:28:54.762Z</time></trkpt><trkpt lat="42.5135655" lon="14.1369903"><ele>3.2</ele><time>2026-04-26T14:28:55.765Z</time></trkpt><trkpt lat="42.5136163" lon="14.1371283"><ele>3.4</ele><time>2026-04-26T14:28:56.761Z</time></trkpt><trkpt lat="42.513664" lon="14.1372515"><ele>3.6000000000000005</ele><time>2026-04-26T14:28:57.761Z</time></trkpt><trkpt lat="42.5137067" lon="14.1373615"><ele>3.8000000000000003</ele><time>2026-04-26T14:28:58.763Z</time></trkpt><trkpt lat="42.5137417" lon="14.1374592"><ele>4.0</ele><time>2026-04-26T14:28:59.762Z</time></trkpt><trkpt lat="42.5137652" lon="14.137563"><ele>4.2</ele><time>2026-04-26T14:29:00.76Z</time></trkpt><trkpt lat="42.5137737" lon="14.1376803"><ele>4.4</ele><time>2026-04-26T14:29:01.758Z</time></trkpt><trkpt lat="42.5137633" lon="14.1378095"><ele>4.6</ele><time>2026-04-26T14:29:02.761Z</time></trkpt><trkpt lat="42.5137265" lon="14.137943"><ele>4.8</ele><time>2026-04-26T14:29:03.758Z</time></trkpt><trkpt lat="42.5136722" lon="14.1380848"><ele>5.0</ele><time>2026-04-26T14:29:04.758Z</time></trkpt><trkpt lat="42.5136135" lon="14.138239"><ele>5.0</ele><time>2026-04-26T14:29:05.759Z</time></trkpt><trkpt lat="42.5135513" lon="14.1383992"><ele>5.0</ele><time>2026-04-26T14:29:06.761Z</time></trkpt><trkpt lat="42.5134872" lon="14.138562"><ele>5.0</ele><time>2026-04-26T14:29:07.764Z</time></trkpt><trkpt lat="42.5134252" lon="14.1387288"><ele>5.0</ele><time>2026-04-26T14:29:08.76Z</time></trkpt><trkpt lat="42.513361" lon="14.1388985"><ele>5.5</ele><time>2026-04-26T14:29:09.761Z</time></trkpt><trkpt lat="42.513294" lon="14.1390672"><ele>6.0</ele><time>2026-04-26T14:29:10.762Z</time></trkpt><trkpt lat="42.5132262" lon="14.1392348"><ele>6.5</ele><time>2026-04-26T14:29:11.761Z</time></trkpt><trkpt lat="42.5131607" lon="14.1394017"><ele>7.0</ele><time>2026-04-26T14:29:12.761Z</time></trkpt><trkpt lat="42.5130975" lon="14.1395682"><ele>7.0</ele><time>2026-04-26T14:29:13.761Z</time></trkpt><trkpt lat="42.5130372" lon="14.139733"><ele>7.0</ele><time>2026-04-26T14:29:14.761Z</time></trkpt><trkpt lat="42.512978" lon="14.139899"><ele>7.0</ele><time>2026-04-26T14:29:15.762Z</time></trkpt><trkpt lat="42.5129185" lon="14.1400638"><ele>7.0</ele><time>2026-04-26T14:29:16.761Z</time></trkpt><trkpt lat="42.5128642" lon="14.140217"><ele>6.75</ele><time>2026-04-26T14:29:17.762Z</time></trkpt><trkpt lat="42.5128112" lon="14.1403652"><ele>6.5</ele><time>2026-04-26T14:29:18.761Z</time></trkpt><trkpt lat="42.5127573" lon="14.1405098"><ele>6.25</ele><time>2026-04-26T14:29:19.761Z</time></trkpt><trkpt lat="42.5127037" lon="14.1406505"><ele>6.0</ele><time>2026-04-26T14:29:20.761Z</time></trkpt><trkpt lat="42.512651" lon="14.1407838"><ele>6.4</ele><time>2026-04-26T14:29:21.762Z</time></trkpt><trkpt lat="42.5126007" lon="14.1409103"><ele>6.8</ele><time>2026-04-26T14:29:22.76Z</time></trkpt><trkpt lat="42.5125553" lon="14.1410332"><ele>7.200000000000001</ele><time>2026-04-26T14:29:23.76Z</time></trkpt><trkpt lat="42.5125165" lon="14.1411458"><ele>7.6000000000000005</ele><time>2026-04-26T14:29:24.76Z</time></trkpt><trkpt lat="42.512489" lon="14.1412483"><ele>8.0</ele><time>2026-04-26T14:29:25.757Z</time></trkpt><trkpt lat="42.512484" lon="14.141344"><ele>8.0</ele><time>2026-04-26T14:29:26.758Z</time></trkpt><trkpt lat="42.5125077" lon="14.1414275"><ele>7.999999999999999</ele><time>2026-04-26T14:29:27.757Z</time></trkpt><trkpt lat="42.512556" lon="14.1414888"><ele>8.0</ele><time>2026-04-26T14:29:28.755Z</time></trkpt><trkpt lat="42.512619" lon="14.1415208"><ele>8.0</ele><time>2026-04-26T14:29:29.758Z</time></trkpt><trkpt lat="42.512691" lon="14.1415233"><ele>7.999999999999999</ele><time>2026-04-26T14:29:30.76Z</time></trkpt><trkpt lat="42.5127695" lon="14.1415073"><ele>8.0</ele><time>2026-04-26T14:29:31.757Z</time></trkpt><trkpt lat="42.512857" lon="14.1414887"><ele>8.0</ele><time>2026-04-26T14:29:32.758Z</time></trkpt><trkpt lat="42.5129512" lon="14.1414727"><ele>7.6000000000000005</ele><time>2026-04-26T14:29:33.761Z</time></trkpt><trkpt lat="42.5130497" lon="14.1414622"><ele>7.200000000000001</ele><time>2026-04-26T14:29:34.757Z</time></trkpt><trkpt lat="42.5131522" lon="14.141461"><ele>6.8</ele><time>2026-04-26T14:29:35.758Z</time></trkpt><trkpt lat="42.5132572" lon="14.1414715"><ele>6.4</ele><time>2026-04-26T14:29:36.759Z</time></trkpt><trkpt lat="42.5133628" lon="14.1414943"><ele>6.0</ele><time>2026-04-26T14:29:37.758Z</time></trkpt><trkpt lat="42.5134662" lon="14.1415263"><ele>6.0</ele><time>2026-04-26T14:29:38.76Z</time></trkpt><trkpt lat="42.5135657" lon="14.1415728"><ele>6.0</ele><time>2026-04-26T14:29:39.762Z</time></trkpt><trkpt lat="42.5136608" lon="14.1416352"><ele>6.0</ele><time>2026-04-26T14:29:40.759Z</time></trkpt><trkpt lat="42.513749" lon="14.1416967"><ele>6.0</ele><time>2026-04-26T14:29:41.759Z</time></trkpt><trkpt lat="42.5138258" lon="14.1417478"><ele>6.0</ele><time>2026-04-26T14:29:42.759Z</time></trkpt><trkpt lat="42.5138925" lon="14.1417905"><ele>5.3999999999999995</ele><time>2026-04-26T14:29:43.756Z</time></trkpt><trkpt lat="42.5139955" lon="14.1418582"><ele>4.8</ele><time>2026-04-26T14:29:45.759Z</time></trkpt><trkpt lat="42.5140745" lon="14.1419092"><ele>4.199999999999999</ele><time>2026-04-26T14:29:47.761Z</time></trkpt><trkpt lat="42.5141353" lon="14.1419502"><ele>3.5999999999999996</ele><time>2026-04-26T14:29:49.759Z</time></trkpt><trkpt lat="42.514236" lon="14.1420458"><ele>3.0</ele><time>2026-04-26T14:29:51.758Z</time></trkpt><trkpt lat="42.5142848" lon="14.1421275"><ele>3.0</ele><time>2026-04-26T14:29:52.756Z</time></trkpt><trkpt lat="42.5143173" lon="14.1422287"><ele>3.0</ele><time>2026-04-26T14:29:53.758Z</time></trkpt><trkpt lat="42.5143423" lon="14.1423317"><ele>3.0</ele><time>2026-04-26T14:29:54.759Z</time></trkpt><trkpt lat="42.5143752" lon="14.1424162"><ele>3.0</ele><time>2026-04-26T14:29:55.76Z</time></trkpt><trkpt lat="42.5144748" lon="14.1424858"><ele>3.0</ele><time>2026-04-26T14:29:57.762Z</time></trkpt><trkpt lat="42.5145998" lon="14.1424373"><ele>2.8333333333333335</ele><time>2026-04-26T14:29:59.76Z</time></trkpt><trkpt lat="42.5146668" lon="14.1424172"><ele>2.6666666666666665</ele><time>2026-04-26T14:30:00.76Z</time></trkpt><trkpt lat="42.5147725" lon="14.142435"><ele>2.5</ele><time>2026-04-26T14:30:02.758Z</time></trkpt><trkpt lat="42.514841" lon="14.1424712"><ele>2.333333333333333</ele><time>2026-04-26T14:30:04.758Z</time></trkpt><trkpt lat="42.5149273" lon="14.1424365"><ele>2.1666666666666665</ele><time>2026-04-26T14:30:07.758Z</time></trkpt><trkpt lat="42.5149697" lon="14.1423203"><ele>2.0</ele><time>2026-04-26T14:30:09.761Z</time></trkpt><trkpt lat="42.5150293" lon="14.1421772"><ele>1.8333333333333333</ele><time>2026-04-26T14:30:11.761Z</time></trkpt><trkpt lat="42.515067" lon="14.1421037"><ele>1.6666666666666665</ele><time>2026-04-26T14:30:12.76Z</time></trkpt><trkpt lat="42.5151223" lon="14.1419792"><ele>1.5</ele><time>2026-04-26T14:30:14.754Z</time></trkpt><trkpt lat="42.515128" lon="14.1418707"><ele>1.3333333333333333</ele><time>2026-04-26T14:30:16.758Z</time></trkpt><trkpt lat="42.5150603" lon="14.1418177"><ele>1.1666666666666665</ele><time>2026-04-26T14:30:18.763Z</time></trkpt><trkpt lat="42.5149555" lon="14.14183"><ele>1.0</ele><time>2026-04-26T14:30:20.762Z</time></trkpt><trkpt lat="42.5148545" lon="14.141908"><ele>1.0</ele><time>2026-04-26T14:30:22.759Z</time></trkpt><trkpt lat="42.5147588" lon="14.141936"><ele>1.0</ele><time>2026-04-26T14:30:24.761Z</time></trkpt><trkpt lat="42.5146573" lon="14.1418775"><ele>1.0</ele><time>2026-04-26T14:30:26.758Z</time></trkpt><trkpt lat="42.514558" lon="14.1418123"><ele>1.0</ele><time>2026-04-26T14:30:28.758Z</time></trkpt><trkpt lat="42.5145072" lon="14.1417123"><ele>1.0</ele><time>2026-04-26T14:30:30.759Z</time></trkpt><trkpt lat="42.5145105" lon="14.1415747"><ele>3.0</ele><time>2026-04-26T14:30:32.759Z</time></trkpt><trkpt lat="42.5145302" lon="14.1414245"><ele>3.0</ele><time>2026-04-26T14:30:34.759Z</time></trkpt><trkpt lat="42.5145717" lon="14.1413163"><ele>4.0</ele><time>2026-04-26T14:30:36.765Z</time></trkpt><trkpt lat="42.5146073" lon="14.1412423"><ele>4.0</ele><time>2026-04-26T14:30:38.76Z</time></trkpt><trkpt lat="42.5146545" lon="14.1411578"><ele>4.0</ele><time>2026-04-26T14:30:43.76Z</time></trkpt></trkseg><trkseg><trkpt lat="42.5146115" lon="14.1410463"><ele>3.9999999999999996</ele><time>2026-04-26T14:44:08.757Z</time></trkpt><trkpt lat="42.5146637" lon="14.1411005"><ele>4.0</ele><time>2026-04-26T14:44:13.761Z</time></trkpt><trkpt lat="42.51466" lon="14.141204"><ele>4.0</ele><time>2026-04-26T14:44:36.758Z</time></trkpt><trkpt lat="42.5145872" lon="14.1413025"><ele>4.0</ele><time>2026-04-26T14:44:39.761Z</time></trkpt><trkpt lat="42.5144878" lon="14.1413773"><ele>3.9999999999999996</ele><time>2026-04-26T14:44:41.763Z</time></trkpt><trkpt lat="42.514431" lon="14.1414168"><ele>4.0</ele><time>2026-04-26T14:44:42.76Z</time></trkpt><trkpt lat="42.5143753" lon="14.1414627"><ele>3.833333333333333</ele><time>2026-04-26T14:44:43.763Z</time></trkpt><trkpt lat="42.5143135" lon="14.1415722"><ele>3.6666666666666665</ele><time>2026-04-26T14:44:45.76Z</time></trkpt><trkpt lat="42.5142718" lon="14.1416783"><ele>3.5</ele><time>2026-04-26T14:44:47.76Z</time></trkpt><trkpt lat="42.5142617" lon="14.141776"><ele>3.333333333333333</ele><time>2026-04-26T14:44:50.76Z</time></trkpt><trkpt lat="42.5142837" lon="14.1418575"><ele>3.1666666666666665</ele><time>2026-04-26T14:44:52.76Z</time></trkpt><trkpt lat="42.5143673" lon="14.1419418"><ele>3.0</ele><time>2026-04-26T14:44:54.76Z</time></trkpt><trkpt lat="42.514426" lon="14.1419852"><ele>3.0</ele><time>2026-04-26T14:44:55.759Z</time></trkpt><trkpt lat="42.514491" lon="14.1420345"><ele>3.0</ele><time>2026-04-26T14:44:56.756Z</time></trkpt><trkpt lat="42.5145623" lon="14.1420848"><ele>3.0</ele><time>2026-04-26T14:44:57.759Z</time></trkpt><trkpt lat="42.514633" lon="14.1421315"><ele>3.0</ele><time>2026-04-26T14:44:58.756Z</time></trkpt><trkpt lat="42.514702" lon="14.1421808"><ele>3.0</ele><time>2026-04-26T14:44:59.759Z</time></trkpt><trkpt lat="42.5147612" lon="14.1422278"><ele>3.0</ele><time>2026-04-26T14:45:00.759Z</time></trkpt><trkpt lat="42.5148277" lon="14.1423102"><ele>2.8333333333333335</ele><time>2026-04-26T14:45:02.76Z</time></trkpt><trkpt lat="42.5148408" lon="14.142423"><ele>2.6666666666666665</ele><time>2026-04-26T14:45:17.761Z</time></trkpt><trkpt lat="42.5148947" lon="14.142533"><ele>2.5</ele><time>2026-04-26T14:45:19.759Z</time></trkpt><trkpt lat="42.5149513" lon="14.1425813"><ele>2.333333333333333</ele><time>2026-04-26T14:45:20.761Z</time></trkpt><trkpt lat="42.5150225" lon="14.1426315"><ele>2.1666666666666665</ele><time>2026-04-26T14:45:21.758Z</time></trkpt><trkpt lat="42.5151058" lon="14.1426868"><ele>2.0</ele><time>2026-04-26T14:45:22.758Z</time></trkpt><trkpt lat="42.5151993" lon="14.1427502"><ele>2.0</ele><time>2026-04-26T14:45:23.758Z</time></trkpt><trkpt lat="42.5152993" lon="14.14282"><ele>2.0</ele><time>2026-04-26T14:45:24.758Z</time></trkpt><trkpt lat="42.5154013" lon="14.1428933"><ele>2.0</ele><time>2026-04-26T14:45:25.759Z</time></trkpt><trkpt lat="42.5155067" lon="14.1429718"><ele>2.0</ele><time>2026-04-26T14:45:26.759Z</time></trkpt><trkpt lat="42.5156178" lon="14.1430487"><ele>2.25</ele><time>2026-04-26T14:45:27.758Z</time></trkpt><trkpt lat="42.5157322" lon="14.1431292"><ele>2.5</ele><time>2026-04-26T14:45:28.759Z</time></trkpt><trkpt lat="42.51585" lon="14.1432118"><ele>2.75</ele><time>2026-04-26T14:45:29.758Z</time></trkpt><trkpt lat="42.5159703" lon="14.1432977"><ele>3.0</ele><time>2026-04-26T14:45:30.759Z</time></trkpt><trkpt lat="42.5160925" lon="14.1433857"><ele>3.25</ele><time>2026-04-26T14:45:31.754Z</time></trkpt><trkpt lat="42.5162168" lon="14.1434737"><ele>3.5</ele><time>2026-04-26T14:45:32.757Z</time></trkpt><trkpt lat="42.516342" lon="14.1435635"><ele>3.75</ele><time>2026-04-26T14:45:33.757Z</time></trkpt><trkpt lat="42.5164685" lon="14.1436543"><ele>4.0</ele><time>2026-04-26T14:45:34.755Z</time></trkpt><trkpt lat="42.516597" lon="14.1437468"><ele>4.0</ele><time>2026-04-26T14:45:35.758Z</time></trkpt><trkpt lat="42.516728" lon="14.143844"><ele>4.0</ele><time>2026-04-26T14:45:36.758Z</time></trkpt><trkpt lat="42.516864" lon="14.1439468"><ele>4.0</ele><time>2026-04-26T14:45:37.757Z</time></trkpt><trkpt lat="42.5170065" lon="14.1440505"><ele>3.6666666666666665</ele><time>2026-04-26T14:45:38.758Z</time></trkpt><trkpt lat="42.5171532" lon="14.144156"><ele>3.333333333333333</ele><time>2026-04-26T14:45:39.758Z</time></trkpt><trkpt lat="42.5173033" lon="14.1442628"><ele>3.0</ele><time>2026-04-26T14:45:40.76Z</time></trkpt><trkpt lat="42.5174545" lon="14.1443737"><ele>3.0</ele><time>2026-04-26T14:45:41.759Z</time></trkpt><trkpt lat="42.5176095" lon="14.1444845"><ele>3.0</ele><time>2026-04-26T14:45:42.762Z</time></trkpt><trkpt lat="42.5177663" lon="14.1445973"><ele>3.0</ele><time>2026-04-26T14:45:43.762Z</time></trkpt><trkpt lat="42.5179255" lon="14.1447112"><ele>3.0</ele><time>2026-04-26T14:45:44.761Z</time></trkpt><trkpt lat="42.518086" lon="14.1448275"><ele>3.0</ele><time>2026-04-26T14:45:45.757Z</time></trkpt><trkpt lat="42.5182487" lon="14.1449465"><ele>3.0</ele><time>2026-04-26T14:45:46.757Z</time></trkpt><trkpt lat="42.5184113" lon="14.1450655"><ele>3.0</ele><time>2026-04-26T14:45:47.757Z</time></trkpt><trkpt lat="42.5185747" lon="14.1451832"><ele>3.0</ele><time>2026-04-26T14:45:48.758Z</time></trkpt><trkpt lat="42.5187412" lon="14.145299"><ele>3.0</ele><time>2026-04-26T14:45:49.759Z</time></trkpt><trkpt lat="42.5189032" lon="14.1454102"><ele>3.0</ele><time>2026-04-26T14:45:50.758Z</time></trkpt><trkpt lat="42.5190535" lon="14.1455137"><ele>3.0</ele><time>2026-04-26T14:45:51.759Z</time></trkpt><trkpt lat="42.5191923" lon="14.1456095"><ele>3.0</ele><time>2026-04-26T14:45:52.76Z</time></trkpt><trkpt lat="42.5193147" lon="14.1456958"><ele>3.0</ele><time>2026-04-26T14:45:53.76Z</time></trkpt><trkpt lat="42.519412" lon="14.1457742"><ele>3.0</ele><time>2026-04-26T14:45:54.757Z</time></trkpt><trkpt lat="42.5194823" lon="14.1458458"><ele>3.0</ele><time>2026-04-26T14:45:55.755Z</time></trkpt><trkpt lat="42.5195342" lon="14.1459133"><ele>3.0</ele><time>2026-04-26T14:45:56.758Z</time></trkpt><trkpt lat="42.5195707" lon="14.1459833"><ele>3.0</ele><time>2026-04-26T14:45:57.758Z</time></trkpt><trkpt lat="42.5195788" lon="14.1461302"><ele>3.0</ele><time>2026-04-26T14:45:59.76Z</time></trkpt><trkpt lat="42.5195442" lon="14.1462135"><ele>3.0</ele><time>2026-04-26T14:46:00.762Z</time></trkpt><trkpt lat="42.5194888" lon="14.1463073"><ele>3.0</ele><time>2026-04-26T14:46:01.761Z</time></trkpt><trkpt lat="42.5194228" lon="14.1464082"><ele>3.0</ele><time>2026-04-26T14:46:02.76Z</time></trkpt><trkpt lat="42.5193582" lon="14.1465013"><ele>3.0</ele><time>2026-04-26T14:46:03.762Z</time></trkpt><trkpt lat="42.5192978" lon="14.1465827"><ele>3.0</ele><time>2026-04-26T14:46:04.759Z</time></trkpt><trkpt lat="42.5192432" lon="14.1466568"><ele>3.0</ele><time>2026-04-26T14:46:05.762Z</time></trkpt><trkpt lat="42.5191945" lon="14.1467263"><ele>3.0</ele><time>2026-04-26T14:46:06.761Z</time></trkpt><trkpt lat="42.5191537" lon="14.1468027"><ele>3.0</ele><time>2026-04-26T14:46:07.761Z</time></trkpt><trkpt lat="42.5191203" lon="14.1469545"><ele>3.0</ele><time>2026-04-26T14:46:09.76Z</time></trkpt><trkpt lat="42.5191487" lon="14.1470995"><ele>3.0</ele><time>2026-04-26T14:46:11.758Z</time></trkpt><trkpt lat="42.5192622" lon="14.1471848"><ele>3.0</ele><time>2026-04-26T14:46:13.756Z</time></trkpt><trkpt lat="42.519355" lon="14.1472247"><ele>3.0</ele><time>2026-04-26T14:46:14.758Z</time></trkpt><trkpt lat="42.519448" lon="14.1472812"><ele>3.0</ele><time>2026-04-26T14:46:15.759Z</time></trkpt><trkpt lat="42.5195373" lon="14.147366"><ele>3.0</ele><time>2026-04-26T14:46:16.759Z</time></trkpt><trkpt lat="42.5196265" lon="14.1474817"><ele>3.0</ele><time>2026-04-26T14:46:17.759Z</time></trkpt><trkpt lat="42.5197192" lon="14.1476272"><ele>2.0</ele><time>2026-04-26T14:46:18.761Z</time></trkpt><trkpt lat="42.5198162" lon="14.1477958"><ele>1.0</ele><time>2026-04-26T14:46:19.761Z</time></trkpt><trkpt lat="42.5199092" lon="14.147979"><ele>0.0</ele><time>2026-04-26T14:46:20.759Z</time></trkpt><trkpt lat="42.5199963" lon="14.1481758"><ele>0.6666666666666666</ele><time>2026-04-26T14:46:21.759Z</time></trkpt><trkpt lat="42.5200762" lon="14.1483817"><ele>1.3333333333333333</ele><time>2026-04-26T14:46:22.758Z</time></trkpt><trkpt lat="42.5201545" lon="14.1485925"><ele>2.0</ele><time>2026-04-26T14:46:23.759Z</time></trkpt><trkpt lat="42.5202303" lon="14.1488057"><ele>2.0</ele><time>2026-04-26T14:46:24.758Z</time></trkpt><trkpt lat="42.5202953" lon="14.1490028"><ele>2.0</ele><time>2026-04-26T14:46:25.759Z</time></trkpt><trkpt lat="42.5203547" lon="14.1491832"><ele>2.0</ele><time>2026-04-26T14:46:26.76Z</time></trkpt><trkpt lat="42.5204087" lon="14.149351"><ele>2.0</ele><time>2026-04-26T14:46:27.761Z</time></trkpt><trkpt lat="42.5204633" lon="14.1495183"><ele>2.0</ele><time>2026-04-26T14:46:28.761Z</time></trkpt><trkpt lat="42.5205172" lon="14.1496848"><ele>2.0</ele><time>2026-04-26T14:46:29.764Z</time></trkpt><trkpt lat="42.5205692" lon="14.1498443"><ele>2.0</ele><time>2026-04-26T14:46:30.762Z</time></trkpt><trkpt lat="42.5206182" lon="14.1499985"><ele>2.0</ele><time>2026-04-26T14:46:31.759Z</time></trkpt><trkpt lat="42.5206645" lon="14.1501417"><ele>2.25</ele><time>2026-04-26T14:46:32.761Z</time></trkpt><trkpt lat="42.5207125" lon="14.1502853"><ele>2.5</ele><time>2026-04-26T14:46:33.761Z</time></trkpt><trkpt lat="42.5207635" lon="14.1504307"><ele>2.75</ele><time>2026-04-26T14:46:34.757Z</time></trkpt><trkpt lat="42.5208115" lon="14.1505687"><ele>3.0</ele><time>2026-04-26T14:46:35.758Z</time></trkpt><trkpt lat="42.5208553" lon="14.1507"><ele>2.8</ele><time>2026-04-26T14:46:36.76Z</time></trkpt><trkpt lat="42.5208957" lon="14.1508253"><ele>2.5999999999999996</ele><time>2026-04-26T14:46:37.758Z</time></trkpt><trkpt lat="42.5209362" lon="14.1509483"><ele>2.4000000000000004</ele><time>2026-04-26T14:46:38.764Z</time></trkpt><trkpt lat="42.5209767" lon="14.151078"><ele>2.2</ele><time>2026-04-26T14:46:39.764Z</time></trkpt><trkpt lat="42.5210153" lon="14.1512028"><ele>2.0</ele><time>2026-04-26T14:46:40.761Z</time></trkpt><trkpt lat="42.5210562" lon="14.151335"><ele>2.0</ele><time>2026-04-26T14:46:41.762Z</time></trkpt><trkpt lat="42.5211012" lon="14.1514762"><ele>2.0</ele><time>2026-04-26T14:46:42.761Z</time></trkpt><trkpt lat="42.5211478" lon="14.151617"><ele>2.0</ele><time>2026-04-26T14:46:43.759Z</time></trkpt><trkpt lat="42.5211977" lon="14.1517407"><ele>2.0</ele><time>2026-04-26T14:46:44.762Z</time></trkpt><trkpt lat="42.5212445" lon="14.1518547"><ele>2.0</ele><time>2026-04-26T14:46:45.761Z</time></trkpt><trkpt lat="42.521286" lon="14.1519692"><ele>1.6</ele><time>2026-04-26T14:46:46.76Z</time></trkpt><trkpt lat="42.5213265" lon="14.152082"><ele>1.2000000000000002</ele><time>2026-04-26T14:46:47.763Z</time></trkpt><trkpt lat="42.5213618" lon="14.1521887"><ele>0.8</ele><time>2026-04-26T14:46:48.763Z</time></trkpt><trkpt lat="42.5214013" lon="14.1523093"><ele>0.4</ele><time>2026-04-26T14:46:49.763Z</time></trkpt><trkpt lat="42.5214473" lon="14.152458"><ele>0.0</ele><time>2026-04-26T14:46:50.761Z</time></trkpt><trkpt lat="42.5215003" lon="14.152632"><ele>0.0</ele><time>2026-04-26T14:46:51.764Z</time></trkpt><trkpt lat="42.5215642" lon="14.1528122"><ele>0.0</ele><time>2026-04-26T14:46:52.76Z</time></trkpt><trkpt lat="42.5216328" lon="14.1529783"><ele>0.0</ele><time>2026-04-26T14:46:53.762Z</time></trkpt><trkpt lat="42.5216958" lon="14.1531278"><ele>0.0</ele><time>2026-04-26T14:46:54.762Z</time></trkpt><trkpt lat="42.5217452" lon="14.1532642"><ele>0.0</ele><time>2026-04-26T14:46:55.76Z</time></trkpt><trkpt lat="42.521787" lon="14.1533825"><ele>0.0</ele><time>2026-04-26T14:46:56.761Z</time></trkpt><trkpt lat="42.521821" lon="14.153475"><ele>0.0</ele><time>2026-04-26T14:46:57.761Z</time></trkpt><trkpt lat="42.5218832" lon="14.1535997"><ele>0.0</ele><time>2026-04-26T14:46:59.765Z</time></trkpt><trkpt lat="42.5219805" lon="14.1536543"><ele>0.0</ele><time>2026-04-26T14:47:01.756Z</time></trkpt><trkpt lat="42.5220748" lon="14.153583"><ele>0.4</ele><time>2026-04-26T14:47:03.762Z</time></trkpt><trkpt lat="42.5221322" lon="14.1535202"><ele>0.8</ele><time>2026-04-26T14:47:04.758Z</time></trkpt><trkpt lat="42.5221988" lon="14.1534553"><ele>1.2000000000000002</ele><time>2026-04-26T14:47:05.763Z</time></trkpt><trkpt lat="42.522257" lon="14.153396"><ele>1.6</ele><time>2026-04-26T14:47:06.76Z</time></trkpt><trkpt lat="42.5223025" lon="14.1532595"><ele>2.0</ele><time>2026-04-26T14:47:08.758Z</time></trkpt><trkpt lat="42.5223443" lon="14.1531025"><ele>2.0</ele><time>2026-04-26T14:47:10.759Z</time></trkpt><trkpt lat="42.522363" lon="14.1530205"><ele>2.0</ele><time>2026-04-26T14:47:11.76Z</time></trkpt><trkpt lat="42.5223173" lon="14.1528557"><ele>2.0</ele><time>2026-04-26T14:47:13.761Z</time></trkpt><trkpt lat="42.5222772" lon="14.1527705"><ele>2.0</ele><time>2026-04-26T14:47:14.762Z</time></trkpt><trkpt lat="42.5222415" lon="14.1526987"><ele>2.0</ele><time>2026-04-26T14:47:15.761Z</time></trkpt><trkpt lat="42.5221902" lon="14.1526262"><ele>2.0</ele><time>2026-04-26T14:47:17.761Z</time></trkpt></trkseg></trk></gpx>